Tue May 11 09:33:16 2021 PDT

STN DATE TIME WDIR WSPD GUST TEMP DEWPT RH STNP RR YRRN DT QT INDRTEMP

A`s PRK NORTH: 05-11-2021 093255 223.5 4.9 4.9 62.4 46.8 0.0 29.86 0.000 0.000 15 2 81.1
A`s PRK SOUTH: 05-11-2021 093302 242.0 2.9 2.9 62.4 46.8 0.0 29.86 0.000 0.000 22 2 81.1
A`s LGT NORTH: 05-11-2021 093255 221.2 2.5 2.9 62.4 46.8 0.0 29.86 0.000 0.000 22 2 81.1

SLEEPTIME: 60 SECONDS
   NEXT HOME GAME 05/18/2021; FIRST PITCH: 6:40 PM PDT; GAMEPK: 634050


GOOD SENSOR STATUS FOR LAST 15854 SECONDS SINCE Tue May 11 05:07:02 2021

BASEBALL: 1 FOOTBALL: 0 GOLF: 1 BEACH VOLLEYBALL: 0 CRICKET: 1 STATCAST: 0 PUTON: 0
USED: 51% KBYTES: 14739332

LAST A`s PRK NORTH SENSOR TRANSMISSION FAILURE 15979 SECONDS AGO AT Tue May 11 05:05:57 2021
LAST RESUMPTION AFTER ≳ 60 SECOND LONG FAILURE WAS 69 SECONDS AGO AT Tue May 11 09:31:07 2021 DURATION OF FAILURE: 15910 SECONDS
LAST A`s PRK NORTH A`s WLL NORTH PRK FAILURE SECONDS AGO at
LAST A`s PRK NORTH A`s WLL NORTH PRK RESUMPTION AFTER ≳ 300 SECOND LONG FAILURE WAS SECONDS AGO AT DURATION OF FAILURE: 0 SECONDS

LAST A`s PRK SOUTH SENSOR TRANSMISSION FAILURE 15979 SECONDS AGO AT Tue May 11 05:05:57 2021
LAST RESUMPTION AFTER ≳ 60 SECOND LONG FAILURE WAS 69 SECONDS AGO AT Tue May 11 09:31:07 2021 DURATION OF FAILURE: 15910 SECONDS
LAST A`s PRK SOUTH A`s WLL SOUTH PRK FAILURE SECONDS AGO at
LAST A`s PRK SOUTH A`s WLL SOUTH PRK RESUMPTION AFTER ≳ 300 SECOND LONG FAILURE WAS SECONDS AGO AT DURATION OF FAILURE: 0 SECONDS

LAST A`s LGT NORTH SENSOR TRANSMISSION FAILURE 15979 SECONDS AGO AT Tue May 11 05:05:57 2021
LAST RESUMPTION AFTER ≳ 60 SECOND LONG FAILURE WAS 69 SECONDS AGO AT Tue May 11 09:31:07 2021 DURATION OF FAILURE: 15910 SECONDS
LAST A`s LGT NORTH A`s WLL NORTH LGHT FAILURE SECONDS AGO at
LAST A`s LGT NORTH A`s WLL NORTH LGHT RESUMPTION AFTER ≳ 300 SECOND LONG FAILURE WAS SECONDS AGO AT DURATION OF FAILURE: 0 SECONDS

G123 (1/0 = UP/DN): 111 ALL SENSORS REPORTING FOR DUTY, SUH!


NUMBER OF NEW PACKETS: 60 RATE: 0.923 ELAPSED TIME: 65
% OF A`s WLL NORTH PRK PACKETS/LAST 60: 33.3%
% OF A`s WLL SOUTH PRK PACKETS/LAST 60: 33.3%
% OF A`s WLL NORTH LGHT PACKETS/LAST 60: 33.3%
% OF PACKETS/LAST 60: 100.0%

TEAM1 #EMAILS: 75
SYSTEM #EMAILS: 4958

RING CENTRAL COLISEUM MAXFF: 8.90,332.3,055427,05-11-2021
KOAK MAXFF: 7.1,349.69,060000,05/11/2021
KOAK: 05-11-2021 093000 266.19 1.7 1.8 64.3 48.9 59.0 29.920 0.0000 0.0000
RING CENTRAL COLISEUM TAB2: 05-11-2021 093255 227.9 4.9 4.9 62 48.9 59.0 29.860 1 3 2 1 1 -2 -2 0 1 2 093000 15 22 22 0.000 093302
MLBC: RING CENTRAL COLISEUM,05-11-2021,093302,,,,,,0,0,0,0,0
MLBCK: KOAK,11-20-2019,041225,,,,,,0,0,0,0,0
MLBW: RING CENTRAL COLISEUM,05-11-2021,093302,,,,,,0,0,0,0,0
MLBWK: KOAK,11-20-2019,041225,,,,,,0,0,0,0,0
RING CENTRAL COLISEUM ORIENTATION: 235° NUMBER OF GOOD SENSORS: 3/3
XMLB0: 0.000
YMLB0: 0.000

HIGH FLY BALL DIST    XMLB YMLB        DDV    XDVL/R
TRAJECT 1:  368.435 
 -257.658  263.251          1             2
TRAJECT 2:  375.935 
 -165.139  337.637          3             2
TRAJECT 3:  377.731     
 -0.203  377.654          2             0
TRAJECT 4:   374.180  
 165.209  335.649          1             1
TRAJECT 5:   368.018  
 258.091  262.242          1             2



FORECAST DATA

DATE         TIME   DD   FF   GST   TF   DP   RH   PR   RR   EPOCH   DATETIMESTAMP

05-11-2021 090000 271.5 1.4 1.4 62 47.3 61.8 29.96 0.0000 1620738000 20210511090000
05-11-2021 100000 246.6 2.7 2.7 67 47.7 53.1 29.96 0.0000 1620741600 20210511100000
05-11-2021 110000 257.4 4.9 4.9 70 48.2 50.1 29.95 0.0000 1620745200 20210511110000
05-11-2021 120000 268.0 5.4 5.4 73 47.3 43.8 29.92 0.0000 1620748800 20210511120000
05-11-2021 130000 289.1 7.6 7.6 76 47.5 40.5 29.91 0.0000 1620752400 20210511130000
05-11-2021 140000 300.5 9.7 9.7 76 46.6 38.6 29.91 0.0000 1620756000 20210511140000
05-11-2021 150000 308.1 11.1 11.1 75 47.3 40.4 29.91 0.0000 1620759600 20210511150000
05-11-2021 160000 306.4 11.8 11.8 74 47.7 43.0 29.90 0.0000 1620763200 20210511160000
05-11-2021 170000 310.6 11.7 11.7 70 47.7 47.4 29.90 0.0000 1620766800 20210511170000
05-11-2021 180000 314.4 11.6 11.6 67 45.9 49.1 29.89 0.0000 1620770400 20210511180000
05-11-2021 190000 324.2 14.1 14.1 61 47.0 62.1 29.90 0.0000 1620774000 20210511190000
05-11-2021 200000 325.9 13.5 13.5 55 46.7 75.1 29.91 0.0000 1620777600 20210511200000
05-11-2021 210000 327.1 9.8 9.8 52 45.9 79.1 29.92 0.0000 1620781200 20210511210000
05-11-2021 220000 346.8 6.7 6.7 53 43.3 68.6 29.93 0.0000 1620784800 20210511220000
05-11-2021 230000 343.9 4.3 4.3 53 43.5 68.4 29.92 0.0000 1620788400 20210511230000
05-12-2021 000000 281.3 2.9 2.9 51 44.7 76.3 29.93 0.0000 1620792000 20210512000000
05-12-2021 010000 321.8 5.2 5.2 51 43.3 71.1 29.92 0.0000 1620795600 20210512010000
05-12-2021 020000 314.3 6.3 6.3 50 44.4 79.2 29.93 0.0000 1620799200 20210512020000
05-12-2021 030000 314.9 8.6 8.6 48 44.8 85.2 29.93 0.0000 1620802800 20210512030000
05-12-2021 040000 271.2 6.4 6.4 52 50.9 97.4 29.95 0.0000 1620806400 20210512040000
05-12-2021 050000 284.0 5.4 5.4 53 51.4 94.8 29.95 0.0000 1620810000 20210512050000
05-12-2021 060000 277.8 7.0 7.0 51 50.1 97.0 29.96 0.0000 1620813600 20210512060000
05-12-2021 070000 271.6 8.4 8.4 53 52.0 94.8 29.97 0.0000 1620817200 20210512070000
05-12-2021 080000 260.1 5.6 5.6 56 51.1 83.0 29.99 0.0000 1620820800 20210512080000
05-12-2021 090000 262.2 7.9 7.9 58 50.5 75.5 30.01 0.0000 1620824400 20210512090000
05-12-2021 100000 270.8 8.8 8.8 61 49.8 67.2 30.02 0.0000 1620828000 20210512100000
05-12-2021 110000 274.6 10.5 10.5 63 49.3 60.3 30.03 0.0000 1620831600 20210512110000
05-12-2021 120000 278.6 14.2 14.2 65 49.2 57.5 30.03 0.0000 1620835200 20210512120000
05-12-2021 130000 280.3 16.0 16.0 64 49.6 58.7 30.03 0.0000 1620838800 20210512130000
05-12-2021 140000 278.2 16.1 16.1 64 49.5 58.4 30.03 0.0000 1620842400 20210512140000
05-12-2021 150000 278.2 17.0 17.0 64 49.6 60.1 30.02 0.0000 1620846000 20210512150000
05-12-2021 160000 277.7 16.6 16.6 62 50.0 64.6 30.01 0.0000 1620849600 20210512160000
05-12-2021 170000 274.0 14.1 14.1 61 50.0 68.1 30.00 0.0000 1620853200 20210512170000
05-12-2021 180000 273.7 12.5 12.5 59 50.2 72.7 29.99 0.0000 1620856800 20210512180000
05-12-2021 190000 272.9 10.6 10.6 57 50.5 79.8 30.00 0.0000 1620860400 20210512190000
05-12-2021 200000 266.2 8.7 8.7 54 50.9 87.5 30.00 0.0000 1620864000 20210512200000
05-12-2021 210000 254.8 7.3 7.3 54 51.0 90.2 30.01 0.0000 1620867600 20210512210000
05-12-2021 220000 249.7 8.8 8.8 53 51.2 92.7 30.03 0.0000 1620871200 20210512220000
05-12-2021 230000 247.1 8.0 8.0 52 51.2 96.2 30.03 0.0000 1620874800 20210512230000
05-13-2021 000000 242.1 8.6 8.6 52 50.9 97.2 30.02 0.0000 1620878400 20210513000000
05-13-2021 010000 244.2 9.0 9.0 51 50.7 97.8 30.02 0.0000 1620882000 20210513010000
05-13-2021 020000 253.5 8.5 8.5 51 50.5 98.6 30.01 0.0000 1620885600 20210513020000
05-13-2021 030000 255.2 9.8 9.8 51 50.2 98.2 30.02 0.0000 1620889200 20210513030000
05-13-2021 040000 252.0 9.4 9.4 50 49.9 98.2 30.02 0.0000 1620892800 20210513040000
05-13-2021 050000 247.2 10.0 10.0 50 49.8 98.2 30.02 0.0000 1620896400 20210513050000
05-13-2021 060000 242.7 8.2 8.2 50 50.0 98.4 30.01 0.0000 1620900000 20210513060000
05-13-2021 070000 245.2 9.3 9.3 51 50.3 95.8 30.02 0.0000 1620903600 20210513070000
05-13-2021 080000 244.0 6.8 6.8 54 50.0 85.6 30.03 0.0000 1620907200 20210513080000
05-13-2021 090000 238.3 8.5 8.5 57 49.8 77.0 30.03 0.0000 1620910800 20210513090000
05-13-2021 100000 246.5 11.1 11.1 59 49.5 70.4 30.05 0.0000 1620914400 20210513100000
05-13-2021 110000 251.6 13.2 13.2 61 49.6 67.0 30.06 0.0000 1620918000 20210513110000
05-13-2021 120000 252.8 15.7 15.7 60 50.1 69.1 30.07 0.0000 1620921600 20210513120000
05-13-2021 130000 251.0 16.6 16.6 59 49.8 70.3 30.07 0.0000 1620925200 20210513130000
05-13-2021 140000 250.7 17.6 17.6 59 49.5 70.7 30.05 0.0000 1620928800 20210513140000
05-13-2021 150000 251.5 17.8 17.8 58 49.5 73.0 30.05 0.0000 1620932400 20210513150000
05-13-2021 160000 249.9 17.4 17.4 57 49.6 75.4 30.03 0.0000 1620936000 20210513160000
05-13-2021 170000 246.2 16.7 16.7 56 49.8 79.6 30.02 0.0000 1620939600 20210513170000
05-13-2021 180000 240.7 16.3 16.3 55 50.0 82.0 30.01 0.0000 1620943200 20210513180000
05-13-2021 190000 235.7 15.9 15.9 54 49.8 84.9 30.00 0.0000 1620946800 20210513190000
05-13-2021 200000 226.4 14.7 14.7 53 49.6 87.2 30.00 0.0000 1620950400 20210513200000
05-13-2021 210000 217.6 15.1 15.1 53 49.5 87.2 30.00 0.0000 1620954000 20210513210000
05-13-2021 220000 209.9 14.7 14.7 53 49.4 87.0 30.01 0.0000 1620957600 20210513220000
05-13-2021 230000 197.7 14.3 14.3 53 49.5 88.1 30.00 0.0000 1620961200 20210513230000
05-14-2021 000000 192.4 14.3 14.3 53 49.5 89.0 29.99 0.0000 1620964800 20210514000000
05-14-2021 010000 192.1 14.3 14.3 52 49.6 90.7 29.98 0.0000 1620968400 20210514010000
05-14-2021 020000 195.0 13.9 13.9 52 49.4 91.7 29.97 0.0000 1620972000 20210514020000
05-14-2021 030000 196.3 13.7 13.7 52 49.2 91.8 29.96 0.0000 1620975600 20210514030000
05-14-2021 040000 196.1 12.8 12.8 51 49.0 91.8 29.95 0.0000 1620979200 20210514040000
05-14-2021 050000 189.4 11.7 11.7 51 48.8 91.6 29.94 0.0000 1620982800 20210514050000
05-14-2021 060000 183.8 10.8 10.8 51 48.7 92.0 29.95 0.0000 1620986400 20210514060000
05-14-2021 070000 183.3 10.9 10.9 52 48.9 89.0 29.95 0.0000 1620990000 20210514070000
05-14-2021 080000 189.2 11.0 11.0 54 48.9 83.7 29.96 0.0000 1620993600 20210514080000
05-14-2021 090000 197.4 11.1 11.1 56 48.7 77.2 29.96 0.0000 1620997200 20210514090000
05-14-2021 100000 210.2 11.7 11.7 58 48.3 71.1 29.96 0.0000 1621000800 20210514100000
05-14-2021 110000 223.8 12.7 12.7 59 48.2 66.8 29.96 0.0000 1621004400 20210514110000
05-14-2021 120000 232.5 14.4 14.4 60 48.2 65.3 29.95 0.0000 1621008000 20210514120000
05-14-2021 130000 239.5 16.1 16.1 59 48.1 66.0 29.95 0.0000 1621011600 20210514130000
05-14-2021 140000 243.0 17.3 17.3 58 47.8 67.8 29.94 0.0000 1621015200 20210514140000
05-14-2021 150000 244.4 18.2 18.2 57 47.8 70.8 29.94 0.0000 1621018800 20210514150000
05-14-2021 160000 245.2 17.7 17.7 56 47.8 73.7 29.92 0.0000 1621022400 20210514160000
05-14-2021 170000 245.5 16.9 16.9 55 47.9 78.0 29.91 0.0000 1621026000 20210514170000
05-14-2021 180000 245.0 15.5 15.5 53 47.8 74.3 29.91 0.0000 1621029600 20210514180000
05-14-2021 190000 241.7 15.2 15.2 52 47.5 79.2 29.90 0.0000 1621033200 20210514190000
05-14-2021 200000 236.6 14.2 14.2 51 46.9 82.5 29.90 0.0000 1621036800 20210514200000
05-14-2021 210000 233.3 12.6 12.6 50 47.1 84.9 29.91 0.0000 1621040400 20210514210000
05-14-2021 220000 225.8 12.8 12.8 50 46.5 83.3 29.91 0.0000 1621044000 20210514220000
05-14-2021 230000 217.3 11.8 11.8 50 46.3 82.9 29.91 0.0000 1621047600 20210514230000
05-15-2021 000000 224.2 21.9 21.9 50 46.6 84.3 29.93 0.0000 1621051200 20210515000000
05-15-2021 010000 232.2 20.4 20.4 50 45.6 81.2 29.92 0.0000 1621054800 20210515010000
05-15-2021 020000 229.4 18.0 18.0 49 45.9 82.9 29.91 0.0000 1621058400 20210515020000
05-15-2021 030000 225.8 15.0 15.0 49 46.1 84.8 29.90 0.0000 1621062000 20210515030000
05-15-2021 040000 215.2 11.2 11.2 49 46.1 85.2 29.89 0.0000 1621065600 20210515040000
05-15-2021 050000 202.7 11.3 11.3 49 45.8 84.2 29.89 0.0000 1621069200 20210515050000
05-15-2021 060000 209.9 12.0 12.0 49 45.2 83.2 29.89 0.0000 1621072800 20210515060000
05-15-2021 070000 206.8 10.2 10.2 49 45.5 81.6 29.91 0.0000 1621076400 20210515070000
05-15-2021 080000 167.2 6.4 6.4 51 45.4 75.7 29.90 0.0000 1621080000 20210515080000
05-15-2021 090000 180.1 5.3 5.3 53 45.3 67.3 29.90 0.0000 1621083600 20210515090000


12:33:21 up 6:33, 2 users, load average: 0.31, 0.51, 0.74
12:32:16 up 6:32, 2 users, load average: 0.36, 0.58, 0.78
12:31:11 up 6:30, 2 users, load average: 0.36, 0.65, 0.81
12:30:06 up 6:29, 2 users, load average: 0.52, 0.75, 0.86
11:42:09 up 5:41, 2 users, load average: 0.63, 0.47, 0.85
11:41:04 up 5:40, 1 user, load average: 0.42, 0.43, 0.87
11:39:59 up 5:39, 1 user, load average: 0.27, 0.40, 0.89
11:38:55 up 5:38, 2 users, load average: 0.24, 0.44, 0.94
11:37:50 up 5:37, 2 users, load average: 0.37, 0.52, 1.00
11:36:46 up 5:36, 2 users, load average: 0.27, 0.53, 1.05
11:35:41 up 5:35, 2 users, load average: 0.23, 0.60, 1.11
11:34:27 up 5:34, 2 users, load average: 0.25, 0.68, 1.17
09:13:05 up 3:12, 1 user, load average: 1.14, 0.80, 0.55
09:12:00 up 3:11, 1 user, load average: 1.24, 0.72, 0.50
09:10:54 up 3:10, 1 user, load average: 2.35, 0.77, 0.51
09:09:49 up 3:09, 1 user, load average: 0.38, 0.39, 0.39
09:08:44 up 3:08, 1 user, load average: 0.47, 0.42, 0.40
09:07:39 up 3:07, 1 user, load average: 0.50, 0.45, 0.41
09:06:34 up 3:06, 1 user, load average: 0.45, 0.46, 0.42
09:05:30 up 3:05, 1 user, load average: 0.26, 0.42, 0.40
09:04:25 up 3:04, 1 user, load average: 0.36, 0.48, 0.42
09:03:21 up 3:03, 1 user, load average: 0.64, 0.54, 0.43
09:02:17 up 3:02, 1 user, load average: 1.44, 0.62, 0.45
09:01:12 up 3:00, 1 user, load average: 0.56, 0.32, 0.34
09:00:06 up 2:59, 1 user, load average: 0.31, 0.28, 0.34
08:59:01 up 2:58, 1 user, load average: 0.35, 0.29, 0.34
08:57:57 up 2:57, 1 user, load average: 0.30, 0.28, 0.35
08:56:52 up 2:56, 1 user, load average: 0.33, 0.29, 0.35
08:55:48 up 2:55, 1 user, load average: 0.30, 0.29, 0.35
08:54:44 up 2:54, 1 user, load average: 0.29, 0.27, 0.35
08:53:39 up 2:53, 1 user, load average: 0.21, 0.26, 0.35
08:52:35 up 2:52, 1 user, load average: 0.27, 0.29, 0.37
08:51:31 up 2:51, 1 user, load average: 0.37, 0.32, 0.39
08:50:26 up 2:50, 1 user, load average: 0.46, 0.32, 0.39
08:49:22 up 2:49, 1 user, load average: 0.30, 0.28, 0.39
08:48:18 up 2:48, 1 user, load average: 0.33, 0.30, 0.41
08:47:13 up 2:46, 1 user, load average: 0.31, 0.31, 0.42
08:46:08 up 2:45, 1 user, load average: 0.44, 0.35, 0.44
08:45:04 up 2:44, 1 user, load average: 0.31, 0.30, 0.43
08:43:59 up 2:43, 1 user, load average: 0.30, 0.31, 0.44
08:42:55 up 2:42, 1 user, load average: 0.29, 0.33, 0.46
08:41:50 up 2:41, 1 user, load average: 0.48, 0.38, 0.49
08:40:46 up 2:40, 1 user, load average: 0.39, 0.37, 0.50
08:39:41 up 2:39, 1 user, load average: 0.33, 0.38, 0.51
08:38:37 up 2:38, 1 user, load average: 0.37, 0.41, 0.53
08:37:33 up 2:37, 1 user, load average: 0.49, 0.46, 0.55
08:36:29 up 2:36, 1 user, load average: 0.35, 0.44, 0.56
08:35:24 up 2:35, 1 user, load average: 0.32, 0.44, 0.57
08:34:20 up 2:34, 1 user, load average: 0.38, 0.50, 0.59
08:33:15 up 2:32, 1 user, load average: 0.35, 0.54, 0.62
08:32:11 up 2:31, 1 user, load average: 0.45, 0.61, 0.64
08:31:07 up 2:30, 1 user, load average: 0.81, 0.71, 0.68
08:30:02 up 2:29, 1 user, load average: 1.35, 0.73, 0.68
08:28:58 up 2:28, 1 user, load average: 0.95, 0.55, 0.62
08:27:53 up 2:27, 1 user, load average: 0.16, 0.37, 0.57
08:26:48 up 2:26, 1 user, load average: 0.17, 0.42, 0.60
08:25:44 up 2:25, 1 user, load average: 0.27, 0.49, 0.64
08:24:39 up 2:24, 1 user, load average: 0.42, 0.57, 0.68
08:23:35 up 2:23, 1 user, load average: 0.77, 0.65, 0.71
08:22:30 up 2:22, 1 user, load average: 0.52, 0.62, 0.70
08:21:26 up 2:21, 1 user, load average: 1.06, 0.71, 0.74
08:20:22 up 2:20, 1 user, load average: 0.21, 0.51, 0.68
08:19:17 up 2:19, 1 user, load average: 0.24, 0.58, 0.71
08:18:13 up 2:17, 1 user, load average: 0.42, 0.68, 0.75
08:17:09 up 2:16, 1 user, load average: 0.66, 0.77, 0.79
08:16:04 up 2:15, 1 user, load average: 1.21, 0.85, 0.81
08:14:59 up 2:14, 1 user, load average: 0.89, 0.71, 0.76
08:13:54 up 2:13, 1 user, load average: 1.14, 0.67, 0.75
08:12:49 up 2:12, 1 user, load average: 0.81, 0.51, 0.71
08:11:44 up 2:11, 1 user, load average: 0.22, 0.39, 0.69
08:10:40 up 2:10, 1 user, load average: 0.23, 0.43, 0.72
08:09:36 up 2:09, 1 user, load average: 0.25, 0.48, 0.76
08:08:31 up 2:08, 1 user, load average: 0.33, 0.54, 0.80
08:07:27 up 2:07, 1 user, load average: 0.54, 0.62, 0.84
08:06:02 up 2:05, 1 user, load average: 0.48, 0.66, 0.88
08:04:57 up 2:04, 1 user, load average: 0.79, 0.72, 0.91



Subject: TEAM1 RESTART OF A`s PRK NORTH SENSOR FOR OAK at Sun May 9 18:46:13 2021
Sun May 9 18:46:13 2021 RESTART OF A`s PRK NORTH SENSOR BECAUSE AGE OF /home/sinton/1/weather1.txta DECREASED TO: 87 FROM 18 AND AGEAOLD[1]: 18 > 300 AND age of /home/sinton/1/weather1.txta: 87 < 300 and SIZE: 74
Sun May 9 21:46:13 EDT 2021

Subject: TEAM1 RESTART OF A`s PRK SOUTH SENSOR FOR OAK2 at Sun May 9 18:46:13 2021
Sun May 9 18:46:13 2021 RESTART OF A`s PRK SOUTH SENSOR BECAUSE AGE OF /home/sinton/1/weather2.txta DECREASED TO: 87 FROM 18 AND AGEAOLD[2]: 18 > 300 AND age of /home/sinton/1/weather2.txta: 87 < 300 and SIZE: 74
Sun May 9 21:46:13 EDT 2021

Subject: TEAM1 RESTART OF A`s LGT NORTH SENSOR FOR OAK3 at Sun May 9 18:46:13 2021
Sun May 9 18:46:13 2021 RESTART OF A`s LGT NORTH SENSOR BECAUSE AGE OF /home/sinton/1/weather3.txta DECREASED TO: 87 FROM 18 AND AGEAOLD[3]: 18 > 300 AND age of /home/sinton/1/weather3.txta: 87 < 300 and SIZE: 74
Sun May 9 21:46:13 EDT 2021

Subject: TEAM1 RESTART OF A`s LGT NORTH SENSOR FOR OAK3 at Sun May 9 19:30:29 2021
Sun May 9 19:30:29 2021 RESTART OF A`s LGT NORTH SENSOR BECAUSE AGE OF /home/sinton/1/weather3.txta DECREASED TO: 80 FROM 16 AND AGEAOLD[3]: 16 > 300 AND age of /home/sinton/1/weather3.txta: 80 < 300 and SIZE: 74
Sun May 9 22:30:29 EDT 2021

Subject: TEAM1 RESTART OF A`s LGT NORTH SENSOR FOR OAK3 at Sun May 9 19:34:46 2021
Sun May 9 19:34:46 2021 RESTART OF A`s LGT NORTH SENSOR BECAUSE AGE OF /home/sinton/1/weather3.txta DECREASED TO: 77 FROM 13 AND AGEAOLD[3]: 13 > 300 AND age of /home/sinton/1/weather3.txta: 77 < 300 and SIZE: 74
Sun May 9 22:34:46 EDT 2021

Subject: TEAM1 RESTART OF A`s LGT NORTH SENSOR FOR OAK3 at Sun May 9 19:37:58 2021
Sun May 9 19:37:58 2021 RESTART OF A`s LGT NORTH SENSOR BECAUSE AGE OF /home/sinton/1/weather3.txta DECREASED TO: 129 FROM 65 AND AGEAOLD[3]: 65 > 300 AND age of /home/sinton/1/weather3.txta: 129 < 300 and SIZE: 74
Sun May 9 22:37:58 EDT 2021

Subject: TEAM1 RESTART OF A`s LGT NORTH SENSOR FOR OAK3 at Sun May 9 19:58:15 2021
Sun May 9 19:58:15 2021 RESTART OF A`s LGT NORTH SENSOR BECAUSE AGE OF /home/sinton/1/weather3.txta DECREASED TO: 144 FROM 80 AND AGEAOLD[3]: 80 > 300 AND age of /home/sinton/1/weather3.txta: 144 < 300 and SIZE: 74
Sun May 9 22:58:15 EDT 2021

Subject: TEAM1 RESTART OF A`s LGT NORTH SENSOR FOR OAK3 at Sun May 9 20:00:23 2021
Sun May 9 20:00:23 2021 RESTART OF A`s LGT NORTH SENSOR BECAUSE AGE OF /home/sinton/1/weather3.txta DECREASED TO: 73 FROM 8 AND AGEAOLD[3]: 8 > 300 AND age of /home/sinton/1/weather3.txta: 73 < 300 and SIZE: 74
Sun May 9 23:00:23 EDT 2021

Subject: TEAM1 RESTART OF A`s PRK NORTH SENSOR FOR OAK at Sun May 9 22:36:59 2021
Sun May 9 22:36:59 2021 RESTART OF A`s PRK NORTH SENSOR BECAUSE AGE OF /home/sinton/1/weather1.txta DECREASED TO: 81 FROM 16 AND AGEAOLD[1]: 16 > 300 AND age of /home/sinton/1/weather1.txta: 81 < 300 and SIZE: 74
Mon May 10 01:36:59 EDT 2021

Subject: TEAM1 RESTART OF A`s PRK SOUTH SENSOR FOR OAK2 at Sun May 9 22:36:59 2021
Sun May 9 22:36:59 2021 RESTART OF A`s PRK SOUTH SENSOR BECAUSE AGE OF /home/sinton/1/weather2.txta DECREASED TO: 81 FROM 16 AND AGEAOLD[2]: 16 > 300 AND age of /home/sinton/1/weather2.txta: 81 < 300 and SIZE: 74
Mon May 10 01:37:00 EDT 2021

Subject: TEAM1 RESTART OF A`s PRK NORTH SENSOR FOR OAK at Sun May 9 23:28:28 2021
Sun May 9 23:28:28 2021 RESTART OF A`s PRK NORTH SENSOR BECAUSE AGE OF /home/sinton/1/weather1.txta DECREASED TO: 66 FROM 2 AND AGEAOLD[1]: 2 > 300 AND age of /home/sinton/1/weather1.txta: 66 < 300 and SIZE: 74
Mon May 10 02:28:28 EDT 2021

Subject: TEAM1 MANG, ARCHIVE OAKCA copied /home/sinton/sjsu1/oakq.tab to /home/sinton/sjsu1/save/oak_05_09_2021.tab and /home/sinton/sjsu1/input/oak.head to /home/sinton/sjsu1/oakq.tab and then /home/sinton/sjsu1/oakq.tab to /home/sinton/sjsu1/oak.tabf and then /home/sinton/sjsu1/oak.tabf to /home/sinton/sjsu1/save/oak.tab and then /home/sinton/sjsu1/oak.tabf to /home/sinton/public_html/John1/oakp.tab at Mon May 10 00:00:02 2021
MANG, ARCHIVE OAKCA copied /home/sinton/sjsu1/oakq.tab to /home/sinton/sjsu1/save/oak_05_09_2021.tab and /home/sinton/sjsu1/input/oak.head to /home/sinton/sjsu1/oakq.tab and then /home/sinton/sjsu1/oakq.tab to /home/sinton/sjsu1/oak.tabf and then /home/sinton/sjsu1/oak.tabf to /home/sinton/sjsu1/save/oak.tab and then /home/sinton/sjsu1/oak.tabf to /home/sinton/public_html/John1/oakp.tab at Mon May 10 00:00:02 2021
Mon May 10 03:00:04 EDT 2021

Subject: TEAM1 RESTART OF A`s PRK SOUTH SENSOR FOR OAK2 at Mon May 10 02:25:46 2021
Mon May 10 02:25:46 2021 RESTART OF A`s PRK SOUTH SENSOR BECAUSE AGE OF /home/sinton/1/weather2.txta DECREASED TO: 74 FROM 10 AND AGEAOLD[2]: 10 > 300 AND age of /home/sinton/1/weather2.txta: 74 < 300 and SIZE: 74
Mon May 10 05:25:46 EDT 2021

Subject: INIT2_TEAM1 at Mon May 10 10:01:03 UTC 2021

Subject: INIT1_TEAM1 at Mon May 10 10:01:03 UTC 2021

Subject: TEAM1 RESTART OF A`s PRK SOUTH SENSOR FOR OAK2 at Mon May 10 04:22:46 2021
Mon May 10 04:22:46 2021 RESTART OF A`s PRK SOUTH SENSOR BECAUSE AGE OF /home/sinton/1/weather2.txta DECREASED TO: 76 FROM 12 AND AGEAOLD[2]: 12 > 300 AND age of /home/sinton/1/weather2.txta: 76 < 300 and SIZE: 74
Mon May 10 07:22:46 EDT 2021

Subject: TEAM1 RESTART OF A`s PRK SOUTH SENSOR FOR OAK2 at Mon May 10 05:16:26 2021
Mon May 10 05:16:26 2021 RESTART OF A`s PRK SOUTH SENSOR BECAUSE AGE OF /home/sinton/1/weather2.txta DECREASED TO: 134 FROM 70 AND AGEAOLD[2]: 70 > 300 AND age of /home/sinton/1/weather2.txta: 134 < 300 and SIZE: 74
Mon May 10 08:16:26 EDT 2021

Subject: TEAM1 RESTART OF A`s LGT NORTH SENSOR FOR OAK3 at Mon May 10 06:32:42 2021
Mon May 10 06:32:42 2021 RESTART OF A`s LGT NORTH SENSOR BECAUSE AGE OF /home/sinton/1/weather3.txta DECREASED TO: 66 FROM 2 AND AGEAOLD[3]: 2 > 300 AND age of /home/sinton/1/weather3.txta: 66 < 300 and SIZE: 73
Mon May 10 09:32:42 EDT 2021

Subject: TEAM1 RESTART OF A`s LGT NORTH SENSOR FOR OAK3 at Mon May 10 07:45:30 2021
Mon May 10 07:45:30 2021 RESTART OF A`s LGT NORTH SENSOR BECAUSE AGE OF /home/sinton/1/weather3.txta DECREASED TO: 69 FROM 5 AND AGEAOLD[3]: 5 > 300 AND age of /home/sinton/1/weather3.txta: 69 < 300 and SIZE: 73
Mon May 10 10:45:30 EDT 2021

Subject: TEAM1 RESTART OF A`s PRK NORTH SENSOR FOR OAK at Mon May 10 10:53:11 2021
Mon May 10 10:53:11 2021 RESTART OF A`s PRK NORTH SENSOR BECAUSE AGE OF /home/sinton/1/weather1.txta DECREASED TO: 80 FROM 16 AND AGEAOLD[1]: 16 > 300 AND age of /home/sinton/1/weather1.txta: 80 < 300 and SIZE: 74
Mon May 10 13:53:11 EDT 2021

Subject: TEAM1 RESTART OF A`s PRK SOUTH SENSOR FOR OAK2 at Mon May 10 10:53:11 2021
Mon May 10 10:53:11 2021 RESTART OF A`s PRK SOUTH SENSOR BECAUSE AGE OF /home/sinton/1/weather2.txta DECREASED TO: 80 FROM 16 AND AGEAOLD[2]: 16 > 300 AND age of /home/sinton/1/weather2.txta: 80 < 300 and SIZE: 74
Mon May 10 13:53:11 EDT 2021

Subject: TEAM1 RESTART OF A`s LGT NORTH SENSOR FOR OAK3 at Mon May 10 10:53:11 2021
Mon May 10 10:53:11 2021 RESTART OF A`s LGT NORTH SENSOR BECAUSE AGE OF /home/sinton/1/weather3.txta DECREASED TO: 80 FROM 16 AND AGEAOLD[3]: 16 > 300 AND age of /home/sinton/1/weather3.txta: 80 < 300 and SIZE: 74
Mon May 10 13:53:11 EDT 2021

Subject: TEAM1 RESTART OF A`s LGT NORTH SENSOR FOR OAK3 at Mon May 10 11:12:48 2021
Mon May 10 11:12:48 2021 RESTART OF A`s LGT NORTH SENSOR BECAUSE AGE OF /home/sinton/1/weather3.txta DECREASED TO: 196 FROM 132 AND AGEAOLD[3]: 132 > 300 AND age of /home/sinton/1/weather3.txta: 196 < 300 and SIZE: 74
Mon May 10 14:12:48 EDT 2021

Subject: TEAM1 RESTART OF A`s LGT NORTH SENSOR FOR OAK3 at Mon May 10 11:16:01 2021
Mon May 10 11:16:01 2021 RESTART OF A`s LGT NORTH SENSOR BECAUSE AGE OF /home/sinton/1/weather3.txta DECREASED TO: 148 FROM 84 AND AGEAOLD[3]: 84 > 300 AND age of /home/sinton/1/weather3.txta: 148 < 300 and SIZE: 74
Mon May 10 14:16:01 EDT 2021

Subject: TEAM1 RESTART OF A`s PRK NORTH SENSOR FOR OAK at Mon May 10 14:05:33 2021
Mon May 10 14:05:33 2021 RESTART OF A`s PRK NORTH SENSOR BECAUSE AGE OF /home/sinton/1/weather1.txta DECREASED TO: 71 FROM 7 AND AGEAOLD[1]: 7 > 300 AND age of /home/sinton/1/weather1.txta: 71 < 300 and SIZE: 76
Mon May 10 17:05:33 EDT 2021

Subject: TEAM1 RESTART OF A`s PRK SOUTH SENSOR FOR OAK2 at Mon May 10 14:05:33 2021
Mon May 10 14:05:33 2021 RESTART OF A`s PRK SOUTH SENSOR BECAUSE AGE OF /home/sinton/1/weather2.txta DECREASED TO: 71 FROM 7 AND AGEAOLD[2]: 7 > 300 AND age of /home/sinton/1/weather2.txta: 71 < 300 and SIZE: 76
Mon May 10 17:05:33 EDT 2021

Subject: TEAM1 RESTART OF A`s LGT NORTH SENSOR FOR OAK3 at Mon May 10 14:05:33 2021
Mon May 10 14:05:33 2021 RESTART OF A`s LGT NORTH SENSOR BECAUSE AGE OF /home/sinton/1/weather3.txta DECREASED TO: 71 FROM 7 AND AGEAOLD[3]: 7 > 300 AND age of /home/sinton/1/weather3.txta: 71 < 300 and SIZE: 76
Mon May 10 17:05:33 EDT 2021

Subject: TEAM1 RESTART OF A`s LGT NORTH SENSOR FOR OAK3 at Mon May 10 15:21:24 2021
Mon May 10 15:21:24 2021 RESTART OF A`s LGT NORTH SENSOR BECAUSE AGE OF /home/sinton/1/weather3.txta DECREASED TO: 81 FROM 17 AND AGEAOLD[3]: 17 > 300 AND age of /home/sinton/1/weather3.txta: 81 < 300 and SIZE: 74
Mon May 10 18:21:24 EDT 2021

Subject: TEAM1 RESTART OF A`s LGT NORTH SENSOR FOR OAK3 at Mon May 10 15:25:41 2021
Mon May 10 15:25:41 2021 RESTART OF A`s LGT NORTH SENSOR BECAUSE AGE OF /home/sinton/1/weather3.txta DECREASED TO: 198 FROM 133 AND AGEAOLD[3]: 133 > 300 AND age of /home/sinton/1/weather3.txta: 198 < 300 and SIZE: 74
Mon May 10 18:25:41 EDT 2021

Subject: INIT2_TEAM1 at Tue May 11 04:41:02 UTC 2021

Subject: INIT1_TEAM1 at Tue May 11 04:41:02 UTC 2021

Subject: TEAM1 TOO MUCH TIME ELAPSED SINCE LAST A`s PRK NORTH UPDATE: 10568 SECONDS AT OAK1CA MANG at Mon May 10 21:42:02 2021 for OAK1
TIME ELAPSED SINCE LAST A`s PRK NORTH WX[1] UPDATE: 10568 SECONDS at Mon May 10 21:42:02 2021 for OAK1
Tue May 11 00:42:02 EDT 2021

Subject: TEAM1 TOO MUCH TIME ELAPSED SINCE LAST A`s PRK SOUTH UPDATE: 10568 SECONDS AT OAK2CA MANG at Mon May 10 21:42:02 2021 for OAK2
TIME ELAPSED SINCE LAST A`s PRK SOUTH WX[2] UPDATE: 10568 SECONDS at Mon May 10 21:42:02 2021 for OAK2
Tue May 11 00:42:02 EDT 2021

Subject: TEAM1 TOO MUCH TIME ELAPSED SINCE LAST A`s LGT NORTH UPDATE: 10568 SECONDS AT OAK3CA MANG at Mon May 10 21:42:02 2021 for OAK3
TIME ELAPSED SINCE LAST A`s LGT NORTH WX[3] UPDATE: 10568 SECONDS at Mon May 10 21:42:02 2021 for OAK3
Tue May 11 00:42:02 EDT 2021

Subject: TEAM1 TOO MUCH TIME ELAPSED SINCE LAST OAKTAB UPDATE: 10552 SECONDS AT OAKCA MANG at Mon May 10 21:42:02 2021 for OAK
TIME ELAPSED SINCE LAST OAKTAB UPDATE: 10552 SECONDS at Mon May 10 21:42:02 2021 for OAK
Tue May 11 00:42:02 EDT 2021

Subject: TEAM1 CONDITION CLEAR: OAK1CA WXA[1] ELAPSED TIME RESOLVED since time since last update: 65 <= 1800 at Mon May 10 21:43:07 2021 and ORIGINAL CONDITION: Tue May 11 00:42:02 EDT 2021
CONDITION CLEAR: OAK1CA ELAPSED TIME WXA[1] RESOLVED since time since last update: 65 <= 1800 at Mon May 10 21:43:07 2021 and ORIGINAL CONDITION: Tue May 11 00:42:02 EDT 2021
Tue May 11 00:43:07 EDT 2021

Subject: TEAM1 CONDITION CLEAR: OAK2CA WXA[2] ELAPSED TIME RESOLVED since time since last update: 65 <= 1800 at Mon May 10 21:43:07 2021 and ORIGINAL CONDITION: Tue May 11 00:42:02 EDT 2021
CONDITION CLEAR: OAK2CA ELAPSED TIME WXA[2] RESOLVED since time since last update: 65 <= 1800 at Mon May 10 21:43:07 2021 and ORIGINAL CONDITION: Tue May 11 00:42:02 EDT 2021
Tue May 11 00:43:07 EDT 2021

Subject: TEAM1 CONDITION CLEAR: OAK3CA WXA[3] ELAPSED TIME RESOLVED since time since last update: 65 <= 1800 at Mon May 10 21:43:07 2021 and ORIGINAL CONDITION: Tue May 11 00:42:02 EDT 2021
CONDITION CLEAR: OAK3CA ELAPSED TIME WXA[3] RESOLVED since time since last update: 65 <= 1800 at Mon May 10 21:43:07 2021 and ORIGINAL CONDITION: Tue May 11 00:42:02 EDT 2021
Tue May 11 00:43:07 EDT 2021

Subject: TEAM1 CONDITION CLEAR: OAKCA ELAPSED TIME RESOLVED since time since last update: 61 <= 1800 at Mon May 10 21:43:07 2021 and ORIGINAL CONDITION: Tue May 11 00:42:02 EDT 2021
CONDITION CLEAR: OAKCA ELAPSED TIME RESOLVED since time since last update: 61 <= 1800 at Mon May 10 21:43:07 2021 and ORIGINAL CONDITION: Tue May 11 00:42:02 EDT 2021
Tue May 11 00:43:07 EDT 2021

Subject: TEAM1 RESTART OF A`s PRK NORTH SENSOR FOR OAK at Mon May 10 21:43:07 2021
Mon May 10 21:43:07 2021 RESTART OF A`s PRK NORTH SENSOR BECAUSE AGE OF /home/sinton/1/weather1.txta DECREASED TO: 4 FROM 10508 AND AGEAOLD[1]: 10508 > 300 AND age of /home/sinton/1/weather1.txta: 4 < 300 and SIZE: 74
Tue May 11 00:43:07 EDT 2021

Subject: TEAM1 RESTART OF A`s PRK SOUTH SENSOR FOR OAK2 at Mon May 10 21:43:07 2021
Mon May 10 21:43:07 2021 RESTART OF A`s PRK SOUTH SENSOR BECAUSE AGE OF /home/sinton/1/weather2.txta DECREASED TO: 4 FROM 10508 AND AGEAOLD[2]: 10508 > 300 AND age of /home/sinton/1/weather2.txta: 4 < 300 and SIZE: 74
Tue May 11 00:43:07 EDT 2021

Subject: TEAM1 RESTART OF A`s LGT NORTH SENSOR FOR OAK3 at Mon May 10 21:43:07 2021
Mon May 10 21:43:07 2021 RESTART OF A`s LGT NORTH SENSOR BECAUSE AGE OF /home/sinton/1/weather3.txta DECREASED TO: 4 FROM 10508 AND AGEAOLD[3]: 10508 > 300 AND age of /home/sinton/1/weather3.txta: 4 < 300 and SIZE: 74
Tue May 11 00:43:07 EDT 2021

Subject: TEAM1 RESTART OF A`s PRK NORTH SENSOR FOR OAK at Mon May 10 22:06:42 2021
Mon May 10 22:06:42 2021 RESTART OF A`s PRK NORTH SENSOR BECAUSE AGE OF /home/sinton/1/weather1.txta DECREASED TO: 79 FROM 15 AND AGEAOLD[1]: 15 > 300 AND age of /home/sinton/1/weather1.txta: 79 < 300 and SIZE: 74
Tue May 11 01:06:42 EDT 2021

Subject: TEAM1 RESTART OF A`s PRK NORTH SENSOR FOR OAK at Mon May 10 22:31:25 2021
Mon May 10 22:31:25 2021 RESTART OF A`s PRK NORTH SENSOR BECAUSE AGE OF /home/sinton/1/weather1.txta DECREASED TO: 81 FROM 16 AND AGEAOLD[1]: 16 > 300 AND age of /home/sinton/1/weather1.txta: 81 < 300 and SIZE: 74
Tue May 11 01:31:25 EDT 2021

Subject: TEAM1 MANG, ARCHIVE OAKCA copied /home/sinton/sjsu1/oakq.tab to /home/sinton/sjsu1/save/oak_05_10_2021.tab and /home/sinton/sjsu1/input/oak.head to /home/sinton/sjsu1/oakq.tab and then /home/sinton/sjsu1/oakq.tab to /home/sinton/sjsu1/oak.tabf and then /home/sinton/sjsu1/oak.tabf to /home/sinton/sjsu1/save/oak.tab and then /home/sinton/sjsu1/oak.tabf to /home/sinton/public_html/John1/oakp.tab at Tue May 11 00:00:01 2021
MANG, ARCHIVE OAKCA copied /home/sinton/sjsu1/oakq.tab to /home/sinton/sjsu1/save/oak_05_10_2021.tab and /home/sinton/sjsu1/input/oak.head to /home/sinton/sjsu1/oakq.tab and then /home/sinton/sjsu1/oakq.tab to /home/sinton/sjsu1/oak.tabf and then /home/sinton/sjsu1/oak.tabf to /home/sinton/sjsu1/save/oak.tab and then /home/sinton/sjsu1/oak.tabf to /home/sinton/public_html/John1/oakp.tab at Tue May 11 00:00:01 2021
Tue May 11 03:00:04 EDT 2021

Subject: TEAM1 RESTART OF A`s PRK SOUTH SENSOR FOR OAK2 at Tue May 11 00:27:19 2021
Tue May 11 00:27:19 2021 RESTART OF A`s PRK SOUTH SENSOR BECAUSE AGE OF /home/sinton/1/weather2.txta DECREASED TO: 67 FROM 3 AND AGEAOLD[2]: 3 > 300 AND age of /home/sinton/1/weather2.txta: 67 < 300 and SIZE: 74
Tue May 11 03:27:19 EDT 2021

Subject: TEAM1 RESTART OF A`s PRK SOUTH SENSOR FOR OAK2 at Tue May 11 00:51:59 2021
Tue May 11 00:51:59 2021 RESTART OF A`s PRK SOUTH SENSOR BECAUSE AGE OF /home/sinton/1/weather2.txta DECREASED TO: 67 FROM 2 AND AGEAOLD[2]: 2 > 300 AND age of /home/sinton/1/weather2.txta: 67 < 300 and SIZE: 74
Tue May 11 03:51:59 EDT 2021

Subject: TEAM1 RESTART OF A`s PRK NORTH SENSOR FOR OAK at Tue May 11 00:56:16 2021
Tue May 11 00:56:16 2021 RESTART OF A`s PRK NORTH SENSOR BECAUSE AGE OF /home/sinton/1/weather1.txta DECREASED TO: 84 FROM 20 AND AGEAOLD[1]: 20 > 300 AND age of /home/sinton/1/weather1.txta: 84 < 300 and SIZE: 74
Tue May 11 03:56:16 EDT 2021

Subject: TEAM1 RESTART OF A`s PRK SOUTH SENSOR FOR OAK2 at Tue May 11 01:42:24 2021
Tue May 11 01:42:24 2021 RESTART OF A`s PRK SOUTH SENSOR BECAUSE AGE OF /home/sinton/1/weather2.txta DECREASED TO: 70 FROM 5 AND AGEAOLD[2]: 5 > 300 AND age of /home/sinton/1/weather2.txta: 70 < 300 and SIZE: 74
Tue May 11 04:42:24 EDT 2021

Subject: TEAM1 RESTART OF A`s PRK SOUTH SENSOR FOR OAK2 at Tue May 11 02:10:22 2021
Tue May 11 02:10:22 2021 RESTART OF A`s PRK SOUTH SENSOR BECAUSE AGE OF /home/sinton/1/weather2.txta DECREASED TO: 146 FROM 82 AND AGEAOLD[2]: 82 > 300 AND age of /home/sinton/1/weather2.txta: 146 < 300 and SIZE: 74
Tue May 11 05:10:22 EDT 2021

Subject: INIT2_TEAM1 at Tue May 11 10:01:03 UTC 2021

Subject: INIT1_TEAM1 at Tue May 11 10:01:04 UTC 2021

Subject: TEAM1 RESTART OF A`s PRK NORTH SENSOR FOR OAK at Tue May 11 05:07:02 2021
Tue May 11 05:07:02 2021 RESTART OF A`s PRK NORTH SENSOR BECAUSE AGE OF /home/sinton/1/weather1.txta DECREASED TO: 70 FROM 5 AND AGEAOLD[1]: 5 > 300 AND age of /home/sinton/1/weather1.txta: 70 < 300 and SIZE: 74
Tue May 11 08:07:02 EDT 2021

Subject: TEAM1 RESTART OF A`s PRK SOUTH SENSOR FOR OAK2 at Tue May 11 05:07:02 2021
Tue May 11 05:07:02 2021 RESTART OF A`s PRK SOUTH SENSOR BECAUSE AGE OF /home/sinton/1/weather2.txta DECREASED TO: 70 FROM 5 AND AGEAOLD[2]: 5 > 300 AND age of /home/sinton/1/weather2.txta: 70 < 300 and SIZE: 74
Tue May 11 08:07:02 EDT 2021

Subject: TEAM1 RESTART OF A`s LGT NORTH SENSOR FOR OAK3 at Tue May 11 05:07:02 2021
Tue May 11 05:07:02 2021 RESTART OF A`s LGT NORTH SENSOR BECAUSE AGE OF /home/sinton/1/weather3.txta DECREASED TO: 70 FROM 5 AND AGEAOLD[3]: 5 > 300 AND age of /home/sinton/1/weather3.txta: 70 < 300 and SIZE: 74
Tue May 11 08:07:02 EDT 2021

Subject: INIT2_TEAM1 at Tue May 11 15:33:02 UTC 2021

Subject: INIT1_TEAM1 at Tue May 11 15:33:02 UTC 2021

Subject: TEAM1 TOO MUCH TIME ELAPSED SINCE LAST A`s PRK NORTH UPDATE: 8526 SECONDS AT OAK1CA MANG at Tue May 11 08:34:02 2021 for OAK1
TIME ELAPSED SINCE LAST A`s PRK NORTH WX[1] UPDATE: 8526 SECONDS at Tue May 11 08:34:02 2021 for OAK1
Tue May 11 11:34:02 EDT 2021

Subject: TEAM1 TOO MUCH TIME ELAPSED SINCE LAST A`s PRK SOUTH UPDATE: 8526 SECONDS AT OAK2CA MANG at Tue May 11 08:34:02 2021 for OAK2
TIME ELAPSED SINCE LAST A`s PRK SOUTH WX[2] UPDATE: 8526 SECONDS at Tue May 11 08:34:02 2021 for OAK2
Tue May 11 11:34:02 EDT 2021

Subject: TEAM1 TOO MUCH TIME ELAPSED SINCE LAST A`s LGT NORTH UPDATE: 8526 SECONDS AT OAK3CA MANG at Tue May 11 08:34:02 2021 for OAK3
TIME ELAPSED SINCE LAST A`s LGT NORTH WX[3] UPDATE: 8526 SECONDS at Tue May 11 08:34:02 2021 for OAK3
Tue May 11 11:34:02 EDT 2021

Subject: TEAM1 TOO MUCH TIME ELAPSED SINCE LAST OAKTAB UPDATE: 8458 SECONDS AT OAKCA MANG at Tue May 11 08:34:02 2021 for OAK
TIME ELAPSED SINCE LAST OAKTAB UPDATE: 8458 SECONDS at Tue May 11 08:34:02 2021 for OAK
Tue May 11 11:34:02 EDT 2021

Subject: TEAM1 SIZE DECREASE OR NO CHANGE TO OAKTAB sizechange: 0 AT OAK CA MANG at Tue May 11 08:34:27 2021 for OAK
SIZE DECREASE OR NO CHANGE TO OAKTAB sizechange: 0 at Tue May 11 08:34:27 2021 for OAK
Tue May 11 11:34:27 EDT 2021

Subject: TEAM1 CONDITION CLEAR: OAK1CA WXA[1] ELAPSED TIME RESOLVED since time since last update: 75 <= 1800 at Tue May 11 08:35:37 2021 and ORIGINAL CONDITION: Tue May 11 11:34:02 EDT 2021
CONDITION CLEAR: OAK1CA ELAPSED TIME WXA[1] RESOLVED since time since last update: 75 <= 1800 at Tue May 11 08:35:37 2021 and ORIGINAL CONDITION: Tue May 11 11:34:02 EDT 2021
Tue May 11 11:35:37 EDT 2021

Subject: TEAM1 CONDITION CLEAR: OAK2CA WXA[2] ELAPSED TIME RESOLVED since time since last update: 75 <= 1800 at Tue May 11 08:35:37 2021 and ORIGINAL CONDITION: Tue May 11 11:34:02 EDT 2021
CONDITION CLEAR: OAK2CA ELAPSED TIME WXA[2] RESOLVED since time since last update: 75 <= 1800 at Tue May 11 08:35:37 2021 and ORIGINAL CONDITION: Tue May 11 11:34:02 EDT 2021
Tue May 11 11:35:37 EDT 2021

Subject: TEAM1 CONDITION CLEAR: OAK3CA WXA[3] ELAPSED TIME RESOLVED since time since last update: 75 <= 1800 at Tue May 11 08:35:37 2021 and ORIGINAL CONDITION: Tue May 11 11:34:02 EDT 2021
CONDITION CLEAR: OAK3CA ELAPSED TIME WXA[3] RESOLVED since time since last update: 75 <= 1800 at Tue May 11 08:35:37 2021 and ORIGINAL CONDITION: Tue May 11 11:34:02 EDT 2021
Tue May 11 11:35:37 EDT 2021

Subject: TEAM1 RESTART OF A`s PRK NORTH SENSOR FOR OAK at Tue May 11 08:35:37 2021
Tue May 11 08:35:37 2021 RESTART OF A`s PRK NORTH SENSOR BECAUSE AGE OF /home/sinton/1/weather1.txta DECREASED TO: 15 FROM 8466 AND AGEAOLD[1]: 8466 > 300 AND age of /home/sinton/1/weather1.txta: 15 < 300 and SIZE: 74
Tue May 11 11:35:37 EDT 2021

Subject: TEAM1 RESTART OF A`s PRK SOUTH SENSOR FOR OAK2 at Tue May 11 08:35:37 2021
Tue May 11 08:35:37 2021 RESTART OF A`s PRK SOUTH SENSOR BECAUSE AGE OF /home/sinton/1/weather2.txta DECREASED TO: 15 FROM 8466 AND AGEAOLD[2]: 8466 > 300 AND age of /home/sinton/1/weather2.txta: 15 < 300 and SIZE: 74
Tue May 11 11:35:37 EDT 2021

Subject: TEAM1 RESTART OF A`s LGT NORTH SENSOR FOR OAK3 at Tue May 11 08:35:37 2021
Tue May 11 08:35:37 2021 RESTART OF A`s LGT NORTH SENSOR BECAUSE AGE OF /home/sinton/1/weather3.txta DECREASED TO: 15 FROM 8466 AND AGEAOLD[3]: 8466 > 300 AND age of /home/sinton/1/weather3.txta: 15 < 300 and SIZE: 74
Tue May 11 11:35:37 EDT 2021

Subject: TEAM1 CONDITION CLEAR: OAK CA OAKTAB DECREASE RESOLVED since sizechg: 111 > 0 at Tue May 11 08:35:41 2021 and ORIGINAL CONDITION: Tue May 11 11:34:27 EDT 2021
CONDITION CLEAR: OAK CA OAKTAB DECREASE RESOLVED since sizechg: 111 > 0 at Tue May 11 08:35:41 2021 and ORIGINAL CONDITION: Tue May 11 11:34:27 EDT 2021
Tue May 11 11:35:41 EDT 2021

Subject: TEAM1 CONDITION CLEAR: OAKCA ELAPSED TIME RESOLVED since time since last update: 61 <= 1800 at Tue May 11 08:36:42 2021 and ORIGINAL CONDITION: Tue May 11 11:34:02 EDT 2021
CONDITION CLEAR: OAKCA ELAPSED TIME RESOLVED since time since last update: 61 <= 1800 at Tue May 11 08:36:42 2021 and ORIGINAL CONDITION: Tue May 11 11:34:02 EDT 2021
Tue May 11 11:36:42 EDT 2021

Subject: INIT2_TEAM1 at Tue May 11 16:29:01 UTC 2021

Subject: INIT1_TEAM1 at Tue May 11 16:29:01 UTC 2021

Subject: TEAM1 RESTART OF A`s PRK NORTH SENSOR FOR OAK at Tue May 11 09:31:07 2021
Tue May 11 09:31:07 2021 RESTART OF A`s PRK NORTH SENSOR BECAUSE AGE OF /home/sinton/1/weather1.txta DECREASED TO: 5 FROM 2839 AND AGEAOLD[1]: 2839 > 300 AND age of /home/sinton/1/weather1.txta: 5 < 300 and SIZE: 74
Tue May 11 12:31:07 EDT 2021

Subject: TEAM1 RESTART OF A`s PRK SOUTH SENSOR FOR OAK2 at Tue May 11 09:31:07 2021
Tue May 11 09:31:07 2021 RESTART OF A`s PRK SOUTH SENSOR BECAUSE AGE OF /home/sinton/1/weather2.txta DECREASED TO: 4 FROM 2839 AND AGEAOLD[2]: 2839 > 300 AND age of /home/sinton/1/weather2.txta: 4 < 300 and SIZE: 74
Tue May 11 12:31:07 EDT 2021

Subject: TEAM1 RESTART OF A`s LGT NORTH SENSOR FOR OAK3 at Tue May 11 09:31:07 2021
Tue May 11 09:31:07 2021 RESTART OF A`s LGT NORTH SENSOR BECAUSE AGE OF /home/sinton/1/weather3.txta DECREASED TO: 4 FROM 2839 AND AGEAOLD[3]: 2839 > 300 AND age of /home/sinton/1/weather3.txta: 4 < 300 and SIZE: 74
Tue May 11 12:31:07 EDT 2021

From sinton@wam-2.localdomain Sun May 9 21:45:01 2021 Return-Path: X-Original-To: sinton Delivered-To: sinton@wam-2.localdomain Received: by wam-2.localdomain (Postfix, from userid 1001) id D21CC20980; Sun, 9 May 2021 21:45:01 -0400 (EDT) From: root@wam-2.localdomain (Cron Daemon) To: sinton@wam-2.localdomain Subject: Cron ~/symlinks/TEAM99/ogoakinitchka2.sh 99 0.05 > /dev/null MIME-Version: 1.0 Content-Type: text/plain; charset=UTF-8 Content-Transfer-Encoding: 8bit X-Cron-Env: X-Cron-Env: X-Cron-Env: X-Cron-Env: Message-Id: <20210510014501.D21CC20980@wam-2.localdomain> Date: Sun, 9 May 2021 21:45:01 -0400 (EDT) /bin/sh: 1: /home/sinton/symlinks/TEAM99/ogoakinitchka2.sh: not found From sinton@wam-2.localdomain Sun May 9 21:45:01 2021 Return-Path: X-Original-To: sinton Delivered-To: sinton@wam-2.localdomain Received: by wam-2.localdomain (Postfix, from userid 1001) id E1D6638012; Sun, 9 May 2021 21:45:01 -0400 (EDT) From: root@wam-2.localdomain (Cron Daemon) To: sinton@wam-2.localdomain Subject: Cron ~/symlinks/TEAM1F/metin/apiv4.sh 1f > /dev/null MIME-Version: 1.0 Content-Type: text/plain; charset=UTF-8 Content-Transfer-Encoding: 8bit X-Cron-Env: X-Cron-Env: X-Cron-Env: X-Cron-Env: Message-Id: <20210510014501.E1D6638012@wam-2.localdomain> Date: Sun, 9 May 2021 21:45:01 -0400 (EDT) % Total % Received % Xferd Average Speed Time Time Time Current Dload Upload Total Spent Left Speed 0 0 0 0 0 0 0 0 --:--:-- --:--:-- --:--:-- 0 0 0 0 0 0 0 0 0 --:--:-- --:--:-- --:--:-- 0 100 390 100 390 0 0 4062 0 --:--:-- --:--:-- --:--:-- 4020 From sinton@wam-2.localdomain Sun May 9 21:46:02 2021 Return-Path: X-Original-To: sinton Delivered-To: sinton@wam-2.localdomain Received: by wam-2.localdomain (Postfix, from userid 1001) id 2AB0938CAB; Sun, 9 May 2021 21:46:02 -0400 (EDT) From: root@wam-2.localdomain (Cron Daemon) To: sinton@wam-2.localdomain Subject: Cron ~/symlinks/TEAM99/ogoakinitchka2.sh 99 0.05 > /dev/null MIME-Version: 1.0 Content-Type: text/plain; charset=UTF-8 Content-Transfer-Encoding: 8bit X-Cron-Env: X-Cron-Env: X-Cron-Env: X-Cron-Env: Message-Id: <20210510014602.2AB0938CAB@wam-2.localdomain> Date: Sun, 9 May 2021 21:46:02 -0400 (EDT) /bin/sh: 1: /home/sinton/symlinks/TEAM99/ogoakinitchka2.sh: not found From sinton@wam-2.localdomain Sun May 9 21:46:02 2021 Return-Path: X-Original-To: sinton Delivered-To: sinton@wam-2.localdomain Received: by wam-2.localdomain (Postfix, from userid 1001) id 4D1D538CA4; Sun, 9 May 2021 21:46:02 -0400 (EDT) From: root@wam-2.localdomain (Cron Daemon) To: sinton@wam-2.localdomain Subject: Cron ~/symlinks/TEAM1F/metin/apiv4.sh 1f > /dev/null MIME-Version: 1.0 Content-Type: text/plain; charset=UTF-8 Content-Transfer-Encoding: 8bit X-Cron-Env: X-Cron-Env: X-Cron-Env: X-Cron-Env: Message-Id: <20210510014602.4D1D538CA4@wam-2.localdomain> Date: Sun, 9 May 2021 21:46:02 -0400 (EDT) % Total % Received % Xferd Average Speed Time Time Time Current Dload Upload Total Spent Left Speed 0 0 0 0 0 0 0 0 --:--:-- --:--:-- --:--:-- 0 100 390 100 390 0 0 2653 0 --:--:-- --:--:-- --:--:-- 2653 From sinton@wam-2.localdomain Sun May 9 21:47:01 2021 Return-Path: X-Original-To: sinton Delivered-To: sinton@wam-2.localdomain Received: by wam-2.localdomain (Postfix, from userid 1001) id 822B038CAF; Sun, 9 May 2021 21:47:01 -0400 (EDT) From: root@wam-2.localdomain (Cron Daemon) To: sinton@wam-2.localdomain Subject: Cron ~/symlinks/TEAM99/ogoakinitchka2.sh 99 0.05 > /dev/null MIME-Version: 1.0 Content-Type: text/plain; charset=UTF-8 Content-Transfer-Encoding: 8bit X-Cron-Env: X-Cron-Env: X-Cron-Env: X-Cron-Env: Message-Id: <20210510014701.822B038CAF@wam-2.localdomain> Date: Sun, 9 May 2021 21:47:01 -0400 (EDT) /bin/sh: 1: /home/sinton/symlinks/TEAM99/ogoakinitchka2.sh: not found From sinton@wam-2.localdomain Sun May 9 21:47:01 2021 Return-Path: X-Original-To: sinton Delivered-To: sinton@wam-2.localdomain Received: by wam-2.localdomain (Postfix, from userid 1001) id 958A638CAF; Sun, 9 May 2021 21:47:01 -0400 (EDT) From: root@wam-2.localdomain (Cron Daemon) To: sinton@wam-2.localdomain Subject: Cron ~/symlinks/TEAM1F/metin/apiv4.sh 1f > /dev/null MIME-Version: 1.0 Content-Type: text/plain; charset=UTF-8 Content-Transfer-Encoding: 8bit X-Cron-Env: X-Cron-Env: X-Cron-Env: X-Cron-Env: Message-Id: <20210510014701.958A638CAF@wam-2.localdomain> Date: Sun, 9 May 2021 21:47:01 -0400 (EDT) % Total % Received % Xferd Average Speed Time Time Time Current Dload Upload Total Spent Left Speed 0 0 0 0 0 0 0 0 --:--:-- --:--:-- --:--:-- 0 100 389 100 389 0 0 5256 0 --:--:-- --:--:-- --:--:-- 5256 From sinton@wam-2.localdomain Sun May 9 21:48:01 2021 Return-Path: X-Original-To: sinton Delivered-To: sinton@wam-2.localdomain Received: by wam-2.localdomain (Postfix, from userid 1001) id BFC56379E3; Sun, 9 May 2021 21:48:01 -0400 (EDT) From: root@wam-2.localdomain (Cron Daemon) To: sinton@wam-2.localdomain Subject: Cron ~/symlinks/TEAM99/ogoakinitchka2.sh 99 0.05 > /dev/null MIME-Version: 1.0 Content-Type: text/plain; charset=UTF-8 Content-Transfer-Encoding: 8bit X-Cron-Env: X-Cron-Env: X-Cron-Env: X-Cron-Env: Message-Id: <20210510014801.BFC56379E3@wam-2.localdomain> Date: Sun, 9 May 2021 21:48:01 -0400 (EDT) /bin/sh: 1: /home/sinton/symlinks/TEAM99/ogoakinitchka2.sh: not found From sinton@wam-2.localdomain Sun May 9 21:48:01 2021 Return-Path: X-Original-To: sinton Delivered-To: sinton@wam-2.localdomain Received: by wam-2.localdomain (Postfix, from userid 1001) id D4391379E3; Sun, 9 May 2021 21:48:01 -0400 (EDT) From: root@wam-2.localdomain (Cron Daemon) To: sinton@wam-2.localdomain Subject: Cron ~/symlinks/TEAM1F/metin/apiv4.sh 1f > /dev/null MIME-Version: 1.0 Content-Type: text/plain; charset=UTF-8 Content-Transfer-Encoding: 8bit X-Cron-Env: X-Cron-Env: X-Cron-Env: X-Cron-Env: Message-Id: <20210510014801.D4391379E3@wam-2.localdomain> Date: Sun, 9 May 2021 21:48:01 -0400 (EDT) % Total % Received % Xferd Average Speed Time Time Time Current Dload Upload Total Spent Left Speed 0 0 0 0 0 0 0 0 --:--:-- --:--:-- --:--:-- 0 100 389 100 389 0 0 5402 0 --:--:-- --:--:-- --:--:-- 5402 From sinton@wam-2.localdomain Sun May 9 21:49:02 2021 Return-Path: X-Original-To: sinton Delivered-To: sinton@wam-2.localdomain Received: by wam-2.localdomain (Postfix, from userid 1001) id 1046C38CC0; Sun, 9 May 2021 21:49:02 -0400 (EDT) From: root@wam-2.localdomain (Cron Daemon) To: sinton@wam-2.localdomain Subject: Cron ~/symlinks/TEAM99/ogoakinitchka2.sh 99 0.05 > /dev/null MIME-Version: 1.0 Content-Type: text/plain; charset=UTF-8 Content-Transfer-Encoding: 8bit X-Cron-Env: X-Cron-Env: X-Cron-Env: X-Cron-Env: Message-Id: <20210510014902.1046C38CC0@wam-2.localdomain> Date: Sun, 9 May 2021 21:49:02 -0400 (EDT) /bin/sh: 1: /home/sinton/symlinks/TEAM99/ogoakinitchka2.sh: not found From sinton@wam-2.localdomain Sun May 9 21:49:02 2021 Return-Path: X-Original-To: sinton Delivered-To: sinton@wam-2.localdomain Received: by wam-2.localdomain (Postfix, from userid 1001) id 285CA38CC0; Sun, 9 May 2021 21:49:02 -0400 (EDT) From: root@wam-2.localdomain (Cron Daemon) To: sinton@wam-2.localdomain Subject: Cron ~/symlinks/TEAM1F/metin/apiv4.sh 1f > /dev/null MIME-Version: 1.0 Content-Type: text/plain; charset=UTF-8 Content-Transfer-Encoding: 8bit X-Cron-Env: X-Cron-Env: X-Cron-Env: X-Cron-Env: Message-Id: <20210510014902.285CA38CC0@wam-2.localdomain> Date: Sun, 9 May 2021 21:49:02 -0400 (EDT) % Total % Received % Xferd Average Speed Time Time Time Current Dload Upload Total Spent Left Speed 0 0 0 0 0 0 0 0 --:--:-- --:--:-- --:--:-- 0 100 390 100 390 0 0 4482 0 --:--:-- --:--:-- --:--:-- 4482 From sinton@wam-2.localdomain Sun May 9 21:50:01 2021 Return-Path: X-Original-To: sinton Delivered-To: sinton@wam-2.localdomain Received: by wam-2.localdomain (Postfix, from userid 1001) id 5D06538CDC; Sun, 9 May 2021 21:50:01 -0400 (EDT) From: root@wam-2.localdomain (Cron Daemon) To: sinton@wam-2.localdomain Subject: Cron ~/symlinks/TEAM99/ogoakinitchka2.sh 99 0.05 > /dev/null MIME-Version: 1.0 Content-Type: text/plain; charset=UTF-8 Content-Transfer-Encoding: 8bit X-Cron-Env: X-Cron-Env: X-Cron-Env: X-Cron-Env: Message-Id: <20210510015001.5D06538CDC@wam-2.localdomain> Date: Sun, 9 May 2021 21:50:01 -0400 (EDT) /bin/sh: 1: /home/sinton/symlinks/TEAM99/ogoakinitchka2.sh: not found From sinton@wam-2.localdomain Sun May 9 21:50:01 2021 Return-Path: X-Original-To: sinton Delivered-To: sinton@wam-2.localdomain Received: by wam-2.localdomain (Postfix, from userid 1001) id 71B7F38CDC; Sun, 9 May 2021 21:50:01 -0400 (EDT) From: root@wam-2.localdomain (Cron Daemon) To: sinton@wam-2.localdomain Subject: Cron ~/symlinks/TEAM1F/metin/apiv4.sh 1f > /dev/null MIME-Version: 1.0 Content-Type: text/plain; charset=UTF-8 Content-Transfer-Encoding: 8bit X-Cron-Env: X-Cron-Env: X-Cron-Env: X-Cron-Env: Message-Id: <20210510015001.71B7F38CDC@wam-2.localdomain> Date: Sun, 9 May 2021 21:50:01 -0400 (EDT) % Total % Received % Xferd Average Speed Time Time Time Current Dload Upload Total Spent Left Speed 0 0 0 0 0 0 0 0 --:--:-- --:--:-- --:--:-- 0 100 389 100 389 0 0 4924 0 --:--:-- --:--:-- --:--:-- 4924 From sinton@wam-2.localdomain Sun May 9 21:51:01 2021 Return-Path: X-Original-To: sinton Delivered-To: sinton@wam-2.localdomain Received: by wam-2.localdomain (Postfix, from userid 1001) id 7FC7538CC6; Sun, 9 May 2021 21:51:01 -0400 (EDT) From: root@wam-2.localdomain (Cron Daemon) To: sinton@wam-2.localdomain Subject: Cron ~/symlinks/TEAM99/ogoakinitchka2.sh 99 0.05 > /dev/null MIME-Version: 1.0 Content-Type: text/plain; charset=UTF-8 Content-Transfer-Encoding: 8bit X-Cron-Env: X-Cron-Env: X-Cron-Env: X-Cron-Env: Message-Id: <20210510015101.7FC7538CC6@wam-2.localdomain> Date: Sun, 9 May 2021 21:51:01 -0400 (EDT) /bin/sh: 1: /home/sinton/symlinks/TEAM99/ogoakinitchka2.sh: not found From sinton@wam-2.localdomain Sun May 9 21:51:01 2021 Return-Path: X-Original-To: sinton Delivered-To: sinton@wam-2.localdomain Received: by wam-2.localdomain (Postfix, from userid 1001) id 959C538CC0; Sun, 9 May 2021 21:51:01 -0400 (EDT) From: root@wam-2.localdomain (Cron Daemon) To: sinton@wam-2.localdomain Subject: Cron ~/symlinks/TEAM1F/metin/apiv4.sh 1f > /dev/null MIME-Version: 1.0 Content-Type: text/plain; charset=UTF-8 Content-Transfer-Encoding: 8bit X-Cron-Env: X-Cron-Env: X-Cron-Env: X-Cron-Env: Message-Id: <20210510015101.959C538CC0@wam-2.localdomain> Date: Sun, 9 May 2021 21:51:01 -0400 (EDT) % Total % Received % Xferd Average Speed Time Time Time Current Dload Upload Total Spent Left Speed 0 0 0 0 0 0 0 0 --:--:-- --:--:-- --:--:-- 0 100 391 100 391 0 0 5283 0 --:--:-- --:--:-- --:--:-- 5283 From sinton@wam-2.localdomain Sun May 9 21:52:01 2021 Return-Path: X-Original-To: sinton Delivered-To: sinton@wam-2.localdomain Received: by wam-2.localdomain (Postfix, from userid 1001) id C63C638CE2; Sun, 9 May 2021 21:52:01 -0400 (EDT) From: root@wam-2.localdomain (Cron Daemon) To: sinton@wam-2.localdomain Subject: Cron ~/symlinks/TEAM99/ogoakinitchka2.sh 99 0.05 > /dev/null MIME-Version: 1.0 Content-Type: text/plain; charset=UTF-8 Content-Transfer-Encoding: 8bit X-Cron-Env: X-Cron-Env: X-Cron-Env: X-Cron-Env: Message-Id: <20210510015201.C63C638CE2@wam-2.localdomain> Date: Sun, 9 May 2021 21:52:01 -0400 (EDT) /bin/sh: 1: /home/sinton/symlinks/TEAM99/ogoakinitchka2.sh: not found From sinton@wam-2.localdomain Sun May 9 21:52:01 2021 Return-Path: X-Original-To: sinton Delivered-To: sinton@wam-2.localdomain Received: by wam-2.localdomain (Postfix, from userid 1001) id D750338CE2; Sun, 9 May 2021 21:52:01 -0400 (EDT) From: root@wam-2.localdomain (Cron Daemon) To: sinton@wam-2.localdomain Subject: Cron ~/symlinks/TEAM1F/metin/apiv4.sh 1f > /dev/null MIME-Version: 1.0 Content-Type: text/plain; charset=UTF-8 Content-Transfer-Encoding: 8bit X-Cron-Env: X-Cron-Env: X-Cron-Env: X-Cron-Env: Message-Id: <20210510015201.D750338CE2@wam-2.localdomain> Date: Sun, 9 May 2021 21:52:01 -0400 (EDT) % Total % Received % Xferd Average Speed Time Time Time Current Dload Upload Total Spent Left Speed 0 0 0 0 0 0 0 0 --:--:-- --:--:-- --:--:-- 0 100 390 100 390 0 0 5000 0 --:--:-- --:--:-- --:--:-- 5000 From sinton@wam-2.localdomain Sun May 9 21:53:01 2021 Return-Path: X-Original-To: sinton Delivered-To: sinton@wam-2.localdomain Received: by wam-2.localdomain (Postfix, from userid 1001) id 76E8538CC0; Sun, 9 May 2021 21:53:01 -0400 (EDT) From: root@wam-2.localdomain (Cron Daemon) To: sinton@wam-2.localdomain Subject: Cron ~/symlinks/TEAM99/ogoakinitchka2.sh 99 0.05 > /dev/null MIME-Version: 1.0 Content-Type: text/plain; charset=UTF-8 Content-Transfer-Encoding: 8bit X-Cron-Env: X-Cron-Env: X-Cron-Env: X-Cron-Env: Message-Id: <20210510015301.76E8538CC0@wam-2.localdomain> Date: Sun, 9 May 2021 21:53:01 -0400 (EDT) /bin/sh: 1: /home/sinton/symlinks/TEAM99/ogoakinitchka2.sh: not found From sinton@wam-2.localdomain Sun May 9 21:53:01 2021 Return-Path: X-Original-To: sinton Delivered-To: sinton@wam-2.localdomain Received: by wam-2.localdomain (Postfix, from userid 1001) id 8D35F38CC6; Sun, 9 May 2021 21:53:01 -0400 (EDT) From: root@wam-2.localdomain (Cron Daemon) To: sinton@wam-2.localdomain Subject: Cron ~/symlinks/TEAM1F/metin/apiv4.sh 1f > /dev/null MIME-Version: 1.0 Content-Type: text/plain; charset=UTF-8 Content-Transfer-Encoding: 8bit X-Cron-Env: X-Cron-Env: X-Cron-Env: X-Cron-Env: Message-Id: <20210510015301.8D35F38CC6@wam-2.localdomain> Date: Sun, 9 May 2021 21:53:01 -0400 (EDT) % Total % Received % Xferd Average Speed Time Time Time Current Dload Upload Total Spent Left Speed 0 0 0 0 0 0 0 0 --:--:-- --:--:-- --:--:-- 0 100 387 100 387 0 0 4348 0 --:--:-- --:--:-- --:--:-- 4348 From sinton@wam-2.localdomain Sun May 9 21:54:01 2021 Return-Path: X-Original-To: sinton Delivered-To: sinton@wam-2.localdomain Received: by wam-2.localdomain (Postfix, from userid 1001) id 71EB038CE6; Sun, 9 May 2021 21:54:01 -0400 (EDT) From: root@wam-2.localdomain (Cron Daemon) To: sinton@wam-2.localdomain Subject: Cron ~/symlinks/TEAM99/ogoakinitchka2.sh 99 0.05 > /dev/null MIME-Version: 1.0 Content-Type: text/plain; charset=UTF-8 Content-Transfer-Encoding: 8bit X-Cron-Env: X-Cron-Env: X-Cron-Env: X-Cron-Env: Message-Id: <20210510015401.71EB038CE6@wam-2.localdomain> Date: Sun, 9 May 2021 21:54:01 -0400 (EDT) /bin/sh: 1: /home/sinton/symlinks/TEAM99/ogoakinitchka2.sh: not found From sinton@wam-2.localdomain Sun May 9 21:54:01 2021 Return-Path: X-Original-To: sinton Delivered-To: sinton@wam-2.localdomain Received: by wam-2.localdomain (Postfix, from userid 1001) id 8737638CE6; Sun, 9 May 2021 21:54:01 -0400 (EDT) From: root@wam-2.localdomain (Cron Daemon) To: sinton@wam-2.localdomain Subject: Cron ~/symlinks/TEAM1F/metin/apiv4.sh 1f > /dev/null MIME-Version: 1.0 Content-Type: text/plain; charset=UTF-8 Content-Transfer-Encoding: 8bit X-Cron-Env: X-Cron-Env: X-Cron-Env: X-Cron-Env: Message-Id: <20210510015401.8737638CE6@wam-2.localdomain> Date: Sun, 9 May 2021 21:54:01 -0400 (EDT) % Total % Received % Xferd Average Speed Time Time Time Current Dload Upload Total Spent Left Speed 0 0 0 0 0 0 0 0 --:--:-- --:--:-- --:--:-- 0 100 391 100 391 0 0 3554 0 --:--:-- --:--:-- --:--:-- 4887 From sinton@wam-2.localdomain Sun May 9 21:55:01 2021 Return-Path: X-Original-To: sinton Delivered-To: sinton@wam-2.localdomain Received: by wam-2.localdomain (Postfix, from userid 1001) id B97C738CC6; Sun, 9 May 2021 21:55:01 -0400 (EDT) From: root@wam-2.localdomain (Cron Daemon) To: sinton@wam-2.localdomain Subject: Cron ~/symlinks/TEAM99/ogoakinitchka2.sh 99 0.05 > /dev/null MIME-Version: 1.0 Content-Type: text/plain; charset=UTF-8 Content-Transfer-Encoding: 8bit X-Cron-Env: X-Cron-Env: X-Cron-Env: X-Cron-Env: Message-Id: <20210510015501.B97C738CC6@wam-2.localdomain> Date: Sun, 9 May 2021 21:55:01 -0400 (EDT) /bin/sh: 1: /home/sinton/symlinks/TEAM99/ogoakinitchka2.sh: not found From sinton@wam-2.localdomain Sun May 9 21:55:01 2021 Return-Path: X-Original-To: sinton Delivered-To: sinton@wam-2.localdomain Received: by wam-2.localdomain (Postfix, from userid 1001) id C9F9938CF9; Sun, 9 May 2021 21:55:01 -0400 (EDT) From: root@wam-2.localdomain (Cron Daemon) To: sinton@wam-2.localdomain Subject: Cron ~/symlinks/TEAM1F/metin/apiv4.sh 1f > /dev/null MIME-Version: 1.0 Content-Type: text/plain; charset=UTF-8 Content-Transfer-Encoding: 8bit X-Cron-Env: X-Cron-Env: X-Cron-Env: X-Cron-Env: Message-Id: <20210510015501.C9F9938CF9@wam-2.localdomain> Date: Sun, 9 May 2021 21:55:01 -0400 (EDT) % Total % Received % Xferd Average Speed Time Time Time Current Dload Upload Total Spent Left Speed 0 0 0 0 0 0 0 0 --:--:-- --:--:-- --:--:-- 0 100 391 100 391 0 0 5585 0 --:--:-- --:--:-- --:--:-- 5585 From sinton@wam-2.localdomain Sun May 9 21:56:01 2021 Return-Path: X-Original-To: sinton Delivered-To: sinton@wam-2.localdomain Received: by wam-2.localdomain (Postfix, from userid 1001) id 81DE738CEA; Sun, 9 May 2021 21:56:01 -0400 (EDT) From: root@wam-2.localdomain (Cron Daemon) To: sinton@wam-2.localdomain Subject: Cron ~/symlinks/TEAM99/ogoakinitchka2.sh 99 0.05 > /dev/null MIME-Version: 1.0 Content-Type: text/plain; charset=UTF-8 Content-Transfer-Encoding: 8bit X-Cron-Env: X-Cron-Env: X-Cron-Env: X-Cron-Env: Message-Id: <20210510015601.81DE738CEA@wam-2.localdomain> Date: Sun, 9 May 2021 21:56:01 -0400 (EDT) /bin/sh: 1: /home/sinton/symlinks/TEAM99/ogoakinitchka2.sh: not found From sinton@wam-2.localdomain Sun May 9 21:56:01 2021 Return-Path: X-Original-To: sinton Delivered-To: sinton@wam-2.localdomain Received: by wam-2.localdomain (Postfix, from userid 1001) id 9C1EC38CE5; Sun, 9 May 2021 21:56:01 -0400 (EDT) From: root@wam-2.localdomain (Cron Daemon) To: sinton@wam-2.localdomain Subject: Cron ~/symlinks/TEAM1F/metin/apiv4.sh 1f > /dev/null MIME-Version: 1.0 Content-Type: text/plain; charset=UTF-8 Content-Transfer-Encoding: 8bit X-Cron-Env: X-Cron-Env: X-Cron-Env: X-Cron-Env: Message-Id: <20210510015601.9C1EC38CE5@wam-2.localdomain> Date: Sun, 9 May 2021 21:56:01 -0400 (EDT) % Total % Received % Xferd Average Speed Time Time Time Current Dload Upload Total Spent Left Speed 0 0 0 0 0 0 0 0 --:--:-- --:--:-- --:--:-- 0 100 391 100 391 0 0 2606 0 --:--:-- --:--:-- --:--:-- 2606 From sinton@wam-2.localdomain Sun May 9 21:57:01 2021 Return-Path: X-Original-To: sinton Delivered-To: sinton@wam-2.localdomain Received: by wam-2.localdomain (Postfix, from userid 1001) id CB04420725; Sun, 9 May 2021 21:57:01 -0400 (EDT) From: root@wam-2.localdomain (Cron Daemon) To: sinton@wam-2.localdomain Subject: Cron ~/symlinks/TEAM99/ogoakinitchka2.sh 99 0.05 > /dev/null MIME-Version: 1.0 Content-Type: text/plain; charset=UTF-8 Content-Transfer-Encoding: 8bit X-Cron-Env: X-Cron-Env: X-Cron-Env: X-Cron-Env: Message-Id: <20210510015701.CB04420725@wam-2.localdomain> Date: Sun, 9 May 2021 21:57:01 -0400 (EDT) /bin/sh: 1: /home/sinton/symlinks/TEAM99/ogoakinitchka2.sh: not found From sinton@wam-2.localdomain Sun May 9 21:57:01 2021 Return-Path: X-Original-To: sinton Delivered-To: sinton@wam-2.localdomain Received: by wam-2.localdomain (Postfix, from userid 1001) id DFE0820725; Sun, 9 May 2021 21:57:01 -0400 (EDT) From: root@wam-2.localdomain (Cron Daemon) To: sinton@wam-2.localdomain Subject: Cron ~/symlinks/TEAM1F/metin/apiv4.sh 1f > /dev/null MIME-Version: 1.0 Content-Type: text/plain; charset=UTF-8 Content-Transfer-Encoding: 8bit X-Cron-Env: X-Cron-Env: X-Cron-Env: X-Cron-Env: Message-Id: <20210510015701.DFE0820725@wam-2.localdomain> Date: Sun, 9 May 2021 21:57:01 -0400 (EDT) % Total % Received % Xferd Average Speed Time Time Time Current Dload Upload Total Spent Left Speed 0 0 0 0 0 0 0 0 --:--:-- --:--:-- --:--:-- 0 0 0 0 0 0 0 0 0 --:--:-- --:--:-- --:--:-- 0 100 391 100 391 0 0 4768 0 --:--:-- --:--:-- --:--:-- 4710 From sinton@wam-2.localdomain Sun May 9 21:58:02 2021 Return-Path: X-Original-To: sinton Delivered-To: sinton@wam-2.localdomain Received: by wam-2.localdomain (Postfix, from userid 1001) id 1E11A35E34; Sun, 9 May 2021 21:58:02 -0400 (EDT) From: root@wam-2.localdomain (Cron Daemon) To: sinton@wam-2.localdomain Subject: Cron ~/symlinks/TEAM99/ogoakinitchka2.sh 99 0.05 > /dev/null MIME-Version: 1.0 Content-Type: text/plain; charset=UTF-8 Content-Transfer-Encoding: 8bit X-Cron-Env: X-Cron-Env: X-Cron-Env: X-Cron-Env: Message-Id: <20210510015802.1E11A35E34@wam-2.localdomain> Date: Sun, 9 May 2021 21:58:02 -0400 (EDT) /bin/sh: 1: /home/sinton/symlinks/TEAM99/ogoakinitchka2.sh: not found From sinton@wam-2.localdomain Sun May 9 21:58:02 2021 Return-Path: X-Original-To: sinton Delivered-To: sinton@wam-2.localdomain Received: by wam-2.localdomain (Postfix, from userid 1001) id 32C0136A14; Sun, 9 May 2021 21:58:02 -0400 (EDT) From: root@wam-2.localdomain (Cron Daemon) To: sinton@wam-2.localdomain Subject: Cron ~/symlinks/TEAM1F/metin/apiv4.sh 1f > /dev/null MIME-Version: 1.0 Content-Type: text/plain; charset=UTF-8 Content-Transfer-Encoding: 8bit X-Cron-Env: X-Cron-Env: X-Cron-Env: X-Cron-Env: Message-Id: <20210510015802.32C0136A14@wam-2.localdomain> Date: Sun, 9 May 2021 21:58:02 -0400 (EDT) % Total % Received % Xferd Average Speed Time Time Time Current Dload Upload Total Spent Left Speed 0 0 0 0 0 0 0 0 --:--:-- --:--:-- --:--:-- 0 100 391 100 391 0 0 6206 0 --:--:-- --:--:-- --:--:-- 6206 From sinton@wam-2.localdomain Sun May 9 21:59:01 2021 Return-Path: X-Original-To: sinton Delivered-To: sinton@wam-2.localdomain Received: by wam-2.localdomain (Postfix, from userid 1001) id 69642203B5; Sun, 9 May 2021 21:59:01 -0400 (EDT) From: root@wam-2.localdomain (Cron Daemon) To: sinton@wam-2.localdomain Subject: Cron ~/symlinks/TEAM99/ogoakinitchka2.sh 99 0.05 > /dev/null MIME-Version: 1.0 Content-Type: text/plain; charset=UTF-8 Content-Transfer-Encoding: 8bit X-Cron-Env: X-Cron-Env: X-Cron-Env: X-Cron-Env: Message-Id: <20210510015901.69642203B5@wam-2.localdomain> Date: Sun, 9 May 2021 21:59:01 -0400 (EDT) /bin/sh: 1: /home/sinton/symlinks/TEAM99/ogoakinitchka2.sh: not found From sinton@wam-2.localdomain Sun May 9 21:59:01 2021 Return-Path: X-Original-To: sinton Delivered-To: sinton@wam-2.localdomain Received: by wam-2.localdomain (Postfix, from userid 1001) id 79C8720600; Sun, 9 May 2021 21:59:01 -0400 (EDT) From: root@wam-2.localdomain (Cron Daemon) To: sinton@wam-2.localdomain Subject: Cron ~/symlinks/TEAM1F/metin/apiv4.sh 1f > /dev/null MIME-Version: 1.0 Content-Type: text/plain; charset=UTF-8 Content-Transfer-Encoding: 8bit X-Cron-Env: X-Cron-Env: X-Cron-Env: X-Cron-Env: Message-Id: <20210510015901.79C8720600@wam-2.localdomain> Date: Sun, 9 May 2021 21:59:01 -0400 (EDT) % Total % Received % Xferd Average Speed Time Time Time Current Dload Upload Total Spent Left Speed 0 0 0 0 0 0 0 0 --:--:-- --:--:-- --:--:-- 0 100 391 100 391 0 0 4827 0 --:--:-- --:--:-- --:--:-- 4827 From sinton@wam-2.localdomain Sun May 9 22:00:01 2021 Return-Path: X-Original-To: sinton Delivered-To: sinton@wam-2.localdomain Received: by wam-2.localdomain (Postfix, from userid 1001) id B0D6738D1D; Sun, 9 May 2021 22:00:01 -0400 (EDT) From: root@wam-2.localdomain (Cron Daemon) To: sinton@wam-2.localdomain Subject: Cron ~/symlinks/TEAM99/ogoakinitchka2.sh 99 0.05 > /dev/null MIME-Version: 1.0 Content-Type: text/plain; charset=UTF-8 Content-Transfer-Encoding: 8bit X-Cron-Env: X-Cron-Env: X-Cron-Env: X-Cron-Env: Message-Id: <20210510020001.B0D6738D1D@wam-2.localdomain> Date: Sun, 9 May 2021 22:00:01 -0400 (EDT) /bin/sh: 1: /home/sinton/symlinks/TEAM99/ogoakinitchka2.sh: not found From sinton@wam-2.localdomain Sun May 9 22:00:02 2021 Return-Path: X-Original-To: sinton Delivered-To: sinton@wam-2.localdomain Received: by wam-2.localdomain (Postfix, from userid 1001) id 36F3E38D17; Sun, 9 May 2021 22:00:02 -0400 (EDT) From: root@wam-2.localdomain (Cron Daemon) To: sinton@wam-2.localdomain Subject: Cron ~/symlinks/TEAM1F/metin/apiv4.sh 1f > /dev/null MIME-Version: 1.0 Content-Type: text/plain; charset=UTF-8 Content-Transfer-Encoding: 8bit X-Cron-Env: X-Cron-Env: X-Cron-Env: X-Cron-Env: Message-Id: <20210510020002.36F3E38D17@wam-2.localdomain> Date: Sun, 9 May 2021 22:00:02 -0400 (EDT) % Total % Received % Xferd Average Speed Time Time Time Current Dload Upload Total Spent Left Speed 0 0 0 0 0 0 0 0 --:--:-- --:--:-- --:--:-- 0 0 0 0 0 0 0 0 0 --:--:-- --:--:-- --:--:-- 0 100 392 100 392 0 0 809 0 --:--:-- --:--:-- --:--:-- 808 From sinton@wam-2.localdomain Sun May 9 22:01:01 2021 Return-Path: X-Original-To: sinton Delivered-To: sinton@wam-2.localdomain Received: by wam-2.localdomain (Postfix, from userid 1001) id 7D69538C6F; Sun, 9 May 2021 22:01:01 -0400 (EDT) From: root@wam-2.localdomain (Cron Daemon) To: sinton@wam-2.localdomain Subject: Cron ~/symlinks/TEAM99/ogoakinitchka2.sh 99 0.05 > /dev/null MIME-Version: 1.0 Content-Type: text/plain; charset=UTF-8 Content-Transfer-Encoding: 8bit X-Cron-Env: X-Cron-Env: X-Cron-Env: X-Cron-Env: Message-Id: <20210510020101.7D69538C6F@wam-2.localdomain> Date: Sun, 9 May 2021 22:01:01 -0400 (EDT) /bin/sh: 1: /home/sinton/symlinks/TEAM99/ogoakinitchka2.sh: not found From sinton@wam-2.localdomain Sun May 9 22:01:01 2021 Return-Path: X-Original-To: sinton Delivered-To: sinton@wam-2.localdomain Received: by wam-2.localdomain (Postfix, from userid 1001) id 88E9738CF1; Sun, 9 May 2021 22:01:01 -0400 (EDT) From: root@wam-2.localdomain (Cron Daemon) To: sinton@wam-2.localdomain Subject: Cron ~/symlinks/TEAM1F/metin/apiv4.sh 1f > /dev/null MIME-Version: 1.0 Content-Type: text/plain; charset=UTF-8 Content-Transfer-Encoding: 8bit X-Cron-Env: X-Cron-Env: X-Cron-Env: X-Cron-Env: Message-Id: <20210510020101.88E9738CF1@wam-2.localdomain> Date: Sun, 9 May 2021 22:01:01 -0400 (EDT) % Total % Received % Xferd Average Speed Time Time Time Current Dload Upload Total Spent Left Speed 0 0 0 0 0 0 0 0 --:--:-- --:--:-- --:--:-- 0 100 392 100 392 0 0 6426 0 --:--:-- --:--:-- --:--:-- 6426 From sinton@wam-2.localdomain Sun May 9 22:02:01 2021 Return-Path: X-Original-To: sinton Delivered-To: sinton@wam-2.localdomain Received: by wam-2.localdomain (Postfix, from userid 1001) id B8ACF38D0A; Sun, 9 May 2021 22:02:01 -0400 (EDT) From: root@wam-2.localdomain (Cron Daemon) To: sinton@wam-2.localdomain Subject: Cron ~/symlinks/TEAM99/ogoakinitchka2.sh 99 0.05 > /dev/null MIME-Version: 1.0 Content-Type: text/plain; charset=UTF-8 Content-Transfer-Encoding: 8bit X-Cron-Env: X-Cron-Env: X-Cron-Env: X-Cron-Env: Message-Id: <20210510020201.B8ACF38D0A@wam-2.localdomain> Date: Sun, 9 May 2021 22:02:01 -0400 (EDT) /bin/sh: 1: /home/sinton/symlinks/TEAM99/ogoakinitchka2.sh: not found From sinton@wam-2.localdomain Sun May 9 22:02:01 2021 Return-Path: X-Original-To: sinton Delivered-To: sinton@wam-2.localdomain Received: by wam-2.localdomain (Postfix, from userid 1001) id CEA1E38D0A; Sun, 9 May 2021 22:02:01 -0400 (EDT) From: root@wam-2.localdomain (Cron Daemon) To: sinton@wam-2.localdomain Subject: Cron ~/symlinks/TEAM1F/metin/apiv4.sh 1f > /dev/null MIME-Version: 1.0 Content-Type: text/plain; charset=UTF-8 Content-Transfer-Encoding: 8bit X-Cron-Env: X-Cron-Env: X-Cron-Env: X-Cron-Env: Message-Id: <20210510020201.CEA1E38D0A@wam-2.localdomain> Date: Sun, 9 May 2021 22:02:01 -0400 (EDT) % Total % Received % Xferd Average Speed Time Time Time Current Dload Upload Total Spent Left Speed 0 0 0 0 0 0 0 0 --:--:-- --:--:-- --:--:-- 0 100 390 100 390 0 0 5342 0 --:--:-- --:--:-- --:--:-- 5342 From sinton@wam-2.localdomain Sun May 9 22:03:02 2021 Return-Path: X-Original-To: sinton Delivered-To: sinton@wam-2.localdomain Received: by wam-2.localdomain (Postfix, from userid 1001) id 0E45C38CF9; Sun, 9 May 2021 22:03:02 -0400 (EDT) From: root@wam-2.localdomain (Cron Daemon) To: sinton@wam-2.localdomain Subject: Cron ~/symlinks/TEAM99/ogoakinitchka2.sh 99 0.05 > /dev/null MIME-Version: 1.0 Content-Type: text/plain; charset=UTF-8 Content-Transfer-Encoding: 8bit X-Cron-Env: X-Cron-Env: X-Cron-Env: X-Cron-Env: Message-Id: <20210510020302.0E45C38CF9@wam-2.localdomain> Date: Sun, 9 May 2021 22:03:02 -0400 (EDT) /bin/sh: 1: /home/sinton/symlinks/TEAM99/ogoakinitchka2.sh: not found From sinton@wam-2.localdomain Sun May 9 22:03:02 2021 Return-Path: X-Original-To: sinton Delivered-To: sinton@wam-2.localdomain Received: by wam-2.localdomain (Postfix, from userid 1001) id 250D038D0F; Sun, 9 May 2021 22:03:02 -0400 (EDT) From: root@wam-2.localdomain (Cron Daemon) To: sinton@wam-2.localdomain Subject: Cron ~/symlinks/TEAM1F/metin/apiv4.sh 1f > /dev/null MIME-Version: 1.0 Content-Type: text/plain; charset=UTF-8 Content-Transfer-Encoding: 8bit X-Cron-Env: X-Cron-Env: X-Cron-Env: X-Cron-Env: Message-Id: <20210510020302.250D038D0F@wam-2.localdomain> Date: Sun, 9 May 2021 22:03:02 -0400 (EDT) % Total % Received % Xferd Average Speed Time Time Time Current Dload Upload Total Spent Left Speed 0 0 0 0 0 0 0 0 --:--:-- --:--:-- --:--:-- 0 100 391 100 391 0 0 4949 0 --:--:-- --:--:-- --:--:-- 5012 From sinton@wam-2.localdomain Sun May 9 22:04:01 2021 Return-Path: X-Original-To: sinton Delivered-To: sinton@wam-2.localdomain Received: by wam-2.localdomain (Postfix, from userid 1001) id 5995E38D11; Sun, 9 May 2021 22:04:01 -0400 (EDT) From: root@wam-2.localdomain (Cron Daemon) To: sinton@wam-2.localdomain Subject: Cron ~/symlinks/TEAM99/ogoakinitchka2.sh 99 0.05 > /dev/null MIME-Version: 1.0 Content-Type: text/plain; charset=UTF-8 Content-Transfer-Encoding: 8bit X-Cron-Env: X-Cron-Env: X-Cron-Env: X-Cron-Env: Message-Id: <20210510020401.5995E38D11@wam-2.localdomain> Date: Sun, 9 May 2021 22:04:01 -0400 (EDT) /bin/sh: 1: /home/sinton/symlinks/TEAM99/ogoakinitchka2.sh: not found From sinton@wam-2.localdomain Sun May 9 22:04:01 2021 Return-Path: X-Original-To: sinton Delivered-To: sinton@wam-2.localdomain Received: by wam-2.localdomain (Postfix, from userid 1001) id 6E41638D11; Sun, 9 May 2021 22:04:01 -0400 (EDT) From: root@wam-2.localdomain (Cron Daemon) To: sinton@wam-2.localdomain Subject: Cron ~/symlinks/TEAM1F/metin/apiv4.sh 1f > /dev/null MIME-Version: 1.0 Content-Type: text/plain; charset=UTF-8 Content-Transfer-Encoding: 8bit X-Cron-Env: X-Cron-Env: X-Cron-Env: X-Cron-Env: Message-Id: <20210510020401.6E41638D11@wam-2.localdomain> Date: Sun, 9 May 2021 22:04:01 -0400 (EDT) % Total % Received % Xferd Average Speed Time Time Time Current Dload Upload Total Spent Left Speed 0 0 0 0 0 0 0 0 --:--:-- --:--:-- --:--:-- 0 100 392 100 392 0 0 5297 0 --:--:-- --:--:-- --:--:-- 5297 From sinton@wam-2.localdomain Sun May 9 22:05:01 2021 Return-Path: X-Original-To: sinton Delivered-To: sinton@wam-2.localdomain Received: by wam-2.localdomain (Postfix, from userid 1001) id A122338D1D; Sun, 9 May 2021 22:05:01 -0400 (EDT) From: root@wam-2.localdomain (Cron Daemon) To: sinton@wam-2.localdomain Subject: Cron ~/symlinks/TEAM99/ogoakinitchka2.sh 99 0.05 > /dev/null MIME-Version: 1.0 Content-Type: text/plain; charset=UTF-8 Content-Transfer-Encoding: 8bit X-Cron-Env: X-Cron-Env: X-Cron-Env: X-Cron-Env: Message-Id: <20210510020501.A122338D1D@wam-2.localdomain> Date: Sun, 9 May 2021 22:05:01 -0400 (EDT) /bin/sh: 1: /home/sinton/symlinks/TEAM99/ogoakinitchka2.sh: not found From sinton@wam-2.localdomain Sun May 9 22:05:01 2021 Return-Path: X-Original-To: sinton Delivered-To: sinton@wam-2.localdomain Received: by wam-2.localdomain (Postfix, from userid 1001) id AD40238D1D; Sun, 9 May 2021 22:05:01 -0400 (EDT) From: root@wam-2.localdomain (Cron Daemon) To: sinton@wam-2.localdomain Subject: Cron ~/symlinks/TEAM1F/metin/apiv4.sh 1f > /dev/null MIME-Version: 1.0 Content-Type: text/plain; charset=UTF-8 Content-Transfer-Encoding: 8bit X-Cron-Env: X-Cron-Env: X-Cron-Env: X-Cron-Env: Message-Id: <20210510020501.AD40238D1D@wam-2.localdomain> Date: Sun, 9 May 2021 22:05:01 -0400 (EDT) % Total % Received % Xferd Average Speed Time Time Time Current Dload Upload Total Spent Left Speed 0 0 0 0 0 0 0 0 --:--:-- --:--:-- --:--:-- 0 100 392 100 392 0 0 4666 0 --:--:-- --:--:-- --:--:-- 4722 From sinton@wam-2.localdomain Sun May 9 22:06:02 2021 Return-Path: X-Original-To: sinton Delivered-To: sinton@wam-2.localdomain Received: by wam-2.localdomain (Postfix, from userid 1001) id 04D9E38D25; Sun, 9 May 2021 22:06:02 -0400 (EDT) From: root@wam-2.localdomain (Cron Daemon) To: sinton@wam-2.localdomain Subject: Cron ~/symlinks/TEAM99/ogoakinitchka2.sh 99 0.05 > /dev/null MIME-Version: 1.0 Content-Type: text/plain; charset=UTF-8 Content-Transfer-Encoding: 8bit X-Cron-Env: X-Cron-Env: X-Cron-Env: X-Cron-Env: Message-Id: <20210510020602.04D9E38D25@wam-2.localdomain> Date: Sun, 9 May 2021 22:06:02 -0400 (EDT) /bin/sh: 1: /home/sinton/symlinks/TEAM99/ogoakinitchka2.sh: not found From sinton@wam-2.localdomain Sun May 9 22:06:02 2021 Return-Path: X-Original-To: sinton Delivered-To: sinton@wam-2.localdomain Received: by wam-2.localdomain (Postfix, from userid 1001) id 0FA4438D25; Sun, 9 May 2021 22:06:02 -0400 (EDT) From: root@wam-2.localdomain (Cron Daemon) To: sinton@wam-2.localdomain Subject: Cron ~/symlinks/TEAM1F/metin/apiv4.sh 1f > /dev/null MIME-Version: 1.0 Content-Type: text/plain; charset=UTF-8 Content-Transfer-Encoding: 8bit X-Cron-Env: X-Cron-Env: X-Cron-Env: X-Cron-Env: Message-Id: <20210510020602.0FA4438D25@wam-2.localdomain> Date: Sun, 9 May 2021 22:06:02 -0400 (EDT) % Total % Received % Xferd Average Speed Time Time Time Current Dload Upload Total Spent Left Speed 0 0 0 0 0 0 0 0 --:--:-- --:--:-- --:--:-- 0 100 389 100 389 0 0 5051 0 --:--:-- --:--:-- --:--:-- 5051 From sinton@wam-2.localdomain Sun May 9 22:07:01 2021 Return-Path: X-Original-To: sinton Delivered-To: sinton@wam-2.localdomain Received: by wam-2.localdomain (Postfix, from userid 1001) id 4324D38D2E; Sun, 9 May 2021 22:07:01 -0400 (EDT) From: root@wam-2.localdomain (Cron Daemon) To: sinton@wam-2.localdomain Subject: Cron ~/symlinks/TEAM99/ogoakinitchka2.sh 99 0.05 > /dev/null MIME-Version: 1.0 Content-Type: text/plain; charset=UTF-8 Content-Transfer-Encoding: 8bit X-Cron-Env: X-Cron-Env: X-Cron-Env: X-Cron-Env: Message-Id: <20210510020701.4324D38D2E@wam-2.localdomain> Date: Sun, 9 May 2021 22:07:01 -0400 (EDT) /bin/sh: 1: /home/sinton/symlinks/TEAM99/ogoakinitchka2.sh: not found From sinton@wam-2.localdomain Sun May 9 22:07:01 2021 Return-Path: X-Original-To: sinton Delivered-To: sinton@wam-2.localdomain Received: by wam-2.localdomain (Postfix, from userid 1001) id 5455338D2E; Sun, 9 May 2021 22:07:01 -0400 (EDT) From: root@wam-2.localdomain (Cron Daemon) To: sinton@wam-2.localdomain Subject: Cron ~/symlinks/TEAM1F/metin/apiv4.sh 1f > /dev/null MIME-Version: 1.0 Content-Type: text/plain; charset=UTF-8 Content-Transfer-Encoding: 8bit X-Cron-Env: X-Cron-Env: X-Cron-Env: X-Cron-Env: Message-Id: <20210510020701.5455338D2E@wam-2.localdomain> Date: Sun, 9 May 2021 22:07:01 -0400 (EDT) % Total % Received % Xferd Average Speed Time Time Time Current Dload Upload Total Spent Left Speed 0 0 0 0 0 0 0 0 --:--:-- --:--:-- --:--:-- 0 100 389 100 389 0 0 3969 0 --:--:-- --:--:-- --:--:-- 3969 From sinton@wam-2.localdomain Sun May 9 22:08:01 2021 Return-Path: X-Original-To: sinton Delivered-To: sinton@wam-2.localdomain Received: by wam-2.localdomain (Postfix, from userid 1001) id 8C90738CC9; Sun, 9 May 2021 22:08:01 -0400 (EDT) From: root@wam-2.localdomain (Cron Daemon) To: sinton@wam-2.localdomain Subject: Cron ~/symlinks/TEAM99/ogoakinitchka2.sh 99 0.05 > /dev/null MIME-Version: 1.0 Content-Type: text/plain; charset=UTF-8 Content-Transfer-Encoding: 8bit X-Cron-Env: X-Cron-Env: X-Cron-Env: X-Cron-Env: Message-Id: <20210510020801.8C90738CC9@wam-2.localdomain> Date: Sun, 9 May 2021 22:08:01 -0400 (EDT) /bin/sh: 1: /home/sinton/symlinks/TEAM99/ogoakinitchka2.sh: not found From sinton@wam-2.localdomain Sun May 9 22:08:01 2021 Return-Path: X-Original-To: sinton Delivered-To: sinton@wam-2.localdomain Received: by wam-2.localdomain (Postfix, from userid 1001) id 9A56F38CC9; Sun, 9 May 2021 22:08:01 -0400 (EDT) From: root@wam-2.localdomain (Cron Daemon) To: sinton@wam-2.localdomain Subject: Cron ~/symlinks/TEAM1F/metin/apiv4.sh 1f > /dev/null MIME-Version: 1.0 Content-Type: text/plain; charset=UTF-8 Content-Transfer-Encoding: 8bit X-Cron-Env: X-Cron-Env: X-Cron-Env: X-Cron-Env: Message-Id: <20210510020801.9A56F38CC9@wam-2.localdomain> Date: Sun, 9 May 2021 22:08:01 -0400 (EDT) % Total % Received % Xferd Average Speed Time Time Time Current Dload Upload Total Spent Left Speed 0 0 0 0 0 0 0 0 --:--:-- --:--:-- --:--:-- 0 100 390 100 390 0 0 5416 0 --:--:-- --:--:-- --:--:-- 5416 From sinton@wam-2.localdomain Sun May 9 22:08:20 2021 Return-Path: X-Original-To: sinton Delivered-To: sinton@wam-2.localdomain Received: by wam-2.localdomain (Postfix, from userid 1001) id 38A1038D49; Sun, 9 May 2021 22:08:20 -0400 (EDT) From: root@wam-2.localdomain (Cron Daemon) To: sinton@wam-2.localdomain Subject: Cron bash -c "sleep $[RANDOM%30]m" ; ~/symlinks/TEAM2/fcst/startfcstclim.sh 2 > /dev/null MIME-Version: 1.0 Content-Type: text/plain; charset=UTF-8 Content-Transfer-Encoding: 8bit X-Cron-Env: X-Cron-Env: X-Cron-Env: X-Cron-Env: Message-Id: <20210510020820.38A1038D49@wam-2.localdomain> Date: Sun, 9 May 2021 22:08:20 -0400 (EDT) % Total % Received % Xferd Average Speed Time Time Time Current Dload Upload Total Spent Left Speed 0 0 0 0 0 0 0 0 --:--:-- --:--:-- --:--:-- 0 100 41802 100 41802 0 0 295k 0 --:--:-- --:--:-- --:--:-- 295k From sinton@wam-2.localdomain Sun May 9 22:09:01 2021 Return-Path: X-Original-To: sinton Delivered-To: sinton@wam-2.localdomain Received: by wam-2.localdomain (Postfix, from userid 1001) id 6C78438CED; Sun, 9 May 2021 22:09:01 -0400 (EDT) From: root@wam-2.localdomain (Cron Daemon) To: sinton@wam-2.localdomain Subject: Cron ~/symlinks/TEAM99/ogoakinitchka2.sh 99 0.05 > /dev/null MIME-Version: 1.0 Content-Type: text/plain; charset=UTF-8 Content-Transfer-Encoding: 8bit X-Cron-Env: X-Cron-Env: X-Cron-Env: X-Cron-Env: Message-Id: <20210510020901.6C78438CED@wam-2.localdomain> Date: Sun, 9 May 2021 22:09:01 -0400 (EDT) /bin/sh: 1: /home/sinton/symlinks/TEAM99/ogoakinitchka2.sh: not found From sinton@wam-2.localdomain Sun May 9 22:09:01 2021 Return-Path: X-Original-To: sinton Delivered-To: sinton@wam-2.localdomain Received: by wam-2.localdomain (Postfix, from userid 1001) id 862ED38CED; Sun, 9 May 2021 22:09:01 -0400 (EDT) From: root@wam-2.localdomain (Cron Daemon) To: sinton@wam-2.localdomain Subject: Cron ~/symlinks/TEAM1F/metin/apiv4.sh 1f > /dev/null MIME-Version: 1.0 Content-Type: text/plain; charset=UTF-8 Content-Transfer-Encoding: 8bit X-Cron-Env: X-Cron-Env: X-Cron-Env: X-Cron-Env: Message-Id: <20210510020901.862ED38CED@wam-2.localdomain> Date: Sun, 9 May 2021 22:09:01 -0400 (EDT) % Total % Received % Xferd Average Speed Time Time Time Current Dload Upload Total Spent Left Speed 0 0 0 0 0 0 0 0 --:--:-- --:--:-- --:--:-- 0 100 390 100 390 0 0 4534 0 --:--:-- --:--:-- --:--:-- 4534 From sinton@wam-2.localdomain Sun May 9 22:10:01 2021 Return-Path: X-Original-To: sinton Delivered-To: sinton@wam-2.localdomain Received: by wam-2.localdomain (Postfix, from userid 1001) id C1C3E38D62; Sun, 9 May 2021 22:10:01 -0400 (EDT) From: root@wam-2.localdomain (Cron Daemon) To: sinton@wam-2.localdomain Subject: Cron ~/symlinks/TEAM99/ogoakinitchka2.sh 99 0.05 > /dev/null MIME-Version: 1.0 Content-Type: text/plain; charset=UTF-8 Content-Transfer-Encoding: 8bit X-Cron-Env: X-Cron-Env: X-Cron-Env: X-Cron-Env: Message-Id: <20210510021001.C1C3E38D62@wam-2.localdomain> Date: Sun, 9 May 2021 22:10:01 -0400 (EDT) /bin/sh: 1: /home/sinton/symlinks/TEAM99/ogoakinitchka2.sh: not found From sinton@wam-2.localdomain Sun May 9 22:10:01 2021 Return-Path: X-Original-To: sinton Delivered-To: sinton@wam-2.localdomain Received: by wam-2.localdomain (Postfix, from userid 1001) id D428D38D62; Sun, 9 May 2021 22:10:01 -0400 (EDT) From: root@wam-2.localdomain (Cron Daemon) To: sinton@wam-2.localdomain Subject: Cron ~/symlinks/TEAM1F/metin/apiv4.sh 1f > /dev/null MIME-Version: 1.0 Content-Type: text/plain; charset=UTF-8 Content-Transfer-Encoding: 8bit X-Cron-Env: X-Cron-Env: X-Cron-Env: X-Cron-Env: Message-Id: <20210510021001.D428D38D62@wam-2.localdomain> Date: Sun, 9 May 2021 22:10:01 -0400 (EDT) % Total % Received % Xferd Average Speed Time Time Time Current Dload Upload Total Spent Left Speed 0 0 0 0 0 0 0 0 --:--:-- --:--:-- --:--:-- 0 100 388 100 388 0 0 6258 0 --:--:-- --:--:-- --:--:-- 6258 From sinton@wam-2.localdomain Sun May 9 22:10:11 2021 Return-Path: X-Original-To: sinton Delivered-To: sinton@wam-2.localdomain Received: by wam-2.localdomain (Postfix, from userid 1001) id 75DE938D3F; Sun, 9 May 2021 22:10:11 -0400 (EDT) From: root@wam-2.localdomain (Cron Daemon) To: sinton@wam-2.localdomain Subject: Cron bash -c "sleep $[RANDOM%30]m" ; ~/symlinks/TEAM1/fcst/startfcstclim.sh 1 > /dev/null MIME-Version: 1.0 Content-Type: text/plain; charset=UTF-8 Content-Transfer-Encoding: 8bit X-Cron-Env: X-Cron-Env: X-Cron-Env: X-Cron-Env: Message-Id: <20210510021011.75DE938D3F@wam-2.localdomain> Date: Sun, 9 May 2021 22:10:11 -0400 (EDT) % Total % Received % Xferd Average Speed Time Time Time Current Dload Upload Total Spent Left Speed 0 0 0 0 0 0 0 0 --:--:-- --:--:-- --:--:-- 0 28 41755 28 12065 0 0 55856 0 --:--:-- --:--:-- --:--:-- 55599 100 41755 100 41755 0 0 187k 0 --:--:-- --:--:-- --:--:-- 187k From sinton@wam-2.localdomain Sun May 9 22:11:01 2021 Return-Path: X-Original-To: sinton Delivered-To: sinton@wam-2.localdomain Received: by wam-2.localdomain (Postfix, from userid 1001) id BCDB538D49; Sun, 9 May 2021 22:11:01 -0400 (EDT) From: root@wam-2.localdomain (Cron Daemon) To: sinton@wam-2.localdomain Subject: Cron ~/symlinks/TEAM99/ogoakinitchka2.sh 99 0.05 > /dev/null MIME-Version: 1.0 Content-Type: text/plain; charset=UTF-8 Content-Transfer-Encoding: 8bit X-Cron-Env: X-Cron-Env: X-Cron-Env: X-Cron-Env: Message-Id: <20210510021101.BCDB538D49@wam-2.localdomain> Date: Sun, 9 May 2021 22:11:01 -0400 (EDT) /bin/sh: 1: /home/sinton/symlinks/TEAM99/ogoakinitchka2.sh: not found From sinton@wam-2.localdomain Sun May 9 22:11:01 2021 Return-Path: X-Original-To: sinton Delivered-To: sinton@wam-2.localdomain Received: by wam-2.localdomain (Postfix, from userid 1001) id C8C8E38D52; Sun, 9 May 2021 22:11:01 -0400 (EDT) From: root@wam-2.localdomain (Cron Daemon) To: sinton@wam-2.localdomain Subject: Cron ~/symlinks/TEAM1F/metin/apiv4.sh 1f > /dev/null MIME-Version: 1.0 Content-Type: text/plain; charset=UTF-8 Content-Transfer-Encoding: 8bit X-Cron-Env: X-Cron-Env: X-Cron-Env: X-Cron-Env: Message-Id: <20210510021101.C8C8E38D52@wam-2.localdomain> Date: Sun, 9 May 2021 22:11:01 -0400 (EDT) % Total % Received % Xferd Average Speed Time Time Time Current Dload Upload Total Spent Left Speed 0 0 0 0 0 0 0 0 --:--:-- --:--:-- --:--:-- 0 100 389 100 389 0 0 5984 0 --:--:-- --:--:-- --:--:-- 5984 From sinton@wam-2.localdomain Sun May 9 22:12:02 2021 Return-Path: X-Original-To: sinton Delivered-To: sinton@wam-2.localdomain Received: by wam-2.localdomain (Postfix, from userid 1001) id 0B02738D5B; Sun, 9 May 2021 22:12:02 -0400 (EDT) From: root@wam-2.localdomain (Cron Daemon) To: sinton@wam-2.localdomain Subject: Cron ~/symlinks/TEAM99/ogoakinitchka2.sh 99 0.05 > /dev/null MIME-Version: 1.0 Content-Type: text/plain; charset=UTF-8 Content-Transfer-Encoding: 8bit X-Cron-Env: X-Cron-Env: X-Cron-Env: X-Cron-Env: Message-Id: <20210510021202.0B02738D5B@wam-2.localdomain> Date: Sun, 9 May 2021 22:12:02 -0400 (EDT) /bin/sh: 1: /home/sinton/symlinks/TEAM99/ogoakinitchka2.sh: not found From sinton@wam-2.localdomain Sun May 9 22:12:02 2021 Return-Path: X-Original-To: sinton Delivered-To: sinton@wam-2.localdomain Received: by wam-2.localdomain (Postfix, from userid 1001) id 1FC1438D53; Sun, 9 May 2021 22:12:02 -0400 (EDT) From: root@wam-2.localdomain (Cron Daemon) To: sinton@wam-2.localdomain Subject: Cron ~/symlinks/TEAM1F/metin/apiv4.sh 1f > /dev/null MIME-Version: 1.0 Content-Type: text/plain; charset=UTF-8 Content-Transfer-Encoding: 8bit X-Cron-Env: X-Cron-Env: X-Cron-Env: X-Cron-Env: Message-Id: <20210510021202.1FC1438D53@wam-2.localdomain> Date: Sun, 9 May 2021 22:12:02 -0400 (EDT) % Total % Received % Xferd Average Speed Time Time Time Current Dload Upload Total Spent Left Speed 0 0 0 0 0 0 0 0 --:--:-- --:--:-- --:--:-- 0 100 389 100 389 0 0 5984 0 --:--:-- --:--:-- --:--:-- 6078 From sinton@wam-2.localdomain Sun May 9 22:13:01 2021 Return-Path: X-Original-To: sinton Delivered-To: sinton@wam-2.localdomain Received: by wam-2.localdomain (Postfix, from userid 1001) id 521AB38D56; Sun, 9 May 2021 22:13:01 -0400 (EDT) From: root@wam-2.localdomain (Cron Daemon) To: sinton@wam-2.localdomain Subject: Cron ~/symlinks/TEAM99/ogoakinitchka2.sh 99 0.05 > /dev/null MIME-Version: 1.0 Content-Type: text/plain; charset=UTF-8 Content-Transfer-Encoding: 8bit X-Cron-Env: X-Cron-Env: X-Cron-Env: X-Cron-Env: Message-Id: <20210510021301.521AB38D56@wam-2.localdomain> Date: Sun, 9 May 2021 22:13:01 -0400 (EDT) /bin/sh: 1: /home/sinton/symlinks/TEAM99/ogoakinitchka2.sh: not found From sinton@wam-2.localdomain Sun May 9 22:13:01 2021 Return-Path: X-Original-To: sinton Delivered-To: sinton@wam-2.localdomain Received: by wam-2.localdomain (Postfix, from userid 1001) id 6586F38D56; Sun, 9 May 2021 22:13:01 -0400 (EDT) From: root@wam-2.localdomain (Cron Daemon) To: sinton@wam-2.localdomain Subject: Cron ~/symlinks/TEAM1F/metin/apiv4.sh 1f > /dev/null MIME-Version: 1.0 Content-Type: text/plain; charset=UTF-8 Content-Transfer-Encoding: 8bit X-Cron-Env: X-Cron-Env: X-Cron-Env: X-Cron-Env: Message-Id: <20210510021301.6586F38D56@wam-2.localdomain> Date: Sun, 9 May 2021 22:13:01 -0400 (EDT) % Total % Received % Xferd Average Speed Time Time Time Current Dload Upload Total Spent Left Speed 0 0 0 0 0 0 0 0 --:--:-- --:--:-- --:--:-- 0 100 390 100 390 0 0 4756 0 --:--:-- --:--:-- --:--:-- 4756 From sinton@wam-2.localdomain Sun May 9 22:13:11 2021 Return-Path: X-Original-To: sinton Delivered-To: sinton@wam-2.localdomain Received: by wam-2.localdomain (Postfix, from userid 1001) id 0362F38D65; Sun, 9 May 2021 22:13:11 -0400 (EDT) From: root@wam-2.localdomain (Cron Daemon) To: sinton@wam-2.localdomain Subject: Cron bash -c "sleep $[RANDOM%30]m" ; ~/symlinks/TEAM7/fcst/startfcstclim.sh 7 > /dev/null MIME-Version: 1.0 Content-Type: text/plain; charset=UTF-8 Content-Transfer-Encoding: 8bit X-Cron-Env: X-Cron-Env: X-Cron-Env: X-Cron-Env: Message-Id: <20210510021311.0362F38D65@wam-2.localdomain> Date: Sun, 9 May 2021 22:13:11 -0400 (EDT) % Total % Received % Xferd Average Speed Time Time Time Current Dload Upload Total Spent Left Speed 0 0 0 0 0 0 0 0 --:--:-- --:--:-- --:--:-- 0 100 41585 100 41585 0 0 270k 0 --:--:-- --:--:-- --:--:-- 270k From sinton@wam-2.localdomain Sun May 9 22:14:01 2021 Return-Path: X-Original-To: sinton Delivered-To: sinton@wam-2.localdomain Received: by wam-2.localdomain (Postfix, from userid 1001) id 3642C38D5B; Sun, 9 May 2021 22:14:01 -0400 (EDT) From: root@wam-2.localdomain (Cron Daemon) To: sinton@wam-2.localdomain Subject: Cron ~/symlinks/TEAM99/ogoakinitchka2.sh 99 0.05 > /dev/null MIME-Version: 1.0 Content-Type: text/plain; charset=UTF-8 Content-Transfer-Encoding: 8bit X-Cron-Env: X-Cron-Env: X-Cron-Env: X-Cron-Env: Message-Id: <20210510021401.3642C38D5B@wam-2.localdomain> Date: Sun, 9 May 2021 22:14:01 -0400 (EDT) /bin/sh: 1: /home/sinton/symlinks/TEAM99/ogoakinitchka2.sh: not found From sinton@wam-2.localdomain Sun May 9 22:14:01 2021 Return-Path: X-Original-To: sinton Delivered-To: sinton@wam-2.localdomain Received: by wam-2.localdomain (Postfix, from userid 1001) id 4807238D5B; Sun, 9 May 2021 22:14:01 -0400 (EDT) From: root@wam-2.localdomain (Cron Daemon) To: sinton@wam-2.localdomain Subject: Cron ~/symlinks/TEAM1F/metin/apiv4.sh 1f > /dev/null MIME-Version: 1.0 Content-Type: text/plain; charset=UTF-8 Content-Transfer-Encoding: 8bit X-Cron-Env: X-Cron-Env: X-Cron-Env: X-Cron-Env: Message-Id: <20210510021401.4807238D5B@wam-2.localdomain> Date: Sun, 9 May 2021 22:14:01 -0400 (EDT) % Total % Received % Xferd Average Speed Time Time Time Current Dload Upload Total Spent Left Speed 0 0 0 0 0 0 0 0 --:--:-- --:--:-- --:--:-- 0 100 389 100 389 0 0 5328 0 --:--:-- --:--:-- --:--:-- 5328 From sinton@wam-2.localdomain Sun May 9 22:14:36 2021 Return-Path: X-Original-To: sinton Delivered-To: sinton@wam-2.localdomain Received: by wam-2.localdomain (Postfix, from userid 1001) id 667FF38D62; Sun, 9 May 2021 22:14:36 -0400 (EDT) From: root@wam-2.localdomain (Cron Daemon) To: sinton@wam-2.localdomain Subject: Cron bash -c "sleep $[RANDOM%30]m" ; ~/symlinks/TEAM1F/fcst/startfcstclim.sh 1f > /dev/null MIME-Version: 1.0 Content-Type: text/plain; charset=UTF-8 Content-Transfer-Encoding: 8bit X-Cron-Env: X-Cron-Env: X-Cron-Env: X-Cron-Env: Message-Id: <20210510021436.667FF38D62@wam-2.localdomain> Date: Sun, 9 May 2021 22:14:36 -0400 (EDT) % Total % Received % Xferd Average Speed Time Time Time Current Dload Upload Total Spent Left Speed 0 0 0 0 0 0 0 0 --:--:-- --:--:-- --:--:-- 0 29 41647 29 12065 0 0 41037 0 0:00:01 --:--:-- 0:00:01 40898 100 41647 100 41647 0 0 137k 0 --:--:-- --:--:-- --:--:-- 137k From sinton@wam-2.localdomain Sun May 9 22:15:01 2021 Return-Path: X-Original-To: sinton Delivered-To: sinton@wam-2.localdomain Received: by wam-2.localdomain (Postfix, from userid 1001) id 960FE38D62; Sun, 9 May 2021 22:15:01 -0400 (EDT) From: root@wam-2.localdomain (Cron Daemon) To: sinton@wam-2.localdomain Subject: Cron ~/symlinks/TEAM99/ogoakinitchka2.sh 99 0.05 > /dev/null MIME-Version: 1.0 Content-Type: text/plain; charset=UTF-8 Content-Transfer-Encoding: 8bit X-Cron-Env: X-Cron-Env: X-Cron-Env: X-Cron-Env: Message-Id: <20210510021501.960FE38D62@wam-2.localdomain> Date: Sun, 9 May 2021 22:15:01 -0400 (EDT) /bin/sh: 1: /home/sinton/symlinks/TEAM99/ogoakinitchka2.sh: not found From sinton@wam-2.localdomain Sun May 9 22:15:01 2021 Return-Path: X-Original-To: sinton Delivered-To: sinton@wam-2.localdomain Received: by wam-2.localdomain (Postfix, from userid 1001) id AB9D938D63; Sun, 9 May 2021 22:15:01 -0400 (EDT) From: root@wam-2.localdomain (Cron Daemon) To: sinton@wam-2.localdomain Subject: Cron ~/symlinks/TEAM1F/metin/apiv4.sh 1f > /dev/null MIME-Version: 1.0 Content-Type: text/plain; charset=UTF-8 Content-Transfer-Encoding: 8bit X-Cron-Env: X-Cron-Env: X-Cron-Env: X-Cron-Env: Message-Id: <20210510021501.AB9D938D63@wam-2.localdomain> Date: Sun, 9 May 2021 22:15:01 -0400 (EDT) % Total % Received % Xferd Average Speed Time Time Time Current Dload Upload Total Spent Left Speed 0 0 0 0 0 0 0 0 --:--:-- --:--:-- --:--:-- 0 100 390 100 390 0 0 4382 0 --:--:-- --:--:-- --:--:-- 4382 From sinton@wam-2.localdomain Sun May 9 22:16:01 2021 Return-Path: X-Original-To: sinton Delivered-To: sinton@wam-2.localdomain Received: by wam-2.localdomain (Postfix, from userid 1001) id EF95B38D5B; Sun, 9 May 2021 22:16:01 -0400 (EDT) From: root@wam-2.localdomain (Cron Daemon) To: sinton@wam-2.localdomain Subject: Cron ~/symlinks/TEAM99/ogoakinitchka2.sh 99 0.05 > /dev/null MIME-Version: 1.0 Content-Type: text/plain; charset=UTF-8 Content-Transfer-Encoding: 8bit X-Cron-Env: X-Cron-Env: X-Cron-Env: X-Cron-Env: Message-Id: <20210510021601.EF95B38D5B@wam-2.localdomain> Date: Sun, 9 May 2021 22:16:01 -0400 (EDT) /bin/sh: 1: /home/sinton/symlinks/TEAM99/ogoakinitchka2.sh: not found From sinton@wam-2.localdomain Sun May 9 22:16:02 2021 Return-Path: X-Original-To: sinton Delivered-To: sinton@wam-2.localdomain Received: by wam-2.localdomain (Postfix, from userid 1001) id 0E92D38D6D; Sun, 9 May 2021 22:16:02 -0400 (EDT) From: root@wam-2.localdomain (Cron Daemon) To: sinton@wam-2.localdomain Subject: Cron ~/symlinks/TEAM1F/metin/apiv4.sh 1f > /dev/null MIME-Version: 1.0 Content-Type: text/plain; charset=UTF-8 Content-Transfer-Encoding: 8bit X-Cron-Env: X-Cron-Env: X-Cron-Env: X-Cron-Env: Message-Id: <20210510021602.0E92D38D6D@wam-2.localdomain> Date: Sun, 9 May 2021 22:16:02 -0400 (EDT) % Total % Received % Xferd Average Speed Time Time Time Current Dload Upload Total Spent Left Speed 0 0 0 0 0 0 0 0 --:--:-- --:--:-- --:--:-- 0 100 390 100 390 0 0 5492 0 --:--:-- --:--:-- --:--:-- 5492 From sinton@wam-2.localdomain Sun May 9 22:17:01 2021 Return-Path: X-Original-To: sinton Delivered-To: sinton@wam-2.localdomain Received: by wam-2.localdomain (Postfix, from userid 1001) id 4EA9A38244; Sun, 9 May 2021 22:17:01 -0400 (EDT) From: root@wam-2.localdomain (Cron Daemon) To: sinton@wam-2.localdomain Subject: Cron ~/symlinks/TEAM99/ogoakinitchka2.sh 99 0.05 > /dev/null MIME-Version: 1.0 Content-Type: text/plain; charset=UTF-8 Content-Transfer-Encoding: 8bit X-Cron-Env: X-Cron-Env: X-Cron-Env: X-Cron-Env: Message-Id: <20210510021701.4EA9A38244@wam-2.localdomain> Date: Sun, 9 May 2021 22:17:01 -0400 (EDT) /bin/sh: 1: /home/sinton/symlinks/TEAM99/ogoakinitchka2.sh: not found From sinton@wam-2.localdomain Sun May 9 22:17:01 2021 Return-Path: X-Original-To: sinton Delivered-To: sinton@wam-2.localdomain Received: by wam-2.localdomain (Postfix, from userid 1001) id 5986838D63; Sun, 9 May 2021 22:17:01 -0400 (EDT) From: root@wam-2.localdomain (Cron Daemon) To: sinton@wam-2.localdomain Subject: Cron ~/symlinks/TEAM1F/metin/apiv4.sh 1f > /dev/null MIME-Version: 1.0 Content-Type: text/plain; charset=UTF-8 Content-Transfer-Encoding: 8bit X-Cron-Env: X-Cron-Env: X-Cron-Env: X-Cron-Env: Message-Id: <20210510021701.5986838D63@wam-2.localdomain> Date: Sun, 9 May 2021 22:17:01 -0400 (EDT) % Total % Received % Xferd Average Speed Time Time Time Current Dload Upload Total Spent Left Speed 0 0 0 0 0 0 0 0 --:--:-- --:--:-- --:--:-- 0 100 389 100 389 0 0 4987 0 --:--:-- --:--:-- --:--:-- 4987 From sinton@wam-2.localdomain Sun May 9 22:18:01 2021 Return-Path: X-Original-To: sinton Delivered-To: sinton@wam-2.localdomain Received: by wam-2.localdomain (Postfix, from userid 1001) id A403538364; Sun, 9 May 2021 22:18:01 -0400 (EDT) From: root@wam-2.localdomain (Cron Daemon) To: sinton@wam-2.localdomain Subject: Cron ~/symlinks/TEAM99/ogoakinitchka2.sh 99 0.05 > /dev/null MIME-Version: 1.0 Content-Type: text/plain; charset=UTF-8 Content-Transfer-Encoding: 8bit X-Cron-Env: X-Cron-Env: X-Cron-Env: X-Cron-Env: Message-Id: <20210510021801.A403538364@wam-2.localdomain> Date: Sun, 9 May 2021 22:18:01 -0400 (EDT) /bin/sh: 1: /home/sinton/symlinks/TEAM99/ogoakinitchka2.sh: not found From sinton@wam-2.localdomain Sun May 9 22:18:01 2021 Return-Path: X-Original-To: sinton Delivered-To: sinton@wam-2.localdomain Received: by wam-2.localdomain (Postfix, from userid 1001) id AF84E38364; Sun, 9 May 2021 22:18:01 -0400 (EDT) From: root@wam-2.localdomain (Cron Daemon) To: sinton@wam-2.localdomain Subject: Cron ~/symlinks/TEAM1F/metin/apiv4.sh 1f > /dev/null MIME-Version: 1.0 Content-Type: text/plain; charset=UTF-8 Content-Transfer-Encoding: 8bit X-Cron-Env: X-Cron-Env: X-Cron-Env: X-Cron-Env: Message-Id: <20210510021801.AF84E38364@wam-2.localdomain> Date: Sun, 9 May 2021 22:18:01 -0400 (EDT) % Total % Received % Xferd Average Speed Time Time Time Current Dload Upload Total Spent Left Speed 0 0 0 0 0 0 0 0 --:--:-- --:--:-- --:--:-- 0 100 388 100 388 0 0 4564 0 --:--:-- --:--:-- --:--:-- 4564 From sinton@wam-2.localdomain Sun May 9 22:18:18 2021 Return-Path: X-Original-To: sinton Delivered-To: sinton@wam-2.localdomain Received: by wam-2.localdomain (Postfix, from userid 1001) id 235D538E8D; Sun, 9 May 2021 22:18:18 -0400 (EDT) From: root@wam-2.localdomain (Cron Daemon) To: sinton@wam-2.localdomain Subject: Cron bash -c "sleep $[RANDOM%30]m" ; ~/symlinks/TEAM8/fcst/startfcstclim.sh 8 > /dev/null MIME-Version: 1.0 Content-Type: text/plain; charset=UTF-8 Content-Transfer-Encoding: 8bit X-Cron-Env: X-Cron-Env: X-Cron-Env: X-Cron-Env: Message-Id: <20210510021818.235D538E8D@wam-2.localdomain> Date: Sun, 9 May 2021 22:18:18 -0400 (EDT) % Total % Received % Xferd Average Speed Time Time Time Current Dload Upload Total Spent Left Speed 0 0 0 0 0 0 0 0 --:--:-- --:--:-- --:--:-- 0 100 41637 100 41637 0 0 211k 0 --:--:-- --:--:-- --:--:-- 211k From sinton@wam-2.localdomain Sun May 9 22:19:01 2021 Return-Path: X-Original-To: sinton Delivered-To: sinton@wam-2.localdomain Received: by wam-2.localdomain (Postfix, from userid 1001) id 542E538D0D; Sun, 9 May 2021 22:19:01 -0400 (EDT) From: root@wam-2.localdomain (Cron Daemon) To: sinton@wam-2.localdomain Subject: Cron ~/symlinks/TEAM99/ogoakinitchka2.sh 99 0.05 > /dev/null MIME-Version: 1.0 Content-Type: text/plain; charset=UTF-8 Content-Transfer-Encoding: 8bit X-Cron-Env: X-Cron-Env: X-Cron-Env: X-Cron-Env: Message-Id: <20210510021901.542E538D0D@wam-2.localdomain> Date: Sun, 9 May 2021 22:19:01 -0400 (EDT) /bin/sh: 1: /home/sinton/symlinks/TEAM99/ogoakinitchka2.sh: not found From sinton@wam-2.localdomain Sun May 9 22:19:01 2021 Return-Path: X-Original-To: sinton Delivered-To: sinton@wam-2.localdomain Received: by wam-2.localdomain (Postfix, from userid 1001) id 77CBF38D0D; Sun, 9 May 2021 22:19:01 -0400 (EDT) From: root@wam-2.localdomain (Cron Daemon) To: sinton@wam-2.localdomain Subject: Cron ~/symlinks/TEAM1F/metin/apiv4.sh 1f > /dev/null MIME-Version: 1.0 Content-Type: text/plain; charset=UTF-8 Content-Transfer-Encoding: 8bit X-Cron-Env: X-Cron-Env: X-Cron-Env: X-Cron-Env: Message-Id: <20210510021901.77CBF38D0D@wam-2.localdomain> Date: Sun, 9 May 2021 22:19:01 -0400 (EDT) % Total % Received % Xferd Average Speed Time Time Time Current Dload Upload Total Spent Left Speed 0 0 0 0 0 0 0 0 --:--:-- --:--:-- --:--:-- 0 100 390 100 390 0 0 2846 0 --:--:-- --:--:-- --:--:-- 2846 From sinton@wam-2.localdomain Sun May 9 22:20:01 2021 Return-Path: X-Original-To: sinton Delivered-To: sinton@wam-2.localdomain Received: by wam-2.localdomain (Postfix, from userid 1001) id AC1BF3776A; Sun, 9 May 2021 22:20:01 -0400 (EDT) From: root@wam-2.localdomain (Cron Daemon) To: sinton@wam-2.localdomain Subject: Cron ~/symlinks/TEAM99/ogoakinitchka2.sh 99 0.05 > /dev/null MIME-Version: 1.0 Content-Type: text/plain; charset=UTF-8 Content-Transfer-Encoding: 8bit X-Cron-Env: X-Cron-Env: X-Cron-Env: X-Cron-Env: Message-Id: <20210510022001.AC1BF3776A@wam-2.localdomain> Date: Sun, 9 May 2021 22:20:01 -0400 (EDT) /bin/sh: 1: /home/sinton/symlinks/TEAM99/ogoakinitchka2.sh: not found From sinton@wam-2.localdomain Sun May 9 22:20:01 2021 Return-Path: X-Original-To: sinton Delivered-To: sinton@wam-2.localdomain Received: by wam-2.localdomain (Postfix, from userid 1001) id B90B43776A; Sun, 9 May 2021 22:20:01 -0400 (EDT) From: root@wam-2.localdomain (Cron Daemon) To: sinton@wam-2.localdomain Subject: Cron ~/symlinks/TEAM1F/metin/apiv4.sh 1f > /dev/null MIME-Version: 1.0 Content-Type: text/plain; charset=UTF-8 Content-Transfer-Encoding: 8bit X-Cron-Env: X-Cron-Env: X-Cron-Env: X-Cron-Env: Message-Id: <20210510022001.B90B43776A@wam-2.localdomain> Date: Sun, 9 May 2021 22:20:01 -0400 (EDT) % Total % Received % Xferd Average Speed Time Time Time Current Dload Upload Total Spent Left Speed 0 0 0 0 0 0 0 0 --:--:-- --:--:-- --:--:-- 0 100 391 100 391 0 0 6627 0 --:--:-- --:--:-- --:--:-- 6627 From sinton@wam-2.localdomain Sun May 9 22:21:02 2021 Return-Path: X-Original-To: sinton Delivered-To: sinton@wam-2.localdomain Received: by wam-2.localdomain (Postfix, from userid 1001) id 05ECA38D0D; Sun, 9 May 2021 22:21:02 -0400 (EDT) From: root@wam-2.localdomain (Cron Daemon) To: sinton@wam-2.localdomain Subject: Cron ~/symlinks/TEAM99/ogoakinitchka2.sh 99 0.05 > /dev/null MIME-Version: 1.0 Content-Type: text/plain; charset=UTF-8 Content-Transfer-Encoding: 8bit X-Cron-Env: X-Cron-Env: X-Cron-Env: X-Cron-Env: Message-Id: <20210510022102.05ECA38D0D@wam-2.localdomain> Date: Sun, 9 May 2021 22:21:02 -0400 (EDT) /bin/sh: 1: /home/sinton/symlinks/TEAM99/ogoakinitchka2.sh: not found From sinton@wam-2.localdomain Sun May 9 22:21:02 2021 Return-Path: X-Original-To: sinton Delivered-To: sinton@wam-2.localdomain Received: by wam-2.localdomain (Postfix, from userid 1001) id 129BC37EE3; Sun, 9 May 2021 22:21:02 -0400 (EDT) From: root@wam-2.localdomain (Cron Daemon) To: sinton@wam-2.localdomain Subject: Cron ~/symlinks/TEAM1F/metin/apiv4.sh 1f > /dev/null MIME-Version: 1.0 Content-Type: text/plain; charset=UTF-8 Content-Transfer-Encoding: 8bit X-Cron-Env: X-Cron-Env: X-Cron-Env: X-Cron-Env: Message-Id: <20210510022102.129BC37EE3@wam-2.localdomain> Date: Sun, 9 May 2021 22:21:02 -0400 (EDT) % Total % Received % Xferd Average Speed Time Time Time Current Dload Upload Total Spent Left Speed 0 0 0 0 0 0 0 0 --:--:-- --:--:-- --:--:-- 0 100 391 100 391 0 0 5507 0 --:--:-- --:--:-- --:--:-- 5507 From sinton@wam-2.localdomain Sun May 9 22:22:01 2021 Return-Path: X-Original-To: sinton Delivered-To: sinton@wam-2.localdomain Received: by wam-2.localdomain (Postfix, from userid 1001) id 45C243776A; Sun, 9 May 2021 22:22:01 -0400 (EDT) From: root@wam-2.localdomain (Cron Daemon) To: sinton@wam-2.localdomain Subject: Cron ~/symlinks/TEAM99/ogoakinitchka2.sh 99 0.05 > /dev/null MIME-Version: 1.0 Content-Type: text/plain; charset=UTF-8 Content-Transfer-Encoding: 8bit X-Cron-Env: X-Cron-Env: X-Cron-Env: X-Cron-Env: Message-Id: <20210510022201.45C243776A@wam-2.localdomain> Date: Sun, 9 May 2021 22:22:01 -0400 (EDT) /bin/sh: 1: /home/sinton/symlinks/TEAM99/ogoakinitchka2.sh: not found From sinton@wam-2.localdomain Sun May 9 22:22:01 2021 Return-Path: X-Original-To: sinton Delivered-To: sinton@wam-2.localdomain Received: by wam-2.localdomain (Postfix, from userid 1001) id 5CDB03776A; Sun, 9 May 2021 22:22:01 -0400 (EDT) From: root@wam-2.localdomain (Cron Daemon) To: sinton@wam-2.localdomain Subject: Cron ~/symlinks/TEAM1F/metin/apiv4.sh 1f > /dev/null MIME-Version: 1.0 Content-Type: text/plain; charset=UTF-8 Content-Transfer-Encoding: 8bit X-Cron-Env: X-Cron-Env: X-Cron-Env: X-Cron-Env: Message-Id: <20210510022201.5CDB03776A@wam-2.localdomain> Date: Sun, 9 May 2021 22:22:01 -0400 (EDT) % Total % Received % Xferd Average Speed Time Time Time Current Dload Upload Total Spent Left Speed 0 0 0 0 0 0 0 0 --:--:-- --:--:-- --:--:-- 0 100 391 100 391 0 0 4710 0 --:--:-- --:--:-- --:--:-- 4710 From sinton@wam-2.localdomain Sun May 9 22:23:01 2021 Return-Path: X-Original-To: sinton Delivered-To: sinton@wam-2.localdomain Received: by wam-2.localdomain (Postfix, from userid 1001) id 98FF937734; Sun, 9 May 2021 22:23:01 -0400 (EDT) From: root@wam-2.localdomain (Cron Daemon) To: sinton@wam-2.localdomain Subject: Cron ~/symlinks/TEAM99/ogoakinitchka2.sh 99 0.05 > /dev/null MIME-Version: 1.0 Content-Type: text/plain; charset=UTF-8 Content-Transfer-Encoding: 8bit X-Cron-Env: X-Cron-Env: X-Cron-Env: X-Cron-Env: Message-Id: <20210510022301.98FF937734@wam-2.localdomain> Date: Sun, 9 May 2021 22:23:01 -0400 (EDT) /bin/sh: 1: /home/sinton/symlinks/TEAM99/ogoakinitchka2.sh: not found From sinton@wam-2.localdomain Sun May 9 22:23:01 2021 Return-Path: X-Original-To: sinton Delivered-To: sinton@wam-2.localdomain Received: by wam-2.localdomain (Postfix, from userid 1001) id AC64D38E97; Sun, 9 May 2021 22:23:01 -0400 (EDT) From: root@wam-2.localdomain (Cron Daemon) To: sinton@wam-2.localdomain Subject: Cron ~/symlinks/TEAM1F/metin/apiv4.sh 1f > /dev/null MIME-Version: 1.0 Content-Type: text/plain; charset=UTF-8 Content-Transfer-Encoding: 8bit X-Cron-Env: X-Cron-Env: X-Cron-Env: X-Cron-Env: Message-Id: <20210510022301.AC64D38E97@wam-2.localdomain> Date: Sun, 9 May 2021 22:23:01 -0400 (EDT) % Total % Received % Xferd Average Speed Time Time Time Current Dload Upload Total Spent Left Speed 0 0 0 0 0 0 0 0 --:--:-- --:--:-- --:--:-- 0 100 389 100 389 0 0 6946 0 --:--:-- --:--:-- --:--:-- 6946 From sinton@wam-2.localdomain Sun May 9 22:24:01 2021 Return-Path: X-Original-To: sinton Delivered-To: sinton@wam-2.localdomain Received: by wam-2.localdomain (Postfix, from userid 1001) id DC67038E8D; Sun, 9 May 2021 22:24:01 -0400 (EDT) From: root@wam-2.localdomain (Cron Daemon) To: sinton@wam-2.localdomain Subject: Cron ~/symlinks/TEAM99/ogoakinitchka2.sh 99 0.05 > /dev/null MIME-Version: 1.0 Content-Type: text/plain; charset=UTF-8 Content-Transfer-Encoding: 8bit X-Cron-Env: X-Cron-Env: X-Cron-Env: X-Cron-Env: Message-Id: <20210510022401.DC67038E8D@wam-2.localdomain> Date: Sun, 9 May 2021 22:24:01 -0400 (EDT) /bin/sh: 1: /home/sinton/symlinks/TEAM99/ogoakinitchka2.sh: not found From sinton@wam-2.localdomain Sun May 9 22:24:02 2021 Return-Path: X-Original-To: sinton Delivered-To: sinton@wam-2.localdomain Received: by wam-2.localdomain (Postfix, from userid 1001) id 090DB38E8F; Sun, 9 May 2021 22:24:02 -0400 (EDT) From: root@wam-2.localdomain (Cron Daemon) To: sinton@wam-2.localdomain Subject: Cron ~/symlinks/TEAM1F/metin/apiv4.sh 1f > /dev/null MIME-Version: 1.0 Content-Type: text/plain; charset=UTF-8 Content-Transfer-Encoding: 8bit X-Cron-Env: X-Cron-Env: X-Cron-Env: X-Cron-Env: Message-Id: <20210510022402.090DB38E8F@wam-2.localdomain> Date: Sun, 9 May 2021 22:24:02 -0400 (EDT) % Total % Received % Xferd Average Speed Time Time Time Current Dload Upload Total Spent Left Speed 0 0 0 0 0 0 0 0 --:--:-- --:--:-- --:--:-- 0 100 391 100 391 0 0 3313 0 --:--:-- --:--:-- --:--:-- 3989 From sinton@wam-2.localdomain Sun May 9 22:25:01 2021 Return-Path: X-Original-To: sinton Delivered-To: sinton@wam-2.localdomain Received: by wam-2.localdomain (Postfix, from userid 1001) id 3465738E92; Sun, 9 May 2021 22:25:01 -0400 (EDT) From: root@wam-2.localdomain (Cron Daemon) To: sinton@wam-2.localdomain Subject: Cron ~/symlinks/TEAM99/ogoakinitchka2.sh 99 0.05 > /dev/null MIME-Version: 1.0 Content-Type: text/plain; charset=UTF-8 Content-Transfer-Encoding: 8bit X-Cron-Env: X-Cron-Env: X-Cron-Env: X-Cron-Env: Message-Id: <20210510022501.3465738E92@wam-2.localdomain> Date: Sun, 9 May 2021 22:25:01 -0400 (EDT) /bin/sh: 1: /home/sinton/symlinks/TEAM99/ogoakinitchka2.sh: not found From sinton@wam-2.localdomain Sun May 9 22:25:04 2021 Return-Path: X-Original-To: sinton Delivered-To: sinton@wam-2.localdomain Received: by wam-2.localdomain (Postfix, from userid 1001) id 29F0838E92; Sun, 9 May 2021 22:25:04 -0400 (EDT) From: root@wam-2.localdomain (Cron Daemon) To: sinton@wam-2.localdomain Subject: Cron ~/symlinks/TEAM1F/metin/apiv4.sh 1f > /dev/null MIME-Version: 1.0 Content-Type: text/plain; charset=UTF-8 Content-Transfer-Encoding: 8bit X-Cron-Env: X-Cron-Env: X-Cron-Env: X-Cron-Env: Message-Id: <20210510022504.29F0838E92@wam-2.localdomain> Date: Sun, 9 May 2021 22:25:04 -0400 (EDT) % Total % Received % Xferd Average Speed Time Time Time Current Dload Upload Total Spent Left Speed 0 0 0 0 0 0 0 0 --:--:-- --:--:-- --:--:-- 0 0 0 0 0 0 0 0 0 --:--:-- 0:00:01 --:--:-- 0 0 0 0 0 0 0 0 0 --:--:-- 0:00:02 --:--:-- 0 0 0 0 0 0 0 0 0 --:--:-- 0:00:02 --:--:-- 0 100 391 100 391 0 0 132 0 0:00:02 0:00:02 --:--:-- 131 From sinton@wam-2.localdomain Sun May 9 22:26:01 2021 Return-Path: X-Original-To: sinton Delivered-To: sinton@wam-2.localdomain Received: by wam-2.localdomain (Postfix, from userid 1001) id 6D0EF38E83; Sun, 9 May 2021 22:26:01 -0400 (EDT) From: root@wam-2.localdomain (Cron Daemon) To: sinton@wam-2.localdomain Subject: Cron ~/symlinks/TEAM99/ogoakinitchka2.sh 99 0.05 > /dev/null MIME-Version: 1.0 Content-Type: text/plain; charset=UTF-8 Content-Transfer-Encoding: 8bit X-Cron-Env: X-Cron-Env: X-Cron-Env: X-Cron-Env: Message-Id: <20210510022601.6D0EF38E83@wam-2.localdomain> Date: Sun, 9 May 2021 22:26:01 -0400 (EDT) /bin/sh: 1: /home/sinton/symlinks/TEAM99/ogoakinitchka2.sh: not found From sinton@wam-2.localdomain Sun May 9 22:26:01 2021 Return-Path: X-Original-To: sinton Delivered-To: sinton@wam-2.localdomain Received: by wam-2.localdomain (Postfix, from userid 1001) id 7E86438E90; Sun, 9 May 2021 22:26:01 -0400 (EDT) From: root@wam-2.localdomain (Cron Daemon) To: sinton@wam-2.localdomain Subject: Cron ~/symlinks/TEAM1F/metin/apiv4.sh 1f > /dev/null MIME-Version: 1.0 Content-Type: text/plain; charset=UTF-8 Content-Transfer-Encoding: 8bit X-Cron-Env: X-Cron-Env: X-Cron-Env: X-Cron-Env: Message-Id: <20210510022601.7E86438E90@wam-2.localdomain> Date: Sun, 9 May 2021 22:26:01 -0400 (EDT) % Total % Received % Xferd Average Speed Time Time Time Current Dload Upload Total Spent Left Speed 0 0 0 0 0 0 0 0 --:--:-- --:--:-- --:--:-- 0 100 391 100 391 0 0 4494 0 --:--:-- --:--:-- --:--:-- 4546 From sinton@wam-2.localdomain Sun May 9 22:26:30 2021 Return-Path: X-Original-To: sinton Delivered-To: sinton@wam-2.localdomain Received: by wam-2.localdomain (Postfix, from userid 1001) id 431C538E92; Sun, 9 May 2021 22:26:30 -0400 (EDT) From: root@wam-2.localdomain (Cron Daemon) To: sinton@wam-2.localdomain Subject: Cron bash -c "sleep $[RANDOM%30]m" ; ~/symlinks/TEAM1N/fcst/startfcstclim.sh 1n > /dev/null MIME-Version: 1.0 Content-Type: text/plain; charset=UTF-8 Content-Transfer-Encoding: 8bit X-Cron-Env: X-Cron-Env: X-Cron-Env: X-Cron-Env: Message-Id: <20210510022630.431C538E92@wam-2.localdomain> Date: Sun, 9 May 2021 22:26:30 -0400 (EDT) % Total % Received % Xferd Average Speed Time Time Time Current Dload Upload Total Spent Left Speed 0 0 0 0 0 0 0 0 --:--:-- --:--:-- --:--:-- 0 100 41806 100 41806 0 0 274k 0 --:--:-- --:--:-- --:--:-- 274k From sinton@wam-2.localdomain Sun May 9 22:27:01 2021 Return-Path: X-Original-To: sinton Delivered-To: sinton@wam-2.localdomain Received: by wam-2.localdomain (Postfix, from userid 1001) id 7417238E98; Sun, 9 May 2021 22:27:01 -0400 (EDT) From: root@wam-2.localdomain (Cron Daemon) To: sinton@wam-2.localdomain Subject: Cron ~/symlinks/TEAM99/ogoakinitchka2.sh 99 0.05 > /dev/null MIME-Version: 1.0 Content-Type: text/plain; charset=UTF-8 Content-Transfer-Encoding: 8bit X-Cron-Env: X-Cron-Env: X-Cron-Env: X-Cron-Env: Message-Id: <20210510022701.7417238E98@wam-2.localdomain> Date: Sun, 9 May 2021 22:27:01 -0400 (EDT) /bin/sh: 1: /home/sinton/symlinks/TEAM99/ogoakinitchka2.sh: not found From sinton@wam-2.localdomain Sun May 9 22:27:01 2021 Return-Path: X-Original-To: sinton Delivered-To: sinton@wam-2.localdomain Received: by wam-2.localdomain (Postfix, from userid 1001) id 8377938E98; Sun, 9 May 2021 22:27:01 -0400 (EDT) From: root@wam-2.localdomain (Cron Daemon) To: sinton@wam-2.localdomain Subject: Cron ~/symlinks/TEAM1F/metin/apiv4.sh 1f > /dev/null MIME-Version: 1.0 Content-Type: text/plain; charset=UTF-8 Content-Transfer-Encoding: 8bit X-Cron-Env: X-Cron-Env: X-Cron-Env: X-Cron-Env: Message-Id: <20210510022701.8377938E98@wam-2.localdomain> Date: Sun, 9 May 2021 22:27:01 -0400 (EDT) % Total % Received % Xferd Average Speed Time Time Time Current Dload Upload Total Spent Left Speed 0 0 0 0 0 0 0 0 --:--:-- --:--:-- --:--:-- 0 100 390 100 390 0 0 5492 0 --:--:-- --:--:-- --:--:-- 5492 From sinton@wam-2.localdomain Sun May 9 22:28:01 2021 Return-Path: X-Original-To: sinton Delivered-To: sinton@wam-2.localdomain Received: by wam-2.localdomain (Postfix, from userid 1001) id B031238EA3; Sun, 9 May 2021 22:28:01 -0400 (EDT) From: root@wam-2.localdomain (Cron Daemon) To: sinton@wam-2.localdomain Subject: Cron ~/symlinks/TEAM99/ogoakinitchka2.sh 99 0.05 > /dev/null MIME-Version: 1.0 Content-Type: text/plain; charset=UTF-8 Content-Transfer-Encoding: 8bit X-Cron-Env: X-Cron-Env: X-Cron-Env: X-Cron-Env: Message-Id: <20210510022801.B031238EA3@wam-2.localdomain> Date: Sun, 9 May 2021 22:28:01 -0400 (EDT) /bin/sh: 1: /home/sinton/symlinks/TEAM99/ogoakinitchka2.sh: not found From sinton@wam-2.localdomain Sun May 9 22:28:01 2021 Return-Path: X-Original-To: sinton Delivered-To: sinton@wam-2.localdomain Received: by wam-2.localdomain (Postfix, from userid 1001) id C83CB38EA3; Sun, 9 May 2021 22:28:01 -0400 (EDT) From: root@wam-2.localdomain (Cron Daemon) To: sinton@wam-2.localdomain Subject: Cron ~/symlinks/TEAM1F/metin/apiv4.sh 1f > /dev/null MIME-Version: 1.0 Content-Type: text/plain; charset=UTF-8 Content-Transfer-Encoding: 8bit X-Cron-Env: X-Cron-Env: X-Cron-Env: X-Cron-Env: Message-Id: <20210510022801.C83CB38EA3@wam-2.localdomain> Date: Sun, 9 May 2021 22:28:01 -0400 (EDT) % Total % Received % Xferd Average Speed Time Time Time Current Dload Upload Total Spent Left Speed 0 0 0 0 0 0 0 0 --:--:-- --:--:-- --:--:-- 0 100 391 100 391 0 0 5835 0 --:--:-- --:--:-- --:--:-- 5835 From sinton@wam-2.localdomain Sun May 9 22:29:02 2021 Return-Path: X-Original-To: sinton Delivered-To: sinton@wam-2.localdomain Received: by wam-2.localdomain (Postfix, from userid 1001) id 0469138E9E; Sun, 9 May 2021 22:29:02 -0400 (EDT) From: root@wam-2.localdomain (Cron Daemon) To: sinton@wam-2.localdomain Subject: Cron ~/symlinks/TEAM99/ogoakinitchka2.sh 99 0.05 > /dev/null MIME-Version: 1.0 Content-Type: text/plain; charset=UTF-8 Content-Transfer-Encoding: 8bit X-Cron-Env: X-Cron-Env: X-Cron-Env: X-Cron-Env: Message-Id: <20210510022902.0469138E9E@wam-2.localdomain> Date: Sun, 9 May 2021 22:29:02 -0400 (EDT) /bin/sh: 1: /home/sinton/symlinks/TEAM99/ogoakinitchka2.sh: not found From sinton@wam-2.localdomain Sun May 9 22:29:02 2021 Return-Path: X-Original-To: sinton Delivered-To: sinton@wam-2.localdomain Received: by wam-2.localdomain (Postfix, from userid 1001) id 1391338E9E; Sun, 9 May 2021 22:29:02 -0400 (EDT) From: root@wam-2.localdomain (Cron Daemon) To: sinton@wam-2.localdomain Subject: Cron ~/symlinks/TEAM1F/metin/apiv4.sh 1f > /dev/null MIME-Version: 1.0 Content-Type: text/plain; charset=UTF-8 Content-Transfer-Encoding: 8bit X-Cron-Env: X-Cron-Env: X-Cron-Env: X-Cron-Env: Message-Id: <20210510022902.1391338E9E@wam-2.localdomain> Date: Sun, 9 May 2021 22:29:02 -0400 (EDT) % Total % Received % Xferd Average Speed Time Time Time Current Dload Upload Total Spent Left Speed 0 0 0 0 0 0 0 0 --:--:-- --:--:-- --:--:-- 0 100 392 100 392 0 0 5521 0 --:--:-- --:--:-- --:--:-- 5521 From sinton@wam-2.localdomain Sun May 9 22:30:01 2021 Return-Path: X-Original-To: sinton Delivered-To: sinton@wam-2.localdomain Received: by wam-2.localdomain (Postfix, from userid 1001) id 44C4E38EB3; Sun, 9 May 2021 22:30:01 -0400 (EDT) From: root@wam-2.localdomain (Cron Daemon) To: sinton@wam-2.localdomain Subject: Cron ~/symlinks/TEAM99/ogoakinitchka2.sh 99 0.05 > /dev/null MIME-Version: 1.0 Content-Type: text/plain; charset=UTF-8 Content-Transfer-Encoding: 8bit X-Cron-Env: X-Cron-Env: X-Cron-Env: X-Cron-Env: Message-Id: <20210510023001.44C4E38EB3@wam-2.localdomain> Date: Sun, 9 May 2021 22:30:01 -0400 (EDT) /bin/sh: 1: /home/sinton/symlinks/TEAM99/ogoakinitchka2.sh: not found From sinton@wam-2.localdomain Sun May 9 22:30:01 2021 Return-Path: X-Original-To: sinton Delivered-To: sinton@wam-2.localdomain Received: by wam-2.localdomain (Postfix, from userid 1001) id 5654138EB3; Sun, 9 May 2021 22:30:01 -0400 (EDT) From: root@wam-2.localdomain (Cron Daemon) To: sinton@wam-2.localdomain Subject: Cron ~/symlinks/TEAM1F/metin/apiv4.sh 1f > /dev/null MIME-Version: 1.0 Content-Type: text/plain; charset=UTF-8 Content-Transfer-Encoding: 8bit X-Cron-Env: X-Cron-Env: X-Cron-Env: X-Cron-Env: Message-Id: <20210510023001.5654138EB3@wam-2.localdomain> Date: Sun, 9 May 2021 22:30:01 -0400 (EDT) % Total % Received % Xferd Average Speed Time Time Time Current Dload Upload Total Spent Left Speed 0 0 0 0 0 0 0 0 --:--:-- --:--:-- --:--:-- 0 100 391 100 391 0 0 4887 0 --:--:-- --:--:-- --:--:-- 4887 From sinton@wam-2.localdomain Sun May 9 22:31:01 2021 Return-Path: X-Original-To: sinton Delivered-To: sinton@wam-2.localdomain Received: by wam-2.localdomain (Postfix, from userid 1001) id 91E0738C99; Sun, 9 May 2021 22:31:01 -0400 (EDT) From: root@wam-2.localdomain (Cron Daemon) To: sinton@wam-2.localdomain Subject: Cron ~/symlinks/TEAM99/ogoakinitchka2.sh 99 0.05 > /dev/null MIME-Version: 1.0 Content-Type: text/plain; charset=UTF-8 Content-Transfer-Encoding: 8bit X-Cron-Env: X-Cron-Env: X-Cron-Env: X-Cron-Env: Message-Id: <20210510023101.91E0738C99@wam-2.localdomain> Date: Sun, 9 May 2021 22:31:01 -0400 (EDT) /bin/sh: 1: /home/sinton/symlinks/TEAM99/ogoakinitchka2.sh: not found From sinton@wam-2.localdomain Sun May 9 22:31:01 2021 Return-Path: X-Original-To: sinton Delivered-To: sinton@wam-2.localdomain Received: by wam-2.localdomain (Postfix, from userid 1001) id A75D838EA7; Sun, 9 May 2021 22:31:01 -0400 (EDT) From: root@wam-2.localdomain (Cron Daemon) To: sinton@wam-2.localdomain Subject: Cron ~/symlinks/TEAM1F/metin/apiv4.sh 1f > /dev/null MIME-Version: 1.0 Content-Type: text/plain; charset=UTF-8 Content-Transfer-Encoding: 8bit X-Cron-Env: X-Cron-Env: X-Cron-Env: X-Cron-Env: Message-Id: <20210510023101.A75D838EA7@wam-2.localdomain> Date: Sun, 9 May 2021 22:31:01 -0400 (EDT) % Total % Received % Xferd Average Speed Time Time Time Current Dload Upload Total Spent Left Speed 0 0 0 0 0 0 0 0 --:--:-- --:--:-- --:--:-- 0 100 390 100 390 0 0 9512 0 --:--:-- --:--:-- --:--:-- 9512 From sinton@wam-2.localdomain Sun May 9 22:32:01 2021 Return-Path: X-Original-To: sinton Delivered-To: sinton@wam-2.localdomain Received: by wam-2.localdomain (Postfix, from userid 1001) id DBC5738ED0; Sun, 9 May 2021 22:32:01 -0400 (EDT) From: root@wam-2.localdomain (Cron Daemon) To: sinton@wam-2.localdomain Subject: Cron ~/symlinks/TEAM99/ogoakinitchka2.sh 99 0.05 > /dev/null MIME-Version: 1.0 Content-Type: text/plain; charset=UTF-8 Content-Transfer-Encoding: 8bit X-Cron-Env: X-Cron-Env: X-Cron-Env: X-Cron-Env: Message-Id: <20210510023201.DBC5738ED0@wam-2.localdomain> Date: Sun, 9 May 2021 22:32:01 -0400 (EDT) /bin/sh: 1: /home/sinton/symlinks/TEAM99/ogoakinitchka2.sh: not found From sinton@wam-2.localdomain Sun May 9 22:32:01 2021 Return-Path: X-Original-To: sinton Delivered-To: sinton@wam-2.localdomain Received: by wam-2.localdomain (Postfix, from userid 1001) id F29DF38ED0; Sun, 9 May 2021 22:32:01 -0400 (EDT) From: root@wam-2.localdomain (Cron Daemon) To: sinton@wam-2.localdomain Subject: Cron ~/symlinks/TEAM1F/metin/apiv4.sh 1f > /dev/null MIME-Version: 1.0 Content-Type: text/plain; charset=UTF-8 Content-Transfer-Encoding: 8bit X-Cron-Env: X-Cron-Env: X-Cron-Env: X-Cron-Env: Message-Id: <20210510023201.F29DF38ED0@wam-2.localdomain> Date: Sun, 9 May 2021 22:32:01 -0400 (EDT) % Total % Received % Xferd Average Speed Time Time Time Current Dload Upload Total Spent Left Speed 0 0 0 0 0 0 0 0 --:--:-- --:--:-- --:--:-- 0 100 391 100 391 0 0 5666 0 --:--:-- --:--:-- --:--:-- 5666 From sinton@wam-2.localdomain Sun May 9 22:33:02 2021 Return-Path: X-Original-To: sinton Delivered-To: sinton@wam-2.localdomain Received: by wam-2.localdomain (Postfix, from userid 1001) id 32B093859E; Sun, 9 May 2021 22:33:02 -0400 (EDT) From: root@wam-2.localdomain (Cron Daemon) To: sinton@wam-2.localdomain Subject: Cron ~/symlinks/TEAM99/ogoakinitchka2.sh 99 0.05 > /dev/null MIME-Version: 1.0 Content-Type: text/plain; charset=UTF-8 Content-Transfer-Encoding: 8bit X-Cron-Env: X-Cron-Env: X-Cron-Env: X-Cron-Env: Message-Id: <20210510023302.32B093859E@wam-2.localdomain> Date: Sun, 9 May 2021 22:33:02 -0400 (EDT) /bin/sh: 1: /home/sinton/symlinks/TEAM99/ogoakinitchka2.sh: not found From sinton@wam-2.localdomain Sun May 9 22:33:02 2021 Return-Path: X-Original-To: sinton Delivered-To: sinton@wam-2.localdomain Received: by wam-2.localdomain (Postfix, from userid 1001) id 4542D3859E; Sun, 9 May 2021 22:33:02 -0400 (EDT) From: root@wam-2.localdomain (Cron Daemon) To: sinton@wam-2.localdomain Subject: Cron ~/symlinks/TEAM1F/metin/apiv4.sh 1f > /dev/null MIME-Version: 1.0 Content-Type: text/plain; charset=UTF-8 Content-Transfer-Encoding: 8bit X-Cron-Env: X-Cron-Env: X-Cron-Env: X-Cron-Env: Message-Id: <20210510023302.4542D3859E@wam-2.localdomain> Date: Sun, 9 May 2021 22:33:02 -0400 (EDT) % Total % Received % Xferd Average Speed Time Time Time Current Dload Upload Total Spent Left Speed 0 0 0 0 0 0 0 0 --:--:-- --:--:-- --:--:-- 0 100 392 100 392 0 0 5939 0 --:--:-- --:--:-- --:--:-- 5939 From sinton@wam-2.localdomain Sun May 9 22:34:01 2021 Return-Path: X-Original-To: sinton Delivered-To: sinton@wam-2.localdomain Received: by wam-2.localdomain (Postfix, from userid 1001) id 78EBF38593; Sun, 9 May 2021 22:34:01 -0400 (EDT) From: root@wam-2.localdomain (Cron Daemon) To: sinton@wam-2.localdomain Subject: Cron ~/symlinks/TEAM99/ogoakinitchka2.sh 99 0.05 > /dev/null MIME-Version: 1.0 Content-Type: text/plain; charset=UTF-8 Content-Transfer-Encoding: 8bit X-Cron-Env: X-Cron-Env: X-Cron-Env: X-Cron-Env: Message-Id: <20210510023401.78EBF38593@wam-2.localdomain> Date: Sun, 9 May 2021 22:34:01 -0400 (EDT) /bin/sh: 1: /home/sinton/symlinks/TEAM99/ogoakinitchka2.sh: not found From sinton@wam-2.localdomain Sun May 9 22:34:01 2021 Return-Path: X-Original-To: sinton Delivered-To: sinton@wam-2.localdomain Received: by wam-2.localdomain (Postfix, from userid 1001) id 8F4AF38593; Sun, 9 May 2021 22:34:01 -0400 (EDT) From: root@wam-2.localdomain (Cron Daemon) To: sinton@wam-2.localdomain Subject: Cron ~/symlinks/TEAM1F/metin/apiv4.sh 1f > /dev/null MIME-Version: 1.0 Content-Type: text/plain; charset=UTF-8 Content-Transfer-Encoding: 8bit X-Cron-Env: X-Cron-Env: X-Cron-Env: X-Cron-Env: Message-Id: <20210510023401.8F4AF38593@wam-2.localdomain> Date: Sun, 9 May 2021 22:34:01 -0400 (EDT) % Total % Received % Xferd Average Speed Time Time Time Current Dload Upload Total Spent Left Speed 0 0 0 0 0 0 0 0 --:--:-- --:--:-- --:--:-- 0 100 392 100 392 0 0 5939 0 --:--:-- --:--:-- --:--:-- 5939 From sinton@wam-2.localdomain Sun May 9 22:35:01 2021 Return-Path: X-Original-To: sinton Delivered-To: sinton@wam-2.localdomain Received: by wam-2.localdomain (Postfix, from userid 1001) id BF04B38EC5; Sun, 9 May 2021 22:35:01 -0400 (EDT) From: root@wam-2.localdomain (Cron Daemon) To: sinton@wam-2.localdomain Subject: Cron ~/symlinks/TEAM99/ogoakinitchka2.sh 99 0.05 > /dev/null MIME-Version: 1.0 Content-Type: text/plain; charset=UTF-8 Content-Transfer-Encoding: 8bit X-Cron-Env: X-Cron-Env: X-Cron-Env: X-Cron-Env: Message-Id: <20210510023501.BF04B38EC5@wam-2.localdomain> Date: Sun, 9 May 2021 22:35:01 -0400 (EDT) /bin/sh: 1: /home/sinton/symlinks/TEAM99/ogoakinitchka2.sh: not found From sinton@wam-2.localdomain Sun May 9 22:35:01 2021 Return-Path: X-Original-To: sinton Delivered-To: sinton@wam-2.localdomain Received: by wam-2.localdomain (Postfix, from userid 1001) id D9B5738172; Sun, 9 May 2021 22:35:01 -0400 (EDT) From: root@wam-2.localdomain (Cron Daemon) To: sinton@wam-2.localdomain Subject: Cron ~/symlinks/TEAM1F/metin/apiv4.sh 1f > /dev/null MIME-Version: 1.0 Content-Type: text/plain; charset=UTF-8 Content-Transfer-Encoding: 8bit X-Cron-Env: X-Cron-Env: X-Cron-Env: X-Cron-Env: Message-Id: <20210510023501.D9B5738172@wam-2.localdomain> Date: Sun, 9 May 2021 22:35:01 -0400 (EDT) % Total % Received % Xferd Average Speed Time Time Time Current Dload Upload Total Spent Left Speed 0 0 0 0 0 0 0 0 --:--:-- --:--:-- --:--:-- 0 100 391 100 391 0 0 3871 0 --:--:-- --:--:-- --:--:-- 3871 From sinton@wam-2.localdomain Sun May 9 22:36:01 2021 Return-Path: X-Original-To: sinton Delivered-To: sinton@wam-2.localdomain Received: by wam-2.localdomain (Postfix, from userid 1001) id F11AE38EF1; Sun, 9 May 2021 22:36:01 -0400 (EDT) From: root@wam-2.localdomain (Cron Daemon) To: sinton@wam-2.localdomain Subject: Cron ~/symlinks/TEAM99/ogoakinitchka2.sh 99 0.05 > /dev/null MIME-Version: 1.0 Content-Type: text/plain; charset=UTF-8 Content-Transfer-Encoding: 8bit X-Cron-Env: X-Cron-Env: X-Cron-Env: X-Cron-Env: Message-Id: <20210510023601.F11AE38EF1@wam-2.localdomain> Date: Sun, 9 May 2021 22:36:01 -0400 (EDT) /bin/sh: 1: /home/sinton/symlinks/TEAM99/ogoakinitchka2.sh: not found From sinton@wam-2.localdomain Sun May 9 22:36:02 2021 Return-Path: X-Original-To: sinton Delivered-To: sinton@wam-2.localdomain Received: by wam-2.localdomain (Postfix, from userid 1001) id 117FA38EF1; Sun, 9 May 2021 22:36:02 -0400 (EDT) From: root@wam-2.localdomain (Cron Daemon) To: sinton@wam-2.localdomain Subject: Cron ~/symlinks/TEAM1F/metin/apiv4.sh 1f > /dev/null MIME-Version: 1.0 Content-Type: text/plain; charset=UTF-8 Content-Transfer-Encoding: 8bit X-Cron-Env: X-Cron-Env: X-Cron-Env: X-Cron-Env: Message-Id: <20210510023602.117FA38EF1@wam-2.localdomain> Date: Sun, 9 May 2021 22:36:02 -0400 (EDT) % Total % Received % Xferd Average Speed Time Time Time Current Dload Upload Total Spent Left Speed 0 0 0 0 0 0 0 0 --:--:-- --:--:-- --:--:-- 0 100 392 100 392 0 0 7259 0 --:--:-- --:--:-- --:--:-- 7259 From sinton@wam-2.localdomain Sun May 9 22:37:01 2021 Return-Path: X-Original-To: sinton Delivered-To: sinton@wam-2.localdomain Received: by wam-2.localdomain (Postfix, from userid 1001) id 4A11238EF9; Sun, 9 May 2021 22:37:01 -0400 (EDT) From: root@wam-2.localdomain (Cron Daemon) To: sinton@wam-2.localdomain Subject: Cron ~/symlinks/TEAM99/ogoakinitchka2.sh 99 0.05 > /dev/null MIME-Version: 1.0 Content-Type: text/plain; charset=UTF-8 Content-Transfer-Encoding: 8bit X-Cron-Env: X-Cron-Env: X-Cron-Env: X-Cron-Env: Message-Id: <20210510023701.4A11238EF9@wam-2.localdomain> Date: Sun, 9 May 2021 22:37:01 -0400 (EDT) /bin/sh: 1: /home/sinton/symlinks/TEAM99/ogoakinitchka2.sh: not found From sinton@wam-2.localdomain Sun May 9 22:37:01 2021 Return-Path: X-Original-To: sinton Delivered-To: sinton@wam-2.localdomain Received: by wam-2.localdomain (Postfix, from userid 1001) id 54A3938EF9; Sun, 9 May 2021 22:37:01 -0400 (EDT) From: root@wam-2.localdomain (Cron Daemon) To: sinton@wam-2.localdomain Subject: Cron ~/symlinks/TEAM1F/metin/apiv4.sh 1f > /dev/null MIME-Version: 1.0 Content-Type: text/plain; charset=UTF-8 Content-Transfer-Encoding: 8bit X-Cron-Env: X-Cron-Env: X-Cron-Env: X-Cron-Env: Message-Id: <20210510023701.54A3938EF9@wam-2.localdomain> Date: Sun, 9 May 2021 22:37:01 -0400 (EDT) % Total % Received % Xferd Average Speed Time Time Time Current Dload Upload Total Spent Left Speed 0 0 0 0 0 0 0 0 --:--:-- --:--:-- --:--:-- 0 100 391 100 391 0 0 5666 0 --:--:-- --:--:-- --:--:-- 5666 From sinton@wam-2.localdomain Sun May 9 22:38:01 2021 Return-Path: X-Original-To: sinton Delivered-To: sinton@wam-2.localdomain Received: by wam-2.localdomain (Postfix, from userid 1001) id 888FA38F2B; Sun, 9 May 2021 22:38:01 -0400 (EDT) From: root@wam-2.localdomain (Cron Daemon) To: sinton@wam-2.localdomain Subject: Cron ~/symlinks/TEAM99/ogoakinitchka2.sh 99 0.05 > /dev/null MIME-Version: 1.0 Content-Type: text/plain; charset=UTF-8 Content-Transfer-Encoding: 8bit X-Cron-Env: X-Cron-Env: X-Cron-Env: X-Cron-Env: Message-Id: <20210510023801.888FA38F2B@wam-2.localdomain> Date: Sun, 9 May 2021 22:38:01 -0400 (EDT) /bin/sh: 1: /home/sinton/symlinks/TEAM99/ogoakinitchka2.sh: not found From sinton@wam-2.localdomain Sun May 9 22:38:01 2021 Return-Path: X-Original-To: sinton Delivered-To: sinton@wam-2.localdomain Received: by wam-2.localdomain (Postfix, from userid 1001) id 9BAC238F2B; Sun, 9 May 2021 22:38:01 -0400 (EDT) From: root@wam-2.localdomain (Cron Daemon) To: sinton@wam-2.localdomain Subject: Cron ~/symlinks/TEAM1F/metin/apiv4.sh 1f > /dev/null MIME-Version: 1.0 Content-Type: text/plain; charset=UTF-8 Content-Transfer-Encoding: 8bit X-Cron-Env: X-Cron-Env: X-Cron-Env: X-Cron-Env: Message-Id: <20210510023801.9BAC238F2B@wam-2.localdomain> Date: Sun, 9 May 2021 22:38:01 -0400 (EDT) % Total % Received % Xferd Average Speed Time Time Time Current Dload Upload Total Spent Left Speed 0 0 0 0 0 0 0 0 --:--:-- --:--:-- --:--:-- 0 100 391 100 391 0 0 6627 0 --:--:-- --:--:-- --:--:-- 6627 From sinton@wam-2.localdomain Sun May 9 22:39:01 2021 Return-Path: X-Original-To: sinton Delivered-To: sinton@wam-2.localdomain Received: by wam-2.localdomain (Postfix, from userid 1001) id D3CCB38EF9; Sun, 9 May 2021 22:39:01 -0400 (EDT) From: root@wam-2.localdomain (Cron Daemon) To: sinton@wam-2.localdomain Subject: Cron ~/symlinks/TEAM99/ogoakinitchka2.sh 99 0.05 > /dev/null MIME-Version: 1.0 Content-Type: text/plain; charset=UTF-8 Content-Transfer-Encoding: 8bit X-Cron-Env: X-Cron-Env: X-Cron-Env: X-Cron-Env: Message-Id: <20210510023901.D3CCB38EF9@wam-2.localdomain> Date: Sun, 9 May 2021 22:39:01 -0400 (EDT) /bin/sh: 1: /home/sinton/symlinks/TEAM99/ogoakinitchka2.sh: not found From sinton@wam-2.localdomain Sun May 9 22:39:01 2021 Return-Path: X-Original-To: sinton Delivered-To: sinton@wam-2.localdomain Received: by wam-2.localdomain (Postfix, from userid 1001) id E53A338EFC; Sun, 9 May 2021 22:39:01 -0400 (EDT) From: root@wam-2.localdomain (Cron Daemon) To: sinton@wam-2.localdomain Subject: Cron ~/symlinks/TEAM1F/metin/apiv4.sh 1f > /dev/null MIME-Version: 1.0 Content-Type: text/plain; charset=UTF-8 Content-Transfer-Encoding: 8bit X-Cron-Env: X-Cron-Env: X-Cron-Env: X-Cron-Env: Message-Id: <20210510023901.E53A338EFC@wam-2.localdomain> Date: Sun, 9 May 2021 22:39:01 -0400 (EDT) % Total % Received % Xferd Average Speed Time Time Time Current Dload Upload Total Spent Left Speed 0 0 0 0 0 0 0 0 --:--:-- --:--:-- --:--:-- 0 0 0 0 0 0 0 0 0 --:--:-- --:--:-- --:--:-- 0 100 392 100 392 0 0 5025 0 --:--:-- --:--:-- --:--:-- 4962 From sinton@wam-2.localdomain Sun May 9 22:40:01 2021 Return-Path: X-Original-To: sinton Delivered-To: sinton@wam-2.localdomain Received: by wam-2.localdomain (Postfix, from userid 1001) id D9E6B38F2D; Sun, 9 May 2021 22:40:01 -0400 (EDT) From: root@wam-2.localdomain (Cron Daemon) To: sinton@wam-2.localdomain Subject: Cron ~/symlinks/TEAM99/ogoakinitchka2.sh 99 0.05 > /dev/null MIME-Version: 1.0 Content-Type: text/plain; charset=UTF-8 Content-Transfer-Encoding: 8bit X-Cron-Env: X-Cron-Env: X-Cron-Env: X-Cron-Env: Message-Id: <20210510024001.D9E6B38F2D@wam-2.localdomain> Date: Sun, 9 May 2021 22:40:01 -0400 (EDT) /bin/sh: 1: /home/sinton/symlinks/TEAM99/ogoakinitchka2.sh: not found From sinton@wam-2.localdomain Sun May 9 22:40:01 2021 Return-Path: X-Original-To: sinton Delivered-To: sinton@wam-2.localdomain Received: by wam-2.localdomain (Postfix, from userid 1001) id EF6B138F2D; Sun, 9 May 2021 22:40:01 -0400 (EDT) From: root@wam-2.localdomain (Cron Daemon) To: sinton@wam-2.localdomain Subject: Cron ~/symlinks/TEAM1F/metin/apiv4.sh 1f > /dev/null MIME-Version: 1.0 Content-Type: text/plain; charset=UTF-8 Content-Transfer-Encoding: 8bit X-Cron-Env: X-Cron-Env: X-Cron-Env: X-Cron-Env: Message-Id: <20210510024001.EF6B138F2D@wam-2.localdomain> Date: Sun, 9 May 2021 22:40:01 -0400 (EDT) % Total % Received % Xferd Average Speed Time Time Time Current Dload Upload Total Spent Left Speed 0 0 0 0 0 0 0 0 --:--:-- --:--:-- --:--:-- 0 100 391 100 391 0 0 4296 0 --:--:-- --:--:-- --:--:-- 4296 From sinton@wam-2.localdomain Sun May 9 22:41:02 2021 Return-Path: X-Original-To: sinton Delivered-To: sinton@wam-2.localdomain Received: by wam-2.localdomain (Postfix, from userid 1001) id 4051638F34; Sun, 9 May 2021 22:41:02 -0400 (EDT) From: root@wam-2.localdomain (Cron Daemon) To: sinton@wam-2.localdomain Subject: Cron ~/symlinks/TEAM99/ogoakinitchka2.sh 99 0.05 > /dev/null MIME-Version: 1.0 Content-Type: text/plain; charset=UTF-8 Content-Transfer-Encoding: 8bit X-Cron-Env: X-Cron-Env: X-Cron-Env: X-Cron-Env: Message-Id: <20210510024102.4051638F34@wam-2.localdomain> Date: Sun, 9 May 2021 22:41:02 -0400 (EDT) /bin/sh: 1: /home/sinton/symlinks/TEAM99/ogoakinitchka2.sh: not found From sinton@wam-2.localdomain Sun May 9 22:41:02 2021 Return-Path: X-Original-To: sinton Delivered-To: sinton@wam-2.localdomain Received: by wam-2.localdomain (Postfix, from userid 1001) id 4E63438F34; Sun, 9 May 2021 22:41:02 -0400 (EDT) From: root@wam-2.localdomain (Cron Daemon) To: sinton@wam-2.localdomain Subject: Cron ~/symlinks/TEAM1F/metin/apiv4.sh 1f > /dev/null MIME-Version: 1.0 Content-Type: text/plain; charset=UTF-8 Content-Transfer-Encoding: 8bit X-Cron-Env: X-Cron-Env: X-Cron-Env: X-Cron-Env: Message-Id: <20210510024102.4E63438F34@wam-2.localdomain> Date: Sun, 9 May 2021 22:41:02 -0400 (EDT) % Total % Received % Xferd Average Speed Time Time Time Current Dload Upload Total Spent Left Speed 0 0 0 0 0 0 0 0 --:--:-- --:--:-- --:--:-- 0 100 392 100 392 0 0 6322 0 --:--:-- --:--:-- --:--:-- 6644 From sinton@wam-2.localdomain Sun May 9 22:42:01 2021 Return-Path: X-Original-To: sinton Delivered-To: sinton@wam-2.localdomain Received: by wam-2.localdomain (Postfix, from userid 1001) id 7BA2538F30; Sun, 9 May 2021 22:42:01 -0400 (EDT) From: root@wam-2.localdomain (Cron Daemon) To: sinton@wam-2.localdomain Subject: Cron ~/symlinks/TEAM99/ogoakinitchka2.sh 99 0.05 > /dev/null MIME-Version: 1.0 Content-Type: text/plain; charset=UTF-8 Content-Transfer-Encoding: 8bit X-Cron-Env: X-Cron-Env: X-Cron-Env: X-Cron-Env: Message-Id: <20210510024201.7BA2538F30@wam-2.localdomain> Date: Sun, 9 May 2021 22:42:01 -0400 (EDT) /bin/sh: 1: /home/sinton/symlinks/TEAM99/ogoakinitchka2.sh: not found From sinton@wam-2.localdomain Sun May 9 22:42:01 2021 Return-Path: X-Original-To: sinton Delivered-To: sinton@wam-2.localdomain Received: by wam-2.localdomain (Postfix, from userid 1001) id 9A34238F30; Sun, 9 May 2021 22:42:01 -0400 (EDT) From: root@wam-2.localdomain (Cron Daemon) To: sinton@wam-2.localdomain Subject: Cron ~/symlinks/TEAM1F/metin/apiv4.sh 1f > /dev/null MIME-Version: 1.0 Content-Type: text/plain; charset=UTF-8 Content-Transfer-Encoding: 8bit X-Cron-Env: X-Cron-Env: X-Cron-Env: X-Cron-Env: Message-Id: <20210510024201.9A34238F30@wam-2.localdomain> Date: Sun, 9 May 2021 22:42:01 -0400 (EDT) % Total % Received % Xferd Average Speed Time Time Time Current Dload Upload Total Spent Left Speed 0 0 0 0 0 0 0 0 --:--:-- --:--:-- --:--:-- 0 100 391 100 391 0 0 5144 0 --:--:-- --:--:-- --:--:-- 5144 From sinton@wam-2.localdomain Sun May 9 22:43:01 2021 Return-Path: X-Original-To: sinton Delivered-To: sinton@wam-2.localdomain Received: by wam-2.localdomain (Postfix, from userid 1001) id C714938F3A; Sun, 9 May 2021 22:43:01 -0400 (EDT) From: root@wam-2.localdomain (Cron Daemon) To: sinton@wam-2.localdomain Subject: Cron ~/symlinks/TEAM99/ogoakinitchka2.sh 99 0.05 > /dev/null MIME-Version: 1.0 Content-Type: text/plain; charset=UTF-8 Content-Transfer-Encoding: 8bit X-Cron-Env: X-Cron-Env: X-Cron-Env: X-Cron-Env: Message-Id: <20210510024301.C714938F3A@wam-2.localdomain> Date: Sun, 9 May 2021 22:43:01 -0400 (EDT) /bin/sh: 1: /home/sinton/symlinks/TEAM99/ogoakinitchka2.sh: not found From sinton@wam-2.localdomain Sun May 9 22:43:01 2021 Return-Path: X-Original-To: sinton Delivered-To: sinton@wam-2.localdomain Received: by wam-2.localdomain (Postfix, from userid 1001) id D9CBE38F3A; Sun, 9 May 2021 22:43:01 -0400 (EDT) From: root@wam-2.localdomain (Cron Daemon) To: sinton@wam-2.localdomain Subject: Cron ~/symlinks/TEAM1F/metin/apiv4.sh 1f > /dev/null MIME-Version: 1.0 Content-Type: text/plain; charset=UTF-8 Content-Transfer-Encoding: 8bit X-Cron-Env: X-Cron-Env: X-Cron-Env: X-Cron-Env: Message-Id: <20210510024301.D9CBE38F3A@wam-2.localdomain> Date: Sun, 9 May 2021 22:43:01 -0400 (EDT) % Total % Received % Xferd Average Speed Time Time Time Current Dload Upload Total Spent Left Speed 0 0 0 0 0 0 0 0 --:--:-- --:--:-- --:--:-- 0 100 392 100 392 0 0 5681 0 --:--:-- --:--:-- --:--:-- 5600 100 392 100 392 0 0 5600 0 --:--:-- --:--:-- --:--:-- 5600 From sinton@wam-2.localdomain Sun May 9 22:44:01 2021 Return-Path: X-Original-To: sinton Delivered-To: sinton@wam-2.localdomain Received: by wam-2.localdomain (Postfix, from userid 1001) id 5CE7E38F30; Sun, 9 May 2021 22:44:01 -0400 (EDT) From: root@wam-2.localdomain (Cron Daemon) To: sinton@wam-2.localdomain Subject: Cron ~/symlinks/TEAM99/ogoakinitchka2.sh 99 0.05 > /dev/null MIME-Version: 1.0 Content-Type: text/plain; charset=UTF-8 Content-Transfer-Encoding: 8bit X-Cron-Env: X-Cron-Env: X-Cron-Env: X-Cron-Env: Message-Id: <20210510024401.5CE7E38F30@wam-2.localdomain> Date: Sun, 9 May 2021 22:44:01 -0400 (EDT) /bin/sh: 1: /home/sinton/symlinks/TEAM99/ogoakinitchka2.sh: not found From sinton@wam-2.localdomain Sun May 9 22:44:01 2021 Return-Path: X-Original-To: sinton Delivered-To: sinton@wam-2.localdomain Received: by wam-2.localdomain (Postfix, from userid 1001) id 69AF738F30; Sun, 9 May 2021 22:44:01 -0400 (EDT) From: root@wam-2.localdomain (Cron Daemon) To: sinton@wam-2.localdomain Subject: Cron ~/symlinks/TEAM1F/metin/apiv4.sh 1f > /dev/null MIME-Version: 1.0 Content-Type: text/plain; charset=UTF-8 Content-Transfer-Encoding: 8bit X-Cron-Env: X-Cron-Env: X-Cron-Env: X-Cron-Env: Message-Id: <20210510024401.69AF738F30@wam-2.localdomain> Date: Sun, 9 May 2021 22:44:01 -0400 (EDT) % Total % Received % Xferd Average Speed Time Time Time Current Dload Upload Total Spent Left Speed 0 0 0 0 0 0 0 0 --:--:-- --:--:-- --:--:-- 0 100 392 100 392 0 0 6644 0 --:--:-- --:--:-- --:--:-- 6644 From sinton@wam-2.localdomain Sun May 9 22:45:01 2021 Return-Path: X-Original-To: sinton Delivered-To: sinton@wam-2.localdomain Received: by wam-2.localdomain (Postfix, from userid 1001) id 9AA9538EC4; Sun, 9 May 2021 22:45:01 -0400 (EDT) From: root@wam-2.localdomain (Cron Daemon) To: sinton@wam-2.localdomain Subject: Cron ~/symlinks/TEAM99/ogoakinitchka2.sh 99 0.05 > /dev/null MIME-Version: 1.0 Content-Type: text/plain; charset=UTF-8 Content-Transfer-Encoding: 8bit X-Cron-Env: X-Cron-Env: X-Cron-Env: X-Cron-Env: Message-Id: <20210510024501.9AA9538EC4@wam-2.localdomain> Date: Sun, 9 May 2021 22:45:01 -0400 (EDT) /bin/sh: 1: /home/sinton/symlinks/TEAM99/ogoakinitchka2.sh: not found From sinton@wam-2.localdomain Sun May 9 22:45:01 2021 Return-Path: X-Original-To: sinton Delivered-To: sinton@wam-2.localdomain Received: by wam-2.localdomain (Postfix, from userid 1001) id B89BC38EC4; Sun, 9 May 2021 22:45:01 -0400 (EDT) From: root@wam-2.localdomain (Cron Daemon) To: sinton@wam-2.localdomain Subject: Cron ~/symlinks/TEAM1F/metin/apiv4.sh 1f > /dev/null MIME-Version: 1.0 Content-Type: text/plain; charset=UTF-8 Content-Transfer-Encoding: 8bit X-Cron-Env: X-Cron-Env: X-Cron-Env: X-Cron-Env: Message-Id: <20210510024501.B89BC38EC4@wam-2.localdomain> Date: Sun, 9 May 2021 22:45:01 -0400 (EDT) % Total % Received % Xferd Average Speed Time Time Time Current Dload Upload Total Spent Left Speed 0 0 0 0 0 0 0 0 --:--:-- --:--:-- --:--:-- 0 100 392 100 392 0 0 4307 0 --:--:-- --:--:-- --:--:-- 4307 From sinton@wam-2.localdomain Sun May 9 22:46:02 2021 Return-Path: X-Original-To: sinton Delivered-To: sinton@wam-2.localdomain Received: by wam-2.localdomain (Postfix, from userid 1001) id 073C838F64; Sun, 9 May 2021 22:46:02 -0400 (EDT) From: root@wam-2.localdomain (Cron Daemon) To: sinton@wam-2.localdomain Subject: Cron ~/symlinks/TEAM99/ogoakinitchka2.sh 99 0.05 > /dev/null MIME-Version: 1.0 Content-Type: text/plain; charset=UTF-8 Content-Transfer-Encoding: 8bit X-Cron-Env: X-Cron-Env: X-Cron-Env: X-Cron-Env: Message-Id: <20210510024602.073C838F64@wam-2.localdomain> Date: Sun, 9 May 2021 22:46:02 -0400 (EDT) /bin/sh: 1: /home/sinton/symlinks/TEAM99/ogoakinitchka2.sh: not found From sinton@wam-2.localdomain Sun May 9 22:46:02 2021 Return-Path: X-Original-To: sinton Delivered-To: sinton@wam-2.localdomain Received: by wam-2.localdomain (Postfix, from userid 1001) id 1B35A38F62; Sun, 9 May 2021 22:46:02 -0400 (EDT) From: root@wam-2.localdomain (Cron Daemon) To: sinton@wam-2.localdomain Subject: Cron ~/symlinks/TEAM1F/metin/apiv4.sh 1f > /dev/null MIME-Version: 1.0 Content-Type: text/plain; charset=UTF-8 Content-Transfer-Encoding: 8bit X-Cron-Env: X-Cron-Env: X-Cron-Env: X-Cron-Env: Message-Id: <20210510024602.1B35A38F62@wam-2.localdomain> Date: Sun, 9 May 2021 22:46:02 -0400 (EDT) % Total % Received % Xferd Average Speed Time Time Time Current Dload Upload Total Spent Left Speed 0 0 0 0 0 0 0 0 --:--:-- --:--:-- --:--:-- 0 100 391 100 391 0 0 4887 0 --:--:-- --:--:-- --:--:-- 4887 From sinton@wam-2.localdomain Sun May 9 22:46:13 2021 Return-Path: X-Original-To: sinton Delivered-To: sinton@wam-2.localdomain Received: by wam-2.localdomain (Postfix, from userid 1001) id 3624038F69; Sun, 9 May 2021 22:46:13 -0400 (EDT) From: root@wam-2.localdomain (Cron Daemon) To: sinton@wam-2.localdomain Subject: Cron bash -c "sleep $[RANDOM%14]m" ; ~/symlinks/TEAM8/fcst/startfcst.pl 8 > /dev/null MIME-Version: 1.0 Content-Type: text/plain; charset=UTF-8 Content-Transfer-Encoding: 8bit X-Cron-Env: X-Cron-Env: X-Cron-Env: X-Cron-Env: Message-Id: <20210510024613.3624038F69@wam-2.localdomain> Date: Sun, 9 May 2021 22:46:13 -0400 (EDT) # CSV_XS ERROR: 2034 - EIF - Loose unescaped quote @ rec 0 pos 29 field 1 From sinton@wam-2.localdomain Sun May 9 22:47:01 2021 Return-Path: X-Original-To: sinton Delivered-To: sinton@wam-2.localdomain Received: by wam-2.localdomain (Postfix, from userid 1001) id 6B7C13859E; Sun, 9 May 2021 22:47:01 -0400 (EDT) From: root@wam-2.localdomain (Cron Daemon) To: sinton@wam-2.localdomain Subject: Cron ~/symlinks/TEAM99/ogoakinitchka2.sh 99 0.05 > /dev/null MIME-Version: 1.0 Content-Type: text/plain; charset=UTF-8 Content-Transfer-Encoding: 8bit X-Cron-Env: X-Cron-Env: X-Cron-Env: X-Cron-Env: Message-Id: <20210510024701.6B7C13859E@wam-2.localdomain> Date: Sun, 9 May 2021 22:47:01 -0400 (EDT) /bin/sh: 1: /home/sinton/symlinks/TEAM99/ogoakinitchka2.sh: not found From sinton@wam-2.localdomain Sun May 9 22:47:01 2021 Return-Path: X-Original-To: sinton Delivered-To: sinton@wam-2.localdomain Received: by wam-2.localdomain (Postfix, from userid 1001) id 80BFC3859E; Sun, 9 May 2021 22:47:01 -0400 (EDT) From: root@wam-2.localdomain (Cron Daemon) To: sinton@wam-2.localdomain Subject: Cron ~/symlinks/TEAM1F/metin/apiv4.sh 1f > /dev/null MIME-Version: 1.0 Content-Type: text/plain; charset=UTF-8 Content-Transfer-Encoding: 8bit X-Cron-Env: X-Cron-Env: X-Cron-Env: X-Cron-Env: Message-Id: <20210510024701.80BFC3859E@wam-2.localdomain> Date: Sun, 9 May 2021 22:47:01 -0400 (EDT) % Total % Received % Xferd Average Speed Time Time Time Current Dload Upload Total Spent Left Speed 0 0 0 0 0 0 0 0 --:--:-- --:--:-- --:--:-- 0 100 391 100 391 0 0 7377 0 --:--:-- --:--:-- --:--:-- 7377 From sinton@wam-2.localdomain Sun May 9 22:48:01 2021 Return-Path: X-Original-To: sinton Delivered-To: sinton@wam-2.localdomain Received: by wam-2.localdomain (Postfix, from userid 1001) id D542838EA2; Sun, 9 May 2021 22:48:01 -0400 (EDT) From: root@wam-2.localdomain (Cron Daemon) To: sinton@wam-2.localdomain Subject: Cron ~/symlinks/TEAM99/ogoakinitchka2.sh 99 0.05 > /dev/null MIME-Version: 1.0 Content-Type: text/plain; charset=UTF-8 Content-Transfer-Encoding: 8bit X-Cron-Env: X-Cron-Env: X-Cron-Env: X-Cron-Env: Message-Id: <20210510024801.D542838EA2@wam-2.localdomain> Date: Sun, 9 May 2021 22:48:01 -0400 (EDT) /bin/sh: 1: /home/sinton/symlinks/TEAM99/ogoakinitchka2.sh: not found From sinton@wam-2.localdomain Sun May 9 22:48:01 2021 Return-Path: X-Original-To: sinton Delivered-To: sinton@wam-2.localdomain Received: by wam-2.localdomain (Postfix, from userid 1001) id E96D238E9B; Sun, 9 May 2021 22:48:01 -0400 (EDT) From: root@wam-2.localdomain (Cron Daemon) To: sinton@wam-2.localdomain Subject: Cron ~/symlinks/TEAM1F/metin/apiv4.sh 1f > /dev/null MIME-Version: 1.0 Content-Type: text/plain; charset=UTF-8 Content-Transfer-Encoding: 8bit X-Cron-Env: X-Cron-Env: X-Cron-Env: X-Cron-Env: Message-Id: <20210510024801.E96D238E9B@wam-2.localdomain> Date: Sun, 9 May 2021 22:48:01 -0400 (EDT) % Total % Received % Xferd Average Speed Time Time Time Current Dload Upload Total Spent Left Speed 0 0 0 0 0 0 0 0 --:--:-- --:--:-- --:--:-- 0 0 0 0 0 0 0 0 0 --:--:-- --:--:-- --:--:-- 0 100 392 100 392 0 0 5297 0 --:--:-- --:--:-- --:--:-- 5226 From sinton@wam-2.localdomain Sun May 9 22:48:14 2021 Return-Path: X-Original-To: sinton Delivered-To: sinton@wam-2.localdomain Received: by wam-2.localdomain (Postfix, from userid 1001) id 5EC2E38F72; Sun, 9 May 2021 22:48:14 -0400 (EDT) From: root@wam-2.localdomain (Cron Daemon) To: sinton@wam-2.localdomain Subject: Cron bash -c "sleep $[RANDOM%14]m" ; ~/symlinks/TEAM1/fcst/startfcst.pl 1 > /dev/null MIME-Version: 1.0 Content-Type: text/plain; charset=UTF-8 Content-Transfer-Encoding: 8bit X-Cron-Env: X-Cron-Env: X-Cron-Env: X-Cron-Env: Message-Id: <20210510024814.5EC2E38F72@wam-2.localdomain> Date: Sun, 9 May 2021 22:48:14 -0400 (EDT) # CSV_XS ERROR: 2034 - EIF - Loose unescaped quote @ rec 0 pos 29 field 1 From sinton@wam-2.localdomain Sun May 9 22:48:14 2021 Return-Path: X-Original-To: sinton Delivered-To: sinton@wam-2.localdomain Received: by wam-2.localdomain (Postfix, from userid 1001) id EDE5638F6F; Sun, 9 May 2021 22:48:14 -0400 (EDT) From: root@wam-2.localdomain (Cron Daemon) To: sinton@wam-2.localdomain Subject: Cron bash -c "sleep $[RANDOM%14]m" ; ~/symlinks/TEAM2/fcst/startfcst.pl 2 > /dev/null MIME-Version: 1.0 Content-Type: text/plain; charset=UTF-8 Content-Transfer-Encoding: 8bit X-Cron-Env: X-Cron-Env: X-Cron-Env: X-Cron-Env: Message-Id: <20210510024814.EDE5638F6F@wam-2.localdomain> Date: Sun, 9 May 2021 22:48:14 -0400 (EDT) # CSV_XS ERROR: 2034 - EIF - Loose unescaped quote @ rec 0 pos 29 field 1 From sinton@wam-2.localdomain Sun May 9 22:49:02 2021 Return-Path: X-Original-To: sinton Delivered-To: sinton@wam-2.localdomain Received: by wam-2.localdomain (Postfix, from userid 1001) id 307F138F76; Sun, 9 May 2021 22:49:02 -0400 (EDT) From: root@wam-2.localdomain (Cron Daemon) To: sinton@wam-2.localdomain Subject: Cron ~/symlinks/TEAM99/ogoakinitchka2.sh 99 0.05 > /dev/null MIME-Version: 1.0 Content-Type: text/plain; charset=UTF-8 Content-Transfer-Encoding: 8bit X-Cron-Env: X-Cron-Env: X-Cron-Env: X-Cron-Env: Message-Id: <20210510024902.307F138F76@wam-2.localdomain> Date: Sun, 9 May 2021 22:49:02 -0400 (EDT) /bin/sh: 1: /home/sinton/symlinks/TEAM99/ogoakinitchka2.sh: not found From sinton@wam-2.localdomain Sun May 9 22:49:02 2021 Return-Path: X-Original-To: sinton Delivered-To: sinton@wam-2.localdomain Received: by wam-2.localdomain (Postfix, from userid 1001) id 48ADE38F75; Sun, 9 May 2021 22:49:02 -0400 (EDT) From: root@wam-2.localdomain (Cron Daemon) To: sinton@wam-2.localdomain Subject: Cron ~/symlinks/TEAM1F/metin/apiv4.sh 1f > /dev/null MIME-Version: 1.0 Content-Type: text/plain; charset=UTF-8 Content-Transfer-Encoding: 8bit X-Cron-Env: X-Cron-Env: X-Cron-Env: X-Cron-Env: Message-Id: <20210510024902.48ADE38F75@wam-2.localdomain> Date: Sun, 9 May 2021 22:49:02 -0400 (EDT) % Total % Received % Xferd Average Speed Time Time Time Current Dload Upload Total Spent Left Speed 0 0 0 0 0 0 0 0 --:--:-- --:--:-- --:--:-- 0 100 390 100 390 0 0 4193 0 --:--:-- --:--:-- --:--:-- 4193 From sinton@wam-2.localdomain Sun May 9 22:50:01 2021 Return-Path: X-Original-To: sinton Delivered-To: sinton@wam-2.localdomain Received: by wam-2.localdomain (Postfix, from userid 1001) id 79E6B38F76; Sun, 9 May 2021 22:50:01 -0400 (EDT) From: root@wam-2.localdomain (Cron Daemon) To: sinton@wam-2.localdomain Subject: Cron ~/symlinks/TEAM99/ogoakinitchka2.sh 99 0.05 > /dev/null MIME-Version: 1.0 Content-Type: text/plain; charset=UTF-8 Content-Transfer-Encoding: 8bit X-Cron-Env: X-Cron-Env: X-Cron-Env: X-Cron-Env: Message-Id: <20210510025001.79E6B38F76@wam-2.localdomain> Date: Sun, 9 May 2021 22:50:01 -0400 (EDT) /bin/sh: 1: /home/sinton/symlinks/TEAM99/ogoakinitchka2.sh: not found From sinton@wam-2.localdomain Sun May 9 22:50:01 2021 Return-Path: X-Original-To: sinton Delivered-To: sinton@wam-2.localdomain Received: by wam-2.localdomain (Postfix, from userid 1001) id 8DE5E38F5E; Sun, 9 May 2021 22:50:01 -0400 (EDT) From: root@wam-2.localdomain (Cron Daemon) To: sinton@wam-2.localdomain Subject: Cron ~/symlinks/TEAM1F/metin/apiv4.sh 1f > /dev/null MIME-Version: 1.0 Content-Type: text/plain; charset=UTF-8 Content-Transfer-Encoding: 8bit X-Cron-Env: X-Cron-Env: X-Cron-Env: X-Cron-Env: Message-Id: <20210510025001.8DE5E38F5E@wam-2.localdomain> Date: Sun, 9 May 2021 22:50:01 -0400 (EDT) % Total % Received % Xferd Average Speed Time Time Time Current Dload Upload Total Spent Left Speed 0 0 0 0 0 0 0 0 --:--:-- --:--:-- --:--:-- 0 100 391 100 391 0 0 6109 0 --:--:-- --:--:-- --:--:-- 6109 From sinton@wam-2.localdomain Sun May 9 22:51:01 2021 Return-Path: X-Original-To: sinton Delivered-To: sinton@wam-2.localdomain Received: by wam-2.localdomain (Postfix, from userid 1001) id B0A9938F6F; Sun, 9 May 2021 22:51:01 -0400 (EDT) From: root@wam-2.localdomain (Cron Daemon) To: sinton@wam-2.localdomain Subject: Cron ~/symlinks/TEAM99/ogoakinitchka2.sh 99 0.05 > /dev/null MIME-Version: 1.0 Content-Type: text/plain; charset=UTF-8 Content-Transfer-Encoding: 8bit X-Cron-Env: X-Cron-Env: X-Cron-Env: X-Cron-Env: Message-Id: <20210510025101.B0A9938F6F@wam-2.localdomain> Date: Sun, 9 May 2021 22:51:01 -0400 (EDT) /bin/sh: 1: /home/sinton/symlinks/TEAM99/ogoakinitchka2.sh: not found From sinton@wam-2.localdomain Sun May 9 22:51:01 2021 Return-Path: X-Original-To: sinton Delivered-To: sinton@wam-2.localdomain Received: by wam-2.localdomain (Postfix, from userid 1001) id C34EE38F3D; Sun, 9 May 2021 22:51:01 -0400 (EDT) From: root@wam-2.localdomain (Cron Daemon) To: sinton@wam-2.localdomain Subject: Cron ~/symlinks/TEAM1F/metin/apiv4.sh 1f > /dev/null MIME-Version: 1.0 Content-Type: text/plain; charset=UTF-8 Content-Transfer-Encoding: 8bit X-Cron-Env: X-Cron-Env: X-Cron-Env: X-Cron-Env: Message-Id: <20210510025101.C34EE38F3D@wam-2.localdomain> Date: Sun, 9 May 2021 22:51:01 -0400 (EDT) % Total % Received % Xferd Average Speed Time Time Time Current Dload Upload Total Spent Left Speed 0 0 0 0 0 0 0 0 --:--:-- --:--:-- --:--:-- 0 100 392 100 392 0 0 8521 0 --:--:-- --:--:-- --:--:-- 8521 From sinton@wam-2.localdomain Sun May 9 22:52:02 2021 Return-Path: X-Original-To: sinton Delivered-To: sinton@wam-2.localdomain Received: by wam-2.localdomain (Postfix, from userid 1001) id F308F38F76; Sun, 9 May 2021 22:52:01 -0400 (EDT) From: root@wam-2.localdomain (Cron Daemon) To: sinton@wam-2.localdomain Subject: Cron ~/symlinks/TEAM99/ogoakinitchka2.sh 99 0.05 > /dev/null MIME-Version: 1.0 Content-Type: text/plain; charset=UTF-8 Content-Transfer-Encoding: 8bit X-Cron-Env: X-Cron-Env: X-Cron-Env: X-Cron-Env: Message-Id: <20210510025201.F308F38F76@wam-2.localdomain> Date: Sun, 9 May 2021 22:52:01 -0400 (EDT) /bin/sh: 1: /home/sinton/symlinks/TEAM99/ogoakinitchka2.sh: not found From sinton@wam-2.localdomain Sun May 9 22:52:02 2021 Return-Path: X-Original-To: sinton Delivered-To: sinton@wam-2.localdomain Received: by wam-2.localdomain (Postfix, from userid 1001) id 1A0FD38F76; Sun, 9 May 2021 22:52:02 -0400 (EDT) From: root@wam-2.localdomain (Cron Daemon) To: sinton@wam-2.localdomain Subject: Cron ~/symlinks/TEAM1F/metin/apiv4.sh 1f > /dev/null MIME-Version: 1.0 Content-Type: text/plain; charset=UTF-8 Content-Transfer-Encoding: 8bit X-Cron-Env: X-Cron-Env: X-Cron-Env: X-Cron-Env: Message-Id: <20210510025202.1A0FD38F76@wam-2.localdomain> Date: Sun, 9 May 2021 22:52:02 -0400 (EDT) % Total % Received % Xferd Average Speed Time Time Time Current Dload Upload Total Spent Left Speed 0 0 0 0 0 0 0 0 --:--:-- --:--:-- --:--:-- 0 100 391 100 391 0 0 3723 0 --:--:-- --:--:-- --:--:-- 3723 From sinton@wam-2.localdomain Sun May 9 22:53:01 2021 Return-Path: X-Original-To: sinton Delivered-To: sinton@wam-2.localdomain Received: by wam-2.localdomain (Postfix, from userid 1001) id 4A38138F6A; Sun, 9 May 2021 22:53:01 -0400 (EDT) From: root@wam-2.localdomain (Cron Daemon) To: sinton@wam-2.localdomain Subject: Cron ~/symlinks/TEAM99/ogoakinitchka2.sh 99 0.05 > /dev/null MIME-Version: 1.0 Content-Type: text/plain; charset=UTF-8 Content-Transfer-Encoding: 8bit X-Cron-Env: X-Cron-Env: X-Cron-Env: X-Cron-Env: Message-Id: <20210510025301.4A38138F6A@wam-2.localdomain> Date: Sun, 9 May 2021 22:53:01 -0400 (EDT) /bin/sh: 1: /home/sinton/symlinks/TEAM99/ogoakinitchka2.sh: not found From sinton@wam-2.localdomain Sun May 9 22:53:01 2021 Return-Path: X-Original-To: sinton Delivered-To: sinton@wam-2.localdomain Received: by wam-2.localdomain (Postfix, from userid 1001) id 5C0EE38F6A; Sun, 9 May 2021 22:53:01 -0400 (EDT) From: root@wam-2.localdomain (Cron Daemon) To: sinton@wam-2.localdomain Subject: Cron ~/symlinks/TEAM1F/metin/apiv4.sh 1f > /dev/null MIME-Version: 1.0 Content-Type: text/plain; charset=UTF-8 Content-Transfer-Encoding: 8bit X-Cron-Env: X-Cron-Env: X-Cron-Env: X-Cron-Env: Message-Id: <20210510025301.5C0EE38F6A@wam-2.localdomain> Date: Sun, 9 May 2021 22:53:01 -0400 (EDT) % Total % Received % Xferd Average Speed Time Time Time Current Dload Upload Total Spent Left Speed 0 0 0 0 0 0 0 0 --:--:-- --:--:-- --:--:-- 0 100 393 100 393 0 0 5779 0 --:--:-- --:--:-- --:--:-- 5779 From sinton@wam-2.localdomain Sun May 9 22:54:01 2021 Return-Path: X-Original-To: sinton Delivered-To: sinton@wam-2.localdomain Received: by wam-2.localdomain (Postfix, from userid 1001) id 8F25638F6B; Sun, 9 May 2021 22:54:01 -0400 (EDT) From: root@wam-2.localdomain (Cron Daemon) To: sinton@wam-2.localdomain Subject: Cron ~/symlinks/TEAM99/ogoakinitchka2.sh 99 0.05 > /dev/null MIME-Version: 1.0 Content-Type: text/plain; charset=UTF-8 Content-Transfer-Encoding: 8bit X-Cron-Env: X-Cron-Env: X-Cron-Env: X-Cron-Env: Message-Id: <20210510025401.8F25638F6B@wam-2.localdomain> Date: Sun, 9 May 2021 22:54:01 -0400 (EDT) /bin/sh: 1: /home/sinton/symlinks/TEAM99/ogoakinitchka2.sh: not found From sinton@wam-2.localdomain Sun May 9 22:54:01 2021 Return-Path: X-Original-To: sinton Delivered-To: sinton@wam-2.localdomain Received: by wam-2.localdomain (Postfix, from userid 1001) id B7E2138F6B; Sun, 9 May 2021 22:54:01 -0400 (EDT) From: root@wam-2.localdomain (Cron Daemon) To: sinton@wam-2.localdomain Subject: Cron ~/symlinks/TEAM1F/metin/apiv4.sh 1f > /dev/null MIME-Version: 1.0 Content-Type: text/plain; charset=UTF-8 Content-Transfer-Encoding: 8bit X-Cron-Env: X-Cron-Env: X-Cron-Env: X-Cron-Env: Message-Id: <20210510025401.B7E2138F6B@wam-2.localdomain> Date: Sun, 9 May 2021 22:54:01 -0400 (EDT) % Total % Received % Xferd Average Speed Time Time Time Current Dload Upload Total Spent Left Speed 0 0 0 0 0 0 0 0 --:--:-- --:--:-- --:--:-- 0 100 389 100 389 0 0 2758 0 --:--:-- --:--:-- --:--:-- 2758 From sinton@wam-2.localdomain Sun May 9 22:55:01 2021 Return-Path: X-Original-To: sinton Delivered-To: sinton@wam-2.localdomain Received: by wam-2.localdomain (Postfix, from userid 1001) id E81EE38F7E; Sun, 9 May 2021 22:55:01 -0400 (EDT) From: root@wam-2.localdomain (Cron Daemon) To: sinton@wam-2.localdomain Subject: Cron ~/symlinks/TEAM99/ogoakinitchka2.sh 99 0.05 > /dev/null MIME-Version: 1.0 Content-Type: text/plain; charset=UTF-8 Content-Transfer-Encoding: 8bit X-Cron-Env: X-Cron-Env: X-Cron-Env: X-Cron-Env: Message-Id: <20210510025501.E81EE38F7E@wam-2.localdomain> Date: Sun, 9 May 2021 22:55:01 -0400 (EDT) /bin/sh: 1: /home/sinton/symlinks/TEAM99/ogoakinitchka2.sh: not found From sinton@wam-2.localdomain Sun May 9 22:55:02 2021 Return-Path: X-Original-To: sinton Delivered-To: sinton@wam-2.localdomain Received: by wam-2.localdomain (Postfix, from userid 1001) id 07FCB38F7E; Sun, 9 May 2021 22:55:02 -0400 (EDT) From: root@wam-2.localdomain (Cron Daemon) To: sinton@wam-2.localdomain Subject: Cron ~/symlinks/TEAM1F/metin/apiv4.sh 1f > /dev/null MIME-Version: 1.0 Content-Type: text/plain; charset=UTF-8 Content-Transfer-Encoding: 8bit X-Cron-Env: X-Cron-Env: X-Cron-Env: X-Cron-Env: Message-Id: <20210510025502.07FCB38F7E@wam-2.localdomain> Date: Sun, 9 May 2021 22:55:02 -0400 (EDT) % Total % Received % Xferd Average Speed Time Time Time Current Dload Upload Total Spent Left Speed 0 0 0 0 0 0 0 0 --:--:-- --:--:-- --:--:-- 0 100 393 100 393 0 0 7277 0 --:--:-- --:--:-- --:--:-- 7415 From sinton@wam-2.localdomain Sun May 9 22:56:01 2021 Return-Path: X-Original-To: sinton Delivered-To: sinton@wam-2.localdomain Received: by wam-2.localdomain (Postfix, from userid 1001) id 4B11838F76; Sun, 9 May 2021 22:56:01 -0400 (EDT) From: root@wam-2.localdomain (Cron Daemon) To: sinton@wam-2.localdomain Subject: Cron ~/symlinks/TEAM99/ogoakinitchka2.sh 99 0.05 > /dev/null MIME-Version: 1.0 Content-Type: text/plain; charset=UTF-8 Content-Transfer-Encoding: 8bit X-Cron-Env: X-Cron-Env: X-Cron-Env: X-Cron-Env: Message-Id: <20210510025601.4B11838F76@wam-2.localdomain> Date: Sun, 9 May 2021 22:56:01 -0400 (EDT) /bin/sh: 1: /home/sinton/symlinks/TEAM99/ogoakinitchka2.sh: not found From sinton@wam-2.localdomain Sun May 9 22:56:01 2021 Return-Path: X-Original-To: sinton Delivered-To: sinton@wam-2.localdomain Received: by wam-2.localdomain (Postfix, from userid 1001) id 6088F38F76; Sun, 9 May 2021 22:56:01 -0400 (EDT) From: root@wam-2.localdomain (Cron Daemon) To: sinton@wam-2.localdomain Subject: Cron ~/symlinks/TEAM1F/metin/apiv4.sh 1f > /dev/null MIME-Version: 1.0 Content-Type: text/plain; charset=UTF-8 Content-Transfer-Encoding: 8bit X-Cron-Env: X-Cron-Env: X-Cron-Env: X-Cron-Env: Message-Id: <20210510025601.6088F38F76@wam-2.localdomain> Date: Sun, 9 May 2021 22:56:01 -0400 (EDT) % Total % Received % Xferd Average Speed Time Time Time Current Dload Upload Total Spent Left Speed 0 0 0 0 0 0 0 0 --:--:-- --:--:-- --:--:-- 0 100 393 100 393 0 0 4366 0 --:--:-- --:--:-- --:--:-- 4415 From sinton@wam-2.localdomain Sun May 9 22:57:01 2021 Return-Path: X-Original-To: sinton Delivered-To: sinton@wam-2.localdomain Received: by wam-2.localdomain (Postfix, from userid 1001) id 8F55238F8A; Sun, 9 May 2021 22:57:01 -0400 (EDT) From: root@wam-2.localdomain (Cron Daemon) To: sinton@wam-2.localdomain Subject: Cron ~/symlinks/TEAM99/ogoakinitchka2.sh 99 0.05 > /dev/null MIME-Version: 1.0 Content-Type: text/plain; charset=UTF-8 Content-Transfer-Encoding: 8bit X-Cron-Env: X-Cron-Env: X-Cron-Env: X-Cron-Env: Message-Id: <20210510025701.8F55238F8A@wam-2.localdomain> Date: Sun, 9 May 2021 22:57:01 -0400 (EDT) /bin/sh: 1: /home/sinton/symlinks/TEAM99/ogoakinitchka2.sh: not found From sinton@wam-2.localdomain Sun May 9 22:57:01 2021 Return-Path: X-Original-To: sinton Delivered-To: sinton@wam-2.localdomain Received: by wam-2.localdomain (Postfix, from userid 1001) id AAC1238F8A; Sun, 9 May 2021 22:57:01 -0400 (EDT) From: root@wam-2.localdomain (Cron Daemon) To: sinton@wam-2.localdomain Subject: Cron ~/symlinks/TEAM1F/metin/apiv4.sh 1f > /dev/null MIME-Version: 1.0 Content-Type: text/plain; charset=UTF-8 Content-Transfer-Encoding: 8bit X-Cron-Env: X-Cron-Env: X-Cron-Env: X-Cron-Env: Message-Id: <20210510025701.AAC1238F8A@wam-2.localdomain> Date: Sun, 9 May 2021 22:57:01 -0400 (EDT) % Total % Received % Xferd Average Speed Time Time Time Current Dload Upload Total Spent Left Speed 0 0 0 0 0 0 0 0 --:--:-- --:--:-- --:--:-- 0 100 393 100 393 0 0 2807 0 --:--:-- --:--:-- --:--:-- 3672 From sinton@wam-2.localdomain Sun May 9 22:58:01 2021 Return-Path: X-Original-To: sinton Delivered-To: sinton@wam-2.localdomain Received: by wam-2.localdomain (Postfix, from userid 1001) id D49C538F7E; Sun, 9 May 2021 22:58:01 -0400 (EDT) From: root@wam-2.localdomain (Cron Daemon) To: sinton@wam-2.localdomain Subject: Cron ~/symlinks/TEAM99/ogoakinitchka2.sh 99 0.05 > /dev/null MIME-Version: 1.0 Content-Type: text/plain; charset=UTF-8 Content-Transfer-Encoding: 8bit X-Cron-Env: X-Cron-Env: X-Cron-Env: X-Cron-Env: Message-Id: <20210510025801.D49C538F7E@wam-2.localdomain> Date: Sun, 9 May 2021 22:58:01 -0400 (EDT) /bin/sh: 1: /home/sinton/symlinks/TEAM99/ogoakinitchka2.sh: not found From sinton@wam-2.localdomain Sun May 9 22:58:01 2021 Return-Path: X-Original-To: sinton Delivered-To: sinton@wam-2.localdomain Received: by wam-2.localdomain (Postfix, from userid 1001) id E7B9538F7E; Sun, 9 May 2021 22:58:01 -0400 (EDT) From: root@wam-2.localdomain (Cron Daemon) To: sinton@wam-2.localdomain Subject: Cron ~/symlinks/TEAM1F/metin/apiv4.sh 1f > /dev/null MIME-Version: 1.0 Content-Type: text/plain; charset=UTF-8 Content-Transfer-Encoding: 8bit X-Cron-Env: X-Cron-Env: X-Cron-Env: X-Cron-Env: Message-Id: <20210510025801.E7B9538F7E@wam-2.localdomain> Date: Sun, 9 May 2021 22:58:01 -0400 (EDT) % Total % Received % Xferd Average Speed Time Time Time Current Dload Upload Total Spent Left Speed 0 0 0 0 0 0 0 0 --:--:-- --:--:-- --:--:-- 0 0 0 0 0 0 0 0 0 --:--:-- --:--:-- --:--:-- 0 100 393 100 393 0 0 5240 0 --:--:-- --:--:-- --:--:-- 5171 From sinton@wam-2.localdomain Sun May 9 22:59:02 2021 Return-Path: X-Original-To: sinton Delivered-To: sinton@wam-2.localdomain Received: by wam-2.localdomain (Postfix, from userid 1001) id 25AB938F93; Sun, 9 May 2021 22:59:02 -0400 (EDT) From: root@wam-2.localdomain (Cron Daemon) To: sinton@wam-2.localdomain Subject: Cron ~/symlinks/TEAM99/ogoakinitchka2.sh 99 0.05 > /dev/null MIME-Version: 1.0 Content-Type: text/plain; charset=UTF-8 Content-Transfer-Encoding: 8bit X-Cron-Env: X-Cron-Env: X-Cron-Env: X-Cron-Env: Message-Id: <20210510025902.25AB938F93@wam-2.localdomain> Date: Sun, 9 May 2021 22:59:02 -0400 (EDT) /bin/sh: 1: /home/sinton/symlinks/TEAM99/ogoakinitchka2.sh: not found From sinton@wam-2.localdomain Sun May 9 22:59:02 2021 Return-Path: X-Original-To: sinton Delivered-To: sinton@wam-2.localdomain Received: by wam-2.localdomain (Postfix, from userid 1001) id 37EF338F93; Sun, 9 May 2021 22:59:02 -0400 (EDT) From: root@wam-2.localdomain (Cron Daemon) To: sinton@wam-2.localdomain Subject: Cron ~/symlinks/TEAM1F/metin/apiv4.sh 1f > /dev/null MIME-Version: 1.0 Content-Type: text/plain; charset=UTF-8 Content-Transfer-Encoding: 8bit X-Cron-Env: X-Cron-Env: X-Cron-Env: X-Cron-Env: Message-Id: <20210510025902.37EF338F93@wam-2.localdomain> Date: Sun, 9 May 2021 22:59:02 -0400 (EDT) % Total % Received % Xferd Average Speed Time Time Time Current Dload Upload Total Spent Left Speed 0 0 0 0 0 0 0 0 --:--:-- --:--:-- --:--:-- 0 100 393 100 393 0 0 4010 0 --:--:-- --:--:-- --:--:-- 4051 From sinton@wam-2.localdomain Sun May 9 23:00:01 2021 Return-Path: X-Original-To: sinton Delivered-To: sinton@wam-2.localdomain Received: by wam-2.localdomain (Postfix, from userid 1001) id 695F938E96; Sun, 9 May 2021 23:00:01 -0400 (EDT) From: root@wam-2.localdomain (Cron Daemon) To: sinton@wam-2.localdomain Subject: Cron ~/symlinks/TEAM99/ogoakinitchka2.sh 99 0.05 > /dev/null MIME-Version: 1.0 Content-Type: text/plain; charset=UTF-8 Content-Transfer-Encoding: 8bit X-Cron-Env: X-Cron-Env: X-Cron-Env: X-Cron-Env: Message-Id: <20210510030001.695F938E96@wam-2.localdomain> Date: Sun, 9 May 2021 23:00:01 -0400 (EDT) /bin/sh: 1: /home/sinton/symlinks/TEAM99/ogoakinitchka2.sh: not found From sinton@wam-2.localdomain Sun May 9 23:00:01 2021 Return-Path: X-Original-To: sinton Delivered-To: sinton@wam-2.localdomain Received: by wam-2.localdomain (Postfix, from userid 1001) id 7F95638E96; Sun, 9 May 2021 23:00:01 -0400 (EDT) From: root@wam-2.localdomain (Cron Daemon) To: sinton@wam-2.localdomain Subject: Cron ~/symlinks/TEAM1F/metin/apiv4.sh 1f > /dev/null MIME-Version: 1.0 Content-Type: text/plain; charset=UTF-8 Content-Transfer-Encoding: 8bit X-Cron-Env: X-Cron-Env: X-Cron-Env: X-Cron-Env: Message-Id: <20210510030001.7F95638E96@wam-2.localdomain> Date: Sun, 9 May 2021 23:00:01 -0400 (EDT) % Total % Received % Xferd Average Speed Time Time Time Current Dload Upload Total Spent Left Speed 0 0 0 0 0 0 0 0 --:--:-- --:--:-- --:--:-- 0 100 392 100 392 0 0 5297 0 --:--:-- --:--:-- --:--:-- 5297 From sinton@wam-2.localdomain Sun May 9 23:01:01 2021 Return-Path: X-Original-To: sinton Delivered-To: sinton@wam-2.localdomain Received: by wam-2.localdomain (Postfix, from userid 1001) id C068438F20; Sun, 9 May 2021 23:01:01 -0400 (EDT) From: root@wam-2.localdomain (Cron Daemon) To: sinton@wam-2.localdomain Subject: Cron ~/symlinks/TEAM99/ogoakinitchka2.sh 99 0.05 > /dev/null MIME-Version: 1.0 Content-Type: text/plain; charset=UTF-8 Content-Transfer-Encoding: 8bit X-Cron-Env: X-Cron-Env: X-Cron-Env: X-Cron-Env: Message-Id: <20210510030101.C068438F20@wam-2.localdomain> Date: Sun, 9 May 2021 23:01:01 -0400 (EDT) /bin/sh: 1: /home/sinton/symlinks/TEAM99/ogoakinitchka2.sh: not found From sinton@wam-2.localdomain Sun May 9 23:01:01 2021 Return-Path: X-Original-To: sinton Delivered-To: sinton@wam-2.localdomain Received: by wam-2.localdomain (Postfix, from userid 1001) id E217638F20; Sun, 9 May 2021 23:01:01 -0400 (EDT) From: root@wam-2.localdomain (Cron Daemon) To: sinton@wam-2.localdomain Subject: Cron ~/symlinks/TEAM1F/metin/apiv4.sh 1f > /dev/null MIME-Version: 1.0 Content-Type: text/plain; charset=UTF-8 Content-Transfer-Encoding: 8bit X-Cron-Env: X-Cron-Env: X-Cron-Env: X-Cron-Env: Message-Id: <20210510030101.E217638F20@wam-2.localdomain> Date: Sun, 9 May 2021 23:01:01 -0400 (EDT) % Total % Received % Xferd Average Speed Time Time Time Current Dload Upload Total Spent Left Speed 0 0 0 0 0 0 0 0 --:--:-- --:--:-- --:--:-- 0 100 393 100 393 0 0 4366 0 --:--:-- --:--:-- --:--:-- 4318 100 393 100 393 0 0 4318 0 --:--:-- --:--:-- --:--:-- 4318 From sinton@wam-2.localdomain Sun May 9 23:02:02 2021 Return-Path: X-Original-To: sinton Delivered-To: sinton@wam-2.localdomain Received: by wam-2.localdomain (Postfix, from userid 1001) id 253E238597; Sun, 9 May 2021 23:02:02 -0400 (EDT) From: root@wam-2.localdomain (Cron Daemon) To: sinton@wam-2.localdomain Subject: Cron ~/symlinks/TEAM99/ogoakinitchka2.sh 99 0.05 > /dev/null MIME-Version: 1.0 Content-Type: text/plain; charset=UTF-8 Content-Transfer-Encoding: 8bit X-Cron-Env: X-Cron-Env: X-Cron-Env: X-Cron-Env: Message-Id: <20210510030202.253E238597@wam-2.localdomain> Date: Sun, 9 May 2021 23:02:02 -0400 (EDT) /bin/sh: 1: /home/sinton/symlinks/TEAM99/ogoakinitchka2.sh: not found From sinton@wam-2.localdomain Sun May 9 23:02:02 2021 Return-Path: X-Original-To: sinton Delivered-To: sinton@wam-2.localdomain Received: by wam-2.localdomain (Postfix, from userid 1001) id 3C52E38FA6; Sun, 9 May 2021 23:02:02 -0400 (EDT) From: root@wam-2.localdomain (Cron Daemon) To: sinton@wam-2.localdomain Subject: Cron ~/symlinks/TEAM1F/metin/apiv4.sh 1f > /dev/null MIME-Version: 1.0 Content-Type: text/plain; charset=UTF-8 Content-Transfer-Encoding: 8bit X-Cron-Env: X-Cron-Env: X-Cron-Env: X-Cron-Env: Message-Id: <20210510030202.3C52E38FA6@wam-2.localdomain> Date: Sun, 9 May 2021 23:02:02 -0400 (EDT) % Total % Received % Xferd Average Speed Time Time Time Current Dload Upload Total Spent Left Speed 0 0 0 0 0 0 0 0 --:--:-- --:--:-- --:--:-- 0 100 392 100 392 0 0 6322 0 --:--:-- --:--:-- --:--:-- 6322 From sinton@wam-2.localdomain Sun May 9 23:02:11 2021 Return-Path: X-Original-To: sinton Delivered-To: sinton@wam-2.localdomain Received: by wam-2.localdomain (Postfix, from userid 1001) id B7A7938F9F; Sun, 9 May 2021 23:02:11 -0400 (EDT) From: root@wam-2.localdomain (Cron Daemon) To: sinton@wam-2.localdomain Subject: Cron bash -c "sleep $[RANDOM%30]m" ; ~/symlinks/TEAM1/fcst/startfcstclim.sh 1 > /dev/null MIME-Version: 1.0 Content-Type: text/plain; charset=UTF-8 Content-Transfer-Encoding: 8bit X-Cron-Env: X-Cron-Env: X-Cron-Env: X-Cron-Env: Message-Id: <20210510030211.B7A7938F9F@wam-2.localdomain> Date: Sun, 9 May 2021 23:02:11 -0400 (EDT) % Total % Received % Xferd Average Speed Time Time Time Current Dload Upload Total Spent Left Speed 0 0 0 0 0 0 0 0 --:--:-- --:--:-- --:--:-- 0 100 41761 100 41761 0 0 185k 0 --:--:-- --:--:-- --:--:-- 185k From sinton@wam-2.localdomain Sun May 9 23:03:01 2021 Return-Path: X-Original-To: sinton Delivered-To: sinton@wam-2.localdomain Received: by wam-2.localdomain (Postfix, from userid 1001) id ECFC238FA5; Sun, 9 May 2021 23:03:01 -0400 (EDT) From: root@wam-2.localdomain (Cron Daemon) To: sinton@wam-2.localdomain Subject: Cron ~/symlinks/TEAM99/ogoakinitchka2.sh 99 0.05 > /dev/null MIME-Version: 1.0 Content-Type: text/plain; charset=UTF-8 Content-Transfer-Encoding: 8bit X-Cron-Env: X-Cron-Env: X-Cron-Env: X-Cron-Env: Message-Id: <20210510030301.ECFC238FA5@wam-2.localdomain> Date: Sun, 9 May 2021 23:03:01 -0400 (EDT) /bin/sh: 1: /home/sinton/symlinks/TEAM99/ogoakinitchka2.sh: not found From sinton@wam-2.localdomain Sun May 9 23:03:02 2021 Return-Path: X-Original-To: sinton Delivered-To: sinton@wam-2.localdomain Received: by wam-2.localdomain (Postfix, from userid 1001) id 0629A38FA5; Sun, 9 May 2021 23:03:02 -0400 (EDT) From: root@wam-2.localdomain (Cron Daemon) To: sinton@wam-2.localdomain Subject: Cron ~/symlinks/TEAM1F/metin/apiv4.sh 1f > /dev/null MIME-Version: 1.0 Content-Type: text/plain; charset=UTF-8 Content-Transfer-Encoding: 8bit X-Cron-Env: X-Cron-Env: X-Cron-Env: X-Cron-Env: Message-Id: <20210510030302.0629A38FA5@wam-2.localdomain> Date: Sun, 9 May 2021 23:03:02 -0400 (EDT) % Total % Received % Xferd Average Speed Time Time Time Current Dload Upload Total Spent Left Speed 0 0 0 0 0 0 0 0 --:--:-- --:--:-- --:--:-- 0 100 392 100 392 0 0 5369 0 --:--:-- --:--:-- --:--:-- 5369 From sinton@wam-2.localdomain Sun May 9 23:04:01 2021 Return-Path: X-Original-To: sinton Delivered-To: sinton@wam-2.localdomain Received: by wam-2.localdomain (Postfix, from userid 1001) id 3203438F9C; Sun, 9 May 2021 23:04:01 -0400 (EDT) From: root@wam-2.localdomain (Cron Daemon) To: sinton@wam-2.localdomain Subject: Cron ~/symlinks/TEAM99/ogoakinitchka2.sh 99 0.05 > /dev/null MIME-Version: 1.0 Content-Type: text/plain; charset=UTF-8 Content-Transfer-Encoding: 8bit X-Cron-Env: X-Cron-Env: X-Cron-Env: X-Cron-Env: Message-Id: <20210510030401.3203438F9C@wam-2.localdomain> Date: Sun, 9 May 2021 23:04:01 -0400 (EDT) /bin/sh: 1: /home/sinton/symlinks/TEAM99/ogoakinitchka2.sh: not found From sinton@wam-2.localdomain Sun May 9 23:04:01 2021 Return-Path: X-Original-To: sinton Delivered-To: sinton@wam-2.localdomain Received: by wam-2.localdomain (Postfix, from userid 1001) id 4989438F9C; Sun, 9 May 2021 23:04:01 -0400 (EDT) From: root@wam-2.localdomain (Cron Daemon) To: sinton@wam-2.localdomain Subject: Cron ~/symlinks/TEAM1F/metin/apiv4.sh 1f > /dev/null MIME-Version: 1.0 Content-Type: text/plain; charset=UTF-8 Content-Transfer-Encoding: 8bit X-Cron-Env: X-Cron-Env: X-Cron-Env: X-Cron-Env: Message-Id: <20210510030401.4989438F9C@wam-2.localdomain> Date: Sun, 9 May 2021 23:04:01 -0400 (EDT) % Total % Received % Xferd Average Speed Time Time Time Current Dload Upload Total Spent Left Speed 0 0 0 0 0 0 0 0 --:--:-- --:--:-- --:--:-- 0 100 393 100 393 0 0 6046 0 --:--:-- --:--:-- --:--:-- 6046 From sinton@wam-2.localdomain Sun May 9 23:05:01 2021 Return-Path: X-Original-To: sinton Delivered-To: sinton@wam-2.localdomain Received: by wam-2.localdomain (Postfix, from userid 1001) id 7EFE238FB3; Sun, 9 May 2021 23:05:01 -0400 (EDT) From: root@wam-2.localdomain (Cron Daemon) To: sinton@wam-2.localdomain Subject: Cron ~/symlinks/TEAM99/ogoakinitchka2.sh 99 0.05 > /dev/null MIME-Version: 1.0 Content-Type: text/plain; charset=UTF-8 Content-Transfer-Encoding: 8bit X-Cron-Env: X-Cron-Env: X-Cron-Env: X-Cron-Env: Message-Id: <20210510030501.7EFE238FB3@wam-2.localdomain> Date: Sun, 9 May 2021 23:05:01 -0400 (EDT) /bin/sh: 1: /home/sinton/symlinks/TEAM99/ogoakinitchka2.sh: not found From sinton@wam-2.localdomain Sun May 9 23:05:01 2021 Return-Path: X-Original-To: sinton Delivered-To: sinton@wam-2.localdomain Received: by wam-2.localdomain (Postfix, from userid 1001) id 90EE238FB3; Sun, 9 May 2021 23:05:01 -0400 (EDT) From: root@wam-2.localdomain (Cron Daemon) To: sinton@wam-2.localdomain Subject: Cron ~/symlinks/TEAM1F/metin/apiv4.sh 1f > /dev/null MIME-Version: 1.0 Content-Type: text/plain; charset=UTF-8 Content-Transfer-Encoding: 8bit X-Cron-Env: X-Cron-Env: X-Cron-Env: X-Cron-Env: Message-Id: <20210510030501.90EE238FB3@wam-2.localdomain> Date: Sun, 9 May 2021 23:05:01 -0400 (EDT) % Total % Received % Xferd Average Speed Time Time Time Current Dload Upload Total Spent Left Speed 0 0 0 0 0 0 0 0 --:--:-- --:--:-- --:--:-- 0 100 392 100 392 0 0 4666 0 --:--:-- --:--:-- --:--:-- 4666 From sinton@wam-2.localdomain Sun May 9 23:06:01 2021 Return-Path: X-Original-To: sinton Delivered-To: sinton@wam-2.localdomain Received: by wam-2.localdomain (Postfix, from userid 1001) id D0BB738FCB; Sun, 9 May 2021 23:06:01 -0400 (EDT) From: root@wam-2.localdomain (Cron Daemon) To: sinton@wam-2.localdomain Subject: Cron ~/symlinks/TEAM99/ogoakinitchka2.sh 99 0.05 > /dev/null MIME-Version: 1.0 Content-Type: text/plain; charset=UTF-8 Content-Transfer-Encoding: 8bit X-Cron-Env: X-Cron-Env: X-Cron-Env: X-Cron-Env: Message-Id: <20210510030601.D0BB738FCB@wam-2.localdomain> Date: Sun, 9 May 2021 23:06:01 -0400 (EDT) /bin/sh: 1: /home/sinton/symlinks/TEAM99/ogoakinitchka2.sh: not found From sinton@wam-2.localdomain Sun May 9 23:06:02 2021 Return-Path: X-Original-To: sinton Delivered-To: sinton@wam-2.localdomain Received: by wam-2.localdomain (Postfix, from userid 1001) id 0F5D138FAA; Sun, 9 May 2021 23:06:02 -0400 (EDT) From: root@wam-2.localdomain (Cron Daemon) To: sinton@wam-2.localdomain Subject: Cron ~/symlinks/TEAM1F/metin/apiv4.sh 1f > /dev/null MIME-Version: 1.0 Content-Type: text/plain; charset=UTF-8 Content-Transfer-Encoding: 8bit X-Cron-Env: X-Cron-Env: X-Cron-Env: X-Cron-Env: Message-Id: <20210510030602.0F5D138FAA@wam-2.localdomain> Date: Sun, 9 May 2021 23:06:02 -0400 (EDT) % Total % Received % Xferd Average Speed Time Time Time Current Dload Upload Total Spent Left Speed 0 0 0 0 0 0 0 0 --:--:-- --:--:-- --:--:-- 0 0 0 0 0 0 0 0 0 --:--:-- --:--:-- --:--:-- 0 100 391 100 391 0 0 2047 0 --:--:-- --:--:-- --:--:-- 2036 From sinton@wam-2.localdomain Sun May 9 23:07:01 2021 Return-Path: X-Original-To: sinton Delivered-To: sinton@wam-2.localdomain Received: by wam-2.localdomain (Postfix, from userid 1001) id 40F1838FA5; Sun, 9 May 2021 23:07:01 -0400 (EDT) From: root@wam-2.localdomain (Cron Daemon) To: sinton@wam-2.localdomain Subject: Cron ~/symlinks/TEAM99/ogoakinitchka2.sh 99 0.05 > /dev/null MIME-Version: 1.0 Content-Type: text/plain; charset=UTF-8 Content-Transfer-Encoding: 8bit X-Cron-Env: X-Cron-Env: X-Cron-Env: X-Cron-Env: Message-Id: <20210510030701.40F1838FA5@wam-2.localdomain> Date: Sun, 9 May 2021 23:07:01 -0400 (EDT) /bin/sh: 1: /home/sinton/symlinks/TEAM99/ogoakinitchka2.sh: not found From sinton@wam-2.localdomain Sun May 9 23:07:01 2021 Return-Path: X-Original-To: sinton Delivered-To: sinton@wam-2.localdomain Received: by wam-2.localdomain (Postfix, from userid 1001) id 54B4A38FB3; Sun, 9 May 2021 23:07:01 -0400 (EDT) From: root@wam-2.localdomain (Cron Daemon) To: sinton@wam-2.localdomain Subject: Cron ~/symlinks/TEAM1F/metin/apiv4.sh 1f > /dev/null MIME-Version: 1.0 Content-Type: text/plain; charset=UTF-8 Content-Transfer-Encoding: 8bit X-Cron-Env: X-Cron-Env: X-Cron-Env: X-Cron-Env: Message-Id: <20210510030701.54B4A38FB3@wam-2.localdomain> Date: Sun, 9 May 2021 23:07:01 -0400 (EDT) % Total % Received % Xferd Average Speed Time Time Time Current Dload Upload Total Spent Left Speed 0 0 0 0 0 0 0 0 --:--:-- --:--:-- --:--:-- 0 100 393 100 393 0 0 7145 0 --:--:-- --:--:-- --:--:-- 7145 From sinton@wam-2.localdomain Sun May 9 23:08:01 2021 Return-Path: X-Original-To: sinton Delivered-To: sinton@wam-2.localdomain Received: by wam-2.localdomain (Postfix, from userid 1001) id 824DF38FBD; Sun, 9 May 2021 23:08:01 -0400 (EDT) From: root@wam-2.localdomain (Cron Daemon) To: sinton@wam-2.localdomain Subject: Cron ~/symlinks/TEAM99/ogoakinitchka2.sh 99 0.05 > /dev/null MIME-Version: 1.0 Content-Type: text/plain; charset=UTF-8 Content-Transfer-Encoding: 8bit X-Cron-Env: X-Cron-Env: X-Cron-Env: X-Cron-Env: Message-Id: <20210510030801.824DF38FBD@wam-2.localdomain> Date: Sun, 9 May 2021 23:08:01 -0400 (EDT) /bin/sh: 1: /home/sinton/symlinks/TEAM99/ogoakinitchka2.sh: not found From sinton@wam-2.localdomain Sun May 9 23:08:01 2021 Return-Path: X-Original-To: sinton Delivered-To: sinton@wam-2.localdomain Received: by wam-2.localdomain (Postfix, from userid 1001) id 96CF438FBD; Sun, 9 May 2021 23:08:01 -0400 (EDT) From: root@wam-2.localdomain (Cron Daemon) To: sinton@wam-2.localdomain Subject: Cron ~/symlinks/TEAM1F/metin/apiv4.sh 1f > /dev/null MIME-Version: 1.0 Content-Type: text/plain; charset=UTF-8 Content-Transfer-Encoding: 8bit X-Cron-Env: X-Cron-Env: X-Cron-Env: X-Cron-Env: Message-Id: <20210510030801.96CF438FBD@wam-2.localdomain> Date: Sun, 9 May 2021 23:08:01 -0400 (EDT) % Total % Received % Xferd Average Speed Time Time Time Current Dload Upload Total Spent Left Speed 0 0 0 0 0 0 0 0 --:--:-- --:--:-- --:--:-- 0 100 393 100 393 0 0 6238 0 --:--:-- --:--:-- --:--:-- 6238 From sinton@wam-2.localdomain Sun May 9 23:09:01 2021 Return-Path: X-Original-To: sinton Delivered-To: sinton@wam-2.localdomain Received: by wam-2.localdomain (Postfix, from userid 1001) id C39A938FC2; Sun, 9 May 2021 23:09:01 -0400 (EDT) From: root@wam-2.localdomain (Cron Daemon) To: sinton@wam-2.localdomain Subject: Cron ~/symlinks/TEAM99/ogoakinitchka2.sh 99 0.05 > /dev/null MIME-Version: 1.0 Content-Type: text/plain; charset=UTF-8 Content-Transfer-Encoding: 8bit X-Cron-Env: X-Cron-Env: X-Cron-Env: X-Cron-Env: Message-Id: <20210510030901.C39A938FC2@wam-2.localdomain> Date: Sun, 9 May 2021 23:09:01 -0400 (EDT) /bin/sh: 1: /home/sinton/symlinks/TEAM99/ogoakinitchka2.sh: not found From sinton@wam-2.localdomain Sun May 9 23:09:01 2021 Return-Path: X-Original-To: sinton Delivered-To: sinton@wam-2.localdomain Received: by wam-2.localdomain (Postfix, from userid 1001) id DDBEF38FC2; Sun, 9 May 2021 23:09:01 -0400 (EDT) From: root@wam-2.localdomain (Cron Daemon) To: sinton@wam-2.localdomain Subject: Cron ~/symlinks/TEAM1F/metin/apiv4.sh 1f > /dev/null MIME-Version: 1.0 Content-Type: text/plain; charset=UTF-8 Content-Transfer-Encoding: 8bit X-Cron-Env: X-Cron-Env: X-Cron-Env: X-Cron-Env: Message-Id: <20210510030901.DDBEF38FC2@wam-2.localdomain> Date: Sun, 9 May 2021 23:09:01 -0400 (EDT) % Total % Received % Xferd Average Speed Time Time Time Current Dload Upload Total Spent Left Speed 0 0 0 0 0 0 0 0 --:--:-- --:--:-- --:--:-- 0 100 393 100 393 0 0 3572 0 --:--:-- --:--:-- --:--:-- 3572 100 393 100 393 0 0 3572 0 --:--:-- --:--:-- --:--:-- 3540 From sinton@wam-2.localdomain Sun May 9 23:10:02 2021 Return-Path: X-Original-To: sinton Delivered-To: sinton@wam-2.localdomain Received: by wam-2.localdomain (Postfix, from userid 1001) id 253BC38FC5; Sun, 9 May 2021 23:10:02 -0400 (EDT) From: root@wam-2.localdomain (Cron Daemon) To: sinton@wam-2.localdomain Subject: Cron ~/symlinks/TEAM99/ogoakinitchka2.sh 99 0.05 > /dev/null MIME-Version: 1.0 Content-Type: text/plain; charset=UTF-8 Content-Transfer-Encoding: 8bit X-Cron-Env: X-Cron-Env: X-Cron-Env: X-Cron-Env: Message-Id: <20210510031002.253BC38FC5@wam-2.localdomain> Date: Sun, 9 May 2021 23:10:02 -0400 (EDT) /bin/sh: 1: /home/sinton/symlinks/TEAM99/ogoakinitchka2.sh: not found From sinton@wam-2.localdomain Sun May 9 23:10:02 2021 Return-Path: X-Original-To: sinton Delivered-To: sinton@wam-2.localdomain Received: by wam-2.localdomain (Postfix, from userid 1001) id 396C738FC5; Sun, 9 May 2021 23:10:02 -0400 (EDT) From: root@wam-2.localdomain (Cron Daemon) To: sinton@wam-2.localdomain Subject: Cron ~/symlinks/TEAM1F/metin/apiv4.sh 1f > /dev/null MIME-Version: 1.0 Content-Type: text/plain; charset=UTF-8 Content-Transfer-Encoding: 8bit X-Cron-Env: X-Cron-Env: X-Cron-Env: X-Cron-Env: Message-Id: <20210510031002.396C738FC5@wam-2.localdomain> Date: Sun, 9 May 2021 23:10:02 -0400 (EDT) % Total % Received % Xferd Average Speed Time Time Time Current Dload Upload Total Spent Left Speed 0 0 0 0 0 0 0 0 --:--:-- --:--:-- --:--:-- 0 100 393 100 393 0 0 7557 0 --:--:-- --:--:-- --:--:-- 7557 From sinton@wam-2.localdomain Sun May 9 23:11:01 2021 Return-Path: X-Original-To: sinton Delivered-To: sinton@wam-2.localdomain Received: by wam-2.localdomain (Postfix, from userid 1001) id 807DC38FB3; Sun, 9 May 2021 23:11:01 -0400 (EDT) From: root@wam-2.localdomain (Cron Daemon) To: sinton@wam-2.localdomain Subject: Cron ~/symlinks/TEAM99/ogoakinitchka2.sh 99 0.05 > /dev/null MIME-Version: 1.0 Content-Type: text/plain; charset=UTF-8 Content-Transfer-Encoding: 8bit X-Cron-Env: X-Cron-Env: X-Cron-Env: X-Cron-Env: Message-Id: <20210510031101.807DC38FB3@wam-2.localdomain> Date: Sun, 9 May 2021 23:11:01 -0400 (EDT) /bin/sh: 1: /home/sinton/symlinks/TEAM99/ogoakinitchka2.sh: not found From sinton@wam-2.localdomain Sun May 9 23:11:01 2021 Return-Path: X-Original-To: sinton Delivered-To: sinton@wam-2.localdomain Received: by wam-2.localdomain (Postfix, from userid 1001) id 92E6B38FCD; Sun, 9 May 2021 23:11:01 -0400 (EDT) From: root@wam-2.localdomain (Cron Daemon) To: sinton@wam-2.localdomain Subject: Cron ~/symlinks/TEAM1F/metin/apiv4.sh 1f > /dev/null MIME-Version: 1.0 Content-Type: text/plain; charset=UTF-8 Content-Transfer-Encoding: 8bit X-Cron-Env: X-Cron-Env: X-Cron-Env: X-Cron-Env: Message-Id: <20210510031101.92E6B38FCD@wam-2.localdomain> Date: Sun, 9 May 2021 23:11:01 -0400 (EDT) % Total % Received % Xferd Average Speed Time Time Time Current Dload Upload Total Spent Left Speed 0 0 0 0 0 0 0 0 --:--:-- --:--:-- --:--:-- 0 100 393 100 393 0 0 4974 0 --:--:-- --:--:-- --:--:-- 4974 From sinton@wam-2.localdomain Sun May 9 23:12:01 2021 Return-Path: X-Original-To: sinton Delivered-To: sinton@wam-2.localdomain Received: by wam-2.localdomain (Postfix, from userid 1001) id C238736E5D; Sun, 9 May 2021 23:12:01 -0400 (EDT) From: root@wam-2.localdomain (Cron Daemon) To: sinton@wam-2.localdomain Subject: Cron ~/symlinks/TEAM99/ogoakinitchka2.sh 99 0.05 > /dev/null MIME-Version: 1.0 Content-Type: text/plain; charset=UTF-8 Content-Transfer-Encoding: 8bit X-Cron-Env: X-Cron-Env: X-Cron-Env: X-Cron-Env: Message-Id: <20210510031201.C238736E5D@wam-2.localdomain> Date: Sun, 9 May 2021 23:12:01 -0400 (EDT) /bin/sh: 1: /home/sinton/symlinks/TEAM99/ogoakinitchka2.sh: not found From sinton@wam-2.localdomain Sun May 9 23:12:01 2021 Return-Path: X-Original-To: sinton Delivered-To: sinton@wam-2.localdomain Received: by wam-2.localdomain (Postfix, from userid 1001) id D88F336E5D; Sun, 9 May 2021 23:12:01 -0400 (EDT) From: root@wam-2.localdomain (Cron Daemon) To: sinton@wam-2.localdomain Subject: Cron ~/symlinks/TEAM1F/metin/apiv4.sh 1f > /dev/null MIME-Version: 1.0 Content-Type: text/plain; charset=UTF-8 Content-Transfer-Encoding: 8bit X-Cron-Env: X-Cron-Env: X-Cron-Env: X-Cron-Env: Message-Id: <20210510031201.D88F336E5D@wam-2.localdomain> Date: Sun, 9 May 2021 23:12:01 -0400 (EDT) % Total % Received % Xferd Average Speed Time Time Time Current Dload Upload Total Spent Left Speed 0 0 0 0 0 0 0 0 --:--:-- --:--:-- --:--:-- 0 100 393 100 393 0 0 7145 0 --:--:-- --:--:-- --:--:-- 7017 100 393 100 393 0 0 7145 0 --:--:-- --:--:-- --:--:-- 7017 From sinton@wam-2.localdomain Sun May 9 23:13:02 2021 Return-Path: X-Original-To: sinton Delivered-To: sinton@wam-2.localdomain Received: by wam-2.localdomain (Postfix, from userid 1001) id 17A2E38E96; Sun, 9 May 2021 23:13:02 -0400 (EDT) From: root@wam-2.localdomain (Cron Daemon) To: sinton@wam-2.localdomain Subject: Cron ~/symlinks/TEAM99/ogoakinitchka2.sh 99 0.05 > /dev/null MIME-Version: 1.0 Content-Type: text/plain; charset=UTF-8 Content-Transfer-Encoding: 8bit X-Cron-Env: X-Cron-Env: X-Cron-Env: X-Cron-Env: Message-Id: <20210510031302.17A2E38E96@wam-2.localdomain> Date: Sun, 9 May 2021 23:13:02 -0400 (EDT) /bin/sh: 1: /home/sinton/symlinks/TEAM99/ogoakinitchka2.sh: not found From sinton@wam-2.localdomain Sun May 9 23:13:02 2021 Return-Path: X-Original-To: sinton Delivered-To: sinton@wam-2.localdomain Received: by wam-2.localdomain (Postfix, from userid 1001) id 3102B38E96; Sun, 9 May 2021 23:13:02 -0400 (EDT) From: root@wam-2.localdomain (Cron Daemon) To: sinton@wam-2.localdomain Subject: Cron ~/symlinks/TEAM1F/metin/apiv4.sh 1f > /dev/null MIME-Version: 1.0 Content-Type: text/plain; charset=UTF-8 Content-Transfer-Encoding: 8bit X-Cron-Env: X-Cron-Env: X-Cron-Env: X-Cron-Env: Message-Id: <20210510031302.3102B38E96@wam-2.localdomain> Date: Sun, 9 May 2021 23:13:02 -0400 (EDT) % Total % Received % Xferd Average Speed Time Time Time Current Dload Upload Total Spent Left Speed 0 0 0 0 0 0 0 0 --:--:-- --:--:-- --:--:-- 0 100 393 100 393 0 0 4734 0 --:--:-- --:--:-- --:--:-- 4734 From sinton@wam-2.localdomain Sun May 9 23:14:01 2021 Return-Path: X-Original-To: sinton Delivered-To: sinton@wam-2.localdomain Received: by wam-2.localdomain (Postfix, from userid 1001) id 62A0938FF7; Sun, 9 May 2021 23:14:01 -0400 (EDT) From: root@wam-2.localdomain (Cron Daemon) To: sinton@wam-2.localdomain Subject: Cron ~/symlinks/TEAM99/ogoakinitchka2.sh 99 0.05 > /dev/null MIME-Version: 1.0 Content-Type: text/plain; charset=UTF-8 Content-Transfer-Encoding: 8bit X-Cron-Env: X-Cron-Env: X-Cron-Env: X-Cron-Env: Message-Id: <20210510031401.62A0938FF7@wam-2.localdomain> Date: Sun, 9 May 2021 23:14:01 -0400 (EDT) /bin/sh: 1: /home/sinton/symlinks/TEAM99/ogoakinitchka2.sh: not found From sinton@wam-2.localdomain Sun May 9 23:14:01 2021 Return-Path: X-Original-To: sinton Delivered-To: sinton@wam-2.localdomain Received: by wam-2.localdomain (Postfix, from userid 1001) id 8278138FF4; Sun, 9 May 2021 23:14:01 -0400 (EDT) From: root@wam-2.localdomain (Cron Daemon) To: sinton@wam-2.localdomain Subject: Cron ~/symlinks/TEAM1F/metin/apiv4.sh 1f > /dev/null MIME-Version: 1.0 Content-Type: text/plain; charset=UTF-8 Content-Transfer-Encoding: 8bit X-Cron-Env: X-Cron-Env: X-Cron-Env: X-Cron-Env: Message-Id: <20210510031401.8278138FF4@wam-2.localdomain> Date: Sun, 9 May 2021 23:14:01 -0400 (EDT) % Total % Received % Xferd Average Speed Time Time Time Current Dload Upload Total Spent Left Speed 0 0 0 0 0 0 0 0 --:--:-- --:--:-- --:--:-- 0 100 393 100 393 0 0 4517 0 --:--:-- --:--:-- --:--:-- 4569 From sinton@wam-2.localdomain Sun May 9 23:15:01 2021 Return-Path: X-Original-To: sinton Delivered-To: sinton@wam-2.localdomain Received: by wam-2.localdomain (Postfix, from userid 1001) id B40B638FE1; Sun, 9 May 2021 23:15:01 -0400 (EDT) From: root@wam-2.localdomain (Cron Daemon) To: sinton@wam-2.localdomain Subject: Cron ~/symlinks/TEAM99/ogoakinitchka2.sh 99 0.05 > /dev/null MIME-Version: 1.0 Content-Type: text/plain; charset=UTF-8 Content-Transfer-Encoding: 8bit X-Cron-Env: X-Cron-Env: X-Cron-Env: X-Cron-Env: Message-Id: <20210510031501.B40B638FE1@wam-2.localdomain> Date: Sun, 9 May 2021 23:15:01 -0400 (EDT) /bin/sh: 1: /home/sinton/symlinks/TEAM99/ogoakinitchka2.sh: not found From sinton@wam-2.localdomain Sun May 9 23:15:01 2021 Return-Path: X-Original-To: sinton Delivered-To: sinton@wam-2.localdomain Received: by wam-2.localdomain (Postfix, from userid 1001) id CE2CF38FE1; Sun, 9 May 2021 23:15:01 -0400 (EDT) From: root@wam-2.localdomain (Cron Daemon) To: sinton@wam-2.localdomain Subject: Cron ~/symlinks/TEAM1F/metin/apiv4.sh 1f > /dev/null MIME-Version: 1.0 Content-Type: text/plain; charset=UTF-8 Content-Transfer-Encoding: 8bit X-Cron-Env: X-Cron-Env: X-Cron-Env: X-Cron-Env: Message-Id: <20210510031501.CE2CF38FE1@wam-2.localdomain> Date: Sun, 9 May 2021 23:15:01 -0400 (EDT) % Total % Received % Xferd Average Speed Time Time Time Current Dload Upload Total Spent Left Speed 0 0 0 0 0 0 0 0 --:--:-- --:--:-- --:--:-- 0 100 393 100 393 0 0 4465 0 --:--:-- --:--:-- --:--:-- 4465 From sinton@wam-2.localdomain Sun May 9 23:15:35 2021 Return-Path: X-Original-To: sinton Delivered-To: sinton@wam-2.localdomain Received: by wam-2.localdomain (Postfix, from userid 1001) id 97C6638FD5; Sun, 9 May 2021 23:15:35 -0400 (EDT) From: root@wam-2.localdomain (Cron Daemon) To: sinton@wam-2.localdomain Subject: Cron bash -c "sleep $[RANDOM%30]m" ; ~/symlinks/TEAM1N/fcst/startfcstclim.sh 1n > /dev/null MIME-Version: 1.0 Content-Type: text/plain; charset=UTF-8 Content-Transfer-Encoding: 8bit X-Cron-Env: X-Cron-Env: X-Cron-Env: X-Cron-Env: Message-Id: <20210510031535.97C6638FD5@wam-2.localdomain> Date: Sun, 9 May 2021 23:15:35 -0400 (EDT) % Total % Received % Xferd Average Speed Time Time Time Current Dload Upload Total Spent Left Speed 0 0 0 0 0 0 0 0 --:--:-- --:--:-- --:--:-- 0 100 41805 100 41805 0 0 202k 0 --:--:-- --:--:-- --:--:-- 202k From sinton@wam-2.localdomain Sun May 9 23:16:01 2021 Return-Path: X-Original-To: sinton Delivered-To: sinton@wam-2.localdomain Received: by wam-2.localdomain (Postfix, from userid 1001) id D904738FED; Sun, 9 May 2021 23:16:01 -0400 (EDT) From: root@wam-2.localdomain (Cron Daemon) To: sinton@wam-2.localdomain Subject: Cron ~/symlinks/TEAM99/ogoakinitchka2.sh 99 0.05 > /dev/null MIME-Version: 1.0 Content-Type: text/plain; charset=UTF-8 Content-Transfer-Encoding: 8bit X-Cron-Env: X-Cron-Env: X-Cron-Env: X-Cron-Env: Message-Id: <20210510031601.D904738FED@wam-2.localdomain> Date: Sun, 9 May 2021 23:16:01 -0400 (EDT) /bin/sh: 1: /home/sinton/symlinks/TEAM99/ogoakinitchka2.sh: not found From sinton@wam-2.localdomain Sun May 9 23:16:02 2021 Return-Path: X-Original-To: sinton Delivered-To: sinton@wam-2.localdomain Received: by wam-2.localdomain (Postfix, from userid 1001) id 0307738FED; Sun, 9 May 2021 23:16:02 -0400 (EDT) From: root@wam-2.localdomain (Cron Daemon) To: sinton@wam-2.localdomain Subject: Cron ~/symlinks/TEAM1F/metin/apiv4.sh 1f > /dev/null MIME-Version: 1.0 Content-Type: text/plain; charset=UTF-8 Content-Transfer-Encoding: 8bit X-Cron-Env: X-Cron-Env: X-Cron-Env: X-Cron-Env: Message-Id: <20210510031602.0307738FED@wam-2.localdomain> Date: Sun, 9 May 2021 23:16:02 -0400 (EDT) % Total % Received % Xferd Average Speed Time Time Time Current Dload Upload Total Spent Left Speed 0 0 0 0 0 0 0 0 --:--:-- --:--:-- --:--:-- 0 100 393 100 393 0 0 4271 0 --:--:-- --:--:-- --:--:-- 6140 From sinton@wam-2.localdomain Sun May 9 23:17:01 2021 Return-Path: X-Original-To: sinton Delivered-To: sinton@wam-2.localdomain Received: by wam-2.localdomain (Postfix, from userid 1001) id 3889A38FFD; Sun, 9 May 2021 23:17:01 -0400 (EDT) From: root@wam-2.localdomain (Cron Daemon) To: sinton@wam-2.localdomain Subject: Cron ~/symlinks/TEAM99/ogoakinitchka2.sh 99 0.05 > /dev/null MIME-Version: 1.0 Content-Type: text/plain; charset=UTF-8 Content-Transfer-Encoding: 8bit X-Cron-Env: X-Cron-Env: X-Cron-Env: X-Cron-Env: Message-Id: <20210510031701.3889A38FFD@wam-2.localdomain> Date: Sun, 9 May 2021 23:17:01 -0400 (EDT) /bin/sh: 1: /home/sinton/symlinks/TEAM99/ogoakinitchka2.sh: not found From sinton@wam-2.localdomain Sun May 9 23:17:01 2021 Return-Path: X-Original-To: sinton Delivered-To: sinton@wam-2.localdomain Received: by wam-2.localdomain (Postfix, from userid 1001) id 59F3B38FF4; Sun, 9 May 2021 23:17:01 -0400 (EDT) From: root@wam-2.localdomain (Cron Daemon) To: sinton@wam-2.localdomain Subject: Cron ~/symlinks/TEAM1F/metin/apiv4.sh 1f > /dev/null MIME-Version: 1.0 Content-Type: text/plain; charset=UTF-8 Content-Transfer-Encoding: 8bit X-Cron-Env: X-Cron-Env: X-Cron-Env: X-Cron-Env: Message-Id: <20210510031701.59F3B38FF4@wam-2.localdomain> Date: Sun, 9 May 2021 23:17:01 -0400 (EDT) % Total % Received % Xferd Average Speed Time Time Time Current Dload Upload Total Spent Left Speed 0 0 0 0 0 0 0 0 --:--:-- --:--:-- --:--:-- 0 100 393 100 393 0 0 2868 0 --:--:-- --:--:-- --:--:-- 3302 From sinton@wam-2.localdomain Sun May 9 23:17:25 2021 Return-Path: X-Original-To: sinton Delivered-To: sinton@wam-2.localdomain Received: by wam-2.localdomain (Postfix, from userid 1001) id 1B92136E5D; Sun, 9 May 2021 23:17:25 -0400 (EDT) From: root@wam-2.localdomain (Cron Daemon) To: sinton@wam-2.localdomain Subject: Cron bash -c "sleep $[RANDOM%30]m" ; ~/symlinks/TEAM2/fcst/startfcstclim.sh 2 > /dev/null MIME-Version: 1.0 Content-Type: text/plain; charset=UTF-8 Content-Transfer-Encoding: 8bit X-Cron-Env: X-Cron-Env: X-Cron-Env: X-Cron-Env: Message-Id: <20210510031725.1B92136E5D@wam-2.localdomain> Date: Sun, 9 May 2021 23:17:25 -0400 (EDT) % Total % Received % Xferd Average Speed Time Time Time Current Dload Upload Total Spent Left Speed 0 0 0 0 0 0 0 0 --:--:-- --:--:-- --:--:-- 0 100 41802 100 41802 0 0 172k 0 --:--:-- --:--:-- --:--:-- 172k From sinton@wam-2.localdomain Sun May 9 23:18:01 2021 Return-Path: X-Original-To: sinton Delivered-To: sinton@wam-2.localdomain Received: by wam-2.localdomain (Postfix, from userid 1001) id 51B1938FB0; Sun, 9 May 2021 23:18:01 -0400 (EDT) From: root@wam-2.localdomain (Cron Daemon) To: sinton@wam-2.localdomain Subject: Cron ~/symlinks/TEAM99/ogoakinitchka2.sh 99 0.05 > /dev/null MIME-Version: 1.0 Content-Type: text/plain; charset=UTF-8 Content-Transfer-Encoding: 8bit X-Cron-Env: X-Cron-Env: X-Cron-Env: X-Cron-Env: Message-Id: <20210510031801.51B1938FB0@wam-2.localdomain> Date: Sun, 9 May 2021 23:18:01 -0400 (EDT) /bin/sh: 1: /home/sinton/symlinks/TEAM99/ogoakinitchka2.sh: not found From sinton@wam-2.localdomain Sun May 9 23:18:01 2021 Return-Path: X-Original-To: sinton Delivered-To: sinton@wam-2.localdomain Received: by wam-2.localdomain (Postfix, from userid 1001) id 66BA738FB0; Sun, 9 May 2021 23:18:01 -0400 (EDT) From: root@wam-2.localdomain (Cron Daemon) To: sinton@wam-2.localdomain Subject: Cron ~/symlinks/TEAM1F/metin/apiv4.sh 1f > /dev/null MIME-Version: 1.0 Content-Type: text/plain; charset=UTF-8 Content-Transfer-Encoding: 8bit X-Cron-Env: X-Cron-Env: X-Cron-Env: X-Cron-Env: Message-Id: <20210510031801.66BA738FB0@wam-2.localdomain> Date: Sun, 9 May 2021 23:18:01 -0400 (EDT) % Total % Received % Xferd Average Speed Time Time Time Current Dload Upload Total Spent Left Speed 0 0 0 0 0 0 0 0 --:--:-- --:--:-- --:--:-- 0 100 392 100 392 0 0 4900 0 --:--:-- --:--:-- --:--:-- 4900 From sinton@wam-2.localdomain Sun May 9 23:19:01 2021 Return-Path: X-Original-To: sinton Delivered-To: sinton@wam-2.localdomain Received: by wam-2.localdomain (Postfix, from userid 1001) id 9EDD238FF4; Sun, 9 May 2021 23:19:01 -0400 (EDT) From: root@wam-2.localdomain (Cron Daemon) To: sinton@wam-2.localdomain Subject: Cron ~/symlinks/TEAM99/ogoakinitchka2.sh 99 0.05 > /dev/null MIME-Version: 1.0 Content-Type: text/plain; charset=UTF-8 Content-Transfer-Encoding: 8bit X-Cron-Env: X-Cron-Env: X-Cron-Env: X-Cron-Env: Message-Id: <20210510031901.9EDD238FF4@wam-2.localdomain> Date: Sun, 9 May 2021 23:19:01 -0400 (EDT) /bin/sh: 1: /home/sinton/symlinks/TEAM99/ogoakinitchka2.sh: not found From sinton@wam-2.localdomain Sun May 9 23:19:01 2021 Return-Path: X-Original-To: sinton Delivered-To: sinton@wam-2.localdomain Received: by wam-2.localdomain (Postfix, from userid 1001) id B444538FF4; Sun, 9 May 2021 23:19:01 -0400 (EDT) From: root@wam-2.localdomain (Cron Daemon) To: sinton@wam-2.localdomain Subject: Cron ~/symlinks/TEAM1F/metin/apiv4.sh 1f > /dev/null MIME-Version: 1.0 Content-Type: text/plain; charset=UTF-8 Content-Transfer-Encoding: 8bit X-Cron-Env: X-Cron-Env: X-Cron-Env: X-Cron-Env: Message-Id: <20210510031901.B444538FF4@wam-2.localdomain> Date: Sun, 9 May 2021 23:19:01 -0400 (EDT) % Total % Received % Xferd Average Speed Time Time Time Current Dload Upload Total Spent Left Speed 0 0 0 0 0 0 0 0 --:--:-- --:--:-- --:--:-- 0 100 392 100 392 0 0 7259 0 --:--:-- --:--:-- --:--:-- 7259 From sinton@wam-2.localdomain Sun May 9 23:20:01 2021 Return-Path: X-Original-To: sinton Delivered-To: sinton@wam-2.localdomain Received: by wam-2.localdomain (Postfix, from userid 1001) id EB85338FD5; Sun, 9 May 2021 23:20:01 -0400 (EDT) From: root@wam-2.localdomain (Cron Daemon) To: sinton@wam-2.localdomain Subject: Cron ~/symlinks/TEAM99/ogoakinitchka2.sh 99 0.05 > /dev/null MIME-Version: 1.0 Content-Type: text/plain; charset=UTF-8 Content-Transfer-Encoding: 8bit X-Cron-Env: X-Cron-Env: X-Cron-Env: X-Cron-Env: Message-Id: <20210510032001.EB85338FD5@wam-2.localdomain> Date: Sun, 9 May 2021 23:20:01 -0400 (EDT) /bin/sh: 1: /home/sinton/symlinks/TEAM99/ogoakinitchka2.sh: not found From sinton@wam-2.localdomain Sun May 9 23:20:02 2021 Return-Path: X-Original-To: sinton Delivered-To: sinton@wam-2.localdomain Received: by wam-2.localdomain (Postfix, from userid 1001) id 0975F38FD5; Sun, 9 May 2021 23:20:02 -0400 (EDT) From: root@wam-2.localdomain (Cron Daemon) To: sinton@wam-2.localdomain Subject: Cron ~/symlinks/TEAM1F/metin/apiv4.sh 1f > /dev/null MIME-Version: 1.0 Content-Type: text/plain; charset=UTF-8 Content-Transfer-Encoding: 8bit X-Cron-Env: X-Cron-Env: X-Cron-Env: X-Cron-Env: Message-Id: <20210510032002.0975F38FD5@wam-2.localdomain> Date: Sun, 9 May 2021 23:20:02 -0400 (EDT) % Total % Received % Xferd Average Speed Time Time Time Current Dload Upload Total Spent Left Speed 0 0 0 0 0 0 0 0 --:--:-- --:--:-- --:--:-- 0 100 393 100 393 0 0 4734 0 --:--:-- --:--:-- --:--:-- 4734 From sinton@wam-2.localdomain Sun May 9 23:20:11 2021 Return-Path: X-Original-To: sinton Delivered-To: sinton@wam-2.localdomain Received: by wam-2.localdomain (Postfix, from userid 1001) id A5D373914B; Sun, 9 May 2021 23:20:11 -0400 (EDT) From: root@wam-2.localdomain (Cron Daemon) To: sinton@wam-2.localdomain Subject: Cron bash -c "sleep $[RANDOM%30]m" ; ~/symlinks/TEAM7/fcst/startfcstclim.sh 7 > /dev/null MIME-Version: 1.0 Content-Type: text/plain; charset=UTF-8 Content-Transfer-Encoding: 8bit X-Cron-Env: X-Cron-Env: X-Cron-Env: X-Cron-Env: Message-Id: <20210510032011.A5D373914B@wam-2.localdomain> Date: Sun, 9 May 2021 23:20:11 -0400 (EDT) % Total % Received % Xferd Average Speed Time Time Time Current Dload Upload Total Spent Left Speed 0 0 0 0 0 0 0 0 --:--:-- --:--:-- --:--:-- 0 100 41579 100 41579 0 0 240k 0 --:--:-- --:--:-- --:--:-- 241k From sinton@wam-2.localdomain Sun May 9 23:21:01 2021 Return-Path: X-Original-To: sinton Delivered-To: sinton@wam-2.localdomain Received: by wam-2.localdomain (Postfix, from userid 1001) id E9FB539153; Sun, 9 May 2021 23:21:01 -0400 (EDT) From: root@wam-2.localdomain (Cron Daemon) To: sinton@wam-2.localdomain Subject: Cron ~/symlinks/TEAM99/ogoakinitchka2.sh 99 0.05 > /dev/null MIME-Version: 1.0 Content-Type: text/plain; charset=UTF-8 Content-Transfer-Encoding: 8bit X-Cron-Env: X-Cron-Env: X-Cron-Env: X-Cron-Env: Message-Id: <20210510032101.E9FB539153@wam-2.localdomain> Date: Sun, 9 May 2021 23:21:01 -0400 (EDT) /bin/sh: 1: /home/sinton/symlinks/TEAM99/ogoakinitchka2.sh: not found From sinton@wam-2.localdomain Sun May 9 23:21:02 2021 Return-Path: X-Original-To: sinton Delivered-To: sinton@wam-2.localdomain Received: by wam-2.localdomain (Postfix, from userid 1001) id 056EA38FF4; Sun, 9 May 2021 23:21:02 -0400 (EDT) From: root@wam-2.localdomain (Cron Daemon) To: sinton@wam-2.localdomain Subject: Cron ~/symlinks/TEAM1F/metin/apiv4.sh 1f > /dev/null MIME-Version: 1.0 Content-Type: text/plain; charset=UTF-8 Content-Transfer-Encoding: 8bit X-Cron-Env: X-Cron-Env: X-Cron-Env: X-Cron-Env: Message-Id: <20210510032102.056EA38FF4@wam-2.localdomain> Date: Sun, 9 May 2021 23:21:02 -0400 (EDT) % Total % Received % Xferd Average Speed Time Time Time Current Dload Upload Total Spent Left Speed 0 0 0 0 0 0 0 0 --:--:-- --:--:-- --:--:-- 0 100 393 100 393 0 0 5103 0 --:--:-- --:--:-- --:--:-- 5103 From sinton@wam-2.localdomain Sun May 9 23:22:01 2021 Return-Path: X-Original-To: sinton Delivered-To: sinton@wam-2.localdomain Received: by wam-2.localdomain (Postfix, from userid 1001) id 3587538FE4; Sun, 9 May 2021 23:22:01 -0400 (EDT) From: root@wam-2.localdomain (Cron Daemon) To: sinton@wam-2.localdomain Subject: Cron ~/symlinks/TEAM99/ogoakinitchka2.sh 99 0.05 > /dev/null MIME-Version: 1.0 Content-Type: text/plain; charset=UTF-8 Content-Transfer-Encoding: 8bit X-Cron-Env: X-Cron-Env: X-Cron-Env: X-Cron-Env: Message-Id: <20210510032201.3587538FE4@wam-2.localdomain> Date: Sun, 9 May 2021 23:22:01 -0400 (EDT) /bin/sh: 1: /home/sinton/symlinks/TEAM99/ogoakinitchka2.sh: not found From sinton@wam-2.localdomain Sun May 9 23:22:01 2021 Return-Path: X-Original-To: sinton Delivered-To: sinton@wam-2.localdomain Received: by wam-2.localdomain (Postfix, from userid 1001) id 4B04438FE4; Sun, 9 May 2021 23:22:01 -0400 (EDT) From: root@wam-2.localdomain (Cron Daemon) To: sinton@wam-2.localdomain Subject: Cron ~/symlinks/TEAM1F/metin/apiv4.sh 1f > /dev/null MIME-Version: 1.0 Content-Type: text/plain; charset=UTF-8 Content-Transfer-Encoding: 8bit X-Cron-Env: X-Cron-Env: X-Cron-Env: X-Cron-Env: Message-Id: <20210510032201.4B04438FE4@wam-2.localdomain> Date: Sun, 9 May 2021 23:22:01 -0400 (EDT) % Total % Received % Xferd Average Speed Time Time Time Current Dload Upload Total Spent Left Speed 0 0 0 0 0 0 0 0 --:--:-- --:--:-- --:--:-- 0 100 392 100 392 0 0 5226 0 --:--:-- --:--:-- --:--:-- 5226 From sinton@wam-2.localdomain Sun May 9 23:22:34 2021 Return-Path: X-Original-To: sinton Delivered-To: sinton@wam-2.localdomain Received: by wam-2.localdomain (Postfix, from userid 1001) id B172239150; Sun, 9 May 2021 23:22:34 -0400 (EDT) From: root@wam-2.localdomain (Cron Daemon) To: sinton@wam-2.localdomain Subject: Cron bash -c "sleep $[RANDOM%30]m" ; ~/symlinks/TEAM1F/fcst/startfcstclim.sh 1f > /dev/null MIME-Version: 1.0 Content-Type: text/plain; charset=UTF-8 Content-Transfer-Encoding: 8bit X-Cron-Env: X-Cron-Env: X-Cron-Env: X-Cron-Env: Message-Id: <20210510032234.B172239150@wam-2.localdomain> Date: Sun, 9 May 2021 23:22:34 -0400 (EDT) % Total % Received % Xferd Average Speed Time Time Time Current Dload Upload Total Spent Left Speed 0 0 0 0 0 0 0 0 --:--:-- --:--:-- --:--:-- 0 100 41637 100 41637 0 0 165k 0 --:--:-- --:--:-- --:--:-- 165k From sinton@wam-2.localdomain Sun May 9 23:23:01 2021 Return-Path: X-Original-To: sinton Delivered-To: sinton@wam-2.localdomain Received: by wam-2.localdomain (Postfix, from userid 1001) id E68A63914E; Sun, 9 May 2021 23:23:01 -0400 (EDT) From: root@wam-2.localdomain (Cron Daemon) To: sinton@wam-2.localdomain Subject: Cron ~/symlinks/TEAM99/ogoakinitchka2.sh 99 0.05 > /dev/null MIME-Version: 1.0 Content-Type: text/plain; charset=UTF-8 Content-Transfer-Encoding: 8bit X-Cron-Env: X-Cron-Env: X-Cron-Env: X-Cron-Env: Message-Id: <20210510032301.E68A63914E@wam-2.localdomain> Date: Sun, 9 May 2021 23:23:01 -0400 (EDT) /bin/sh: 1: /home/sinton/symlinks/TEAM99/ogoakinitchka2.sh: not found From sinton@wam-2.localdomain Sun May 9 23:23:02 2021 Return-Path: X-Original-To: sinton Delivered-To: sinton@wam-2.localdomain Received: by wam-2.localdomain (Postfix, from userid 1001) id 024B23914E; Sun, 9 May 2021 23:23:02 -0400 (EDT) From: root@wam-2.localdomain (Cron Daemon) To: sinton@wam-2.localdomain Subject: Cron ~/symlinks/TEAM1F/metin/apiv4.sh 1f > /dev/null MIME-Version: 1.0 Content-Type: text/plain; charset=UTF-8 Content-Transfer-Encoding: 8bit X-Cron-Env: X-Cron-Env: X-Cron-Env: X-Cron-Env: Message-Id: <20210510032302.024B23914E@wam-2.localdomain> Date: Sun, 9 May 2021 23:23:02 -0400 (EDT) % Total % Received % Xferd Average Speed Time Time Time Current Dload Upload Total Spent Left Speed 0 0 0 0 0 0 0 0 --:--:-- --:--:-- --:--:-- 0 100 393 100 393 0 0 5103 0 --:--:-- --:--:-- --:--:-- 5103 From sinton@wam-2.localdomain Sun May 9 23:24:01 2021 Return-Path: X-Original-To: sinton Delivered-To: sinton@wam-2.localdomain Received: by wam-2.localdomain (Postfix, from userid 1001) id 3853C39150; Sun, 9 May 2021 23:24:01 -0400 (EDT) From: root@wam-2.localdomain (Cron Daemon) To: sinton@wam-2.localdomain Subject: Cron ~/symlinks/TEAM99/ogoakinitchka2.sh 99 0.05 > /dev/null MIME-Version: 1.0 Content-Type: text/plain; charset=UTF-8 Content-Transfer-Encoding: 8bit X-Cron-Env: X-Cron-Env: X-Cron-Env: X-Cron-Env: Message-Id: <20210510032401.3853C39150@wam-2.localdomain> Date: Sun, 9 May 2021 23:24:01 -0400 (EDT) /bin/sh: 1: /home/sinton/symlinks/TEAM99/ogoakinitchka2.sh: not found From sinton@wam-2.localdomain Sun May 9 23:24:01 2021 Return-Path: X-Original-To: sinton Delivered-To: sinton@wam-2.localdomain Received: by wam-2.localdomain (Postfix, from userid 1001) id 4623939150; Sun, 9 May 2021 23:24:01 -0400 (EDT) From: root@wam-2.localdomain (Cron Daemon) To: sinton@wam-2.localdomain Subject: Cron ~/symlinks/TEAM1F/metin/apiv4.sh 1f > /dev/null MIME-Version: 1.0 Content-Type: text/plain; charset=UTF-8 Content-Transfer-Encoding: 8bit X-Cron-Env: X-Cron-Env: X-Cron-Env: X-Cron-Env: Message-Id: <20210510032401.4623939150@wam-2.localdomain> Date: Sun, 9 May 2021 23:24:01 -0400 (EDT) % Total % Received % Xferd Average Speed Time Time Time Current Dload Upload Total Spent Left Speed 0 0 0 0 0 0 0 0 --:--:-- --:--:-- --:--:-- 0 100 393 100 393 0 0 5695 0 --:--:-- --:--:-- --:--:-- 5695 From sinton@wam-2.localdomain Sun May 9 23:25:01 2021 Return-Path: X-Original-To: sinton Delivered-To: sinton@wam-2.localdomain Received: by wam-2.localdomain (Postfix, from userid 1001) id 7DBBA3824C; Sun, 9 May 2021 23:25:01 -0400 (EDT) From: root@wam-2.localdomain (Cron Daemon) To: sinton@wam-2.localdomain Subject: Cron ~/symlinks/TEAM99/ogoakinitchka2.sh 99 0.05 > /dev/null MIME-Version: 1.0 Content-Type: text/plain; charset=UTF-8 Content-Transfer-Encoding: 8bit X-Cron-Env: X-Cron-Env: X-Cron-Env: X-Cron-Env: Message-Id: <20210510032501.7DBBA3824C@wam-2.localdomain> Date: Sun, 9 May 2021 23:25:01 -0400 (EDT) /bin/sh: 1: /home/sinton/symlinks/TEAM99/ogoakinitchka2.sh: not found From sinton@wam-2.localdomain Sun May 9 23:25:01 2021 Return-Path: X-Original-To: sinton Delivered-To: sinton@wam-2.localdomain Received: by wam-2.localdomain (Postfix, from userid 1001) id 8C8E53824E; Sun, 9 May 2021 23:25:01 -0400 (EDT) From: root@wam-2.localdomain (Cron Daemon) To: sinton@wam-2.localdomain Subject: Cron ~/symlinks/TEAM1F/metin/apiv4.sh 1f > /dev/null MIME-Version: 1.0 Content-Type: text/plain; charset=UTF-8 Content-Transfer-Encoding: 8bit X-Cron-Env: X-Cron-Env: X-Cron-Env: X-Cron-Env: Message-Id: <20210510032501.8C8E53824E@wam-2.localdomain> Date: Sun, 9 May 2021 23:25:01 -0400 (EDT) % Total % Received % Xferd Average Speed Time Time Time Current Dload Upload Total Spent Left Speed 0 0 0 0 0 0 0 0 --:--:-- --:--:-- --:--:-- 0 100 393 100 393 0 0 7705 0 --:--:-- --:--:-- --:--:-- 7705 From sinton@wam-2.localdomain Sun May 9 23:26:01 2021 Return-Path: X-Original-To: sinton Delivered-To: sinton@wam-2.localdomain Received: by wam-2.localdomain (Postfix, from userid 1001) id D340235539; Sun, 9 May 2021 23:26:01 -0400 (EDT) From: root@wam-2.localdomain (Cron Daemon) To: sinton@wam-2.localdomain Subject: Cron ~/symlinks/TEAM99/ogoakinitchka2.sh 99 0.05 > /dev/null MIME-Version: 1.0 Content-Type: text/plain; charset=UTF-8 Content-Transfer-Encoding: 8bit X-Cron-Env: X-Cron-Env: X-Cron-Env: X-Cron-Env: Message-Id: <20210510032601.D340235539@wam-2.localdomain> Date: Sun, 9 May 2021 23:26:01 -0400 (EDT) /bin/sh: 1: /home/sinton/symlinks/TEAM99/ogoakinitchka2.sh: not found From sinton@wam-2.localdomain Sun May 9 23:26:01 2021 Return-Path: X-Original-To: sinton Delivered-To: sinton@wam-2.localdomain Received: by wam-2.localdomain (Postfix, from userid 1001) id E3EC9360AC; Sun, 9 May 2021 23:26:01 -0400 (EDT) From: root@wam-2.localdomain (Cron Daemon) To: sinton@wam-2.localdomain Subject: Cron ~/symlinks/TEAM1F/metin/apiv4.sh 1f > /dev/null MIME-Version: 1.0 Content-Type: text/plain; charset=UTF-8 Content-Transfer-Encoding: 8bit X-Cron-Env: X-Cron-Env: X-Cron-Env: X-Cron-Env: Message-Id: <20210510032601.E3EC9360AC@wam-2.localdomain> Date: Sun, 9 May 2021 23:26:01 -0400 (EDT) % Total % Received % Xferd Average Speed Time Time Time Current Dload Upload Total Spent Left Speed 0 0 0 0 0 0 0 0 --:--:-- --:--:-- --:--:-- 0 0 0 0 0 0 0 0 0 --:--:-- --:--:-- --:--:-- 0 100 393 100 393 0 0 4415 0 --:--:-- --:--:-- --:--:-- 4366 From sinton@wam-2.localdomain Sun May 9 23:26:17 2021 Return-Path: X-Original-To: sinton Delivered-To: sinton@wam-2.localdomain Received: by wam-2.localdomain (Postfix, from userid 1001) id 4FAF738669; Sun, 9 May 2021 23:26:17 -0400 (EDT) From: root@wam-2.localdomain (Cron Daemon) To: sinton@wam-2.localdomain Subject: Cron bash -c "sleep $[RANDOM%30]m" ; ~/symlinks/TEAM8/fcst/startfcstclim.sh 8 > /dev/null MIME-Version: 1.0 Content-Type: text/plain; charset=UTF-8 Content-Transfer-Encoding: 8bit X-Cron-Env: X-Cron-Env: X-Cron-Env: X-Cron-Env: Message-Id: <20210510032617.4FAF738669@wam-2.localdomain> Date: Sun, 9 May 2021 23:26:17 -0400 (EDT) % Total % Received % Xferd Average Speed Time Time Time Current Dload Upload Total Spent Left Speed 0 0 0 0 0 0 0 0 --:--:-- --:--:-- --:--:-- 0 100 41645 100 41645 0 0 182k 0 --:--:-- --:--:-- --:--:-- 182k From sinton@wam-2.localdomain Sun May 9 23:27:01 2021 Return-Path: X-Original-To: sinton Delivered-To: sinton@wam-2.localdomain Received: by wam-2.localdomain (Postfix, from userid 1001) id 84C143917D; Sun, 9 May 2021 23:27:01 -0400 (EDT) From: root@wam-2.localdomain (Cron Daemon) To: sinton@wam-2.localdomain Subject: Cron ~/symlinks/TEAM99/ogoakinitchka2.sh 99 0.05 > /dev/null MIME-Version: 1.0 Content-Type: text/plain; charset=UTF-8 Content-Transfer-Encoding: 8bit X-Cron-Env: X-Cron-Env: X-Cron-Env: X-Cron-Env: Message-Id: <20210510032701.84C143917D@wam-2.localdomain> Date: Sun, 9 May 2021 23:27:01 -0400 (EDT) /bin/sh: 1: /home/sinton/symlinks/TEAM99/ogoakinitchka2.sh: not found From sinton@wam-2.localdomain Sun May 9 23:27:01 2021 Return-Path: X-Original-To: sinton Delivered-To: sinton@wam-2.localdomain Received: by wam-2.localdomain (Postfix, from userid 1001) id 9A1C538D54; Sun, 9 May 2021 23:27:01 -0400 (EDT) From: root@wam-2.localdomain (Cron Daemon) To: sinton@wam-2.localdomain Subject: Cron ~/symlinks/TEAM1F/metin/apiv4.sh 1f > /dev/null MIME-Version: 1.0 Content-Type: text/plain; charset=UTF-8 Content-Transfer-Encoding: 8bit X-Cron-Env: X-Cron-Env: X-Cron-Env: X-Cron-Env: Message-Id: <20210510032701.9A1C538D54@wam-2.localdomain> Date: Sun, 9 May 2021 23:27:01 -0400 (EDT) % Total % Received % Xferd Average Speed Time Time Time Current Dload Upload Total Spent Left Speed 0 0 0 0 0 0 0 0 --:--:-- --:--:-- --:--:-- 0 100 393 100 393 0 0 5240 0 --:--:-- --:--:-- --:--:-- 5240 From sinton@wam-2.localdomain Sun May 9 23:28:01 2021 Return-Path: X-Original-To: sinton Delivered-To: sinton@wam-2.localdomain Received: by wam-2.localdomain (Postfix, from userid 1001) id CA08038E96; Sun, 9 May 2021 23:28:01 -0400 (EDT) From: root@wam-2.localdomain (Cron Daemon) To: sinton@wam-2.localdomain Subject: Cron ~/symlinks/TEAM99/ogoakinitchka2.sh 99 0.05 > /dev/null MIME-Version: 1.0 Content-Type: text/plain; charset=UTF-8 Content-Transfer-Encoding: 8bit X-Cron-Env: X-Cron-Env: X-Cron-Env: X-Cron-Env: Message-Id: <20210510032801.CA08038E96@wam-2.localdomain> Date: Sun, 9 May 2021 23:28:01 -0400 (EDT) /bin/sh: 1: /home/sinton/symlinks/TEAM99/ogoakinitchka2.sh: not found From sinton@wam-2.localdomain Sun May 9 23:28:01 2021 Return-Path: X-Original-To: sinton Delivered-To: sinton@wam-2.localdomain Received: by wam-2.localdomain (Postfix, from userid 1001) id DA1B038FB0; Sun, 9 May 2021 23:28:01 -0400 (EDT) From: root@wam-2.localdomain (Cron Daemon) To: sinton@wam-2.localdomain Subject: Cron ~/symlinks/TEAM1F/metin/apiv4.sh 1f > /dev/null MIME-Version: 1.0 Content-Type: text/plain; charset=UTF-8 Content-Transfer-Encoding: 8bit X-Cron-Env: X-Cron-Env: X-Cron-Env: X-Cron-Env: Message-Id: <20210510032801.DA1B038FB0@wam-2.localdomain> Date: Sun, 9 May 2021 23:28:01 -0400 (EDT) % Total % Received % Xferd Average Speed Time Time Time Current Dload Upload Total Spent Left Speed 0 0 0 0 0 0 0 0 --:--:-- --:--:-- --:--:-- 0 100 392 100 392 0 0 5444 0 --:--:-- --:--:-- --:--:-- 5369 100 392 100 392 0 0 5369 0 --:--:-- --:--:-- --:--:-- 5369 From sinton@wam-2.localdomain Sun May 9 23:29:02 2021 Return-Path: X-Original-To: sinton Delivered-To: sinton@wam-2.localdomain Received: by wam-2.localdomain (Postfix, from userid 1001) id 119A938FF0; Sun, 9 May 2021 23:29:02 -0400 (EDT) From: root@wam-2.localdomain (Cron Daemon) To: sinton@wam-2.localdomain Subject: Cron ~/symlinks/TEAM99/ogoakinitchka2.sh 99 0.05 > /dev/null MIME-Version: 1.0 Content-Type: text/plain; charset=UTF-8 Content-Transfer-Encoding: 8bit X-Cron-Env: X-Cron-Env: X-Cron-Env: X-Cron-Env: Message-Id: <20210510032902.119A938FF0@wam-2.localdomain> Date: Sun, 9 May 2021 23:29:02 -0400 (EDT) /bin/sh: 1: /home/sinton/symlinks/TEAM99/ogoakinitchka2.sh: not found From sinton@wam-2.localdomain Sun May 9 23:29:02 2021 Return-Path: X-Original-To: sinton Delivered-To: sinton@wam-2.localdomain Received: by wam-2.localdomain (Postfix, from userid 1001) id 210AC38FF0; Sun, 9 May 2021 23:29:02 -0400 (EDT) From: root@wam-2.localdomain (Cron Daemon) To: sinton@wam-2.localdomain Subject: Cron ~/symlinks/TEAM1F/metin/apiv4.sh 1f > /dev/null MIME-Version: 1.0 Content-Type: text/plain; charset=UTF-8 Content-Transfer-Encoding: 8bit X-Cron-Env: X-Cron-Env: X-Cron-Env: X-Cron-Env: Message-Id: <20210510032902.210AC38FF0@wam-2.localdomain> Date: Sun, 9 May 2021 23:29:02 -0400 (EDT) % Total % Received % Xferd Average Speed Time Time Time Current Dload Upload Total Spent Left Speed 0 0 0 0 0 0 0 0 --:--:-- --:--:-- --:--:-- 0 100 389 100 389 0 0 5402 0 --:--:-- --:--:-- --:--:-- 5402 From sinton@wam-2.localdomain Sun May 9 23:30:01 2021 Return-Path: X-Original-To: sinton Delivered-To: sinton@wam-2.localdomain Received: by wam-2.localdomain (Postfix, from userid 1001) id 5329939158; Sun, 9 May 2021 23:30:01 -0400 (EDT) From: root@wam-2.localdomain (Cron Daemon) To: sinton@wam-2.localdomain Subject: Cron ~/symlinks/TEAM99/ogoakinitchka2.sh 99 0.05 > /dev/null MIME-Version: 1.0 Content-Type: text/plain; charset=UTF-8 Content-Transfer-Encoding: 8bit X-Cron-Env: X-Cron-Env: X-Cron-Env: X-Cron-Env: Message-Id: <20210510033001.5329939158@wam-2.localdomain> Date: Sun, 9 May 2021 23:30:01 -0400 (EDT) /bin/sh: 1: /home/sinton/symlinks/TEAM99/ogoakinitchka2.sh: not found From sinton@wam-2.localdomain Sun May 9 23:30:01 2021 Return-Path: X-Original-To: sinton Delivered-To: sinton@wam-2.localdomain Received: by wam-2.localdomain (Postfix, from userid 1001) id 650D139158; Sun, 9 May 2021 23:30:01 -0400 (EDT) From: root@wam-2.localdomain (Cron Daemon) To: sinton@wam-2.localdomain Subject: Cron ~/symlinks/TEAM1F/metin/apiv4.sh 1f > /dev/null MIME-Version: 1.0 Content-Type: text/plain; charset=UTF-8 Content-Transfer-Encoding: 8bit X-Cron-Env: X-Cron-Env: X-Cron-Env: X-Cron-Env: Message-Id: <20210510033001.650D139158@wam-2.localdomain> Date: Sun, 9 May 2021 23:30:01 -0400 (EDT) % Total % Received % Xferd Average Speed Time Time Time Current Dload Upload Total Spent Left Speed 0 0 0 0 0 0 0 0 --:--:-- --:--:-- --:--:-- 0 100 393 100 393 0 0 5954 0 --:--:-- --:--:-- --:--:-- 6046 From sinton@wam-2.localdomain Sun May 9 23:31:01 2021 Return-Path: X-Original-To: sinton Delivered-To: sinton@wam-2.localdomain Received: by wam-2.localdomain (Postfix, from userid 1001) id A51243865F; Sun, 9 May 2021 23:31:01 -0400 (EDT) From: root@wam-2.localdomain (Cron Daemon) To: sinton@wam-2.localdomain Subject: Cron ~/symlinks/TEAM99/ogoakinitchka2.sh 99 0.05 > /dev/null MIME-Version: 1.0 Content-Type: text/plain; charset=UTF-8 Content-Transfer-Encoding: 8bit X-Cron-Env: X-Cron-Env: X-Cron-Env: X-Cron-Env: Message-Id: <20210510033101.A51243865F@wam-2.localdomain> Date: Sun, 9 May 2021 23:31:01 -0400 (EDT) /bin/sh: 1: /home/sinton/symlinks/TEAM99/ogoakinitchka2.sh: not found From sinton@wam-2.localdomain Sun May 9 23:31:01 2021 Return-Path: X-Original-To: sinton Delivered-To: sinton@wam-2.localdomain Received: by wam-2.localdomain (Postfix, from userid 1001) id BE82338FF0; Sun, 9 May 2021 23:31:01 -0400 (EDT) From: root@wam-2.localdomain (Cron Daemon) To: sinton@wam-2.localdomain Subject: Cron ~/symlinks/TEAM1F/metin/apiv4.sh 1f > /dev/null MIME-Version: 1.0 Content-Type: text/plain; charset=UTF-8 Content-Transfer-Encoding: 8bit X-Cron-Env: X-Cron-Env: X-Cron-Env: X-Cron-Env: Message-Id: <20210510033101.BE82338FF0@wam-2.localdomain> Date: Sun, 9 May 2021 23:31:01 -0400 (EDT) % Total % Received % Xferd Average Speed Time Time Time Current Dload Upload Total Spent Left Speed 0 0 0 0 0 0 0 0 --:--:-- --:--:-- --:--:-- 0 100 393 100 393 0 0 5695 0 --:--:-- --:--:-- --:--:-- 5695 From sinton@wam-2.localdomain Sun May 9 23:32:01 2021 Return-Path: X-Original-To: sinton Delivered-To: sinton@wam-2.localdomain Received: by wam-2.localdomain (Postfix, from userid 1001) id EE7213917B; Sun, 9 May 2021 23:32:01 -0400 (EDT) From: root@wam-2.localdomain (Cron Daemon) To: sinton@wam-2.localdomain Subject: Cron ~/symlinks/TEAM99/ogoakinitchka2.sh 99 0.05 > /dev/null MIME-Version: 1.0 Content-Type: text/plain; charset=UTF-8 Content-Transfer-Encoding: 8bit X-Cron-Env: X-Cron-Env: X-Cron-Env: X-Cron-Env: Message-Id: <20210510033201.EE7213917B@wam-2.localdomain> Date: Sun, 9 May 2021 23:32:01 -0400 (EDT) /bin/sh: 1: /home/sinton/symlinks/TEAM99/ogoakinitchka2.sh: not found From sinton@wam-2.localdomain Sun May 9 23:32:02 2021 Return-Path: X-Original-To: sinton Delivered-To: sinton@wam-2.localdomain Received: by wam-2.localdomain (Postfix, from userid 1001) id 0DD073917B; Sun, 9 May 2021 23:32:02 -0400 (EDT) From: root@wam-2.localdomain (Cron Daemon) To: sinton@wam-2.localdomain Subject: Cron ~/symlinks/TEAM1F/metin/apiv4.sh 1f > /dev/null MIME-Version: 1.0 Content-Type: text/plain; charset=UTF-8 Content-Transfer-Encoding: 8bit X-Cron-Env: X-Cron-Env: X-Cron-Env: X-Cron-Env: Message-Id: <20210510033202.0DD073917B@wam-2.localdomain> Date: Sun, 9 May 2021 23:32:02 -0400 (EDT) % Total % Received % Xferd Average Speed Time Time Time Current Dload Upload Total Spent Left Speed 0 0 0 0 0 0 0 0 --:--:-- --:--:-- --:--:-- 0 100 392 100 392 0 0 5297 0 --:--:-- --:--:-- --:--:-- 5369 From sinton@wam-2.localdomain Sun May 9 23:33:01 2021 Return-Path: X-Original-To: sinton Delivered-To: sinton@wam-2.localdomain Received: by wam-2.localdomain (Postfix, from userid 1001) id 433B13917B; Sun, 9 May 2021 23:33:01 -0400 (EDT) From: root@wam-2.localdomain (Cron Daemon) To: sinton@wam-2.localdomain Subject: Cron ~/symlinks/TEAM99/ogoakinitchka2.sh 99 0.05 > /dev/null MIME-Version: 1.0 Content-Type: text/plain; charset=UTF-8 Content-Transfer-Encoding: 8bit X-Cron-Env: X-Cron-Env: X-Cron-Env: X-Cron-Env: Message-Id: <20210510033301.433B13917B@wam-2.localdomain> Date: Sun, 9 May 2021 23:33:01 -0400 (EDT) /bin/sh: 1: /home/sinton/symlinks/TEAM99/ogoakinitchka2.sh: not found From sinton@wam-2.localdomain Sun May 9 23:33:01 2021 Return-Path: X-Original-To: sinton Delivered-To: sinton@wam-2.localdomain Received: by wam-2.localdomain (Postfix, from userid 1001) id 55D2839182; Sun, 9 May 2021 23:33:01 -0400 (EDT) From: root@wam-2.localdomain (Cron Daemon) To: sinton@wam-2.localdomain Subject: Cron ~/symlinks/TEAM1F/metin/apiv4.sh 1f > /dev/null MIME-Version: 1.0 Content-Type: text/plain; charset=UTF-8 Content-Transfer-Encoding: 8bit X-Cron-Env: X-Cron-Env: X-Cron-Env: X-Cron-Env: Message-Id: <20210510033301.55D2839182@wam-2.localdomain> Date: Sun, 9 May 2021 23:33:01 -0400 (EDT) % Total % Received % Xferd Average Speed Time Time Time Current Dload Upload Total Spent Left Speed 0 0 0 0 0 0 0 0 --:--:-- --:--:-- --:--:-- 0 100 393 100 393 0 0 7145 0 --:--:-- --:--:-- --:--:-- 7145 From sinton@wam-2.localdomain Sun May 9 23:34:01 2021 Return-Path: X-Original-To: sinton Delivered-To: sinton@wam-2.localdomain Received: by wam-2.localdomain (Postfix, from userid 1001) id 8582639184; Sun, 9 May 2021 23:34:01 -0400 (EDT) From: root@wam-2.localdomain (Cron Daemon) To: sinton@wam-2.localdomain Subject: Cron ~/symlinks/TEAM99/ogoakinitchka2.sh 99 0.05 > /dev/null MIME-Version: 1.0 Content-Type: text/plain; charset=UTF-8 Content-Transfer-Encoding: 8bit X-Cron-Env: X-Cron-Env: X-Cron-Env: X-Cron-Env: Message-Id: <20210510033401.8582639184@wam-2.localdomain> Date: Sun, 9 May 2021 23:34:01 -0400 (EDT) /bin/sh: 1: /home/sinton/symlinks/TEAM99/ogoakinitchka2.sh: not found From sinton@wam-2.localdomain Sun May 9 23:34:01 2021 Return-Path: X-Original-To: sinton Delivered-To: sinton@wam-2.localdomain Received: by wam-2.localdomain (Postfix, from userid 1001) id A42EB39184; Sun, 9 May 2021 23:34:01 -0400 (EDT) From: root@wam-2.localdomain (Cron Daemon) To: sinton@wam-2.localdomain Subject: Cron ~/symlinks/TEAM1F/metin/apiv4.sh 1f > /dev/null MIME-Version: 1.0 Content-Type: text/plain; charset=UTF-8 Content-Transfer-Encoding: 8bit X-Cron-Env: X-Cron-Env: X-Cron-Env: X-Cron-Env: Message-Id: <20210510033401.A42EB39184@wam-2.localdomain> Date: Sun, 9 May 2021 23:34:01 -0400 (EDT) % Total % Received % Xferd Average Speed Time Time Time Current Dload Upload Total Spent Left Speed 0 0 0 0 0 0 0 0 --:--:-- --:--:-- --:--:-- 0 100 392 100 392 0 0 2722 0 --:--:-- --:--:-- --:--:-- 2722 From sinton@wam-2.localdomain Sun May 9 23:35:01 2021 Return-Path: X-Original-To: sinton Delivered-To: sinton@wam-2.localdomain Received: by wam-2.localdomain (Postfix, from userid 1001) id D91C739189; Sun, 9 May 2021 23:35:01 -0400 (EDT) From: root@wam-2.localdomain (Cron Daemon) To: sinton@wam-2.localdomain Subject: Cron ~/symlinks/TEAM99/ogoakinitchka2.sh 99 0.05 > /dev/null MIME-Version: 1.0 Content-Type: text/plain; charset=UTF-8 Content-Transfer-Encoding: 8bit X-Cron-Env: X-Cron-Env: X-Cron-Env: X-Cron-Env: Message-Id: <20210510033501.D91C739189@wam-2.localdomain> Date: Sun, 9 May 2021 23:35:01 -0400 (EDT) /bin/sh: 1: /home/sinton/symlinks/TEAM99/ogoakinitchka2.sh: not found From sinton@wam-2.localdomain Sun May 9 23:35:02 2021 Return-Path: X-Original-To: sinton Delivered-To: sinton@wam-2.localdomain Received: by wam-2.localdomain (Postfix, from userid 1001) id F340739189; Sun, 9 May 2021 23:35:01 -0400 (EDT) From: root@wam-2.localdomain (Cron Daemon) To: sinton@wam-2.localdomain Subject: Cron ~/symlinks/TEAM1F/metin/apiv4.sh 1f > /dev/null MIME-Version: 1.0 Content-Type: text/plain; charset=UTF-8 Content-Transfer-Encoding: 8bit X-Cron-Env: X-Cron-Env: X-Cron-Env: X-Cron-Env: Message-Id: <20210510033501.F340739189@wam-2.localdomain> Date: Sun, 9 May 2021 23:35:01 -0400 (EDT) % Total % Received % Xferd Average Speed Time Time Time Current Dload Upload Total Spent Left Speed 0 0 0 0 0 0 0 0 --:--:-- --:--:-- --:--:-- 0 100 393 100 393 0 0 5103 0 --:--:-- --:--:-- --:--:-- 5103 From sinton@wam-2.localdomain Sun May 9 23:36:02 2021 Return-Path: X-Original-To: sinton Delivered-To: sinton@wam-2.localdomain Received: by wam-2.localdomain (Postfix, from userid 1001) id 48BE5390CE; Sun, 9 May 2021 23:36:02 -0400 (EDT) From: root@wam-2.localdomain (Cron Daemon) To: sinton@wam-2.localdomain Subject: Cron ~/symlinks/TEAM99/ogoakinitchka2.sh 99 0.05 > /dev/null MIME-Version: 1.0 Content-Type: text/plain; charset=UTF-8 Content-Transfer-Encoding: 8bit X-Cron-Env: X-Cron-Env: X-Cron-Env: X-Cron-Env: Message-Id: <20210510033602.48BE5390CE@wam-2.localdomain> Date: Sun, 9 May 2021 23:36:02 -0400 (EDT) /bin/sh: 1: /home/sinton/symlinks/TEAM99/ogoakinitchka2.sh: not found From sinton@wam-2.localdomain Sun May 9 23:36:02 2021 Return-Path: X-Original-To: sinton Delivered-To: sinton@wam-2.localdomain Received: by wam-2.localdomain (Postfix, from userid 1001) id 5F92A39018; Sun, 9 May 2021 23:36:02 -0400 (EDT) From: root@wam-2.localdomain (Cron Daemon) To: sinton@wam-2.localdomain Subject: Cron ~/symlinks/TEAM1F/metin/apiv4.sh 1f > /dev/null MIME-Version: 1.0 Content-Type: text/plain; charset=UTF-8 Content-Transfer-Encoding: 8bit X-Cron-Env: X-Cron-Env: X-Cron-Env: X-Cron-Env: Message-Id: <20210510033602.5F92A39018@wam-2.localdomain> Date: Sun, 9 May 2021 23:36:02 -0400 (EDT) % Total % Received % Xferd Average Speed Time Time Time Current Dload Upload Total Spent Left Speed 0 0 0 0 0 0 0 0 --:--:-- --:--:-- --:--:-- 0 100 392 100 392 0 0 5939 0 --:--:-- --:--:-- --:--:-- 5939 From sinton@wam-2.localdomain Sun May 9 23:37:01 2021 Return-Path: X-Original-To: sinton Delivered-To: sinton@wam-2.localdomain Received: by wam-2.localdomain (Postfix, from userid 1001) id 92A3A39194; Sun, 9 May 2021 23:37:01 -0400 (EDT) From: root@wam-2.localdomain (Cron Daemon) To: sinton@wam-2.localdomain Subject: Cron ~/symlinks/TEAM99/ogoakinitchka2.sh 99 0.05 > /dev/null MIME-Version: 1.0 Content-Type: text/plain; charset=UTF-8 Content-Transfer-Encoding: 8bit X-Cron-Env: X-Cron-Env: X-Cron-Env: X-Cron-Env: Message-Id: <20210510033701.92A3A39194@wam-2.localdomain> Date: Sun, 9 May 2021 23:37:01 -0400 (EDT) /bin/sh: 1: /home/sinton/symlinks/TEAM99/ogoakinitchka2.sh: not found From sinton@wam-2.localdomain Sun May 9 23:37:01 2021 Return-Path: X-Original-To: sinton Delivered-To: sinton@wam-2.localdomain Received: by wam-2.localdomain (Postfix, from userid 1001) id A610939194; Sun, 9 May 2021 23:37:01 -0400 (EDT) From: root@wam-2.localdomain (Cron Daemon) To: sinton@wam-2.localdomain Subject: Cron ~/symlinks/TEAM1F/metin/apiv4.sh 1f > /dev/null MIME-Version: 1.0 Content-Type: text/plain; charset=UTF-8 Content-Transfer-Encoding: 8bit X-Cron-Env: X-Cron-Env: X-Cron-Env: X-Cron-Env: Message-Id: <20210510033701.A610939194@wam-2.localdomain> Date: Sun, 9 May 2021 23:37:01 -0400 (EDT) % Total % Received % Xferd Average Speed Time Time Time Current Dload Upload Total Spent Left Speed 0 0 0 0 0 0 0 0 --:--:-- --:--:-- --:--:-- 0 100 391 100 391 0 0 5356 0 --:--:-- --:--:-- --:--:-- 6859 From sinton@wam-2.localdomain Sun May 9 23:38:01 2021 Return-Path: X-Original-To: sinton Delivered-To: sinton@wam-2.localdomain Received: by wam-2.localdomain (Postfix, from userid 1001) id E2B2A20D73; Sun, 9 May 2021 23:38:01 -0400 (EDT) From: root@wam-2.localdomain (Cron Daemon) To: sinton@wam-2.localdomain Subject: Cron ~/symlinks/TEAM99/ogoakinitchka2.sh 99 0.05 > /dev/null MIME-Version: 1.0 Content-Type: text/plain; charset=UTF-8 Content-Transfer-Encoding: 8bit X-Cron-Env: X-Cron-Env: X-Cron-Env: X-Cron-Env: Message-Id: <20210510033801.E2B2A20D73@wam-2.localdomain> Date: Sun, 9 May 2021 23:38:01 -0400 (EDT) /bin/sh: 1: /home/sinton/symlinks/TEAM99/ogoakinitchka2.sh: not found From sinton@wam-2.localdomain Sun May 9 23:38:01 2021 Return-Path: X-Original-To: sinton Delivered-To: sinton@wam-2.localdomain Received: by wam-2.localdomain (Postfix, from userid 1001) id F12A136E73; Sun, 9 May 2021 23:38:01 -0400 (EDT) From: root@wam-2.localdomain (Cron Daemon) To: sinton@wam-2.localdomain Subject: Cron ~/symlinks/TEAM1F/metin/apiv4.sh 1f > /dev/null MIME-Version: 1.0 Content-Type: text/plain; charset=UTF-8 Content-Transfer-Encoding: 8bit X-Cron-Env: X-Cron-Env: X-Cron-Env: X-Cron-Env: Message-Id: <20210510033801.F12A136E73@wam-2.localdomain> Date: Sun, 9 May 2021 23:38:01 -0400 (EDT) % Total % Received % Xferd Average Speed Time Time Time Current Dload Upload Total Spent Left Speed 0 0 0 0 0 0 0 0 --:--:-- --:--:-- --:--:-- 0 100 392 100 392 0 0 4962 0 --:--:-- --:--:-- --:--:-- 4962 From sinton@wam-2.localdomain Sun May 9 23:39:02 2021 Return-Path: X-Original-To: sinton Delivered-To: sinton@wam-2.localdomain Received: by wam-2.localdomain (Postfix, from userid 1001) id 34FCD39018; Sun, 9 May 2021 23:39:02 -0400 (EDT) From: root@wam-2.localdomain (Cron Daemon) To: sinton@wam-2.localdomain Subject: Cron ~/symlinks/TEAM99/ogoakinitchka2.sh 99 0.05 > /dev/null MIME-Version: 1.0 Content-Type: text/plain; charset=UTF-8 Content-Transfer-Encoding: 8bit X-Cron-Env: X-Cron-Env: X-Cron-Env: X-Cron-Env: Message-Id: <20210510033902.34FCD39018@wam-2.localdomain> Date: Sun, 9 May 2021 23:39:02 -0400 (EDT) /bin/sh: 1: /home/sinton/symlinks/TEAM99/ogoakinitchka2.sh: not found From sinton@wam-2.localdomain Sun May 9 23:39:02 2021 Return-Path: X-Original-To: sinton Delivered-To: sinton@wam-2.localdomain Received: by wam-2.localdomain (Postfix, from userid 1001) id 4466635D7B; Sun, 9 May 2021 23:39:02 -0400 (EDT) From: root@wam-2.localdomain (Cron Daemon) To: sinton@wam-2.localdomain Subject: Cron ~/symlinks/TEAM1F/metin/apiv4.sh 1f > /dev/null MIME-Version: 1.0 Content-Type: text/plain; charset=UTF-8 Content-Transfer-Encoding: 8bit X-Cron-Env: X-Cron-Env: X-Cron-Env: X-Cron-Env: Message-Id: <20210510033902.4466635D7B@wam-2.localdomain> Date: Sun, 9 May 2021 23:39:02 -0400 (EDT) % Total % Received % Xferd Average Speed Time Time Time Current Dload Upload Total Spent Left Speed 0 0 0 0 0 0 0 0 --:--:-- --:--:-- --:--:-- 0 100 391 100 391 0 0 4887 0 --:--:-- --:--:-- --:--:-- 4887 From sinton@wam-2.localdomain Sun May 9 23:40:01 2021 Return-Path: X-Original-To: sinton Delivered-To: sinton@wam-2.localdomain Received: by wam-2.localdomain (Postfix, from userid 1001) id 87C5E3919F; Sun, 9 May 2021 23:40:01 -0400 (EDT) From: root@wam-2.localdomain (Cron Daemon) To: sinton@wam-2.localdomain Subject: Cron ~/symlinks/TEAM99/ogoakinitchka2.sh 99 0.05 > /dev/null MIME-Version: 1.0 Content-Type: text/plain; charset=UTF-8 Content-Transfer-Encoding: 8bit X-Cron-Env: X-Cron-Env: X-Cron-Env: X-Cron-Env: Message-Id: <20210510034001.87C5E3919F@wam-2.localdomain> Date: Sun, 9 May 2021 23:40:01 -0400 (EDT) /bin/sh: 1: /home/sinton/symlinks/TEAM99/ogoakinitchka2.sh: not found From sinton@wam-2.localdomain Sun May 9 23:40:01 2021 Return-Path: X-Original-To: sinton Delivered-To: sinton@wam-2.localdomain Received: by wam-2.localdomain (Postfix, from userid 1001) id 9A330391AE; Sun, 9 May 2021 23:40:01 -0400 (EDT) From: root@wam-2.localdomain (Cron Daemon) To: sinton@wam-2.localdomain Subject: Cron ~/symlinks/TEAM1F/metin/apiv4.sh 1f > /dev/null MIME-Version: 1.0 Content-Type: text/plain; charset=UTF-8 Content-Transfer-Encoding: 8bit X-Cron-Env: X-Cron-Env: X-Cron-Env: X-Cron-Env: Message-Id: <20210510034001.9A330391AE@wam-2.localdomain> Date: Sun, 9 May 2021 23:40:01 -0400 (EDT) % Total % Received % Xferd Average Speed Time Time Time Current Dload Upload Total Spent Left Speed 0 0 0 0 0 0 0 0 --:--:-- --:--:-- --:--:-- 0 100 391 100 391 0 0 7666 0 --:--:-- --:--:-- --:--:-- 7666 From sinton@wam-2.localdomain Sun May 9 23:41:02 2021 Return-Path: X-Original-To: sinton Delivered-To: sinton@wam-2.localdomain Received: by wam-2.localdomain (Postfix, from userid 1001) id F2F7F3919D; Sun, 9 May 2021 23:41:01 -0400 (EDT) From: root@wam-2.localdomain (Cron Daemon) To: sinton@wam-2.localdomain Subject: Cron ~/symlinks/TEAM99/ogoakinitchka2.sh 99 0.05 > /dev/null MIME-Version: 1.0 Content-Type: text/plain; charset=UTF-8 Content-Transfer-Encoding: 8bit X-Cron-Env: X-Cron-Env: X-Cron-Env: X-Cron-Env: Message-Id: <20210510034101.F2F7F3919D@wam-2.localdomain> Date: Sun, 9 May 2021 23:41:01 -0400 (EDT) /bin/sh: 1: /home/sinton/symlinks/TEAM99/ogoakinitchka2.sh: not found From sinton@wam-2.localdomain Sun May 9 23:41:02 2021 Return-Path: X-Original-To: sinton Delivered-To: sinton@wam-2.localdomain Received: by wam-2.localdomain (Postfix, from userid 1001) id 1719E3919D; Sun, 9 May 2021 23:41:02 -0400 (EDT) From: root@wam-2.localdomain (Cron Daemon) To: sinton@wam-2.localdomain Subject: Cron ~/symlinks/TEAM1F/metin/apiv4.sh 1f > /dev/null MIME-Version: 1.0 Content-Type: text/plain; charset=UTF-8 Content-Transfer-Encoding: 8bit X-Cron-Env: X-Cron-Env: X-Cron-Env: X-Cron-Env: Message-Id: <20210510034102.1719E3919D@wam-2.localdomain> Date: Sun, 9 May 2021 23:41:02 -0400 (EDT) % Total % Received % Xferd Average Speed Time Time Time Current Dload Upload Total Spent Left Speed 0 0 0 0 0 0 0 0 --:--:-- --:--:-- --:--:-- 0 100 390 100 390 0 0 7090 0 --:--:-- --:--:-- --:--:-- 7090 From sinton@wam-2.localdomain Sun May 9 23:42:01 2021 Return-Path: X-Original-To: sinton Delivered-To: sinton@wam-2.localdomain Received: by wam-2.localdomain (Postfix, from userid 1001) id 47065391A9; Sun, 9 May 2021 23:42:01 -0400 (EDT) From: root@wam-2.localdomain (Cron Daemon) To: sinton@wam-2.localdomain Subject: Cron ~/symlinks/TEAM99/ogoakinitchka2.sh 99 0.05 > /dev/null MIME-Version: 1.0 Content-Type: text/plain; charset=UTF-8 Content-Transfer-Encoding: 8bit X-Cron-Env: X-Cron-Env: X-Cron-Env: X-Cron-Env: Message-Id: <20210510034201.47065391A9@wam-2.localdomain> Date: Sun, 9 May 2021 23:42:01 -0400 (EDT) /bin/sh: 1: /home/sinton/symlinks/TEAM99/ogoakinitchka2.sh: not found From sinton@wam-2.localdomain Sun May 9 23:42:01 2021 Return-Path: X-Original-To: sinton Delivered-To: sinton@wam-2.localdomain Received: by wam-2.localdomain (Postfix, from userid 1001) id 59B91391A9; Sun, 9 May 2021 23:42:01 -0400 (EDT) From: root@wam-2.localdomain (Cron Daemon) To: sinton@wam-2.localdomain Subject: Cron ~/symlinks/TEAM1F/metin/apiv4.sh 1f > /dev/null MIME-Version: 1.0 Content-Type: text/plain; charset=UTF-8 Content-Transfer-Encoding: 8bit X-Cron-Env: X-Cron-Env: X-Cron-Env: X-Cron-Env: Message-Id: <20210510034201.59B91391A9@wam-2.localdomain> Date: Sun, 9 May 2021 23:42:01 -0400 (EDT) % Total % Received % Xferd Average Speed Time Time Time Current Dload Upload Total Spent Left Speed 0 0 0 0 0 0 0 0 --:--:-- --:--:-- --:--:-- 0 100 392 100 392 0 0 4215 0 --:--:-- --:--:-- --:--:-- 4215 From sinton@wam-2.localdomain Sun May 9 23:43:01 2021 Return-Path: X-Original-To: sinton Delivered-To: sinton@wam-2.localdomain Received: by wam-2.localdomain (Postfix, from userid 1001) id 8B9D2391A6; Sun, 9 May 2021 23:43:01 -0400 (EDT) From: root@wam-2.localdomain (Cron Daemon) To: sinton@wam-2.localdomain Subject: Cron ~/symlinks/TEAM99/ogoakinitchka2.sh 99 0.05 > /dev/null MIME-Version: 1.0 Content-Type: text/plain; charset=UTF-8 Content-Transfer-Encoding: 8bit X-Cron-Env: X-Cron-Env: X-Cron-Env: X-Cron-Env: Message-Id: <20210510034301.8B9D2391A6@wam-2.localdomain> Date: Sun, 9 May 2021 23:43:01 -0400 (EDT) /bin/sh: 1: /home/sinton/symlinks/TEAM99/ogoakinitchka2.sh: not found From sinton@wam-2.localdomain Sun May 9 23:43:01 2021 Return-Path: X-Original-To: sinton Delivered-To: sinton@wam-2.localdomain Received: by wam-2.localdomain (Postfix, from userid 1001) id A5F6F391A6; Sun, 9 May 2021 23:43:01 -0400 (EDT) From: root@wam-2.localdomain (Cron Daemon) To: sinton@wam-2.localdomain Subject: Cron ~/symlinks/TEAM1F/metin/apiv4.sh 1f > /dev/null MIME-Version: 1.0 Content-Type: text/plain; charset=UTF-8 Content-Transfer-Encoding: 8bit X-Cron-Env: X-Cron-Env: X-Cron-Env: X-Cron-Env: Message-Id: <20210510034301.A5F6F391A6@wam-2.localdomain> Date: Sun, 9 May 2021 23:43:01 -0400 (EDT) % Total % Received % Xferd Average Speed Time Time Time Current Dload Upload Total Spent Left Speed 0 0 0 0 0 0 0 0 --:--:-- --:--:-- --:--:-- 0 100 391 100 391 0 0 4887 0 --:--:-- --:--:-- --:--:-- 4887 From sinton@wam-2.localdomain Sun May 9 23:44:01 2021 Return-Path: X-Original-To: sinton Delivered-To: sinton@wam-2.localdomain Received: by wam-2.localdomain (Postfix, from userid 1001) id E2BAF391AB; Sun, 9 May 2021 23:44:01 -0400 (EDT) From: root@wam-2.localdomain (Cron Daemon) To: sinton@wam-2.localdomain Subject: Cron ~/symlinks/TEAM99/ogoakinitchka2.sh 99 0.05 > /dev/null MIME-Version: 1.0 Content-Type: text/plain; charset=UTF-8 Content-Transfer-Encoding: 8bit X-Cron-Env: X-Cron-Env: X-Cron-Env: X-Cron-Env: Message-Id: <20210510034401.E2BAF391AB@wam-2.localdomain> Date: Sun, 9 May 2021 23:44:01 -0400 (EDT) /bin/sh: 1: /home/sinton/symlinks/TEAM99/ogoakinitchka2.sh: not found From sinton@wam-2.localdomain Sun May 9 23:44:01 2021 Return-Path: X-Original-To: sinton Delivered-To: sinton@wam-2.localdomain Received: by wam-2.localdomain (Postfix, from userid 1001) id F186F391B6; Sun, 9 May 2021 23:44:01 -0400 (EDT) From: root@wam-2.localdomain (Cron Daemon) To: sinton@wam-2.localdomain Subject: Cron ~/symlinks/TEAM1F/metin/apiv4.sh 1f > /dev/null MIME-Version: 1.0 Content-Type: text/plain; charset=UTF-8 Content-Transfer-Encoding: 8bit X-Cron-Env: X-Cron-Env: X-Cron-Env: X-Cron-Env: Message-Id: <20210510034401.F186F391B6@wam-2.localdomain> Date: Sun, 9 May 2021 23:44:01 -0400 (EDT) % Total % Received % Xferd Average Speed Time Time Time Current Dload Upload Total Spent Left Speed 0 0 0 0 0 0 0 0 --:--:-- --:--:-- --:--:-- 0 100 392 100 392 0 0 6426 0 --:--:-- --:--:-- --:--:-- 6426 From sinton@wam-2.localdomain Sun May 9 23:44:19 2021 Return-Path: X-Original-To: sinton Delivered-To: sinton@wam-2.localdomain Received: by wam-2.localdomain (Postfix, from userid 1001) id 85D98391B6; Sun, 9 May 2021 23:44:19 -0400 (EDT) From: root@wam-2.localdomain (Cron Daemon) To: sinton@wam-2.localdomain Subject: Cron bash -c "sleep $[RANDOM%14]m" ; ~/symlinks/TEAM2/fcst/startfcst.pl 2 > /dev/null MIME-Version: 1.0 Content-Type: text/plain; charset=UTF-8 Content-Transfer-Encoding: 8bit X-Cron-Env: X-Cron-Env: X-Cron-Env: X-Cron-Env: Message-Id: <20210510034419.85D98391B6@wam-2.localdomain> Date: Sun, 9 May 2021 23:44:19 -0400 (EDT) # CSV_XS ERROR: 2034 - EIF - Loose unescaped quote @ rec 0 pos 29 field 1 From sinton@wam-2.localdomain Sun May 9 23:45:01 2021 Return-Path: X-Original-To: sinton Delivered-To: sinton@wam-2.localdomain Received: by wam-2.localdomain (Postfix, from userid 1001) id BEAB6391B0; Sun, 9 May 2021 23:45:01 -0400 (EDT) From: root@wam-2.localdomain (Cron Daemon) To: sinton@wam-2.localdomain Subject: Cron ~/symlinks/TEAM99/ogoakinitchka2.sh 99 0.05 > /dev/null MIME-Version: 1.0 Content-Type: text/plain; charset=UTF-8 Content-Transfer-Encoding: 8bit X-Cron-Env: X-Cron-Env: X-Cron-Env: X-Cron-Env: Message-Id: <20210510034501.BEAB6391B0@wam-2.localdomain> Date: Sun, 9 May 2021 23:45:01 -0400 (EDT) /bin/sh: 1: /home/sinton/symlinks/TEAM99/ogoakinitchka2.sh: not found From sinton@wam-2.localdomain Sun May 9 23:45:01 2021 Return-Path: X-Original-To: sinton Delivered-To: sinton@wam-2.localdomain Received: by wam-2.localdomain (Postfix, from userid 1001) id D042B391B0; Sun, 9 May 2021 23:45:01 -0400 (EDT) From: root@wam-2.localdomain (Cron Daemon) To: sinton@wam-2.localdomain Subject: Cron ~/symlinks/TEAM1F/metin/apiv4.sh 1f > /dev/null MIME-Version: 1.0 Content-Type: text/plain; charset=UTF-8 Content-Transfer-Encoding: 8bit X-Cron-Env: X-Cron-Env: X-Cron-Env: X-Cron-Env: Message-Id: <20210510034501.D042B391B0@wam-2.localdomain> Date: Sun, 9 May 2021 23:45:01 -0400 (EDT) % Total % Received % Xferd Average Speed Time Time Time Current Dload Upload Total Spent Left Speed 0 0 0 0 0 0 0 0 --:--:-- --:--:-- --:--:-- 0 100 391 100 391 0 0 3949 0 --:--:-- --:--:-- --:--:-- 3949 From sinton@wam-2.localdomain Sun May 9 23:46:02 2021 Return-Path: X-Original-To: sinton Delivered-To: sinton@wam-2.localdomain Received: by wam-2.localdomain (Postfix, from userid 1001) id 21A92391C2; Sun, 9 May 2021 23:46:02 -0400 (EDT) From: root@wam-2.localdomain (Cron Daemon) To: sinton@wam-2.localdomain Subject: Cron ~/symlinks/TEAM99/ogoakinitchka2.sh 99 0.05 > /dev/null MIME-Version: 1.0 Content-Type: text/plain; charset=UTF-8 Content-Transfer-Encoding: 8bit X-Cron-Env: X-Cron-Env: X-Cron-Env: X-Cron-Env: Message-Id: <20210510034602.21A92391C2@wam-2.localdomain> Date: Sun, 9 May 2021 23:46:02 -0400 (EDT) /bin/sh: 1: /home/sinton/symlinks/TEAM99/ogoakinitchka2.sh: not found From sinton@wam-2.localdomain Sun May 9 23:46:02 2021 Return-Path: X-Original-To: sinton Delivered-To: sinton@wam-2.localdomain Received: by wam-2.localdomain (Postfix, from userid 1001) id 488523917F; Sun, 9 May 2021 23:46:02 -0400 (EDT) From: root@wam-2.localdomain (Cron Daemon) To: sinton@wam-2.localdomain Subject: Cron ~/symlinks/TEAM1F/metin/apiv4.sh 1f > /dev/null MIME-Version: 1.0 Content-Type: text/plain; charset=UTF-8 Content-Transfer-Encoding: 8bit X-Cron-Env: X-Cron-Env: X-Cron-Env: X-Cron-Env: Message-Id: <20210510034602.488523917F@wam-2.localdomain> Date: Sun, 9 May 2021 23:46:02 -0400 (EDT) % Total % Received % Xferd Average Speed Time Time Time Current Dload Upload Total Spent Left Speed 0 0 0 0 0 0 0 0 --:--:-- --:--:-- --:--:-- 0 100 391 100 391 0 0 2555 0 --:--:-- --:--:-- --:--:-- 2555 From sinton@wam-2.localdomain Sun May 9 23:47:01 2021 Return-Path: X-Original-To: sinton Delivered-To: sinton@wam-2.localdomain Received: by wam-2.localdomain (Postfix, from userid 1001) id 7DDBB3777A; Sun, 9 May 2021 23:47:01 -0400 (EDT) From: root@wam-2.localdomain (Cron Daemon) To: sinton@wam-2.localdomain Subject: Cron ~/symlinks/TEAM99/ogoakinitchka2.sh 99 0.05 > /dev/null MIME-Version: 1.0 Content-Type: text/plain; charset=UTF-8 Content-Transfer-Encoding: 8bit X-Cron-Env: X-Cron-Env: X-Cron-Env: X-Cron-Env: Message-Id: <20210510034701.7DDBB3777A@wam-2.localdomain> Date: Sun, 9 May 2021 23:47:01 -0400 (EDT) /bin/sh: 1: /home/sinton/symlinks/TEAM99/ogoakinitchka2.sh: not found From sinton@wam-2.localdomain Sun May 9 23:47:01 2021 Return-Path: X-Original-To: sinton Delivered-To: sinton@wam-2.localdomain Received: by wam-2.localdomain (Postfix, from userid 1001) id 8F56A3777A; Sun, 9 May 2021 23:47:01 -0400 (EDT) From: root@wam-2.localdomain (Cron Daemon) To: sinton@wam-2.localdomain Subject: Cron ~/symlinks/TEAM1F/metin/apiv4.sh 1f > /dev/null MIME-Version: 1.0 Content-Type: text/plain; charset=UTF-8 Content-Transfer-Encoding: 8bit X-Cron-Env: X-Cron-Env: X-Cron-Env: X-Cron-Env: Message-Id: <20210510034701.8F56A3777A@wam-2.localdomain> Date: Sun, 9 May 2021 23:47:01 -0400 (EDT) % Total % Received % Xferd Average Speed Time Time Time Current Dload Upload Total Spent Left Speed 0 0 0 0 0 0 0 0 --:--:-- --:--:-- --:--:-- 0 100 390 100 390 0 0 6290 0 --:--:-- --:--:-- --:--:-- 6393 From sinton@wam-2.localdomain Sun May 9 23:48:01 2021 Return-Path: X-Original-To: sinton Delivered-To: sinton@wam-2.localdomain Received: by wam-2.localdomain (Postfix, from userid 1001) id F103738EF1; Sun, 9 May 2021 23:48:01 -0400 (EDT) From: root@wam-2.localdomain (Cron Daemon) To: sinton@wam-2.localdomain Subject: Cron ~/symlinks/TEAM99/ogoakinitchka2.sh 99 0.05 > /dev/null MIME-Version: 1.0 Content-Type: text/plain; charset=UTF-8 Content-Transfer-Encoding: 8bit X-Cron-Env: X-Cron-Env: X-Cron-Env: X-Cron-Env: Message-Id: <20210510034801.F103738EF1@wam-2.localdomain> Date: Sun, 9 May 2021 23:48:01 -0400 (EDT) /bin/sh: 1: /home/sinton/symlinks/TEAM99/ogoakinitchka2.sh: not found From sinton@wam-2.localdomain Sun May 9 23:48:02 2021 Return-Path: X-Original-To: sinton Delivered-To: sinton@wam-2.localdomain Received: by wam-2.localdomain (Postfix, from userid 1001) id 2125438FAD; Sun, 9 May 2021 23:48:02 -0400 (EDT) From: root@wam-2.localdomain (Cron Daemon) To: sinton@wam-2.localdomain Subject: Cron ~/symlinks/TEAM1F/metin/apiv4.sh 1f > /dev/null MIME-Version: 1.0 Content-Type: text/plain; charset=UTF-8 Content-Transfer-Encoding: 8bit X-Cron-Env: X-Cron-Env: X-Cron-Env: X-Cron-Env: Message-Id: <20210510034802.2125438FAD@wam-2.localdomain> Date: Sun, 9 May 2021 23:48:02 -0400 (EDT) % Total % Received % Xferd Average Speed Time Time Time Current Dload Upload Total Spent Left Speed 0 0 0 0 0 0 0 0 --:--:-- --:--:-- --:--:-- 0 100 390 100 390 0 0 2727 0 --:--:-- --:--:-- --:--:-- 2746 From sinton@wam-2.localdomain Sun May 9 23:48:16 2021 Return-Path: X-Original-To: sinton Delivered-To: sinton@wam-2.localdomain Received: by wam-2.localdomain (Postfix, from userid 1001) id 8B84D391C2; Sun, 9 May 2021 23:48:16 -0400 (EDT) From: root@wam-2.localdomain (Cron Daemon) To: sinton@wam-2.localdomain Subject: Cron bash -c "sleep $[RANDOM%14]m" ; ~/symlinks/TEAM8/fcst/startfcst.pl 8 > /dev/null MIME-Version: 1.0 Content-Type: text/plain; charset=UTF-8 Content-Transfer-Encoding: 8bit X-Cron-Env: X-Cron-Env: X-Cron-Env: X-Cron-Env: Message-Id: <20210510034816.8B84D391C2@wam-2.localdomain> Date: Sun, 9 May 2021 23:48:16 -0400 (EDT) # CSV_XS ERROR: 2034 - EIF - Loose unescaped quote @ rec 0 pos 29 field 1 From sinton@wam-2.localdomain Sun May 9 23:49:01 2021 Return-Path: X-Original-To: sinton Delivered-To: sinton@wam-2.localdomain Received: by wam-2.localdomain (Postfix, from userid 1001) id BF1CA391DA; Sun, 9 May 2021 23:49:01 -0400 (EDT) From: root@wam-2.localdomain (Cron Daemon) To: sinton@wam-2.localdomain Subject: Cron ~/symlinks/TEAM99/ogoakinitchka2.sh 99 0.05 > /dev/null MIME-Version: 1.0 Content-Type: text/plain; charset=UTF-8 Content-Transfer-Encoding: 8bit X-Cron-Env: X-Cron-Env: X-Cron-Env: X-Cron-Env: Message-Id: <20210510034901.BF1CA391DA@wam-2.localdomain> Date: Sun, 9 May 2021 23:49:01 -0400 (EDT) /bin/sh: 1: /home/sinton/symlinks/TEAM99/ogoakinitchka2.sh: not found From sinton@wam-2.localdomain Sun May 9 23:49:01 2021 Return-Path: X-Original-To: sinton Delivered-To: sinton@wam-2.localdomain Received: by wam-2.localdomain (Postfix, from userid 1001) id D1752391DA; Sun, 9 May 2021 23:49:01 -0400 (EDT) From: root@wam-2.localdomain (Cron Daemon) To: sinton@wam-2.localdomain Subject: Cron ~/symlinks/TEAM1F/metin/apiv4.sh 1f > /dev/null MIME-Version: 1.0 Content-Type: text/plain; charset=UTF-8 Content-Transfer-Encoding: 8bit X-Cron-Env: X-Cron-Env: X-Cron-Env: X-Cron-Env: Message-Id: <20210510034901.D1752391DA@wam-2.localdomain> Date: Sun, 9 May 2021 23:49:01 -0400 (EDT) % Total % Received % Xferd Average Speed Time Time Time Current Dload Upload Total Spent Left Speed 0 0 0 0 0 0 0 0 --:--:-- --:--:-- --:--:-- 0 100 391 100 391 0 0 6516 0 --:--:-- --:--:-- --:--:-- 6516 From sinton@wam-2.localdomain Sun May 9 23:50:02 2021 Return-Path: X-Original-To: sinton Delivered-To: sinton@wam-2.localdomain Received: by wam-2.localdomain (Postfix, from userid 1001) id 1962F391EA; Sun, 9 May 2021 23:50:02 -0400 (EDT) From: root@wam-2.localdomain (Cron Daemon) To: sinton@wam-2.localdomain Subject: Cron ~/symlinks/TEAM99/ogoakinitchka2.sh 99 0.05 > /dev/null MIME-Version: 1.0 Content-Type: text/plain; charset=UTF-8 Content-Transfer-Encoding: 8bit X-Cron-Env: X-Cron-Env: X-Cron-Env: X-Cron-Env: Message-Id: <20210510035002.1962F391EA@wam-2.localdomain> Date: Sun, 9 May 2021 23:50:02 -0400 (EDT) /bin/sh: 1: /home/sinton/symlinks/TEAM99/ogoakinitchka2.sh: not found From sinton@wam-2.localdomain Sun May 9 23:50:02 2021 Return-Path: X-Original-To: sinton Delivered-To: sinton@wam-2.localdomain Received: by wam-2.localdomain (Postfix, from userid 1001) id 30835391EA; Sun, 9 May 2021 23:50:02 -0400 (EDT) From: root@wam-2.localdomain (Cron Daemon) To: sinton@wam-2.localdomain Subject: Cron ~/symlinks/TEAM1F/metin/apiv4.sh 1f > /dev/null MIME-Version: 1.0 Content-Type: text/plain; charset=UTF-8 Content-Transfer-Encoding: 8bit X-Cron-Env: X-Cron-Env: X-Cron-Env: X-Cron-Env: Message-Id: <20210510035002.30835391EA@wam-2.localdomain> Date: Sun, 9 May 2021 23:50:02 -0400 (EDT) % Total % Received % Xferd Average Speed Time Time Time Current Dload Upload Total Spent Left Speed 0 0 0 0 0 0 0 0 --:--:-- --:--:-- --:--:-- 0 100 390 100 390 0 0 7222 0 --:--:-- --:--:-- --:--:-- 7222 From sinton@wam-2.localdomain Sun May 9 23:51:01 2021 Return-Path: X-Original-To: sinton Delivered-To: sinton@wam-2.localdomain Received: by wam-2.localdomain (Postfix, from userid 1001) id 77DB5391DD; Sun, 9 May 2021 23:51:01 -0400 (EDT) From: root@wam-2.localdomain (Cron Daemon) To: sinton@wam-2.localdomain Subject: Cron ~/symlinks/TEAM99/ogoakinitchka2.sh 99 0.05 > /dev/null MIME-Version: 1.0 Content-Type: text/plain; charset=UTF-8 Content-Transfer-Encoding: 8bit X-Cron-Env: X-Cron-Env: X-Cron-Env: X-Cron-Env: Message-Id: <20210510035101.77DB5391DD@wam-2.localdomain> Date: Sun, 9 May 2021 23:51:01 -0400 (EDT) /bin/sh: 1: /home/sinton/symlinks/TEAM99/ogoakinitchka2.sh: not found From sinton@wam-2.localdomain Sun May 9 23:51:01 2021 Return-Path: X-Original-To: sinton Delivered-To: sinton@wam-2.localdomain Received: by wam-2.localdomain (Postfix, from userid 1001) id 8F142391DD; Sun, 9 May 2021 23:51:01 -0400 (EDT) From: root@wam-2.localdomain (Cron Daemon) To: sinton@wam-2.localdomain Subject: Cron ~/symlinks/TEAM1F/metin/apiv4.sh 1f > /dev/null MIME-Version: 1.0 Content-Type: text/plain; charset=UTF-8 Content-Transfer-Encoding: 8bit X-Cron-Env: X-Cron-Env: X-Cron-Env: X-Cron-Env: Message-Id: <20210510035101.8F142391DD@wam-2.localdomain> Date: Sun, 9 May 2021 23:51:01 -0400 (EDT) % Total % Received % Xferd Average Speed Time Time Time Current Dload Upload Total Spent Left Speed 0 0 0 0 0 0 0 0 --:--:-- --:--:-- --:--:-- 0 100 390 100 390 0 0 5270 0 --:--:-- --:--:-- --:--:-- 5416 From sinton@wam-2.localdomain Sun May 9 23:52:01 2021 Return-Path: X-Original-To: sinton Delivered-To: sinton@wam-2.localdomain Received: by wam-2.localdomain (Postfix, from userid 1001) id C6B7E391F3; Sun, 9 May 2021 23:52:01 -0400 (EDT) From: root@wam-2.localdomain (Cron Daemon) To: sinton@wam-2.localdomain Subject: Cron ~/symlinks/TEAM99/ogoakinitchka2.sh 99 0.05 > /dev/null MIME-Version: 1.0 Content-Type: text/plain; charset=UTF-8 Content-Transfer-Encoding: 8bit X-Cron-Env: X-Cron-Env: X-Cron-Env: X-Cron-Env: Message-Id: <20210510035201.C6B7E391F3@wam-2.localdomain> Date: Sun, 9 May 2021 23:52:01 -0400 (EDT) /bin/sh: 1: /home/sinton/symlinks/TEAM99/ogoakinitchka2.sh: not found From sinton@wam-2.localdomain Sun May 9 23:52:01 2021 Return-Path: X-Original-To: sinton Delivered-To: sinton@wam-2.localdomain Received: by wam-2.localdomain (Postfix, from userid 1001) id D6C83391F3; Sun, 9 May 2021 23:52:01 -0400 (EDT) From: root@wam-2.localdomain (Cron Daemon) To: sinton@wam-2.localdomain Subject: Cron ~/symlinks/TEAM1F/metin/apiv4.sh 1f > /dev/null MIME-Version: 1.0 Content-Type: text/plain; charset=UTF-8 Content-Transfer-Encoding: 8bit X-Cron-Env: X-Cron-Env: X-Cron-Env: X-Cron-Env: Message-Id: <20210510035201.D6C83391F3@wam-2.localdomain> Date: Sun, 9 May 2021 23:52:01 -0400 (EDT) % Total % Received % Xferd Average Speed Time Time Time Current Dload Upload Total Spent Left Speed 0 0 0 0 0 0 0 0 --:--:-- --:--:-- --:--:-- 0 100 392 100 392 0 0 5521 0 --:--:-- --:--:-- --:--:-- 5600 From sinton@wam-2.localdomain Sun May 9 23:53:02 2021 Return-Path: X-Original-To: sinton Delivered-To: sinton@wam-2.localdomain Received: by wam-2.localdomain (Postfix, from userid 1001) id 2F239391DD; Sun, 9 May 2021 23:53:02 -0400 (EDT) From: root@wam-2.localdomain (Cron Daemon) To: sinton@wam-2.localdomain Subject: Cron ~/symlinks/TEAM99/ogoakinitchka2.sh 99 0.05 > /dev/null MIME-Version: 1.0 Content-Type: text/plain; charset=UTF-8 Content-Transfer-Encoding: 8bit X-Cron-Env: X-Cron-Env: X-Cron-Env: X-Cron-Env: Message-Id: <20210510035302.2F239391DD@wam-2.localdomain> Date: Sun, 9 May 2021 23:53:02 -0400 (EDT) /bin/sh: 1: /home/sinton/symlinks/TEAM99/ogoakinitchka2.sh: not found From sinton@wam-2.localdomain Sun May 9 23:53:02 2021 Return-Path: X-Original-To: sinton Delivered-To: sinton@wam-2.localdomain Received: by wam-2.localdomain (Postfix, from userid 1001) id 3C60C391DD; Sun, 9 May 2021 23:53:02 -0400 (EDT) From: root@wam-2.localdomain (Cron Daemon) To: sinton@wam-2.localdomain Subject: Cron ~/symlinks/TEAM1F/metin/apiv4.sh 1f > /dev/null MIME-Version: 1.0 Content-Type: text/plain; charset=UTF-8 Content-Transfer-Encoding: 8bit X-Cron-Env: X-Cron-Env: X-Cron-Env: X-Cron-Env: Message-Id: <20210510035302.3C60C391DD@wam-2.localdomain> Date: Sun, 9 May 2021 23:53:02 -0400 (EDT) % Total % Received % Xferd Average Speed Time Time Time Current Dload Upload Total Spent Left Speed 0 0 0 0 0 0 0 0 --:--:-- --:--:-- --:--:-- 0 100 392 100 392 0 0 6222 0 --:--:-- --:--:-- --:--:-- 6222 From sinton@wam-2.localdomain Sun May 9 23:53:21 2021 Return-Path: X-Original-To: sinton Delivered-To: sinton@wam-2.localdomain Received: by wam-2.localdomain (Postfix, from userid 1001) id EFAD8391EC; Sun, 9 May 2021 23:53:21 -0400 (EDT) From: root@wam-2.localdomain (Cron Daemon) To: sinton@wam-2.localdomain Subject: Cron bash -c "sleep $[RANDOM%14]m" ; ~/symlinks/TEAM1/fcst/startfcst.pl 1 > /dev/null MIME-Version: 1.0 Content-Type: text/plain; charset=UTF-8 Content-Transfer-Encoding: 8bit X-Cron-Env: X-Cron-Env: X-Cron-Env: X-Cron-Env: Message-Id: <20210510035321.EFAD8391EC@wam-2.localdomain> Date: Sun, 9 May 2021 23:53:21 -0400 (EDT) # CSV_XS ERROR: 2034 - EIF - Loose unescaped quote @ rec 0 pos 29 field 1 From sinton@wam-2.localdomain Sun May 9 23:54:01 2021 Return-Path: X-Original-To: sinton Delivered-To: sinton@wam-2.localdomain Received: by wam-2.localdomain (Postfix, from userid 1001) id 6FFFF391FE; Sun, 9 May 2021 23:54:01 -0400 (EDT) From: root@wam-2.localdomain (Cron Daemon) To: sinton@wam-2.localdomain Subject: Cron ~/symlinks/TEAM99/ogoakinitchka2.sh 99 0.05 > /dev/null MIME-Version: 1.0 Content-Type: text/plain; charset=UTF-8 Content-Transfer-Encoding: 8bit X-Cron-Env: X-Cron-Env: X-Cron-Env: X-Cron-Env: Message-Id: <20210510035401.6FFFF391FE@wam-2.localdomain> Date: Sun, 9 May 2021 23:54:01 -0400 (EDT) /bin/sh: 1: /home/sinton/symlinks/TEAM99/ogoakinitchka2.sh: not found From sinton@wam-2.localdomain Sun May 9 23:54:01 2021 Return-Path: X-Original-To: sinton Delivered-To: sinton@wam-2.localdomain Received: by wam-2.localdomain (Postfix, from userid 1001) id 86C20391FE; Sun, 9 May 2021 23:54:01 -0400 (EDT) From: root@wam-2.localdomain (Cron Daemon) To: sinton@wam-2.localdomain Subject: Cron ~/symlinks/TEAM1F/metin/apiv4.sh 1f > /dev/null MIME-Version: 1.0 Content-Type: text/plain; charset=UTF-8 Content-Transfer-Encoding: 8bit X-Cron-Env: X-Cron-Env: X-Cron-Env: X-Cron-Env: Message-Id: <20210510035401.86C20391FE@wam-2.localdomain> Date: Sun, 9 May 2021 23:54:01 -0400 (EDT) % Total % Received % Xferd Average Speed Time Time Time Current Dload Upload Total Spent Left Speed 0 0 0 0 0 0 0 0 --:--:-- --:--:-- --:--:-- 0 100 391 100 391 0 0 4827 0 --:--:-- --:--:-- --:--:-- 4827 From sinton@wam-2.localdomain Sun May 9 23:55:01 2021 Return-Path: X-Original-To: sinton Delivered-To: sinton@wam-2.localdomain Received: by wam-2.localdomain (Postfix, from userid 1001) id C1343391F9; Sun, 9 May 2021 23:55:01 -0400 (EDT) From: root@wam-2.localdomain (Cron Daemon) To: sinton@wam-2.localdomain Subject: Cron ~/symlinks/TEAM99/ogoakinitchka2.sh 99 0.05 > /dev/null MIME-Version: 1.0 Content-Type: text/plain; charset=UTF-8 Content-Transfer-Encoding: 8bit X-Cron-Env: X-Cron-Env: X-Cron-Env: X-Cron-Env: Message-Id: <20210510035501.C1343391F9@wam-2.localdomain> Date: Sun, 9 May 2021 23:55:01 -0400 (EDT) /bin/sh: 1: /home/sinton/symlinks/TEAM99/ogoakinitchka2.sh: not found From sinton@wam-2.localdomain Sun May 9 23:55:01 2021 Return-Path: X-Original-To: sinton Delivered-To: sinton@wam-2.localdomain Received: by wam-2.localdomain (Postfix, from userid 1001) id CD5A9391F9; Sun, 9 May 2021 23:55:01 -0400 (EDT) From: root@wam-2.localdomain (Cron Daemon) To: sinton@wam-2.localdomain Subject: Cron ~/symlinks/TEAM1F/metin/apiv4.sh 1f > /dev/null MIME-Version: 1.0 Content-Type: text/plain; charset=UTF-8 Content-Transfer-Encoding: 8bit X-Cron-Env: X-Cron-Env: X-Cron-Env: X-Cron-Env: Message-Id: <20210510035501.CD5A9391F9@wam-2.localdomain> Date: Sun, 9 May 2021 23:55:01 -0400 (EDT) % Total % Received % Xferd Average Speed Time Time Time Current Dload Upload Total Spent Left Speed 0 0 0 0 0 0 0 0 --:--:-- --:--:-- --:--:-- 0 100 391 100 391 0 0 7109 0 --:--:-- --:--:-- --:--:-- 7109 From sinton@wam-2.localdomain Sun May 9 23:56:02 2021 Return-Path: X-Original-To: sinton Delivered-To: sinton@wam-2.localdomain Received: by wam-2.localdomain (Postfix, from userid 1001) id 3B2DE391BD; Sun, 9 May 2021 23:56:02 -0400 (EDT) From: root@wam-2.localdomain (Cron Daemon) To: sinton@wam-2.localdomain Subject: Cron ~/symlinks/TEAM99/ogoakinitchka2.sh 99 0.05 > /dev/null MIME-Version: 1.0 Content-Type: text/plain; charset=UTF-8 Content-Transfer-Encoding: 8bit X-Cron-Env: X-Cron-Env: X-Cron-Env: X-Cron-Env: Message-Id: <20210510035602.3B2DE391BD@wam-2.localdomain> Date: Sun, 9 May 2021 23:56:02 -0400 (EDT) /bin/sh: 1: /home/sinton/symlinks/TEAM99/ogoakinitchka2.sh: not found From sinton@wam-2.localdomain Sun May 9 23:56:02 2021 Return-Path: X-Original-To: sinton Delivered-To: sinton@wam-2.localdomain Received: by wam-2.localdomain (Postfix, from userid 1001) id 46E5C391F0; Sun, 9 May 2021 23:56:02 -0400 (EDT) From: root@wam-2.localdomain (Cron Daemon) To: sinton@wam-2.localdomain Subject: Cron ~/symlinks/TEAM1F/metin/apiv4.sh 1f > /dev/null MIME-Version: 1.0 Content-Type: text/plain; charset=UTF-8 Content-Transfer-Encoding: 8bit X-Cron-Env: X-Cron-Env: X-Cron-Env: X-Cron-Env: Message-Id: <20210510035602.46E5C391F0@wam-2.localdomain> Date: Sun, 9 May 2021 23:56:02 -0400 (EDT) % Total % Received % Xferd Average Speed Time Time Time Current Dload Upload Total Spent Left Speed 0 0 0 0 0 0 0 0 --:--:-- --:--:-- --:--:-- 0 100 389 100 389 0 0 5893 0 --:--:-- --:--:-- --:--:-- 5893 From sinton@wam-2.localdomain Sun May 9 23:57:01 2021 Return-Path: X-Original-To: sinton Delivered-To: sinton@wam-2.localdomain Received: by wam-2.localdomain (Postfix, from userid 1001) id 7A20F39201; Sun, 9 May 2021 23:57:01 -0400 (EDT) From: root@wam-2.localdomain (Cron Daemon) To: sinton@wam-2.localdomain Subject: Cron ~/symlinks/TEAM99/ogoakinitchka2.sh 99 0.05 > /dev/null MIME-Version: 1.0 Content-Type: text/plain; charset=UTF-8 Content-Transfer-Encoding: 8bit X-Cron-Env: X-Cron-Env: X-Cron-Env: X-Cron-Env: Message-Id: <20210510035701.7A20F39201@wam-2.localdomain> Date: Sun, 9 May 2021 23:57:01 -0400 (EDT) /bin/sh: 1: /home/sinton/symlinks/TEAM99/ogoakinitchka2.sh: not found From sinton@wam-2.localdomain Sun May 9 23:57:01 2021 Return-Path: X-Original-To: sinton Delivered-To: sinton@wam-2.localdomain Received: by wam-2.localdomain (Postfix, from userid 1001) id 8B9DA39201; Sun, 9 May 2021 23:57:01 -0400 (EDT) From: root@wam-2.localdomain (Cron Daemon) To: sinton@wam-2.localdomain Subject: Cron ~/symlinks/TEAM1F/metin/apiv4.sh 1f > /dev/null MIME-Version: 1.0 Content-Type: text/plain; charset=UTF-8 Content-Transfer-Encoding: 8bit X-Cron-Env: X-Cron-Env: X-Cron-Env: X-Cron-Env: Message-Id: <20210510035701.8B9DA39201@wam-2.localdomain> Date: Sun, 9 May 2021 23:57:01 -0400 (EDT) % Total % Received % Xferd Average Speed Time Time Time Current Dload Upload Total Spent Left Speed 0 0 0 0 0 0 0 0 --:--:-- --:--:-- --:--:-- 0 100 389 100 389 0 0 7072 0 --:--:-- --:--:-- --:--:-- 7072 From sinton@wam-2.localdomain Sun May 9 23:58:02 2021 Return-Path: X-Original-To: sinton Delivered-To: sinton@wam-2.localdomain Received: by wam-2.localdomain (Postfix, from userid 1001) id 2C595391FE; Sun, 9 May 2021 23:58:02 -0400 (EDT) From: root@wam-2.localdomain (Cron Daemon) To: sinton@wam-2.localdomain Subject: Cron ~/symlinks/TEAM99/ogoakinitchka2.sh 99 0.05 > /dev/null MIME-Version: 1.0 Content-Type: text/plain; charset=UTF-8 Content-Transfer-Encoding: 8bit X-Cron-Env: X-Cron-Env: X-Cron-Env: X-Cron-Env: Message-Id: <20210510035802.2C595391FE@wam-2.localdomain> Date: Sun, 9 May 2021 23:58:02 -0400 (EDT) /bin/sh: 1: /home/sinton/symlinks/TEAM99/ogoakinitchka2.sh: not found From sinton@wam-2.localdomain Sun May 9 23:58:02 2021 Return-Path: X-Original-To: sinton Delivered-To: sinton@wam-2.localdomain Received: by wam-2.localdomain (Postfix, from userid 1001) id 3CFF9391FE; Sun, 9 May 2021 23:58:02 -0400 (EDT) From: root@wam-2.localdomain (Cron Daemon) To: sinton@wam-2.localdomain Subject: Cron ~/symlinks/TEAM1F/metin/apiv4.sh 1f > /dev/null MIME-Version: 1.0 Content-Type: text/plain; charset=UTF-8 Content-Transfer-Encoding: 8bit X-Cron-Env: X-Cron-Env: X-Cron-Env: X-Cron-Env: Message-Id: <20210510035802.3CFF9391FE@wam-2.localdomain> Date: Sun, 9 May 2021 23:58:02 -0400 (EDT) % Total % Received % Xferd Average Speed Time Time Time Current Dload Upload Total Spent Left Speed 0 0 0 0 0 0 0 0 --:--:-- --:--:-- --:--:-- 0 100 391 100 391 0 0 5012 0 --:--:-- --:--:-- --:--:-- 5012 From sinton@wam-2.localdomain Sun May 9 23:59:01 2021 Return-Path: X-Original-To: sinton Delivered-To: sinton@wam-2.localdomain Received: by wam-2.localdomain (Postfix, from userid 1001) id 72E3639199; Sun, 9 May 2021 23:59:01 -0400 (EDT) From: root@wam-2.localdomain (Cron Daemon) To: sinton@wam-2.localdomain Subject: Cron ~/symlinks/TEAM99/ogoakinitchka2.sh 99 0.05 > /dev/null MIME-Version: 1.0 Content-Type: text/plain; charset=UTF-8 Content-Transfer-Encoding: 8bit X-Cron-Env: X-Cron-Env: X-Cron-Env: X-Cron-Env: Message-Id: <20210510035901.72E3639199@wam-2.localdomain> Date: Sun, 9 May 2021 23:59:01 -0400 (EDT) /bin/sh: 1: /home/sinton/symlinks/TEAM99/ogoakinitchka2.sh: not found From sinton@wam-2.localdomain Sun May 9 23:59:01 2021 Return-Path: X-Original-To: sinton Delivered-To: sinton@wam-2.localdomain Received: by wam-2.localdomain (Postfix, from userid 1001) id 91A3A39199; Sun, 9 May 2021 23:59:01 -0400 (EDT) From: root@wam-2.localdomain (Cron Daemon) To: sinton@wam-2.localdomain Subject: Cron ~/symlinks/TEAM1F/metin/apiv4.sh 1f > /dev/null MIME-Version: 1.0 Content-Type: text/plain; charset=UTF-8 Content-Transfer-Encoding: 8bit X-Cron-Env: X-Cron-Env: X-Cron-Env: X-Cron-Env: Message-Id: <20210510035901.91A3A39199@wam-2.localdomain> Date: Sun, 9 May 2021 23:59:01 -0400 (EDT) % Total % Received % Xferd Average Speed Time Time Time Current Dload Upload Total Spent Left Speed 0 0 0 0 0 0 0 0 --:--:-- --:--:-- --:--:-- 0 100 391 100 391 0 0 2753 0 --:--:-- --:--:-- --:--:-- 2753 From sinton@wam-2.localdomain Mon May 10 00:00:01 2021 Return-Path: X-Original-To: sinton Delivered-To: sinton@wam-2.localdomain Received: by wam-2.localdomain (Postfix, from userid 1001) id DDA2239235; Mon, 10 May 2021 00:00:01 -0400 (EDT) From: root@wam-2.localdomain (Cron Daemon) To: sinton@wam-2.localdomain Subject: Cron ~/symlinks/TEAM99/ogoakinitchka2.sh 99 0.05 > /dev/null MIME-Version: 1.0 Content-Type: text/plain; charset=UTF-8 Content-Transfer-Encoding: 8bit X-Cron-Env: X-Cron-Env: X-Cron-Env: X-Cron-Env: Message-Id: <20210510040001.DDA2239235@wam-2.localdomain> Date: Mon, 10 May 2021 00:00:01 -0400 (EDT) /bin/sh: 1: /home/sinton/symlinks/TEAM99/ogoakinitchka2.sh: not found From sinton@wam-2.localdomain Mon May 10 00:00:02 2021 Return-Path: X-Original-To: sinton Delivered-To: sinton@wam-2.localdomain Received: by wam-2.localdomain (Postfix, from userid 1001) id 16284391A7; Mon, 10 May 2021 00:00:02 -0400 (EDT) From: root@wam-2.localdomain (Cron Daemon) To: sinton@wam-2.localdomain Subject: Cron ~/symlinks/TEAM1F/metin/apiv4.sh 1f > /dev/null MIME-Version: 1.0 Content-Type: text/plain; charset=UTF-8 Content-Transfer-Encoding: 8bit X-Cron-Env: X-Cron-Env: X-Cron-Env: X-Cron-Env: Message-Id: <20210510040002.16284391A7@wam-2.localdomain> Date: Mon, 10 May 2021 00:00:02 -0400 (EDT) % Total % Received % Xferd Average Speed Time Time Time Current Dload Upload Total Spent Left Speed 0 0 0 0 0 0 0 0 --:--:-- --:--:-- --:--:-- 0 100 390 100 390 0 0 3900 0 --:--:-- --:--:-- --:--:-- 3900 From sinton@wam-2.localdomain Mon May 10 00:00:33 2021 Return-Path: X-Original-To: sinton Delivered-To: sinton@wam-2.localdomain Received: by wam-2.localdomain (Postfix, from userid 1001) id CFBA439282; Mon, 10 May 2021 00:00:33 -0400 (EDT) From: root@wam-2.localdomain (Cron Daemon) To: sinton@wam-2.localdomain Subject: Cron ~/symlinks/TEAM1N/oakarcha.pl 1n > /dev/null MIME-Version: 1.0 Content-Type: text/plain; charset=UTF-8 Content-Transfer-Encoding: 8bit X-Cron-Env: X-Cron-Env: X-Cron-Env: X-Cron-Env: Message-Id: <20210510040033.CFBA439282@wam-2.localdomain> Date: Mon, 10 May 2021 00:00:33 -0400 (EDT) cat: /home/sinton/sjsu1n/MISSEDFIELDGOALS: No such file or directory cat: /home/sinton/sjsu1n/MISSEDFIELDGOALSWIDE: No such file or directory tail: unrecognized option '--1' Try 'tail --help' for more information. send: spawn id exp3 not open while executing "send "bye\n"" (procedure "sftpsend" line 20) invoked from within "sftpsend 107.170.61.94 sinton@107.170.61.94 $APATH $AFILE $AFILE" invoked from within "if { ![sftpsend 107.170.61.94 sinton@107.170.61.94 $APATH $AFILE $AFILE] } { puts_log "sftpsend failed for $AFILE ([timestamp -format %c])." }..." (file "/home/sinton/sjsu1n/sftptowam.tcl" line 106) From sinton@wam-2.localdomain Mon May 10 00:00:33 2021 Return-Path: X-Original-To: sinton Delivered-To: sinton@wam-2.localdomain Received: by wam-2.localdomain (Postfix, from userid 1001) id D1282391ED; Mon, 10 May 2021 00:00:33 -0400 (EDT) From: root@wam-2.localdomain (Cron Daemon) To: sinton@wam-2.localdomain Subject: Cron ~/symlinks/TEAM7/oakarcha.pl 7 > /dev/null MIME-Version: 1.0 Content-Type: text/plain; charset=UTF-8 Content-Transfer-Encoding: 8bit X-Cron-Env: X-Cron-Env: X-Cron-Env: X-Cron-Env: Message-Id: <20210510040033.D1282391ED@wam-2.localdomain> Date: Mon, 10 May 2021 00:00:33 -0400 (EDT) cat: /home/sinton/sjsu7/MISSEDFIELDGOALS: No such file or directory cat: /home/sinton/sjsu7/MISSEDFIELDGOALSWIDE: No such file or directory tail: unrecognized option '--1' Try 'tail --help' for more information. send: spawn id exp3 not open while executing "send "bye\n"" (procedure "sftpsend" line 20) invoked from within "sftpsend 107.170.61.94 sinton@107.170.61.94 $APATH $AFILE $AFILE" invoked from within "if { ![sftpsend 107.170.61.94 sinton@107.170.61.94 $APATH $AFILE $AFILE] } { puts_log "sftpsend failed for $AFILE ([timestamp -format %c])." }..." (file "/home/sinton/sjsu7/sftptowam.tcl" line 106) From sinton@wam-2.localdomain Mon May 10 00:00:33 2021 Return-Path: X-Original-To: sinton Delivered-To: sinton@wam-2.localdomain Received: by wam-2.localdomain (Postfix, from userid 1001) id D288B3922D; Mon, 10 May 2021 00:00:33 -0400 (EDT) From: root@wam-2.localdomain (Cron Daemon) To: sinton@wam-2.localdomain Subject: Cron ~/symlinks/TEAM1F/oakarcha.pl 1f > /dev/null MIME-Version: 1.0 Content-Type: text/plain; charset=UTF-8 Content-Transfer-Encoding: 8bit X-Cron-Env: X-Cron-Env: X-Cron-Env: X-Cron-Env: Message-Id: <20210510040033.D288B3922D@wam-2.localdomain> Date: Mon, 10 May 2021 00:00:33 -0400 (EDT) cat: /home/sinton/sjsu1f/MISSEDFIELDGOALS: No such file or directory cat: /home/sinton/sjsu1f/MISSEDFIELDGOALSWIDE: No such file or directory tail: unrecognized option '--1' Try 'tail --help' for more information. send: spawn id exp3 not open while executing "send "bye\n"" (procedure "sftpsend" line 20) invoked from within "sftpsend 107.170.61.94 sinton@107.170.61.94 $APATH $AFILE $AFILE" invoked from within "if { ![sftpsend 107.170.61.94 sinton@107.170.61.94 $APATH $AFILE $AFILE] } { puts_log "sftpsend failed for $AFILE ([timestamp -format %c])." }..." (file "/home/sinton/sjsu1f/sftptowam.tcl" line 106) From sinton@wam-2.localdomain Mon May 10 00:00:33 2021 Return-Path: X-Original-To: sinton Delivered-To: sinton@wam-2.localdomain Received: by wam-2.localdomain (Postfix, from userid 1001) id D3C4939267; Mon, 10 May 2021 00:00:33 -0400 (EDT) From: root@wam-2.localdomain (Cron Daemon) To: sinton@wam-2.localdomain Subject: Cron ~/symlinks/TEAM9/oakarcha.pl 9 > /dev/null MIME-Version: 1.0 Content-Type: text/plain; charset=UTF-8 Content-Transfer-Encoding: 8bit X-Cron-Env: X-Cron-Env: X-Cron-Env: X-Cron-Env: Message-Id: <20210510040033.D3C4939267@wam-2.localdomain> Date: Mon, 10 May 2021 00:00:33 -0400 (EDT) tail: unrecognized option '--1' Try 'tail --help' for more information. send: spawn id exp3 not open while executing "send "bye\n"" (procedure "sftpsend" line 20) invoked from within "sftpsend 107.170.61.94 sinton@107.170.61.94 $APATH $AFILE $AFILE" invoked from within "if { ![sftpsend 107.170.61.94 sinton@107.170.61.94 $APATH $AFILE $AFILE] } { puts_log "sftpsend failed for $AFILE ([timestamp -format %c])." }..." (file "/home/sinton/sjsu9/sftptowam.tcl" line 106) From sinton@wam-2.localdomain Mon May 10 00:00:33 2021 Return-Path: X-Original-To: sinton Delivered-To: sinton@wam-2.localdomain Received: by wam-2.localdomain (Postfix, from userid 1001) id D4E6F391ED; Mon, 10 May 2021 00:00:33 -0400 (EDT) From: root@wam-2.localdomain (Cron Daemon) To: sinton@wam-2.localdomain Subject: Cron ~/symlinks/TEAM1G/oakarchglfa.pl 1g > /dev/null MIME-Version: 1.0 Content-Type: text/plain; charset=UTF-8 Content-Transfer-Encoding: 8bit X-Cron-Env: X-Cron-Env: X-Cron-Env: X-Cron-Env: Message-Id: <20210510040033.D4E6F391ED@wam-2.localdomain> Date: Mon, 10 May 2021 00:00:33 -0400 (EDT) cat: /home/sinton/sjsu1g/MISSEDFIELDGOALS: No such file or directory cat: /home/sinton/sjsu1g/MISSEDFIELDGOALSWIDE: No such file or directory tail: unrecognized option '--1' Try 'tail --help' for more information. send: spawn id exp3 not open while executing "send "bye\n"" (procedure "sftpsend" line 20) invoked from within "sftpsend 107.170.61.94 sinton@107.170.61.94 $APATH $AFILE $AFILE" invoked from within "if { ![sftpsend 107.170.61.94 sinton@107.170.61.94 $APATH $AFILE $AFILE] } { puts_log "sftpsend failed for $AFILE ([timestamp -format %c])." }..." (file "/home/sinton/sjsu1g/sftptowam.tcl" line 106) From sinton@wam-2.localdomain Mon May 10 00:01:02 2021 Return-Path: X-Original-To: sinton Delivered-To: sinton@wam-2.localdomain Received: by wam-2.localdomain (Postfix, from userid 1001) id 2923E3927A; Mon, 10 May 2021 00:01:02 -0400 (EDT) From: root@wam-2.localdomain (Cron Daemon) To: sinton@wam-2.localdomain Subject: Cron ~/symlinks/TEAM99/ogoakinitchka2.sh 99 0.05 > /dev/null MIME-Version: 1.0 Content-Type: text/plain; charset=UTF-8 Content-Transfer-Encoding: 8bit X-Cron-Env: X-Cron-Env: X-Cron-Env: X-Cron-Env: Message-Id: <20210510040102.2923E3927A@wam-2.localdomain> Date: Mon, 10 May 2021 00:01:02 -0400 (EDT) /bin/sh: 1: /home/sinton/symlinks/TEAM99/ogoakinitchka2.sh: not found From sinton@wam-2.localdomain Mon May 10 00:01:02 2021 Return-Path: X-Original-To: sinton Delivered-To: sinton@wam-2.localdomain Received: by wam-2.localdomain (Postfix, from userid 1001) id 41D3039282; Mon, 10 May 2021 00:01:02 -0400 (EDT) From: root@wam-2.localdomain (Cron Daemon) To: sinton@wam-2.localdomain Subject: Cron ~/symlinks/TEAM1F/metin/apiv4.sh 1f > /dev/null MIME-Version: 1.0 Content-Type: text/plain; charset=UTF-8 Content-Transfer-Encoding: 8bit X-Cron-Env: X-Cron-Env: X-Cron-Env: X-Cron-Env: Message-Id: <20210510040102.41D3039282@wam-2.localdomain> Date: Mon, 10 May 2021 00:01:02 -0400 (EDT) % Total % Received % Xferd Average Speed Time Time Time Current Dload Upload Total Spent Left Speed 0 0 0 0 0 0 0 0 --:--:-- --:--:-- --:--:-- 0 100 391 100 391 0 0 3989 0 --:--:-- --:--:-- --:--:-- 3989 From sinton@wam-2.localdomain Mon May 10 00:02:01 2021 Return-Path: X-Original-To: sinton Delivered-To: sinton@wam-2.localdomain Received: by wam-2.localdomain (Postfix, from userid 1001) id 765943921D; Mon, 10 May 2021 00:02:01 -0400 (EDT) From: root@wam-2.localdomain (Cron Daemon) To: sinton@wam-2.localdomain Subject: Cron ~/symlinks/TEAM99/ogoakinitchka2.sh 99 0.05 > /dev/null MIME-Version: 1.0 Content-Type: text/plain; charset=UTF-8 Content-Transfer-Encoding: 8bit X-Cron-Env: X-Cron-Env: X-Cron-Env: X-Cron-Env: Message-Id: <20210510040201.765943921D@wam-2.localdomain> Date: Mon, 10 May 2021 00:02:01 -0400 (EDT) /bin/sh: 1: /home/sinton/symlinks/TEAM99/ogoakinitchka2.sh: not found From sinton@wam-2.localdomain Mon May 10 00:02:01 2021 Return-Path: X-Original-To: sinton Delivered-To: sinton@wam-2.localdomain Received: by wam-2.localdomain (Postfix, from userid 1001) id 90ACE3921D; Mon, 10 May 2021 00:02:01 -0400 (EDT) From: root@wam-2.localdomain (Cron Daemon) To: sinton@wam-2.localdomain Subject: Cron ~/symlinks/TEAM1F/metin/apiv4.sh 1f > /dev/null MIME-Version: 1.0 Content-Type: text/plain; charset=UTF-8 Content-Transfer-Encoding: 8bit X-Cron-Env: X-Cron-Env: X-Cron-Env: X-Cron-Env: Message-Id: <20210510040201.90ACE3921D@wam-2.localdomain> Date: Mon, 10 May 2021 00:02:01 -0400 (EDT) % Total % Received % Xferd Average Speed Time Time Time Current Dload Upload Total Spent Left Speed 0 0 0 0 0 0 0 0 --:--:-- --:--:-- --:--:-- 0 100 391 100 391 0 0 5750 0 --:--:-- --:--:-- --:--:-- 5750 From sinton@wam-2.localdomain Mon May 10 00:03:01 2021 Return-Path: X-Original-To: sinton Delivered-To: sinton@wam-2.localdomain Received: by wam-2.localdomain (Postfix, from userid 1001) id BE5BB3927A; Mon, 10 May 2021 00:03:01 -0400 (EDT) From: root@wam-2.localdomain (Cron Daemon) To: sinton@wam-2.localdomain Subject: Cron ~/symlinks/TEAM99/ogoakinitchka2.sh 99 0.05 > /dev/null MIME-Version: 1.0 Content-Type: text/plain; charset=UTF-8 Content-Transfer-Encoding: 8bit X-Cron-Env: X-Cron-Env: X-Cron-Env: X-Cron-Env: Message-Id: <20210510040301.BE5BB3927A@wam-2.localdomain> Date: Mon, 10 May 2021 00:03:01 -0400 (EDT) /bin/sh: 1: /home/sinton/symlinks/TEAM99/ogoakinitchka2.sh: not found From sinton@wam-2.localdomain Mon May 10 00:03:01 2021 Return-Path: X-Original-To: sinton Delivered-To: sinton@wam-2.localdomain Received: by wam-2.localdomain (Postfix, from userid 1001) id DAE593927A; Mon, 10 May 2021 00:03:01 -0400 (EDT) From: root@wam-2.localdomain (Cron Daemon) To: sinton@wam-2.localdomain Subject: Cron ~/symlinks/TEAM1F/metin/apiv4.sh 1f > /dev/null MIME-Version: 1.0 Content-Type: text/plain; charset=UTF-8 Content-Transfer-Encoding: 8bit X-Cron-Env: X-Cron-Env: X-Cron-Env: X-Cron-Env: Message-Id: <20210510040301.DAE593927A@wam-2.localdomain> Date: Mon, 10 May 2021 00:03:01 -0400 (EDT) % Total % Received % Xferd Average Speed Time Time Time Current Dload Upload Total Spent Left Speed 0 0 0 0 0 0 0 0 --:--:-- --:--:-- --:--:-- 0 100 391 100 391 0 0 4393 0 --:--:-- --:--:-- --:--:-- 4344 100 391 100 391 0 0 4393 0 --:--:-- --:--:-- --:--:-- 4344 From sinton@wam-2.localdomain Mon May 10 00:03:31 2021 Return-Path: X-Original-To: sinton Delivered-To: sinton@wam-2.localdomain Received: by wam-2.localdomain (Postfix, from userid 1001) id B2A6D39214; Mon, 10 May 2021 00:03:31 -0400 (EDT) From: root@wam-2.localdomain (Cron Daemon) To: sinton@wam-2.localdomain Subject: Cron bash -c "sleep $[RANDOM%30]m" ; ~/symlinks/TEAM1N/fcst/startfcstclim.sh 1n > /dev/null MIME-Version: 1.0 Content-Type: text/plain; charset=UTF-8 Content-Transfer-Encoding: 8bit X-Cron-Env: X-Cron-Env: X-Cron-Env: X-Cron-Env: Message-Id: <20210510040331.B2A6D39214@wam-2.localdomain> Date: Mon, 10 May 2021 00:03:31 -0400 (EDT) % Total % Received % Xferd Average Speed Time Time Time Current Dload Upload Total Spent Left Speed 0 0 0 0 0 0 0 0 --:--:-- --:--:-- --:--:-- 0 100 41808 100 41808 0 0 245k 0 --:--:-- --:--:-- --:--:-- 245k From sinton@wam-2.localdomain Mon May 10 00:04:01 2021 Return-Path: X-Original-To: sinton Delivered-To: sinton@wam-2.localdomain Received: by wam-2.localdomain (Postfix, from userid 1001) id E6E6139285; Mon, 10 May 2021 00:04:01 -0400 (EDT) From: root@wam-2.localdomain (Cron Daemon) To: sinton@wam-2.localdomain Subject: Cron ~/symlinks/TEAM99/ogoakinitchka2.sh 99 0.05 > /dev/null MIME-Version: 1.0 Content-Type: text/plain; charset=UTF-8 Content-Transfer-Encoding: 8bit X-Cron-Env: X-Cron-Env: X-Cron-Env: X-Cron-Env: Message-Id: <20210510040401.E6E6139285@wam-2.localdomain> Date: Mon, 10 May 2021 00:04:01 -0400 (EDT) /bin/sh: 1: /home/sinton/symlinks/TEAM99/ogoakinitchka2.sh: not found From sinton@wam-2.localdomain Mon May 10 00:04:02 2021 Return-Path: X-Original-To: sinton Delivered-To: sinton@wam-2.localdomain Received: by wam-2.localdomain (Postfix, from userid 1001) id 0A63C39285; Mon, 10 May 2021 00:04:02 -0400 (EDT) From: root@wam-2.localdomain (Cron Daemon) To: sinton@wam-2.localdomain Subject: Cron ~/symlinks/TEAM1F/metin/apiv4.sh 1f > /dev/null MIME-Version: 1.0 Content-Type: text/plain; charset=UTF-8 Content-Transfer-Encoding: 8bit X-Cron-Env: X-Cron-Env: X-Cron-Env: X-Cron-Env: Message-Id: <20210510040402.0A63C39285@wam-2.localdomain> Date: Mon, 10 May 2021 00:04:02 -0400 (EDT) % Total % Received % Xferd Average Speed Time Time Time Current Dload Upload Total Spent Left Speed 0 0 0 0 0 0 0 0 --:--:-- --:--:-- --:--:-- 0 100 386 100 386 0 0 6126 0 --:--:-- --:--:-- --:--:-- 6126 From sinton@wam-2.localdomain Mon May 10 00:05:01 2021 Return-Path: X-Original-To: sinton Delivered-To: sinton@wam-2.localdomain Received: by wam-2.localdomain (Postfix, from userid 1001) id 460323927F; Mon, 10 May 2021 00:05:01 -0400 (EDT) From: root@wam-2.localdomain (Cron Daemon) To: sinton@wam-2.localdomain Subject: Cron ~/symlinks/TEAM99/ogoakinitchka2.sh 99 0.05 > /dev/null MIME-Version: 1.0 Content-Type: text/plain; charset=UTF-8 Content-Transfer-Encoding: 8bit X-Cron-Env: X-Cron-Env: X-Cron-Env: X-Cron-Env: Message-Id: <20210510040501.460323927F@wam-2.localdomain> Date: Mon, 10 May 2021 00:05:01 -0400 (EDT) /bin/sh: 1: /home/sinton/symlinks/TEAM99/ogoakinitchka2.sh: not found From sinton@wam-2.localdomain Mon May 10 00:05:01 2021 Return-Path: X-Original-To: sinton Delivered-To: sinton@wam-2.localdomain Received: by wam-2.localdomain (Postfix, from userid 1001) id 532B33927F; Mon, 10 May 2021 00:05:01 -0400 (EDT) From: root@wam-2.localdomain (Cron Daemon) To: sinton@wam-2.localdomain Subject: Cron ~/symlinks/TEAM1F/metin/apiv4.sh 1f > /dev/null MIME-Version: 1.0 Content-Type: text/plain; charset=UTF-8 Content-Transfer-Encoding: 8bit X-Cron-Env: X-Cron-Env: X-Cron-Env: X-Cron-Env: Message-Id: <20210510040501.532B33927F@wam-2.localdomain> Date: Mon, 10 May 2021 00:05:01 -0400 (EDT) % Total % Received % Xferd Average Speed Time Time Time Current Dload Upload Total Spent Left Speed 0 0 0 0 0 0 0 0 --:--:-- --:--:-- --:--:-- 0 100 386 100 386 0 0 7148 0 --:--:-- --:--:-- --:--:-- 7283 From sinton@wam-2.localdomain Mon May 10 00:05:37 2021 Return-Path: X-Original-To: sinton Delivered-To: sinton@wam-2.localdomain Received: by wam-2.localdomain (Postfix, from userid 1001) id 5D3993922B; Mon, 10 May 2021 00:05:37 -0400 (EDT) From: root@wam-2.localdomain (Cron Daemon) To: sinton@wam-2.localdomain Subject: Cron bash -c "sleep $[RANDOM%30]m" ; ~/symlinks/TEAM1F/fcst/startfcstclim.sh 1f > /dev/null MIME-Version: 1.0 Content-Type: text/plain; charset=UTF-8 Content-Transfer-Encoding: 8bit X-Cron-Env: X-Cron-Env: X-Cron-Env: X-Cron-Env: Message-Id: <20210510040537.5D3993922B@wam-2.localdomain> Date: Mon, 10 May 2021 00:05:37 -0400 (EDT) % Total % Received % Xferd Average Speed Time Time Time Current Dload Upload Total Spent Left Speed 0 0 0 0 0 0 0 0 --:--:-- --:--:-- --:--:-- 0 0 0 0 0 0 0 0 0 --:--:-- --:--:-- --:--:-- 0 100 41636 100 41636 0 0 107k 0 --:--:-- --:--:-- --:--:-- 107k From sinton@wam-2.localdomain Mon May 10 00:06:01 2021 Return-Path: X-Original-To: sinton Delivered-To: sinton@wam-2.localdomain Received: by wam-2.localdomain (Postfix, from userid 1001) id A3AEA39255; Mon, 10 May 2021 00:06:01 -0400 (EDT) From: root@wam-2.localdomain (Cron Daemon) To: sinton@wam-2.localdomain Subject: Cron ~/symlinks/TEAM99/ogoakinitchka2.sh 99 0.05 > /dev/null MIME-Version: 1.0 Content-Type: text/plain; charset=UTF-8 Content-Transfer-Encoding: 8bit X-Cron-Env: X-Cron-Env: X-Cron-Env: X-Cron-Env: Message-Id: <20210510040601.A3AEA39255@wam-2.localdomain> Date: Mon, 10 May 2021 00:06:01 -0400 (EDT) /bin/sh: 1: /home/sinton/symlinks/TEAM99/ogoakinitchka2.sh: not found From sinton@wam-2.localdomain Mon May 10 00:06:01 2021 Return-Path: X-Original-To: sinton Delivered-To: sinton@wam-2.localdomain Received: by wam-2.localdomain (Postfix, from userid 1001) id B544639285; Mon, 10 May 2021 00:06:01 -0400 (EDT) From: root@wam-2.localdomain (Cron Daemon) To: sinton@wam-2.localdomain Subject: Cron ~/symlinks/TEAM1F/metin/apiv4.sh 1f > /dev/null MIME-Version: 1.0 Content-Type: text/plain; charset=UTF-8 Content-Transfer-Encoding: 8bit X-Cron-Env: X-Cron-Env: X-Cron-Env: X-Cron-Env: Message-Id: <20210510040601.B544639285@wam-2.localdomain> Date: Mon, 10 May 2021 00:06:01 -0400 (EDT) % Total % Received % Xferd Average Speed Time Time Time Current Dload Upload Total Spent Left Speed 0 0 0 0 0 0 0 0 --:--:-- --:--:-- --:--:-- 0 100 387 100 387 0 0 4961 0 --:--:-- --:--:-- --:--:-- 5025 From sinton@wam-2.localdomain Mon May 10 00:07:01 2021 Return-Path: X-Original-To: sinton Delivered-To: sinton@wam-2.localdomain Received: by wam-2.localdomain (Postfix, from userid 1001) id E925B3927F; Mon, 10 May 2021 00:07:01 -0400 (EDT) From: root@wam-2.localdomain (Cron Daemon) To: sinton@wam-2.localdomain Subject: Cron ~/symlinks/TEAM99/ogoakinitchka2.sh 99 0.05 > /dev/null MIME-Version: 1.0 Content-Type: text/plain; charset=UTF-8 Content-Transfer-Encoding: 8bit X-Cron-Env: X-Cron-Env: X-Cron-Env: X-Cron-Env: Message-Id: <20210510040701.E925B3927F@wam-2.localdomain> Date: Mon, 10 May 2021 00:07:01 -0400 (EDT) /bin/sh: 1: /home/sinton/symlinks/TEAM99/ogoakinitchka2.sh: not found From sinton@wam-2.localdomain Mon May 10 00:07:02 2021 Return-Path: X-Original-To: sinton Delivered-To: sinton@wam-2.localdomain Received: by wam-2.localdomain (Postfix, from userid 1001) id 069FC3927F; Mon, 10 May 2021 00:07:02 -0400 (EDT) From: root@wam-2.localdomain (Cron Daemon) To: sinton@wam-2.localdomain Subject: Cron ~/symlinks/TEAM1F/metin/apiv4.sh 1f > /dev/null MIME-Version: 1.0 Content-Type: text/plain; charset=UTF-8 Content-Transfer-Encoding: 8bit X-Cron-Env: X-Cron-Env: X-Cron-Env: X-Cron-Env: Message-Id: <20210510040702.069FC3927F@wam-2.localdomain> Date: Mon, 10 May 2021 00:07:02 -0400 (EDT) % Total % Received % Xferd Average Speed Time Time Time Current Dload Upload Total Spent Left Speed 0 0 0 0 0 0 0 0 --:--:-- --:--:-- --:--:-- 0 100 386 100 386 0 0 4436 0 --:--:-- --:--:-- --:--:-- 4436 From sinton@wam-2.localdomain Mon May 10 00:08:01 2021 Return-Path: X-Original-To: sinton Delivered-To: sinton@wam-2.localdomain Received: by wam-2.localdomain (Postfix, from userid 1001) id 37A463928D; Mon, 10 May 2021 00:08:01 -0400 (EDT) From: root@wam-2.localdomain (Cron Daemon) To: sinton@wam-2.localdomain Subject: Cron ~/symlinks/TEAM99/ogoakinitchka2.sh 99 0.05 > /dev/null MIME-Version: 1.0 Content-Type: text/plain; charset=UTF-8 Content-Transfer-Encoding: 8bit X-Cron-Env: X-Cron-Env: X-Cron-Env: X-Cron-Env: Message-Id: <20210510040801.37A463928D@wam-2.localdomain> Date: Mon, 10 May 2021 00:08:01 -0400 (EDT) /bin/sh: 1: /home/sinton/symlinks/TEAM99/ogoakinitchka2.sh: not found From sinton@wam-2.localdomain Mon May 10 00:08:01 2021 Return-Path: X-Original-To: sinton Delivered-To: sinton@wam-2.localdomain Received: by wam-2.localdomain (Postfix, from userid 1001) id 494133928D; Mon, 10 May 2021 00:08:01 -0400 (EDT) From: root@wam-2.localdomain (Cron Daemon) To: sinton@wam-2.localdomain Subject: Cron ~/symlinks/TEAM1F/metin/apiv4.sh 1f > /dev/null MIME-Version: 1.0 Content-Type: text/plain; charset=UTF-8 Content-Transfer-Encoding: 8bit X-Cron-Env: X-Cron-Env: X-Cron-Env: X-Cron-Env: Message-Id: <20210510040801.494133928D@wam-2.localdomain> Date: Mon, 10 May 2021 00:08:01 -0400 (EDT) % Total % Received % Xferd Average Speed Time Time Time Current Dload Upload Total Spent Left Speed 0 0 0 0 0 0 0 0 --:--:-- --:--:-- --:--:-- 0 100 387 100 387 0 0 6344 0 --:--:-- --:--:-- --:--:-- 6344 From sinton@wam-2.localdomain Mon May 10 00:09:01 2021 Return-Path: X-Original-To: sinton Delivered-To: sinton@wam-2.localdomain Received: by wam-2.localdomain (Postfix, from userid 1001) id 7FB8339297; Mon, 10 May 2021 00:09:01 -0400 (EDT) From: root@wam-2.localdomain (Cron Daemon) To: sinton@wam-2.localdomain Subject: Cron ~/symlinks/TEAM99/ogoakinitchka2.sh 99 0.05 > /dev/null MIME-Version: 1.0 Content-Type: text/plain; charset=UTF-8 Content-Transfer-Encoding: 8bit X-Cron-Env: X-Cron-Env: X-Cron-Env: X-Cron-Env: Message-Id: <20210510040901.7FB8339297@wam-2.localdomain> Date: Mon, 10 May 2021 00:09:01 -0400 (EDT) /bin/sh: 1: /home/sinton/symlinks/TEAM99/ogoakinitchka2.sh: not found From sinton@wam-2.localdomain Mon May 10 00:09:01 2021 Return-Path: X-Original-To: sinton Delivered-To: sinton@wam-2.localdomain Received: by wam-2.localdomain (Postfix, from userid 1001) id 9493039297; Mon, 10 May 2021 00:09:01 -0400 (EDT) From: root@wam-2.localdomain (Cron Daemon) To: sinton@wam-2.localdomain Subject: Cron ~/symlinks/TEAM1F/metin/apiv4.sh 1f > /dev/null MIME-Version: 1.0 Content-Type: text/plain; charset=UTF-8 Content-Transfer-Encoding: 8bit X-Cron-Env: X-Cron-Env: X-Cron-Env: X-Cron-Env: Message-Id: <20210510040901.9493039297@wam-2.localdomain> Date: Mon, 10 May 2021 00:09:01 -0400 (EDT) % Total % Received % Xferd Average Speed Time Time Time Current Dload Upload Total Spent Left Speed 0 0 0 0 0 0 0 0 --:--:-- --:--:-- --:--:-- 0 100 387 100 387 0 0 7588 0 --:--:-- --:--:-- --:--:-- 7588 From sinton@wam-2.localdomain Mon May 10 00:10:01 2021 Return-Path: X-Original-To: sinton Delivered-To: sinton@wam-2.localdomain Received: by wam-2.localdomain (Postfix, from userid 1001) id C201C39297; Mon, 10 May 2021 00:10:01 -0400 (EDT) From: root@wam-2.localdomain (Cron Daemon) To: sinton@wam-2.localdomain Subject: Cron ~/symlinks/TEAM99/ogoakinitchka2.sh 99 0.05 > /dev/null MIME-Version: 1.0 Content-Type: text/plain; charset=UTF-8 Content-Transfer-Encoding: 8bit X-Cron-Env: X-Cron-Env: X-Cron-Env: X-Cron-Env: Message-Id: <20210510041001.C201C39297@wam-2.localdomain> Date: Mon, 10 May 2021 00:10:01 -0400 (EDT) /bin/sh: 1: /home/sinton/symlinks/TEAM99/ogoakinitchka2.sh: not found From sinton@wam-2.localdomain Mon May 10 00:10:01 2021 Return-Path: X-Original-To: sinton Delivered-To: sinton@wam-2.localdomain Received: by wam-2.localdomain (Postfix, from userid 1001) id E0F0E39297; Mon, 10 May 2021 00:10:01 -0400 (EDT) From: root@wam-2.localdomain (Cron Daemon) To: sinton@wam-2.localdomain Subject: Cron ~/symlinks/TEAM1F/metin/apiv4.sh 1f > /dev/null MIME-Version: 1.0 Content-Type: text/plain; charset=UTF-8 Content-Transfer-Encoding: 8bit X-Cron-Env: X-Cron-Env: X-Cron-Env: X-Cron-Env: Message-Id: <20210510041001.E0F0E39297@wam-2.localdomain> Date: Mon, 10 May 2021 00:10:01 -0400 (EDT) % Total % Received % Xferd Average Speed Time Time Time Current Dload Upload Total Spent Left Speed 0 0 0 0 0 0 0 0 --:--:-- --:--:-- --:--:-- 0 0 0 0 0 0 0 0 0 --:--:-- --:--:-- --:--:-- 0 100 387 100 387 0 0 6142 0 --:--:-- --:--:-- --:--:-- 6046 From sinton@wam-2.localdomain Mon May 10 00:11:02 2021 Return-Path: X-Original-To: sinton Delivered-To: sinton@wam-2.localdomain Received: by wam-2.localdomain (Postfix, from userid 1001) id 32CD23929D; Mon, 10 May 2021 00:11:02 -0400 (EDT) From: root@wam-2.localdomain (Cron Daemon) To: sinton@wam-2.localdomain Subject: Cron ~/symlinks/TEAM99/ogoakinitchka2.sh 99 0.05 > /dev/null MIME-Version: 1.0 Content-Type: text/plain; charset=UTF-8 Content-Transfer-Encoding: 8bit X-Cron-Env: X-Cron-Env: X-Cron-Env: X-Cron-Env: Message-Id: <20210510041102.32CD23929D@wam-2.localdomain> Date: Mon, 10 May 2021 00:11:02 -0400 (EDT) /bin/sh: 1: /home/sinton/symlinks/TEAM99/ogoakinitchka2.sh: not found From sinton@wam-2.localdomain Mon May 10 00:11:02 2021 Return-Path: X-Original-To: sinton Delivered-To: sinton@wam-2.localdomain Received: by wam-2.localdomain (Postfix, from userid 1001) id 41A0B3929D; Mon, 10 May 2021 00:11:02 -0400 (EDT) From: root@wam-2.localdomain (Cron Daemon) To: sinton@wam-2.localdomain Subject: Cron ~/symlinks/TEAM1F/metin/apiv4.sh 1f > /dev/null MIME-Version: 1.0 Content-Type: text/plain; charset=UTF-8 Content-Transfer-Encoding: 8bit X-Cron-Env: X-Cron-Env: X-Cron-Env: X-Cron-Env: Message-Id: <20210510041102.41A0B3929D@wam-2.localdomain> Date: Mon, 10 May 2021 00:11:02 -0400 (EDT) % Total % Received % Xferd Average Speed Time Time Time Current Dload Upload Total Spent Left Speed 0 0 0 0 0 0 0 0 --:--:-- --:--:-- --:--:-- 0 100 387 100 387 0 0 4898 0 --:--:-- --:--:-- --:--:-- 4898 From sinton@wam-2.localdomain Mon May 10 00:12:01 2021 Return-Path: X-Original-To: sinton Delivered-To: sinton@wam-2.localdomain Received: by wam-2.localdomain (Postfix, from userid 1001) id 799DD391ED; Mon, 10 May 2021 00:12:01 -0400 (EDT) From: root@wam-2.localdomain (Cron Daemon) To: sinton@wam-2.localdomain Subject: Cron ~/symlinks/TEAM99/ogoakinitchka2.sh 99 0.05 > /dev/null MIME-Version: 1.0 Content-Type: text/plain; charset=UTF-8 Content-Transfer-Encoding: 8bit X-Cron-Env: X-Cron-Env: X-Cron-Env: X-Cron-Env: Message-Id: <20210510041201.799DD391ED@wam-2.localdomain> Date: Mon, 10 May 2021 00:12:01 -0400 (EDT) /bin/sh: 1: /home/sinton/symlinks/TEAM99/ogoakinitchka2.sh: not found From sinton@wam-2.localdomain Mon May 10 00:12:01 2021 Return-Path: X-Original-To: sinton Delivered-To: sinton@wam-2.localdomain Received: by wam-2.localdomain (Postfix, from userid 1001) id 86368391ED; Mon, 10 May 2021 00:12:01 -0400 (EDT) From: root@wam-2.localdomain (Cron Daemon) To: sinton@wam-2.localdomain Subject: Cron ~/symlinks/TEAM1F/metin/apiv4.sh 1f > /dev/null MIME-Version: 1.0 Content-Type: text/plain; charset=UTF-8 Content-Transfer-Encoding: 8bit X-Cron-Env: X-Cron-Env: X-Cron-Env: X-Cron-Env: Message-Id: <20210510041201.86368391ED@wam-2.localdomain> Date: Mon, 10 May 2021 00:12:01 -0400 (EDT) % Total % Received % Xferd Average Speed Time Time Time Current Dload Upload Total Spent Left Speed 0 0 0 0 0 0 0 0 --:--:-- --:--:-- --:--:-- 0 100 387 100 387 0 0 5160 0 --:--:-- --:--:-- --:--:-- 5160 From sinton@wam-2.localdomain Mon May 10 00:13:01 2021 Return-Path: X-Original-To: sinton Delivered-To: sinton@wam-2.localdomain Received: by wam-2.localdomain (Postfix, from userid 1001) id B736E392B4; Mon, 10 May 2021 00:13:01 -0400 (EDT) From: root@wam-2.localdomain (Cron Daemon) To: sinton@wam-2.localdomain Subject: Cron ~/symlinks/TEAM99/ogoakinitchka2.sh 99 0.05 > /dev/null MIME-Version: 1.0 Content-Type: text/plain; charset=UTF-8 Content-Transfer-Encoding: 8bit X-Cron-Env: X-Cron-Env: X-Cron-Env: X-Cron-Env: Message-Id: <20210510041301.B736E392B4@wam-2.localdomain> Date: Mon, 10 May 2021 00:13:01 -0400 (EDT) /bin/sh: 1: /home/sinton/symlinks/TEAM99/ogoakinitchka2.sh: not found From sinton@wam-2.localdomain Mon May 10 00:13:01 2021 Return-Path: X-Original-To: sinton Delivered-To: sinton@wam-2.localdomain Received: by wam-2.localdomain (Postfix, from userid 1001) id D8552392BF; Mon, 10 May 2021 00:13:01 -0400 (EDT) From: root@wam-2.localdomain (Cron Daemon) To: sinton@wam-2.localdomain Subject: Cron ~/symlinks/TEAM1F/metin/apiv4.sh 1f > /dev/null MIME-Version: 1.0 Content-Type: text/plain; charset=UTF-8 Content-Transfer-Encoding: 8bit X-Cron-Env: X-Cron-Env: X-Cron-Env: X-Cron-Env: Message-Id: <20210510041301.D8552392BF@wam-2.localdomain> Date: Mon, 10 May 2021 00:13:01 -0400 (EDT) % Total % Received % Xferd Average Speed Time Time Time Current Dload Upload Total Spent Left Speed 0 0 0 0 0 0 0 0 --:--:-- --:--:-- --:--:-- 0 100 387 100 387 0 0 5229 0 --:--:-- --:--:-- --:--:-- 5229 From sinton@wam-2.localdomain Mon May 10 00:13:14 2021 Return-Path: X-Original-To: sinton Delivered-To: sinton@wam-2.localdomain Received: by wam-2.localdomain (Postfix, from userid 1001) id 4280F39215; Mon, 10 May 2021 00:13:14 -0400 (EDT) From: root@wam-2.localdomain (Cron Daemon) To: sinton@wam-2.localdomain Subject: Cron bash -c "sleep $[RANDOM%30]m" ; ~/symlinks/TEAM7/fcst/startfcstclim.sh 7 > /dev/null MIME-Version: 1.0 Content-Type: text/plain; charset=UTF-8 Content-Transfer-Encoding: 8bit X-Cron-Env: X-Cron-Env: X-Cron-Env: X-Cron-Env: Message-Id: <20210510041314.4280F39215@wam-2.localdomain> Date: Mon, 10 May 2021 00:13:14 -0400 (EDT) % Total % Received % Xferd Average Speed Time Time Time Current Dload Upload Total Spent Left Speed 0 0 0 0 0 0 0 0 --:--:-- --:--:-- --:--:-- 0 0 0 0 0 0 0 0 0 --:--:-- --:--:-- --:--:-- 0 100 41581 100 41581 0 0 153k 0 --:--:-- --:--:-- --:--:-- 152k From sinton@wam-2.localdomain Mon May 10 00:14:01 2021 Return-Path: X-Original-To: sinton Delivered-To: sinton@wam-2.localdomain Received: by wam-2.localdomain (Postfix, from userid 1001) id 7DA5F39286; Mon, 10 May 2021 00:14:01 -0400 (EDT) From: root@wam-2.localdomain (Cron Daemon) To: sinton@wam-2.localdomain Subject: Cron ~/symlinks/TEAM99/ogoakinitchka2.sh 99 0.05 > /dev/null MIME-Version: 1.0 Content-Type: text/plain; charset=UTF-8 Content-Transfer-Encoding: 8bit X-Cron-Env: X-Cron-Env: X-Cron-Env: X-Cron-Env: Message-Id: <20210510041401.7DA5F39286@wam-2.localdomain> Date: Mon, 10 May 2021 00:14:01 -0400 (EDT) /bin/sh: 1: /home/sinton/symlinks/TEAM99/ogoakinitchka2.sh: not found From sinton@wam-2.localdomain Mon May 10 00:14:01 2021 Return-Path: X-Original-To: sinton Delivered-To: sinton@wam-2.localdomain Received: by wam-2.localdomain (Postfix, from userid 1001) id 8DA3C3929D; Mon, 10 May 2021 00:14:01 -0400 (EDT) From: root@wam-2.localdomain (Cron Daemon) To: sinton@wam-2.localdomain Subject: Cron ~/symlinks/TEAM1F/metin/apiv4.sh 1f > /dev/null MIME-Version: 1.0 Content-Type: text/plain; charset=UTF-8 Content-Transfer-Encoding: 8bit X-Cron-Env: X-Cron-Env: X-Cron-Env: X-Cron-Env: Message-Id: <20210510041401.8DA3C3929D@wam-2.localdomain> Date: Mon, 10 May 2021 00:14:01 -0400 (EDT) % Total % Received % Xferd Average Speed Time Time Time Current Dload Upload Total Spent Left Speed 0 0 0 0 0 0 0 0 --:--:-- --:--:-- --:--:-- 0 100 386 100 386 0 0 5287 0 --:--:-- --:--:-- --:--:-- 5287 From sinton@wam-2.localdomain Mon May 10 00:15:01 2021 Return-Path: X-Original-To: sinton Delivered-To: sinton@wam-2.localdomain Received: by wam-2.localdomain (Postfix, from userid 1001) id C6FBA392AA; Mon, 10 May 2021 00:15:01 -0400 (EDT) From: root@wam-2.localdomain (Cron Daemon) To: sinton@wam-2.localdomain Subject: Cron ~/symlinks/TEAM99/ogoakinitchka2.sh 99 0.05 > /dev/null MIME-Version: 1.0 Content-Type: text/plain; charset=UTF-8 Content-Transfer-Encoding: 8bit X-Cron-Env: X-Cron-Env: X-Cron-Env: X-Cron-Env: Message-Id: <20210510041501.C6FBA392AA@wam-2.localdomain> Date: Mon, 10 May 2021 00:15:01 -0400 (EDT) /bin/sh: 1: /home/sinton/symlinks/TEAM99/ogoakinitchka2.sh: not found From sinton@wam-2.localdomain Mon May 10 00:15:01 2021 Return-Path: X-Original-To: sinton Delivered-To: sinton@wam-2.localdomain Received: by wam-2.localdomain (Postfix, from userid 1001) id D5F1B392AA; Mon, 10 May 2021 00:15:01 -0400 (EDT) From: root@wam-2.localdomain (Cron Daemon) To: sinton@wam-2.localdomain Subject: Cron ~/symlinks/TEAM1F/metin/apiv4.sh 1f > /dev/null MIME-Version: 1.0 Content-Type: text/plain; charset=UTF-8 Content-Transfer-Encoding: 8bit X-Cron-Env: X-Cron-Env: X-Cron-Env: X-Cron-Env: Message-Id: <20210510041501.D5F1B392AA@wam-2.localdomain> Date: Mon, 10 May 2021 00:15:01 -0400 (EDT) % Total % Received % Xferd Average Speed Time Time Time Current Dload Upload Total Spent Left Speed 0 0 0 0 0 0 0 0 --:--:-- --:--:-- --:--:-- 0 100 387 100 387 0 0 5608 0 --:--:-- --:--:-- --:--:-- 5608 From sinton@wam-2.localdomain Mon May 10 00:16:02 2021 Return-Path: X-Original-To: sinton Delivered-To: sinton@wam-2.localdomain Received: by wam-2.localdomain (Postfix, from userid 1001) id 2916F392B0; Mon, 10 May 2021 00:16:02 -0400 (EDT) From: root@wam-2.localdomain (Cron Daemon) To: sinton@wam-2.localdomain Subject: Cron ~/symlinks/TEAM99/ogoakinitchka2.sh 99 0.05 > /dev/null MIME-Version: 1.0 Content-Type: text/plain; charset=UTF-8 Content-Transfer-Encoding: 8bit X-Cron-Env: X-Cron-Env: X-Cron-Env: X-Cron-Env: Message-Id: <20210510041602.2916F392B0@wam-2.localdomain> Date: Mon, 10 May 2021 00:16:02 -0400 (EDT) /bin/sh: 1: /home/sinton/symlinks/TEAM99/ogoakinitchka2.sh: not found From sinton@wam-2.localdomain Mon May 10 00:16:02 2021 Return-Path: X-Original-To: sinton Delivered-To: sinton@wam-2.localdomain Received: by wam-2.localdomain (Postfix, from userid 1001) id 3FFA83929D; Mon, 10 May 2021 00:16:02 -0400 (EDT) From: root@wam-2.localdomain (Cron Daemon) To: sinton@wam-2.localdomain Subject: Cron ~/symlinks/TEAM1F/metin/apiv4.sh 1f > /dev/null MIME-Version: 1.0 Content-Type: text/plain; charset=UTF-8 Content-Transfer-Encoding: 8bit X-Cron-Env: X-Cron-Env: X-Cron-Env: X-Cron-Env: Message-Id: <20210510041602.3FFA83929D@wam-2.localdomain> Date: Mon, 10 May 2021 00:16:02 -0400 (EDT) % Total % Received % Xferd Average Speed Time Time Time Current Dload Upload Total Spent Left Speed 0 0 0 0 0 0 0 0 --:--:-- --:--:-- --:--:-- 0 100 387 100 387 0 0 3486 0 --:--:-- --:--:-- --:--:-- 3518 From sinton@wam-2.localdomain Mon May 10 00:17:01 2021 Return-Path: X-Original-To: sinton Delivered-To: sinton@wam-2.localdomain Received: by wam-2.localdomain (Postfix, from userid 1001) id 72070392D4; Mon, 10 May 2021 00:17:01 -0400 (EDT) From: root@wam-2.localdomain (Cron Daemon) To: sinton@wam-2.localdomain Subject: Cron ~/symlinks/TEAM99/ogoakinitchka2.sh 99 0.05 > /dev/null MIME-Version: 1.0 Content-Type: text/plain; charset=UTF-8 Content-Transfer-Encoding: 8bit X-Cron-Env: X-Cron-Env: X-Cron-Env: X-Cron-Env: Message-Id: <20210510041701.72070392D4@wam-2.localdomain> Date: Mon, 10 May 2021 00:17:01 -0400 (EDT) /bin/sh: 1: /home/sinton/symlinks/TEAM99/ogoakinitchka2.sh: not found From sinton@wam-2.localdomain Mon May 10 00:17:01 2021 Return-Path: X-Original-To: sinton Delivered-To: sinton@wam-2.localdomain Received: by wam-2.localdomain (Postfix, from userid 1001) id 8598E392C8; Mon, 10 May 2021 00:17:01 -0400 (EDT) From: root@wam-2.localdomain (Cron Daemon) To: sinton@wam-2.localdomain Subject: Cron ~/symlinks/TEAM1F/metin/apiv4.sh 1f > /dev/null MIME-Version: 1.0 Content-Type: text/plain; charset=UTF-8 Content-Transfer-Encoding: 8bit X-Cron-Env: X-Cron-Env: X-Cron-Env: X-Cron-Env: Message-Id: <20210510041701.8598E392C8@wam-2.localdomain> Date: Mon, 10 May 2021 00:17:01 -0400 (EDT) % Total % Received % Xferd Average Speed Time Time Time Current Dload Upload Total Spent Left Speed 0 0 0 0 0 0 0 0 --:--:-- --:--:-- --:--:-- 0 100 387 100 387 0 0 7442 0 --:--:-- --:--:-- --:--:-- 7442 From sinton@wam-2.localdomain Mon May 10 00:18:01 2021 Return-Path: X-Original-To: sinton Delivered-To: sinton@wam-2.localdomain Received: by wam-2.localdomain (Postfix, from userid 1001) id 6EECF392B0; Mon, 10 May 2021 00:18:01 -0400 (EDT) From: root@wam-2.localdomain (Cron Daemon) To: sinton@wam-2.localdomain Subject: Cron ~/symlinks/TEAM99/ogoakinitchka2.sh 99 0.05 > /dev/null MIME-Version: 1.0 Content-Type: text/plain; charset=UTF-8 Content-Transfer-Encoding: 8bit X-Cron-Env: X-Cron-Env: X-Cron-Env: X-Cron-Env: Message-Id: <20210510041801.6EECF392B0@wam-2.localdomain> Date: Mon, 10 May 2021 00:18:01 -0400 (EDT) /bin/sh: 1: /home/sinton/symlinks/TEAM99/ogoakinitchka2.sh: not found From sinton@wam-2.localdomain Mon May 10 00:18:01 2021 Return-Path: X-Original-To: sinton Delivered-To: sinton@wam-2.localdomain Received: by wam-2.localdomain (Postfix, from userid 1001) id 809F5392B0; Mon, 10 May 2021 00:18:01 -0400 (EDT) From: root@wam-2.localdomain (Cron Daemon) To: sinton@wam-2.localdomain Subject: Cron ~/symlinks/TEAM1F/metin/apiv4.sh 1f > /dev/null MIME-Version: 1.0 Content-Type: text/plain; charset=UTF-8 Content-Transfer-Encoding: 8bit X-Cron-Env: X-Cron-Env: X-Cron-Env: X-Cron-Env: Message-Id: <20210510041801.809F5392B0@wam-2.localdomain> Date: Mon, 10 May 2021 00:18:01 -0400 (EDT) % Total % Received % Xferd Average Speed Time Time Time Current Dload Upload Total Spent Left Speed 0 0 0 0 0 0 0 0 --:--:-- --:--:-- --:--:-- 0 100 385 100 385 0 0 5661 0 --:--:-- --:--:-- --:--:-- 5661 From sinton@wam-2.localdomain Mon May 10 00:19:01 2021 Return-Path: X-Original-To: sinton Delivered-To: sinton@wam-2.localdomain Received: by wam-2.localdomain (Postfix, from userid 1001) id B4715392C8; Mon, 10 May 2021 00:19:01 -0400 (EDT) From: root@wam-2.localdomain (Cron Daemon) To: sinton@wam-2.localdomain Subject: Cron ~/symlinks/TEAM99/ogoakinitchka2.sh 99 0.05 > /dev/null MIME-Version: 1.0 Content-Type: text/plain; charset=UTF-8 Content-Transfer-Encoding: 8bit X-Cron-Env: X-Cron-Env: X-Cron-Env: X-Cron-Env: Message-Id: <20210510041901.B4715392C8@wam-2.localdomain> Date: Mon, 10 May 2021 00:19:01 -0400 (EDT) /bin/sh: 1: /home/sinton/symlinks/TEAM99/ogoakinitchka2.sh: not found From sinton@wam-2.localdomain Mon May 10 00:19:01 2021 Return-Path: X-Original-To: sinton Delivered-To: sinton@wam-2.localdomain Received: by wam-2.localdomain (Postfix, from userid 1001) id C9A13392C8; Mon, 10 May 2021 00:19:01 -0400 (EDT) From: root@wam-2.localdomain (Cron Daemon) To: sinton@wam-2.localdomain Subject: Cron ~/symlinks/TEAM1F/metin/apiv4.sh 1f > /dev/null MIME-Version: 1.0 Content-Type: text/plain; charset=UTF-8 Content-Transfer-Encoding: 8bit X-Cron-Env: X-Cron-Env: X-Cron-Env: X-Cron-Env: Message-Id: <20210510041901.C9A13392C8@wam-2.localdomain> Date: Mon, 10 May 2021 00:19:01 -0400 (EDT) % Total % Received % Xferd Average Speed Time Time Time Current Dload Upload Total Spent Left Speed 0 0 0 0 0 0 0 0 --:--:-- --:--:-- --:--:-- 0 100 387 100 387 0 0 5776 0 --:--:-- --:--:-- --:--:-- 5863 From sinton@wam-2.localdomain Mon May 10 00:20:02 2021 Return-Path: X-Original-To: sinton Delivered-To: sinton@wam-2.localdomain Received: by wam-2.localdomain (Postfix, from userid 1001) id 06A7C392C5; Mon, 10 May 2021 00:20:02 -0400 (EDT) From: root@wam-2.localdomain (Cron Daemon) To: sinton@wam-2.localdomain Subject: Cron ~/symlinks/TEAM99/ogoakinitchka2.sh 99 0.05 > /dev/null MIME-Version: 1.0 Content-Type: text/plain; charset=UTF-8 Content-Transfer-Encoding: 8bit X-Cron-Env: X-Cron-Env: X-Cron-Env: X-Cron-Env: Message-Id: <20210510042002.06A7C392C5@wam-2.localdomain> Date: Mon, 10 May 2021 00:20:02 -0400 (EDT) /bin/sh: 1: /home/sinton/symlinks/TEAM99/ogoakinitchka2.sh: not found From sinton@wam-2.localdomain Mon May 10 00:20:02 2021 Return-Path: X-Original-To: sinton Delivered-To: sinton@wam-2.localdomain Received: by wam-2.localdomain (Postfix, from userid 1001) id 1B7A5392C5; Mon, 10 May 2021 00:20:02 -0400 (EDT) From: root@wam-2.localdomain (Cron Daemon) To: sinton@wam-2.localdomain Subject: Cron ~/symlinks/TEAM1F/metin/apiv4.sh 1f > /dev/null MIME-Version: 1.0 Content-Type: text/plain; charset=UTF-8 Content-Transfer-Encoding: 8bit X-Cron-Env: X-Cron-Env: X-Cron-Env: X-Cron-Env: Message-Id: <20210510042002.1B7A5392C5@wam-2.localdomain> Date: Mon, 10 May 2021 00:20:02 -0400 (EDT) % Total % Received % Xferd Average Speed Time Time Time Current Dload Upload Total Spent Left Speed 0 0 0 0 0 0 0 0 --:--:-- --:--:-- --:--:-- 0 100 387 100 387 0 0 5301 0 --:--:-- --:--:-- --:--:-- 5301 From sinton@wam-2.localdomain Mon May 10 00:21:01 2021 Return-Path: X-Original-To: sinton Delivered-To: sinton@wam-2.localdomain Received: by wam-2.localdomain (Postfix, from userid 1001) id 5B7C239138; Mon, 10 May 2021 00:21:01 -0400 (EDT) From: root@wam-2.localdomain (Cron Daemon) To: sinton@wam-2.localdomain Subject: Cron ~/symlinks/TEAM99/ogoakinitchka2.sh 99 0.05 > /dev/null MIME-Version: 1.0 Content-Type: text/plain; charset=UTF-8 Content-Transfer-Encoding: 8bit X-Cron-Env: X-Cron-Env: X-Cron-Env: X-Cron-Env: Message-Id: <20210510042101.5B7C239138@wam-2.localdomain> Date: Mon, 10 May 2021 00:21:01 -0400 (EDT) /bin/sh: 1: /home/sinton/symlinks/TEAM99/ogoakinitchka2.sh: not found From sinton@wam-2.localdomain Mon May 10 00:21:01 2021 Return-Path: X-Original-To: sinton Delivered-To: sinton@wam-2.localdomain Received: by wam-2.localdomain (Postfix, from userid 1001) id 70B0D39138; Mon, 10 May 2021 00:21:01 -0400 (EDT) From: root@wam-2.localdomain (Cron Daemon) To: sinton@wam-2.localdomain Subject: Cron ~/symlinks/TEAM1F/metin/apiv4.sh 1f > /dev/null MIME-Version: 1.0 Content-Type: text/plain; charset=UTF-8 Content-Transfer-Encoding: 8bit X-Cron-Env: X-Cron-Env: X-Cron-Env: X-Cron-Env: Message-Id: <20210510042101.70B0D39138@wam-2.localdomain> Date: Mon, 10 May 2021 00:21:01 -0400 (EDT) % Total % Received % Xferd Average Speed Time Time Time Current Dload Upload Total Spent Left Speed 0 0 0 0 0 0 0 0 --:--:-- --:--:-- --:--:-- 0 100 387 100 387 0 0 4300 0 --:--:-- --:--:-- --:--:-- 4300 From sinton@wam-2.localdomain Mon May 10 00:22:01 2021 Return-Path: X-Original-To: sinton Delivered-To: sinton@wam-2.localdomain Received: by wam-2.localdomain (Postfix, from userid 1001) id A0FFB3940B; Mon, 10 May 2021 00:22:01 -0400 (EDT) From: root@wam-2.localdomain (Cron Daemon) To: sinton@wam-2.localdomain Subject: Cron ~/symlinks/TEAM99/ogoakinitchka2.sh 99 0.05 > /dev/null MIME-Version: 1.0 Content-Type: text/plain; charset=UTF-8 Content-Transfer-Encoding: 8bit X-Cron-Env: X-Cron-Env: X-Cron-Env: X-Cron-Env: Message-Id: <20210510042201.A0FFB3940B@wam-2.localdomain> Date: Mon, 10 May 2021 00:22:01 -0400 (EDT) /bin/sh: 1: /home/sinton/symlinks/TEAM99/ogoakinitchka2.sh: not found From sinton@wam-2.localdomain Mon May 10 00:22:01 2021 Return-Path: X-Original-To: sinton Delivered-To: sinton@wam-2.localdomain Received: by wam-2.localdomain (Postfix, from userid 1001) id B3DA83940B; Mon, 10 May 2021 00:22:01 -0400 (EDT) From: root@wam-2.localdomain (Cron Daemon) To: sinton@wam-2.localdomain Subject: Cron ~/symlinks/TEAM1F/metin/apiv4.sh 1f > /dev/null MIME-Version: 1.0 Content-Type: text/plain; charset=UTF-8 Content-Transfer-Encoding: 8bit X-Cron-Env: X-Cron-Env: X-Cron-Env: X-Cron-Env: Message-Id: <20210510042201.B3DA83940B@wam-2.localdomain> Date: Mon, 10 May 2021 00:22:01 -0400 (EDT) % Total % Received % Xferd Average Speed Time Time Time Current Dload Upload Total Spent Left Speed 0 0 0 0 0 0 0 0 --:--:-- --:--:-- --:--:-- 0 100 387 100 387 0 0 6046 0 --:--:-- --:--:-- --:--:-- 6046 From sinton@wam-2.localdomain Mon May 10 00:23:01 2021 Return-Path: X-Original-To: sinton Delivered-To: sinton@wam-2.localdomain Received: by wam-2.localdomain (Postfix, from userid 1001) id E85AE37ACA; Mon, 10 May 2021 00:23:01 -0400 (EDT) From: root@wam-2.localdomain (Cron Daemon) To: sinton@wam-2.localdomain Subject: Cron ~/symlinks/TEAM99/ogoakinitchka2.sh 99 0.05 > /dev/null MIME-Version: 1.0 Content-Type: text/plain; charset=UTF-8 Content-Transfer-Encoding: 8bit X-Cron-Env: X-Cron-Env: X-Cron-Env: X-Cron-Env: Message-Id: <20210510042301.E85AE37ACA@wam-2.localdomain> Date: Mon, 10 May 2021 00:23:01 -0400 (EDT) /bin/sh: 1: /home/sinton/symlinks/TEAM99/ogoakinitchka2.sh: not found From sinton@wam-2.localdomain Mon May 10 00:23:02 2021 Return-Path: X-Original-To: sinton Delivered-To: sinton@wam-2.localdomain Received: by wam-2.localdomain (Postfix, from userid 1001) id 08C8B3929F; Mon, 10 May 2021 00:23:02 -0400 (EDT) From: root@wam-2.localdomain (Cron Daemon) To: sinton@wam-2.localdomain Subject: Cron ~/symlinks/TEAM1F/metin/apiv4.sh 1f > /dev/null MIME-Version: 1.0 Content-Type: text/plain; charset=UTF-8 Content-Transfer-Encoding: 8bit X-Cron-Env: X-Cron-Env: X-Cron-Env: X-Cron-Env: Message-Id: <20210510042302.08C8B3929F@wam-2.localdomain> Date: Mon, 10 May 2021 00:23:02 -0400 (EDT) % Total % Received % Xferd Average Speed Time Time Time Current Dload Upload Total Spent Left Speed 0 0 0 0 0 0 0 0 --:--:-- --:--:-- --:--:-- 0 100 387 100 387 0 0 5025 0 --:--:-- --:--:-- --:--:-- 5025 From sinton@wam-2.localdomain Mon May 10 00:24:01 2021 Return-Path: X-Original-To: sinton Delivered-To: sinton@wam-2.localdomain Received: by wam-2.localdomain (Postfix, from userid 1001) id 42B8A38E8B; Mon, 10 May 2021 00:24:01 -0400 (EDT) From: root@wam-2.localdomain (Cron Daemon) To: sinton@wam-2.localdomain Subject: Cron ~/symlinks/TEAM99/ogoakinitchka2.sh 99 0.05 > /dev/null MIME-Version: 1.0 Content-Type: text/plain; charset=UTF-8 Content-Transfer-Encoding: 8bit X-Cron-Env: X-Cron-Env: X-Cron-Env: X-Cron-Env: Message-Id: <20210510042401.42B8A38E8B@wam-2.localdomain> Date: Mon, 10 May 2021 00:24:01 -0400 (EDT) /bin/sh: 1: /home/sinton/symlinks/TEAM99/ogoakinitchka2.sh: not found From sinton@wam-2.localdomain Mon May 10 00:24:01 2021 Return-Path: X-Original-To: sinton Delivered-To: sinton@wam-2.localdomain Received: by wam-2.localdomain (Postfix, from userid 1001) id 5762238E8B; Mon, 10 May 2021 00:24:01 -0400 (EDT) From: root@wam-2.localdomain (Cron Daemon) To: sinton@wam-2.localdomain Subject: Cron ~/symlinks/TEAM1F/metin/apiv4.sh 1f > /dev/null MIME-Version: 1.0 Content-Type: text/plain; charset=UTF-8 Content-Transfer-Encoding: 8bit X-Cron-Env: X-Cron-Env: X-Cron-Env: X-Cron-Env: Message-Id: <20210510042401.5762238E8B@wam-2.localdomain> Date: Mon, 10 May 2021 00:24:01 -0400 (EDT) % Total % Received % Xferd Average Speed Time Time Time Current Dload Upload Total Spent Left Speed 0 0 0 0 0 0 0 0 --:--:-- --:--:-- --:--:-- 0 100 386 100 386 0 0 5761 0 --:--:-- --:--:-- --:--:-- 5761 From sinton@wam-2.localdomain Mon May 10 00:24:22 2021 Return-Path: X-Original-To: sinton Delivered-To: sinton@wam-2.localdomain Received: by wam-2.localdomain (Postfix, from userid 1001) id 1A0DC38668; Mon, 10 May 2021 00:24:22 -0400 (EDT) From: root@wam-2.localdomain (Cron Daemon) To: sinton@wam-2.localdomain Subject: Cron bash -c "sleep $[RANDOM%30]m" ; ~/symlinks/TEAM8/fcst/startfcstclim.sh 8 > /dev/null MIME-Version: 1.0 Content-Type: text/plain; charset=UTF-8 Content-Transfer-Encoding: 8bit X-Cron-Env: X-Cron-Env: X-Cron-Env: X-Cron-Env: Message-Id: <20210510042422.1A0DC38668@wam-2.localdomain> Date: Mon, 10 May 2021 00:24:22 -0400 (EDT) % Total % Received % Xferd Average Speed Time Time Time Current Dload Upload Total Spent Left Speed 0 0 0 0 0 0 0 0 --:--:-- --:--:-- --:--:-- 0 19 41640 19 7969 0 0 50436 0 --:--:-- --:--:-- --:--:-- 50119 100 41640 100 41640 0 0 255k 0 --:--:-- --:--:-- --:--:-- 254k From sinton@wam-2.localdomain Mon May 10 00:25:01 2021 Return-Path: X-Original-To: sinton Delivered-To: sinton@wam-2.localdomain Received: by wam-2.localdomain (Postfix, from userid 1001) id 4C04D38CCC; Mon, 10 May 2021 00:25:01 -0400 (EDT) From: root@wam-2.localdomain (Cron Daemon) To: sinton@wam-2.localdomain Subject: Cron ~/symlinks/TEAM99/ogoakinitchka2.sh 99 0.05 > /dev/null MIME-Version: 1.0 Content-Type: text/plain; charset=UTF-8 Content-Transfer-Encoding: 8bit X-Cron-Env: X-Cron-Env: X-Cron-Env: X-Cron-Env: Message-Id: <20210510042501.4C04D38CCC@wam-2.localdomain> Date: Mon, 10 May 2021 00:25:01 -0400 (EDT) /bin/sh: 1: /home/sinton/symlinks/TEAM99/ogoakinitchka2.sh: not found From sinton@wam-2.localdomain Mon May 10 00:25:01 2021 Return-Path: X-Original-To: sinton Delivered-To: sinton@wam-2.localdomain Received: by wam-2.localdomain (Postfix, from userid 1001) id 6571338CCC; Mon, 10 May 2021 00:25:01 -0400 (EDT) From: root@wam-2.localdomain (Cron Daemon) To: sinton@wam-2.localdomain Subject: Cron ~/symlinks/TEAM1F/metin/apiv4.sh 1f > /dev/null MIME-Version: 1.0 Content-Type: text/plain; charset=UTF-8 Content-Transfer-Encoding: 8bit X-Cron-Env: X-Cron-Env: X-Cron-Env: X-Cron-Env: Message-Id: <20210510042501.6571338CCC@wam-2.localdomain> Date: Mon, 10 May 2021 00:25:01 -0400 (EDT) % Total % Received % Xferd Average Speed Time Time Time Current Dload Upload Total Spent Left Speed 0 0 0 0 0 0 0 0 --:--:-- --:--:-- --:--:-- 0 100 391 100 391 0 0 4250 0 --:--:-- --:--:-- --:--:-- 4296 From sinton@wam-2.localdomain Mon May 10 00:26:01 2021 Return-Path: X-Original-To: sinton Delivered-To: sinton@wam-2.localdomain Received: by wam-2.localdomain (Postfix, from userid 1001) id AA20B212F1; Mon, 10 May 2021 00:26:01 -0400 (EDT) From: root@wam-2.localdomain (Cron Daemon) To: sinton@wam-2.localdomain Subject: Cron ~/symlinks/TEAM99/ogoakinitchka2.sh 99 0.05 > /dev/null MIME-Version: 1.0 Content-Type: text/plain; charset=UTF-8 Content-Transfer-Encoding: 8bit X-Cron-Env: X-Cron-Env: X-Cron-Env: X-Cron-Env: Message-Id: <20210510042601.AA20B212F1@wam-2.localdomain> Date: Mon, 10 May 2021 00:26:01 -0400 (EDT) /bin/sh: 1: /home/sinton/symlinks/TEAM99/ogoakinitchka2.sh: not found From sinton@wam-2.localdomain Mon May 10 00:26:01 2021 Return-Path: X-Original-To: sinton Delivered-To: sinton@wam-2.localdomain Received: by wam-2.localdomain (Postfix, from userid 1001) id CDA363941E; Mon, 10 May 2021 00:26:01 -0400 (EDT) From: root@wam-2.localdomain (Cron Daemon) To: sinton@wam-2.localdomain Subject: Cron ~/symlinks/TEAM1F/metin/apiv4.sh 1f > /dev/null MIME-Version: 1.0 Content-Type: text/plain; charset=UTF-8 Content-Transfer-Encoding: 8bit X-Cron-Env: X-Cron-Env: X-Cron-Env: X-Cron-Env: Message-Id: <20210510042601.CDA363941E@wam-2.localdomain> Date: Mon, 10 May 2021 00:26:01 -0400 (EDT) % Total % Received % Xferd Average Speed Time Time Time Current Dload Upload Total Spent Left Speed 0 0 0 0 0 0 0 0 --:--:-- --:--:-- --:--:-- 0 100 392 100 392 0 0 2820 0 --:--:-- --:--:-- --:--:-- 2820 From sinton@wam-2.localdomain Mon May 10 00:27:02 2021 Return-Path: X-Original-To: sinton Delivered-To: sinton@wam-2.localdomain Received: by wam-2.localdomain (Postfix, from userid 1001) id 0B01939243; Mon, 10 May 2021 00:27:02 -0400 (EDT) From: root@wam-2.localdomain (Cron Daemon) To: sinton@wam-2.localdomain Subject: Cron ~/symlinks/TEAM99/ogoakinitchka2.sh 99 0.05 > /dev/null MIME-Version: 1.0 Content-Type: text/plain; charset=UTF-8 Content-Transfer-Encoding: 8bit X-Cron-Env: X-Cron-Env: X-Cron-Env: X-Cron-Env: Message-Id: <20210510042702.0B01939243@wam-2.localdomain> Date: Mon, 10 May 2021 00:27:02 -0400 (EDT) /bin/sh: 1: /home/sinton/symlinks/TEAM99/ogoakinitchka2.sh: not found From sinton@wam-2.localdomain Mon May 10 00:27:02 2021 Return-Path: X-Original-To: sinton Delivered-To: sinton@wam-2.localdomain Received: by wam-2.localdomain (Postfix, from userid 1001) id 1D82539243; Mon, 10 May 2021 00:27:02 -0400 (EDT) From: root@wam-2.localdomain (Cron Daemon) To: sinton@wam-2.localdomain Subject: Cron ~/symlinks/TEAM1F/metin/apiv4.sh 1f > /dev/null MIME-Version: 1.0 Content-Type: text/plain; charset=UTF-8 Content-Transfer-Encoding: 8bit X-Cron-Env: X-Cron-Env: X-Cron-Env: X-Cron-Env: Message-Id: <20210510042702.1D82539243@wam-2.localdomain> Date: Mon, 10 May 2021 00:27:02 -0400 (EDT) % Total % Received % Xferd Average Speed Time Time Time Current Dload Upload Total Spent Left Speed 0 0 0 0 0 0 0 0 --:--:-- --:--:-- --:--:-- 0 100 391 100 391 0 0 6409 0 --:--:-- --:--:-- --:--:-- 6516 From sinton@wam-2.localdomain Mon May 10 00:28:01 2021 Return-Path: X-Original-To: sinton Delivered-To: sinton@wam-2.localdomain Received: by wam-2.localdomain (Postfix, from userid 1001) id 503CF39406; Mon, 10 May 2021 00:28:01 -0400 (EDT) From: root@wam-2.localdomain (Cron Daemon) To: sinton@wam-2.localdomain Subject: Cron ~/symlinks/TEAM99/ogoakinitchka2.sh 99 0.05 > /dev/null MIME-Version: 1.0 Content-Type: text/plain; charset=UTF-8 Content-Transfer-Encoding: 8bit X-Cron-Env: X-Cron-Env: X-Cron-Env: X-Cron-Env: Message-Id: <20210510042801.503CF39406@wam-2.localdomain> Date: Mon, 10 May 2021 00:28:01 -0400 (EDT) /bin/sh: 1: /home/sinton/symlinks/TEAM99/ogoakinitchka2.sh: not found From sinton@wam-2.localdomain Mon May 10 00:28:01 2021 Return-Path: X-Original-To: sinton Delivered-To: sinton@wam-2.localdomain Received: by wam-2.localdomain (Postfix, from userid 1001) id 5D64739406; Mon, 10 May 2021 00:28:01 -0400 (EDT) From: root@wam-2.localdomain (Cron Daemon) To: sinton@wam-2.localdomain Subject: Cron ~/symlinks/TEAM1F/metin/apiv4.sh 1f > /dev/null MIME-Version: 1.0 Content-Type: text/plain; charset=UTF-8 Content-Transfer-Encoding: 8bit X-Cron-Env: X-Cron-Env: X-Cron-Env: X-Cron-Env: Message-Id: <20210510042801.5D64739406@wam-2.localdomain> Date: Mon, 10 May 2021 00:28:01 -0400 (EDT) % Total % Received % Xferd Average Speed Time Time Time Current Dload Upload Total Spent Left Speed 0 0 0 0 0 0 0 0 --:--:-- --:--:-- --:--:-- 0 100 391 100 391 0 0 7377 0 --:--:-- --:--:-- --:--:-- 7519 From sinton@wam-2.localdomain Mon May 10 00:29:01 2021 Return-Path: X-Original-To: sinton Delivered-To: sinton@wam-2.localdomain Received: by wam-2.localdomain (Postfix, from userid 1001) id 9B3A939243; Mon, 10 May 2021 00:29:01 -0400 (EDT) From: root@wam-2.localdomain (Cron Daemon) To: sinton@wam-2.localdomain Subject: Cron ~/symlinks/TEAM99/ogoakinitchka2.sh 99 0.05 > /dev/null MIME-Version: 1.0 Content-Type: text/plain; charset=UTF-8 Content-Transfer-Encoding: 8bit X-Cron-Env: X-Cron-Env: X-Cron-Env: X-Cron-Env: Message-Id: <20210510042901.9B3A939243@wam-2.localdomain> Date: Mon, 10 May 2021 00:29:01 -0400 (EDT) /bin/sh: 1: /home/sinton/symlinks/TEAM99/ogoakinitchka2.sh: not found From sinton@wam-2.localdomain Mon May 10 00:29:01 2021 Return-Path: X-Original-To: sinton Delivered-To: sinton@wam-2.localdomain Received: by wam-2.localdomain (Postfix, from userid 1001) id AA22839409; Mon, 10 May 2021 00:29:01 -0400 (EDT) From: root@wam-2.localdomain (Cron Daemon) To: sinton@wam-2.localdomain Subject: Cron ~/symlinks/TEAM1F/metin/apiv4.sh 1f > /dev/null MIME-Version: 1.0 Content-Type: text/plain; charset=UTF-8 Content-Transfer-Encoding: 8bit X-Cron-Env: X-Cron-Env: X-Cron-Env: X-Cron-Env: Message-Id: <20210510042901.AA22839409@wam-2.localdomain> Date: Mon, 10 May 2021 00:29:01 -0400 (EDT) % Total % Received % Xferd Average Speed Time Time Time Current Dload Upload Total Spent Left Speed 0 0 0 0 0 0 0 0 --:--:-- --:--:-- --:--:-- 0 100 391 100 391 0 0 4827 0 --:--:-- --:--:-- --:--:-- 4827 From sinton@wam-2.localdomain Mon May 10 00:29:22 2021 Return-Path: X-Original-To: sinton Delivered-To: sinton@wam-2.localdomain Received: by wam-2.localdomain (Postfix, from userid 1001) id 4AFED39427; Mon, 10 May 2021 00:29:22 -0400 (EDT) From: root@wam-2.localdomain (Cron Daemon) To: sinton@wam-2.localdomain Subject: Cron bash -c "sleep $[RANDOM%30]m" ; ~/symlinks/TEAM1/fcst/startfcstclim.sh 1 > /dev/null MIME-Version: 1.0 Content-Type: text/plain; charset=UTF-8 Content-Transfer-Encoding: 8bit X-Cron-Env: X-Cron-Env: X-Cron-Env: X-Cron-Env: Message-Id: <20210510042922.4AFED39427@wam-2.localdomain> Date: Mon, 10 May 2021 00:29:22 -0400 (EDT) % Total % Received % Xferd Average Speed Time Time Time Current Dload Upload Total Spent Left Speed 0 0 0 0 0 0 0 0 --:--:-- --:--:-- --:--:-- 0 19 41764 19 7969 0 0 55340 0 --:--:-- --:--:-- --:--:-- 54958 100 41764 100 41764 0 0 281k 0 --:--:-- --:--:-- --:--:-- 279k From sinton@wam-2.localdomain Mon May 10 00:30:01 2021 Return-Path: X-Original-To: sinton Delivered-To: sinton@wam-2.localdomain Received: by wam-2.localdomain (Postfix, from userid 1001) id 8065D3941D; Mon, 10 May 2021 00:30:01 -0400 (EDT) From: root@wam-2.localdomain (Cron Daemon) To: sinton@wam-2.localdomain Subject: Cron ~/symlinks/TEAM99/ogoakinitchka2.sh 99 0.05 > /dev/null MIME-Version: 1.0 Content-Type: text/plain; charset=UTF-8 Content-Transfer-Encoding: 8bit X-Cron-Env: X-Cron-Env: X-Cron-Env: X-Cron-Env: Message-Id: <20210510043001.8065D3941D@wam-2.localdomain> Date: Mon, 10 May 2021 00:30:01 -0400 (EDT) /bin/sh: 1: /home/sinton/symlinks/TEAM99/ogoakinitchka2.sh: not found From sinton@wam-2.localdomain Mon May 10 00:30:01 2021 Return-Path: X-Original-To: sinton Delivered-To: sinton@wam-2.localdomain Received: by wam-2.localdomain (Postfix, from userid 1001) id 9A01C3941D; Mon, 10 May 2021 00:30:01 -0400 (EDT) From: root@wam-2.localdomain (Cron Daemon) To: sinton@wam-2.localdomain Subject: Cron ~/symlinks/TEAM1F/metin/apiv4.sh 1f > /dev/null MIME-Version: 1.0 Content-Type: text/plain; charset=UTF-8 Content-Transfer-Encoding: 8bit X-Cron-Env: X-Cron-Env: X-Cron-Env: X-Cron-Env: Message-Id: <20210510043001.9A01C3941D@wam-2.localdomain> Date: Mon, 10 May 2021 00:30:01 -0400 (EDT) % Total % Received % Xferd Average Speed Time Time Time Current Dload Upload Total Spent Left Speed 0 0 0 0 0 0 0 0 --:--:-- --:--:-- --:--:-- 0 100 390 100 390 0 0 2635 0 --:--:-- --:--:-- --:--:-- 3611 From sinton@wam-2.localdomain Mon May 10 00:30:32 2021 Return-Path: X-Original-To: sinton Delivered-To: sinton@wam-2.localdomain Received: by wam-2.localdomain (Postfix, from userid 1001) id 92A84385C3; Mon, 10 May 2021 00:30:32 -0400 (EDT) From: root@wam-2.localdomain (Cron Daemon) To: sinton@wam-2.localdomain Subject: Cron bash -c "sleep $[RANDOM%30]m" ; ~/symlinks/TEAM2/fcst/startfcstclim.sh 2 > /dev/null MIME-Version: 1.0 Content-Type: text/plain; charset=UTF-8 Content-Transfer-Encoding: 8bit X-Cron-Env: X-Cron-Env: X-Cron-Env: X-Cron-Env: Message-Id: <20210510043032.92A84385C3@wam-2.localdomain> Date: Mon, 10 May 2021 00:30:32 -0400 (EDT) % Total % Received % Xferd Average Speed Time Time Time Current Dload Upload Total Spent Left Speed 0 0 0 0 0 0 0 0 --:--:-- --:--:-- --:--:-- 0 19 41793 19 7969 0 0 61775 0 --:--:-- --:--:-- --:--:-- 61300 100 41793 100 41793 0 0 313k 0 --:--:-- --:--:-- --:--:-- 311k From sinton@wam-2.localdomain Mon May 10 00:31:01 2021 Return-Path: X-Original-To: sinton Delivered-To: sinton@wam-2.localdomain Received: by wam-2.localdomain (Postfix, from userid 1001) id D35BE38E7F; Mon, 10 May 2021 00:31:01 -0400 (EDT) From: root@wam-2.localdomain (Cron Daemon) To: sinton@wam-2.localdomain Subject: Cron ~/symlinks/TEAM99/ogoakinitchka2.sh 99 0.05 > /dev/null MIME-Version: 1.0 Content-Type: text/plain; charset=UTF-8 Content-Transfer-Encoding: 8bit X-Cron-Env: X-Cron-Env: X-Cron-Env: X-Cron-Env: Message-Id: <20210510043101.D35BE38E7F@wam-2.localdomain> Date: Mon, 10 May 2021 00:31:01 -0400 (EDT) /bin/sh: 1: /home/sinton/symlinks/TEAM99/ogoakinitchka2.sh: not found From sinton@wam-2.localdomain Mon May 10 00:31:01 2021 Return-Path: X-Original-To: sinton Delivered-To: sinton@wam-2.localdomain Received: by wam-2.localdomain (Postfix, from userid 1001) id E561A39243; Mon, 10 May 2021 00:31:01 -0400 (EDT) From: root@wam-2.localdomain (Cron Daemon) To: sinton@wam-2.localdomain Subject: Cron ~/symlinks/TEAM1F/metin/apiv4.sh 1f > /dev/null MIME-Version: 1.0 Content-Type: text/plain; charset=UTF-8 Content-Transfer-Encoding: 8bit X-Cron-Env: X-Cron-Env: X-Cron-Env: X-Cron-Env: Message-Id: <20210510043101.E561A39243@wam-2.localdomain> Date: Mon, 10 May 2021 00:31:01 -0400 (EDT) % Total % Received % Xferd Average Speed Time Time Time Current Dload Upload Total Spent Left Speed 0 0 0 0 0 0 0 0 --:--:-- --:--:-- --:--:-- 0 0 0 0 0 0 0 0 0 --:--:-- --:--:-- --:--:-- 0 100 391 100 391 0 0 5585 0 --:--:-- --:--:-- --:--:-- 5507 From sinton@wam-2.localdomain Mon May 10 00:32:02 2021 Return-Path: X-Original-To: sinton Delivered-To: sinton@wam-2.localdomain Received: by wam-2.localdomain (Postfix, from userid 1001) id 1F7C53941D; Mon, 10 May 2021 00:32:02 -0400 (EDT) From: root@wam-2.localdomain (Cron Daemon) To: sinton@wam-2.localdomain Subject: Cron ~/symlinks/TEAM99/ogoakinitchka2.sh 99 0.05 > /dev/null MIME-Version: 1.0 Content-Type: text/plain; charset=UTF-8 Content-Transfer-Encoding: 8bit X-Cron-Env: X-Cron-Env: X-Cron-Env: X-Cron-Env: Message-Id: <20210510043202.1F7C53941D@wam-2.localdomain> Date: Mon, 10 May 2021 00:32:02 -0400 (EDT) /bin/sh: 1: /home/sinton/symlinks/TEAM99/ogoakinitchka2.sh: not found From sinton@wam-2.localdomain Mon May 10 00:32:02 2021 Return-Path: X-Original-To: sinton Delivered-To: sinton@wam-2.localdomain Received: by wam-2.localdomain (Postfix, from userid 1001) id 349AC3941D; Mon, 10 May 2021 00:32:02 -0400 (EDT) From: root@wam-2.localdomain (Cron Daemon) To: sinton@wam-2.localdomain Subject: Cron ~/symlinks/TEAM1F/metin/apiv4.sh 1f > /dev/null MIME-Version: 1.0 Content-Type: text/plain; charset=UTF-8 Content-Transfer-Encoding: 8bit X-Cron-Env: X-Cron-Env: X-Cron-Env: X-Cron-Env: Message-Id: <20210510043202.349AC3941D@wam-2.localdomain> Date: Mon, 10 May 2021 00:32:02 -0400 (EDT) % Total % Received % Xferd Average Speed Time Time Time Current Dload Upload Total Spent Left Speed 0 0 0 0 0 0 0 0 --:--:-- --:--:-- --:--:-- 0 100 391 100 391 0 0 4393 0 --:--:-- --:--:-- --:--:-- 4393 From sinton@wam-2.localdomain Mon May 10 00:33:01 2021 Return-Path: X-Original-To: sinton Delivered-To: sinton@wam-2.localdomain Received: by wam-2.localdomain (Postfix, from userid 1001) id 66AA539424; Mon, 10 May 2021 00:33:01 -0400 (EDT) From: root@wam-2.localdomain (Cron Daemon) To: sinton@wam-2.localdomain Subject: Cron ~/symlinks/TEAM99/ogoakinitchka2.sh 99 0.05 > /dev/null MIME-Version: 1.0 Content-Type: text/plain; charset=UTF-8 Content-Transfer-Encoding: 8bit X-Cron-Env: X-Cron-Env: X-Cron-Env: X-Cron-Env: Message-Id: <20210510043301.66AA539424@wam-2.localdomain> Date: Mon, 10 May 2021 00:33:01 -0400 (EDT) /bin/sh: 1: /home/sinton/symlinks/TEAM99/ogoakinitchka2.sh: not found From sinton@wam-2.localdomain Mon May 10 00:33:01 2021 Return-Path: X-Original-To: sinton Delivered-To: sinton@wam-2.localdomain Received: by wam-2.localdomain (Postfix, from userid 1001) id 83BE939424; Mon, 10 May 2021 00:33:01 -0400 (EDT) From: root@wam-2.localdomain (Cron Daemon) To: sinton@wam-2.localdomain Subject: Cron ~/symlinks/TEAM1F/metin/apiv4.sh 1f > /dev/null MIME-Version: 1.0 Content-Type: text/plain; charset=UTF-8 Content-Transfer-Encoding: 8bit X-Cron-Env: X-Cron-Env: X-Cron-Env: X-Cron-Env: Message-Id: <20210510043301.83BE939424@wam-2.localdomain> Date: Mon, 10 May 2021 00:33:01 -0400 (EDT) % Total % Received % Xferd Average Speed Time Time Time Current Dload Upload Total Spent Left Speed 0 0 0 0 0 0 0 0 --:--:-- --:--:-- --:--:-- 0 100 390 100 390 0 0 3979 0 --:--:-- --:--:-- --:--:-- 3979 From sinton@wam-2.localdomain Mon May 10 00:34:01 2021 Return-Path: X-Original-To: sinton Delivered-To: sinton@wam-2.localdomain Received: by wam-2.localdomain (Postfix, from userid 1001) id B7AE639427; Mon, 10 May 2021 00:34:01 -0400 (EDT) From: root@wam-2.localdomain (Cron Daemon) To: sinton@wam-2.localdomain Subject: Cron ~/symlinks/TEAM99/ogoakinitchka2.sh 99 0.05 > /dev/null MIME-Version: 1.0 Content-Type: text/plain; charset=UTF-8 Content-Transfer-Encoding: 8bit X-Cron-Env: X-Cron-Env: X-Cron-Env: X-Cron-Env: Message-Id: <20210510043401.B7AE639427@wam-2.localdomain> Date: Mon, 10 May 2021 00:34:01 -0400 (EDT) /bin/sh: 1: /home/sinton/symlinks/TEAM99/ogoakinitchka2.sh: not found From sinton@wam-2.localdomain Mon May 10 00:34:01 2021 Return-Path: X-Original-To: sinton Delivered-To: sinton@wam-2.localdomain Received: by wam-2.localdomain (Postfix, from userid 1001) id D3E3F39427; Mon, 10 May 2021 00:34:01 -0400 (EDT) From: root@wam-2.localdomain (Cron Daemon) To: sinton@wam-2.localdomain Subject: Cron ~/symlinks/TEAM1F/metin/apiv4.sh 1f > /dev/null MIME-Version: 1.0 Content-Type: text/plain; charset=UTF-8 Content-Transfer-Encoding: 8bit X-Cron-Env: X-Cron-Env: X-Cron-Env: X-Cron-Env: Message-Id: <20210510043401.D3E3F39427@wam-2.localdomain> Date: Mon, 10 May 2021 00:34:01 -0400 (EDT) % Total % Received % Xferd Average Speed Time Time Time Current Dload Upload Total Spent Left Speed 0 0 0 0 0 0 0 0 --:--:-- --:--:-- --:--:-- 0 100 390 100 390 0 0 5131 0 --:--:-- --:--:-- --:--:-- 5131 From sinton@wam-2.localdomain Mon May 10 00:35:02 2021 Return-Path: X-Original-To: sinton Delivered-To: sinton@wam-2.localdomain Received: by wam-2.localdomain (Postfix, from userid 1001) id 1E72E39437; Mon, 10 May 2021 00:35:02 -0400 (EDT) From: root@wam-2.localdomain (Cron Daemon) To: sinton@wam-2.localdomain Subject: Cron ~/symlinks/TEAM99/ogoakinitchka2.sh 99 0.05 > /dev/null MIME-Version: 1.0 Content-Type: text/plain; charset=UTF-8 Content-Transfer-Encoding: 8bit X-Cron-Env: X-Cron-Env: X-Cron-Env: X-Cron-Env: Message-Id: <20210510043502.1E72E39437@wam-2.localdomain> Date: Mon, 10 May 2021 00:35:02 -0400 (EDT) /bin/sh: 1: /home/sinton/symlinks/TEAM99/ogoakinitchka2.sh: not found From sinton@wam-2.localdomain Mon May 10 00:35:02 2021 Return-Path: X-Original-To: sinton Delivered-To: sinton@wam-2.localdomain Received: by wam-2.localdomain (Postfix, from userid 1001) id 2A7C739437; Mon, 10 May 2021 00:35:02 -0400 (EDT) From: root@wam-2.localdomain (Cron Daemon) To: sinton@wam-2.localdomain Subject: Cron ~/symlinks/TEAM1F/metin/apiv4.sh 1f > /dev/null MIME-Version: 1.0 Content-Type: text/plain; charset=UTF-8 Content-Transfer-Encoding: 8bit X-Cron-Env: X-Cron-Env: X-Cron-Env: X-Cron-Env: Message-Id: <20210510043502.2A7C739437@wam-2.localdomain> Date: Mon, 10 May 2021 00:35:02 -0400 (EDT) % Total % Received % Xferd Average Speed Time Time Time Current Dload Upload Total Spent Left Speed 0 0 0 0 0 0 0 0 --:--:-- --:--:-- --:--:-- 0 100 390 100 390 0 0 5735 0 --:--:-- --:--:-- --:--:-- 5735 From sinton@wam-2.localdomain Mon May 10 00:36:01 2021 Return-Path: X-Original-To: sinton Delivered-To: sinton@wam-2.localdomain Received: by wam-2.localdomain (Postfix, from userid 1001) id 6A86639427; Mon, 10 May 2021 00:36:01 -0400 (EDT) From: root@wam-2.localdomain (Cron Daemon) To: sinton@wam-2.localdomain Subject: Cron ~/symlinks/TEAM99/ogoakinitchka2.sh 99 0.05 > /dev/null MIME-Version: 1.0 Content-Type: text/plain; charset=UTF-8 Content-Transfer-Encoding: 8bit X-Cron-Env: X-Cron-Env: X-Cron-Env: X-Cron-Env: Message-Id: <20210510043601.6A86639427@wam-2.localdomain> Date: Mon, 10 May 2021 00:36:01 -0400 (EDT) /bin/sh: 1: /home/sinton/symlinks/TEAM99/ogoakinitchka2.sh: not found From sinton@wam-2.localdomain Mon May 10 00:36:01 2021 Return-Path: X-Original-To: sinton Delivered-To: sinton@wam-2.localdomain Received: by wam-2.localdomain (Postfix, from userid 1001) id 90DA53942B; Mon, 10 May 2021 00:36:01 -0400 (EDT) From: root@wam-2.localdomain (Cron Daemon) To: sinton@wam-2.localdomain Subject: Cron ~/symlinks/TEAM1F/metin/apiv4.sh 1f > /dev/null MIME-Version: 1.0 Content-Type: text/plain; charset=UTF-8 Content-Transfer-Encoding: 8bit X-Cron-Env: X-Cron-Env: X-Cron-Env: X-Cron-Env: Message-Id: <20210510043601.90DA53942B@wam-2.localdomain> Date: Mon, 10 May 2021 00:36:01 -0400 (EDT) % Total % Received % Xferd Average Speed Time Time Time Current Dload Upload Total Spent Left Speed 0 0 0 0 0 0 0 0 --:--:-- --:--:-- --:--:-- 0 100 391 100 391 0 0 3871 0 --:--:-- --:--:-- --:--:-- 3871 From sinton@wam-2.localdomain Mon May 10 00:37:01 2021 Return-Path: X-Original-To: sinton Delivered-To: sinton@wam-2.localdomain Received: by wam-2.localdomain (Postfix, from userid 1001) id C4EF638645; Mon, 10 May 2021 00:37:01 -0400 (EDT) From: root@wam-2.localdomain (Cron Daemon) To: sinton@wam-2.localdomain Subject: Cron ~/symlinks/TEAM99/ogoakinitchka2.sh 99 0.05 > /dev/null MIME-Version: 1.0 Content-Type: text/plain; charset=UTF-8 Content-Transfer-Encoding: 8bit X-Cron-Env: X-Cron-Env: X-Cron-Env: X-Cron-Env: Message-Id: <20210510043701.C4EF638645@wam-2.localdomain> Date: Mon, 10 May 2021 00:37:01 -0400 (EDT) /bin/sh: 1: /home/sinton/symlinks/TEAM99/ogoakinitchka2.sh: not found From sinton@wam-2.localdomain Mon May 10 00:37:01 2021 Return-Path: X-Original-To: sinton Delivered-To: sinton@wam-2.localdomain Received: by wam-2.localdomain (Postfix, from userid 1001) id D851E38645; Mon, 10 May 2021 00:37:01 -0400 (EDT) From: root@wam-2.localdomain (Cron Daemon) To: sinton@wam-2.localdomain Subject: Cron ~/symlinks/TEAM1F/metin/apiv4.sh 1f > /dev/null MIME-Version: 1.0 Content-Type: text/plain; charset=UTF-8 Content-Transfer-Encoding: 8bit X-Cron-Env: X-Cron-Env: X-Cron-Env: X-Cron-Env: Message-Id: <20210510043701.D851E38645@wam-2.localdomain> Date: Mon, 10 May 2021 00:37:01 -0400 (EDT) % Total % Received % Xferd Average Speed Time Time Time Current Dload Upload Total Spent Left Speed 0 0 0 0 0 0 0 0 --:--:-- --:--:-- --:--:-- 0 100 390 100 390 0 0 5571 0 --:--:-- --:--:-- --:--:-- 5492 100 390 100 390 0 0 5571 0 --:--:-- --:--:-- --:--:-- 5492 From sinton@wam-2.localdomain Mon May 10 00:38:02 2021 Return-Path: X-Original-To: sinton Delivered-To: sinton@wam-2.localdomain Received: by wam-2.localdomain (Postfix, from userid 1001) id 2CD92206C5; Mon, 10 May 2021 00:38:02 -0400 (EDT) From: root@wam-2.localdomain (Cron Daemon) To: sinton@wam-2.localdomain Subject: Cron ~/symlinks/TEAM99/ogoakinitchka2.sh 99 0.05 > /dev/null MIME-Version: 1.0 Content-Type: text/plain; charset=UTF-8 Content-Transfer-Encoding: 8bit X-Cron-Env: X-Cron-Env: X-Cron-Env: X-Cron-Env: Message-Id: <20210510043802.2CD92206C5@wam-2.localdomain> Date: Mon, 10 May 2021 00:38:02 -0400 (EDT) /bin/sh: 1: /home/sinton/symlinks/TEAM99/ogoakinitchka2.sh: not found From sinton@wam-2.localdomain Mon May 10 00:38:02 2021 Return-Path: X-Original-To: sinton Delivered-To: sinton@wam-2.localdomain Received: by wam-2.localdomain (Postfix, from userid 1001) id 41414379C8; Mon, 10 May 2021 00:38:02 -0400 (EDT) From: root@wam-2.localdomain (Cron Daemon) To: sinton@wam-2.localdomain Subject: Cron ~/symlinks/TEAM1F/metin/apiv4.sh 1f > /dev/null MIME-Version: 1.0 Content-Type: text/plain; charset=UTF-8 Content-Transfer-Encoding: 8bit X-Cron-Env: X-Cron-Env: X-Cron-Env: X-Cron-Env: Message-Id: <20210510043802.41414379C8@wam-2.localdomain> Date: Mon, 10 May 2021 00:38:02 -0400 (EDT) % Total % Received % Xferd Average Speed Time Time Time Current Dload Upload Total Spent Left Speed 0 0 0 0 0 0 0 0 --:--:-- --:--:-- --:--:-- 0 100 391 100 391 0 0 5213 0 --:--:-- --:--:-- --:--:-- 5213 From sinton@wam-2.localdomain Mon May 10 00:39:01 2021 Return-Path: X-Original-To: sinton Delivered-To: sinton@wam-2.localdomain Received: by wam-2.localdomain (Postfix, from userid 1001) id 70E213943F; Mon, 10 May 2021 00:39:01 -0400 (EDT) From: root@wam-2.localdomain (Cron Daemon) To: sinton@wam-2.localdomain Subject: Cron ~/symlinks/TEAM99/ogoakinitchka2.sh 99 0.05 > /dev/null MIME-Version: 1.0 Content-Type: text/plain; charset=UTF-8 Content-Transfer-Encoding: 8bit X-Cron-Env: X-Cron-Env: X-Cron-Env: X-Cron-Env: Message-Id: <20210510043901.70E213943F@wam-2.localdomain> Date: Mon, 10 May 2021 00:39:01 -0400 (EDT) /bin/sh: 1: /home/sinton/symlinks/TEAM99/ogoakinitchka2.sh: not found From sinton@wam-2.localdomain Mon May 10 00:39:01 2021 Return-Path: X-Original-To: sinton Delivered-To: sinton@wam-2.localdomain Received: by wam-2.localdomain (Postfix, from userid 1001) id 8400C3943F; Mon, 10 May 2021 00:39:01 -0400 (EDT) From: root@wam-2.localdomain (Cron Daemon) To: sinton@wam-2.localdomain Subject: Cron ~/symlinks/TEAM1F/metin/apiv4.sh 1f > /dev/null MIME-Version: 1.0 Content-Type: text/plain; charset=UTF-8 Content-Transfer-Encoding: 8bit X-Cron-Env: X-Cron-Env: X-Cron-Env: X-Cron-Env: Message-Id: <20210510043901.8400C3943F@wam-2.localdomain> Date: Mon, 10 May 2021 00:39:01 -0400 (EDT) % Total % Received % Xferd Average Speed Time Time Time Current Dload Upload Total Spent Left Speed 0 0 0 0 0 0 0 0 --:--:-- --:--:-- --:--:-- 0 100 391 100 391 0 0 5750 0 --:--:-- --:--:-- --:--:-- 5750 From sinton@wam-2.localdomain Mon May 10 00:40:01 2021 Return-Path: X-Original-To: sinton Delivered-To: sinton@wam-2.localdomain Received: by wam-2.localdomain (Postfix, from userid 1001) id B56BB39438; Mon, 10 May 2021 00:40:01 -0400 (EDT) From: root@wam-2.localdomain (Cron Daemon) To: sinton@wam-2.localdomain Subject: Cron ~/symlinks/TEAM99/ogoakinitchka2.sh 99 0.05 > /dev/null MIME-Version: 1.0 Content-Type: text/plain; charset=UTF-8 Content-Transfer-Encoding: 8bit X-Cron-Env: X-Cron-Env: X-Cron-Env: X-Cron-Env: Message-Id: <20210510044001.B56BB39438@wam-2.localdomain> Date: Mon, 10 May 2021 00:40:01 -0400 (EDT) /bin/sh: 1: /home/sinton/symlinks/TEAM99/ogoakinitchka2.sh: not found From sinton@wam-2.localdomain Mon May 10 00:40:01 2021 Return-Path: X-Original-To: sinton Delivered-To: sinton@wam-2.localdomain Received: by wam-2.localdomain (Postfix, from userid 1001) id CB7DE39438; Mon, 10 May 2021 00:40:01 -0400 (EDT) From: root@wam-2.localdomain (Cron Daemon) To: sinton@wam-2.localdomain Subject: Cron ~/symlinks/TEAM1F/metin/apiv4.sh 1f > /dev/null MIME-Version: 1.0 Content-Type: text/plain; charset=UTF-8 Content-Transfer-Encoding: 8bit X-Cron-Env: X-Cron-Env: X-Cron-Env: X-Cron-Env: Message-Id: <20210510044001.CB7DE39438@wam-2.localdomain> Date: Mon, 10 May 2021 00:40:01 -0400 (EDT) % Total % Received % Xferd Average Speed Time Time Time Current Dload Upload Total Spent Left Speed 0 0 0 0 0 0 0 0 --:--:-- --:--:-- --:--:-- 0 100 391 100 391 0 0 4344 0 --:--:-- --:--:-- --:--:-- 4344 From sinton@wam-2.localdomain Mon May 10 00:41:02 2021 Return-Path: X-Original-To: sinton Delivered-To: sinton@wam-2.localdomain Received: by wam-2.localdomain (Postfix, from userid 1001) id 18D803944D; Mon, 10 May 2021 00:41:02 -0400 (EDT) From: root@wam-2.localdomain (Cron Daemon) To: sinton@wam-2.localdomain Subject: Cron ~/symlinks/TEAM99/ogoakinitchka2.sh 99 0.05 > /dev/null MIME-Version: 1.0 Content-Type: text/plain; charset=UTF-8 Content-Transfer-Encoding: 8bit X-Cron-Env: X-Cron-Env: X-Cron-Env: X-Cron-Env: Message-Id: <20210510044102.18D803944D@wam-2.localdomain> Date: Mon, 10 May 2021 00:41:02 -0400 (EDT) /bin/sh: 1: /home/sinton/symlinks/TEAM99/ogoakinitchka2.sh: not found From sinton@wam-2.localdomain Mon May 10 00:41:02 2021 Return-Path: X-Original-To: sinton Delivered-To: sinton@wam-2.localdomain Received: by wam-2.localdomain (Postfix, from userid 1001) id 2F3143944D; Mon, 10 May 2021 00:41:02 -0400 (EDT) From: root@wam-2.localdomain (Cron Daemon) To: sinton@wam-2.localdomain Subject: Cron ~/symlinks/TEAM1F/metin/apiv4.sh 1f > /dev/null MIME-Version: 1.0 Content-Type: text/plain; charset=UTF-8 Content-Transfer-Encoding: 8bit X-Cron-Env: X-Cron-Env: X-Cron-Env: X-Cron-Env: Message-Id: <20210510044102.2F3143944D@wam-2.localdomain> Date: Mon, 10 May 2021 00:41:02 -0400 (EDT) % Total % Received % Xferd Average Speed Time Time Time Current Dload Upload Total Spent Left Speed 0 0 0 0 0 0 0 0 --:--:-- --:--:-- --:--:-- 0 100 391 100 391 0 0 4546 0 --:--:-- --:--:-- --:--:-- 4546 From sinton@wam-2.localdomain Mon May 10 00:42:01 2021 Return-Path: X-Original-To: sinton Delivered-To: sinton@wam-2.localdomain Received: by wam-2.localdomain (Postfix, from userid 1001) id 61D7E39439; Mon, 10 May 2021 00:42:01 -0400 (EDT) From: root@wam-2.localdomain (Cron Daemon) To: sinton@wam-2.localdomain Subject: Cron ~/symlinks/TEAM99/ogoakinitchka2.sh 99 0.05 > /dev/null MIME-Version: 1.0 Content-Type: text/plain; charset=UTF-8 Content-Transfer-Encoding: 8bit X-Cron-Env: X-Cron-Env: X-Cron-Env: X-Cron-Env: Message-Id: <20210510044201.61D7E39439@wam-2.localdomain> Date: Mon, 10 May 2021 00:42:01 -0400 (EDT) /bin/sh: 1: /home/sinton/symlinks/TEAM99/ogoakinitchka2.sh: not found From sinton@wam-2.localdomain Mon May 10 00:42:01 2021 Return-Path: X-Original-To: sinton Delivered-To: sinton@wam-2.localdomain Received: by wam-2.localdomain (Postfix, from userid 1001) id 76F5239439; Mon, 10 May 2021 00:42:01 -0400 (EDT) From: root@wam-2.localdomain (Cron Daemon) To: sinton@wam-2.localdomain Subject: Cron ~/symlinks/TEAM1F/metin/apiv4.sh 1f > /dev/null MIME-Version: 1.0 Content-Type: text/plain; charset=UTF-8 Content-Transfer-Encoding: 8bit X-Cron-Env: X-Cron-Env: X-Cron-Env: X-Cron-Env: Message-Id: <20210510044201.76F5239439@wam-2.localdomain> Date: Mon, 10 May 2021 00:42:01 -0400 (EDT) % Total % Received % Xferd Average Speed Time Time Time Current Dload Upload Total Spent Left Speed 0 0 0 0 0 0 0 0 --:--:-- --:--:-- --:--:-- 0 100 391 100 391 0 0 5213 0 --:--:-- --:--:-- --:--:-- 5283 From sinton@wam-2.localdomain Mon May 10 00:42:20 2021 Return-Path: X-Original-To: sinton Delivered-To: sinton@wam-2.localdomain Received: by wam-2.localdomain (Postfix, from userid 1001) id B772539439; Mon, 10 May 2021 00:42:20 -0400 (EDT) From: root@wam-2.localdomain (Cron Daemon) To: sinton@wam-2.localdomain Subject: Cron bash -c "sleep $[RANDOM%14]m" ; ~/symlinks/TEAM8/fcst/startfcst.pl 8 > /dev/null MIME-Version: 1.0 Content-Type: text/plain; charset=UTF-8 Content-Transfer-Encoding: 8bit X-Cron-Env: X-Cron-Env: X-Cron-Env: X-Cron-Env: Message-Id: <20210510044220.B772539439@wam-2.localdomain> Date: Mon, 10 May 2021 00:42:20 -0400 (EDT) # CSV_XS ERROR: 2034 - EIF - Loose unescaped quote @ rec 0 pos 29 field 1 From sinton@wam-2.localdomain Mon May 10 00:43:01 2021 Return-Path: X-Original-To: sinton Delivered-To: sinton@wam-2.localdomain Received: by wam-2.localdomain (Postfix, from userid 1001) id EB8EC3944F; Mon, 10 May 2021 00:43:01 -0400 (EDT) From: root@wam-2.localdomain (Cron Daemon) To: sinton@wam-2.localdomain Subject: Cron ~/symlinks/TEAM99/ogoakinitchka2.sh 99 0.05 > /dev/null MIME-Version: 1.0 Content-Type: text/plain; charset=UTF-8 Content-Transfer-Encoding: 8bit X-Cron-Env: X-Cron-Env: X-Cron-Env: X-Cron-Env: Message-Id: <20210510044301.EB8EC3944F@wam-2.localdomain> Date: Mon, 10 May 2021 00:43:01 -0400 (EDT) /bin/sh: 1: /home/sinton/symlinks/TEAM99/ogoakinitchka2.sh: not found From sinton@wam-2.localdomain Mon May 10 00:43:02 2021 Return-Path: X-Original-To: sinton Delivered-To: sinton@wam-2.localdomain Received: by wam-2.localdomain (Postfix, from userid 1001) id 0D3A23944F; Mon, 10 May 2021 00:43:02 -0400 (EDT) From: root@wam-2.localdomain (Cron Daemon) To: sinton@wam-2.localdomain Subject: Cron ~/symlinks/TEAM1F/metin/apiv4.sh 1f > /dev/null MIME-Version: 1.0 Content-Type: text/plain; charset=UTF-8 Content-Transfer-Encoding: 8bit X-Cron-Env: X-Cron-Env: X-Cron-Env: X-Cron-Env: Message-Id: <20210510044302.0D3A23944F@wam-2.localdomain> Date: Mon, 10 May 2021 00:43:02 -0400 (EDT) % Total % Received % Xferd Average Speed Time Time Time Current Dload Upload Total Spent Left Speed 0 0 0 0 0 0 0 0 --:--:-- --:--:-- --:--:-- 0 100 391 100 391 0 0 5077 0 --:--:-- --:--:-- --:--:-- 5144 From sinton@wam-2.localdomain Mon May 10 00:44:01 2021 Return-Path: X-Original-To: sinton Delivered-To: sinton@wam-2.localdomain Received: by wam-2.localdomain (Postfix, from userid 1001) id 3FCF739464; Mon, 10 May 2021 00:44:01 -0400 (EDT) From: root@wam-2.localdomain (Cron Daemon) To: sinton@wam-2.localdomain Subject: Cron ~/symlinks/TEAM99/ogoakinitchka2.sh 99 0.05 > /dev/null MIME-Version: 1.0 Content-Type: text/plain; charset=UTF-8 Content-Transfer-Encoding: 8bit X-Cron-Env: X-Cron-Env: X-Cron-Env: X-Cron-Env: Message-Id: <20210510044401.3FCF739464@wam-2.localdomain> Date: Mon, 10 May 2021 00:44:01 -0400 (EDT) /bin/sh: 1: /home/sinton/symlinks/TEAM99/ogoakinitchka2.sh: not found From sinton@wam-2.localdomain Mon May 10 00:44:01 2021 Return-Path: X-Original-To: sinton Delivered-To: sinton@wam-2.localdomain Received: by wam-2.localdomain (Postfix, from userid 1001) id 5507B39464; Mon, 10 May 2021 00:44:01 -0400 (EDT) From: root@wam-2.localdomain (Cron Daemon) To: sinton@wam-2.localdomain Subject: Cron ~/symlinks/TEAM1F/metin/apiv4.sh 1f > /dev/null MIME-Version: 1.0 Content-Type: text/plain; charset=UTF-8 Content-Transfer-Encoding: 8bit X-Cron-Env: X-Cron-Env: X-Cron-Env: X-Cron-Env: Message-Id: <20210510044401.5507B39464@wam-2.localdomain> Date: Mon, 10 May 2021 00:44:01 -0400 (EDT) % Total % Received % Xferd Average Speed Time Time Time Current Dload Upload Total Spent Left Speed 0 0 0 0 0 0 0 0 --:--:-- --:--:-- --:--:-- 0 100 391 100 391 0 0 5356 0 --:--:-- --:--:-- --:--:-- 5356 From sinton@wam-2.localdomain Mon May 10 00:44:26 2021 Return-Path: X-Original-To: sinton Delivered-To: sinton@wam-2.localdomain Received: by wam-2.localdomain (Postfix, from userid 1001) id 4221239464; Mon, 10 May 2021 00:44:26 -0400 (EDT) From: root@wam-2.localdomain (Cron Daemon) To: sinton@wam-2.localdomain Subject: Cron bash -c "sleep $[RANDOM%14]m" ; ~/symlinks/TEAM2/fcst/startfcst.pl 2 > /dev/null MIME-Version: 1.0 Content-Type: text/plain; charset=UTF-8 Content-Transfer-Encoding: 8bit X-Cron-Env: X-Cron-Env: X-Cron-Env: X-Cron-Env: Message-Id: <20210510044426.4221239464@wam-2.localdomain> Date: Mon, 10 May 2021 00:44:26 -0400 (EDT) # CSV_XS ERROR: 2034 - EIF - Loose unescaped quote @ rec 0 pos 29 field 1 From sinton@wam-2.localdomain Mon May 10 00:45:01 2021 Return-Path: X-Original-To: sinton Delivered-To: sinton@wam-2.localdomain Received: by wam-2.localdomain (Postfix, from userid 1001) id 7507939431; Mon, 10 May 2021 00:45:01 -0400 (EDT) From: root@wam-2.localdomain (Cron Daemon) To: sinton@wam-2.localdomain Subject: Cron ~/symlinks/TEAM99/ogoakinitchka2.sh 99 0.05 > /dev/null MIME-Version: 1.0 Content-Type: text/plain; charset=UTF-8 Content-Transfer-Encoding: 8bit X-Cron-Env: X-Cron-Env: X-Cron-Env: X-Cron-Env: Message-Id: <20210510044501.7507939431@wam-2.localdomain> Date: Mon, 10 May 2021 00:45:01 -0400 (EDT) /bin/sh: 1: /home/sinton/symlinks/TEAM99/ogoakinitchka2.sh: not found From sinton@wam-2.localdomain Mon May 10 00:45:01 2021 Return-Path: X-Original-To: sinton Delivered-To: sinton@wam-2.localdomain Received: by wam-2.localdomain (Postfix, from userid 1001) id 98CF539457; Mon, 10 May 2021 00:45:01 -0400 (EDT) From: root@wam-2.localdomain (Cron Daemon) To: sinton@wam-2.localdomain Subject: Cron ~/symlinks/TEAM1F/metin/apiv4.sh 1f > /dev/null MIME-Version: 1.0 Content-Type: text/plain; charset=UTF-8 Content-Transfer-Encoding: 8bit X-Cron-Env: X-Cron-Env: X-Cron-Env: X-Cron-Env: Message-Id: <20210510044501.98CF539457@wam-2.localdomain> Date: Mon, 10 May 2021 00:45:01 -0400 (EDT) % Total % Received % Xferd Average Speed Time Time Time Current Dload Upload Total Spent Left Speed 0 0 0 0 0 0 0 0 --:--:-- --:--:-- --:--:-- 0 100 390 100 390 0 0 3611 0 --:--:-- --:--:-- --:--:-- 3611 From sinton@wam-2.localdomain Mon May 10 00:46:01 2021 Return-Path: X-Original-To: sinton Delivered-To: sinton@wam-2.localdomain Received: by wam-2.localdomain (Postfix, from userid 1001) id E23F539464; Mon, 10 May 2021 00:46:01 -0400 (EDT) From: root@wam-2.localdomain (Cron Daemon) To: sinton@wam-2.localdomain Subject: Cron ~/symlinks/TEAM99/ogoakinitchka2.sh 99 0.05 > /dev/null MIME-Version: 1.0 Content-Type: text/plain; charset=UTF-8 Content-Transfer-Encoding: 8bit X-Cron-Env: X-Cron-Env: X-Cron-Env: X-Cron-Env: Message-Id: <20210510044601.E23F539464@wam-2.localdomain> Date: Mon, 10 May 2021 00:46:01 -0400 (EDT) /bin/sh: 1: /home/sinton/symlinks/TEAM99/ogoakinitchka2.sh: not found From sinton@wam-2.localdomain Mon May 10 00:46:01 2021 Return-Path: X-Original-To: sinton Delivered-To: sinton@wam-2.localdomain Received: by wam-2.localdomain (Postfix, from userid 1001) id F2F4739464; Mon, 10 May 2021 00:46:01 -0400 (EDT) From: root@wam-2.localdomain (Cron Daemon) To: sinton@wam-2.localdomain Subject: Cron ~/symlinks/TEAM1F/metin/apiv4.sh 1f > /dev/null MIME-Version: 1.0 Content-Type: text/plain; charset=UTF-8 Content-Transfer-Encoding: 8bit X-Cron-Env: X-Cron-Env: X-Cron-Env: X-Cron-Env: Message-Id: <20210510044601.F2F4739464@wam-2.localdomain> Date: Mon, 10 May 2021 00:46:01 -0400 (EDT) % Total % Received % Xferd Average Speed Time Time Time Current Dload Upload Total Spent Left Speed 0 0 0 0 0 0 0 0 --:--:-- --:--:-- --:--:-- 0 0 0 0 0 0 0 0 0 --:--:-- --:--:-- --:--:-- 0 100 391 100 391 0 0 3103 0 --:--:-- --:--:-- --:--:-- 3078 From sinton@wam-2.localdomain Mon May 10 00:47:02 2021 Return-Path: X-Original-To: sinton Delivered-To: sinton@wam-2.localdomain Received: by wam-2.localdomain (Postfix, from userid 1001) id 30D473946F; Mon, 10 May 2021 00:47:02 -0400 (EDT) From: root@wam-2.localdomain (Cron Daemon) To: sinton@wam-2.localdomain Subject: Cron ~/symlinks/TEAM99/ogoakinitchka2.sh 99 0.05 > /dev/null MIME-Version: 1.0 Content-Type: text/plain; charset=UTF-8 Content-Transfer-Encoding: 8bit X-Cron-Env: X-Cron-Env: X-Cron-Env: X-Cron-Env: Message-Id: <20210510044702.30D473946F@wam-2.localdomain> Date: Mon, 10 May 2021 00:47:02 -0400 (EDT) /bin/sh: 1: /home/sinton/symlinks/TEAM99/ogoakinitchka2.sh: not found From sinton@wam-2.localdomain Mon May 10 00:47:02 2021 Return-Path: X-Original-To: sinton Delivered-To: sinton@wam-2.localdomain Received: by wam-2.localdomain (Postfix, from userid 1001) id 428723946F; Mon, 10 May 2021 00:47:02 -0400 (EDT) From: root@wam-2.localdomain (Cron Daemon) To: sinton@wam-2.localdomain Subject: Cron ~/symlinks/TEAM1F/metin/apiv4.sh 1f > /dev/null MIME-Version: 1.0 Content-Type: text/plain; charset=UTF-8 Content-Transfer-Encoding: 8bit X-Cron-Env: X-Cron-Env: X-Cron-Env: X-Cron-Env: Message-Id: <20210510044702.428723946F@wam-2.localdomain> Date: Mon, 10 May 2021 00:47:02 -0400 (EDT) % Total % Received % Xferd Average Speed Time Time Time Current Dload Upload Total Spent Left Speed 0 0 0 0 0 0 0 0 --:--:-- --:--:-- --:--:-- 0 100 391 100 391 0 0 5666 0 --:--:-- --:--:-- --:--:-- 5666 From sinton@wam-2.localdomain Mon May 10 00:48:01 2021 Return-Path: X-Original-To: sinton Delivered-To: sinton@wam-2.localdomain Received: by wam-2.localdomain (Postfix, from userid 1001) id 7285139466; Mon, 10 May 2021 00:48:01 -0400 (EDT) From: root@wam-2.localdomain (Cron Daemon) To: sinton@wam-2.localdomain Subject: Cron ~/symlinks/TEAM99/ogoakinitchka2.sh 99 0.05 > /dev/null MIME-Version: 1.0 Content-Type: text/plain; charset=UTF-8 Content-Transfer-Encoding: 8bit X-Cron-Env: X-Cron-Env: X-Cron-Env: X-Cron-Env: Message-Id: <20210510044801.7285139466@wam-2.localdomain> Date: Mon, 10 May 2021 00:48:01 -0400 (EDT) /bin/sh: 1: /home/sinton/symlinks/TEAM99/ogoakinitchka2.sh: not found From sinton@wam-2.localdomain Mon May 10 00:48:01 2021 Return-Path: X-Original-To: sinton Delivered-To: sinton@wam-2.localdomain Received: by wam-2.localdomain (Postfix, from userid 1001) id 88FAB39466; Mon, 10 May 2021 00:48:01 -0400 (EDT) From: root@wam-2.localdomain (Cron Daemon) To: sinton@wam-2.localdomain Subject: Cron ~/symlinks/TEAM1F/metin/apiv4.sh 1f > /dev/null MIME-Version: 1.0 Content-Type: text/plain; charset=UTF-8 Content-Transfer-Encoding: 8bit X-Cron-Env: X-Cron-Env: X-Cron-Env: X-Cron-Env: Message-Id: <20210510044801.88FAB39466@wam-2.localdomain> Date: Mon, 10 May 2021 00:48:01 -0400 (EDT) % Total % Received % Xferd Average Speed Time Time Time Current Dload Upload Total Spent Left Speed 0 0 0 0 0 0 0 0 --:--:-- --:--:-- --:--:-- 0 100 385 100 385 0 0 5579 0 --:--:-- --:--:-- --:--:-- 5579 From sinton@wam-2.localdomain Mon May 10 00:49:01 2021 Return-Path: X-Original-To: sinton Delivered-To: sinton@wam-2.localdomain Received: by wam-2.localdomain (Postfix, from userid 1001) id C05323946F; Mon, 10 May 2021 00:49:01 -0400 (EDT) From: root@wam-2.localdomain (Cron Daemon) To: sinton@wam-2.localdomain Subject: Cron ~/symlinks/TEAM99/ogoakinitchka2.sh 99 0.05 > /dev/null MIME-Version: 1.0 Content-Type: text/plain; charset=UTF-8 Content-Transfer-Encoding: 8bit X-Cron-Env: X-Cron-Env: X-Cron-Env: X-Cron-Env: Message-Id: <20210510044901.C05323946F@wam-2.localdomain> Date: Mon, 10 May 2021 00:49:01 -0400 (EDT) /bin/sh: 1: /home/sinton/symlinks/TEAM99/ogoakinitchka2.sh: not found From sinton@wam-2.localdomain Mon May 10 00:49:01 2021 Return-Path: X-Original-To: sinton Delivered-To: sinton@wam-2.localdomain Received: by wam-2.localdomain (Postfix, from userid 1001) id C98403946F; Mon, 10 May 2021 00:49:01 -0400 (EDT) From: root@wam-2.localdomain (Cron Daemon) To: sinton@wam-2.localdomain Subject: Cron ~/symlinks/TEAM1F/metin/apiv4.sh 1f > /dev/null MIME-Version: 1.0 Content-Type: text/plain; charset=UTF-8 Content-Transfer-Encoding: 8bit X-Cron-Env: X-Cron-Env: X-Cron-Env: X-Cron-Env: Message-Id: <20210510044901.C98403946F@wam-2.localdomain> Date: Mon, 10 May 2021 00:49:01 -0400 (EDT) % Total % Received % Xferd Average Speed Time Time Time Current Dload Upload Total Spent Left Speed 0 0 0 0 0 0 0 0 --:--:-- --:--:-- --:--:-- 0 100 386 100 386 0 0 4948 0 --:--:-- --:--:-- --:--:-- 5012 From sinton@wam-2.localdomain Mon May 10 00:50:02 2021 Return-Path: X-Original-To: sinton Delivered-To: sinton@wam-2.localdomain Received: by wam-2.localdomain (Postfix, from userid 1001) id 1299939451; Mon, 10 May 2021 00:50:02 -0400 (EDT) From: root@wam-2.localdomain (Cron Daemon) To: sinton@wam-2.localdomain Subject: Cron ~/symlinks/TEAM99/ogoakinitchka2.sh 99 0.05 > /dev/null MIME-Version: 1.0 Content-Type: text/plain; charset=UTF-8 Content-Transfer-Encoding: 8bit X-Cron-Env: X-Cron-Env: X-Cron-Env: X-Cron-Env: Message-Id: <20210510045002.1299939451@wam-2.localdomain> Date: Mon, 10 May 2021 00:50:02 -0400 (EDT) /bin/sh: 1: /home/sinton/symlinks/TEAM99/ogoakinitchka2.sh: not found From sinton@wam-2.localdomain Mon May 10 00:50:02 2021 Return-Path: X-Original-To: sinton Delivered-To: sinton@wam-2.localdomain Received: by wam-2.localdomain (Postfix, from userid 1001) id 21C8F39451; Mon, 10 May 2021 00:50:02 -0400 (EDT) From: root@wam-2.localdomain (Cron Daemon) To: sinton@wam-2.localdomain Subject: Cron ~/symlinks/TEAM1F/metin/apiv4.sh 1f > /dev/null MIME-Version: 1.0 Content-Type: text/plain; charset=UTF-8 Content-Transfer-Encoding: 8bit X-Cron-Env: X-Cron-Env: X-Cron-Env: X-Cron-Env: Message-Id: <20210510045002.21C8F39451@wam-2.localdomain> Date: Mon, 10 May 2021 00:50:02 -0400 (EDT) % Total % Received % Xferd Average Speed Time Time Time Current Dload Upload Total Spent Left Speed 0 0 0 0 0 0 0 0 --:--:-- --:--:-- --:--:-- 0 100 387 100 387 0 0 5953 0 --:--:-- --:--:-- --:--:-- 5953 From sinton@wam-2.localdomain Mon May 10 00:50:22 2021 Return-Path: X-Original-To: sinton Delivered-To: sinton@wam-2.localdomain Received: by wam-2.localdomain (Postfix, from userid 1001) id 9659839491; Mon, 10 May 2021 00:50:22 -0400 (EDT) From: root@wam-2.localdomain (Cron Daemon) To: sinton@wam-2.localdomain Subject: Cron bash -c "sleep $[RANDOM%14]m" ; ~/symlinks/TEAM1/fcst/startfcst.pl 1 > /dev/null MIME-Version: 1.0 Content-Type: text/plain; charset=UTF-8 Content-Transfer-Encoding: 8bit X-Cron-Env: X-Cron-Env: X-Cron-Env: X-Cron-Env: Message-Id: <20210510045022.9659839491@wam-2.localdomain> Date: Mon, 10 May 2021 00:50:22 -0400 (EDT) # CSV_XS ERROR: 2034 - EIF - Loose unescaped quote @ rec 0 pos 29 field 1 From sinton@wam-2.localdomain Mon May 10 00:51:01 2021 Return-Path: X-Original-To: sinton Delivered-To: sinton@wam-2.localdomain Received: by wam-2.localdomain (Postfix, from userid 1001) id E4C3820C3E; Mon, 10 May 2021 00:51:01 -0400 (EDT) From: root@wam-2.localdomain (Cron Daemon) To: sinton@wam-2.localdomain Subject: Cron ~/symlinks/TEAM99/ogoakinitchka2.sh 99 0.05 > /dev/null MIME-Version: 1.0 Content-Type: text/plain; charset=UTF-8 Content-Transfer-Encoding: 8bit X-Cron-Env: X-Cron-Env: X-Cron-Env: X-Cron-Env: Message-Id: <20210510045101.E4C3820C3E@wam-2.localdomain> Date: Mon, 10 May 2021 00:51:01 -0400 (EDT) /bin/sh: 1: /home/sinton/symlinks/TEAM99/ogoakinitchka2.sh: not found From sinton@wam-2.localdomain Mon May 10 00:51:02 2021 Return-Path: X-Original-To: sinton Delivered-To: sinton@wam-2.localdomain Received: by wam-2.localdomain (Postfix, from userid 1001) id F3822355A6; Mon, 10 May 2021 00:51:01 -0400 (EDT) From: root@wam-2.localdomain (Cron Daemon) To: sinton@wam-2.localdomain Subject: Cron ~/symlinks/TEAM1F/metin/apiv4.sh 1f > /dev/null MIME-Version: 1.0 Content-Type: text/plain; charset=UTF-8 Content-Transfer-Encoding: 8bit X-Cron-Env: X-Cron-Env: X-Cron-Env: X-Cron-Env: Message-Id: <20210510045101.F3822355A6@wam-2.localdomain> Date: Mon, 10 May 2021 00:51:01 -0400 (EDT) % Total % Received % Xferd Average Speed Time Time Time Current Dload Upload Total Spent Left Speed 0 0 0 0 0 0 0 0 --:--:-- --:--:-- --:--:-- 0 100 387 100 387 0 0 2464 0 --:--:-- --:--:-- --:--:-- 4031 From sinton@wam-2.localdomain Mon May 10 00:52:02 2021 Return-Path: X-Original-To: sinton Delivered-To: sinton@wam-2.localdomain Received: by wam-2.localdomain (Postfix, from userid 1001) id 29EE23946F; Mon, 10 May 2021 00:52:02 -0400 (EDT) From: root@wam-2.localdomain (Cron Daemon) To: sinton@wam-2.localdomain Subject: Cron ~/symlinks/TEAM99/ogoakinitchka2.sh 99 0.05 > /dev/null MIME-Version: 1.0 Content-Type: text/plain; charset=UTF-8 Content-Transfer-Encoding: 8bit X-Cron-Env: X-Cron-Env: X-Cron-Env: X-Cron-Env: Message-Id: <20210510045202.29EE23946F@wam-2.localdomain> Date: Mon, 10 May 2021 00:52:02 -0400 (EDT) /bin/sh: 1: /home/sinton/symlinks/TEAM99/ogoakinitchka2.sh: not found From sinton@wam-2.localdomain Mon May 10 00:52:02 2021 Return-Path: X-Original-To: sinton Delivered-To: sinton@wam-2.localdomain Received: by wam-2.localdomain (Postfix, from userid 1001) id 34D8339482; Mon, 10 May 2021 00:52:02 -0400 (EDT) From: root@wam-2.localdomain (Cron Daemon) To: sinton@wam-2.localdomain Subject: Cron ~/symlinks/TEAM1F/metin/apiv4.sh 1f > /dev/null MIME-Version: 1.0 Content-Type: text/plain; charset=UTF-8 Content-Transfer-Encoding: 8bit X-Cron-Env: X-Cron-Env: X-Cron-Env: X-Cron-Env: Message-Id: <20210510045202.34D8339482@wam-2.localdomain> Date: Mon, 10 May 2021 00:52:02 -0400 (EDT) % Total % Received % Xferd Average Speed Time Time Time Current Dload Upload Total Spent Left Speed 0 0 0 0 0 0 0 0 --:--:-- --:--:-- --:--:-- 0 100 391 100 391 0 0 5835 0 --:--:-- --:--:-- --:--:-- 5924 From sinton@wam-2.localdomain Mon May 10 00:53:01 2021 Return-Path: X-Original-To: sinton Delivered-To: sinton@wam-2.localdomain Received: by wam-2.localdomain (Postfix, from userid 1001) id 6C7F53944A; Mon, 10 May 2021 00:53:01 -0400 (EDT) From: root@wam-2.localdomain (Cron Daemon) To: sinton@wam-2.localdomain Subject: Cron ~/symlinks/TEAM99/ogoakinitchka2.sh 99 0.05 > /dev/null MIME-Version: 1.0 Content-Type: text/plain; charset=UTF-8 Content-Transfer-Encoding: 8bit X-Cron-Env: X-Cron-Env: X-Cron-Env: X-Cron-Env: Message-Id: <20210510045301.6C7F53944A@wam-2.localdomain> Date: Mon, 10 May 2021 00:53:01 -0400 (EDT) /bin/sh: 1: /home/sinton/symlinks/TEAM99/ogoakinitchka2.sh: not found From sinton@wam-2.localdomain Mon May 10 00:53:01 2021 Return-Path: X-Original-To: sinton Delivered-To: sinton@wam-2.localdomain Received: by wam-2.localdomain (Postfix, from userid 1001) id 79C9C39491; Mon, 10 May 2021 00:53:01 -0400 (EDT) From: root@wam-2.localdomain (Cron Daemon) To: sinton@wam-2.localdomain Subject: Cron ~/symlinks/TEAM1F/metin/apiv4.sh 1f > /dev/null MIME-Version: 1.0 Content-Type: text/plain; charset=UTF-8 Content-Transfer-Encoding: 8bit X-Cron-Env: X-Cron-Env: X-Cron-Env: X-Cron-Env: Message-Id: <20210510045301.79C9C39491@wam-2.localdomain> Date: Mon, 10 May 2021 00:53:01 -0400 (EDT) % Total % Received % Xferd Average Speed Time Time Time Current Dload Upload Total Spent Left Speed 0 0 0 0 0 0 0 0 --:--:-- --:--:-- --:--:-- 0 100 391 100 391 0 0 6206 0 --:--:-- --:--:-- --:--:-- 6206 From sinton@wam-2.localdomain Mon May 10 00:54:01 2021 Return-Path: X-Original-To: sinton Delivered-To: sinton@wam-2.localdomain Received: by wam-2.localdomain (Postfix, from userid 1001) id 9421439489; Mon, 10 May 2021 00:54:01 -0400 (EDT) From: root@wam-2.localdomain (Cron Daemon) To: sinton@wam-2.localdomain Subject: Cron ~/symlinks/TEAM99/ogoakinitchka2.sh 99 0.05 > /dev/null MIME-Version: 1.0 Content-Type: text/plain; charset=UTF-8 Content-Transfer-Encoding: 8bit X-Cron-Env: X-Cron-Env: X-Cron-Env: X-Cron-Env: Message-Id: <20210510045401.9421439489@wam-2.localdomain> Date: Mon, 10 May 2021 00:54:01 -0400 (EDT) /bin/sh: 1: /home/sinton/symlinks/TEAM99/ogoakinitchka2.sh: not found From sinton@wam-2.localdomain Mon May 10 00:54:01 2021 Return-Path: X-Original-To: sinton Delivered-To: sinton@wam-2.localdomain Received: by wam-2.localdomain (Postfix, from userid 1001) id A934A39489; Mon, 10 May 2021 00:54:01 -0400 (EDT) From: root@wam-2.localdomain (Cron Daemon) To: sinton@wam-2.localdomain Subject: Cron ~/symlinks/TEAM1F/metin/apiv4.sh 1f > /dev/null MIME-Version: 1.0 Content-Type: text/plain; charset=UTF-8 Content-Transfer-Encoding: 8bit X-Cron-Env: X-Cron-Env: X-Cron-Env: X-Cron-Env: Message-Id: <20210510045401.A934A39489@wam-2.localdomain> Date: Mon, 10 May 2021 00:54:01 -0400 (EDT) % Total % Received % Xferd Average Speed Time Time Time Current Dload Upload Total Spent Left Speed 0 0 0 0 0 0 0 0 --:--:-- --:--:-- --:--:-- 0 100 393 100 393 0 0 5038 0 --:--:-- --:--:-- --:--:-- 5038 From sinton@wam-2.localdomain Mon May 10 00:55:02 2021 Return-Path: X-Original-To: sinton Delivered-To: sinton@wam-2.localdomain Received: by wam-2.localdomain (Postfix, from userid 1001) id 191FB39493; Mon, 10 May 2021 00:55:02 -0400 (EDT) From: root@wam-2.localdomain (Cron Daemon) To: sinton@wam-2.localdomain Subject: Cron ~/symlinks/TEAM99/ogoakinitchka2.sh 99 0.05 > /dev/null MIME-Version: 1.0 Content-Type: text/plain; charset=UTF-8 Content-Transfer-Encoding: 8bit X-Cron-Env: X-Cron-Env: X-Cron-Env: X-Cron-Env: Message-Id: <20210510045502.191FB39493@wam-2.localdomain> Date: Mon, 10 May 2021 00:55:02 -0400 (EDT) /bin/sh: 1: /home/sinton/symlinks/TEAM99/ogoakinitchka2.sh: not found From sinton@wam-2.localdomain Mon May 10 00:55:02 2021 Return-Path: X-Original-To: sinton Delivered-To: sinton@wam-2.localdomain Received: by wam-2.localdomain (Postfix, from userid 1001) id 2E24E39493; Mon, 10 May 2021 00:55:02 -0400 (EDT) From: root@wam-2.localdomain (Cron Daemon) To: sinton@wam-2.localdomain Subject: Cron ~/symlinks/TEAM1F/metin/apiv4.sh 1f > /dev/null MIME-Version: 1.0 Content-Type: text/plain; charset=UTF-8 Content-Transfer-Encoding: 8bit X-Cron-Env: X-Cron-Env: X-Cron-Env: X-Cron-Env: Message-Id: <20210510045502.2E24E39493@wam-2.localdomain> Date: Mon, 10 May 2021 00:55:02 -0400 (EDT) % Total % Received % Xferd Average Speed Time Time Time Current Dload Upload Total Spent Left Speed 0 0 0 0 0 0 0 0 --:--:-- --:--:-- --:--:-- 0 100 392 100 392 0 0 5157 0 --:--:-- --:--:-- --:--:-- 7538 From sinton@wam-2.localdomain Mon May 10 00:56:01 2021 Return-Path: X-Original-To: sinton Delivered-To: sinton@wam-2.localdomain Received: by wam-2.localdomain (Postfix, from userid 1001) id 6EA03394AC; Mon, 10 May 2021 00:56:01 -0400 (EDT) From: root@wam-2.localdomain (Cron Daemon) To: sinton@wam-2.localdomain Subject: Cron ~/symlinks/TEAM99/ogoakinitchka2.sh 99 0.05 > /dev/null MIME-Version: 1.0 Content-Type: text/plain; charset=UTF-8 Content-Transfer-Encoding: 8bit X-Cron-Env: X-Cron-Env: X-Cron-Env: X-Cron-Env: Message-Id: <20210510045601.6EA03394AC@wam-2.localdomain> Date: Mon, 10 May 2021 00:56:01 -0400 (EDT) /bin/sh: 1: /home/sinton/symlinks/TEAM99/ogoakinitchka2.sh: not found From sinton@wam-2.localdomain Mon May 10 00:56:01 2021 Return-Path: X-Original-To: sinton Delivered-To: sinton@wam-2.localdomain Received: by wam-2.localdomain (Postfix, from userid 1001) id 87E283949C; Mon, 10 May 2021 00:56:01 -0400 (EDT) From: root@wam-2.localdomain (Cron Daemon) To: sinton@wam-2.localdomain Subject: Cron ~/symlinks/TEAM1F/metin/apiv4.sh 1f > /dev/null MIME-Version: 1.0 Content-Type: text/plain; charset=UTF-8 Content-Transfer-Encoding: 8bit X-Cron-Env: X-Cron-Env: X-Cron-Env: X-Cron-Env: Message-Id: <20210510045601.87E283949C@wam-2.localdomain> Date: Mon, 10 May 2021 00:56:01 -0400 (EDT) % Total % Received % Xferd Average Speed Time Time Time Current Dload Upload Total Spent Left Speed 0 0 0 0 0 0 0 0 --:--:-- --:--:-- --:--:-- 0 100 392 100 392 0 0 5681 0 --:--:-- --:--:-- --:--:-- 5764 From sinton@wam-2.localdomain Mon May 10 00:57:02 2021 Return-Path: X-Original-To: sinton Delivered-To: sinton@wam-2.localdomain Received: by wam-2.localdomain (Postfix, from userid 1001) id 3033939493; Mon, 10 May 2021 00:57:02 -0400 (EDT) From: root@wam-2.localdomain (Cron Daemon) To: sinton@wam-2.localdomain Subject: Cron ~/symlinks/TEAM99/ogoakinitchka2.sh 99 0.05 > /dev/null MIME-Version: 1.0 Content-Type: text/plain; charset=UTF-8 Content-Transfer-Encoding: 8bit X-Cron-Env: X-Cron-Env: X-Cron-Env: X-Cron-Env: Message-Id: <20210510045702.3033939493@wam-2.localdomain> Date: Mon, 10 May 2021 00:57:02 -0400 (EDT) /bin/sh: 1: /home/sinton/symlinks/TEAM99/ogoakinitchka2.sh: not found From sinton@wam-2.localdomain Mon May 10 00:57:02 2021 Return-Path: X-Original-To: sinton Delivered-To: sinton@wam-2.localdomain Received: by wam-2.localdomain (Postfix, from userid 1001) id 3C85739493; Mon, 10 May 2021 00:57:02 -0400 (EDT) From: root@wam-2.localdomain (Cron Daemon) To: sinton@wam-2.localdomain Subject: Cron ~/symlinks/TEAM1F/metin/apiv4.sh 1f > /dev/null MIME-Version: 1.0 Content-Type: text/plain; charset=UTF-8 Content-Transfer-Encoding: 8bit X-Cron-Env: X-Cron-Env: X-Cron-Env: X-Cron-Env: Message-Id: <20210510045702.3C85739493@wam-2.localdomain> Date: Mon, 10 May 2021 00:57:02 -0400 (EDT) % Total % Received % Xferd Average Speed Time Time Time Current Dload Upload Total Spent Left Speed 0 0 0 0 0 0 0 0 --:--:-- --:--:-- --:--:-- 0 100 393 100 393 0 0 4734 0 --:--:-- --:--:-- --:--:-- 4734 From sinton@wam-2.localdomain Mon May 10 00:58:01 2021 Return-Path: X-Original-To: sinton Delivered-To: sinton@wam-2.localdomain Received: by wam-2.localdomain (Postfix, from userid 1001) id 6FB183949C; Mon, 10 May 2021 00:58:01 -0400 (EDT) From: root@wam-2.localdomain (Cron Daemon) To: sinton@wam-2.localdomain Subject: Cron ~/symlinks/TEAM99/ogoakinitchka2.sh 99 0.05 > /dev/null MIME-Version: 1.0 Content-Type: text/plain; charset=UTF-8 Content-Transfer-Encoding: 8bit X-Cron-Env: X-Cron-Env: X-Cron-Env: X-Cron-Env: Message-Id: <20210510045801.6FB183949C@wam-2.localdomain> Date: Mon, 10 May 2021 00:58:01 -0400 (EDT) /bin/sh: 1: /home/sinton/symlinks/TEAM99/ogoakinitchka2.sh: not found From sinton@wam-2.localdomain Mon May 10 00:58:01 2021 Return-Path: X-Original-To: sinton Delivered-To: sinton@wam-2.localdomain Received: by wam-2.localdomain (Postfix, from userid 1001) id 895B73949C; Mon, 10 May 2021 00:58:01 -0400 (EDT) From: root@wam-2.localdomain (Cron Daemon) To: sinton@wam-2.localdomain Subject: Cron ~/symlinks/TEAM1F/metin/apiv4.sh 1f > /dev/null MIME-Version: 1.0 Content-Type: text/plain; charset=UTF-8 Content-Transfer-Encoding: 8bit X-Cron-Env: X-Cron-Env: X-Cron-Env: X-Cron-Env: Message-Id: <20210510045801.895B73949C@wam-2.localdomain> Date: Mon, 10 May 2021 00:58:01 -0400 (EDT) % Total % Received % Xferd Average Speed Time Time Time Current Dload Upload Total Spent Left Speed 0 0 0 0 0 0 0 0 --:--:-- --:--:-- --:--:-- 0 100 390 100 390 0 0 2785 0 --:--:-- --:--:-- --:--:-- 2785 From sinton@wam-2.localdomain Mon May 10 00:59:01 2021 Return-Path: X-Original-To: sinton Delivered-To: sinton@wam-2.localdomain Received: by wam-2.localdomain (Postfix, from userid 1001) id C064A394A6; Mon, 10 May 2021 00:59:01 -0400 (EDT) From: root@wam-2.localdomain (Cron Daemon) To: sinton@wam-2.localdomain Subject: Cron ~/symlinks/TEAM99/ogoakinitchka2.sh 99 0.05 > /dev/null MIME-Version: 1.0 Content-Type: text/plain; charset=UTF-8 Content-Transfer-Encoding: 8bit X-Cron-Env: X-Cron-Env: X-Cron-Env: X-Cron-Env: Message-Id: <20210510045901.C064A394A6@wam-2.localdomain> Date: Mon, 10 May 2021 00:59:01 -0400 (EDT) /bin/sh: 1: /home/sinton/symlinks/TEAM99/ogoakinitchka2.sh: not found From sinton@wam-2.localdomain Mon May 10 00:59:01 2021 Return-Path: X-Original-To: sinton Delivered-To: sinton@wam-2.localdomain Received: by wam-2.localdomain (Postfix, from userid 1001) id CDF1C394A6; Mon, 10 May 2021 00:59:01 -0400 (EDT) From: root@wam-2.localdomain (Cron Daemon) To: sinton@wam-2.localdomain Subject: Cron ~/symlinks/TEAM1F/metin/apiv4.sh 1f > /dev/null MIME-Version: 1.0 Content-Type: text/plain; charset=UTF-8 Content-Transfer-Encoding: 8bit X-Cron-Env: X-Cron-Env: X-Cron-Env: X-Cron-Env: Message-Id: <20210510045901.CDF1C394A6@wam-2.localdomain> Date: Mon, 10 May 2021 00:59:01 -0400 (EDT) % Total % Received % Xferd Average Speed Time Time Time Current Dload Upload Total Spent Left Speed 0 0 0 0 0 0 0 0 --:--:-- --:--:-- --:--:-- 0 100 392 100 392 0 0 5600 0 --:--:-- --:--:-- --:--:-- 5600 From sinton@wam-2.localdomain Mon May 10 01:00:02 2021 Return-Path: X-Original-To: sinton Delivered-To: sinton@wam-2.localdomain Received: by wam-2.localdomain (Postfix, from userid 1001) id 1601F394B1; Mon, 10 May 2021 01:00:02 -0400 (EDT) From: root@wam-2.localdomain (Cron Daemon) To: sinton@wam-2.localdomain Subject: Cron ~/symlinks/TEAM99/ogoakinitchka2.sh 99 0.05 > /dev/null MIME-Version: 1.0 Content-Type: text/plain; charset=UTF-8 Content-Transfer-Encoding: 8bit X-Cron-Env: X-Cron-Env: X-Cron-Env: X-Cron-Env: Message-Id: <20210510050002.1601F394B1@wam-2.localdomain> Date: Mon, 10 May 2021 01:00:02 -0400 (EDT) /bin/sh: 1: /home/sinton/symlinks/TEAM99/ogoakinitchka2.sh: not found From sinton@wam-2.localdomain Mon May 10 01:00:02 2021 Return-Path: X-Original-To: sinton Delivered-To: sinton@wam-2.localdomain Received: by wam-2.localdomain (Postfix, from userid 1001) id 28B7F394C4; Mon, 10 May 2021 01:00:02 -0400 (EDT) From: root@wam-2.localdomain (Cron Daemon) To: sinton@wam-2.localdomain Subject: Cron ~/symlinks/TEAM1F/metin/apiv4.sh 1f > /dev/null MIME-Version: 1.0 Content-Type: text/plain; charset=UTF-8 Content-Transfer-Encoding: 8bit X-Cron-Env: X-Cron-Env: X-Cron-Env: X-Cron-Env: Message-Id: <20210510050002.28B7F394C4@wam-2.localdomain> Date: Mon, 10 May 2021 01:00:02 -0400 (EDT) % Total % Received % Xferd Average Speed Time Time Time Current Dload Upload Total Spent Left Speed 0 0 0 0 0 0 0 0 --:--:-- --:--:-- --:--:-- 0 100 393 100 393 0 0 4517 0 --:--:-- --:--:-- --:--:-- 4517 From sinton@wam-2.localdomain Mon May 10 01:00:35 2021 Return-Path: X-Original-To: sinton Delivered-To: sinton@wam-2.localdomain Received: by wam-2.localdomain (Postfix, from userid 1001) id B5B5F394CA; Mon, 10 May 2021 01:00:35 -0400 (EDT) From: root@wam-2.localdomain (Cron Daemon) To: sinton@wam-2.localdomain Subject: Cron ~/symlinks/TEAM8/oakarcha.pl 8 > /dev/null MIME-Version: 1.0 Content-Type: text/plain; charset=UTF-8 Content-Transfer-Encoding: 8bit X-Cron-Env: X-Cron-Env: X-Cron-Env: X-Cron-Env: Message-Id: <20210510050035.B5B5F394CA@wam-2.localdomain> Date: Mon, 10 May 2021 01:00:35 -0400 (EDT) send: spawn id exp3 not open while executing "send "bye\n"" (procedure "sftpsend" line 20) invoked from within "sftpsend 107.170.61.94 sinton@107.170.61.94 $APATH $AFILE $AFILE" invoked from within "if { ![sftpsend 107.170.61.94 sinton@107.170.61.94 $APATH $AFILE $AFILE] } { puts_log "sftpsend failed for $AFILE ([timestamp -format %c])." }..." (file "/home/sinton/sjsu8/sftptowam.tcl" line 106) From sinton@wam-2.localdomain Mon May 10 01:01:01 2021 Return-Path: X-Original-To: sinton Delivered-To: sinton@wam-2.localdomain Received: by wam-2.localdomain (Postfix, from userid 1001) id F186B394AE; Mon, 10 May 2021 01:01:01 -0400 (EDT) From: root@wam-2.localdomain (Cron Daemon) To: sinton@wam-2.localdomain Subject: Cron ~/symlinks/TEAM99/ogoakinitchka2.sh 99 0.05 > /dev/null MIME-Version: 1.0 Content-Type: text/plain; charset=UTF-8 Content-Transfer-Encoding: 8bit X-Cron-Env: X-Cron-Env: X-Cron-Env: X-Cron-Env: Message-Id: <20210510050101.F186B394AE@wam-2.localdomain> Date: Mon, 10 May 2021 01:01:01 -0400 (EDT) /bin/sh: 1: /home/sinton/symlinks/TEAM99/ogoakinitchka2.sh: not found From sinton@wam-2.localdomain Mon May 10 01:01:02 2021 Return-Path: X-Original-To: sinton Delivered-To: sinton@wam-2.localdomain Received: by wam-2.localdomain (Postfix, from userid 1001) id 1B955394AE; Mon, 10 May 2021 01:01:02 -0400 (EDT) From: root@wam-2.localdomain (Cron Daemon) To: sinton@wam-2.localdomain Subject: Cron ~/symlinks/TEAM1F/metin/apiv4.sh 1f > /dev/null MIME-Version: 1.0 Content-Type: text/plain; charset=UTF-8 Content-Transfer-Encoding: 8bit X-Cron-Env: X-Cron-Env: X-Cron-Env: X-Cron-Env: Message-Id: <20210510050102.1B955394AE@wam-2.localdomain> Date: Mon, 10 May 2021 01:01:02 -0400 (EDT) % Total % Received % Xferd Average Speed Time Time Time Current Dload Upload Total Spent Left Speed 0 0 0 0 0 0 0 0 --:--:-- --:--:-- --:--:-- 0 100 392 100 392 0 0 4170 0 --:--:-- --:--:-- --:--:-- 4170 From sinton@wam-2.localdomain Mon May 10 01:02:01 2021 Return-Path: X-Original-To: sinton Delivered-To: sinton@wam-2.localdomain Received: by wam-2.localdomain (Postfix, from userid 1001) id 5421E394CD; Mon, 10 May 2021 01:02:01 -0400 (EDT) From: root@wam-2.localdomain (Cron Daemon) To: sinton@wam-2.localdomain Subject: Cron ~/symlinks/TEAM99/ogoakinitchka2.sh 99 0.05 > /dev/null MIME-Version: 1.0 Content-Type: text/plain; charset=UTF-8 Content-Transfer-Encoding: 8bit X-Cron-Env: X-Cron-Env: X-Cron-Env: X-Cron-Env: Message-Id: <20210510050201.5421E394CD@wam-2.localdomain> Date: Mon, 10 May 2021 01:02:01 -0400 (EDT) /bin/sh: 1: /home/sinton/symlinks/TEAM99/ogoakinitchka2.sh: not found From sinton@wam-2.localdomain Mon May 10 01:02:01 2021 Return-Path: X-Original-To: sinton Delivered-To: sinton@wam-2.localdomain Received: by wam-2.localdomain (Postfix, from userid 1001) id 68D49394CD; Mon, 10 May 2021 01:02:01 -0400 (EDT) From: root@wam-2.localdomain (Cron Daemon) To: sinton@wam-2.localdomain Subject: Cron ~/symlinks/TEAM1F/metin/apiv4.sh 1f > /dev/null MIME-Version: 1.0 Content-Type: text/plain; charset=UTF-8 Content-Transfer-Encoding: 8bit X-Cron-Env: X-Cron-Env: X-Cron-Env: X-Cron-Env: Message-Id: <20210510050201.68D49394CD@wam-2.localdomain> Date: Mon, 10 May 2021 01:02:01 -0400 (EDT) % Total % Received % Xferd Average Speed Time Time Time Current Dload Upload Total Spent Left Speed 0 0 0 0 0 0 0 0 --:--:-- --:--:-- --:--:-- 0 100 392 100 392 0 0 4839 0 --:--:-- --:--:-- --:--:-- 4839 From sinton@wam-2.localdomain Mon May 10 01:03:01 2021 Return-Path: X-Original-To: sinton Delivered-To: sinton@wam-2.localdomain Received: by wam-2.localdomain (Postfix, from userid 1001) id 9F89B394AA; Mon, 10 May 2021 01:03:01 -0400 (EDT) From: root@wam-2.localdomain (Cron Daemon) To: sinton@wam-2.localdomain Subject: Cron ~/symlinks/TEAM99/ogoakinitchka2.sh 99 0.05 > /dev/null MIME-Version: 1.0 Content-Type: text/plain; charset=UTF-8 Content-Transfer-Encoding: 8bit X-Cron-Env: X-Cron-Env: X-Cron-Env: X-Cron-Env: Message-Id: <20210510050301.9F89B394AA@wam-2.localdomain> Date: Mon, 10 May 2021 01:03:01 -0400 (EDT) /bin/sh: 1: /home/sinton/symlinks/TEAM99/ogoakinitchka2.sh: not found From sinton@wam-2.localdomain Mon May 10 01:03:01 2021 Return-Path: X-Original-To: sinton Delivered-To: sinton@wam-2.localdomain Received: by wam-2.localdomain (Postfix, from userid 1001) id B7EFA394DE; Mon, 10 May 2021 01:03:01 -0400 (EDT) From: root@wam-2.localdomain (Cron Daemon) To: sinton@wam-2.localdomain Subject: Cron ~/symlinks/TEAM1F/metin/apiv4.sh 1f > /dev/null MIME-Version: 1.0 Content-Type: text/plain; charset=UTF-8 Content-Transfer-Encoding: 8bit X-Cron-Env: X-Cron-Env: X-Cron-Env: X-Cron-Env: Message-Id: <20210510050301.B7EFA394DE@wam-2.localdomain> Date: Mon, 10 May 2021 01:03:01 -0400 (EDT) % Total % Received % Xferd Average Speed Time Time Time Current Dload Upload Total Spent Left Speed 0 0 0 0 0 0 0 0 --:--:-- --:--:-- --:--:-- 0 100 391 100 391 0 0 4654 0 --:--:-- --:--:-- --:--:-- 4654 From sinton@wam-2.localdomain Mon May 10 01:04:01 2021 Return-Path: X-Original-To: sinton Delivered-To: sinton@wam-2.localdomain Received: by wam-2.localdomain (Postfix, from userid 1001) id EB6FC394CA; Mon, 10 May 2021 01:04:01 -0400 (EDT) From: root@wam-2.localdomain (Cron Daemon) To: sinton@wam-2.localdomain Subject: Cron ~/symlinks/TEAM99/ogoakinitchka2.sh 99 0.05 > /dev/null MIME-Version: 1.0 Content-Type: text/plain; charset=UTF-8 Content-Transfer-Encoding: 8bit X-Cron-Env: X-Cron-Env: X-Cron-Env: X-Cron-Env: Message-Id: <20210510050401.EB6FC394CA@wam-2.localdomain> Date: Mon, 10 May 2021 01:04:01 -0400 (EDT) /bin/sh: 1: /home/sinton/symlinks/TEAM99/ogoakinitchka2.sh: not found From sinton@wam-2.localdomain Mon May 10 01:04:02 2021 Return-Path: X-Original-To: sinton Delivered-To: sinton@wam-2.localdomain Received: by wam-2.localdomain (Postfix, from userid 1001) id 0F3A0394CA; Mon, 10 May 2021 01:04:02 -0400 (EDT) From: root@wam-2.localdomain (Cron Daemon) To: sinton@wam-2.localdomain Subject: Cron ~/symlinks/TEAM1F/metin/apiv4.sh 1f > /dev/null MIME-Version: 1.0 Content-Type: text/plain; charset=UTF-8 Content-Transfer-Encoding: 8bit X-Cron-Env: X-Cron-Env: X-Cron-Env: X-Cron-Env: Message-Id: <20210510050402.0F3A0394CA@wam-2.localdomain> Date: Mon, 10 May 2021 01:04:02 -0400 (EDT) % Total % Received % Xferd Average Speed Time Time Time Current Dload Upload Total Spent Left Speed 0 0 0 0 0 0 0 0 --:--:-- --:--:-- --:--:-- 0 100 391 100 391 0 0 5283 0 --:--:-- --:--:-- --:--:-- 5283 From sinton@wam-2.localdomain Mon May 10 01:04:31 2021 Return-Path: X-Original-To: sinton Delivered-To: sinton@wam-2.localdomain Received: by wam-2.localdomain (Postfix, from userid 1001) id 5629D394AE; Mon, 10 May 2021 01:04:31 -0400 (EDT) From: root@wam-2.localdomain (Cron Daemon) To: sinton@wam-2.localdomain Subject: Cron bash -c "sleep $[RANDOM%30]m" ; ~/symlinks/TEAM1N/fcst/startfcstclim.sh 1n > /dev/null MIME-Version: 1.0 Content-Type: text/plain; charset=UTF-8 Content-Transfer-Encoding: 8bit X-Cron-Env: X-Cron-Env: X-Cron-Env: X-Cron-Env: Message-Id: <20210510050431.5629D394AE@wam-2.localdomain> Date: Mon, 10 May 2021 01:04:31 -0400 (EDT) % Total % Received % Xferd Average Speed Time Time Time Current Dload Upload Total Spent Left Speed 0 0 0 0 0 0 0 0 --:--:-- --:--:-- --:--:-- 0 100 41819 100 41819 0 0 83304 0 --:--:-- --:--:-- --:--:-- 83304 From sinton@wam-2.localdomain Mon May 10 01:05:01 2021 Return-Path: X-Original-To: sinton Delivered-To: sinton@wam-2.localdomain Received: by wam-2.localdomain (Postfix, from userid 1001) id 8C8CF394CD; Mon, 10 May 2021 01:05:01 -0400 (EDT) From: root@wam-2.localdomain (Cron Daemon) To: sinton@wam-2.localdomain Subject: Cron ~/symlinks/TEAM99/ogoakinitchka2.sh 99 0.05 > /dev/null MIME-Version: 1.0 Content-Type: text/plain; charset=UTF-8 Content-Transfer-Encoding: 8bit X-Cron-Env: X-Cron-Env: X-Cron-Env: X-Cron-Env: Message-Id: <20210510050501.8C8CF394CD@wam-2.localdomain> Date: Mon, 10 May 2021 01:05:01 -0400 (EDT) /bin/sh: 1: /home/sinton/symlinks/TEAM99/ogoakinitchka2.sh: not found From sinton@wam-2.localdomain Mon May 10 01:05:01 2021 Return-Path: X-Original-To: sinton Delivered-To: sinton@wam-2.localdomain Received: by wam-2.localdomain (Postfix, from userid 1001) id 9F491394CD; Mon, 10 May 2021 01:05:01 -0400 (EDT) From: root@wam-2.localdomain (Cron Daemon) To: sinton@wam-2.localdomain Subject: Cron ~/symlinks/TEAM1F/metin/apiv4.sh 1f > /dev/null MIME-Version: 1.0 Content-Type: text/plain; charset=UTF-8 Content-Transfer-Encoding: 8bit X-Cron-Env: X-Cron-Env: X-Cron-Env: X-Cron-Env: Message-Id: <20210510050501.9F491394CD@wam-2.localdomain> Date: Mon, 10 May 2021 01:05:01 -0400 (EDT) % Total % Received % Xferd Average Speed Time Time Time Current Dload Upload Total Spent Left Speed 0 0 0 0 0 0 0 0 --:--:-- --:--:-- --:--:-- 0 100 387 100 387 0 0 7897 0 --:--:-- --:--:-- --:--:-- 7897 From sinton@wam-2.localdomain Mon May 10 01:06:01 2021 Return-Path: X-Original-To: sinton Delivered-To: sinton@wam-2.localdomain Received: by wam-2.localdomain (Postfix, from userid 1001) id ED2B7394C3; Mon, 10 May 2021 01:06:01 -0400 (EDT) From: root@wam-2.localdomain (Cron Daemon) To: sinton@wam-2.localdomain Subject: Cron ~/symlinks/TEAM99/ogoakinitchka2.sh 99 0.05 > /dev/null MIME-Version: 1.0 Content-Type: text/plain; charset=UTF-8 Content-Transfer-Encoding: 8bit X-Cron-Env: X-Cron-Env: X-Cron-Env: X-Cron-Env: Message-Id: <20210510050601.ED2B7394C3@wam-2.localdomain> Date: Mon, 10 May 2021 01:06:01 -0400 (EDT) /bin/sh: 1: /home/sinton/symlinks/TEAM99/ogoakinitchka2.sh: not found From sinton@wam-2.localdomain Mon May 10 01:06:02 2021 Return-Path: X-Original-To: sinton Delivered-To: sinton@wam-2.localdomain Received: by wam-2.localdomain (Postfix, from userid 1001) id 8E080394CA; Mon, 10 May 2021 01:06:02 -0400 (EDT) From: root@wam-2.localdomain (Cron Daemon) To: sinton@wam-2.localdomain Subject: Cron ~/symlinks/TEAM1F/metin/apiv4.sh 1f > /dev/null MIME-Version: 1.0 Content-Type: text/plain; charset=UTF-8 Content-Transfer-Encoding: 8bit X-Cron-Env: X-Cron-Env: X-Cron-Env: X-Cron-Env: Message-Id: <20210510050602.8E080394CA@wam-2.localdomain> Date: Mon, 10 May 2021 01:06:02 -0400 (EDT) % Total % Received % Xferd Average Speed Time Time Time Current Dload Upload Total Spent Left Speed 0 0 0 0 0 0 0 0 --:--:-- --:--:-- --:--:-- 0 100 392 100 392 0 0 590 0 --:--:-- --:--:-- --:--:-- 590 From sinton@wam-2.localdomain Mon May 10 01:07:01 2021 Return-Path: X-Original-To: sinton Delivered-To: sinton@wam-2.localdomain Received: by wam-2.localdomain (Postfix, from userid 1001) id C838F394DF; Mon, 10 May 2021 01:07:01 -0400 (EDT) From: root@wam-2.localdomain (Cron Daemon) To: sinton@wam-2.localdomain Subject: Cron ~/symlinks/TEAM99/ogoakinitchka2.sh 99 0.05 > /dev/null MIME-Version: 1.0 Content-Type: text/plain; charset=UTF-8 Content-Transfer-Encoding: 8bit X-Cron-Env: X-Cron-Env: X-Cron-Env: X-Cron-Env: Message-Id: <20210510050701.C838F394DF@wam-2.localdomain> Date: Mon, 10 May 2021 01:07:01 -0400 (EDT) /bin/sh: 1: /home/sinton/symlinks/TEAM99/ogoakinitchka2.sh: not found From sinton@wam-2.localdomain Mon May 10 01:07:01 2021 Return-Path: X-Original-To: sinton Delivered-To: sinton@wam-2.localdomain Received: by wam-2.localdomain (Postfix, from userid 1001) id D2E5B394DF; Mon, 10 May 2021 01:07:01 -0400 (EDT) From: root@wam-2.localdomain (Cron Daemon) To: sinton@wam-2.localdomain Subject: Cron ~/symlinks/TEAM1F/metin/apiv4.sh 1f > /dev/null MIME-Version: 1.0 Content-Type: text/plain; charset=UTF-8 Content-Transfer-Encoding: 8bit X-Cron-Env: X-Cron-Env: X-Cron-Env: X-Cron-Env: Message-Id: <20210510050701.D2E5B394DF@wam-2.localdomain> Date: Mon, 10 May 2021 01:07:01 -0400 (EDT) % Total % Received % Xferd Average Speed Time Time Time Current Dload Upload Total Spent Left Speed 0 0 0 0 0 0 0 0 --:--:-- --:--:-- --:--:-- 0 100 391 100 391 0 0 4296 0 --:--:-- --:--:-- --:--:-- 4296 From sinton@wam-2.localdomain Mon May 10 01:08:02 2021 Return-Path: X-Original-To: sinton Delivered-To: sinton@wam-2.localdomain Received: by wam-2.localdomain (Postfix, from userid 1001) id 11C19394E0; Mon, 10 May 2021 01:08:02 -0400 (EDT) From: root@wam-2.localdomain (Cron Daemon) To: sinton@wam-2.localdomain Subject: Cron ~/symlinks/TEAM99/ogoakinitchka2.sh 99 0.05 > /dev/null MIME-Version: 1.0 Content-Type: text/plain; charset=UTF-8 Content-Transfer-Encoding: 8bit X-Cron-Env: X-Cron-Env: X-Cron-Env: X-Cron-Env: Message-Id: <20210510050802.11C19394E0@wam-2.localdomain> Date: Mon, 10 May 2021 01:08:02 -0400 (EDT) /bin/sh: 1: /home/sinton/symlinks/TEAM99/ogoakinitchka2.sh: not found From sinton@wam-2.localdomain Mon May 10 01:08:02 2021 Return-Path: X-Original-To: sinton Delivered-To: sinton@wam-2.localdomain Received: by wam-2.localdomain (Postfix, from userid 1001) id 2B50A394E0; Mon, 10 May 2021 01:08:02 -0400 (EDT) From: root@wam-2.localdomain (Cron Daemon) To: sinton@wam-2.localdomain Subject: Cron ~/symlinks/TEAM1F/metin/apiv4.sh 1f > /dev/null MIME-Version: 1.0 Content-Type: text/plain; charset=UTF-8 Content-Transfer-Encoding: 8bit X-Cron-Env: X-Cron-Env: X-Cron-Env: X-Cron-Env: Message-Id: <20210510050802.2B50A394E0@wam-2.localdomain> Date: Mon, 10 May 2021 01:08:02 -0400 (EDT) % Total % Received % Xferd Average Speed Time Time Time Current Dload Upload Total Spent Left Speed 0 0 0 0 0 0 0 0 --:--:-- --:--:-- --:--:-- 0 100 392 100 392 0 0 4558 0 --:--:-- --:--:-- --:--:-- 4558 From sinton@wam-2.localdomain Mon May 10 01:08:38 2021 Return-Path: X-Original-To: sinton Delivered-To: sinton@wam-2.localdomain Received: by wam-2.localdomain (Postfix, from userid 1001) id 8E85B394D9; Mon, 10 May 2021 01:08:38 -0400 (EDT) From: root@wam-2.localdomain (Cron Daemon) To: sinton@wam-2.localdomain Subject: Cron bash -c "sleep $[RANDOM%30]m" ; ~/symlinks/TEAM1F/fcst/startfcstclim.sh 1f > /dev/null MIME-Version: 1.0 Content-Type: text/plain; charset=UTF-8 Content-Transfer-Encoding: 8bit X-Cron-Env: X-Cron-Env: X-Cron-Env: X-Cron-Env: Message-Id: <20210510050838.8E85B394D9@wam-2.localdomain> Date: Mon, 10 May 2021 01:08:38 -0400 (EDT) % Total % Received % Xferd Average Speed Time Time Time Current Dload Upload Total Spent Left Speed 0 0 0 0 0 0 0 0 --:--:-- --:--:-- --:--:-- 0 100 41639 100 41639 0 0 227k 0 --:--:-- --:--:-- --:--:-- 227k From sinton@wam-2.localdomain Mon May 10 01:09:01 2021 Return-Path: X-Original-To: sinton Delivered-To: sinton@wam-2.localdomain Received: by wam-2.localdomain (Postfix, from userid 1001) id C6B4A394DF; Mon, 10 May 2021 01:09:01 -0400 (EDT) From: root@wam-2.localdomain (Cron Daemon) To: sinton@wam-2.localdomain Subject: Cron ~/symlinks/TEAM99/ogoakinitchka2.sh 99 0.05 > /dev/null MIME-Version: 1.0 Content-Type: text/plain; charset=UTF-8 Content-Transfer-Encoding: 8bit X-Cron-Env: X-Cron-Env: X-Cron-Env: X-Cron-Env: Message-Id: <20210510050901.C6B4A394DF@wam-2.localdomain> Date: Mon, 10 May 2021 01:09:01 -0400 (EDT) /bin/sh: 1: /home/sinton/symlinks/TEAM99/ogoakinitchka2.sh: not found From sinton@wam-2.localdomain Mon May 10 01:09:01 2021 Return-Path: X-Original-To: sinton Delivered-To: sinton@wam-2.localdomain Received: by wam-2.localdomain (Postfix, from userid 1001) id D7AE4394DF; Mon, 10 May 2021 01:09:01 -0400 (EDT) From: root@wam-2.localdomain (Cron Daemon) To: sinton@wam-2.localdomain Subject: Cron ~/symlinks/TEAM1F/metin/apiv4.sh 1f > /dev/null MIME-Version: 1.0 Content-Type: text/plain; charset=UTF-8 Content-Transfer-Encoding: 8bit X-Cron-Env: X-Cron-Env: X-Cron-Env: X-Cron-Env: Message-Id: <20210510050901.D7AE4394DF@wam-2.localdomain> Date: Mon, 10 May 2021 01:09:01 -0400 (EDT) % Total % Received % Xferd Average Speed Time Time Time Current Dload Upload Total Spent Left Speed 0 0 0 0 0 0 0 0 --:--:-- --:--:-- --:--:-- 0 100 392 100 392 0 0 5226 0 --:--:-- --:--:-- --:--:-- 5157 100 392 100 392 0 0 5226 0 --:--:-- --:--:-- --:--:-- 5157 From sinton@wam-2.localdomain Mon May 10 01:10:02 2021 Return-Path: X-Original-To: sinton Delivered-To: sinton@wam-2.localdomain Received: by wam-2.localdomain (Postfix, from userid 1001) id 177F8394CA; Mon, 10 May 2021 01:10:02 -0400 (EDT) From: root@wam-2.localdomain (Cron Daemon) To: sinton@wam-2.localdomain Subject: Cron ~/symlinks/TEAM99/ogoakinitchka2.sh 99 0.05 > /dev/null MIME-Version: 1.0 Content-Type: text/plain; charset=UTF-8 Content-Transfer-Encoding: 8bit X-Cron-Env: X-Cron-Env: X-Cron-Env: X-Cron-Env: Message-Id: <20210510051002.177F8394CA@wam-2.localdomain> Date: Mon, 10 May 2021 01:10:02 -0400 (EDT) /bin/sh: 1: /home/sinton/symlinks/TEAM99/ogoakinitchka2.sh: not found From sinton@wam-2.localdomain Mon May 10 01:10:02 2021 Return-Path: X-Original-To: sinton Delivered-To: sinton@wam-2.localdomain Received: by wam-2.localdomain (Postfix, from userid 1001) id 286F0394CA; Mon, 10 May 2021 01:10:02 -0400 (EDT) From: root@wam-2.localdomain (Cron Daemon) To: sinton@wam-2.localdomain Subject: Cron ~/symlinks/TEAM1F/metin/apiv4.sh 1f > /dev/null MIME-Version: 1.0 Content-Type: text/plain; charset=UTF-8 Content-Transfer-Encoding: 8bit X-Cron-Env: X-Cron-Env: X-Cron-Env: X-Cron-Env: Message-Id: <20210510051002.286F0394CA@wam-2.localdomain> Date: Mon, 10 May 2021 01:10:02 -0400 (EDT) % Total % Received % Xferd Average Speed Time Time Time Current Dload Upload Total Spent Left Speed 0 0 0 0 0 0 0 0 --:--:-- --:--:-- --:--:-- 0 100 392 100 392 0 0 5226 0 --:--:-- --:--:-- --:--:-- 5226 From sinton@wam-2.localdomain Mon May 10 01:11:01 2021 Return-Path: X-Original-To: sinton Delivered-To: sinton@wam-2.localdomain Received: by wam-2.localdomain (Postfix, from userid 1001) id 711BF394E6; Mon, 10 May 2021 01:11:01 -0400 (EDT) From: root@wam-2.localdomain (Cron Daemon) To: sinton@wam-2.localdomain Subject: Cron ~/symlinks/TEAM99/ogoakinitchka2.sh 99 0.05 > /dev/null MIME-Version: 1.0 Content-Type: text/plain; charset=UTF-8 Content-Transfer-Encoding: 8bit X-Cron-Env: X-Cron-Env: X-Cron-Env: X-Cron-Env: Message-Id: <20210510051101.711BF394E6@wam-2.localdomain> Date: Mon, 10 May 2021 01:11:01 -0400 (EDT) /bin/sh: 1: /home/sinton/symlinks/TEAM99/ogoakinitchka2.sh: not found From sinton@wam-2.localdomain Mon May 10 01:11:01 2021 Return-Path: X-Original-To: sinton Delivered-To: sinton@wam-2.localdomain Received: by wam-2.localdomain (Postfix, from userid 1001) id 7DFD7394E6; Mon, 10 May 2021 01:11:01 -0400 (EDT) From: root@wam-2.localdomain (Cron Daemon) To: sinton@wam-2.localdomain Subject: Cron ~/symlinks/TEAM1F/metin/apiv4.sh 1f > /dev/null MIME-Version: 1.0 Content-Type: text/plain; charset=UTF-8 Content-Transfer-Encoding: 8bit X-Cron-Env: X-Cron-Env: X-Cron-Env: X-Cron-Env: Message-Id: <20210510051101.7DFD7394E6@wam-2.localdomain> Date: Mon, 10 May 2021 01:11:01 -0400 (EDT) % Total % Received % Xferd Average Speed Time Time Time Current Dload Upload Total Spent Left Speed 0 0 0 0 0 0 0 0 --:--:-- --:--:-- --:--:-- 0 100 388 100 388 0 0 6062 0 --:--:-- --:--:-- --:--:-- 6158 From sinton@wam-2.localdomain Mon May 10 01:12:01 2021 Return-Path: X-Original-To: sinton Delivered-To: sinton@wam-2.localdomain Received: by wam-2.localdomain (Postfix, from userid 1001) id B1654394E8; Mon, 10 May 2021 01:12:01 -0400 (EDT) From: root@wam-2.localdomain (Cron Daemon) To: sinton@wam-2.localdomain Subject: Cron ~/symlinks/TEAM99/ogoakinitchka2.sh 99 0.05 > /dev/null MIME-Version: 1.0 Content-Type: text/plain; charset=UTF-8 Content-Transfer-Encoding: 8bit X-Cron-Env: X-Cron-Env: X-Cron-Env: X-Cron-Env: Message-Id: <20210510051201.B1654394E8@wam-2.localdomain> Date: Mon, 10 May 2021 01:12:01 -0400 (EDT) /bin/sh: 1: /home/sinton/symlinks/TEAM99/ogoakinitchka2.sh: not found From sinton@wam-2.localdomain Mon May 10 01:12:01 2021 Return-Path: X-Original-To: sinton Delivered-To: sinton@wam-2.localdomain Received: by wam-2.localdomain (Postfix, from userid 1001) id CEB0D394E8; Mon, 10 May 2021 01:12:01 -0400 (EDT) From: root@wam-2.localdomain (Cron Daemon) To: sinton@wam-2.localdomain Subject: Cron ~/symlinks/TEAM1F/metin/apiv4.sh 1f > /dev/null MIME-Version: 1.0 Content-Type: text/plain; charset=UTF-8 Content-Transfer-Encoding: 8bit X-Cron-Env: X-Cron-Env: X-Cron-Env: X-Cron-Env: Message-Id: <20210510051201.CEB0D394E8@wam-2.localdomain> Date: Mon, 10 May 2021 01:12:01 -0400 (EDT) % Total % Received % Xferd Average Speed Time Time Time Current Dload Upload Total Spent Left Speed 0 0 0 0 0 0 0 0 --:--:-- --:--:-- --:--:-- 0 100 391 100 391 0 0 2413 0 --:--:-- --:--:-- --:--:-- 2428 From sinton@wam-2.localdomain Mon May 10 01:13:02 2021 Return-Path: X-Original-To: sinton Delivered-To: sinton@wam-2.localdomain Received: by wam-2.localdomain (Postfix, from userid 1001) id 0D882394EC; Mon, 10 May 2021 01:13:02 -0400 (EDT) From: root@wam-2.localdomain (Cron Daemon) To: sinton@wam-2.localdomain Subject: Cron ~/symlinks/TEAM99/ogoakinitchka2.sh 99 0.05 > /dev/null MIME-Version: 1.0 Content-Type: text/plain; charset=UTF-8 Content-Transfer-Encoding: 8bit X-Cron-Env: X-Cron-Env: X-Cron-Env: X-Cron-Env: Message-Id: <20210510051302.0D882394EC@wam-2.localdomain> Date: Mon, 10 May 2021 01:13:02 -0400 (EDT) /bin/sh: 1: /home/sinton/symlinks/TEAM99/ogoakinitchka2.sh: not found From sinton@wam-2.localdomain Mon May 10 01:13:02 2021 Return-Path: X-Original-To: sinton Delivered-To: sinton@wam-2.localdomain Received: by wam-2.localdomain (Postfix, from userid 1001) id 2A837394EC; Mon, 10 May 2021 01:13:02 -0400 (EDT) From: root@wam-2.localdomain (Cron Daemon) To: sinton@wam-2.localdomain Subject: Cron ~/symlinks/TEAM1F/metin/apiv4.sh 1f > /dev/null MIME-Version: 1.0 Content-Type: text/plain; charset=UTF-8 Content-Transfer-Encoding: 8bit X-Cron-Env: X-Cron-Env: X-Cron-Env: X-Cron-Env: Message-Id: <20210510051302.2A837394EC@wam-2.localdomain> Date: Mon, 10 May 2021 01:13:02 -0400 (EDT) % Total % Received % Xferd Average Speed Time Time Time Current Dload Upload Total Spent Left Speed 0 0 0 0 0 0 0 0 --:--:-- --:--:-- --:--:-- 0 100 392 100 392 0 0 2722 0 --:--:-- --:--:-- --:--:-- 2722 From sinton@wam-2.localdomain Mon May 10 01:14:01 2021 Return-Path: X-Original-To: sinton Delivered-To: sinton@wam-2.localdomain Received: by wam-2.localdomain (Postfix, from userid 1001) id 58BAB394EE; Mon, 10 May 2021 01:14:01 -0400 (EDT) From: root@wam-2.localdomain (Cron Daemon) To: sinton@wam-2.localdomain Subject: Cron ~/symlinks/TEAM99/ogoakinitchka2.sh 99 0.05 > /dev/null MIME-Version: 1.0 Content-Type: text/plain; charset=UTF-8 Content-Transfer-Encoding: 8bit X-Cron-Env: X-Cron-Env: X-Cron-Env: X-Cron-Env: Message-Id: <20210510051401.58BAB394EE@wam-2.localdomain> Date: Mon, 10 May 2021 01:14:01 -0400 (EDT) /bin/sh: 1: /home/sinton/symlinks/TEAM99/ogoakinitchka2.sh: not found From sinton@wam-2.localdomain Mon May 10 01:14:01 2021 Return-Path: X-Original-To: sinton Delivered-To: sinton@wam-2.localdomain Received: by wam-2.localdomain (Postfix, from userid 1001) id 72620394EE; Mon, 10 May 2021 01:14:01 -0400 (EDT) From: root@wam-2.localdomain (Cron Daemon) To: sinton@wam-2.localdomain Subject: Cron ~/symlinks/TEAM1F/metin/apiv4.sh 1f > /dev/null MIME-Version: 1.0 Content-Type: text/plain; charset=UTF-8 Content-Transfer-Encoding: 8bit X-Cron-Env: X-Cron-Env: X-Cron-Env: X-Cron-Env: Message-Id: <20210510051401.72620394EE@wam-2.localdomain> Date: Mon, 10 May 2021 01:14:01 -0400 (EDT) % Total % Received % Xferd Average Speed Time Time Time Current Dload Upload Total Spent Left Speed 0 0 0 0 0 0 0 0 --:--:-- --:--:-- --:--:-- 0 100 392 100 392 0 0 6533 0 --:--:-- --:--:-- --:--:-- 6533 From sinton@wam-2.localdomain Mon May 10 01:15:01 2021 Return-Path: X-Original-To: sinton Delivered-To: sinton@wam-2.localdomain Received: by wam-2.localdomain (Postfix, from userid 1001) id AB6BC394E1; Mon, 10 May 2021 01:15:01 -0400 (EDT) From: root@wam-2.localdomain (Cron Daemon) To: sinton@wam-2.localdomain Subject: Cron ~/symlinks/TEAM99/ogoakinitchka2.sh 99 0.05 > /dev/null MIME-Version: 1.0 Content-Type: text/plain; charset=UTF-8 Content-Transfer-Encoding: 8bit X-Cron-Env: X-Cron-Env: X-Cron-Env: X-Cron-Env: Message-Id: <20210510051501.AB6BC394E1@wam-2.localdomain> Date: Mon, 10 May 2021 01:15:01 -0400 (EDT) /bin/sh: 1: /home/sinton/symlinks/TEAM99/ogoakinitchka2.sh: not found From sinton@wam-2.localdomain Mon May 10 01:15:01 2021 Return-Path: X-Original-To: sinton Delivered-To: sinton@wam-2.localdomain Received: by wam-2.localdomain (Postfix, from userid 1001) id BC616379C8; Mon, 10 May 2021 01:15:01 -0400 (EDT) From: root@wam-2.localdomain (Cron Daemon) To: sinton@wam-2.localdomain Subject: Cron ~/symlinks/TEAM1F/metin/apiv4.sh 1f > /dev/null MIME-Version: 1.0 Content-Type: text/plain; charset=UTF-8 Content-Transfer-Encoding: 8bit X-Cron-Env: X-Cron-Env: X-Cron-Env: X-Cron-Env: Message-Id: <20210510051501.BC616379C8@wam-2.localdomain> Date: Mon, 10 May 2021 01:15:01 -0400 (EDT) % Total % Received % Xferd Average Speed Time Time Time Current Dload Upload Total Spent Left Speed 0 0 0 0 0 0 0 0 --:--:-- --:--:-- --:--:-- 0 100 389 100 389 0 0 5328 0 --:--:-- --:--:-- --:--:-- 5328 From sinton@wam-2.localdomain Mon May 10 01:16:01 2021 Return-Path: X-Original-To: sinton Delivered-To: sinton@wam-2.localdomain Received: by wam-2.localdomain (Postfix, from userid 1001) id 6160D39502; Mon, 10 May 2021 01:16:01 -0400 (EDT) From: root@wam-2.localdomain (Cron Daemon) To: sinton@wam-2.localdomain Subject: Cron ~/symlinks/TEAM99/ogoakinitchka2.sh 99 0.05 > /dev/null MIME-Version: 1.0 Content-Type: text/plain; charset=UTF-8 Content-Transfer-Encoding: 8bit X-Cron-Env: X-Cron-Env: X-Cron-Env: X-Cron-Env: Message-Id: <20210510051601.6160D39502@wam-2.localdomain> Date: Mon, 10 May 2021 01:16:01 -0400 (EDT) /bin/sh: 1: /home/sinton/symlinks/TEAM99/ogoakinitchka2.sh: not found From sinton@wam-2.localdomain Mon May 10 01:16:01 2021 Return-Path: X-Original-To: sinton Delivered-To: sinton@wam-2.localdomain Received: by wam-2.localdomain (Postfix, from userid 1001) id 860A5394FC; Mon, 10 May 2021 01:16:01 -0400 (EDT) From: root@wam-2.localdomain (Cron Daemon) To: sinton@wam-2.localdomain Subject: Cron ~/symlinks/TEAM1F/metin/apiv4.sh 1f > /dev/null MIME-Version: 1.0 Content-Type: text/plain; charset=UTF-8 Content-Transfer-Encoding: 8bit X-Cron-Env: X-Cron-Env: X-Cron-Env: X-Cron-Env: Message-Id: <20210510051601.860A5394FC@wam-2.localdomain> Date: Mon, 10 May 2021 01:16:01 -0400 (EDT) % Total % Received % Xferd Average Speed Time Time Time Current Dload Upload Total Spent Left Speed 0 0 0 0 0 0 0 0 --:--:-- --:--:-- --:--:-- 0 100 392 100 392 0 0 2630 0 --:--:-- --:--:-- --:--:-- 2630 From sinton@wam-2.localdomain Mon May 10 01:17:01 2021 Return-Path: X-Original-To: sinton Delivered-To: sinton@wam-2.localdomain Received: by wam-2.localdomain (Postfix, from userid 1001) id BD76F37AD0; Mon, 10 May 2021 01:17:01 -0400 (EDT) From: root@wam-2.localdomain (Cron Daemon) To: sinton@wam-2.localdomain Subject: Cron ~/symlinks/TEAM99/ogoakinitchka2.sh 99 0.05 > /dev/null MIME-Version: 1.0 Content-Type: text/plain; charset=UTF-8 Content-Transfer-Encoding: 8bit X-Cron-Env: X-Cron-Env: X-Cron-Env: X-Cron-Env: Message-Id: <20210510051701.BD76F37AD0@wam-2.localdomain> Date: Mon, 10 May 2021 01:17:01 -0400 (EDT) /bin/sh: 1: /home/sinton/symlinks/TEAM99/ogoakinitchka2.sh: not found From sinton@wam-2.localdomain Mon May 10 01:17:01 2021 Return-Path: X-Original-To: sinton Delivered-To: sinton@wam-2.localdomain Received: by wam-2.localdomain (Postfix, from userid 1001) id D48DF394EE; Mon, 10 May 2021 01:17:01 -0400 (EDT) From: root@wam-2.localdomain (Cron Daemon) To: sinton@wam-2.localdomain Subject: Cron ~/symlinks/TEAM1F/metin/apiv4.sh 1f > /dev/null MIME-Version: 1.0 Content-Type: text/plain; charset=UTF-8 Content-Transfer-Encoding: 8bit X-Cron-Env: X-Cron-Env: X-Cron-Env: X-Cron-Env: Message-Id: <20210510051701.D48DF394EE@wam-2.localdomain> Date: Mon, 10 May 2021 01:17:01 -0400 (EDT) % Total % Received % Xferd Average Speed Time Time Time Current Dload Upload Total Spent Left Speed 0 0 0 0 0 0 0 0 --:--:-- --:--:-- --:--:-- 0 100 392 100 392 0 0 7127 0 --:--:-- --:--:-- --:--:-- 7259 From sinton@wam-2.localdomain Mon May 10 01:18:02 2021 Return-Path: X-Original-To: sinton Delivered-To: sinton@wam-2.localdomain Received: by wam-2.localdomain (Postfix, from userid 1001) id 15A0C38FD1; Mon, 10 May 2021 01:18:02 -0400 (EDT) From: root@wam-2.localdomain (Cron Daemon) To: sinton@wam-2.localdomain Subject: Cron ~/symlinks/TEAM99/ogoakinitchka2.sh 99 0.05 > /dev/null MIME-Version: 1.0 Content-Type: text/plain; charset=UTF-8 Content-Transfer-Encoding: 8bit X-Cron-Env: X-Cron-Env: X-Cron-Env: X-Cron-Env: Message-Id: <20210510051802.15A0C38FD1@wam-2.localdomain> Date: Mon, 10 May 2021 01:18:02 -0400 (EDT) /bin/sh: 1: /home/sinton/symlinks/TEAM99/ogoakinitchka2.sh: not found From sinton@wam-2.localdomain Mon May 10 01:18:02 2021 Return-Path: X-Original-To: sinton Delivered-To: sinton@wam-2.localdomain Received: by wam-2.localdomain (Postfix, from userid 1001) id 2F49B38FD1; Mon, 10 May 2021 01:18:02 -0400 (EDT) From: root@wam-2.localdomain (Cron Daemon) To: sinton@wam-2.localdomain Subject: Cron ~/symlinks/TEAM1F/metin/apiv4.sh 1f > /dev/null MIME-Version: 1.0 Content-Type: text/plain; charset=UTF-8 Content-Transfer-Encoding: 8bit X-Cron-Env: X-Cron-Env: X-Cron-Env: X-Cron-Env: Message-Id: <20210510051802.2F49B38FD1@wam-2.localdomain> Date: Mon, 10 May 2021 01:18:02 -0400 (EDT) % Total % Received % Xferd Average Speed Time Time Time Current Dload Upload Total Spent Left Speed 0 0 0 0 0 0 0 0 --:--:-- --:--:-- --:--:-- 0 100 391 100 391 0 0 5077 0 --:--:-- --:--:-- --:--:-- 5077 From sinton@wam-2.localdomain Mon May 10 01:18:20 2021 Return-Path: X-Original-To: sinton Delivered-To: sinton@wam-2.localdomain Received: by wam-2.localdomain (Postfix, from userid 1001) id 9DAB338FC2; Mon, 10 May 2021 01:18:20 -0400 (EDT) From: root@wam-2.localdomain (Cron Daemon) To: sinton@wam-2.localdomain Subject: Cron bash -c "sleep $[RANDOM%30]m" ; ~/symlinks/TEAM8/fcst/startfcstclim.sh 8 > /dev/null MIME-Version: 1.0 Content-Type: text/plain; charset=UTF-8 Content-Transfer-Encoding: 8bit X-Cron-Env: X-Cron-Env: X-Cron-Env: X-Cron-Env: Message-Id: <20210510051820.9DAB338FC2@wam-2.localdomain> Date: Mon, 10 May 2021 01:18:20 -0400 (EDT) % Total % Received % Xferd Average Speed Time Time Time Current Dload Upload Total Spent Left Speed 0 0 0 0 0 0 0 0 --:--:-- --:--:-- --:--:-- 0 100 41645 100 41645 0 0 292k 0 --:--:-- --:--:-- --:--:-- 292k From sinton@wam-2.localdomain Mon May 10 01:19:01 2021 Return-Path: X-Original-To: sinton Delivered-To: sinton@wam-2.localdomain Received: by wam-2.localdomain (Postfix, from userid 1001) id D63B13916A; Mon, 10 May 2021 01:19:01 -0400 (EDT) From: root@wam-2.localdomain (Cron Daemon) To: sinton@wam-2.localdomain Subject: Cron ~/symlinks/TEAM99/ogoakinitchka2.sh 99 0.05 > /dev/null MIME-Version: 1.0 Content-Type: text/plain; charset=UTF-8 Content-Transfer-Encoding: 8bit X-Cron-Env: X-Cron-Env: X-Cron-Env: X-Cron-Env: Message-Id: <20210510051901.D63B13916A@wam-2.localdomain> Date: Mon, 10 May 2021 01:19:01 -0400 (EDT) /bin/sh: 1: /home/sinton/symlinks/TEAM99/ogoakinitchka2.sh: not found From sinton@wam-2.localdomain Mon May 10 01:19:01 2021 Return-Path: X-Original-To: sinton Delivered-To: sinton@wam-2.localdomain Received: by wam-2.localdomain (Postfix, from userid 1001) id E707F3916A; Mon, 10 May 2021 01:19:01 -0400 (EDT) From: root@wam-2.localdomain (Cron Daemon) To: sinton@wam-2.localdomain Subject: Cron ~/symlinks/TEAM1F/metin/apiv4.sh 1f > /dev/null MIME-Version: 1.0 Content-Type: text/plain; charset=UTF-8 Content-Transfer-Encoding: 8bit X-Cron-Env: X-Cron-Env: X-Cron-Env: X-Cron-Env: Message-Id: <20210510051901.E707F3916A@wam-2.localdomain> Date: Mon, 10 May 2021 01:19:01 -0400 (EDT) % Total % Received % Xferd Average Speed Time Time Time Current Dload Upload Total Spent Left Speed 0 0 0 0 0 0 0 0 --:--:-- --:--:-- --:--:-- 0 0 0 0 0 0 0 0 0 --:--:-- --:--:-- --:--:-- 0 100 392 100 392 0 0 4962 0 --:--:-- --:--:-- --:--:-- 4900 From sinton@wam-2.localdomain Mon May 10 01:20:02 2021 Return-Path: X-Original-To: sinton Delivered-To: sinton@wam-2.localdomain Received: by wam-2.localdomain (Postfix, from userid 1001) id 2189938614; Mon, 10 May 2021 01:20:02 -0400 (EDT) From: root@wam-2.localdomain (Cron Daemon) To: sinton@wam-2.localdomain Subject: Cron ~/symlinks/TEAM99/ogoakinitchka2.sh 99 0.05 > /dev/null MIME-Version: 1.0 Content-Type: text/plain; charset=UTF-8 Content-Transfer-Encoding: 8bit X-Cron-Env: X-Cron-Env: X-Cron-Env: X-Cron-Env: Message-Id: <20210510052002.2189938614@wam-2.localdomain> Date: Mon, 10 May 2021 01:20:02 -0400 (EDT) /bin/sh: 1: /home/sinton/symlinks/TEAM99/ogoakinitchka2.sh: not found From sinton@wam-2.localdomain Mon May 10 01:20:02 2021 Return-Path: X-Original-To: sinton Delivered-To: sinton@wam-2.localdomain Received: by wam-2.localdomain (Postfix, from userid 1001) id 3866138614; Mon, 10 May 2021 01:20:02 -0400 (EDT) From: root@wam-2.localdomain (Cron Daemon) To: sinton@wam-2.localdomain Subject: Cron ~/symlinks/TEAM1F/metin/apiv4.sh 1f > /dev/null MIME-Version: 1.0 Content-Type: text/plain; charset=UTF-8 Content-Transfer-Encoding: 8bit X-Cron-Env: X-Cron-Env: X-Cron-Env: X-Cron-Env: Message-Id: <20210510052002.3866138614@wam-2.localdomain> Date: Mon, 10 May 2021 01:20:02 -0400 (EDT) % Total % Received % Xferd Average Speed Time Time Time Current Dload Upload Total Spent Left Speed 0 0 0 0 0 0 0 0 --:--:-- --:--:-- --:--:-- 0 100 392 100 392 0 0 6125 0 --:--:-- --:--:-- --:--:-- 6125 From sinton@wam-2.localdomain Mon May 10 01:21:01 2021 Return-Path: X-Original-To: sinton Delivered-To: sinton@wam-2.localdomain Received: by wam-2.localdomain (Postfix, from userid 1001) id 8091138F91; Mon, 10 May 2021 01:21:01 -0400 (EDT) From: root@wam-2.localdomain (Cron Daemon) To: sinton@wam-2.localdomain Subject: Cron ~/symlinks/TEAM99/ogoakinitchka2.sh 99 0.05 > /dev/null MIME-Version: 1.0 Content-Type: text/plain; charset=UTF-8 Content-Transfer-Encoding: 8bit X-Cron-Env: X-Cron-Env: X-Cron-Env: X-Cron-Env: Message-Id: <20210510052101.8091138F91@wam-2.localdomain> Date: Mon, 10 May 2021 01:21:01 -0400 (EDT) /bin/sh: 1: /home/sinton/symlinks/TEAM99/ogoakinitchka2.sh: not found From sinton@wam-2.localdomain Mon May 10 01:21:01 2021 Return-Path: X-Original-To: sinton Delivered-To: sinton@wam-2.localdomain Received: by wam-2.localdomain (Postfix, from userid 1001) id 8EB863916A; Mon, 10 May 2021 01:21:01 -0400 (EDT) From: root@wam-2.localdomain (Cron Daemon) To: sinton@wam-2.localdomain Subject: Cron ~/symlinks/TEAM1F/metin/apiv4.sh 1f > /dev/null MIME-Version: 1.0 Content-Type: text/plain; charset=UTF-8 Content-Transfer-Encoding: 8bit X-Cron-Env: X-Cron-Env: X-Cron-Env: X-Cron-Env: Message-Id: <20210510052101.8EB863916A@wam-2.localdomain> Date: Mon, 10 May 2021 01:21:01 -0400 (EDT) % Total % Received % Xferd Average Speed Time Time Time Current Dload Upload Total Spent Left Speed 0 0 0 0 0 0 0 0 --:--:-- --:--:-- --:--:-- 0 100 392 100 392 0 0 5939 0 --:--:-- --:--:-- --:--:-- 6030 From sinton@wam-2.localdomain Mon May 10 01:22:01 2021 Return-Path: X-Original-To: sinton Delivered-To: sinton@wam-2.localdomain Received: by wam-2.localdomain (Postfix, from userid 1001) id C61C73941A; Mon, 10 May 2021 01:22:01 -0400 (EDT) From: root@wam-2.localdomain (Cron Daemon) To: sinton@wam-2.localdomain Subject: Cron ~/symlinks/TEAM99/ogoakinitchka2.sh 99 0.05 > /dev/null MIME-Version: 1.0 Content-Type: text/plain; charset=UTF-8 Content-Transfer-Encoding: 8bit X-Cron-Env: X-Cron-Env: X-Cron-Env: X-Cron-Env: Message-Id: <20210510052201.C61C73941A@wam-2.localdomain> Date: Mon, 10 May 2021 01:22:01 -0400 (EDT) /bin/sh: 1: /home/sinton/symlinks/TEAM99/ogoakinitchka2.sh: not found From sinton@wam-2.localdomain Mon May 10 01:22:01 2021 Return-Path: X-Original-To: sinton Delivered-To: sinton@wam-2.localdomain Received: by wam-2.localdomain (Postfix, from userid 1001) id D77F63941A; Mon, 10 May 2021 01:22:01 -0400 (EDT) From: root@wam-2.localdomain (Cron Daemon) To: sinton@wam-2.localdomain Subject: Cron ~/symlinks/TEAM1F/metin/apiv4.sh 1f > /dev/null MIME-Version: 1.0 Content-Type: text/plain; charset=UTF-8 Content-Transfer-Encoding: 8bit X-Cron-Env: X-Cron-Env: X-Cron-Env: X-Cron-Env: Message-Id: <20210510052201.D77F63941A@wam-2.localdomain> Date: Mon, 10 May 2021 01:22:01 -0400 (EDT) % Total % Received % Xferd Average Speed Time Time Time Current Dload Upload Total Spent Left Speed 0 0 0 0 0 0 0 0 --:--:-- --:--:-- --:--:-- 0 100 392 100 392 0 0 5157 0 --:--:-- --:--:-- --:--:-- 5157 From sinton@wam-2.localdomain Mon May 10 01:23:02 2021 Return-Path: X-Original-To: sinton Delivered-To: sinton@wam-2.localdomain Received: by wam-2.localdomain (Postfix, from userid 1001) id 0D34339508; Mon, 10 May 2021 01:23:02 -0400 (EDT) From: root@wam-2.localdomain (Cron Daemon) To: sinton@wam-2.localdomain Subject: Cron ~/symlinks/TEAM99/ogoakinitchka2.sh 99 0.05 > /dev/null MIME-Version: 1.0 Content-Type: text/plain; charset=UTF-8 Content-Transfer-Encoding: 8bit X-Cron-Env: X-Cron-Env: X-Cron-Env: X-Cron-Env: Message-Id: <20210510052302.0D34339508@wam-2.localdomain> Date: Mon, 10 May 2021 01:23:02 -0400 (EDT) /bin/sh: 1: /home/sinton/symlinks/TEAM99/ogoakinitchka2.sh: not found From sinton@wam-2.localdomain Mon May 10 01:23:02 2021 Return-Path: X-Original-To: sinton Delivered-To: sinton@wam-2.localdomain Received: by wam-2.localdomain (Postfix, from userid 1001) id 30A2E3916A; Mon, 10 May 2021 01:23:02 -0400 (EDT) From: root@wam-2.localdomain (Cron Daemon) To: sinton@wam-2.localdomain Subject: Cron ~/symlinks/TEAM1F/metin/apiv4.sh 1f > /dev/null MIME-Version: 1.0 Content-Type: text/plain; charset=UTF-8 Content-Transfer-Encoding: 8bit X-Cron-Env: X-Cron-Env: X-Cron-Env: X-Cron-Env: Message-Id: <20210510052302.30A2E3916A@wam-2.localdomain> Date: Mon, 10 May 2021 01:23:02 -0400 (EDT) % Total % Received % Xferd Average Speed Time Time Time Current Dload Upload Total Spent Left Speed 0 0 0 0 0 0 0 0 --:--:-- --:--:-- --:--:-- 0 100 391 100 391 0 0 6206 0 --:--:-- --:--:-- --:--:-- 6206 From sinton@wam-2.localdomain Mon May 10 01:23:22 2021 Return-Path: X-Original-To: sinton Delivered-To: sinton@wam-2.localdomain Received: by wam-2.localdomain (Postfix, from userid 1001) id 0556839508; Mon, 10 May 2021 01:23:22 -0400 (EDT) From: root@wam-2.localdomain (Cron Daemon) To: sinton@wam-2.localdomain Subject: Cron bash -c "sleep $[RANDOM%30]m" ; ~/symlinks/TEAM1/fcst/startfcstclim.sh 1 > /dev/null MIME-Version: 1.0 Content-Type: text/plain; charset=UTF-8 Content-Transfer-Encoding: 8bit X-Cron-Env: X-Cron-Env: X-Cron-Env: X-Cron-Env: Message-Id: <20210510052322.0556839508@wam-2.localdomain> Date: Mon, 10 May 2021 01:23:22 -0400 (EDT) % Total % Received % Xferd Average Speed Time Time Time Current Dload Upload Total Spent Left Speed 0 0 0 0 0 0 0 0 --:--:-- --:--:-- --:--:-- 0 100 41765 100 41765 0 0 224k 0 --:--:-- --:--:-- --:--:-- 224k From sinton@wam-2.localdomain Mon May 10 01:23:22 2021 Return-Path: X-Original-To: sinton Delivered-To: sinton@wam-2.localdomain Received: by wam-2.localdomain (Postfix, from userid 1001) id A987739508; Mon, 10 May 2021 01:23:22 -0400 (EDT) From: root@wam-2.localdomain (Cron Daemon) To: sinton@wam-2.localdomain Subject: Cron bash -c "sleep $[RANDOM%30]m" ; ~/symlinks/TEAM7/fcst/startfcstclim.sh 7 > /dev/null MIME-Version: 1.0 Content-Type: text/plain; charset=UTF-8 Content-Transfer-Encoding: 8bit X-Cron-Env: X-Cron-Env: X-Cron-Env: X-Cron-Env: Message-Id: <20210510052322.A987739508@wam-2.localdomain> Date: Mon, 10 May 2021 01:23:22 -0400 (EDT) % Total % Received % Xferd Average Speed Time Time Time Current Dload Upload Total Spent Left Speed 0 0 0 0 0 0 0 0 --:--:-- --:--:-- --:--:-- 0 100 41580 100 41580 0 0 237k 0 --:--:-- --:--:-- --:--:-- 237k From sinton@wam-2.localdomain Mon May 10 01:24:01 2021 Return-Path: X-Original-To: sinton Delivered-To: sinton@wam-2.localdomain Received: by wam-2.localdomain (Postfix, from userid 1001) id DECB63941A; Mon, 10 May 2021 01:24:01 -0400 (EDT) From: root@wam-2.localdomain (Cron Daemon) To: sinton@wam-2.localdomain Subject: Cron ~/symlinks/TEAM99/ogoakinitchka2.sh 99 0.05 > /dev/null MIME-Version: 1.0 Content-Type: text/plain; charset=UTF-8 Content-Transfer-Encoding: 8bit X-Cron-Env: X-Cron-Env: X-Cron-Env: X-Cron-Env: Message-Id: <20210510052401.DECB63941A@wam-2.localdomain> Date: Mon, 10 May 2021 01:24:01 -0400 (EDT) /bin/sh: 1: /home/sinton/symlinks/TEAM99/ogoakinitchka2.sh: not found From sinton@wam-2.localdomain Mon May 10 01:24:01 2021 Return-Path: X-Original-To: sinton Delivered-To: sinton@wam-2.localdomain Received: by wam-2.localdomain (Postfix, from userid 1001) id EB75C39506; Mon, 10 May 2021 01:24:01 -0400 (EDT) From: root@wam-2.localdomain (Cron Daemon) To: sinton@wam-2.localdomain Subject: Cron ~/symlinks/TEAM1F/metin/apiv4.sh 1f > /dev/null MIME-Version: 1.0 Content-Type: text/plain; charset=UTF-8 Content-Transfer-Encoding: 8bit X-Cron-Env: X-Cron-Env: X-Cron-Env: X-Cron-Env: Message-Id: <20210510052401.EB75C39506@wam-2.localdomain> Date: Mon, 10 May 2021 01:24:01 -0400 (EDT) % Total % Received % Xferd Average Speed Time Time Time Current Dload Upload Total Spent Left Speed 0 0 0 0 0 0 0 0 --:--:-- --:--:-- --:--:-- 0 100 391 100 391 0 0 6627 0 --:--:-- --:--:-- --:--:-- 6741 From sinton@wam-2.localdomain Mon May 10 01:25:02 2021 Return-Path: X-Original-To: sinton Delivered-To: sinton@wam-2.localdomain Received: by wam-2.localdomain (Postfix, from userid 1001) id 2E6F539508; Mon, 10 May 2021 01:25:02 -0400 (EDT) From: root@wam-2.localdomain (Cron Daemon) To: sinton@wam-2.localdomain Subject: Cron ~/symlinks/TEAM99/ogoakinitchka2.sh 99 0.05 > /dev/null MIME-Version: 1.0 Content-Type: text/plain; charset=UTF-8 Content-Transfer-Encoding: 8bit X-Cron-Env: X-Cron-Env: X-Cron-Env: X-Cron-Env: Message-Id: <20210510052502.2E6F539508@wam-2.localdomain> Date: Mon, 10 May 2021 01:25:02 -0400 (EDT) /bin/sh: 1: /home/sinton/symlinks/TEAM99/ogoakinitchka2.sh: not found From sinton@wam-2.localdomain Mon May 10 01:25:02 2021 Return-Path: X-Original-To: sinton Delivered-To: sinton@wam-2.localdomain Received: by wam-2.localdomain (Postfix, from userid 1001) id 3BD1B39508; Mon, 10 May 2021 01:25:02 -0400 (EDT) From: root@wam-2.localdomain (Cron Daemon) To: sinton@wam-2.localdomain Subject: Cron ~/symlinks/TEAM1F/metin/apiv4.sh 1f > /dev/null MIME-Version: 1.0 Content-Type: text/plain; charset=UTF-8 Content-Transfer-Encoding: 8bit X-Cron-Env: X-Cron-Env: X-Cron-Env: X-Cron-Env: Message-Id: <20210510052502.3BD1B39508@wam-2.localdomain> Date: Mon, 10 May 2021 01:25:02 -0400 (EDT) % Total % Received % Xferd Average Speed Time Time Time Current Dload Upload Total Spent Left Speed 0 0 0 0 0 0 0 0 --:--:-- --:--:-- --:--:-- 0 100 360 100 360 0 0 6428 0 --:--:-- --:--:-- --:--:-- 6428 From sinton@wam-2.localdomain Mon May 10 01:26:01 2021 Return-Path: X-Original-To: sinton Delivered-To: sinton@wam-2.localdomain Received: by wam-2.localdomain (Postfix, from userid 1001) id 7E7D83950E; Mon, 10 May 2021 01:26:01 -0400 (EDT) From: root@wam-2.localdomain (Cron Daemon) To: sinton@wam-2.localdomain Subject: Cron ~/symlinks/TEAM99/ogoakinitchka2.sh 99 0.05 > /dev/null MIME-Version: 1.0 Content-Type: text/plain; charset=UTF-8 Content-Transfer-Encoding: 8bit X-Cron-Env: X-Cron-Env: X-Cron-Env: X-Cron-Env: Message-Id: <20210510052601.7E7D83950E@wam-2.localdomain> Date: Mon, 10 May 2021 01:26:01 -0400 (EDT) /bin/sh: 1: /home/sinton/symlinks/TEAM99/ogoakinitchka2.sh: not found From sinton@wam-2.localdomain Mon May 10 01:26:01 2021 Return-Path: X-Original-To: sinton Delivered-To: sinton@wam-2.localdomain Received: by wam-2.localdomain (Postfix, from userid 1001) id 8FF673950E; Mon, 10 May 2021 01:26:01 -0400 (EDT) From: root@wam-2.localdomain (Cron Daemon) To: sinton@wam-2.localdomain Subject: Cron ~/symlinks/TEAM1F/metin/apiv4.sh 1f > /dev/null MIME-Version: 1.0 Content-Type: text/plain; charset=UTF-8 Content-Transfer-Encoding: 8bit X-Cron-Env: X-Cron-Env: X-Cron-Env: X-Cron-Env: Message-Id: <20210510052601.8FF673950E@wam-2.localdomain> Date: Mon, 10 May 2021 01:26:01 -0400 (EDT) % Total % Received % Xferd Average Speed Time Time Time Current Dload Upload Total Spent Left Speed 0 0 0 0 0 0 0 0 --:--:-- --:--:-- --:--:-- 0 100 392 100 392 0 0 5025 0 --:--:-- --:--:-- --:--:-- 5025 From sinton@wam-2.localdomain Mon May 10 01:27:01 2021 Return-Path: X-Original-To: sinton Delivered-To: sinton@wam-2.localdomain Received: by wam-2.localdomain (Postfix, from userid 1001) id CAF5035B77; Mon, 10 May 2021 01:27:01 -0400 (EDT) From: root@wam-2.localdomain (Cron Daemon) To: sinton@wam-2.localdomain Subject: Cron ~/symlinks/TEAM99/ogoakinitchka2.sh 99 0.05 > /dev/null MIME-Version: 1.0 Content-Type: text/plain; charset=UTF-8 Content-Transfer-Encoding: 8bit X-Cron-Env: X-Cron-Env: X-Cron-Env: X-Cron-Env: Message-Id: <20210510052701.CAF5035B77@wam-2.localdomain> Date: Mon, 10 May 2021 01:27:01 -0400 (EDT) /bin/sh: 1: /home/sinton/symlinks/TEAM99/ogoakinitchka2.sh: not found From sinton@wam-2.localdomain Mon May 10 01:27:01 2021 Return-Path: X-Original-To: sinton Delivered-To: sinton@wam-2.localdomain Received: by wam-2.localdomain (Postfix, from userid 1001) id D817536C2C; Mon, 10 May 2021 01:27:01 -0400 (EDT) From: root@wam-2.localdomain (Cron Daemon) To: sinton@wam-2.localdomain Subject: Cron ~/symlinks/TEAM1F/metin/apiv4.sh 1f > /dev/null MIME-Version: 1.0 Content-Type: text/plain; charset=UTF-8 Content-Transfer-Encoding: 8bit X-Cron-Env: X-Cron-Env: X-Cron-Env: X-Cron-Env: Message-Id: <20210510052701.D817536C2C@wam-2.localdomain> Date: Mon, 10 May 2021 01:27:01 -0400 (EDT) % Total % Received % Xferd Average Speed Time Time Time Current Dload Upload Total Spent Left Speed 0 0 0 0 0 0 0 0 --:--:-- --:--:-- --:--:-- 0 100 391 100 391 0 0 7820 0 --:--:-- --:--:-- --:--:-- 7820 From sinton@wam-2.localdomain Mon May 10 01:28:02 2021 Return-Path: X-Original-To: sinton Delivered-To: sinton@wam-2.localdomain Received: by wam-2.localdomain (Postfix, from userid 1001) id 1E5C6385E6; Mon, 10 May 2021 01:28:02 -0400 (EDT) From: root@wam-2.localdomain (Cron Daemon) To: sinton@wam-2.localdomain Subject: Cron ~/symlinks/TEAM99/ogoakinitchka2.sh 99 0.05 > /dev/null MIME-Version: 1.0 Content-Type: text/plain; charset=UTF-8 Content-Transfer-Encoding: 8bit X-Cron-Env: X-Cron-Env: X-Cron-Env: X-Cron-Env: Message-Id: <20210510052802.1E5C6385E6@wam-2.localdomain> Date: Mon, 10 May 2021 01:28:02 -0400 (EDT) /bin/sh: 1: /home/sinton/symlinks/TEAM99/ogoakinitchka2.sh: not found From sinton@wam-2.localdomain Mon May 10 01:28:02 2021 Return-Path: X-Original-To: sinton Delivered-To: sinton@wam-2.localdomain Received: by wam-2.localdomain (Postfix, from userid 1001) id 3389A38650; Mon, 10 May 2021 01:28:02 -0400 (EDT) From: root@wam-2.localdomain (Cron Daemon) To: sinton@wam-2.localdomain Subject: Cron ~/symlinks/TEAM1F/metin/apiv4.sh 1f > /dev/null MIME-Version: 1.0 Content-Type: text/plain; charset=UTF-8 Content-Transfer-Encoding: 8bit X-Cron-Env: X-Cron-Env: X-Cron-Env: X-Cron-Env: Message-Id: <20210510052802.3389A38650@wam-2.localdomain> Date: Mon, 10 May 2021 01:28:02 -0400 (EDT) % Total % Received % Xferd Average Speed Time Time Time Current Dload Upload Total Spent Left Speed 0 0 0 0 0 0 0 0 --:--:-- --:--:-- --:--:-- 0 100 392 100 392 0 0 4900 0 --:--:-- --:--:-- --:--:-- 4900 From sinton@wam-2.localdomain Mon May 10 01:29:01 2021 Return-Path: X-Original-To: sinton Delivered-To: sinton@wam-2.localdomain Received: by wam-2.localdomain (Postfix, from userid 1001) id 66A9F39516; Mon, 10 May 2021 01:29:01 -0400 (EDT) From: root@wam-2.localdomain (Cron Daemon) To: sinton@wam-2.localdomain Subject: Cron ~/symlinks/TEAM99/ogoakinitchka2.sh 99 0.05 > /dev/null MIME-Version: 1.0 Content-Type: text/plain; charset=UTF-8 Content-Transfer-Encoding: 8bit X-Cron-Env: X-Cron-Env: X-Cron-Env: X-Cron-Env: Message-Id: <20210510052901.66A9F39516@wam-2.localdomain> Date: Mon, 10 May 2021 01:29:01 -0400 (EDT) /bin/sh: 1: /home/sinton/symlinks/TEAM99/ogoakinitchka2.sh: not found From sinton@wam-2.localdomain Mon May 10 01:29:01 2021 Return-Path: X-Original-To: sinton Delivered-To: sinton@wam-2.localdomain Received: by wam-2.localdomain (Postfix, from userid 1001) id 7C38439515; Mon, 10 May 2021 01:29:01 -0400 (EDT) From: root@wam-2.localdomain (Cron Daemon) To: sinton@wam-2.localdomain Subject: Cron ~/symlinks/TEAM1F/metin/apiv4.sh 1f > /dev/null MIME-Version: 1.0 Content-Type: text/plain; charset=UTF-8 Content-Transfer-Encoding: 8bit X-Cron-Env: X-Cron-Env: X-Cron-Env: X-Cron-Env: Message-Id: <20210510052901.7C38439515@wam-2.localdomain> Date: Mon, 10 May 2021 01:29:01 -0400 (EDT) % Total % Received % Xferd Average Speed Time Time Time Current Dload Upload Total Spent Left Speed 0 0 0 0 0 0 0 0 --:--:-- --:--:-- --:--:-- 0 100 389 100 389 0 0 4802 0 --:--:-- --:--:-- --:--:-- 7072 From sinton@wam-2.localdomain Mon May 10 01:29:23 2021 Return-Path: X-Original-To: sinton Delivered-To: sinton@wam-2.localdomain Received: by wam-2.localdomain (Postfix, from userid 1001) id 1F2DA3950C; Mon, 10 May 2021 01:29:23 -0400 (EDT) From: root@wam-2.localdomain (Cron Daemon) To: sinton@wam-2.localdomain Subject: Cron bash -c "sleep $[RANDOM%30]m" ; ~/symlinks/TEAM2/fcst/startfcstclim.sh 2 > /dev/null MIME-Version: 1.0 Content-Type: text/plain; charset=UTF-8 Content-Transfer-Encoding: 8bit X-Cron-Env: X-Cron-Env: X-Cron-Env: X-Cron-Env: Message-Id: <20210510052923.1F2DA3950C@wam-2.localdomain> Date: Mon, 10 May 2021 01:29:23 -0400 (EDT) % Total % Received % Xferd Average Speed Time Time Time Current Dload Upload Total Spent Left Speed 0 0 0 0 0 0 0 0 --:--:-- --:--:-- --:--:-- 0 100 41806 100 41806 0 0 392k 0 --:--:-- --:--:-- --:--:-- 392k From sinton@wam-2.localdomain Mon May 10 01:30:01 2021 Return-Path: X-Original-To: sinton Delivered-To: sinton@wam-2.localdomain Received: by wam-2.localdomain (Postfix, from userid 1001) id 4FEED39510; Mon, 10 May 2021 01:30:01 -0400 (EDT) From: root@wam-2.localdomain (Cron Daemon) To: sinton@wam-2.localdomain Subject: Cron ~/symlinks/TEAM99/ogoakinitchka2.sh 99 0.05 > /dev/null MIME-Version: 1.0 Content-Type: text/plain; charset=UTF-8 Content-Transfer-Encoding: 8bit X-Cron-Env: X-Cron-Env: X-Cron-Env: X-Cron-Env: Message-Id: <20210510053001.4FEED39510@wam-2.localdomain> Date: Mon, 10 May 2021 01:30:01 -0400 (EDT) /bin/sh: 1: /home/sinton/symlinks/TEAM99/ogoakinitchka2.sh: not found From sinton@wam-2.localdomain Mon May 10 01:30:01 2021 Return-Path: X-Original-To: sinton Delivered-To: sinton@wam-2.localdomain Received: by wam-2.localdomain (Postfix, from userid 1001) id 7AA6F39510; Mon, 10 May 2021 01:30:01 -0400 (EDT) From: root@wam-2.localdomain (Cron Daemon) To: sinton@wam-2.localdomain Subject: Cron ~/symlinks/TEAM1F/metin/apiv4.sh 1f > /dev/null MIME-Version: 1.0 Content-Type: text/plain; charset=UTF-8 Content-Transfer-Encoding: 8bit X-Cron-Env: X-Cron-Env: X-Cron-Env: X-Cron-Env: Message-Id: <20210510053001.7AA6F39510@wam-2.localdomain> Date: Mon, 10 May 2021 01:30:01 -0400 (EDT) % Total % Received % Xferd Average Speed Time Time Time Current Dload Upload Total Spent Left Speed 0 0 0 0 0 0 0 0 --:--:-- --:--:-- --:--:-- 0 100 392 100 392 0 0 2684 0 --:--:-- --:--:-- --:--:-- 2684 From sinton@wam-2.localdomain Mon May 10 01:31:01 2021 Return-Path: X-Original-To: sinton Delivered-To: sinton@wam-2.localdomain Received: by wam-2.localdomain (Postfix, from userid 1001) id BC3D039516; Mon, 10 May 2021 01:31:01 -0400 (EDT) From: root@wam-2.localdomain (Cron Daemon) To: sinton@wam-2.localdomain Subject: Cron ~/symlinks/TEAM99/ogoakinitchka2.sh 99 0.05 > /dev/null MIME-Version: 1.0 Content-Type: text/plain; charset=UTF-8 Content-Transfer-Encoding: 8bit X-Cron-Env: X-Cron-Env: X-Cron-Env: X-Cron-Env: Message-Id: <20210510053101.BC3D039516@wam-2.localdomain> Date: Mon, 10 May 2021 01:31:01 -0400 (EDT) /bin/sh: 1: /home/sinton/symlinks/TEAM99/ogoakinitchka2.sh: not found From sinton@wam-2.localdomain Mon May 10 01:31:01 2021 Return-Path: X-Original-To: sinton Delivered-To: sinton@wam-2.localdomain Received: by wam-2.localdomain (Postfix, from userid 1001) id D380A39516; Mon, 10 May 2021 01:31:01 -0400 (EDT) From: root@wam-2.localdomain (Cron Daemon) To: sinton@wam-2.localdomain Subject: Cron ~/symlinks/TEAM1F/metin/apiv4.sh 1f > /dev/null MIME-Version: 1.0 Content-Type: text/plain; charset=UTF-8 Content-Transfer-Encoding: 8bit X-Cron-Env: X-Cron-Env: X-Cron-Env: X-Cron-Env: Message-Id: <20210510053101.D380A39516@wam-2.localdomain> Date: Mon, 10 May 2021 01:31:01 -0400 (EDT) % Total % Received % Xferd Average Speed Time Time Time Current Dload Upload Total Spent Left Speed 0 0 0 0 0 0 0 0 --:--:-- --:--:-- --:--:-- 0 100 360 100 360 0 0 4736 0 --:--:-- --:--:-- --:--:-- 4736 From sinton@wam-2.localdomain Mon May 10 01:32:02 2021 Return-Path: X-Original-To: sinton Delivered-To: sinton@wam-2.localdomain Received: by wam-2.localdomain (Postfix, from userid 1001) id 1054339518; Mon, 10 May 2021 01:32:02 -0400 (EDT) From: root@wam-2.localdomain (Cron Daemon) To: sinton@wam-2.localdomain Subject: Cron ~/symlinks/TEAM99/ogoakinitchka2.sh 99 0.05 > /dev/null MIME-Version: 1.0 Content-Type: text/plain; charset=UTF-8 Content-Transfer-Encoding: 8bit X-Cron-Env: X-Cron-Env: X-Cron-Env: X-Cron-Env: Message-Id: <20210510053202.1054339518@wam-2.localdomain> Date: Mon, 10 May 2021 01:32:02 -0400 (EDT) /bin/sh: 1: /home/sinton/symlinks/TEAM99/ogoakinitchka2.sh: not found From sinton@wam-2.localdomain Mon May 10 01:32:02 2021 Return-Path: X-Original-To: sinton Delivered-To: sinton@wam-2.localdomain Received: by wam-2.localdomain (Postfix, from userid 1001) id 376BA39518; Mon, 10 May 2021 01:32:02 -0400 (EDT) From: root@wam-2.localdomain (Cron Daemon) To: sinton@wam-2.localdomain Subject: Cron ~/symlinks/TEAM1F/metin/apiv4.sh 1f > /dev/null MIME-Version: 1.0 Content-Type: text/plain; charset=UTF-8 Content-Transfer-Encoding: 8bit X-Cron-Env: X-Cron-Env: X-Cron-Env: X-Cron-Env: Message-Id: <20210510053202.376BA39518@wam-2.localdomain> Date: Mon, 10 May 2021 01:32:02 -0400 (EDT) % Total % Received % Xferd Average Speed Time Time Time Current Dload Upload Total Spent Left Speed 0 0 0 0 0 0 0 0 --:--:-- --:--:-- --:--:-- 0 100 392 100 392 0 0 2613 0 --:--:-- --:--:-- --:--:-- 2613 From sinton@wam-2.localdomain Mon May 10 01:33:01 2021 Return-Path: X-Original-To: sinton Delivered-To: sinton@wam-2.localdomain Received: by wam-2.localdomain (Postfix, from userid 1001) id 67CE53951C; Mon, 10 May 2021 01:33:01 -0400 (EDT) From: root@wam-2.localdomain (Cron Daemon) To: sinton@wam-2.localdomain Subject: Cron ~/symlinks/TEAM99/ogoakinitchka2.sh 99 0.05 > /dev/null MIME-Version: 1.0 Content-Type: text/plain; charset=UTF-8 Content-Transfer-Encoding: 8bit X-Cron-Env: X-Cron-Env: X-Cron-Env: X-Cron-Env: Message-Id: <20210510053301.67CE53951C@wam-2.localdomain> Date: Mon, 10 May 2021 01:33:01 -0400 (EDT) /bin/sh: 1: /home/sinton/symlinks/TEAM99/ogoakinitchka2.sh: not found From sinton@wam-2.localdomain Mon May 10 01:33:01 2021 Return-Path: X-Original-To: sinton Delivered-To: sinton@wam-2.localdomain Received: by wam-2.localdomain (Postfix, from userid 1001) id 7E5223951C; Mon, 10 May 2021 01:33:01 -0400 (EDT) From: root@wam-2.localdomain (Cron Daemon) To: sinton@wam-2.localdomain Subject: Cron ~/symlinks/TEAM1F/metin/apiv4.sh 1f > /dev/null MIME-Version: 1.0 Content-Type: text/plain; charset=UTF-8 Content-Transfer-Encoding: 8bit X-Cron-Env: X-Cron-Env: X-Cron-Env: X-Cron-Env: Message-Id: <20210510053301.7E5223951C@wam-2.localdomain> Date: Mon, 10 May 2021 01:33:01 -0400 (EDT) % Total % Received % Xferd Average Speed Time Time Time Current Dload Upload Total Spent Left Speed 0 0 0 0 0 0 0 0 --:--:-- --:--:-- --:--:-- 0 100 389 100 389 0 0 6274 0 --:--:-- --:--:-- --:--:-- 6274 From sinton@wam-2.localdomain Mon May 10 01:34:01 2021 Return-Path: X-Original-To: sinton Delivered-To: sinton@wam-2.localdomain Received: by wam-2.localdomain (Postfix, from userid 1001) id B4D9E39518; Mon, 10 May 2021 01:34:01 -0400 (EDT) From: root@wam-2.localdomain (Cron Daemon) To: sinton@wam-2.localdomain Subject: Cron ~/symlinks/TEAM99/ogoakinitchka2.sh 99 0.05 > /dev/null MIME-Version: 1.0 Content-Type: text/plain; charset=UTF-8 Content-Transfer-Encoding: 8bit X-Cron-Env: X-Cron-Env: X-Cron-Env: X-Cron-Env: Message-Id: <20210510053401.B4D9E39518@wam-2.localdomain> Date: Mon, 10 May 2021 01:34:01 -0400 (EDT) /bin/sh: 1: /home/sinton/symlinks/TEAM99/ogoakinitchka2.sh: not found From sinton@wam-2.localdomain Mon May 10 01:34:01 2021 Return-Path: X-Original-To: sinton Delivered-To: sinton@wam-2.localdomain Received: by wam-2.localdomain (Postfix, from userid 1001) id C69863951E; Mon, 10 May 2021 01:34:01 -0400 (EDT) From: root@wam-2.localdomain (Cron Daemon) To: sinton@wam-2.localdomain Subject: Cron ~/symlinks/TEAM1F/metin/apiv4.sh 1f > /dev/null MIME-Version: 1.0 Content-Type: text/plain; charset=UTF-8 Content-Transfer-Encoding: 8bit X-Cron-Env: X-Cron-Env: X-Cron-Env: X-Cron-Env: Message-Id: <20210510053401.C69863951E@wam-2.localdomain> Date: Mon, 10 May 2021 01:34:01 -0400 (EDT) % Total % Received % Xferd Average Speed Time Time Time Current Dload Upload Total Spent Left Speed 0 0 0 0 0 0 0 0 --:--:-- --:--:-- --:--:-- 0 100 390 100 390 0 0 6000 0 --:--:-- --:--:-- --:--:-- 6000 From sinton@wam-2.localdomain Mon May 10 01:35:02 2021 Return-Path: X-Original-To: sinton Delivered-To: sinton@wam-2.localdomain Received: by wam-2.localdomain (Postfix, from userid 1001) id 0B2723951C; Mon, 10 May 2021 01:35:02 -0400 (EDT) From: root@wam-2.localdomain (Cron Daemon) To: sinton@wam-2.localdomain Subject: Cron ~/symlinks/TEAM99/ogoakinitchka2.sh 99 0.05 > /dev/null MIME-Version: 1.0 Content-Type: text/plain; charset=UTF-8 Content-Transfer-Encoding: 8bit X-Cron-Env: X-Cron-Env: X-Cron-Env: X-Cron-Env: Message-Id: <20210510053502.0B2723951C@wam-2.localdomain> Date: Mon, 10 May 2021 01:35:02 -0400 (EDT) /bin/sh: 1: /home/sinton/symlinks/TEAM99/ogoakinitchka2.sh: not found From sinton@wam-2.localdomain Mon May 10 01:35:02 2021 Return-Path: X-Original-To: sinton Delivered-To: sinton@wam-2.localdomain Received: by wam-2.localdomain (Postfix, from userid 1001) id 18ACB39524; Mon, 10 May 2021 01:35:02 -0400 (EDT) From: root@wam-2.localdomain (Cron Daemon) To: sinton@wam-2.localdomain Subject: Cron ~/symlinks/TEAM1F/metin/apiv4.sh 1f > /dev/null MIME-Version: 1.0 Content-Type: text/plain; charset=UTF-8 Content-Transfer-Encoding: 8bit X-Cron-Env: X-Cron-Env: X-Cron-Env: X-Cron-Env: Message-Id: <20210510053502.18ACB39524@wam-2.localdomain> Date: Mon, 10 May 2021 01:35:02 -0400 (EDT) % Total % Received % Xferd Average Speed Time Time Time Current Dload Upload Total Spent Left Speed 0 0 0 0 0 0 0 0 --:--:-- --:--:-- --:--:-- 0 100 360 100 360 0 0 5538 0 --:--:-- --:--:-- --:--:-- 5538 From sinton@wam-2.localdomain Mon May 10 01:36:01 2021 Return-Path: X-Original-To: sinton Delivered-To: sinton@wam-2.localdomain Received: by wam-2.localdomain (Postfix, from userid 1001) id 5D3FD39522; Mon, 10 May 2021 01:36:01 -0400 (EDT) From: root@wam-2.localdomain (Cron Daemon) To: sinton@wam-2.localdomain Subject: Cron ~/symlinks/TEAM99/ogoakinitchka2.sh 99 0.05 > /dev/null MIME-Version: 1.0 Content-Type: text/plain; charset=UTF-8 Content-Transfer-Encoding: 8bit X-Cron-Env: X-Cron-Env: X-Cron-Env: X-Cron-Env: Message-Id: <20210510053601.5D3FD39522@wam-2.localdomain> Date: Mon, 10 May 2021 01:36:01 -0400 (EDT) /bin/sh: 1: /home/sinton/symlinks/TEAM99/ogoakinitchka2.sh: not found From sinton@wam-2.localdomain Mon May 10 01:36:01 2021 Return-Path: X-Original-To: sinton Delivered-To: sinton@wam-2.localdomain Received: by wam-2.localdomain (Postfix, from userid 1001) id 711F33951E; Mon, 10 May 2021 01:36:01 -0400 (EDT) From: root@wam-2.localdomain (Cron Daemon) To: sinton@wam-2.localdomain Subject: Cron ~/symlinks/TEAM1F/metin/apiv4.sh 1f > /dev/null MIME-Version: 1.0 Content-Type: text/plain; charset=UTF-8 Content-Transfer-Encoding: 8bit X-Cron-Env: X-Cron-Env: X-Cron-Env: X-Cron-Env: Message-Id: <20210510053601.711F33951E@wam-2.localdomain> Date: Mon, 10 May 2021 01:36:01 -0400 (EDT) % Total % Received % Xferd Average Speed Time Time Time Current Dload Upload Total Spent Left Speed 0 0 0 0 0 0 0 0 --:--:-- --:--:-- --:--:-- 0 100 360 100 360 0 0 8780 0 --:--:-- --:--:-- --:--:-- 8780 From sinton@wam-2.localdomain Mon May 10 01:37:01 2021 Return-Path: X-Original-To: sinton Delivered-To: sinton@wam-2.localdomain Received: by wam-2.localdomain (Postfix, from userid 1001) id AE7F739534; Mon, 10 May 2021 01:37:01 -0400 (EDT) From: root@wam-2.localdomain (Cron Daemon) To: sinton@wam-2.localdomain Subject: Cron ~/symlinks/TEAM99/ogoakinitchka2.sh 99 0.05 > /dev/null MIME-Version: 1.0 Content-Type: text/plain; charset=UTF-8 Content-Transfer-Encoding: 8bit X-Cron-Env: X-Cron-Env: X-Cron-Env: X-Cron-Env: Message-Id: <20210510053701.AE7F739534@wam-2.localdomain> Date: Mon, 10 May 2021 01:37:01 -0400 (EDT) /bin/sh: 1: /home/sinton/symlinks/TEAM99/ogoakinitchka2.sh: not found From sinton@wam-2.localdomain Mon May 10 01:37:01 2021 Return-Path: X-Original-To: sinton Delivered-To: sinton@wam-2.localdomain Received: by wam-2.localdomain (Postfix, from userid 1001) id C291539535; Mon, 10 May 2021 01:37:01 -0400 (EDT) From: root@wam-2.localdomain (Cron Daemon) To: sinton@wam-2.localdomain Subject: Cron ~/symlinks/TEAM1F/metin/apiv4.sh 1f > /dev/null MIME-Version: 1.0 Content-Type: text/plain; charset=UTF-8 Content-Transfer-Encoding: 8bit X-Cron-Env: X-Cron-Env: X-Cron-Env: X-Cron-Env: Message-Id: <20210510053701.C291539535@wam-2.localdomain> Date: Mon, 10 May 2021 01:37:01 -0400 (EDT) % Total % Received % Xferd Average Speed Time Time Time Current Dload Upload Total Spent Left Speed 0 0 0 0 0 0 0 0 --:--:-- --:--:-- --:--:-- 0 100 359 100 359 0 0 2620 0 --:--:-- --:--:-- --:--:-- 2620 From sinton@wam-2.localdomain Mon May 10 01:38:02 2021 Return-Path: X-Original-To: sinton Delivered-To: sinton@wam-2.localdomain Received: by wam-2.localdomain (Postfix, from userid 1001) id 036E239520; Mon, 10 May 2021 01:38:02 -0400 (EDT) From: root@wam-2.localdomain (Cron Daemon) To: sinton@wam-2.localdomain Subject: Cron ~/symlinks/TEAM99/ogoakinitchka2.sh 99 0.05 > /dev/null MIME-Version: 1.0 Content-Type: text/plain; charset=UTF-8 Content-Transfer-Encoding: 8bit X-Cron-Env: X-Cron-Env: X-Cron-Env: X-Cron-Env: Message-Id: <20210510053802.036E239520@wam-2.localdomain> Date: Mon, 10 May 2021 01:38:01 -0400 (EDT) /bin/sh: 1: /home/sinton/symlinks/TEAM99/ogoakinitchka2.sh: not found From sinton@wam-2.localdomain Mon May 10 01:38:02 2021 Return-Path: X-Original-To: sinton Delivered-To: sinton@wam-2.localdomain Received: by wam-2.localdomain (Postfix, from userid 1001) id 1864639520; Mon, 10 May 2021 01:38:02 -0400 (EDT) From: root@wam-2.localdomain (Cron Daemon) To: sinton@wam-2.localdomain Subject: Cron ~/symlinks/TEAM1F/metin/apiv4.sh 1f > /dev/null MIME-Version: 1.0 Content-Type: text/plain; charset=UTF-8 Content-Transfer-Encoding: 8bit X-Cron-Env: X-Cron-Env: X-Cron-Env: X-Cron-Env: Message-Id: <20210510053802.1864639520@wam-2.localdomain> Date: Mon, 10 May 2021 01:38:02 -0400 (EDT) % Total % Received % Xferd Average Speed Time Time Time Current Dload Upload Total Spent Left Speed 0 0 0 0 0 0 0 0 --:--:-- --:--:-- --:--:-- 0 100 359 100 359 0 0 4851 0 --:--:-- --:--:-- --:--:-- 4851 From sinton@wam-2.localdomain Mon May 10 01:39:01 2021 Return-Path: X-Original-To: sinton Delivered-To: sinton@wam-2.localdomain Received: by wam-2.localdomain (Postfix, from userid 1001) id 4BF8539536; Mon, 10 May 2021 01:39:01 -0400 (EDT) From: root@wam-2.localdomain (Cron Daemon) To: sinton@wam-2.localdomain Subject: Cron ~/symlinks/TEAM99/ogoakinitchka2.sh 99 0.05 > /dev/null MIME-Version: 1.0 Content-Type: text/plain; charset=UTF-8 Content-Transfer-Encoding: 8bit X-Cron-Env: X-Cron-Env: X-Cron-Env: X-Cron-Env: Message-Id: <20210510053901.4BF8539536@wam-2.localdomain> Date: Mon, 10 May 2021 01:39:01 -0400 (EDT) /bin/sh: 1: /home/sinton/symlinks/TEAM99/ogoakinitchka2.sh: not found From sinton@wam-2.localdomain Mon May 10 01:39:01 2021 Return-Path: X-Original-To: sinton Delivered-To: sinton@wam-2.localdomain Received: by wam-2.localdomain (Postfix, from userid 1001) id 6324539536; Mon, 10 May 2021 01:39:01 -0400 (EDT) From: root@wam-2.localdomain (Cron Daemon) To: sinton@wam-2.localdomain Subject: Cron ~/symlinks/TEAM1F/metin/apiv4.sh 1f > /dev/null MIME-Version: 1.0 Content-Type: text/plain; charset=UTF-8 Content-Transfer-Encoding: 8bit X-Cron-Env: X-Cron-Env: X-Cron-Env: X-Cron-Env: Message-Id: <20210510053901.6324539536@wam-2.localdomain> Date: Mon, 10 May 2021 01:39:01 -0400 (EDT) % Total % Received % Xferd Average Speed Time Time Time Current Dload Upload Total Spent Left Speed 0 0 0 0 0 0 0 0 --:--:-- --:--:-- --:--:-- 0 100 391 100 391 0 0 4710 0 --:--:-- --:--:-- --:--:-- 4710 From sinton@wam-2.localdomain Mon May 10 01:40:01 2021 Return-Path: X-Original-To: sinton Delivered-To: sinton@wam-2.localdomain Received: by wam-2.localdomain (Postfix, from userid 1001) id 961C2394F7; Mon, 10 May 2021 01:40:01 -0400 (EDT) From: root@wam-2.localdomain (Cron Daemon) To: sinton@wam-2.localdomain Subject: Cron ~/symlinks/TEAM99/ogoakinitchka2.sh 99 0.05 > /dev/null MIME-Version: 1.0 Content-Type: text/plain; charset=UTF-8 Content-Transfer-Encoding: 8bit X-Cron-Env: X-Cron-Env: X-Cron-Env: X-Cron-Env: Message-Id: <20210510054001.961C2394F7@wam-2.localdomain> Date: Mon, 10 May 2021 01:40:01 -0400 (EDT) /bin/sh: 1: /home/sinton/symlinks/TEAM99/ogoakinitchka2.sh: not found From sinton@wam-2.localdomain Mon May 10 01:40:01 2021 Return-Path: X-Original-To: sinton Delivered-To: sinton@wam-2.localdomain Received: by wam-2.localdomain (Postfix, from userid 1001) id A7D2D394F7; Mon, 10 May 2021 01:40:01 -0400 (EDT) From: root@wam-2.localdomain (Cron Daemon) To: sinton@wam-2.localdomain Subject: Cron ~/symlinks/TEAM1F/metin/apiv4.sh 1f > /dev/null MIME-Version: 1.0 Content-Type: text/plain; charset=UTF-8 Content-Transfer-Encoding: 8bit X-Cron-Env: X-Cron-Env: X-Cron-Env: X-Cron-Env: Message-Id: <20210510054001.A7D2D394F7@wam-2.localdomain> Date: Mon, 10 May 2021 01:40:01 -0400 (EDT) % Total % Received % Xferd Average Speed Time Time Time Current Dload Upload Total Spent Left Speed 0 0 0 0 0 0 0 0 --:--:-- --:--:-- --:--:-- 0 100 391 100 391 0 0 5283 0 --:--:-- --:--:-- --:--:-- 5356 From sinton@wam-2.localdomain Mon May 10 01:41:01 2021 Return-Path: X-Original-To: sinton Delivered-To: sinton@wam-2.localdomain Received: by wam-2.localdomain (Postfix, from userid 1001) id F06F438371; Mon, 10 May 2021 01:41:01 -0400 (EDT) From: root@wam-2.localdomain (Cron Daemon) To: sinton@wam-2.localdomain Subject: Cron ~/symlinks/TEAM99/ogoakinitchka2.sh 99 0.05 > /dev/null MIME-Version: 1.0 Content-Type: text/plain; charset=UTF-8 Content-Transfer-Encoding: 8bit X-Cron-Env: X-Cron-Env: X-Cron-Env: X-Cron-Env: Message-Id: <20210510054101.F06F438371@wam-2.localdomain> Date: Mon, 10 May 2021 01:41:01 -0400 (EDT) /bin/sh: 1: /home/sinton/symlinks/TEAM99/ogoakinitchka2.sh: not found From sinton@wam-2.localdomain Mon May 10 01:41:02 2021 Return-Path: X-Original-To: sinton Delivered-To: sinton@wam-2.localdomain Received: by wam-2.localdomain (Postfix, from userid 1001) id 0C65B3953F; Mon, 10 May 2021 01:41:02 -0400 (EDT) From: root@wam-2.localdomain (Cron Daemon) To: sinton@wam-2.localdomain Subject: Cron ~/symlinks/TEAM1F/metin/apiv4.sh 1f > /dev/null MIME-Version: 1.0 Content-Type: text/plain; charset=UTF-8 Content-Transfer-Encoding: 8bit X-Cron-Env: X-Cron-Env: X-Cron-Env: X-Cron-Env: Message-Id: <20210510054102.0C65B3953F@wam-2.localdomain> Date: Mon, 10 May 2021 01:41:02 -0400 (EDT) % Total % Received % Xferd Average Speed Time Time Time Current Dload Upload Total Spent Left Speed 0 0 0 0 0 0 0 0 --:--:-- --:--:-- --:--:-- 0 100 390 100 390 0 0 4239 0 --:--:-- --:--:-- --:--:-- 4239 From sinton@wam-2.localdomain Mon May 10 01:42:01 2021 Return-Path: X-Original-To: sinton Delivered-To: sinton@wam-2.localdomain Received: by wam-2.localdomain (Postfix, from userid 1001) id 3F9BA39537; Mon, 10 May 2021 01:42:01 -0400 (EDT) From: root@wam-2.localdomain (Cron Daemon) To: sinton@wam-2.localdomain Subject: Cron ~/symlinks/TEAM99/ogoakinitchka2.sh 99 0.05 > /dev/null MIME-Version: 1.0 Content-Type: text/plain; charset=UTF-8 Content-Transfer-Encoding: 8bit X-Cron-Env: X-Cron-Env: X-Cron-Env: X-Cron-Env: Message-Id: <20210510054201.3F9BA39537@wam-2.localdomain> Date: Mon, 10 May 2021 01:42:01 -0400 (EDT) /bin/sh: 1: /home/sinton/symlinks/TEAM99/ogoakinitchka2.sh: not found From sinton@wam-2.localdomain Mon May 10 01:42:01 2021 Return-Path: X-Original-To: sinton Delivered-To: sinton@wam-2.localdomain Received: by wam-2.localdomain (Postfix, from userid 1001) id 584EB39537; Mon, 10 May 2021 01:42:01 -0400 (EDT) From: root@wam-2.localdomain (Cron Daemon) To: sinton@wam-2.localdomain Subject: Cron ~/symlinks/TEAM1F/metin/apiv4.sh 1f > /dev/null MIME-Version: 1.0 Content-Type: text/plain; charset=UTF-8 Content-Transfer-Encoding: 8bit X-Cron-Env: X-Cron-Env: X-Cron-Env: X-Cron-Env: Message-Id: <20210510054201.584EB39537@wam-2.localdomain> Date: Mon, 10 May 2021 01:42:01 -0400 (EDT) % Total % Received % Xferd Average Speed Time Time Time Current Dload Upload Total Spent Left Speed 0 0 0 0 0 0 0 0 --:--:-- --:--:-- --:--:-- 0 100 389 100 389 0 0 4686 0 --:--:-- --:--:-- --:--:-- 4743 From sinton@wam-2.localdomain Mon May 10 01:42:15 2021 Return-Path: X-Original-To: sinton Delivered-To: sinton@wam-2.localdomain Received: by wam-2.localdomain (Postfix, from userid 1001) id 200FC393E9; Mon, 10 May 2021 01:42:15 -0400 (EDT) From: root@wam-2.localdomain (Cron Daemon) To: sinton@wam-2.localdomain Subject: Cron bash -c "sleep $[RANDOM%14]m" ; ~/symlinks/TEAM2/fcst/startfcst.pl 2 > /dev/null MIME-Version: 1.0 Content-Type: text/plain; charset=UTF-8 Content-Transfer-Encoding: 8bit X-Cron-Env: X-Cron-Env: X-Cron-Env: X-Cron-Env: Message-Id: <20210510054215.200FC393E9@wam-2.localdomain> Date: Mon, 10 May 2021 01:42:15 -0400 (EDT) # CSV_XS ERROR: 2034 - EIF - Loose unescaped quote @ rec 0 pos 29 field 1 From sinton@wam-2.localdomain Mon May 10 01:43:01 2021 Return-Path: X-Original-To: sinton Delivered-To: sinton@wam-2.localdomain Received: by wam-2.localdomain (Postfix, from userid 1001) id 546063952B; Mon, 10 May 2021 01:43:01 -0400 (EDT) From: root@wam-2.localdomain (Cron Daemon) To: sinton@wam-2.localdomain Subject: Cron ~/symlinks/TEAM99/ogoakinitchka2.sh 99 0.05 > /dev/null MIME-Version: 1.0 Content-Type: text/plain; charset=UTF-8 Content-Transfer-Encoding: 8bit X-Cron-Env: X-Cron-Env: X-Cron-Env: X-Cron-Env: Message-Id: <20210510054301.546063952B@wam-2.localdomain> Date: Mon, 10 May 2021 01:43:01 -0400 (EDT) /bin/sh: 1: /home/sinton/symlinks/TEAM99/ogoakinitchka2.sh: not found From sinton@wam-2.localdomain Mon May 10 01:43:01 2021 Return-Path: X-Original-To: sinton Delivered-To: sinton@wam-2.localdomain Received: by wam-2.localdomain (Postfix, from userid 1001) id 6F5473952B; Mon, 10 May 2021 01:43:01 -0400 (EDT) From: root@wam-2.localdomain (Cron Daemon) To: sinton@wam-2.localdomain Subject: Cron ~/symlinks/TEAM1F/metin/apiv4.sh 1f > /dev/null MIME-Version: 1.0 Content-Type: text/plain; charset=UTF-8 Content-Transfer-Encoding: 8bit X-Cron-Env: X-Cron-Env: X-Cron-Env: X-Cron-Env: Message-Id: <20210510054301.6F5473952B@wam-2.localdomain> Date: Mon, 10 May 2021 01:43:01 -0400 (EDT) % Total % Received % Xferd Average Speed Time Time Time Current Dload Upload Total Spent Left Speed 0 0 0 0 0 0 0 0 --:--:-- --:--:-- --:--:-- 0 100 359 100 359 0 0 4079 0 --:--:-- --:--:-- --:--:-- 4079 From sinton@wam-2.localdomain Mon May 10 01:44:01 2021 Return-Path: X-Original-To: sinton Delivered-To: sinton@wam-2.localdomain Received: by wam-2.localdomain (Postfix, from userid 1001) id A6C4A39538; Mon, 10 May 2021 01:44:01 -0400 (EDT) From: root@wam-2.localdomain (Cron Daemon) To: sinton@wam-2.localdomain Subject: Cron ~/symlinks/TEAM99/ogoakinitchka2.sh 99 0.05 > /dev/null MIME-Version: 1.0 Content-Type: text/plain; charset=UTF-8 Content-Transfer-Encoding: 8bit X-Cron-Env: X-Cron-Env: X-Cron-Env: X-Cron-Env: Message-Id: <20210510054401.A6C4A39538@wam-2.localdomain> Date: Mon, 10 May 2021 01:44:01 -0400 (EDT) /bin/sh: 1: /home/sinton/symlinks/TEAM99/ogoakinitchka2.sh: not found From sinton@wam-2.localdomain Mon May 10 01:44:01 2021 Return-Path: X-Original-To: sinton Delivered-To: sinton@wam-2.localdomain Received: by wam-2.localdomain (Postfix, from userid 1001) id BD51E39538; Mon, 10 May 2021 01:44:01 -0400 (EDT) From: root@wam-2.localdomain (Cron Daemon) To: sinton@wam-2.localdomain Subject: Cron ~/symlinks/TEAM1F/metin/apiv4.sh 1f > /dev/null MIME-Version: 1.0 Content-Type: text/plain; charset=UTF-8 Content-Transfer-Encoding: 8bit X-Cron-Env: X-Cron-Env: X-Cron-Env: X-Cron-Env: Message-Id: <20210510054401.BD51E39538@wam-2.localdomain> Date: Mon, 10 May 2021 01:44:01 -0400 (EDT) % Total % Received % Xferd Average Speed Time Time Time Current Dload Upload Total Spent Left Speed 0 0 0 0 0 0 0 0 --:--:-- --:--:-- --:--:-- 0 100 357 100 357 0 0 4407 0 --:--:-- --:--:-- --:--:-- 4407 From sinton@wam-2.localdomain Mon May 10 01:45:01 2021 Return-Path: X-Original-To: sinton Delivered-To: sinton@wam-2.localdomain Received: by wam-2.localdomain (Postfix, from userid 1001) id F184239531; Mon, 10 May 2021 01:45:01 -0400 (EDT) From: root@wam-2.localdomain (Cron Daemon) To: sinton@wam-2.localdomain Subject: Cron ~/symlinks/TEAM99/ogoakinitchka2.sh 99 0.05 > /dev/null MIME-Version: 1.0 Content-Type: text/plain; charset=UTF-8 Content-Transfer-Encoding: 8bit X-Cron-Env: X-Cron-Env: X-Cron-Env: X-Cron-Env: Message-Id: <20210510054501.F184239531@wam-2.localdomain> Date: Mon, 10 May 2021 01:45:01 -0400 (EDT) /bin/sh: 1: /home/sinton/symlinks/TEAM99/ogoakinitchka2.sh: not found From sinton@wam-2.localdomain Mon May 10 01:45:02 2021 Return-Path: X-Original-To: sinton Delivered-To: sinton@wam-2.localdomain Received: by wam-2.localdomain (Postfix, from userid 1001) id 0CB9539531; Mon, 10 May 2021 01:45:02 -0400 (EDT) From: root@wam-2.localdomain (Cron Daemon) To: sinton@wam-2.localdomain Subject: Cron ~/symlinks/TEAM1F/metin/apiv4.sh 1f > /dev/null MIME-Version: 1.0 Content-Type: text/plain; charset=UTF-8 Content-Transfer-Encoding: 8bit X-Cron-Env: X-Cron-Env: X-Cron-Env: X-Cron-Env: Message-Id: <20210510054502.0CB9539531@wam-2.localdomain> Date: Mon, 10 May 2021 01:45:02 -0400 (EDT) % Total % Received % Xferd Average Speed Time Time Time Current Dload Upload Total Spent Left Speed 0 0 0 0 0 0 0 0 --:--:-- --:--:-- --:--:-- 0 100 389 100 389 0 0 8276 0 --:--:-- --:--:-- --:--:-- 8276 From sinton@wam-2.localdomain Mon May 10 01:46:01 2021 Return-Path: X-Original-To: sinton Delivered-To: sinton@wam-2.localdomain Received: by wam-2.localdomain (Postfix, from userid 1001) id 509373953A; Mon, 10 May 2021 01:46:01 -0400 (EDT) From: root@wam-2.localdomain (Cron Daemon) To: sinton@wam-2.localdomain Subject: Cron ~/symlinks/TEAM99/ogoakinitchka2.sh 99 0.05 > /dev/null MIME-Version: 1.0 Content-Type: text/plain; charset=UTF-8 Content-Transfer-Encoding: 8bit X-Cron-Env: X-Cron-Env: X-Cron-Env: X-Cron-Env: Message-Id: <20210510054601.509373953A@wam-2.localdomain> Date: Mon, 10 May 2021 01:46:01 -0400 (EDT) /bin/sh: 1: /home/sinton/symlinks/TEAM99/ogoakinitchka2.sh: not found From sinton@wam-2.localdomain Mon May 10 01:46:01 2021 Return-Path: X-Original-To: sinton Delivered-To: sinton@wam-2.localdomain Received: by wam-2.localdomain (Postfix, from userid 1001) id 6905639538; Mon, 10 May 2021 01:46:01 -0400 (EDT) From: root@wam-2.localdomain (Cron Daemon) To: sinton@wam-2.localdomain Subject: Cron ~/symlinks/TEAM1F/metin/apiv4.sh 1f > /dev/null MIME-Version: 1.0 Content-Type: text/plain; charset=UTF-8 Content-Transfer-Encoding: 8bit X-Cron-Env: X-Cron-Env: X-Cron-Env: X-Cron-Env: Message-Id: <20210510054601.6905639538@wam-2.localdomain> Date: Mon, 10 May 2021 01:46:01 -0400 (EDT) % Total % Received % Xferd Average Speed Time Time Time Current Dload Upload Total Spent Left Speed 0 0 0 0 0 0 0 0 --:--:-- --:--:-- --:--:-- 0 100 391 100 391 0 0 3054 0 --:--:-- --:--:-- --:--:-- 3078 From sinton@wam-2.localdomain Mon May 10 01:47:02 2021 Return-Path: X-Original-To: sinton Delivered-To: sinton@wam-2.localdomain Received: by wam-2.localdomain (Postfix, from userid 1001) id 2770B38F8F; Mon, 10 May 2021 01:47:02 -0400 (EDT) From: root@wam-2.localdomain (Cron Daemon) To: sinton@wam-2.localdomain Subject: Cron ~/symlinks/TEAM99/ogoakinitchka2.sh 99 0.05 > /dev/null MIME-Version: 1.0 Content-Type: text/plain; charset=UTF-8 Content-Transfer-Encoding: 8bit X-Cron-Env: X-Cron-Env: X-Cron-Env: X-Cron-Env: Message-Id: <20210510054702.2770B38F8F@wam-2.localdomain> Date: Mon, 10 May 2021 01:47:02 -0400 (EDT) /bin/sh: 1: /home/sinton/symlinks/TEAM99/ogoakinitchka2.sh: not found From sinton@wam-2.localdomain Mon May 10 01:47:02 2021 Return-Path: X-Original-To: sinton Delivered-To: sinton@wam-2.localdomain Received: by wam-2.localdomain (Postfix, from userid 1001) id 37C7138F8F; Mon, 10 May 2021 01:47:02 -0400 (EDT) From: root@wam-2.localdomain (Cron Daemon) To: sinton@wam-2.localdomain Subject: Cron ~/symlinks/TEAM1F/metin/apiv4.sh 1f > /dev/null MIME-Version: 1.0 Content-Type: text/plain; charset=UTF-8 Content-Transfer-Encoding: 8bit X-Cron-Env: X-Cron-Env: X-Cron-Env: X-Cron-Env: Message-Id: <20210510054702.37C7138F8F@wam-2.localdomain> Date: Mon, 10 May 2021 01:47:02 -0400 (EDT) % Total % Received % Xferd Average Speed Time Time Time Current Dload Upload Total Spent Left Speed 0 0 0 0 0 0 0 0 --:--:-- --:--:-- --:--:-- 0 100 358 100 358 0 0 3808 0 --:--:-- --:--:-- --:--:-- 3808 From sinton@wam-2.localdomain Mon May 10 01:47:13 2021 Return-Path: X-Original-To: sinton Delivered-To: sinton@wam-2.localdomain Received: by wam-2.localdomain (Postfix, from userid 1001) id 6330038F8F; Mon, 10 May 2021 01:47:13 -0400 (EDT) From: root@wam-2.localdomain (Cron Daemon) To: sinton@wam-2.localdomain Subject: Cron bash -c "sleep $[RANDOM%14]m" ; ~/symlinks/TEAM8/fcst/startfcst.pl 8 > /dev/null MIME-Version: 1.0 Content-Type: text/plain; charset=UTF-8 Content-Transfer-Encoding: 8bit X-Cron-Env: X-Cron-Env: X-Cron-Env: X-Cron-Env: Message-Id: <20210510054713.6330038F8F@wam-2.localdomain> Date: Mon, 10 May 2021 01:47:13 -0400 (EDT) # CSV_XS ERROR: 2034 - EIF - Loose unescaped quote @ rec 0 pos 29 field 1 From sinton@wam-2.localdomain Mon May 10 01:48:01 2021 Return-Path: X-Original-To: sinton Delivered-To: sinton@wam-2.localdomain Received: by wam-2.localdomain (Postfix, from userid 1001) id 98D083952F; Mon, 10 May 2021 01:48:01 -0400 (EDT) From: root@wam-2.localdomain (Cron Daemon) To: sinton@wam-2.localdomain Subject: Cron ~/symlinks/TEAM99/ogoakinitchka2.sh 99 0.05 > /dev/null MIME-Version: 1.0 Content-Type: text/plain; charset=UTF-8 Content-Transfer-Encoding: 8bit X-Cron-Env: X-Cron-Env: X-Cron-Env: X-Cron-Env: Message-Id: <20210510054801.98D083952F@wam-2.localdomain> Date: Mon, 10 May 2021 01:48:01 -0400 (EDT) /bin/sh: 1: /home/sinton/symlinks/TEAM99/ogoakinitchka2.sh: not found From sinton@wam-2.localdomain Mon May 10 01:48:01 2021 Return-Path: X-Original-To: sinton Delivered-To: sinton@wam-2.localdomain Received: by wam-2.localdomain (Postfix, from userid 1001) id ADD863953A; Mon, 10 May 2021 01:48:01 -0400 (EDT) From: root@wam-2.localdomain (Cron Daemon) To: sinton@wam-2.localdomain Subject: Cron ~/symlinks/TEAM1F/metin/apiv4.sh 1f > /dev/null MIME-Version: 1.0 Content-Type: text/plain; charset=UTF-8 Content-Transfer-Encoding: 8bit X-Cron-Env: X-Cron-Env: X-Cron-Env: X-Cron-Env: Message-Id: <20210510054801.ADD863953A@wam-2.localdomain> Date: Mon, 10 May 2021 01:48:01 -0400 (EDT) % Total % Received % Xferd Average Speed Time Time Time Current Dload Upload Total Spent Left Speed 0 0 0 0 0 0 0 0 --:--:-- --:--:-- --:--:-- 0 100 357 100 357 0 0 4353 0 --:--:-- --:--:-- --:--:-- 4353 From sinton@wam-2.localdomain Mon May 10 01:49:01 2021 Return-Path: X-Original-To: sinton Delivered-To: sinton@wam-2.localdomain Received: by wam-2.localdomain (Postfix, from userid 1001) id DCA773954C; Mon, 10 May 2021 01:49:01 -0400 (EDT) From: root@wam-2.localdomain (Cron Daemon) To: sinton@wam-2.localdomain Subject: Cron ~/symlinks/TEAM99/ogoakinitchka2.sh 99 0.05 > /dev/null MIME-Version: 1.0 Content-Type: text/plain; charset=UTF-8 Content-Transfer-Encoding: 8bit X-Cron-Env: X-Cron-Env: X-Cron-Env: X-Cron-Env: Message-Id: <20210510054901.DCA773954C@wam-2.localdomain> Date: Mon, 10 May 2021 01:49:01 -0400 (EDT) /bin/sh: 1: /home/sinton/symlinks/TEAM99/ogoakinitchka2.sh: not found From sinton@wam-2.localdomain Mon May 10 01:49:02 2021 Return-Path: X-Original-To: sinton Delivered-To: sinton@wam-2.localdomain Received: by wam-2.localdomain (Postfix, from userid 1001) id F3CF73954C; Mon, 10 May 2021 01:49:01 -0400 (EDT) From: root@wam-2.localdomain (Cron Daemon) To: sinton@wam-2.localdomain Subject: Cron ~/symlinks/TEAM1F/metin/apiv4.sh 1f > /dev/null MIME-Version: 1.0 Content-Type: text/plain; charset=UTF-8 Content-Transfer-Encoding: 8bit X-Cron-Env: X-Cron-Env: X-Cron-Env: X-Cron-Env: Message-Id: <20210510054901.F3CF73954C@wam-2.localdomain> Date: Mon, 10 May 2021 01:49:01 -0400 (EDT) % Total % Received % Xferd Average Speed Time Time Time Current Dload Upload Total Spent Left Speed 0 0 0 0 0 0 0 0 --:--:-- --:--:-- --:--:-- 0 100 360 100 360 0 0 4864 0 --:--:-- --:--:-- --:--:-- 4864 From sinton@wam-2.localdomain Mon May 10 01:50:02 2021 Return-Path: X-Original-To: sinton Delivered-To: sinton@wam-2.localdomain Received: by wam-2.localdomain (Postfix, from userid 1001) id 354DF39558; Mon, 10 May 2021 01:50:02 -0400 (EDT) From: root@wam-2.localdomain (Cron Daemon) To: sinton@wam-2.localdomain Subject: Cron ~/symlinks/TEAM99/ogoakinitchka2.sh 99 0.05 > /dev/null MIME-Version: 1.0 Content-Type: text/plain; charset=UTF-8 Content-Transfer-Encoding: 8bit X-Cron-Env: X-Cron-Env: X-Cron-Env: X-Cron-Env: Message-Id: <20210510055002.354DF39558@wam-2.localdomain> Date: Mon, 10 May 2021 01:50:02 -0400 (EDT) /bin/sh: 1: /home/sinton/symlinks/TEAM99/ogoakinitchka2.sh: not found From sinton@wam-2.localdomain Mon May 10 01:50:02 2021 Return-Path: X-Original-To: sinton Delivered-To: sinton@wam-2.localdomain Received: by wam-2.localdomain (Postfix, from userid 1001) id 4A3BA39555; Mon, 10 May 2021 01:50:02 -0400 (EDT) From: root@wam-2.localdomain (Cron Daemon) To: sinton@wam-2.localdomain Subject: Cron ~/symlinks/TEAM1F/metin/apiv4.sh 1f > /dev/null MIME-Version: 1.0 Content-Type: text/plain; charset=UTF-8 Content-Transfer-Encoding: 8bit X-Cron-Env: X-Cron-Env: X-Cron-Env: X-Cron-Env: Message-Id: <20210510055002.4A3BA39555@wam-2.localdomain> Date: Mon, 10 May 2021 01:50:02 -0400 (EDT) % Total % Received % Xferd Average Speed Time Time Time Current Dload Upload Total Spent Left Speed 0 0 0 0 0 0 0 0 --:--:-- --:--:-- --:--:-- 0 100 392 100 392 0 0 5297 0 --:--:-- --:--:-- --:--:-- 5297 From sinton@wam-2.localdomain Mon May 10 01:50:15 2021 Return-Path: X-Original-To: sinton Delivered-To: sinton@wam-2.localdomain Received: by wam-2.localdomain (Postfix, from userid 1001) id EB16739556; Mon, 10 May 2021 01:50:15 -0400 (EDT) From: root@wam-2.localdomain (Cron Daemon) To: sinton@wam-2.localdomain Subject: Cron bash -c "sleep $[RANDOM%14]m" ; ~/symlinks/TEAM1/fcst/startfcst.pl 1 > /dev/null MIME-Version: 1.0 Content-Type: text/plain; charset=UTF-8 Content-Transfer-Encoding: 8bit X-Cron-Env: X-Cron-Env: X-Cron-Env: X-Cron-Env: Message-Id: <20210510055015.EB16739556@wam-2.localdomain> Date: Mon, 10 May 2021 01:50:15 -0400 (EDT) # CSV_XS ERROR: 2034 - EIF - Loose unescaped quote @ rec 0 pos 29 field 1 From sinton@wam-2.localdomain Mon May 10 01:51:02 2021 Return-Path: X-Original-To: sinton Delivered-To: sinton@wam-2.localdomain Received: by wam-2.localdomain (Postfix, from userid 1001) id 3E8B8380C4; Mon, 10 May 2021 01:51:02 -0400 (EDT) From: root@wam-2.localdomain (Cron Daemon) To: sinton@wam-2.localdomain Subject: Cron ~/symlinks/TEAM99/ogoakinitchka2.sh 99 0.05 > /dev/null MIME-Version: 1.0 Content-Type: text/plain; charset=UTF-8 Content-Transfer-Encoding: 8bit X-Cron-Env: X-Cron-Env: X-Cron-Env: X-Cron-Env: Message-Id: <20210510055102.3E8B8380C4@wam-2.localdomain> Date: Mon, 10 May 2021 01:51:02 -0400 (EDT) /bin/sh: 1: /home/sinton/symlinks/TEAM99/ogoakinitchka2.sh: not found From sinton@wam-2.localdomain Mon May 10 01:51:02 2021 Return-Path: X-Original-To: sinton Delivered-To: sinton@wam-2.localdomain Received: by wam-2.localdomain (Postfix, from userid 1001) id 4FE883954E; Mon, 10 May 2021 01:51:02 -0400 (EDT) From: root@wam-2.localdomain (Cron Daemon) To: sinton@wam-2.localdomain Subject: Cron ~/symlinks/TEAM1F/metin/apiv4.sh 1f > /dev/null MIME-Version: 1.0 Content-Type: text/plain; charset=UTF-8 Content-Transfer-Encoding: 8bit X-Cron-Env: X-Cron-Env: X-Cron-Env: X-Cron-Env: Message-Id: <20210510055102.4FE883954E@wam-2.localdomain> Date: Mon, 10 May 2021 01:51:02 -0400 (EDT) % Total % Received % Xferd Average Speed Time Time Time Current Dload Upload Total Spent Left Speed 0 0 0 0 0 0 0 0 --:--:-- --:--:-- --:--:-- 0 100 392 100 392 0 0 6030 0 --:--:-- --:--:-- --:--:-- 6030 From sinton@wam-2.localdomain Mon May 10 01:52:01 2021 Return-Path: X-Original-To: sinton Delivered-To: sinton@wam-2.localdomain Received: by wam-2.localdomain (Postfix, from userid 1001) id 8716139556; Mon, 10 May 2021 01:52:01 -0400 (EDT) From: root@wam-2.localdomain (Cron Daemon) To: sinton@wam-2.localdomain Subject: Cron ~/symlinks/TEAM99/ogoakinitchka2.sh 99 0.05 > /dev/null MIME-Version: 1.0 Content-Type: text/plain; charset=UTF-8 Content-Transfer-Encoding: 8bit X-Cron-Env: X-Cron-Env: X-Cron-Env: X-Cron-Env: Message-Id: <20210510055201.8716139556@wam-2.localdomain> Date: Mon, 10 May 2021 01:52:01 -0400 (EDT) /bin/sh: 1: /home/sinton/symlinks/TEAM99/ogoakinitchka2.sh: not found From sinton@wam-2.localdomain Mon May 10 01:52:01 2021 Return-Path: X-Original-To: sinton Delivered-To: sinton@wam-2.localdomain Received: by wam-2.localdomain (Postfix, from userid 1001) id 9836839556; Mon, 10 May 2021 01:52:01 -0400 (EDT) From: root@wam-2.localdomain (Cron Daemon) To: sinton@wam-2.localdomain Subject: Cron ~/symlinks/TEAM1F/metin/apiv4.sh 1f > /dev/null MIME-Version: 1.0 Content-Type: text/plain; charset=UTF-8 Content-Transfer-Encoding: 8bit X-Cron-Env: X-Cron-Env: X-Cron-Env: X-Cron-Env: Message-Id: <20210510055201.9836839556@wam-2.localdomain> Date: Mon, 10 May 2021 01:52:01 -0400 (EDT) % Total % Received % Xferd Average Speed Time Time Time Current Dload Upload Total Spent Left Speed 0 0 0 0 0 0 0 0 --:--:-- --:--:-- --:--:-- 0 100 391 100 391 0 0 4443 0 --:--:-- --:--:-- --:--:-- 4443 From sinton@wam-2.localdomain Mon May 10 01:53:01 2021 Return-Path: X-Original-To: sinton Delivered-To: sinton@wam-2.localdomain Received: by wam-2.localdomain (Postfix, from userid 1001) id 47A033954E; Mon, 10 May 2021 01:53:01 -0400 (EDT) From: root@wam-2.localdomain (Cron Daemon) To: sinton@wam-2.localdomain Subject: Cron ~/symlinks/TEAM99/ogoakinitchka2.sh 99 0.05 > /dev/null MIME-Version: 1.0 Content-Type: text/plain; charset=UTF-8 Content-Transfer-Encoding: 8bit X-Cron-Env: X-Cron-Env: X-Cron-Env: X-Cron-Env: Message-Id: <20210510055301.47A033954E@wam-2.localdomain> Date: Mon, 10 May 2021 01:53:01 -0400 (EDT) /bin/sh: 1: /home/sinton/symlinks/TEAM99/ogoakinitchka2.sh: not found From sinton@wam-2.localdomain Mon May 10 01:53:01 2021 Return-Path: X-Original-To: sinton Delivered-To: sinton@wam-2.localdomain Received: by wam-2.localdomain (Postfix, from userid 1001) id 5BFF53954E; Mon, 10 May 2021 01:53:01 -0400 (EDT) From: root@wam-2.localdomain (Cron Daemon) To: sinton@wam-2.localdomain Subject: Cron ~/symlinks/TEAM1F/metin/apiv4.sh 1f > /dev/null MIME-Version: 1.0 Content-Type: text/plain; charset=UTF-8 Content-Transfer-Encoding: 8bit X-Cron-Env: X-Cron-Env: X-Cron-Env: X-Cron-Env: Message-Id: <20210510055301.5BFF53954E@wam-2.localdomain> Date: Mon, 10 May 2021 01:53:01 -0400 (EDT) % Total % Received % Xferd Average Speed Time Time Time Current Dload Upload Total Spent Left Speed 0 0 0 0 0 0 0 0 --:--:-- --:--:-- --:--:-- 0 100 392 100 392 0 0 6877 0 --:--:-- --:--:-- --:--:-- 6877 From sinton@wam-2.localdomain Mon May 10 01:54:01 2021 Return-Path: X-Original-To: sinton Delivered-To: sinton@wam-2.localdomain Received: by wam-2.localdomain (Postfix, from userid 1001) id 4FDDC39215; Mon, 10 May 2021 01:54:01 -0400 (EDT) From: root@wam-2.localdomain (Cron Daemon) To: sinton@wam-2.localdomain Subject: Cron ~/symlinks/TEAM99/ogoakinitchka2.sh 99 0.05 > /dev/null MIME-Version: 1.0 Content-Type: text/plain; charset=UTF-8 Content-Transfer-Encoding: 8bit X-Cron-Env: X-Cron-Env: X-Cron-Env: X-Cron-Env: Message-Id: <20210510055401.4FDDC39215@wam-2.localdomain> Date: Mon, 10 May 2021 01:54:01 -0400 (EDT) /bin/sh: 1: /home/sinton/symlinks/TEAM99/ogoakinitchka2.sh: not found From sinton@wam-2.localdomain Mon May 10 01:54:01 2021 Return-Path: X-Original-To: sinton Delivered-To: sinton@wam-2.localdomain Received: by wam-2.localdomain (Postfix, from userid 1001) id 5FF0039560; Mon, 10 May 2021 01:54:01 -0400 (EDT) From: root@wam-2.localdomain (Cron Daemon) To: sinton@wam-2.localdomain Subject: Cron ~/symlinks/TEAM1F/metin/apiv4.sh 1f > /dev/null MIME-Version: 1.0 Content-Type: text/plain; charset=UTF-8 Content-Transfer-Encoding: 8bit X-Cron-Env: X-Cron-Env: X-Cron-Env: X-Cron-Env: Message-Id: <20210510055401.5FF0039560@wam-2.localdomain> Date: Mon, 10 May 2021 01:54:01 -0400 (EDT) % Total % Received % Xferd Average Speed Time Time Time Current Dload Upload Total Spent Left Speed 0 0 0 0 0 0 0 0 --:--:-- --:--:-- --:--:-- 0 100 391 100 391 0 0 5213 0 --:--:-- --:--:-- --:--:-- 5283 From sinton@wam-2.localdomain Mon May 10 01:55:01 2021 Return-Path: X-Original-To: sinton Delivered-To: sinton@wam-2.localdomain Received: by wam-2.localdomain (Postfix, from userid 1001) id 9262039551; Mon, 10 May 2021 01:55:01 -0400 (EDT) From: root@wam-2.localdomain (Cron Daemon) To: sinton@wam-2.localdomain Subject: Cron ~/symlinks/TEAM99/ogoakinitchka2.sh 99 0.05 > /dev/null MIME-Version: 1.0 Content-Type: text/plain; charset=UTF-8 Content-Transfer-Encoding: 8bit X-Cron-Env: X-Cron-Env: X-Cron-Env: X-Cron-Env: Message-Id: <20210510055501.9262039551@wam-2.localdomain> Date: Mon, 10 May 2021 01:55:01 -0400 (EDT) /bin/sh: 1: /home/sinton/symlinks/TEAM99/ogoakinitchka2.sh: not found From sinton@wam-2.localdomain Mon May 10 01:55:01 2021 Return-Path: X-Original-To: sinton Delivered-To: sinton@wam-2.localdomain Received: by wam-2.localdomain (Postfix, from userid 1001) id A377739551; Mon, 10 May 2021 01:55:01 -0400 (EDT) From: root@wam-2.localdomain (Cron Daemon) To: sinton@wam-2.localdomain Subject: Cron ~/symlinks/TEAM1F/metin/apiv4.sh 1f > /dev/null MIME-Version: 1.0 Content-Type: text/plain; charset=UTF-8 Content-Transfer-Encoding: 8bit X-Cron-Env: X-Cron-Env: X-Cron-Env: X-Cron-Env: Message-Id: <20210510055501.A377739551@wam-2.localdomain> Date: Mon, 10 May 2021 01:55:01 -0400 (EDT) % Total % Received % Xferd Average Speed Time Time Time Current Dload Upload Total Spent Left Speed 0 0 0 0 0 0 0 0 --:--:-- --:--:-- --:--:-- 0 100 360 100 360 0 0 5625 0 --:--:-- --:--:-- --:--:-- 5625 From sinton@wam-2.localdomain Mon May 10 01:56:01 2021 Return-Path: X-Original-To: sinton Delivered-To: sinton@wam-2.localdomain Received: by wam-2.localdomain (Postfix, from userid 1001) id EA3B2393FF; Mon, 10 May 2021 01:56:01 -0400 (EDT) From: root@wam-2.localdomain (Cron Daemon) To: sinton@wam-2.localdomain Subject: Cron ~/symlinks/TEAM99/ogoakinitchka2.sh 99 0.05 > /dev/null MIME-Version: 1.0 Content-Type: text/plain; charset=UTF-8 Content-Transfer-Encoding: 8bit X-Cron-Env: X-Cron-Env: X-Cron-Env: X-Cron-Env: Message-Id: <20210510055601.EA3B2393FF@wam-2.localdomain> Date: Mon, 10 May 2021 01:56:01 -0400 (EDT) /bin/sh: 1: /home/sinton/symlinks/TEAM99/ogoakinitchka2.sh: not found From sinton@wam-2.localdomain Mon May 10 01:56:02 2021 Return-Path: X-Original-To: sinton Delivered-To: sinton@wam-2.localdomain Received: by wam-2.localdomain (Postfix, from userid 1001) id A2B963954E; Mon, 10 May 2021 01:56:02 -0400 (EDT) From: root@wam-2.localdomain (Cron Daemon) To: sinton@wam-2.localdomain Subject: Cron ~/symlinks/TEAM1F/metin/apiv4.sh 1f > /dev/null MIME-Version: 1.0 Content-Type: text/plain; charset=UTF-8 Content-Transfer-Encoding: 8bit X-Cron-Env: X-Cron-Env: X-Cron-Env: X-Cron-Env: Message-Id: <20210510055602.A2B963954E@wam-2.localdomain> Date: Mon, 10 May 2021 01:56:02 -0400 (EDT) % Total % Received % Xferd Average Speed Time Time Time Current Dload Upload Total Spent Left Speed 0 0 0 0 0 0 0 0 --:--:-- --:--:-- --:--:-- 0 100 360 100 360 0 0 527 0 --:--:-- --:--:-- --:--:-- 527 From sinton@wam-2.localdomain Mon May 10 01:57:01 2021 Return-Path: X-Original-To: sinton Delivered-To: sinton@wam-2.localdomain Received: by wam-2.localdomain (Postfix, from userid 1001) id CF04639558; Mon, 10 May 2021 01:57:01 -0400 (EDT) From: root@wam-2.localdomain (Cron Daemon) To: sinton@wam-2.localdomain Subject: Cron ~/symlinks/TEAM99/ogoakinitchka2.sh 99 0.05 > /dev/null MIME-Version: 1.0 Content-Type: text/plain; charset=UTF-8 Content-Transfer-Encoding: 8bit X-Cron-Env: X-Cron-Env: X-Cron-Env: X-Cron-Env: Message-Id: <20210510055701.CF04639558@wam-2.localdomain> Date: Mon, 10 May 2021 01:57:01 -0400 (EDT) /bin/sh: 1: /home/sinton/symlinks/TEAM99/ogoakinitchka2.sh: not found From sinton@wam-2.localdomain Mon May 10 01:57:01 2021 Return-Path: X-Original-To: sinton Delivered-To: sinton@wam-2.localdomain Received: by wam-2.localdomain (Postfix, from userid 1001) id E466639558; Mon, 10 May 2021 01:57:01 -0400 (EDT) From: root@wam-2.localdomain (Cron Daemon) To: sinton@wam-2.localdomain Subject: Cron ~/symlinks/TEAM1F/metin/apiv4.sh 1f > /dev/null MIME-Version: 1.0 Content-Type: text/plain; charset=UTF-8 Content-Transfer-Encoding: 8bit X-Cron-Env: X-Cron-Env: X-Cron-Env: X-Cron-Env: Message-Id: <20210510055701.E466639558@wam-2.localdomain> Date: Mon, 10 May 2021 01:57:01 -0400 (EDT) % Total % Received % Xferd Average Speed Time Time Time Current Dload Upload Total Spent Left Speed 0 0 0 0 0 0 0 0 --:--:-- --:--:-- --:--:-- 0 0 0 0 0 0 0 0 0 --:--:-- --:--:-- --:--:-- 0 100 387 100 387 0 0 7036 0 --:--:-- --:--:-- --:--:-- 6910 From sinton@wam-2.localdomain Mon May 10 01:58:01 2021 Return-Path: X-Original-To: sinton Delivered-To: sinton@wam-2.localdomain Received: by wam-2.localdomain (Postfix, from userid 1001) id 4453B3955A; Mon, 10 May 2021 01:58:01 -0400 (EDT) From: root@wam-2.localdomain (Cron Daemon) To: sinton@wam-2.localdomain Subject: Cron ~/symlinks/TEAM99/ogoakinitchka2.sh 99 0.05 > /dev/null MIME-Version: 1.0 Content-Type: text/plain; charset=UTF-8 Content-Transfer-Encoding: 8bit X-Cron-Env: X-Cron-Env: X-Cron-Env: X-Cron-Env: Message-Id: <20210510055801.4453B3955A@wam-2.localdomain> Date: Mon, 10 May 2021 01:58:01 -0400 (EDT) /bin/sh: 1: /home/sinton/symlinks/TEAM99/ogoakinitchka2.sh: not found From sinton@wam-2.localdomain Mon May 10 01:58:01 2021 Return-Path: X-Original-To: sinton Delivered-To: sinton@wam-2.localdomain Received: by wam-2.localdomain (Postfix, from userid 1001) id 64D5A3955A; Mon, 10 May 2021 01:58:01 -0400 (EDT) From: root@wam-2.localdomain (Cron Daemon) To: sinton@wam-2.localdomain Subject: Cron ~/symlinks/TEAM1F/metin/apiv4.sh 1f > /dev/null MIME-Version: 1.0 Content-Type: text/plain; charset=UTF-8 Content-Transfer-Encoding: 8bit X-Cron-Env: X-Cron-Env: X-Cron-Env: X-Cron-Env: Message-Id: <20210510055801.64D5A3955A@wam-2.localdomain> Date: Mon, 10 May 2021 01:58:01 -0400 (EDT) % Total % Received % Xferd Average Speed Time Time Time Current Dload Upload Total Spent Left Speed 0 0 0 0 0 0 0 0 --:--:-- --:--:-- --:--:-- 0 100 386 100 386 0 0 3088 0 --:--:-- --:--:-- --:--:-- 3088 From sinton@wam-2.localdomain Mon May 10 01:59:01 2021 Return-Path: X-Original-To: sinton Delivered-To: sinton@wam-2.localdomain Received: by wam-2.localdomain (Postfix, from userid 1001) id 971C639562; Mon, 10 May 2021 01:59:01 -0400 (EDT) From: root@wam-2.localdomain (Cron Daemon) To: sinton@wam-2.localdomain Subject: Cron ~/symlinks/TEAM99/ogoakinitchka2.sh 99 0.05 > /dev/null MIME-Version: 1.0 Content-Type: text/plain; charset=UTF-8 Content-Transfer-Encoding: 8bit X-Cron-Env: X-Cron-Env: X-Cron-Env: X-Cron-Env: Message-Id: <20210510055901.971C639562@wam-2.localdomain> Date: Mon, 10 May 2021 01:59:01 -0400 (EDT) /bin/sh: 1: /home/sinton/symlinks/TEAM99/ogoakinitchka2.sh: not found From sinton@wam-2.localdomain Mon May 10 01:59:01 2021 Return-Path: X-Original-To: sinton Delivered-To: sinton@wam-2.localdomain Received: by wam-2.localdomain (Postfix, from userid 1001) id A94AB39562; Mon, 10 May 2021 01:59:01 -0400 (EDT) From: root@wam-2.localdomain (Cron Daemon) To: sinton@wam-2.localdomain Subject: Cron ~/symlinks/TEAM1F/metin/apiv4.sh 1f > /dev/null MIME-Version: 1.0 Content-Type: text/plain; charset=UTF-8 Content-Transfer-Encoding: 8bit X-Cron-Env: X-Cron-Env: X-Cron-Env: X-Cron-Env: Message-Id: <20210510055901.A94AB39562@wam-2.localdomain> Date: Mon, 10 May 2021 01:59:01 -0400 (EDT) % Total % Received % Xferd Average Speed Time Time Time Current Dload Upload Total Spent Left Speed 0 0 0 0 0 0 0 0 --:--:-- --:--:-- --:--:-- 0 100 387 100 387 0 0 4161 0 --:--:-- --:--:-- --:--:-- 4161 From sinton@wam-2.localdomain Mon May 10 02:00:01 2021 Return-Path: X-Original-To: sinton Delivered-To: sinton@wam-2.localdomain Received: by wam-2.localdomain (Postfix, from userid 1001) id F0DE03955A; Mon, 10 May 2021 02:00:01 -0400 (EDT) From: root@wam-2.localdomain (Cron Daemon) To: sinton@wam-2.localdomain Subject: Cron ~/symlinks/TEAM99/ogoakinitchka2.sh 99 0.05 > /dev/null MIME-Version: 1.0 Content-Type: text/plain; charset=UTF-8 Content-Transfer-Encoding: 8bit X-Cron-Env: X-Cron-Env: X-Cron-Env: X-Cron-Env: Message-Id: <20210510060001.F0DE03955A@wam-2.localdomain> Date: Mon, 10 May 2021 02:00:01 -0400 (EDT) /bin/sh: 1: /home/sinton/symlinks/TEAM99/ogoakinitchka2.sh: not found From sinton@wam-2.localdomain Mon May 10 02:00:02 2021 Return-Path: X-Original-To: sinton Delivered-To: sinton@wam-2.localdomain Received: by wam-2.localdomain (Postfix, from userid 1001) id 1371B39571; Mon, 10 May 2021 02:00:02 -0400 (EDT) From: root@wam-2.localdomain (Cron Daemon) To: sinton@wam-2.localdomain Subject: Cron ~/symlinks/TEAM1G/oakgameday.pl 1g > /dev/null MIME-Version: 1.0 Content-Type: text/plain; charset=UTF-8 Content-Transfer-Encoding: 8bit X-Cron-Env: X-Cron-Env: X-Cron-Env: X-Cron-Env: Message-Id: <20210510060002.1371B39571@wam-2.localdomain> Date: Mon, 10 May 2021 02:00:02 -0400 (EDT) cp: cannot stat '/home/sinton/sjsu1g/output/dumfinaldtd.txt': No such file or directory cp: cannot stat '/home/sinton/sjsu1g/output/dumfinaldtd.txt': No such file or directory cp: cannot stat '/home/sinton/sjsu1g/output/dumfinaldtd.txt': No such file or directory From sinton@wam-2.localdomain Mon May 10 02:00:02 2021 Return-Path: X-Original-To: sinton Delivered-To: sinton@wam-2.localdomain Received: by wam-2.localdomain (Postfix, from userid 1001) id 147D839552; Mon, 10 May 2021 02:00:02 -0400 (EDT) From: root@wam-2.localdomain (Cron Daemon) To: sinton@wam-2.localdomain Subject: Cron ~/symlinks/TEAM1F/metin/apiv4.sh 1f > /dev/null MIME-Version: 1.0 Content-Type: text/plain; charset=UTF-8 Content-Transfer-Encoding: 8bit X-Cron-Env: X-Cron-Env: X-Cron-Env: X-Cron-Env: Message-Id: <20210510060002.147D839552@wam-2.localdomain> Date: Mon, 10 May 2021 02:00:02 -0400 (EDT) % Total % Received % Xferd Average Speed Time Time Time Current Dload Upload Total Spent Left Speed 0 0 0 0 0 0 0 0 --:--:-- --:--:-- --:--:-- 0 100 387 100 387 0 0 2529 0 --:--:-- --:--:-- --:--:-- 2529 From sinton@wam-2.localdomain Mon May 10 02:01:01 2021 Return-Path: X-Original-To: sinton Delivered-To: sinton@wam-2.localdomain Received: by wam-2.localdomain (Postfix, from userid 1001) id 593C039562; Mon, 10 May 2021 02:01:01 -0400 (EDT) From: root@wam-2.localdomain (Cron Daemon) To: sinton@wam-2.localdomain Subject: Cron ~/symlinks/TEAM99/ogoakinitchka2.sh 99 0.05 > /dev/null MIME-Version: 1.0 Content-Type: text/plain; charset=UTF-8 Content-Transfer-Encoding: 8bit X-Cron-Env: X-Cron-Env: X-Cron-Env: X-Cron-Env: Message-Id: <20210510060101.593C039562@wam-2.localdomain> Date: Mon, 10 May 2021 02:01:01 -0400 (EDT) /bin/sh: 1: /home/sinton/symlinks/TEAM99/ogoakinitchka2.sh: not found From sinton@wam-2.localdomain Mon May 10 02:01:01 2021 Return-Path: X-Original-To: sinton Delivered-To: sinton@wam-2.localdomain Received: by wam-2.localdomain (Postfix, from userid 1001) id 781BA39562; Mon, 10 May 2021 02:01:01 -0400 (EDT) From: root@wam-2.localdomain (Cron Daemon) To: sinton@wam-2.localdomain Subject: Cron ~/symlinks/TEAM1F/metin/apiv4.sh 1f > /dev/null MIME-Version: 1.0 Content-Type: text/plain; charset=UTF-8 Content-Transfer-Encoding: 8bit X-Cron-Env: X-Cron-Env: X-Cron-Env: X-Cron-Env: Message-Id: <20210510060101.781BA39562@wam-2.localdomain> Date: Mon, 10 May 2021 02:01:01 -0400 (EDT) % Total % Received % Xferd Average Speed Time Time Time Current Dload Upload Total Spent Left Speed 0 0 0 0 0 0 0 0 --:--:-- --:--:-- --:--:-- 0 100 360 100 360 0 0 5901 0 --:--:-- --:--:-- --:--:-- 5901 From sinton@wam-2.localdomain Mon May 10 02:01:19 2021 Return-Path: X-Original-To: sinton Delivered-To: sinton@wam-2.localdomain Received: by wam-2.localdomain (Postfix, from userid 1001) id 65EC039562; Mon, 10 May 2021 02:01:19 -0400 (EDT) From: root@wam-2.localdomain (Cron Daemon) To: sinton@wam-2.localdomain Subject: Cron bash -c "sleep $[RANDOM%30]m" ; ~/symlinks/TEAM1/fcst/startfcstclim.sh 1 > /dev/null MIME-Version: 1.0 Content-Type: text/plain; charset=UTF-8 Content-Transfer-Encoding: 8bit X-Cron-Env: X-Cron-Env: X-Cron-Env: X-Cron-Env: Message-Id: <20210510060119.65EC039562@wam-2.localdomain> Date: Mon, 10 May 2021 02:01:19 -0400 (EDT) % Total % Received % Xferd Average Speed Time Time Time Current Dload Upload Total Spent Left Speed 0 0 0 0 0 0 0 0 --:--:-- --:--:-- --:--:-- 0 0 0 0 0 0 0 0 0 --:--:-- 0:00:01 --:--:-- 0 0 0 0 0 0 0 0 0 --:--:-- 0:00:02 --:--:-- 0 0 0 0 0 0 0 0 0 --:--:-- 0:00:03 --:--:-- 0 0 0 0 0 0 0 0 0 --:--:-- 0:00:04 --:--:-- 0 100 41764 100 41764 0 0 9174 0 0:00:04 0:00:04 --:--:-- 9174 From sinton@wam-2.localdomain Mon May 10 02:02:01 2021 Return-Path: X-Original-To: sinton Delivered-To: sinton@wam-2.localdomain Received: by wam-2.localdomain (Postfix, from userid 1001) id 994C039571; Mon, 10 May 2021 02:02:01 -0400 (EDT) From: root@wam-2.localdomain (Cron Daemon) To: sinton@wam-2.localdomain Subject: Cron ~/symlinks/TEAM99/ogoakinitchka2.sh 99 0.05 > /dev/null MIME-Version: 1.0 Content-Type: text/plain; charset=UTF-8 Content-Transfer-Encoding: 8bit X-Cron-Env: X-Cron-Env: X-Cron-Env: X-Cron-Env: Message-Id: <20210510060201.994C039571@wam-2.localdomain> Date: Mon, 10 May 2021 02:02:01 -0400 (EDT) /bin/sh: 1: /home/sinton/symlinks/TEAM99/ogoakinitchka2.sh: not found From sinton@wam-2.localdomain Mon May 10 02:02:01 2021 Return-Path: X-Original-To: sinton Delivered-To: sinton@wam-2.localdomain Received: by wam-2.localdomain (Postfix, from userid 1001) id B154539571; Mon, 10 May 2021 02:02:01 -0400 (EDT) From: root@wam-2.localdomain (Cron Daemon) To: sinton@wam-2.localdomain Subject: Cron ~/symlinks/TEAM1F/metin/apiv4.sh 1f > /dev/null MIME-Version: 1.0 Content-Type: text/plain; charset=UTF-8 Content-Transfer-Encoding: 8bit X-Cron-Env: X-Cron-Env: X-Cron-Env: X-Cron-Env: Message-Id: <20210510060201.B154539571@wam-2.localdomain> Date: Mon, 10 May 2021 02:02:01 -0400 (EDT) % Total % Received % Xferd Average Speed Time Time Time Current Dload Upload Total Spent Left Speed 0 0 0 0 0 0 0 0 --:--:-- --:--:-- --:--:-- 0 100 359 100 359 0 0 4986 0 --:--:-- --:--:-- --:--:-- 4986 From sinton@wam-2.localdomain Mon May 10 02:03:01 2021 Return-Path: X-Original-To: sinton Delivered-To: sinton@wam-2.localdomain Received: by wam-2.localdomain (Postfix, from userid 1001) id E999239579; Mon, 10 May 2021 02:03:01 -0400 (EDT) From: root@wam-2.localdomain (Cron Daemon) To: sinton@wam-2.localdomain Subject: Cron ~/symlinks/TEAM99/ogoakinitchka2.sh 99 0.05 > /dev/null MIME-Version: 1.0 Content-Type: text/plain; charset=UTF-8 Content-Transfer-Encoding: 8bit X-Cron-Env: X-Cron-Env: X-Cron-Env: X-Cron-Env: Message-Id: <20210510060301.E999239579@wam-2.localdomain> Date: Mon, 10 May 2021 02:03:01 -0400 (EDT) /bin/sh: 1: /home/sinton/symlinks/TEAM99/ogoakinitchka2.sh: not found From sinton@wam-2.localdomain Mon May 10 02:03:02 2021 Return-Path: X-Original-To: sinton Delivered-To: sinton@wam-2.localdomain Received: by wam-2.localdomain (Postfix, from userid 1001) id 0E09B39579; Mon, 10 May 2021 02:03:02 -0400 (EDT) From: root@wam-2.localdomain (Cron Daemon) To: sinton@wam-2.localdomain Subject: Cron ~/symlinks/TEAM1F/metin/apiv4.sh 1f > /dev/null MIME-Version: 1.0 Content-Type: text/plain; charset=UTF-8 Content-Transfer-Encoding: 8bit X-Cron-Env: X-Cron-Env: X-Cron-Env: X-Cron-Env: Message-Id: <20210510060302.0E09B39579@wam-2.localdomain> Date: Mon, 10 May 2021 02:03:02 -0400 (EDT) % Total % Received % Xferd Average Speed Time Time Time Current Dload Upload Total Spent Left Speed 0 0 0 0 0 0 0 0 --:--:-- --:--:-- --:--:-- 0 100 359 100 359 0 0 4544 0 --:--:-- --:--:-- --:--:-- 4544 From sinton@wam-2.localdomain Mon May 10 02:04:01 2021 Return-Path: X-Original-To: sinton Delivered-To: sinton@wam-2.localdomain Received: by wam-2.localdomain (Postfix, from userid 1001) id 407333958D; Mon, 10 May 2021 02:04:01 -0400 (EDT) From: root@wam-2.localdomain (Cron Daemon) To: sinton@wam-2.localdomain Subject: Cron ~/symlinks/TEAM99/ogoakinitchka2.sh 99 0.05 > /dev/null MIME-Version: 1.0 Content-Type: text/plain; charset=UTF-8 Content-Transfer-Encoding: 8bit X-Cron-Env: X-Cron-Env: X-Cron-Env: X-Cron-Env: Message-Id: <20210510060401.407333958D@wam-2.localdomain> Date: Mon, 10 May 2021 02:04:01 -0400 (EDT) /bin/sh: 1: /home/sinton/symlinks/TEAM99/ogoakinitchka2.sh: not found From sinton@wam-2.localdomain Mon May 10 02:04:01 2021 Return-Path: X-Original-To: sinton Delivered-To: sinton@wam-2.localdomain Received: by wam-2.localdomain (Postfix, from userid 1001) id 5736939575; Mon, 10 May 2021 02:04:01 -0400 (EDT) From: root@wam-2.localdomain (Cron Daemon) To: sinton@wam-2.localdomain Subject: Cron ~/symlinks/TEAM1F/metin/apiv4.sh 1f > /dev/null MIME-Version: 1.0 Content-Type: text/plain; charset=UTF-8 Content-Transfer-Encoding: 8bit X-Cron-Env: X-Cron-Env: X-Cron-Env: X-Cron-Env: Message-Id: <20210510060401.5736939575@wam-2.localdomain> Date: Mon, 10 May 2021 02:04:01 -0400 (EDT) % Total % Received % Xferd Average Speed Time Time Time Current Dload Upload Total Spent Left Speed 0 0 0 0 0 0 0 0 --:--:-- --:--:-- --:--:-- 0 100 360 100 360 0 0 5714 0 --:--:-- --:--:-- --:--:-- 5714 From sinton@wam-2.localdomain Mon May 10 02:05:01 2021 Return-Path: X-Original-To: sinton Delivered-To: sinton@wam-2.localdomain Received: by wam-2.localdomain (Postfix, from userid 1001) id 913583957B; Mon, 10 May 2021 02:05:01 -0400 (EDT) From: root@wam-2.localdomain (Cron Daemon) To: sinton@wam-2.localdomain Subject: Cron ~/symlinks/TEAM99/ogoakinitchka2.sh 99 0.05 > /dev/null MIME-Version: 1.0 Content-Type: text/plain; charset=UTF-8 Content-Transfer-Encoding: 8bit X-Cron-Env: X-Cron-Env: X-Cron-Env: X-Cron-Env: Message-Id: <20210510060501.913583957B@wam-2.localdomain> Date: Mon, 10 May 2021 02:05:01 -0400 (EDT) /bin/sh: 1: /home/sinton/symlinks/TEAM99/ogoakinitchka2.sh: not found From sinton@wam-2.localdomain Mon May 10 02:05:01 2021 Return-Path: X-Original-To: sinton Delivered-To: sinton@wam-2.localdomain Received: by wam-2.localdomain (Postfix, from userid 1001) id A88D63957B; Mon, 10 May 2021 02:05:01 -0400 (EDT) From: root@wam-2.localdomain (Cron Daemon) To: sinton@wam-2.localdomain Subject: Cron ~/symlinks/TEAM1F/metin/apiv4.sh 1f > /dev/null MIME-Version: 1.0 Content-Type: text/plain; charset=UTF-8 Content-Transfer-Encoding: 8bit X-Cron-Env: X-Cron-Env: X-Cron-Env: X-Cron-Env: Message-Id: <20210510060501.A88D63957B@wam-2.localdomain> Date: Mon, 10 May 2021 02:05:01 -0400 (EDT) % Total % Received % Xferd Average Speed Time Time Time Current Dload Upload Total Spent Left Speed 0 0 0 0 0 0 0 0 --:--:-- --:--:-- --:--:-- 0 100 387 100 387 0 0 5025 0 --:--:-- --:--:-- --:--:-- 5025 From sinton@wam-2.localdomain Mon May 10 02:05:24 2021 Return-Path: X-Original-To: sinton Delivered-To: sinton@wam-2.localdomain Received: by wam-2.localdomain (Postfix, from userid 1001) id 2FD9839585; Mon, 10 May 2021 02:05:24 -0400 (EDT) From: root@wam-2.localdomain (Cron Daemon) To: sinton@wam-2.localdomain Subject: Cron bash -c "sleep $[RANDOM%30]m" ; ~/symlinks/TEAM2/fcst/startfcstclim.sh 2 > /dev/null MIME-Version: 1.0 Content-Type: text/plain; charset=UTF-8 Content-Transfer-Encoding: 8bit X-Cron-Env: X-Cron-Env: X-Cron-Env: X-Cron-Env: Message-Id: <20210510060524.2FD9839585@wam-2.localdomain> Date: Mon, 10 May 2021 02:05:24 -0400 (EDT) % Total % Received % Xferd Average Speed Time Time Time Current Dload Upload Total Spent Left Speed 0 0 0 0 0 0 0 0 --:--:-- --:--:-- --:--:-- 0 100 41803 100 41803 0 0 208k 0 --:--:-- --:--:-- --:--:-- 208k From sinton@wam-2.localdomain Mon May 10 02:06:01 2021 Return-Path: X-Original-To: sinton Delivered-To: sinton@wam-2.localdomain Received: by wam-2.localdomain (Postfix, from userid 1001) id 7A1E03959F; Mon, 10 May 2021 02:06:01 -0400 (EDT) From: root@wam-2.localdomain (Cron Daemon) To: sinton@wam-2.localdomain Subject: Cron ~/symlinks/TEAM99/ogoakinitchka2.sh 99 0.05 > /dev/null MIME-Version: 1.0 Content-Type: text/plain; charset=UTF-8 Content-Transfer-Encoding: 8bit X-Cron-Env: X-Cron-Env: X-Cron-Env: X-Cron-Env: Message-Id: <20210510060601.7A1E03959F@wam-2.localdomain> Date: Mon, 10 May 2021 02:06:01 -0400 (EDT) /bin/sh: 1: /home/sinton/symlinks/TEAM99/ogoakinitchka2.sh: not found From sinton@wam-2.localdomain Mon May 10 02:06:01 2021 Return-Path: X-Original-To: sinton Delivered-To: sinton@wam-2.localdomain Received: by wam-2.localdomain (Postfix, from userid 1001) id 9367C3958B; Mon, 10 May 2021 02:06:01 -0400 (EDT) From: root@wam-2.localdomain (Cron Daemon) To: sinton@wam-2.localdomain Subject: Cron ~/symlinks/TEAM1F/metin/apiv4.sh 1f > /dev/null MIME-Version: 1.0 Content-Type: text/plain; charset=UTF-8 Content-Transfer-Encoding: 8bit X-Cron-Env: X-Cron-Env: X-Cron-Env: X-Cron-Env: Message-Id: <20210510060601.9367C3958B@wam-2.localdomain> Date: Mon, 10 May 2021 02:06:01 -0400 (EDT) % Total % Received % Xferd Average Speed Time Time Time Current Dload Upload Total Spent Left Speed 0 0 0 0 0 0 0 0 --:--:-- --:--:-- --:--:-- 0 100 384 100 384 0 0 8170 0 --:--:-- --:--:-- --:--:-- 8170 From sinton@wam-2.localdomain Mon May 10 02:07:01 2021 Return-Path: X-Original-To: sinton Delivered-To: sinton@wam-2.localdomain Received: by wam-2.localdomain (Postfix, from userid 1001) id C6C7C39581; Mon, 10 May 2021 02:07:01 -0400 (EDT) From: root@wam-2.localdomain (Cron Daemon) To: sinton@wam-2.localdomain Subject: Cron ~/symlinks/TEAM99/ogoakinitchka2.sh 99 0.05 > /dev/null MIME-Version: 1.0 Content-Type: text/plain; charset=UTF-8 Content-Transfer-Encoding: 8bit X-Cron-Env: X-Cron-Env: X-Cron-Env: X-Cron-Env: Message-Id: <20210510060701.C6C7C39581@wam-2.localdomain> Date: Mon, 10 May 2021 02:07:01 -0400 (EDT) /bin/sh: 1: /home/sinton/symlinks/TEAM99/ogoakinitchka2.sh: not found From sinton@wam-2.localdomain Mon May 10 02:07:01 2021 Return-Path: X-Original-To: sinton Delivered-To: sinton@wam-2.localdomain Received: by wam-2.localdomain (Postfix, from userid 1001) id D9C0139581; Mon, 10 May 2021 02:07:01 -0400 (EDT) From: root@wam-2.localdomain (Cron Daemon) To: sinton@wam-2.localdomain Subject: Cron ~/symlinks/TEAM1F/metin/apiv4.sh 1f > /dev/null MIME-Version: 1.0 Content-Type: text/plain; charset=UTF-8 Content-Transfer-Encoding: 8bit X-Cron-Env: X-Cron-Env: X-Cron-Env: X-Cron-Env: Message-Id: <20210510060701.D9C0139581@wam-2.localdomain> Date: Mon, 10 May 2021 02:07:01 -0400 (EDT) % Total % Received % Xferd Average Speed Time Time Time Current Dload Upload Total Spent Left Speed 0 0 0 0 0 0 0 0 --:--:-- --:--:-- --:--:-- 0 100 387 100 387 0 0 6241 0 --:--:-- --:--:-- --:--:-- 6142 100 387 100 387 0 0 6241 0 --:--:-- --:--:-- --:--:-- 6142 From sinton@wam-2.localdomain Mon May 10 02:08:02 2021 Return-Path: X-Original-To: sinton Delivered-To: sinton@wam-2.localdomain Received: by wam-2.localdomain (Postfix, from userid 1001) id 16B4838775; Mon, 10 May 2021 02:08:02 -0400 (EDT) From: root@wam-2.localdomain (Cron Daemon) To: sinton@wam-2.localdomain Subject: Cron ~/symlinks/TEAM99/ogoakinitchka2.sh 99 0.05 > /dev/null MIME-Version: 1.0 Content-Type: text/plain; charset=UTF-8 Content-Transfer-Encoding: 8bit X-Cron-Env: X-Cron-Env: X-Cron-Env: X-Cron-Env: Message-Id: <20210510060802.16B4838775@wam-2.localdomain> Date: Mon, 10 May 2021 02:08:02 -0400 (EDT) /bin/sh: 1: /home/sinton/symlinks/TEAM99/ogoakinitchka2.sh: not found From sinton@wam-2.localdomain Mon May 10 02:08:02 2021 Return-Path: X-Original-To: sinton Delivered-To: sinton@wam-2.localdomain Received: by wam-2.localdomain (Postfix, from userid 1001) id 2F36A38775; Mon, 10 May 2021 02:08:02 -0400 (EDT) From: root@wam-2.localdomain (Cron Daemon) To: sinton@wam-2.localdomain Subject: Cron ~/symlinks/TEAM1F/metin/apiv4.sh 1f > /dev/null MIME-Version: 1.0 Content-Type: text/plain; charset=UTF-8 Content-Transfer-Encoding: 8bit X-Cron-Env: X-Cron-Env: X-Cron-Env: X-Cron-Env: Message-Id: <20210510060802.2F36A38775@wam-2.localdomain> Date: Mon, 10 May 2021 02:08:02 -0400 (EDT) % Total % Received % Xferd Average Speed Time Time Time Current Dload Upload Total Spent Left Speed 0 0 0 0 0 0 0 0 --:--:-- --:--:-- --:--:-- 0 100 387 100 387 0 0 5691 0 --:--:-- --:--:-- --:--:-- 5691 From sinton@wam-2.localdomain Mon May 10 02:09:01 2021 Return-Path: X-Original-To: sinton Delivered-To: sinton@wam-2.localdomain Received: by wam-2.localdomain (Postfix, from userid 1001) id 69C3E39591; Mon, 10 May 2021 02:09:01 -0400 (EDT) From: root@wam-2.localdomain (Cron Daemon) To: sinton@wam-2.localdomain Subject: Cron ~/symlinks/TEAM99/ogoakinitchka2.sh 99 0.05 > /dev/null MIME-Version: 1.0 Content-Type: text/plain; charset=UTF-8 Content-Transfer-Encoding: 8bit X-Cron-Env: X-Cron-Env: X-Cron-Env: X-Cron-Env: Message-Id: <20210510060901.69C3E39591@wam-2.localdomain> Date: Mon, 10 May 2021 02:09:01 -0400 (EDT) /bin/sh: 1: /home/sinton/symlinks/TEAM99/ogoakinitchka2.sh: not found From sinton@wam-2.localdomain Mon May 10 02:09:01 2021 Return-Path: X-Original-To: sinton Delivered-To: sinton@wam-2.localdomain Received: by wam-2.localdomain (Postfix, from userid 1001) id 79CF039591; Mon, 10 May 2021 02:09:01 -0400 (EDT) From: root@wam-2.localdomain (Cron Daemon) To: sinton@wam-2.localdomain Subject: Cron ~/symlinks/TEAM1F/metin/apiv4.sh 1f > /dev/null MIME-Version: 1.0 Content-Type: text/plain; charset=UTF-8 Content-Transfer-Encoding: 8bit X-Cron-Env: X-Cron-Env: X-Cron-Env: X-Cron-Env: Message-Id: <20210510060901.79CF039591@wam-2.localdomain> Date: Mon, 10 May 2021 02:09:01 -0400 (EDT) % Total % Received % Xferd Average Speed Time Time Time Current Dload Upload Total Spent Left Speed 0 0 0 0 0 0 0 0 --:--:-- --:--:-- --:--:-- 0 100 387 100 387 0 0 7301 0 --:--:-- --:--:-- --:--:-- 7301 From sinton@wam-2.localdomain Mon May 10 02:10:01 2021 Return-Path: X-Original-To: sinton Delivered-To: sinton@wam-2.localdomain Received: by wam-2.localdomain (Postfix, from userid 1001) id B00D3395AB; Mon, 10 May 2021 02:10:01 -0400 (EDT) From: root@wam-2.localdomain (Cron Daemon) To: sinton@wam-2.localdomain Subject: Cron ~/symlinks/TEAM99/ogoakinitchka2.sh 99 0.05 > /dev/null MIME-Version: 1.0 Content-Type: text/plain; charset=UTF-8 Content-Transfer-Encoding: 8bit X-Cron-Env: X-Cron-Env: X-Cron-Env: X-Cron-Env: Message-Id: <20210510061001.B00D3395AB@wam-2.localdomain> Date: Mon, 10 May 2021 02:10:01 -0400 (EDT) /bin/sh: 1: /home/sinton/symlinks/TEAM99/ogoakinitchka2.sh: not found From sinton@wam-2.localdomain Mon May 10 02:10:01 2021 Return-Path: X-Original-To: sinton Delivered-To: sinton@wam-2.localdomain Received: by wam-2.localdomain (Postfix, from userid 1001) id C62D239581; Mon, 10 May 2021 02:10:01 -0400 (EDT) From: root@wam-2.localdomain (Cron Daemon) To: sinton@wam-2.localdomain Subject: Cron ~/symlinks/TEAM1F/metin/apiv4.sh 1f > /dev/null MIME-Version: 1.0 Content-Type: text/plain; charset=UTF-8 Content-Transfer-Encoding: 8bit X-Cron-Env: X-Cron-Env: X-Cron-Env: X-Cron-Env: Message-Id: <20210510061001.C62D239581@wam-2.localdomain> Date: Mon, 10 May 2021 02:10:01 -0400 (EDT) % Total % Received % Xferd Average Speed Time Time Time Current Dload Upload Total Spent Left Speed 0 0 0 0 0 0 0 0 --:--:-- --:--:-- --:--:-- 0 100 386 100 386 0 0 7877 0 --:--:-- --:--:-- --:--:-- 7877 From sinton@wam-2.localdomain Mon May 10 02:11:02 2021 Return-Path: X-Original-To: sinton Delivered-To: sinton@wam-2.localdomain Received: by wam-2.localdomain (Postfix, from userid 1001) id 0E897395B0; Mon, 10 May 2021 02:11:02 -0400 (EDT) From: root@wam-2.localdomain (Cron Daemon) To: sinton@wam-2.localdomain Subject: Cron ~/symlinks/TEAM99/ogoakinitchka2.sh 99 0.05 > /dev/null MIME-Version: 1.0 Content-Type: text/plain; charset=UTF-8 Content-Transfer-Encoding: 8bit X-Cron-Env: X-Cron-Env: X-Cron-Env: X-Cron-Env: Message-Id: <20210510061102.0E897395B0@wam-2.localdomain> Date: Mon, 10 May 2021 02:11:02 -0400 (EDT) /bin/sh: 1: /home/sinton/symlinks/TEAM99/ogoakinitchka2.sh: not found From sinton@wam-2.localdomain Mon May 10 02:11:02 2021 Return-Path: X-Original-To: sinton Delivered-To: sinton@wam-2.localdomain Received: by wam-2.localdomain (Postfix, from userid 1001) id 27E2C3959D; Mon, 10 May 2021 02:11:02 -0400 (EDT) From: root@wam-2.localdomain (Cron Daemon) To: sinton@wam-2.localdomain Subject: Cron ~/symlinks/TEAM1F/metin/apiv4.sh 1f > /dev/null MIME-Version: 1.0 Content-Type: text/plain; charset=UTF-8 Content-Transfer-Encoding: 8bit X-Cron-Env: X-Cron-Env: X-Cron-Env: X-Cron-Env: Message-Id: <20210510061102.27E2C3959D@wam-2.localdomain> Date: Mon, 10 May 2021 02:11:02 -0400 (EDT) % Total % Received % Xferd Average Speed Time Time Time Current Dload Upload Total Spent Left Speed 0 0 0 0 0 0 0 0 --:--:-- --:--:-- --:--:-- 0 100 386 100 386 0 0 5287 0 --:--:-- --:--:-- --:--:-- 5287 From sinton@wam-2.localdomain Mon May 10 02:12:01 2021 Return-Path: X-Original-To: sinton Delivered-To: sinton@wam-2.localdomain Received: by wam-2.localdomain (Postfix, from userid 1001) id 5E90D39581; Mon, 10 May 2021 02:12:01 -0400 (EDT) From: root@wam-2.localdomain (Cron Daemon) To: sinton@wam-2.localdomain Subject: Cron ~/symlinks/TEAM99/ogoakinitchka2.sh 99 0.05 > /dev/null MIME-Version: 1.0 Content-Type: text/plain; charset=UTF-8 Content-Transfer-Encoding: 8bit X-Cron-Env: X-Cron-Env: X-Cron-Env: X-Cron-Env: Message-Id: <20210510061201.5E90D39581@wam-2.localdomain> Date: Mon, 10 May 2021 02:12:01 -0400 (EDT) /bin/sh: 1: /home/sinton/symlinks/TEAM99/ogoakinitchka2.sh: not found From sinton@wam-2.localdomain Mon May 10 02:12:01 2021 Return-Path: X-Original-To: sinton Delivered-To: sinton@wam-2.localdomain Received: by wam-2.localdomain (Postfix, from userid 1001) id 72ACD39581; Mon, 10 May 2021 02:12:01 -0400 (EDT) From: root@wam-2.localdomain (Cron Daemon) To: sinton@wam-2.localdomain Subject: Cron ~/symlinks/TEAM1F/metin/apiv4.sh 1f > /dev/null MIME-Version: 1.0 Content-Type: text/plain; charset=UTF-8 Content-Transfer-Encoding: 8bit X-Cron-Env: X-Cron-Env: X-Cron-Env: X-Cron-Env: Message-Id: <20210510061201.72ACD39581@wam-2.localdomain> Date: Mon, 10 May 2021 02:12:01 -0400 (EDT) % Total % Received % Xferd Average Speed Time Time Time Current Dload Upload Total Spent Left Speed 0 0 0 0 0 0 0 0 --:--:-- --:--:-- --:--:-- 0 100 387 100 387 0 0 2888 0 --:--:-- --:--:-- --:--:-- 2888 From sinton@wam-2.localdomain Mon May 10 02:13:01 2021 Return-Path: X-Original-To: sinton Delivered-To: sinton@wam-2.localdomain Received: by wam-2.localdomain (Postfix, from userid 1001) id A13FB395A5; Mon, 10 May 2021 02:13:01 -0400 (EDT) From: root@wam-2.localdomain (Cron Daemon) To: sinton@wam-2.localdomain Subject: Cron ~/symlinks/TEAM99/ogoakinitchka2.sh 99 0.05 > /dev/null MIME-Version: 1.0 Content-Type: text/plain; charset=UTF-8 Content-Transfer-Encoding: 8bit X-Cron-Env: X-Cron-Env: X-Cron-Env: X-Cron-Env: Message-Id: <20210510061301.A13FB395A5@wam-2.localdomain> Date: Mon, 10 May 2021 02:13:01 -0400 (EDT) /bin/sh: 1: /home/sinton/symlinks/TEAM99/ogoakinitchka2.sh: not found From sinton@wam-2.localdomain Mon May 10 02:13:01 2021 Return-Path: X-Original-To: sinton Delivered-To: sinton@wam-2.localdomain Received: by wam-2.localdomain (Postfix, from userid 1001) id B6E28395A5; Mon, 10 May 2021 02:13:01 -0400 (EDT) From: root@wam-2.localdomain (Cron Daemon) To: sinton@wam-2.localdomain Subject: Cron ~/symlinks/TEAM1F/metin/apiv4.sh 1f > /dev/null MIME-Version: 1.0 Content-Type: text/plain; charset=UTF-8 Content-Transfer-Encoding: 8bit X-Cron-Env: X-Cron-Env: X-Cron-Env: X-Cron-Env: Message-Id: <20210510061301.B6E28395A5@wam-2.localdomain> Date: Mon, 10 May 2021 02:13:01 -0400 (EDT) % Total % Received % Xferd Average Speed Time Time Time Current Dload Upload Total Spent Left Speed 0 0 0 0 0 0 0 0 --:--:-- --:--:-- --:--:-- 0 100 387 100 387 0 0 5092 0 --:--:-- --:--:-- --:--:-- 5092 From sinton@wam-2.localdomain Mon May 10 02:14:01 2021 Return-Path: X-Original-To: sinton Delivered-To: sinton@wam-2.localdomain Received: by wam-2.localdomain (Postfix, from userid 1001) id EC84739583; Mon, 10 May 2021 02:14:01 -0400 (EDT) From: root@wam-2.localdomain (Cron Daemon) To: sinton@wam-2.localdomain Subject: Cron ~/symlinks/TEAM99/ogoakinitchka2.sh 99 0.05 > /dev/null MIME-Version: 1.0 Content-Type: text/plain; charset=UTF-8 Content-Transfer-Encoding: 8bit X-Cron-Env: X-Cron-Env: X-Cron-Env: X-Cron-Env: Message-Id: <20210510061401.EC84739583@wam-2.localdomain> Date: Mon, 10 May 2021 02:14:01 -0400 (EDT) /bin/sh: 1: /home/sinton/symlinks/TEAM99/ogoakinitchka2.sh: not found From sinton@wam-2.localdomain Mon May 10 02:14:02 2021 Return-Path: X-Original-To: sinton Delivered-To: sinton@wam-2.localdomain Received: by wam-2.localdomain (Postfix, from userid 1001) id 08DE639583; Mon, 10 May 2021 02:14:02 -0400 (EDT) From: root@wam-2.localdomain (Cron Daemon) To: sinton@wam-2.localdomain Subject: Cron ~/symlinks/TEAM1F/metin/apiv4.sh 1f > /dev/null MIME-Version: 1.0 Content-Type: text/plain; charset=UTF-8 Content-Transfer-Encoding: 8bit X-Cron-Env: X-Cron-Env: X-Cron-Env: X-Cron-Env: Message-Id: <20210510061402.08DE639583@wam-2.localdomain> Date: Mon, 10 May 2021 02:14:02 -0400 (EDT) % Total % Received % Xferd Average Speed Time Time Time Current Dload Upload Total Spent Left Speed 0 0 0 0 0 0 0 0 --:--:-- --:--:-- --:--:-- 0 100 387 100 387 0 0 5528 0 --:--:-- --:--:-- --:--:-- 5528 From sinton@wam-2.localdomain Mon May 10 02:15:01 2021 Return-Path: X-Original-To: sinton Delivered-To: sinton@wam-2.localdomain Received: by wam-2.localdomain (Postfix, from userid 1001) id 450BF395AC; Mon, 10 May 2021 02:15:01 -0400 (EDT) From: root@wam-2.localdomain (Cron Daemon) To: sinton@wam-2.localdomain Subject: Cron ~/symlinks/TEAM99/ogoakinitchka2.sh 99 0.05 > /dev/null MIME-Version: 1.0 Content-Type: text/plain; charset=UTF-8 Content-Transfer-Encoding: 8bit X-Cron-Env: X-Cron-Env: X-Cron-Env: X-Cron-Env: Message-Id: <20210510061501.450BF395AC@wam-2.localdomain> Date: Mon, 10 May 2021 02:15:01 -0400 (EDT) /bin/sh: 1: /home/sinton/symlinks/TEAM99/ogoakinitchka2.sh: not found From sinton@wam-2.localdomain Mon May 10 02:15:01 2021 Return-Path: X-Original-To: sinton Delivered-To: sinton@wam-2.localdomain Received: by wam-2.localdomain (Postfix, from userid 1001) id 577E6395AC; Mon, 10 May 2021 02:15:01 -0400 (EDT) From: root@wam-2.localdomain (Cron Daemon) To: sinton@wam-2.localdomain Subject: Cron ~/symlinks/TEAM1F/metin/apiv4.sh 1f > /dev/null MIME-Version: 1.0 Content-Type: text/plain; charset=UTF-8 Content-Transfer-Encoding: 8bit X-Cron-Env: X-Cron-Env: X-Cron-Env: X-Cron-Env: Message-Id: <20210510061501.577E6395AC@wam-2.localdomain> Date: Mon, 10 May 2021 02:15:01 -0400 (EDT) % Total % Received % Xferd Average Speed Time Time Time Current Dload Upload Total Spent Left Speed 0 0 0 0 0 0 0 0 --:--:-- --:--:-- --:--:-- 0 100 386 100 386 0 0 6771 0 --:--:-- --:--:-- --:--:-- 6892 From sinton@wam-2.localdomain Mon May 10 02:16:01 2021 Return-Path: X-Original-To: sinton Delivered-To: sinton@wam-2.localdomain Received: by wam-2.localdomain (Postfix, from userid 1001) id E5189395CA; Mon, 10 May 2021 02:16:01 -0400 (EDT) From: root@wam-2.localdomain (Cron Daemon) To: sinton@wam-2.localdomain Subject: Cron ~/symlinks/TEAM99/ogoakinitchka2.sh 99 0.05 > /dev/null MIME-Version: 1.0 Content-Type: text/plain; charset=UTF-8 Content-Transfer-Encoding: 8bit X-Cron-Env: X-Cron-Env: X-Cron-Env: X-Cron-Env: Message-Id: <20210510061601.E5189395CA@wam-2.localdomain> Date: Mon, 10 May 2021 02:16:01 -0400 (EDT) /bin/sh: 1: /home/sinton/symlinks/TEAM99/ogoakinitchka2.sh: not found From sinton@wam-2.localdomain Mon May 10 02:16:02 2021 Return-Path: X-Original-To: sinton Delivered-To: sinton@wam-2.localdomain Received: by wam-2.localdomain (Postfix, from userid 1001) id 06441395B2; Mon, 10 May 2021 02:16:02 -0400 (EDT) From: root@wam-2.localdomain (Cron Daemon) To: sinton@wam-2.localdomain Subject: Cron ~/symlinks/TEAM1F/metin/apiv4.sh 1f > /dev/null MIME-Version: 1.0 Content-Type: text/plain; charset=UTF-8 Content-Transfer-Encoding: 8bit X-Cron-Env: X-Cron-Env: X-Cron-Env: X-Cron-Env: Message-Id: <20210510061602.06441395B2@wam-2.localdomain> Date: Mon, 10 May 2021 02:16:02 -0400 (EDT) % Total % Received % Xferd Average Speed Time Time Time Current Dload Upload Total Spent Left Speed 0 0 0 0 0 0 0 0 --:--:-- --:--:-- --:--:-- 0 100 387 100 387 0 0 4552 0 --:--:-- --:--:-- --:--:-- 4552 From sinton@wam-2.localdomain Mon May 10 02:17:01 2021 Return-Path: X-Original-To: sinton Delivered-To: sinton@wam-2.localdomain Received: by wam-2.localdomain (Postfix, from userid 1001) id 3BF2C2096C; Mon, 10 May 2021 02:17:01 -0400 (EDT) From: root@wam-2.localdomain (Cron Daemon) To: sinton@wam-2.localdomain Subject: Cron ~/symlinks/TEAM99/ogoakinitchka2.sh 99 0.05 > /dev/null MIME-Version: 1.0 Content-Type: text/plain; charset=UTF-8 Content-Transfer-Encoding: 8bit X-Cron-Env: X-Cron-Env: X-Cron-Env: X-Cron-Env: Message-Id: <20210510061701.3BF2C2096C@wam-2.localdomain> Date: Mon, 10 May 2021 02:17:01 -0400 (EDT) /bin/sh: 1: /home/sinton/symlinks/TEAM99/ogoakinitchka2.sh: not found From sinton@wam-2.localdomain Mon May 10 02:17:01 2021 Return-Path: X-Original-To: sinton Delivered-To: sinton@wam-2.localdomain Received: by wam-2.localdomain (Postfix, from userid 1001) id 486222096C; Mon, 10 May 2021 02:17:01 -0400 (EDT) From: root@wam-2.localdomain (Cron Daemon) To: sinton@wam-2.localdomain Subject: Cron ~/symlinks/TEAM1F/metin/apiv4.sh 1f > /dev/null MIME-Version: 1.0 Content-Type: text/plain; charset=UTF-8 Content-Transfer-Encoding: 8bit X-Cron-Env: X-Cron-Env: X-Cron-Env: X-Cron-Env: Message-Id: <20210510061701.486222096C@wam-2.localdomain> Date: Mon, 10 May 2021 02:17:01 -0400 (EDT) % Total % Received % Xferd Average Speed Time Time Time Current Dload Upload Total Spent Left Speed 0 0 0 0 0 0 0 0 --:--:-- --:--:-- --:--:-- 0 100 387 100 387 0 0 4607 0 --:--:-- --:--:-- --:--:-- 4607 From sinton@wam-2.localdomain Mon May 10 02:17:29 2021 Return-Path: X-Original-To: sinton Delivered-To: sinton@wam-2.localdomain Received: by wam-2.localdomain (Postfix, from userid 1001) id D5AE339597; Mon, 10 May 2021 02:17:29 -0400 (EDT) From: root@wam-2.localdomain (Cron Daemon) To: sinton@wam-2.localdomain Subject: Cron bash -c "sleep $[RANDOM%30]m" ; ~/symlinks/TEAM1N/fcst/startfcstclim.sh 1n > /dev/null MIME-Version: 1.0 Content-Type: text/plain; charset=UTF-8 Content-Transfer-Encoding: 8bit X-Cron-Env: X-Cron-Env: X-Cron-Env: X-Cron-Env: Message-Id: <20210510061729.D5AE339597@wam-2.localdomain> Date: Mon, 10 May 2021 02:17:29 -0400 (EDT) % Total % Received % Xferd Average Speed Time Time Time Current Dload Upload Total Spent Left Speed 0 0 0 0 0 0 0 0 --:--:-- --:--:-- --:--:-- 0 0 0 0 0 0 0 0 0 --:--:-- --:--:-- --:--:-- 0 100 41827 100 41827 0 0 136k 0 --:--:-- --:--:-- --:--:-- 136k From sinton@wam-2.localdomain Mon May 10 02:18:02 2021 Return-Path: X-Original-To: sinton Delivered-To: sinton@wam-2.localdomain Received: by wam-2.localdomain (Postfix, from userid 1001) id 164F9395BC; Mon, 10 May 2021 02:18:02 -0400 (EDT) From: root@wam-2.localdomain (Cron Daemon) To: sinton@wam-2.localdomain Subject: Cron ~/symlinks/TEAM99/ogoakinitchka2.sh 99 0.05 > /dev/null MIME-Version: 1.0 Content-Type: text/plain; charset=UTF-8 Content-Transfer-Encoding: 8bit X-Cron-Env: X-Cron-Env: X-Cron-Env: X-Cron-Env: Message-Id: <20210510061802.164F9395BC@wam-2.localdomain> Date: Mon, 10 May 2021 02:18:02 -0400 (EDT) /bin/sh: 1: /home/sinton/symlinks/TEAM99/ogoakinitchka2.sh: not found From sinton@wam-2.localdomain Mon May 10 02:18:02 2021 Return-Path: X-Original-To: sinton Delivered-To: sinton@wam-2.localdomain Received: by wam-2.localdomain (Postfix, from userid 1001) id 25647395BE; Mon, 10 May 2021 02:18:02 -0400 (EDT) From: root@wam-2.localdomain (Cron Daemon) To: sinton@wam-2.localdomain Subject: Cron ~/symlinks/TEAM1F/metin/apiv4.sh 1f > /dev/null MIME-Version: 1.0 Content-Type: text/plain; charset=UTF-8 Content-Transfer-Encoding: 8bit X-Cron-Env: X-Cron-Env: X-Cron-Env: X-Cron-Env: Message-Id: <20210510061802.25647395BE@wam-2.localdomain> Date: Mon, 10 May 2021 02:18:02 -0400 (EDT) % Total % Received % Xferd Average Speed Time Time Time Current Dload Upload Total Spent Left Speed 0 0 0 0 0 0 0 0 --:--:-- --:--:-- --:--:-- 0 100 392 100 392 0 0 6322 0 --:--:-- --:--:-- --:--:-- 6322 From sinton@wam-2.localdomain Mon May 10 02:19:01 2021 Return-Path: X-Original-To: sinton Delivered-To: sinton@wam-2.localdomain Received: by wam-2.localdomain (Postfix, from userid 1001) id 5F3693864F; Mon, 10 May 2021 02:19:01 -0400 (EDT) From: root@wam-2.localdomain (Cron Daemon) To: sinton@wam-2.localdomain Subject: Cron ~/symlinks/TEAM99/ogoakinitchka2.sh 99 0.05 > /dev/null MIME-Version: 1.0 Content-Type: text/plain; charset=UTF-8 Content-Transfer-Encoding: 8bit X-Cron-Env: X-Cron-Env: X-Cron-Env: X-Cron-Env: Message-Id: <20210510061901.5F3693864F@wam-2.localdomain> Date: Mon, 10 May 2021 02:19:01 -0400 (EDT) /bin/sh: 1: /home/sinton/symlinks/TEAM99/ogoakinitchka2.sh: not found From sinton@wam-2.localdomain Mon May 10 02:19:01 2021 Return-Path: X-Original-To: sinton Delivered-To: sinton@wam-2.localdomain Received: by wam-2.localdomain (Postfix, from userid 1001) id 6BCE53864F; Mon, 10 May 2021 02:19:01 -0400 (EDT) From: root@wam-2.localdomain (Cron Daemon) To: sinton@wam-2.localdomain Subject: Cron ~/symlinks/TEAM1F/metin/apiv4.sh 1f > /dev/null MIME-Version: 1.0 Content-Type: text/plain; charset=UTF-8 Content-Transfer-Encoding: 8bit X-Cron-Env: X-Cron-Env: X-Cron-Env: X-Cron-Env: Message-Id: <20210510061901.6BCE53864F@wam-2.localdomain> Date: Mon, 10 May 2021 02:19:01 -0400 (EDT) % Total % Received % Xferd Average Speed Time Time Time Current Dload Upload Total Spent Left Speed 0 0 0 0 0 0 0 0 --:--:-- --:--:-- --:--:-- 0 100 391 100 391 0 0 4654 0 --:--:-- --:--:-- --:--:-- 4654 From sinton@wam-2.localdomain Mon May 10 02:19:35 2021 Return-Path: X-Original-To: sinton Delivered-To: sinton@wam-2.localdomain Received: by wam-2.localdomain (Postfix, from userid 1001) id 56B5139597; Mon, 10 May 2021 02:19:35 -0400 (EDT) From: root@wam-2.localdomain (Cron Daemon) To: sinton@wam-2.localdomain Subject: Cron bash -c "sleep $[RANDOM%30]m" ; ~/symlinks/TEAM1F/fcst/startfcstclim.sh 1f > /dev/null MIME-Version: 1.0 Content-Type: text/plain; charset=UTF-8 Content-Transfer-Encoding: 8bit X-Cron-Env: X-Cron-Env: X-Cron-Env: X-Cron-Env: Message-Id: <20210510061935.56B5139597@wam-2.localdomain> Date: Mon, 10 May 2021 02:19:35 -0400 (EDT) % Total % Received % Xferd Average Speed Time Time Time Current Dload Upload Total Spent Left Speed 0 0 0 0 0 0 0 0 --:--:-- --:--:-- --:--:-- 0 0 0 0 0 0 0 0 0 --:--:-- --:--:-- --:--:-- 0 100 41626 100 41626 0 0 196k 0 --:--:-- --:--:-- --:--:-- 195k From sinton@wam-2.localdomain Mon May 10 02:20:01 2021 Return-Path: X-Original-To: sinton Delivered-To: sinton@wam-2.localdomain Received: by wam-2.localdomain (Postfix, from userid 1001) id 85C1B3959B; Mon, 10 May 2021 02:20:01 -0400 (EDT) From: root@wam-2.localdomain (Cron Daemon) To: sinton@wam-2.localdomain Subject: Cron ~/symlinks/TEAM99/ogoakinitchka2.sh 99 0.05 > /dev/null MIME-Version: 1.0 Content-Type: text/plain; charset=UTF-8 Content-Transfer-Encoding: 8bit X-Cron-Env: X-Cron-Env: X-Cron-Env: X-Cron-Env: Message-Id: <20210510062001.85C1B3959B@wam-2.localdomain> Date: Mon, 10 May 2021 02:20:01 -0400 (EDT) /bin/sh: 1: /home/sinton/symlinks/TEAM99/ogoakinitchka2.sh: not found From sinton@wam-2.localdomain Mon May 10 02:20:01 2021 Return-Path: X-Original-To: sinton Delivered-To: sinton@wam-2.localdomain Received: by wam-2.localdomain (Postfix, from userid 1001) id 9906F3959B; Mon, 10 May 2021 02:20:01 -0400 (EDT) From: root@wam-2.localdomain (Cron Daemon) To: sinton@wam-2.localdomain Subject: Cron ~/symlinks/TEAM1F/metin/apiv4.sh 1f > /dev/null MIME-Version: 1.0 Content-Type: text/plain; charset=UTF-8 Content-Transfer-Encoding: 8bit X-Cron-Env: X-Cron-Env: X-Cron-Env: X-Cron-Env: Message-Id: <20210510062001.9906F3959B@wam-2.localdomain> Date: Mon, 10 May 2021 02:20:01 -0400 (EDT) % Total % Received % Xferd Average Speed Time Time Time Current Dload Upload Total Spent Left Speed 0 0 0 0 0 0 0 0 --:--:-- --:--:-- --:--:-- 0 100 392 100 392 0 0 5226 0 --:--:-- --:--:-- --:--:-- 5297 From sinton@wam-2.localdomain Mon May 10 02:21:01 2021 Return-Path: X-Original-To: sinton Delivered-To: sinton@wam-2.localdomain Received: by wam-2.localdomain (Postfix, from userid 1001) id D8E33395BE; Mon, 10 May 2021 02:21:01 -0400 (EDT) From: root@wam-2.localdomain (Cron Daemon) To: sinton@wam-2.localdomain Subject: Cron ~/symlinks/TEAM99/ogoakinitchka2.sh 99 0.05 > /dev/null MIME-Version: 1.0 Content-Type: text/plain; charset=UTF-8 Content-Transfer-Encoding: 8bit X-Cron-Env: X-Cron-Env: X-Cron-Env: X-Cron-Env: Message-Id: <20210510062101.D8E33395BE@wam-2.localdomain> Date: Mon, 10 May 2021 02:21:01 -0400 (EDT) /bin/sh: 1: /home/sinton/symlinks/TEAM99/ogoakinitchka2.sh: not found From sinton@wam-2.localdomain Mon May 10 02:21:02 2021 Return-Path: X-Original-To: sinton Delivered-To: sinton@wam-2.localdomain Received: by wam-2.localdomain (Postfix, from userid 1001) id F30C9395BE; Mon, 10 May 2021 02:21:01 -0400 (EDT) From: root@wam-2.localdomain (Cron Daemon) To: sinton@wam-2.localdomain Subject: Cron ~/symlinks/TEAM1F/metin/apiv4.sh 1f > /dev/null MIME-Version: 1.0 Content-Type: text/plain; charset=UTF-8 Content-Transfer-Encoding: 8bit X-Cron-Env: X-Cron-Env: X-Cron-Env: X-Cron-Env: Message-Id: <20210510062101.F30C9395BE@wam-2.localdomain> Date: Mon, 10 May 2021 02:21:01 -0400 (EDT) % Total % Received % Xferd Average Speed Time Time Time Current Dload Upload Total Spent Left Speed 0 0 0 0 0 0 0 0 --:--:-- --:--:-- --:--:-- 0 100 392 100 392 0 0 5521 0 --:--:-- --:--:-- --:--:-- 5521 From sinton@wam-2.localdomain Mon May 10 02:22:02 2021 Return-Path: X-Original-To: sinton Delivered-To: sinton@wam-2.localdomain Received: by wam-2.localdomain (Postfix, from userid 1001) id 3417F395AE; Mon, 10 May 2021 02:22:02 -0400 (EDT) From: root@wam-2.localdomain (Cron Daemon) To: sinton@wam-2.localdomain Subject: Cron ~/symlinks/TEAM99/ogoakinitchka2.sh 99 0.05 > /dev/null MIME-Version: 1.0 Content-Type: text/plain; charset=UTF-8 Content-Transfer-Encoding: 8bit X-Cron-Env: X-Cron-Env: X-Cron-Env: X-Cron-Env: Message-Id: <20210510062202.3417F395AE@wam-2.localdomain> Date: Mon, 10 May 2021 02:22:02 -0400 (EDT) /bin/sh: 1: /home/sinton/symlinks/TEAM99/ogoakinitchka2.sh: not found From sinton@wam-2.localdomain Mon May 10 02:22:02 2021 Return-Path: X-Original-To: sinton Delivered-To: sinton@wam-2.localdomain Received: by wam-2.localdomain (Postfix, from userid 1001) id 42621395C6; Mon, 10 May 2021 02:22:02 -0400 (EDT) From: root@wam-2.localdomain (Cron Daemon) To: sinton@wam-2.localdomain Subject: Cron ~/symlinks/TEAM1F/metin/apiv4.sh 1f > /dev/null MIME-Version: 1.0 Content-Type: text/plain; charset=UTF-8 Content-Transfer-Encoding: 8bit X-Cron-Env: X-Cron-Env: X-Cron-Env: X-Cron-Env: Message-Id: <20210510062202.42621395C6@wam-2.localdomain> Date: Mon, 10 May 2021 02:22:02 -0400 (EDT) % Total % Received % Xferd Average Speed Time Time Time Current Dload Upload Total Spent Left Speed 0 0 0 0 0 0 0 0 --:--:-- --:--:-- --:--:-- 0 100 392 100 392 0 0 4260 0 --:--:-- --:--:-- --:--:-- 4260 From sinton@wam-2.localdomain Mon May 10 02:23:01 2021 Return-Path: X-Original-To: sinton Delivered-To: sinton@wam-2.localdomain Received: by wam-2.localdomain (Postfix, from userid 1001) id 72F03395CE; Mon, 10 May 2021 02:23:01 -0400 (EDT) From: root@wam-2.localdomain (Cron Daemon) To: sinton@wam-2.localdomain Subject: Cron ~/symlinks/TEAM99/ogoakinitchka2.sh 99 0.05 > /dev/null MIME-Version: 1.0 Content-Type: text/plain; charset=UTF-8 Content-Transfer-Encoding: 8bit X-Cron-Env: X-Cron-Env: X-Cron-Env: X-Cron-Env: Message-Id: <20210510062301.72F03395CE@wam-2.localdomain> Date: Mon, 10 May 2021 02:23:01 -0400 (EDT) /bin/sh: 1: /home/sinton/symlinks/TEAM99/ogoakinitchka2.sh: not found From sinton@wam-2.localdomain Mon May 10 02:23:01 2021 Return-Path: X-Original-To: sinton Delivered-To: sinton@wam-2.localdomain Received: by wam-2.localdomain (Postfix, from userid 1001) id 89015395CE; Mon, 10 May 2021 02:23:01 -0400 (EDT) From: root@wam-2.localdomain (Cron Daemon) To: sinton@wam-2.localdomain Subject: Cron ~/symlinks/TEAM1F/metin/apiv4.sh 1f > /dev/null MIME-Version: 1.0 Content-Type: text/plain; charset=UTF-8 Content-Transfer-Encoding: 8bit X-Cron-Env: X-Cron-Env: X-Cron-Env: X-Cron-Env: Message-Id: <20210510062301.89015395CE@wam-2.localdomain> Date: Mon, 10 May 2021 02:23:01 -0400 (EDT) % Total % Received % Xferd Average Speed Time Time Time Current Dload Upload Total Spent Left Speed 0 0 0 0 0 0 0 0 --:--:-- --:--:-- --:--:-- 0 100 386 100 386 0 0 5287 0 --:--:-- --:--:-- --:--:-- 5287 From sinton@wam-2.localdomain Mon May 10 02:24:01 2021 Return-Path: X-Original-To: sinton Delivered-To: sinton@wam-2.localdomain Received: by wam-2.localdomain (Postfix, from userid 1001) id BB2BA395CA; Mon, 10 May 2021 02:24:01 -0400 (EDT) From: root@wam-2.localdomain (Cron Daemon) To: sinton@wam-2.localdomain Subject: Cron ~/symlinks/TEAM99/ogoakinitchka2.sh 99 0.05 > /dev/null MIME-Version: 1.0 Content-Type: text/plain; charset=UTF-8 Content-Transfer-Encoding: 8bit X-Cron-Env: X-Cron-Env: X-Cron-Env: X-Cron-Env: Message-Id: <20210510062401.BB2BA395CA@wam-2.localdomain> Date: Mon, 10 May 2021 02:24:01 -0400 (EDT) /bin/sh: 1: /home/sinton/symlinks/TEAM99/ogoakinitchka2.sh: not found From sinton@wam-2.localdomain Mon May 10 02:24:01 2021 Return-Path: X-Original-To: sinton Delivered-To: sinton@wam-2.localdomain Received: by wam-2.localdomain (Postfix, from userid 1001) id CE03F395CA; Mon, 10 May 2021 02:24:01 -0400 (EDT) From: root@wam-2.localdomain (Cron Daemon) To: sinton@wam-2.localdomain Subject: Cron ~/symlinks/TEAM1F/metin/apiv4.sh 1f > /dev/null MIME-Version: 1.0 Content-Type: text/plain; charset=UTF-8 Content-Transfer-Encoding: 8bit X-Cron-Env: X-Cron-Env: X-Cron-Env: X-Cron-Env: Message-Id: <20210510062401.CE03F395CA@wam-2.localdomain> Date: Mon, 10 May 2021 02:24:01 -0400 (EDT) % Total % Received % Xferd Average Speed Time Time Time Current Dload Upload Total Spent Left Speed 0 0 0 0 0 0 0 0 --:--:-- --:--:-- --:--:-- 0 100 392 100 392 0 0 4900 0 --:--:-- --:--:-- --:--:-- 4900 From sinton@wam-2.localdomain Mon May 10 02:24:15 2021 Return-Path: X-Original-To: sinton Delivered-To: sinton@wam-2.localdomain Received: by wam-2.localdomain (Postfix, from userid 1001) id 03BE8395E2; Mon, 10 May 2021 02:24:14 -0400 (EDT) From: root@wam-2.localdomain (Cron Daemon) To: sinton@wam-2.localdomain Subject: Cron bash -c "sleep $[RANDOM%30]m" ; ~/symlinks/TEAM7/fcst/startfcstclim.sh 7 > /dev/null MIME-Version: 1.0 Content-Type: text/plain; charset=UTF-8 Content-Transfer-Encoding: 8bit X-Cron-Env: X-Cron-Env: X-Cron-Env: X-Cron-Env: Message-Id: <20210510062415.03BE8395E2@wam-2.localdomain> Date: Mon, 10 May 2021 02:24:14 -0400 (EDT) % Total % Received % Xferd Average Speed Time Time Time Current Dload Upload Total Spent Left Speed 0 0 0 0 0 0 0 0 --:--:-- --:--:-- --:--:-- 0 100 41564 100 41564 0 0 296k 0 --:--:-- --:--:-- --:--:-- 296k From sinton@wam-2.localdomain Mon May 10 02:25:01 2021 Return-Path: X-Original-To: sinton Delivered-To: sinton@wam-2.localdomain Received: by wam-2.localdomain (Postfix, from userid 1001) id 38AA4395DC; Mon, 10 May 2021 02:25:01 -0400 (EDT) From: root@wam-2.localdomain (Cron Daemon) To: sinton@wam-2.localdomain Subject: Cron ~/symlinks/TEAM99/ogoakinitchka2.sh 99 0.05 > /dev/null MIME-Version: 1.0 Content-Type: text/plain; charset=UTF-8 Content-Transfer-Encoding: 8bit X-Cron-Env: X-Cron-Env: X-Cron-Env: X-Cron-Env: Message-Id: <20210510062501.38AA4395DC@wam-2.localdomain> Date: Mon, 10 May 2021 02:25:01 -0400 (EDT) /bin/sh: 1: /home/sinton/symlinks/TEAM99/ogoakinitchka2.sh: not found From sinton@wam-2.localdomain Mon May 10 02:25:01 2021 Return-Path: X-Original-To: sinton Delivered-To: sinton@wam-2.localdomain Received: by wam-2.localdomain (Postfix, from userid 1001) id 4D17D395DE; Mon, 10 May 2021 02:25:01 -0400 (EDT) From: root@wam-2.localdomain (Cron Daemon) To: sinton@wam-2.localdomain Subject: Cron ~/symlinks/TEAM1F/metin/apiv4.sh 1f > /dev/null MIME-Version: 1.0 Content-Type: text/plain; charset=UTF-8 Content-Transfer-Encoding: 8bit X-Cron-Env: X-Cron-Env: X-Cron-Env: X-Cron-Env: Message-Id: <20210510062501.4D17D395DE@wam-2.localdomain> Date: Mon, 10 May 2021 02:25:01 -0400 (EDT) % Total % Received % Xferd Average Speed Time Time Time Current Dload Upload Total Spent Left Speed 0 0 0 0 0 0 0 0 --:--:-- --:--:-- --:--:-- 0 100 391 100 391 0 0 5012 0 --:--:-- --:--:-- --:--:-- 5077 From sinton@wam-2.localdomain Mon May 10 02:26:01 2021 Return-Path: X-Original-To: sinton Delivered-To: sinton@wam-2.localdomain Received: by wam-2.localdomain (Postfix, from userid 1001) id 8B925395E2; Mon, 10 May 2021 02:26:01 -0400 (EDT) From: root@wam-2.localdomain (Cron Daemon) To: sinton@wam-2.localdomain Subject: Cron ~/symlinks/TEAM99/ogoakinitchka2.sh 99 0.05 > /dev/null MIME-Version: 1.0 Content-Type: text/plain; charset=UTF-8 Content-Transfer-Encoding: 8bit X-Cron-Env: X-Cron-Env: X-Cron-Env: X-Cron-Env: Message-Id: <20210510062601.8B925395E2@wam-2.localdomain> Date: Mon, 10 May 2021 02:26:01 -0400 (EDT) /bin/sh: 1: /home/sinton/symlinks/TEAM99/ogoakinitchka2.sh: not found From sinton@wam-2.localdomain Mon May 10 02:26:01 2021 Return-Path: X-Original-To: sinton Delivered-To: sinton@wam-2.localdomain Received: by wam-2.localdomain (Postfix, from userid 1001) id A27A7395CE; Mon, 10 May 2021 02:26:01 -0400 (EDT) From: root@wam-2.localdomain (Cron Daemon) To: sinton@wam-2.localdomain Subject: Cron ~/symlinks/TEAM1F/metin/apiv4.sh 1f > /dev/null MIME-Version: 1.0 Content-Type: text/plain; charset=UTF-8 Content-Transfer-Encoding: 8bit X-Cron-Env: X-Cron-Env: X-Cron-Env: X-Cron-Env: Message-Id: <20210510062601.A27A7395CE@wam-2.localdomain> Date: Mon, 10 May 2021 02:26:01 -0400 (EDT) % Total % Received % Xferd Average Speed Time Time Time Current Dload Upload Total Spent Left Speed 0 0 0 0 0 0 0 0 --:--:-- --:--:-- --:--:-- 0 100 391 100 391 0 0 6306 0 --:--:-- --:--:-- --:--:-- 6409 From sinton@wam-2.localdomain Mon May 10 02:27:01 2021 Return-Path: X-Original-To: sinton Delivered-To: sinton@wam-2.localdomain Received: by wam-2.localdomain (Postfix, from userid 1001) id D192B394B3; Mon, 10 May 2021 02:27:01 -0400 (EDT) From: root@wam-2.localdomain (Cron Daemon) To: sinton@wam-2.localdomain Subject: Cron ~/symlinks/TEAM99/ogoakinitchka2.sh 99 0.05 > /dev/null MIME-Version: 1.0 Content-Type: text/plain; charset=UTF-8 Content-Transfer-Encoding: 8bit X-Cron-Env: X-Cron-Env: X-Cron-Env: X-Cron-Env: Message-Id: <20210510062701.D192B394B3@wam-2.localdomain> Date: Mon, 10 May 2021 02:27:01 -0400 (EDT) /bin/sh: 1: /home/sinton/symlinks/TEAM99/ogoakinitchka2.sh: not found From sinton@wam-2.localdomain Mon May 10 02:27:01 2021 Return-Path: X-Original-To: sinton Delivered-To: sinton@wam-2.localdomain Received: by wam-2.localdomain (Postfix, from userid 1001) id E3087394B3; Mon, 10 May 2021 02:27:01 -0400 (EDT) From: root@wam-2.localdomain (Cron Daemon) To: sinton@wam-2.localdomain Subject: Cron ~/symlinks/TEAM1F/metin/apiv4.sh 1f > /dev/null MIME-Version: 1.0 Content-Type: text/plain; charset=UTF-8 Content-Transfer-Encoding: 8bit X-Cron-Env: X-Cron-Env: X-Cron-Env: X-Cron-Env: Message-Id: <20210510062701.E3087394B3@wam-2.localdomain> Date: Mon, 10 May 2021 02:27:01 -0400 (EDT) % Total % Received % Xferd Average Speed Time Time Time Current Dload Upload Total Spent Left Speed 0 0 0 0 0 0 0 0 --:--:-- --:--:-- --:--:-- 0 0 0 0 0 0 0 0 0 --:--:-- --:--:-- --:--:-- 0 100 391 100 391 0 0 5924 0 --:--:-- --:--:-- --:--:-- 5835 From sinton@wam-2.localdomain Mon May 10 02:28:02 2021 Return-Path: X-Original-To: sinton Delivered-To: sinton@wam-2.localdomain Received: by wam-2.localdomain (Postfix, from userid 1001) id 21936395E2; Mon, 10 May 2021 02:28:02 -0400 (EDT) From: root@wam-2.localdomain (Cron Daemon) To: sinton@wam-2.localdomain Subject: Cron ~/symlinks/TEAM99/ogoakinitchka2.sh 99 0.05 > /dev/null MIME-Version: 1.0 Content-Type: text/plain; charset=UTF-8 Content-Transfer-Encoding: 8bit X-Cron-Env: X-Cron-Env: X-Cron-Env: X-Cron-Env: Message-Id: <20210510062802.21936395E2@wam-2.localdomain> Date: Mon, 10 May 2021 02:28:02 -0400 (EDT) /bin/sh: 1: /home/sinton/symlinks/TEAM99/ogoakinitchka2.sh: not found From sinton@wam-2.localdomain Mon May 10 02:28:02 2021 Return-Path: X-Original-To: sinton Delivered-To: sinton@wam-2.localdomain Received: by wam-2.localdomain (Postfix, from userid 1001) id 39BAC395E2; Mon, 10 May 2021 02:28:02 -0400 (EDT) From: root@wam-2.localdomain (Cron Daemon) To: sinton@wam-2.localdomain Subject: Cron ~/symlinks/TEAM1F/metin/apiv4.sh 1f > /dev/null MIME-Version: 1.0 Content-Type: text/plain; charset=UTF-8 Content-Transfer-Encoding: 8bit X-Cron-Env: X-Cron-Env: X-Cron-Env: X-Cron-Env: Message-Id: <20210510062802.39BAC395E2@wam-2.localdomain> Date: Mon, 10 May 2021 02:28:02 -0400 (EDT) % Total % Received % Xferd Average Speed Time Time Time Current Dload Upload Total Spent Left Speed 0 0 0 0 0 0 0 0 --:--:-- --:--:-- --:--:-- 0 100 392 100 392 0 0 5444 0 --:--:-- --:--:-- --:--:-- 5444 From sinton@wam-2.localdomain Mon May 10 02:29:01 2021 Return-Path: X-Original-To: sinton Delivered-To: sinton@wam-2.localdomain Received: by wam-2.localdomain (Postfix, from userid 1001) id 6CBEF39546; Mon, 10 May 2021 02:29:01 -0400 (EDT) From: root@wam-2.localdomain (Cron Daemon) To: sinton@wam-2.localdomain Subject: Cron ~/symlinks/TEAM99/ogoakinitchka2.sh 99 0.05 > /dev/null MIME-Version: 1.0 Content-Type: text/plain; charset=UTF-8 Content-Transfer-Encoding: 8bit X-Cron-Env: X-Cron-Env: X-Cron-Env: X-Cron-Env: Message-Id: <20210510062901.6CBEF39546@wam-2.localdomain> Date: Mon, 10 May 2021 02:29:01 -0400 (EDT) /bin/sh: 1: /home/sinton/symlinks/TEAM99/ogoakinitchka2.sh: not found From sinton@wam-2.localdomain Mon May 10 02:29:01 2021 Return-Path: X-Original-To: sinton Delivered-To: sinton@wam-2.localdomain Received: by wam-2.localdomain (Postfix, from userid 1001) id 874D439546; Mon, 10 May 2021 02:29:01 -0400 (EDT) From: root@wam-2.localdomain (Cron Daemon) To: sinton@wam-2.localdomain Subject: Cron ~/symlinks/TEAM1F/metin/apiv4.sh 1f > /dev/null MIME-Version: 1.0 Content-Type: text/plain; charset=UTF-8 Content-Transfer-Encoding: 8bit X-Cron-Env: X-Cron-Env: X-Cron-Env: X-Cron-Env: Message-Id: <20210510062901.874D439546@wam-2.localdomain> Date: Mon, 10 May 2021 02:29:01 -0400 (EDT) % Total % Received % Xferd Average Speed Time Time Time Current Dload Upload Total Spent Left Speed 0 0 0 0 0 0 0 0 --:--:-- --:--:-- --:--:-- 0 100 392 100 392 0 0 3733 0 --:--:-- --:--:-- --:--:-- 3733 From sinton@wam-2.localdomain Mon May 10 02:30:01 2021 Return-Path: X-Original-To: sinton Delivered-To: sinton@wam-2.localdomain Received: by wam-2.localdomain (Postfix, from userid 1001) id C17F9395A5; Mon, 10 May 2021 02:30:01 -0400 (EDT) From: root@wam-2.localdomain (Cron Daemon) To: sinton@wam-2.localdomain Subject: Cron ~/symlinks/TEAM99/ogoakinitchka2.sh 99 0.05 > /dev/null MIME-Version: 1.0 Content-Type: text/plain; charset=UTF-8 Content-Transfer-Encoding: 8bit X-Cron-Env: X-Cron-Env: X-Cron-Env: X-Cron-Env: Message-Id: <20210510063001.C17F9395A5@wam-2.localdomain> Date: Mon, 10 May 2021 02:30:01 -0400 (EDT) /bin/sh: 1: /home/sinton/symlinks/TEAM99/ogoakinitchka2.sh: not found From sinton@wam-2.localdomain Mon May 10 02:30:02 2021 Return-Path: X-Original-To: sinton Delivered-To: sinton@wam-2.localdomain Received: by wam-2.localdomain (Postfix, from userid 1001) id 4024F395DE; Mon, 10 May 2021 02:30:02 -0400 (EDT) From: root@wam-2.localdomain (Cron Daemon) To: sinton@wam-2.localdomain Subject: Cron ~/symlinks/TEAM1F/metin/apiv4.sh 1f > /dev/null MIME-Version: 1.0 Content-Type: text/plain; charset=UTF-8 Content-Transfer-Encoding: 8bit X-Cron-Env: X-Cron-Env: X-Cron-Env: X-Cron-Env: Message-Id: <20210510063002.4024F395DE@wam-2.localdomain> Date: Mon, 10 May 2021 02:30:02 -0400 (EDT) % Total % Received % Xferd Average Speed Time Time Time Current Dload Upload Total Spent Left Speed 0 0 0 0 0 0 0 0 --:--:-- --:--:-- --:--:-- 0 0 0 0 0 0 0 0 0 --:--:-- --:--:-- --:--:-- 0 100 391 100 391 0 0 876 0 --:--:-- --:--:-- --:--:-- 874 From sinton@wam-2.localdomain Mon May 10 02:31:01 2021 Return-Path: X-Original-To: sinton Delivered-To: sinton@wam-2.localdomain Received: by wam-2.localdomain (Postfix, from userid 1001) id 88752395FE; Mon, 10 May 2021 02:31:01 -0400 (EDT) From: root@wam-2.localdomain (Cron Daemon) To: sinton@wam-2.localdomain Subject: Cron ~/symlinks/TEAM99/ogoakinitchka2.sh 99 0.05 > /dev/null MIME-Version: 1.0 Content-Type: text/plain; charset=UTF-8 Content-Transfer-Encoding: 8bit X-Cron-Env: X-Cron-Env: X-Cron-Env: X-Cron-Env: Message-Id: <20210510063101.88752395FE@wam-2.localdomain> Date: Mon, 10 May 2021 02:31:01 -0400 (EDT) /bin/sh: 1: /home/sinton/symlinks/TEAM99/ogoakinitchka2.sh: not found From sinton@wam-2.localdomain Mon May 10 02:31:01 2021 Return-Path: X-Original-To: sinton Delivered-To: sinton@wam-2.localdomain Received: by wam-2.localdomain (Postfix, from userid 1001) id A33C2385F0; Mon, 10 May 2021 02:31:01 -0400 (EDT) From: root@wam-2.localdomain (Cron Daemon) To: sinton@wam-2.localdomain Subject: Cron ~/symlinks/TEAM1F/metin/apiv4.sh 1f > /dev/null MIME-Version: 1.0 Content-Type: text/plain; charset=UTF-8 Content-Transfer-Encoding: 8bit X-Cron-Env: X-Cron-Env: X-Cron-Env: X-Cron-Env: Message-Id: <20210510063101.A33C2385F0@wam-2.localdomain> Date: Mon, 10 May 2021 02:31:01 -0400 (EDT) % Total % Received % Xferd Average Speed Time Time Time Current Dload Upload Total Spent Left Speed 0 0 0 0 0 0 0 0 --:--:-- --:--:-- --:--:-- 0 100 392 100 392 0 0 5681 0 --:--:-- --:--:-- --:--:-- 5681 From sinton@wam-2.localdomain Mon May 10 02:31:21 2021 Return-Path: X-Original-To: sinton Delivered-To: sinton@wam-2.localdomain Received: by wam-2.localdomain (Postfix, from userid 1001) id B60DB384E2; Mon, 10 May 2021 02:31:21 -0400 (EDT) From: root@wam-2.localdomain (Cron Daemon) To: sinton@wam-2.localdomain Subject: Cron bash -c "sleep $[RANDOM%30]m" ; ~/symlinks/TEAM8/fcst/startfcstclim.sh 8 > /dev/null MIME-Version: 1.0 Content-Type: text/plain; charset=UTF-8 Content-Transfer-Encoding: 8bit X-Cron-Env: X-Cron-Env: X-Cron-Env: X-Cron-Env: Message-Id: <20210510063121.B60DB384E2@wam-2.localdomain> Date: Mon, 10 May 2021 02:31:21 -0400 (EDT) % Total % Received % Xferd Average Speed Time Time Time Current Dload Upload Total Spent Left Speed 0 0 0 0 0 0 0 0 --:--:-- --:--:-- --:--:-- 0 19 41644 19 7969 0 0 37589 0 0:00:01 --:--:-- 0:00:01 37413 100 41644 100 41644 0 0 190k 0 --:--:-- --:--:-- --:--:-- 190k From sinton@wam-2.localdomain Mon May 10 02:32:01 2021 Return-Path: X-Original-To: sinton Delivered-To: sinton@wam-2.localdomain Received: by wam-2.localdomain (Postfix, from userid 1001) id E5A27395B0; Mon, 10 May 2021 02:32:01 -0400 (EDT) From: root@wam-2.localdomain (Cron Daemon) To: sinton@wam-2.localdomain Subject: Cron ~/symlinks/TEAM99/ogoakinitchka2.sh 99 0.05 > /dev/null MIME-Version: 1.0 Content-Type: text/plain; charset=UTF-8 Content-Transfer-Encoding: 8bit X-Cron-Env: X-Cron-Env: X-Cron-Env: X-Cron-Env: Message-Id: <20210510063201.E5A27395B0@wam-2.localdomain> Date: Mon, 10 May 2021 02:32:01 -0400 (EDT) /bin/sh: 1: /home/sinton/symlinks/TEAM99/ogoakinitchka2.sh: not found From sinton@wam-2.localdomain Mon May 10 02:32:02 2021 Return-Path: X-Original-To: sinton Delivered-To: sinton@wam-2.localdomain Received: by wam-2.localdomain (Postfix, from userid 1001) id 0BD61395B0; Mon, 10 May 2021 02:32:02 -0400 (EDT) From: root@wam-2.localdomain (Cron Daemon) To: sinton@wam-2.localdomain Subject: Cron ~/symlinks/TEAM1F/metin/apiv4.sh 1f > /dev/null MIME-Version: 1.0 Content-Type: text/plain; charset=UTF-8 Content-Transfer-Encoding: 8bit X-Cron-Env: X-Cron-Env: X-Cron-Env: X-Cron-Env: Message-Id: <20210510063202.0BD61395B0@wam-2.localdomain> Date: Mon, 10 May 2021 02:32:02 -0400 (EDT) % Total % Received % Xferd Average Speed Time Time Time Current Dload Upload Total Spent Left Speed 0 0 0 0 0 0 0 0 --:--:-- --:--:-- --:--:-- 0 100 386 100 386 0 0 5676 0 --:--:-- --:--:-- --:--:-- 5676 From sinton@wam-2.localdomain Mon May 10 02:33:01 2021 Return-Path: X-Original-To: sinton Delivered-To: sinton@wam-2.localdomain Received: by wam-2.localdomain (Postfix, from userid 1001) id 4151B39560; Mon, 10 May 2021 02:33:01 -0400 (EDT) From: root@wam-2.localdomain (Cron Daemon) To: sinton@wam-2.localdomain Subject: Cron ~/symlinks/TEAM99/ogoakinitchka2.sh 99 0.05 > /dev/null MIME-Version: 1.0 Content-Type: text/plain; charset=UTF-8 Content-Transfer-Encoding: 8bit X-Cron-Env: X-Cron-Env: X-Cron-Env: X-Cron-Env: Message-Id: <20210510063301.4151B39560@wam-2.localdomain> Date: Mon, 10 May 2021 02:33:01 -0400 (EDT) /bin/sh: 1: /home/sinton/symlinks/TEAM99/ogoakinitchka2.sh: not found From sinton@wam-2.localdomain Mon May 10 02:33:01 2021 Return-Path: X-Original-To: sinton Delivered-To: sinton@wam-2.localdomain Received: by wam-2.localdomain (Postfix, from userid 1001) id E97D939560; Mon, 10 May 2021 02:33:01 -0400 (EDT) From: root@wam-2.localdomain (Cron Daemon) To: sinton@wam-2.localdomain Subject: Cron ~/symlinks/TEAM1F/metin/apiv4.sh 1f > /dev/null MIME-Version: 1.0 Content-Type: text/plain; charset=UTF-8 Content-Transfer-Encoding: 8bit X-Cron-Env: X-Cron-Env: X-Cron-Env: X-Cron-Env: Message-Id: <20210510063301.E97D939560@wam-2.localdomain> Date: Mon, 10 May 2021 02:33:01 -0400 (EDT) % Total % Received % Xferd Average Speed Time Time Time Current Dload Upload Total Spent Left Speed 0 0 0 0 0 0 0 0 --:--:-- --:--:-- --:--:-- 0 100 386 100 386 0 0 556 0 --:--:-- --:--:-- --:--:-- 556 100 386 100 386 0 0 556 0 --:--:-- --:--:-- --:--:-- 556 From sinton@wam-2.localdomain Mon May 10 02:34:02 2021 Return-Path: X-Original-To: sinton Delivered-To: sinton@wam-2.localdomain Received: by wam-2.localdomain (Postfix, from userid 1001) id 22880395F2; Mon, 10 May 2021 02:34:02 -0400 (EDT) From: root@wam-2.localdomain (Cron Daemon) To: sinton@wam-2.localdomain Subject: Cron ~/symlinks/TEAM99/ogoakinitchka2.sh 99 0.05 > /dev/null MIME-Version: 1.0 Content-Type: text/plain; charset=UTF-8 Content-Transfer-Encoding: 8bit X-Cron-Env: X-Cron-Env: X-Cron-Env: X-Cron-Env: Message-Id: <20210510063402.22880395F2@wam-2.localdomain> Date: Mon, 10 May 2021 02:34:02 -0400 (EDT) /bin/sh: 1: /home/sinton/symlinks/TEAM99/ogoakinitchka2.sh: not found From sinton@wam-2.localdomain Mon May 10 02:34:02 2021 Return-Path: X-Original-To: sinton Delivered-To: sinton@wam-2.localdomain Received: by wam-2.localdomain (Postfix, from userid 1001) id 3A57C395F2; Mon, 10 May 2021 02:34:02 -0400 (EDT) From: root@wam-2.localdomain (Cron Daemon) To: sinton@wam-2.localdomain Subject: Cron ~/symlinks/TEAM1F/metin/apiv4.sh 1f > /dev/null MIME-Version: 1.0 Content-Type: text/plain; charset=UTF-8 Content-Transfer-Encoding: 8bit X-Cron-Env: X-Cron-Env: X-Cron-Env: X-Cron-Env: Message-Id: <20210510063402.3A57C395F2@wam-2.localdomain> Date: Mon, 10 May 2021 02:34:02 -0400 (EDT) % Total % Received % Xferd Average Speed Time Time Time Current Dload Upload Total Spent Left Speed 0 0 0 0 0 0 0 0 --:--:-- --:--:-- --:--:-- 0 100 386 100 386 0 0 5287 0 --:--:-- --:--:-- --:--:-- 5287 From sinton@wam-2.localdomain Mon May 10 02:35:01 2021 Return-Path: X-Original-To: sinton Delivered-To: sinton@wam-2.localdomain Received: by wam-2.localdomain (Postfix, from userid 1001) id 72E1B39612; Mon, 10 May 2021 02:35:01 -0400 (EDT) From: root@wam-2.localdomain (Cron Daemon) To: sinton@wam-2.localdomain Subject: Cron ~/symlinks/TEAM99/ogoakinitchka2.sh 99 0.05 > /dev/null MIME-Version: 1.0 Content-Type: text/plain; charset=UTF-8 Content-Transfer-Encoding: 8bit X-Cron-Env: X-Cron-Env: X-Cron-Env: X-Cron-Env: Message-Id: <20210510063501.72E1B39612@wam-2.localdomain> Date: Mon, 10 May 2021 02:35:01 -0400 (EDT) /bin/sh: 1: /home/sinton/symlinks/TEAM99/ogoakinitchka2.sh: not found From sinton@wam-2.localdomain Mon May 10 02:35:01 2021 Return-Path: X-Original-To: sinton Delivered-To: sinton@wam-2.localdomain Received: by wam-2.localdomain (Postfix, from userid 1001) id 85551395F3; Mon, 10 May 2021 02:35:01 -0400 (EDT) From: root@wam-2.localdomain (Cron Daemon) To: sinton@wam-2.localdomain Subject: Cron ~/symlinks/TEAM1F/metin/apiv4.sh 1f > /dev/null MIME-Version: 1.0 Content-Type: text/plain; charset=UTF-8 Content-Transfer-Encoding: 8bit X-Cron-Env: X-Cron-Env: X-Cron-Env: X-Cron-Env: Message-Id: <20210510063501.85551395F3@wam-2.localdomain> Date: Mon, 10 May 2021 02:35:01 -0400 (EDT) % Total % Received % Xferd Average Speed Time Time Time Current Dload Upload Total Spent Left Speed 0 0 0 0 0 0 0 0 --:--:-- --:--:-- --:--:-- 0 100 387 100 387 0 0 4898 0 --:--:-- --:--:-- --:--:-- 4898 From sinton@wam-2.localdomain Mon May 10 02:36:01 2021 Return-Path: X-Original-To: sinton Delivered-To: sinton@wam-2.localdomain Received: by wam-2.localdomain (Postfix, from userid 1001) id C4A9C3960D; Mon, 10 May 2021 02:36:01 -0400 (EDT) From: root@wam-2.localdomain (Cron Daemon) To: sinton@wam-2.localdomain Subject: Cron ~/symlinks/TEAM99/ogoakinitchka2.sh 99 0.05 > /dev/null MIME-Version: 1.0 Content-Type: text/plain; charset=UTF-8 Content-Transfer-Encoding: 8bit X-Cron-Env: X-Cron-Env: X-Cron-Env: X-Cron-Env: Message-Id: <20210510063601.C4A9C3960D@wam-2.localdomain> Date: Mon, 10 May 2021 02:36:01 -0400 (EDT) /bin/sh: 1: /home/sinton/symlinks/TEAM99/ogoakinitchka2.sh: not found From sinton@wam-2.localdomain Mon May 10 02:36:01 2021 Return-Path: X-Original-To: sinton Delivered-To: sinton@wam-2.localdomain Received: by wam-2.localdomain (Postfix, from userid 1001) id E1A9E395F6; Mon, 10 May 2021 02:36:01 -0400 (EDT) From: root@wam-2.localdomain (Cron Daemon) To: sinton@wam-2.localdomain Subject: Cron ~/symlinks/TEAM1F/metin/apiv4.sh 1f > /dev/null MIME-Version: 1.0 Content-Type: text/plain; charset=UTF-8 Content-Transfer-Encoding: 8bit X-Cron-Env: X-Cron-Env: X-Cron-Env: X-Cron-Env: Message-Id: <20210510063601.E1A9E395F6@wam-2.localdomain> Date: Mon, 10 May 2021 02:36:01 -0400 (EDT) % Total % Received % Xferd Average Speed Time Time Time Current Dload Upload Total Spent Left Speed 0 0 0 0 0 0 0 0 --:--:-- --:--:-- --:--:-- 0 0 0 0 0 0 0 0 0 --:--:-- --:--:-- --:--:-- 0 100 387 100 387 0 0 4552 0 --:--:-- --:--:-- --:--:-- 4552 From sinton@wam-2.localdomain Mon May 10 02:37:02 2021 Return-Path: X-Original-To: sinton Delivered-To: sinton@wam-2.localdomain Received: by wam-2.localdomain (Postfix, from userid 1001) id 202243960B; Mon, 10 May 2021 02:37:02 -0400 (EDT) From: root@wam-2.localdomain (Cron Daemon) To: sinton@wam-2.localdomain Subject: Cron ~/symlinks/TEAM99/ogoakinitchka2.sh 99 0.05 > /dev/null MIME-Version: 1.0 Content-Type: text/plain; charset=UTF-8 Content-Transfer-Encoding: 8bit X-Cron-Env: X-Cron-Env: X-Cron-Env: X-Cron-Env: Message-Id: <20210510063702.202243960B@wam-2.localdomain> Date: Mon, 10 May 2021 02:37:02 -0400 (EDT) /bin/sh: 1: /home/sinton/symlinks/TEAM99/ogoakinitchka2.sh: not found From sinton@wam-2.localdomain Mon May 10 02:37:02 2021 Return-Path: X-Original-To: sinton Delivered-To: sinton@wam-2.localdomain Received: by wam-2.localdomain (Postfix, from userid 1001) id 2FBEA3960B; Mon, 10 May 2021 02:37:02 -0400 (EDT) From: root@wam-2.localdomain (Cron Daemon) To: sinton@wam-2.localdomain Subject: Cron ~/symlinks/TEAM1F/metin/apiv4.sh 1f > /dev/null MIME-Version: 1.0 Content-Type: text/plain; charset=UTF-8 Content-Transfer-Encoding: 8bit X-Cron-Env: X-Cron-Env: X-Cron-Env: X-Cron-Env: Message-Id: <20210510063702.2FBEA3960B@wam-2.localdomain> Date: Mon, 10 May 2021 02:37:02 -0400 (EDT) % Total % Received % Xferd Average Speed Time Time Time Current Dload Upload Total Spent Left Speed 0 0 0 0 0 0 0 0 --:--:-- --:--:-- --:--:-- 0 100 387 100 387 0 0 4961 0 --:--:-- --:--:-- --:--:-- 4961 From sinton@wam-2.localdomain Mon May 10 02:38:01 2021 Return-Path: X-Original-To: sinton Delivered-To: sinton@wam-2.localdomain Received: by wam-2.localdomain (Postfix, from userid 1001) id 63C533960D; Mon, 10 May 2021 02:38:01 -0400 (EDT) From: root@wam-2.localdomain (Cron Daemon) To: sinton@wam-2.localdomain Subject: Cron ~/symlinks/TEAM99/ogoakinitchka2.sh 99 0.05 > /dev/null MIME-Version: 1.0 Content-Type: text/plain; charset=UTF-8 Content-Transfer-Encoding: 8bit X-Cron-Env: X-Cron-Env: X-Cron-Env: X-Cron-Env: Message-Id: <20210510063801.63C533960D@wam-2.localdomain> Date: Mon, 10 May 2021 02:38:01 -0400 (EDT) /bin/sh: 1: /home/sinton/symlinks/TEAM99/ogoakinitchka2.sh: not found From sinton@wam-2.localdomain Mon May 10 02:38:01 2021 Return-Path: X-Original-To: sinton Delivered-To: sinton@wam-2.localdomain Received: by wam-2.localdomain (Postfix, from userid 1001) id 78F373960D; Mon, 10 May 2021 02:38:01 -0400 (EDT) From: root@wam-2.localdomain (Cron Daemon) To: sinton@wam-2.localdomain Subject: Cron ~/symlinks/TEAM1F/metin/apiv4.sh 1f > /dev/null MIME-Version: 1.0 Content-Type: text/plain; charset=UTF-8 Content-Transfer-Encoding: 8bit X-Cron-Env: X-Cron-Env: X-Cron-Env: X-Cron-Env: Message-Id: <20210510063801.78F373960D@wam-2.localdomain> Date: Mon, 10 May 2021 02:38:01 -0400 (EDT) % Total % Received % Xferd Average Speed Time Time Time Current Dload Upload Total Spent Left Speed 0 0 0 0 0 0 0 0 --:--:-- --:--:-- --:--:-- 0 100 382 100 382 0 0 4494 0 --:--:-- --:--:-- --:--:-- 4494 From sinton@wam-2.localdomain Mon May 10 02:39:01 2021 Return-Path: X-Original-To: sinton Delivered-To: sinton@wam-2.localdomain Received: by wam-2.localdomain (Postfix, from userid 1001) id AEE5837BA4; Mon, 10 May 2021 02:39:01 -0400 (EDT) From: root@wam-2.localdomain (Cron Daemon) To: sinton@wam-2.localdomain Subject: Cron ~/symlinks/TEAM99/ogoakinitchka2.sh 99 0.05 > /dev/null MIME-Version: 1.0 Content-Type: text/plain; charset=UTF-8 Content-Transfer-Encoding: 8bit X-Cron-Env: X-Cron-Env: X-Cron-Env: X-Cron-Env: Message-Id: <20210510063901.AEE5837BA4@wam-2.localdomain> Date: Mon, 10 May 2021 02:39:01 -0400 (EDT) /bin/sh: 1: /home/sinton/symlinks/TEAM99/ogoakinitchka2.sh: not found From sinton@wam-2.localdomain Mon May 10 02:39:01 2021 Return-Path: X-Original-To: sinton Delivered-To: sinton@wam-2.localdomain Received: by wam-2.localdomain (Postfix, from userid 1001) id BF44D37BA4; Mon, 10 May 2021 02:39:01 -0400 (EDT) From: root@wam-2.localdomain (Cron Daemon) To: sinton@wam-2.localdomain Subject: Cron ~/symlinks/TEAM1F/metin/apiv4.sh 1f > /dev/null MIME-Version: 1.0 Content-Type: text/plain; charset=UTF-8 Content-Transfer-Encoding: 8bit X-Cron-Env: X-Cron-Env: X-Cron-Env: X-Cron-Env: Message-Id: <20210510063901.BF44D37BA4@wam-2.localdomain> Date: Mon, 10 May 2021 02:39:01 -0400 (EDT) % Total % Received % Xferd Average Speed Time Time Time Current Dload Upload Total Spent Left Speed 0 0 0 0 0 0 0 0 --:--:-- --:--:-- --:--:-- 0 100 383 100 383 0 0 6491 0 --:--:-- --:--:-- --:--:-- 6491 From sinton@wam-2.localdomain Mon May 10 02:40:02 2021 Return-Path: X-Original-To: sinton Delivered-To: sinton@wam-2.localdomain Received: by wam-2.localdomain (Postfix, from userid 1001) id 01E0E38F50; Mon, 10 May 2021 02:40:01 -0400 (EDT) From: root@wam-2.localdomain (Cron Daemon) To: sinton@wam-2.localdomain Subject: Cron ~/symlinks/TEAM99/ogoakinitchka2.sh 99 0.05 > /dev/null MIME-Version: 1.0 Content-Type: text/plain; charset=UTF-8 Content-Transfer-Encoding: 8bit X-Cron-Env: X-Cron-Env: X-Cron-Env: X-Cron-Env: Message-Id: <20210510064002.01E0E38F50@wam-2.localdomain> Date: Mon, 10 May 2021 02:40:01 -0400 (EDT) /bin/sh: 1: /home/sinton/symlinks/TEAM99/ogoakinitchka2.sh: not found From sinton@wam-2.localdomain Mon May 10 02:40:02 2021 Return-Path: X-Original-To: sinton Delivered-To: sinton@wam-2.localdomain Received: by wam-2.localdomain (Postfix, from userid 1001) id 196F238F50; Mon, 10 May 2021 02:40:02 -0400 (EDT) From: root@wam-2.localdomain (Cron Daemon) To: sinton@wam-2.localdomain Subject: Cron ~/symlinks/TEAM1F/metin/apiv4.sh 1f > /dev/null MIME-Version: 1.0 Content-Type: text/plain; charset=UTF-8 Content-Transfer-Encoding: 8bit X-Cron-Env: X-Cron-Env: X-Cron-Env: X-Cron-Env: Message-Id: <20210510064002.196F238F50@wam-2.localdomain> Date: Mon, 10 May 2021 02:40:02 -0400 (EDT) % Total % Received % Xferd Average Speed Time Time Time Current Dload Upload Total Spent Left Speed 0 0 0 0 0 0 0 0 --:--:-- --:--:-- --:--:-- 0 100 383 100 383 0 0 6079 0 --:--:-- --:--:-- --:--:-- 6079 From sinton@wam-2.localdomain Mon May 10 02:40:13 2021 Return-Path: X-Original-To: sinton Delivered-To: sinton@wam-2.localdomain Received: by wam-2.localdomain (Postfix, from userid 1001) id E4BB139624; Mon, 10 May 2021 02:40:13 -0400 (EDT) From: root@wam-2.localdomain (Cron Daemon) To: sinton@wam-2.localdomain Subject: Cron bash -c "sleep $[RANDOM%14]m" ; ~/symlinks/TEAM8/fcst/startfcst.pl 8 > /dev/null MIME-Version: 1.0 Content-Type: text/plain; charset=UTF-8 Content-Transfer-Encoding: 8bit X-Cron-Env: X-Cron-Env: X-Cron-Env: X-Cron-Env: Message-Id: <20210510064013.E4BB139624@wam-2.localdomain> Date: Mon, 10 May 2021 02:40:13 -0400 (EDT) # CSV_XS ERROR: 2034 - EIF - Loose unescaped quote @ rec 0 pos 29 field 1 From sinton@wam-2.localdomain Mon May 10 02:41:02 2021 Return-Path: X-Original-To: sinton Delivered-To: sinton@wam-2.localdomain Received: by wam-2.localdomain (Postfix, from userid 1001) id 316D9392C8; Mon, 10 May 2021 02:41:02 -0400 (EDT) From: root@wam-2.localdomain (Cron Daemon) To: sinton@wam-2.localdomain Subject: Cron ~/symlinks/TEAM99/ogoakinitchka2.sh 99 0.05 > /dev/null MIME-Version: 1.0 Content-Type: text/plain; charset=UTF-8 Content-Transfer-Encoding: 8bit X-Cron-Env: X-Cron-Env: X-Cron-Env: X-Cron-Env: Message-Id: <20210510064102.316D9392C8@wam-2.localdomain> Date: Mon, 10 May 2021 02:41:02 -0400 (EDT) /bin/sh: 1: /home/sinton/symlinks/TEAM99/ogoakinitchka2.sh: not found From sinton@wam-2.localdomain Mon May 10 02:41:02 2021 Return-Path: X-Original-To: sinton Delivered-To: sinton@wam-2.localdomain Received: by wam-2.localdomain (Postfix, from userid 1001) id 45D6A392C8; Mon, 10 May 2021 02:41:02 -0400 (EDT) From: root@wam-2.localdomain (Cron Daemon) To: sinton@wam-2.localdomain Subject: Cron ~/symlinks/TEAM1F/metin/apiv4.sh 1f > /dev/null MIME-Version: 1.0 Content-Type: text/plain; charset=UTF-8 Content-Transfer-Encoding: 8bit X-Cron-Env: X-Cron-Env: X-Cron-Env: X-Cron-Env: Message-Id: <20210510064102.45D6A392C8@wam-2.localdomain> Date: Mon, 10 May 2021 02:41:02 -0400 (EDT) % Total % Received % Xferd Average Speed Time Time Time Current Dload Upload Total Spent Left Speed 0 0 0 0 0 0 0 0 --:--:-- --:--:-- --:--:-- 0 100 383 100 383 0 0 7226 0 --:--:-- --:--:-- --:--:-- 7226 From sinton@wam-2.localdomain Mon May 10 02:42:01 2021 Return-Path: X-Original-To: sinton Delivered-To: sinton@wam-2.localdomain Received: by wam-2.localdomain (Postfix, from userid 1001) id 79A6436525; Mon, 10 May 2021 02:42:01 -0400 (EDT) From: root@wam-2.localdomain (Cron Daemon) To: sinton@wam-2.localdomain Subject: Cron ~/symlinks/TEAM99/ogoakinitchka2.sh 99 0.05 > /dev/null MIME-Version: 1.0 Content-Type: text/plain; charset=UTF-8 Content-Transfer-Encoding: 8bit X-Cron-Env: X-Cron-Env: X-Cron-Env: X-Cron-Env: Message-Id: <20210510064201.79A6436525@wam-2.localdomain> Date: Mon, 10 May 2021 02:42:01 -0400 (EDT) /bin/sh: 1: /home/sinton/symlinks/TEAM99/ogoakinitchka2.sh: not found From sinton@wam-2.localdomain Mon May 10 02:42:01 2021 Return-Path: X-Original-To: sinton Delivered-To: sinton@wam-2.localdomain Received: by wam-2.localdomain (Postfix, from userid 1001) id 8E2643914D; Mon, 10 May 2021 02:42:01 -0400 (EDT) From: root@wam-2.localdomain (Cron Daemon) To: sinton@wam-2.localdomain Subject: Cron ~/symlinks/TEAM1F/metin/apiv4.sh 1f > /dev/null MIME-Version: 1.0 Content-Type: text/plain; charset=UTF-8 Content-Transfer-Encoding: 8bit X-Cron-Env: X-Cron-Env: X-Cron-Env: X-Cron-Env: Message-Id: <20210510064201.8E2643914D@wam-2.localdomain> Date: Mon, 10 May 2021 02:42:01 -0400 (EDT) % Total % Received % Xferd Average Speed Time Time Time Current Dload Upload Total Spent Left Speed 0 0 0 0 0 0 0 0 --:--:-- --:--:-- --:--:-- 0 100 383 100 383 0 0 5803 0 --:--:-- --:--:-- --:--:-- 5803 From sinton@wam-2.localdomain Mon May 10 02:43:01 2021 Return-Path: X-Original-To: sinton Delivered-To: sinton@wam-2.localdomain Received: by wam-2.localdomain (Postfix, from userid 1001) id 8D26F39631; Mon, 10 May 2021 02:43:01 -0400 (EDT) From: root@wam-2.localdomain (Cron Daemon) To: sinton@wam-2.localdomain Subject: Cron ~/symlinks/TEAM99/ogoakinitchka2.sh 99 0.05 > /dev/null MIME-Version: 1.0 Content-Type: text/plain; charset=UTF-8 Content-Transfer-Encoding: 8bit X-Cron-Env: X-Cron-Env: X-Cron-Env: X-Cron-Env: Message-Id: <20210510064301.8D26F39631@wam-2.localdomain> Date: Mon, 10 May 2021 02:43:01 -0400 (EDT) /bin/sh: 1: /home/sinton/symlinks/TEAM99/ogoakinitchka2.sh: not found From sinton@wam-2.localdomain Mon May 10 02:43:01 2021 Return-Path: X-Original-To: sinton Delivered-To: sinton@wam-2.localdomain Received: by wam-2.localdomain (Postfix, from userid 1001) id A148B3962B; Mon, 10 May 2021 02:43:01 -0400 (EDT) From: root@wam-2.localdomain (Cron Daemon) To: sinton@wam-2.localdomain Subject: Cron ~/symlinks/TEAM1F/metin/apiv4.sh 1f > /dev/null MIME-Version: 1.0 Content-Type: text/plain; charset=UTF-8 Content-Transfer-Encoding: 8bit X-Cron-Env: X-Cron-Env: X-Cron-Env: X-Cron-Env: Message-Id: <20210510064301.A148B3962B@wam-2.localdomain> Date: Mon, 10 May 2021 02:43:01 -0400 (EDT) % Total % Received % Xferd Average Speed Time Time Time Current Dload Upload Total Spent Left Speed 0 0 0 0 0 0 0 0 --:--:-- --:--:-- --:--:-- 0 100 382 100 382 0 0 4961 0 --:--:-- --:--:-- --:--:-- 4961 From sinton@wam-2.localdomain Mon May 10 02:43:14 2021 Return-Path: X-Original-To: sinton Delivered-To: sinton@wam-2.localdomain Received: by wam-2.localdomain (Postfix, from userid 1001) id 1DDAE38F50; Mon, 10 May 2021 02:43:14 -0400 (EDT) From: root@wam-2.localdomain (Cron Daemon) To: sinton@wam-2.localdomain Subject: Cron bash -c "sleep $[RANDOM%14]m" ; ~/symlinks/TEAM2/fcst/startfcst.pl 2 > /dev/null MIME-Version: 1.0 Content-Type: text/plain; charset=UTF-8 Content-Transfer-Encoding: 8bit X-Cron-Env: X-Cron-Env: X-Cron-Env: X-Cron-Env: Message-Id: <20210510064314.1DDAE38F50@wam-2.localdomain> Date: Mon, 10 May 2021 02:43:14 -0400 (EDT) # CSV_XS ERROR: 2034 - EIF - Loose unescaped quote @ rec 0 pos 29 field 1 From sinton@wam-2.localdomain Mon May 10 02:44:01 2021 Return-Path: X-Original-To: sinton Delivered-To: sinton@wam-2.localdomain Received: by wam-2.localdomain (Postfix, from userid 1001) id 548193961C; Mon, 10 May 2021 02:44:01 -0400 (EDT) From: root@wam-2.localdomain (Cron Daemon) To: sinton@wam-2.localdomain Subject: Cron ~/symlinks/TEAM99/ogoakinitchka2.sh 99 0.05 > /dev/null MIME-Version: 1.0 Content-Type: text/plain; charset=UTF-8 Content-Transfer-Encoding: 8bit X-Cron-Env: X-Cron-Env: X-Cron-Env: X-Cron-Env: Message-Id: <20210510064401.548193961C@wam-2.localdomain> Date: Mon, 10 May 2021 02:44:01 -0400 (EDT) /bin/sh: 1: /home/sinton/symlinks/TEAM99/ogoakinitchka2.sh: not found From sinton@wam-2.localdomain Mon May 10 02:44:01 2021 Return-Path: X-Original-To: sinton Delivered-To: sinton@wam-2.localdomain Received: by wam-2.localdomain (Postfix, from userid 1001) id 6485639621; Mon, 10 May 2021 02:44:01 -0400 (EDT) From: root@wam-2.localdomain (Cron Daemon) To: sinton@wam-2.localdomain Subject: Cron ~/symlinks/TEAM1F/metin/apiv4.sh 1f > /dev/null MIME-Version: 1.0 Content-Type: text/plain; charset=UTF-8 Content-Transfer-Encoding: 8bit X-Cron-Env: X-Cron-Env: X-Cron-Env: X-Cron-Env: Message-Id: <20210510064401.6485639621@wam-2.localdomain> Date: Mon, 10 May 2021 02:44:01 -0400 (EDT) % Total % Received % Xferd Average Speed Time Time Time Current Dload Upload Total Spent Left Speed 0 0 0 0 0 0 0 0 --:--:-- --:--:-- --:--:-- 0 100 383 100 383 0 0 5394 0 --:--:-- --:--:-- --:--:-- 5394 From sinton@wam-2.localdomain Mon May 10 02:45:01 2021 Return-Path: X-Original-To: sinton Delivered-To: sinton@wam-2.localdomain Received: by wam-2.localdomain (Postfix, from userid 1001) id 8E4B639624; Mon, 10 May 2021 02:45:01 -0400 (EDT) From: root@wam-2.localdomain (Cron Daemon) To: sinton@wam-2.localdomain Subject: Cron ~/symlinks/TEAM99/ogoakinitchka2.sh 99 0.05 > /dev/null MIME-Version: 1.0 Content-Type: text/plain; charset=UTF-8 Content-Transfer-Encoding: 8bit X-Cron-Env: X-Cron-Env: X-Cron-Env: X-Cron-Env: Message-Id: <20210510064501.8E4B639624@wam-2.localdomain> Date: Mon, 10 May 2021 02:45:01 -0400 (EDT) /bin/sh: 1: /home/sinton/symlinks/TEAM99/ogoakinitchka2.sh: not found From sinton@wam-2.localdomain Mon May 10 02:45:01 2021 Return-Path: X-Original-To: sinton Delivered-To: sinton@wam-2.localdomain Received: by wam-2.localdomain (Postfix, from userid 1001) id BD75E39624; Mon, 10 May 2021 02:45:01 -0400 (EDT) From: root@wam-2.localdomain (Cron Daemon) To: sinton@wam-2.localdomain Subject: Cron ~/symlinks/TEAM1F/metin/apiv4.sh 1f > /dev/null MIME-Version: 1.0 Content-Type: text/plain; charset=UTF-8 Content-Transfer-Encoding: 8bit X-Cron-Env: X-Cron-Env: X-Cron-Env: X-Cron-Env: Message-Id: <20210510064501.BD75E39624@wam-2.localdomain> Date: Mon, 10 May 2021 02:45:01 -0400 (EDT) % Total % Received % Xferd Average Speed Time Time Time Current Dload Upload Total Spent Left Speed 0 0 0 0 0 0 0 0 --:--:-- --:--:-- --:--:-- 0 100 383 100 383 0 0 2795 0 --:--:-- --:--:-- --:--:-- 2795 From sinton@wam-2.localdomain Mon May 10 02:46:02 2021 Return-Path: X-Original-To: sinton Delivered-To: sinton@wam-2.localdomain Received: by wam-2.localdomain (Postfix, from userid 1001) id 139AB3961F; Mon, 10 May 2021 02:46:02 -0400 (EDT) From: root@wam-2.localdomain (Cron Daemon) To: sinton@wam-2.localdomain Subject: Cron ~/symlinks/TEAM99/ogoakinitchka2.sh 99 0.05 > /dev/null MIME-Version: 1.0 Content-Type: text/plain; charset=UTF-8 Content-Transfer-Encoding: 8bit X-Cron-Env: X-Cron-Env: X-Cron-Env: X-Cron-Env: Message-Id: <20210510064602.139AB3961F@wam-2.localdomain> Date: Mon, 10 May 2021 02:46:02 -0400 (EDT) /bin/sh: 1: /home/sinton/symlinks/TEAM99/ogoakinitchka2.sh: not found From sinton@wam-2.localdomain Mon May 10 02:46:02 2021 Return-Path: X-Original-To: sinton Delivered-To: sinton@wam-2.localdomain Received: by wam-2.localdomain (Postfix, from userid 1001) id 20C3D39628; Mon, 10 May 2021 02:46:02 -0400 (EDT) From: root@wam-2.localdomain (Cron Daemon) To: sinton@wam-2.localdomain Subject: Cron ~/symlinks/TEAM1F/metin/apiv4.sh 1f > /dev/null MIME-Version: 1.0 Content-Type: text/plain; charset=UTF-8 Content-Transfer-Encoding: 8bit X-Cron-Env: X-Cron-Env: X-Cron-Env: X-Cron-Env: Message-Id: <20210510064602.20C3D39628@wam-2.localdomain> Date: Mon, 10 May 2021 02:46:02 -0400 (EDT) % Total % Received % Xferd Average Speed Time Time Time Current Dload Upload Total Spent Left Speed 0 0 0 0 0 0 0 0 --:--:-- --:--:-- --:--:-- 0 100 383 100 383 0 0 6177 0 --:--:-- --:--:-- --:--:-- 6177 From sinton@wam-2.localdomain Mon May 10 02:47:01 2021 Return-Path: X-Original-To: sinton Delivered-To: sinton@wam-2.localdomain Received: by wam-2.localdomain (Postfix, from userid 1001) id 5487339612; Mon, 10 May 2021 02:47:01 -0400 (EDT) From: root@wam-2.localdomain (Cron Daemon) To: sinton@wam-2.localdomain Subject: Cron ~/symlinks/TEAM99/ogoakinitchka2.sh 99 0.05 > /dev/null MIME-Version: 1.0 Content-Type: text/plain; charset=UTF-8 Content-Transfer-Encoding: 8bit X-Cron-Env: X-Cron-Env: X-Cron-Env: X-Cron-Env: Message-Id: <20210510064701.5487339612@wam-2.localdomain> Date: Mon, 10 May 2021 02:47:01 -0400 (EDT) /bin/sh: 1: /home/sinton/symlinks/TEAM99/ogoakinitchka2.sh: not found From sinton@wam-2.localdomain Mon May 10 02:47:01 2021 Return-Path: X-Original-To: sinton Delivered-To: sinton@wam-2.localdomain Received: by wam-2.localdomain (Postfix, from userid 1001) id 65DA239626; Mon, 10 May 2021 02:47:01 -0400 (EDT) From: root@wam-2.localdomain (Cron Daemon) To: sinton@wam-2.localdomain Subject: Cron ~/symlinks/TEAM1F/metin/apiv4.sh 1f > /dev/null MIME-Version: 1.0 Content-Type: text/plain; charset=UTF-8 Content-Transfer-Encoding: 8bit X-Cron-Env: X-Cron-Env: X-Cron-Env: X-Cron-Env: Message-Id: <20210510064701.65DA239626@wam-2.localdomain> Date: Mon, 10 May 2021 02:47:01 -0400 (EDT) % Total % Received % Xferd Average Speed Time Time Time Current Dload Upload Total Spent Left Speed 0 0 0 0 0 0 0 0 --:--:-- --:--:-- --:--:-- 0 100 383 100 383 0 0 5394 0 --:--:-- --:--:-- --:--:-- 5394 From sinton@wam-2.localdomain Mon May 10 02:48:01 2021 Return-Path: X-Original-To: sinton Delivered-To: sinton@wam-2.localdomain Received: by wam-2.localdomain (Postfix, from userid 1001) id 9D10239633; Mon, 10 May 2021 02:48:01 -0400 (EDT) From: root@wam-2.localdomain (Cron Daemon) To: sinton@wam-2.localdomain Subject: Cron ~/symlinks/TEAM99/ogoakinitchka2.sh 99 0.05 > /dev/null MIME-Version: 1.0 Content-Type: text/plain; charset=UTF-8 Content-Transfer-Encoding: 8bit X-Cron-Env: X-Cron-Env: X-Cron-Env: X-Cron-Env: Message-Id: <20210510064801.9D10239633@wam-2.localdomain> Date: Mon, 10 May 2021 02:48:01 -0400 (EDT) /bin/sh: 1: /home/sinton/symlinks/TEAM99/ogoakinitchka2.sh: not found From sinton@wam-2.localdomain Mon May 10 02:48:01 2021 Return-Path: X-Original-To: sinton Delivered-To: sinton@wam-2.localdomain Received: by wam-2.localdomain (Postfix, from userid 1001) id A861939633; Mon, 10 May 2021 02:48:01 -0400 (EDT) From: root@wam-2.localdomain (Cron Daemon) To: sinton@wam-2.localdomain Subject: Cron ~/symlinks/TEAM1F/metin/apiv4.sh 1f > /dev/null MIME-Version: 1.0 Content-Type: text/plain; charset=UTF-8 Content-Transfer-Encoding: 8bit X-Cron-Env: X-Cron-Env: X-Cron-Env: X-Cron-Env: Message-Id: <20210510064801.A861939633@wam-2.localdomain> Date: Mon, 10 May 2021 02:48:01 -0400 (EDT) % Total % Received % Xferd Average Speed Time Time Time Current Dload Upload Total Spent Left Speed 0 0 0 0 0 0 0 0 --:--:-- --:--:-- --:--:-- 0 100 383 100 383 0 0 5716 0 --:--:-- --:--:-- --:--:-- 5716 From sinton@wam-2.localdomain Mon May 10 02:49:01 2021 Return-Path: X-Original-To: sinton Delivered-To: sinton@wam-2.localdomain Received: by wam-2.localdomain (Postfix, from userid 1001) id DDD7138DE2; Mon, 10 May 2021 02:49:01 -0400 (EDT) From: root@wam-2.localdomain (Cron Daemon) To: sinton@wam-2.localdomain Subject: Cron ~/symlinks/TEAM99/ogoakinitchka2.sh 99 0.05 > /dev/null MIME-Version: 1.0 Content-Type: text/plain; charset=UTF-8 Content-Transfer-Encoding: 8bit X-Cron-Env: X-Cron-Env: X-Cron-Env: X-Cron-Env: Message-Id: <20210510064901.DDD7138DE2@wam-2.localdomain> Date: Mon, 10 May 2021 02:49:01 -0400 (EDT) /bin/sh: 1: /home/sinton/symlinks/TEAM99/ogoakinitchka2.sh: not found From sinton@wam-2.localdomain Mon May 10 02:49:01 2021 Return-Path: X-Original-To: sinton Delivered-To: sinton@wam-2.localdomain Received: by wam-2.localdomain (Postfix, from userid 1001) id ED0C938DE2; Mon, 10 May 2021 02:49:01 -0400 (EDT) From: root@wam-2.localdomain (Cron Daemon) To: sinton@wam-2.localdomain Subject: Cron ~/symlinks/TEAM1F/metin/apiv4.sh 1f > /dev/null MIME-Version: 1.0 Content-Type: text/plain; charset=UTF-8 Content-Transfer-Encoding: 8bit X-Cron-Env: X-Cron-Env: X-Cron-Env: X-Cron-Env: Message-Id: <20210510064901.ED0C938DE2@wam-2.localdomain> Date: Mon, 10 May 2021 02:49:01 -0400 (EDT) % Total % Received % Xferd Average Speed Time Time Time Current Dload Upload Total Spent Left Speed 0 0 0 0 0 0 0 0 --:--:-- --:--:-- --:--:-- 0 100 383 100 383 0 0 5471 0 --:--:-- --:--:-- --:--:-- 5471 From sinton@wam-2.localdomain Mon May 10 02:50:02 2021 Return-Path: X-Original-To: sinton Delivered-To: sinton@wam-2.localdomain Received: by wam-2.localdomain (Postfix, from userid 1001) id 2F64D39640; Mon, 10 May 2021 02:50:02 -0400 (EDT) From: root@wam-2.localdomain (Cron Daemon) To: sinton@wam-2.localdomain Subject: Cron ~/symlinks/TEAM99/ogoakinitchka2.sh 99 0.05 > /dev/null MIME-Version: 1.0 Content-Type: text/plain; charset=UTF-8 Content-Transfer-Encoding: 8bit X-Cron-Env: X-Cron-Env: X-Cron-Env: X-Cron-Env: Message-Id: <20210510065002.2F64D39640@wam-2.localdomain> Date: Mon, 10 May 2021 02:50:02 -0400 (EDT) /bin/sh: 1: /home/sinton/symlinks/TEAM99/ogoakinitchka2.sh: not found From sinton@wam-2.localdomain Mon May 10 02:50:02 2021 Return-Path: X-Original-To: sinton Delivered-To: sinton@wam-2.localdomain Received: by wam-2.localdomain (Postfix, from userid 1001) id 442D539640; Mon, 10 May 2021 02:50:02 -0400 (EDT) From: root@wam-2.localdomain (Cron Daemon) To: sinton@wam-2.localdomain Subject: Cron ~/symlinks/TEAM1F/metin/apiv4.sh 1f > /dev/null MIME-Version: 1.0 Content-Type: text/plain; charset=UTF-8 Content-Transfer-Encoding: 8bit X-Cron-Env: X-Cron-Env: X-Cron-Env: X-Cron-Env: Message-Id: <20210510065002.442D539640@wam-2.localdomain> Date: Mon, 10 May 2021 02:50:02 -0400 (EDT) % Total % Received % Xferd Average Speed Time Time Time Current Dload Upload Total Spent Left Speed 0 0 0 0 0 0 0 0 --:--:-- --:--:-- --:--:-- 0 100 387 100 387 0 0 4073 0 --:--:-- --:--:-- --:--:-- 4073 From sinton@wam-2.localdomain Mon May 10 02:51:01 2021 Return-Path: X-Original-To: sinton Delivered-To: sinton@wam-2.localdomain Received: by wam-2.localdomain (Postfix, from userid 1001) id 8F7F139626; Mon, 10 May 2021 02:51:01 -0400 (EDT) From: root@wam-2.localdomain (Cron Daemon) To: sinton@wam-2.localdomain Subject: Cron ~/symlinks/TEAM99/ogoakinitchka2.sh 99 0.05 > /dev/null MIME-Version: 1.0 Content-Type: text/plain; charset=UTF-8 Content-Transfer-Encoding: 8bit X-Cron-Env: X-Cron-Env: X-Cron-Env: X-Cron-Env: Message-Id: <20210510065101.8F7F139626@wam-2.localdomain> Date: Mon, 10 May 2021 02:51:01 -0400 (EDT) /bin/sh: 1: /home/sinton/symlinks/TEAM99/ogoakinitchka2.sh: not found From sinton@wam-2.localdomain Mon May 10 02:51:01 2021 Return-Path: X-Original-To: sinton Delivered-To: sinton@wam-2.localdomain Received: by wam-2.localdomain (Postfix, from userid 1001) id A5AFB39611; Mon, 10 May 2021 02:51:01 -0400 (EDT) From: root@wam-2.localdomain (Cron Daemon) To: sinton@wam-2.localdomain Subject: Cron ~/symlinks/TEAM1F/metin/apiv4.sh 1f > /dev/null MIME-Version: 1.0 Content-Type: text/plain; charset=UTF-8 Content-Transfer-Encoding: 8bit X-Cron-Env: X-Cron-Env: X-Cron-Env: X-Cron-Env: Message-Id: <20210510065101.A5AFB39611@wam-2.localdomain> Date: Mon, 10 May 2021 02:51:01 -0400 (EDT) % Total % Received % Xferd Average Speed Time Time Time Current Dload Upload Total Spent Left Speed 0 0 0 0 0 0 0 0 --:--:-- --:--:-- --:--:-- 0 100 388 100 388 0 0 6258 0 --:--:-- --:--:-- --:--:-- 6258 From sinton@wam-2.localdomain Mon May 10 02:52:01 2021 Return-Path: X-Original-To: sinton Delivered-To: sinton@wam-2.localdomain Received: by wam-2.localdomain (Postfix, from userid 1001) id DCF983960B; Mon, 10 May 2021 02:52:01 -0400 (EDT) From: root@wam-2.localdomain (Cron Daemon) To: sinton@wam-2.localdomain Subject: Cron ~/symlinks/TEAM99/ogoakinitchka2.sh 99 0.05 > /dev/null MIME-Version: 1.0 Content-Type: text/plain; charset=UTF-8 Content-Transfer-Encoding: 8bit X-Cron-Env: X-Cron-Env: X-Cron-Env: X-Cron-Env: Message-Id: <20210510065201.DCF983960B@wam-2.localdomain> Date: Mon, 10 May 2021 02:52:01 -0400 (EDT) /bin/sh: 1: /home/sinton/symlinks/TEAM99/ogoakinitchka2.sh: not found From sinton@wam-2.localdomain Mon May 10 02:52:02 2021 Return-Path: X-Original-To: sinton Delivered-To: sinton@wam-2.localdomain Received: by wam-2.localdomain (Postfix, from userid 1001) id F40823960B; Mon, 10 May 2021 02:52:01 -0400 (EDT) From: root@wam-2.localdomain (Cron Daemon) To: sinton@wam-2.localdomain Subject: Cron ~/symlinks/TEAM1F/metin/apiv4.sh 1f > /dev/null MIME-Version: 1.0 Content-Type: text/plain; charset=UTF-8 Content-Transfer-Encoding: 8bit X-Cron-Env: X-Cron-Env: X-Cron-Env: X-Cron-Env: Message-Id: <20210510065201.F40823960B@wam-2.localdomain> Date: Mon, 10 May 2021 02:52:01 -0400 (EDT) % Total % Received % Xferd Average Speed Time Time Time Current Dload Upload Total Spent Left Speed 0 0 0 0 0 0 0 0 --:--:-- --:--:-- --:--:-- 0 100 389 100 389 0 0 5637 0 --:--:-- --:--:-- --:--:-- 5637 From sinton@wam-2.localdomain Mon May 10 02:52:17 2021 Return-Path: X-Original-To: sinton Delivered-To: sinton@wam-2.localdomain Received: by wam-2.localdomain (Postfix, from userid 1001) id A852E3964A; Mon, 10 May 2021 02:52:17 -0400 (EDT) From: root@wam-2.localdomain (Cron Daemon) To: sinton@wam-2.localdomain Subject: Cron bash -c "sleep $[RANDOM%14]m" ; ~/symlinks/TEAM1/fcst/startfcst.pl 1 > /dev/null MIME-Version: 1.0 Content-Type: text/plain; charset=UTF-8 Content-Transfer-Encoding: 8bit X-Cron-Env: X-Cron-Env: X-Cron-Env: X-Cron-Env: Message-Id: <20210510065217.A852E3964A@wam-2.localdomain> Date: Mon, 10 May 2021 02:52:17 -0400 (EDT) # CSV_XS ERROR: 2034 - EIF - Loose unescaped quote @ rec 0 pos 29 field 1 From sinton@wam-2.localdomain Mon May 10 02:53:01 2021 Return-Path: X-Original-To: sinton Delivered-To: sinton@wam-2.localdomain Received: by wam-2.localdomain (Postfix, from userid 1001) id E1F1B39531; Mon, 10 May 2021 02:53:01 -0400 (EDT) From: root@wam-2.localdomain (Cron Daemon) To: sinton@wam-2.localdomain Subject: Cron ~/symlinks/TEAM99/ogoakinitchka2.sh 99 0.05 > /dev/null MIME-Version: 1.0 Content-Type: text/plain; charset=UTF-8 Content-Transfer-Encoding: 8bit X-Cron-Env: X-Cron-Env: X-Cron-Env: X-Cron-Env: Message-Id: <20210510065301.E1F1B39531@wam-2.localdomain> Date: Mon, 10 May 2021 02:53:01 -0400 (EDT) /bin/sh: 1: /home/sinton/symlinks/TEAM99/ogoakinitchka2.sh: not found From sinton@wam-2.localdomain Mon May 10 02:53:01 2021 Return-Path: X-Original-To: sinton Delivered-To: sinton@wam-2.localdomain Received: by wam-2.localdomain (Postfix, from userid 1001) id EF5B239531; Mon, 10 May 2021 02:53:01 -0400 (EDT) From: root@wam-2.localdomain (Cron Daemon) To: sinton@wam-2.localdomain Subject: Cron ~/symlinks/TEAM1F/metin/apiv4.sh 1f > /dev/null MIME-Version: 1.0 Content-Type: text/plain; charset=UTF-8 Content-Transfer-Encoding: 8bit X-Cron-Env: X-Cron-Env: X-Cron-Env: X-Cron-Env: Message-Id: <20210510065301.EF5B239531@wam-2.localdomain> Date: Mon, 10 May 2021 02:53:01 -0400 (EDT) % Total % Received % Xferd Average Speed Time Time Time Current Dload Upload Total Spent Left Speed 0 0 0 0 0 0 0 0 --:--:-- --:--:-- --:--:-- 0 100 392 100 392 0 0 6030 0 --:--:-- --:--:-- --:--:-- 6125 From sinton@wam-2.localdomain Mon May 10 02:54:02 2021 Return-Path: X-Original-To: sinton Delivered-To: sinton@wam-2.localdomain Received: by wam-2.localdomain (Postfix, from userid 1001) id 2E511395F9; Mon, 10 May 2021 02:54:02 -0400 (EDT) From: root@wam-2.localdomain (Cron Daemon) To: sinton@wam-2.localdomain Subject: Cron ~/symlinks/TEAM99/ogoakinitchka2.sh 99 0.05 > /dev/null MIME-Version: 1.0 Content-Type: text/plain; charset=UTF-8 Content-Transfer-Encoding: 8bit X-Cron-Env: X-Cron-Env: X-Cron-Env: X-Cron-Env: Message-Id: <20210510065402.2E511395F9@wam-2.localdomain> Date: Mon, 10 May 2021 02:54:02 -0400 (EDT) /bin/sh: 1: /home/sinton/symlinks/TEAM99/ogoakinitchka2.sh: not found From sinton@wam-2.localdomain Mon May 10 02:54:02 2021 Return-Path: X-Original-To: sinton Delivered-To: sinton@wam-2.localdomain Received: by wam-2.localdomain (Postfix, from userid 1001) id 41BF7395F9; Mon, 10 May 2021 02:54:02 -0400 (EDT) From: root@wam-2.localdomain (Cron Daemon) To: sinton@wam-2.localdomain Subject: Cron ~/symlinks/TEAM1F/metin/apiv4.sh 1f > /dev/null MIME-Version: 1.0 Content-Type: text/plain; charset=UTF-8 Content-Transfer-Encoding: 8bit X-Cron-Env: X-Cron-Env: X-Cron-Env: X-Cron-Env: Message-Id: <20210510065402.41BF7395F9@wam-2.localdomain> Date: Mon, 10 May 2021 02:54:02 -0400 (EDT) % Total % Received % Xferd Average Speed Time Time Time Current Dload Upload Total Spent Left Speed 0 0 0 0 0 0 0 0 --:--:-- --:--:-- --:--:-- 0 100 387 100 387 0 0 5450 0 --:--:-- --:--:-- --:--:-- 5450 From sinton@wam-2.localdomain Mon May 10 02:55:01 2021 Return-Path: X-Original-To: sinton Delivered-To: sinton@wam-2.localdomain Received: by wam-2.localdomain (Postfix, from userid 1001) id 790483960F; Mon, 10 May 2021 02:55:01 -0400 (EDT) From: root@wam-2.localdomain (Cron Daemon) To: sinton@wam-2.localdomain Subject: Cron ~/symlinks/TEAM99/ogoakinitchka2.sh 99 0.05 > /dev/null MIME-Version: 1.0 Content-Type: text/plain; charset=UTF-8 Content-Transfer-Encoding: 8bit X-Cron-Env: X-Cron-Env: X-Cron-Env: X-Cron-Env: Message-Id: <20210510065501.790483960F@wam-2.localdomain> Date: Mon, 10 May 2021 02:55:01 -0400 (EDT) /bin/sh: 1: /home/sinton/symlinks/TEAM99/ogoakinitchka2.sh: not found From sinton@wam-2.localdomain Mon May 10 02:55:01 2021 Return-Path: X-Original-To: sinton Delivered-To: sinton@wam-2.localdomain Received: by wam-2.localdomain (Postfix, from userid 1001) id A71F03960F; Mon, 10 May 2021 02:55:01 -0400 (EDT) From: root@wam-2.localdomain (Cron Daemon) To: sinton@wam-2.localdomain Subject: Cron ~/symlinks/TEAM1F/metin/apiv4.sh 1f > /dev/null MIME-Version: 1.0 Content-Type: text/plain; charset=UTF-8 Content-Transfer-Encoding: 8bit X-Cron-Env: X-Cron-Env: X-Cron-Env: X-Cron-Env: Message-Id: <20210510065501.A71F03960F@wam-2.localdomain> Date: Mon, 10 May 2021 02:55:01 -0400 (EDT) % Total % Received % Xferd Average Speed Time Time Time Current Dload Upload Total Spent Left Speed 0 0 0 0 0 0 0 0 --:--:-- --:--:-- --:--:-- 0 100 386 100 386 0 0 2097 0 --:--:-- --:--:-- --:--:-- 2097 From sinton@wam-2.localdomain Mon May 10 02:56:01 2021 Return-Path: X-Original-To: sinton Delivered-To: sinton@wam-2.localdomain Received: by wam-2.localdomain (Postfix, from userid 1001) id 5A6623965E; Mon, 10 May 2021 02:56:01 -0400 (EDT) From: root@wam-2.localdomain (Cron Daemon) To: sinton@wam-2.localdomain Subject: Cron ~/symlinks/TEAM99/ogoakinitchka2.sh 99 0.05 > /dev/null MIME-Version: 1.0 Content-Type: text/plain; charset=UTF-8 Content-Transfer-Encoding: 8bit X-Cron-Env: X-Cron-Env: X-Cron-Env: X-Cron-Env: Message-Id: <20210510065601.5A6623965E@wam-2.localdomain> Date: Mon, 10 May 2021 02:56:01 -0400 (EDT) /bin/sh: 1: /home/sinton/symlinks/TEAM99/ogoakinitchka2.sh: not found From sinton@wam-2.localdomain Mon May 10 02:56:01 2021 Return-Path: X-Original-To: sinton Delivered-To: sinton@wam-2.localdomain Received: by wam-2.localdomain (Postfix, from userid 1001) id 66DFF3965E; Mon, 10 May 2021 02:56:01 -0400 (EDT) From: root@wam-2.localdomain (Cron Daemon) To: sinton@wam-2.localdomain Subject: Cron ~/symlinks/TEAM1F/metin/apiv4.sh 1f > /dev/null MIME-Version: 1.0 Content-Type: text/plain; charset=UTF-8 Content-Transfer-Encoding: 8bit X-Cron-Env: X-Cron-Env: X-Cron-Env: X-Cron-Env: Message-Id: <20210510065601.66DFF3965E@wam-2.localdomain> Date: Mon, 10 May 2021 02:56:01 -0400 (EDT) % Total % Received % Xferd Average Speed Time Time Time Current Dload Upload Total Spent Left Speed 0 0 0 0 0 0 0 0 --:--:-- --:--:-- --:--:-- 0 100 387 100 387 0 0 5025 0 --:--:-- --:--:-- --:--:-- 5025 From sinton@wam-2.localdomain Mon May 10 02:57:01 2021 Return-Path: X-Original-To: sinton Delivered-To: sinton@wam-2.localdomain Received: by wam-2.localdomain (Postfix, from userid 1001) id 473F039654; Mon, 10 May 2021 02:57:01 -0400 (EDT) From: root@wam-2.localdomain (Cron Daemon) To: sinton@wam-2.localdomain Subject: Cron ~/symlinks/TEAM99/ogoakinitchka2.sh 99 0.05 > /dev/null MIME-Version: 1.0 Content-Type: text/plain; charset=UTF-8 Content-Transfer-Encoding: 8bit X-Cron-Env: X-Cron-Env: X-Cron-Env: X-Cron-Env: Message-Id: <20210510065701.473F039654@wam-2.localdomain> Date: Mon, 10 May 2021 02:57:01 -0400 (EDT) /bin/sh: 1: /home/sinton/symlinks/TEAM99/ogoakinitchka2.sh: not found From sinton@wam-2.localdomain Mon May 10 02:57:01 2021 Return-Path: X-Original-To: sinton Delivered-To: sinton@wam-2.localdomain Received: by wam-2.localdomain (Postfix, from userid 1001) id 5B51239654; Mon, 10 May 2021 02:57:01 -0400 (EDT) From: root@wam-2.localdomain (Cron Daemon) To: sinton@wam-2.localdomain Subject: Cron ~/symlinks/TEAM1F/metin/apiv4.sh 1f > /dev/null MIME-Version: 1.0 Content-Type: text/plain; charset=UTF-8 Content-Transfer-Encoding: 8bit X-Cron-Env: X-Cron-Env: X-Cron-Env: X-Cron-Env: Message-Id: <20210510065701.5B51239654@wam-2.localdomain> Date: Mon, 10 May 2021 02:57:01 -0400 (EDT) % Total % Received % Xferd Average Speed Time Time Time Current Dload Upload Total Spent Left Speed 0 0 0 0 0 0 0 0 --:--:-- --:--:-- --:--:-- 0 100 386 100 386 0 0 5848 0 --:--:-- --:--:-- --:--:-- 5848 From sinton@wam-2.localdomain Mon May 10 02:58:01 2021 Return-Path: X-Original-To: sinton Delivered-To: sinton@wam-2.localdomain Received: by wam-2.localdomain (Postfix, from userid 1001) id 8B7443963B; Mon, 10 May 2021 02:58:01 -0400 (EDT) From: root@wam-2.localdomain (Cron Daemon) To: sinton@wam-2.localdomain Subject: Cron ~/symlinks/TEAM99/ogoakinitchka2.sh 99 0.05 > /dev/null MIME-Version: 1.0 Content-Type: text/plain; charset=UTF-8 Content-Transfer-Encoding: 8bit X-Cron-Env: X-Cron-Env: X-Cron-Env: X-Cron-Env: Message-Id: <20210510065801.8B7443963B@wam-2.localdomain> Date: Mon, 10 May 2021 02:58:01 -0400 (EDT) /bin/sh: 1: /home/sinton/symlinks/TEAM99/ogoakinitchka2.sh: not found From sinton@wam-2.localdomain Mon May 10 02:58:01 2021 Return-Path: X-Original-To: sinton Delivered-To: sinton@wam-2.localdomain Received: by wam-2.localdomain (Postfix, from userid 1001) id A37293963B; Mon, 10 May 2021 02:58:01 -0400 (EDT) From: root@wam-2.localdomain (Cron Daemon) To: sinton@wam-2.localdomain Subject: Cron ~/symlinks/TEAM1F/metin/apiv4.sh 1f > /dev/null MIME-Version: 1.0 Content-Type: text/plain; charset=UTF-8 Content-Transfer-Encoding: 8bit X-Cron-Env: X-Cron-Env: X-Cron-Env: X-Cron-Env: Message-Id: <20210510065801.A37293963B@wam-2.localdomain> Date: Mon, 10 May 2021 02:58:01 -0400 (EDT) % Total % Received % Xferd Average Speed Time Time Time Current Dload Upload Total Spent Left Speed 0 0 0 0 0 0 0 0 --:--:-- --:--:-- --:--:-- 0 100 387 100 387 0 0 5229 0 --:--:-- --:--:-- --:--:-- 5229 From sinton@wam-2.localdomain Mon May 10 02:59:01 2021 Return-Path: X-Original-To: sinton Delivered-To: sinton@wam-2.localdomain Received: by wam-2.localdomain (Postfix, from userid 1001) id D32BA39662; Mon, 10 May 2021 02:59:01 -0400 (EDT) From: root@wam-2.localdomain (Cron Daemon) To: sinton@wam-2.localdomain Subject: Cron ~/symlinks/TEAM99/ogoakinitchka2.sh 99 0.05 > /dev/null MIME-Version: 1.0 Content-Type: text/plain; charset=UTF-8 Content-Transfer-Encoding: 8bit X-Cron-Env: X-Cron-Env: X-Cron-Env: X-Cron-Env: Message-Id: <20210510065901.D32BA39662@wam-2.localdomain> Date: Mon, 10 May 2021 02:59:01 -0400 (EDT) /bin/sh: 1: /home/sinton/symlinks/TEAM99/ogoakinitchka2.sh: not found From sinton@wam-2.localdomain Mon May 10 02:59:01 2021 Return-Path: X-Original-To: sinton Delivered-To: sinton@wam-2.localdomain Received: by wam-2.localdomain (Postfix, from userid 1001) id E9EED39662; Mon, 10 May 2021 02:59:01 -0400 (EDT) From: root@wam-2.localdomain (Cron Daemon) To: sinton@wam-2.localdomain Subject: Cron ~/symlinks/TEAM1F/metin/apiv4.sh 1f > /dev/null MIME-Version: 1.0 Content-Type: text/plain; charset=UTF-8 Content-Transfer-Encoding: 8bit X-Cron-Env: X-Cron-Env: X-Cron-Env: X-Cron-Env: Message-Id: <20210510065901.E9EED39662@wam-2.localdomain> Date: Mon, 10 May 2021 02:59:01 -0400 (EDT) % Total % Received % Xferd Average Speed Time Time Time Current Dload Upload Total Spent Left Speed 0 0 0 0 0 0 0 0 --:--:-- --:--:-- --:--:-- 0 0 0 0 0 0 0 0 0 --:--:-- --:--:-- --:--:-- 0 100 387 100 387 0 0 4719 0 --:--:-- --:--:-- --:--:-- 4662 From sinton@wam-2.localdomain Mon May 10 03:00:02 2021 Return-Path: X-Original-To: sinton Delivered-To: sinton@wam-2.localdomain Received: by wam-2.localdomain (Postfix, from userid 1001) id 32D4939671; Mon, 10 May 2021 03:00:02 -0400 (EDT) From: root@wam-2.localdomain (Cron Daemon) To: sinton@wam-2.localdomain Subject: Cron ~/symlinks/TEAM99/ogoakinitchka2.sh 99 0.05 > /dev/null MIME-Version: 1.0 Content-Type: text/plain; charset=UTF-8 Content-Transfer-Encoding: 8bit X-Cron-Env: X-Cron-Env: X-Cron-Env: X-Cron-Env: Message-Id: <20210510070002.32D4939671@wam-2.localdomain> Date: Mon, 10 May 2021 03:00:02 -0400 (EDT) /bin/sh: 1: /home/sinton/symlinks/TEAM99/ogoakinitchka2.sh: not found From sinton@wam-2.localdomain Mon May 10 03:00:02 2021 Return-Path: X-Original-To: sinton Delivered-To: sinton@wam-2.localdomain Received: by wam-2.localdomain (Postfix, from userid 1001) id 59F2739673; Mon, 10 May 2021 03:00:02 -0400 (EDT) From: root@wam-2.localdomain (Cron Daemon) To: sinton@wam-2.localdomain Subject: Cron ~/symlinks/TEAM1F/metin/apiv4.sh 1f > /dev/null MIME-Version: 1.0 Content-Type: text/plain; charset=UTF-8 Content-Transfer-Encoding: 8bit X-Cron-Env: X-Cron-Env: X-Cron-Env: X-Cron-Env: Message-Id: <20210510070002.59F2739673@wam-2.localdomain> Date: Mon, 10 May 2021 03:00:02 -0400 (EDT) % Total % Received % Xferd Average Speed Time Time Time Current Dload Upload Total Spent Left Speed 0 0 0 0 0 0 0 0 --:--:-- --:--:-- --:--:-- 0 100 387 100 387 0 0 5528 0 --:--:-- --:--:-- --:--:-- 5528 From sinton@wam-2.localdomain Mon May 10 03:00:33 2021 Return-Path: X-Original-To: sinton Delivered-To: sinton@wam-2.localdomain Received: by wam-2.localdomain (Postfix, from userid 1001) id E9F8F20EED; Mon, 10 May 2021 03:00:33 -0400 (EDT) From: root@wam-2.localdomain (Cron Daemon) To: sinton@wam-2.localdomain Subject: Cron ~/symlinks/TEAM4/oakarcha.pl 4 > /dev/null MIME-Version: 1.0 Content-Type: text/plain; charset=UTF-8 Content-Transfer-Encoding: 8bit X-Cron-Env: X-Cron-Env: X-Cron-Env: X-Cron-Env: Message-Id: <20210510070033.E9F8F20EED@wam-2.localdomain> Date: Mon, 10 May 2021 03:00:33 -0400 (EDT) tail: unrecognized option '--1' Try 'tail --help' for more information. send: spawn id exp3 not open while executing "send "bye\n"" (procedure "sftpsend" line 20) invoked from within "sftpsend 107.170.61.94 sinton@107.170.61.94 $APATH $AFILE $AFILE" invoked from within "if { ![sftpsend 107.170.61.94 sinton@107.170.61.94 $APATH $AFILE $AFILE] } { puts_log "sftpsend failed for $AFILE ([timestamp -format %c])." }..." (file "/home/sinton/sjsu4/sftptowam.tcl" line 106) From sinton@wam-2.localdomain Mon May 10 03:00:36 2021 Return-Path: X-Original-To: sinton Delivered-To: sinton@wam-2.localdomain Received: by wam-2.localdomain (Postfix, from userid 1001) id F40A53963C; Mon, 10 May 2021 03:00:35 -0400 (EDT) From: root@wam-2.localdomain (Cron Daemon) To: sinton@wam-2.localdomain Subject: Cron ~/symlinks/TEAM1/oakarcha.pl 1 > /dev/null MIME-Version: 1.0 Content-Type: text/plain; charset=UTF-8 Content-Transfer-Encoding: 8bit X-Cron-Env: X-Cron-Env: X-Cron-Env: X-Cron-Env: Message-Id: <20210510070035.F40A53963C@wam-2.localdomain> Date: Mon, 10 May 2021 03:00:35 -0400 (EDT) cat: /home/sinton/sjsu1/MISSEDFIELDGOALS: No such file or directory cat: /home/sinton/sjsu1/MISSEDFIELDGOALSWIDE: No such file or directory send: spawn id exp3 not open while executing "send "bye\n"" (procedure "sftpsend" line 20) invoked from within "sftpsend 107.170.61.94 sinton@107.170.61.94 $APATH $AFILE $AFILE" invoked from within "if { ![sftpsend 107.170.61.94 sinton@107.170.61.94 $APATH $AFILE $AFILE] } { puts_log "sftpsend failed for $AFILE ([timestamp -format %c])." }..." (file "/home/sinton/sjsu1/sftptowam.tcl" line 106) From sinton@wam-2.localdomain Mon May 10 03:00:36 2021 Return-Path: X-Original-To: sinton Delivered-To: sinton@wam-2.localdomain Received: by wam-2.localdomain (Postfix, from userid 1001) id 0140521164; Mon, 10 May 2021 03:00:35 -0400 (EDT) From: root@wam-2.localdomain (Cron Daemon) To: sinton@wam-2.localdomain Subject: Cron ~/symlinks/TEAM2/oakarcha.pl 2 > /dev/null MIME-Version: 1.0 Content-Type: text/plain; charset=UTF-8 Content-Transfer-Encoding: 8bit X-Cron-Env: X-Cron-Env: X-Cron-Env: X-Cron-Env: Message-Id: <20210510070036.0140521164@wam-2.localdomain> Date: Mon, 10 May 2021 03:00:35 -0400 (EDT) send: spawn id exp3 not open while executing "send "bye\n"" (procedure "sftpsend" line 20) invoked from within "sftpsend 107.170.61.94 sinton@107.170.61.94 $APATH $AFILE $AFILE" invoked from within "if { ![sftpsend 107.170.61.94 sinton@107.170.61.94 $APATH $AFILE $AFILE] } { puts_log "sftpsend failed for $AFILE ([timestamp -format %c])." }..." (file "/home/sinton/sjsu2/sftptowam.tcl" line 106) From sinton@wam-2.localdomain Mon May 10 03:01:01 2021 Return-Path: X-Original-To: sinton Delivered-To: sinton@wam-2.localdomain Received: by wam-2.localdomain (Postfix, from userid 1001) id 4E98039676; Mon, 10 May 2021 03:01:01 -0400 (EDT) From: root@wam-2.localdomain (Cron Daemon) To: sinton@wam-2.localdomain Subject: Cron ~/symlinks/TEAM99/ogoakinitchka2.sh 99 0.05 > /dev/null MIME-Version: 1.0 Content-Type: text/plain; charset=UTF-8 Content-Transfer-Encoding: 8bit X-Cron-Env: X-Cron-Env: X-Cron-Env: X-Cron-Env: Message-Id: <20210510070101.4E98039676@wam-2.localdomain> Date: Mon, 10 May 2021 03:01:01 -0400 (EDT) /bin/sh: 1: /home/sinton/symlinks/TEAM99/ogoakinitchka2.sh: not found From sinton@wam-2.localdomain Mon May 10 03:01:01 2021 Return-Path: X-Original-To: sinton Delivered-To: sinton@wam-2.localdomain Received: by wam-2.localdomain (Postfix, from userid 1001) id 5CF5F3969B; Mon, 10 May 2021 03:01:01 -0400 (EDT) From: root@wam-2.localdomain (Cron Daemon) To: sinton@wam-2.localdomain Subject: Cron ~/symlinks/TEAM1F/metin/apiv4.sh 1f > /dev/null MIME-Version: 1.0 Content-Type: text/plain; charset=UTF-8 Content-Transfer-Encoding: 8bit X-Cron-Env: X-Cron-Env: X-Cron-Env: X-Cron-Env: Message-Id: <20210510070101.5CF5F3969B@wam-2.localdomain> Date: Mon, 10 May 2021 03:01:01 -0400 (EDT) % Total % Received % Xferd Average Speed Time Time Time Current Dload Upload Total Spent Left Speed 0 0 0 0 0 0 0 0 --:--:-- --:--:-- --:--:-- 0 100 387 100 387 0 0 5776 0 --:--:-- --:--:-- --:--:-- 5776 From sinton@wam-2.localdomain Mon May 10 03:02:01 2021 Return-Path: X-Original-To: sinton Delivered-To: sinton@wam-2.localdomain Received: by wam-2.localdomain (Postfix, from userid 1001) id 91188396AB; Mon, 10 May 2021 03:02:01 -0400 (EDT) From: root@wam-2.localdomain (Cron Daemon) To: sinton@wam-2.localdomain Subject: Cron ~/symlinks/TEAM99/ogoakinitchka2.sh 99 0.05 > /dev/null MIME-Version: 1.0 Content-Type: text/plain; charset=UTF-8 Content-Transfer-Encoding: 8bit X-Cron-Env: X-Cron-Env: X-Cron-Env: X-Cron-Env: Message-Id: <20210510070201.91188396AB@wam-2.localdomain> Date: Mon, 10 May 2021 03:02:01 -0400 (EDT) /bin/sh: 1: /home/sinton/symlinks/TEAM99/ogoakinitchka2.sh: not found From sinton@wam-2.localdomain Mon May 10 03:02:01 2021 Return-Path: X-Original-To: sinton Delivered-To: sinton@wam-2.localdomain Received: by wam-2.localdomain (Postfix, from userid 1001) id ABA2A39672; Mon, 10 May 2021 03:02:01 -0400 (EDT) From: root@wam-2.localdomain (Cron Daemon) To: sinton@wam-2.localdomain Subject: Cron ~/symlinks/TEAM1F/metin/apiv4.sh 1f > /dev/null MIME-Version: 1.0 Content-Type: text/plain; charset=UTF-8 Content-Transfer-Encoding: 8bit X-Cron-Env: X-Cron-Env: X-Cron-Env: X-Cron-Env: Message-Id: <20210510070201.ABA2A39672@wam-2.localdomain> Date: Mon, 10 May 2021 03:02:01 -0400 (EDT) % Total % Received % Xferd Average Speed Time Time Time Current Dload Upload Total Spent Left Speed 0 0 0 0 0 0 0 0 --:--:-- --:--:-- --:--:-- 0 100 387 100 387 0 0 5528 0 --:--:-- --:--:-- --:--:-- 5608 From sinton@wam-2.localdomain Mon May 10 03:02:27 2021 Return-Path: X-Original-To: sinton Delivered-To: sinton@wam-2.localdomain Received: by wam-2.localdomain (Postfix, from userid 1001) id C35493969D; Mon, 10 May 2021 03:02:27 -0400 (EDT) From: root@wam-2.localdomain (Cron Daemon) To: sinton@wam-2.localdomain Subject: Cron bash -c "sleep $[RANDOM%30]m" ; ~/symlinks/TEAM2/fcst/startfcstclim.sh 2 > /dev/null MIME-Version: 1.0 Content-Type: text/plain; charset=UTF-8 Content-Transfer-Encoding: 8bit X-Cron-Env: X-Cron-Env: X-Cron-Env: X-Cron-Env: Message-Id: <20210510070227.C35493969D@wam-2.localdomain> Date: Mon, 10 May 2021 03:02:27 -0400 (EDT) % Total % Received % Xferd Average Speed Time Time Time Current Dload Upload Total Spent Left Speed 0 0 0 0 0 0 0 0 --:--:-- --:--:-- --:--:-- 0 28 41809 28 12065 0 0 11612 0 0:00:03 0:00:01 0:00:02 11612 100 41809 100 41809 0 0 40200 0 0:00:01 0:00:01 --:--:-- 40200 From sinton@wam-2.localdomain Mon May 10 03:03:02 2021 Return-Path: X-Original-To: sinton Delivered-To: sinton@wam-2.localdomain Received: by wam-2.localdomain (Postfix, from userid 1001) id 006493969B; Mon, 10 May 2021 03:03:01 -0400 (EDT) From: root@wam-2.localdomain (Cron Daemon) To: sinton@wam-2.localdomain Subject: Cron ~/symlinks/TEAM99/ogoakinitchka2.sh 99 0.05 > /dev/null MIME-Version: 1.0 Content-Type: text/plain; charset=UTF-8 Content-Transfer-Encoding: 8bit X-Cron-Env: X-Cron-Env: X-Cron-Env: X-Cron-Env: Message-Id: <20210510070302.006493969B@wam-2.localdomain> Date: Mon, 10 May 2021 03:03:01 -0400 (EDT) /bin/sh: 1: /home/sinton/symlinks/TEAM99/ogoakinitchka2.sh: not found From sinton@wam-2.localdomain Mon May 10 03:03:02 2021 Return-Path: X-Original-To: sinton Delivered-To: sinton@wam-2.localdomain Received: by wam-2.localdomain (Postfix, from userid 1001) id 18B523969B; Mon, 10 May 2021 03:03:02 -0400 (EDT) From: root@wam-2.localdomain (Cron Daemon) To: sinton@wam-2.localdomain Subject: Cron ~/symlinks/TEAM1F/metin/apiv4.sh 1f > /dev/null MIME-Version: 1.0 Content-Type: text/plain; charset=UTF-8 Content-Transfer-Encoding: 8bit X-Cron-Env: X-Cron-Env: X-Cron-Env: X-Cron-Env: Message-Id: <20210510070302.18B523969B@wam-2.localdomain> Date: Mon, 10 May 2021 03:03:02 -0400 (EDT) % Total % Received % Xferd Average Speed Time Time Time Current Dload Upload Total Spent Left Speed 0 0 0 0 0 0 0 0 --:--:-- --:--:-- --:--:-- 0 100 386 100 386 0 0 6327 0 --:--:-- --:--:-- --:--:-- 6327 From sinton@wam-2.localdomain Mon May 10 03:04:01 2021 Return-Path: X-Original-To: sinton Delivered-To: sinton@wam-2.localdomain Received: by wam-2.localdomain (Postfix, from userid 1001) id 4FA7E3969D; Mon, 10 May 2021 03:04:01 -0400 (EDT) From: root@wam-2.localdomain (Cron Daemon) To: sinton@wam-2.localdomain Subject: Cron ~/symlinks/TEAM99/ogoakinitchka2.sh 99 0.05 > /dev/null MIME-Version: 1.0 Content-Type: text/plain; charset=UTF-8 Content-Transfer-Encoding: 8bit X-Cron-Env: X-Cron-Env: X-Cron-Env: X-Cron-Env: Message-Id: <20210510070401.4FA7E3969D@wam-2.localdomain> Date: Mon, 10 May 2021 03:04:01 -0400 (EDT) /bin/sh: 1: /home/sinton/symlinks/TEAM99/ogoakinitchka2.sh: not found From sinton@wam-2.localdomain Mon May 10 03:04:01 2021 Return-Path: X-Original-To: sinton Delivered-To: sinton@wam-2.localdomain Received: by wam-2.localdomain (Postfix, from userid 1001) id 641353969D; Mon, 10 May 2021 03:04:01 -0400 (EDT) From: root@wam-2.localdomain (Cron Daemon) To: sinton@wam-2.localdomain Subject: Cron ~/symlinks/TEAM1F/metin/apiv4.sh 1f > /dev/null MIME-Version: 1.0 Content-Type: text/plain; charset=UTF-8 Content-Transfer-Encoding: 8bit X-Cron-Env: X-Cron-Env: X-Cron-Env: X-Cron-Env: Message-Id: <20210510070401.641353969D@wam-2.localdomain> Date: Mon, 10 May 2021 03:04:01 -0400 (EDT) % Total % Received % Xferd Average Speed Time Time Time Current Dload Upload Total Spent Left Speed 0 0 0 0 0 0 0 0 --:--:-- --:--:-- --:--:-- 0 100 387 100 387 0 0 6046 0 --:--:-- --:--:-- --:--:-- 6046 From sinton@wam-2.localdomain Mon May 10 03:05:01 2021 Return-Path: X-Original-To: sinton Delivered-To: sinton@wam-2.localdomain Received: by wam-2.localdomain (Postfix, from userid 1001) id 9BAC139631; Mon, 10 May 2021 03:05:01 -0400 (EDT) From: root@wam-2.localdomain (Cron Daemon) To: sinton@wam-2.localdomain Subject: Cron ~/symlinks/TEAM99/ogoakinitchka2.sh 99 0.05 > /dev/null MIME-Version: 1.0 Content-Type: text/plain; charset=UTF-8 Content-Transfer-Encoding: 8bit X-Cron-Env: X-Cron-Env: X-Cron-Env: X-Cron-Env: Message-Id: <20210510070501.9BAC139631@wam-2.localdomain> Date: Mon, 10 May 2021 03:05:01 -0400 (EDT) /bin/sh: 1: /home/sinton/symlinks/TEAM99/ogoakinitchka2.sh: not found From sinton@wam-2.localdomain Mon May 10 03:05:01 2021 Return-Path: X-Original-To: sinton Delivered-To: sinton@wam-2.localdomain Received: by wam-2.localdomain (Postfix, from userid 1001) id B3ED639631; Mon, 10 May 2021 03:05:01 -0400 (EDT) From: root@wam-2.localdomain (Cron Daemon) To: sinton@wam-2.localdomain Subject: Cron ~/symlinks/TEAM1F/metin/apiv4.sh 1f > /dev/null MIME-Version: 1.0 Content-Type: text/plain; charset=UTF-8 Content-Transfer-Encoding: 8bit X-Cron-Env: X-Cron-Env: X-Cron-Env: X-Cron-Env: Message-Id: <20210510070501.B3ED639631@wam-2.localdomain> Date: Mon, 10 May 2021 03:05:01 -0400 (EDT) % Total % Received % Xferd Average Speed Time Time Time Current Dload Upload Total Spent Left Speed 0 0 0 0 0 0 0 0 --:--:-- --:--:-- --:--:-- 0 100 387 100 387 0 0 5528 0 --:--:-- --:--:-- --:--:-- 5528 From sinton@wam-2.localdomain Mon May 10 03:06:02 2021 Return-Path: X-Original-To: sinton Delivered-To: sinton@wam-2.localdomain Received: by wam-2.localdomain (Postfix, from userid 1001) id 0A17C3967C; Mon, 10 May 2021 03:06:02 -0400 (EDT) From: root@wam-2.localdomain (Cron Daemon) To: sinton@wam-2.localdomain Subject: Cron ~/symlinks/TEAM99/ogoakinitchka2.sh 99 0.05 > /dev/null MIME-Version: 1.0 Content-Type: text/plain; charset=UTF-8 Content-Transfer-Encoding: 8bit X-Cron-Env: X-Cron-Env: X-Cron-Env: X-Cron-Env: Message-Id: <20210510070602.0A17C3967C@wam-2.localdomain> Date: Mon, 10 May 2021 03:06:02 -0400 (EDT) /bin/sh: 1: /home/sinton/symlinks/TEAM99/ogoakinitchka2.sh: not found From sinton@wam-2.localdomain Mon May 10 03:06:02 2021 Return-Path: X-Original-To: sinton Delivered-To: sinton@wam-2.localdomain Received: by wam-2.localdomain (Postfix, from userid 1001) id 15DDB39688; Mon, 10 May 2021 03:06:02 -0400 (EDT) From: root@wam-2.localdomain (Cron Daemon) To: sinton@wam-2.localdomain Subject: Cron ~/symlinks/TEAM1F/metin/apiv4.sh 1f > /dev/null MIME-Version: 1.0 Content-Type: text/plain; charset=UTF-8 Content-Transfer-Encoding: 8bit X-Cron-Env: X-Cron-Env: X-Cron-Env: X-Cron-Env: Message-Id: <20210510070602.15DDB39688@wam-2.localdomain> Date: Mon, 10 May 2021 03:06:02 -0400 (EDT) % Total % Received % Xferd Average Speed Time Time Time Current Dload Upload Total Spent Left Speed 0 0 0 0 0 0 0 0 --:--:-- --:--:-- --:--:-- 0 100 383 100 383 0 0 5039 0 --:--:-- --:--:-- --:--:-- 5039 From sinton@wam-2.localdomain Mon May 10 03:07:01 2021 Return-Path: X-Original-To: sinton Delivered-To: sinton@wam-2.localdomain Received: by wam-2.localdomain (Postfix, from userid 1001) id 4589939656; Mon, 10 May 2021 03:07:01 -0400 (EDT) From: root@wam-2.localdomain (Cron Daemon) To: sinton@wam-2.localdomain Subject: Cron ~/symlinks/TEAM99/ogoakinitchka2.sh 99 0.05 > /dev/null MIME-Version: 1.0 Content-Type: text/plain; charset=UTF-8 Content-Transfer-Encoding: 8bit X-Cron-Env: X-Cron-Env: X-Cron-Env: X-Cron-Env: Message-Id: <20210510070701.4589939656@wam-2.localdomain> Date: Mon, 10 May 2021 03:07:01 -0400 (EDT) /bin/sh: 1: /home/sinton/symlinks/TEAM99/ogoakinitchka2.sh: not found From sinton@wam-2.localdomain Mon May 10 03:07:01 2021 Return-Path: X-Original-To: sinton Delivered-To: sinton@wam-2.localdomain Received: by wam-2.localdomain (Postfix, from userid 1001) id 5F70339656; Mon, 10 May 2021 03:07:01 -0400 (EDT) From: root@wam-2.localdomain (Cron Daemon) To: sinton@wam-2.localdomain Subject: Cron ~/symlinks/TEAM1F/metin/apiv4.sh 1f > /dev/null MIME-Version: 1.0 Content-Type: text/plain; charset=UTF-8 Content-Transfer-Encoding: 8bit X-Cron-Env: X-Cron-Env: X-Cron-Env: X-Cron-Env: Message-Id: <20210510070701.5F70339656@wam-2.localdomain> Date: Mon, 10 May 2021 03:07:01 -0400 (EDT) % Total % Received % Xferd Average Speed Time Time Time Current Dload Upload Total Spent Left Speed 0 0 0 0 0 0 0 0 --:--:-- --:--:-- --:--:-- 0 100 383 100 383 0 0 5319 0 --:--:-- --:--:-- --:--:-- 5319 From sinton@wam-2.localdomain Mon May 10 03:08:01 2021 Return-Path: X-Original-To: sinton Delivered-To: sinton@wam-2.localdomain Received: by wam-2.localdomain (Postfix, from userid 1001) id 989F139658; Mon, 10 May 2021 03:08:01 -0400 (EDT) From: root@wam-2.localdomain (Cron Daemon) To: sinton@wam-2.localdomain Subject: Cron ~/symlinks/TEAM99/ogoakinitchka2.sh 99 0.05 > /dev/null MIME-Version: 1.0 Content-Type: text/plain; charset=UTF-8 Content-Transfer-Encoding: 8bit X-Cron-Env: X-Cron-Env: X-Cron-Env: X-Cron-Env: Message-Id: <20210510070801.989F139658@wam-2.localdomain> Date: Mon, 10 May 2021 03:08:01 -0400 (EDT) /bin/sh: 1: /home/sinton/symlinks/TEAM99/ogoakinitchka2.sh: not found From sinton@wam-2.localdomain Mon May 10 03:08:01 2021 Return-Path: X-Original-To: sinton Delivered-To: sinton@wam-2.localdomain Received: by wam-2.localdomain (Postfix, from userid 1001) id A9A3C39658; Mon, 10 May 2021 03:08:01 -0400 (EDT) From: root@wam-2.localdomain (Cron Daemon) To: sinton@wam-2.localdomain Subject: Cron ~/symlinks/TEAM1F/metin/apiv4.sh 1f > /dev/null MIME-Version: 1.0 Content-Type: text/plain; charset=UTF-8 Content-Transfer-Encoding: 8bit X-Cron-Env: X-Cron-Env: X-Cron-Env: X-Cron-Env: Message-Id: <20210510070801.A9A3C39658@wam-2.localdomain> Date: Mon, 10 May 2021 03:08:01 -0400 (EDT) % Total % Received % Xferd Average Speed Time Time Time Current Dload Upload Total Spent Left Speed 0 0 0 0 0 0 0 0 --:--:-- --:--:-- --:--:-- 0 100 383 100 383 0 0 4728 0 --:--:-- --:--:-- --:--:-- 4728 From sinton@wam-2.localdomain Mon May 10 03:09:01 2021 Return-Path: X-Original-To: sinton Delivered-To: sinton@wam-2.localdomain Received: by wam-2.localdomain (Postfix, from userid 1001) id E4D44396DE; Mon, 10 May 2021 03:09:01 -0400 (EDT) From: root@wam-2.localdomain (Cron Daemon) To: sinton@wam-2.localdomain Subject: Cron ~/symlinks/TEAM99/ogoakinitchka2.sh 99 0.05 > /dev/null MIME-Version: 1.0 Content-Type: text/plain; charset=UTF-8 Content-Transfer-Encoding: 8bit X-Cron-Env: X-Cron-Env: X-Cron-Env: X-Cron-Env: Message-Id: <20210510070901.E4D44396DE@wam-2.localdomain> Date: Mon, 10 May 2021 03:09:01 -0400 (EDT) /bin/sh: 1: /home/sinton/symlinks/TEAM99/ogoakinitchka2.sh: not found From sinton@wam-2.localdomain Mon May 10 03:09:02 2021 Return-Path: X-Original-To: sinton Delivered-To: sinton@wam-2.localdomain Received: by wam-2.localdomain (Postfix, from userid 1001) id 034DA396AC; Mon, 10 May 2021 03:09:02 -0400 (EDT) From: root@wam-2.localdomain (Cron Daemon) To: sinton@wam-2.localdomain Subject: Cron ~/symlinks/TEAM1F/metin/apiv4.sh 1f > /dev/null MIME-Version: 1.0 Content-Type: text/plain; charset=UTF-8 Content-Transfer-Encoding: 8bit X-Cron-Env: X-Cron-Env: X-Cron-Env: X-Cron-Env: Message-Id: <20210510070902.034DA396AC@wam-2.localdomain> Date: Mon, 10 May 2021 03:09:02 -0400 (EDT) % Total % Received % Xferd Average Speed Time Time Time Current Dload Upload Total Spent Left Speed 0 0 0 0 0 0 0 0 --:--:-- --:--:-- --:--:-- 0 100 382 100 382 0 0 4152 0 --:--:-- --:--:-- --:--:-- 4152 From sinton@wam-2.localdomain Mon May 10 03:10:01 2021 Return-Path: X-Original-To: sinton Delivered-To: sinton@wam-2.localdomain Received: by wam-2.localdomain (Postfix, from userid 1001) id 3DF37396B9; Mon, 10 May 2021 03:10:01 -0400 (EDT) From: root@wam-2.localdomain (Cron Daemon) To: sinton@wam-2.localdomain Subject: Cron ~/symlinks/TEAM99/ogoakinitchka2.sh 99 0.05 > /dev/null MIME-Version: 1.0 Content-Type: text/plain; charset=UTF-8 Content-Transfer-Encoding: 8bit X-Cron-Env: X-Cron-Env: X-Cron-Env: X-Cron-Env: Message-Id: <20210510071001.3DF37396B9@wam-2.localdomain> Date: Mon, 10 May 2021 03:10:01 -0400 (EDT) /bin/sh: 1: /home/sinton/symlinks/TEAM99/ogoakinitchka2.sh: not found From sinton@wam-2.localdomain Mon May 10 03:10:01 2021 Return-Path: X-Original-To: sinton Delivered-To: sinton@wam-2.localdomain Received: by wam-2.localdomain (Postfix, from userid 1001) id 4E304396B9; Mon, 10 May 2021 03:10:01 -0400 (EDT) From: root@wam-2.localdomain (Cron Daemon) To: sinton@wam-2.localdomain Subject: Cron ~/symlinks/TEAM1F/metin/apiv4.sh 1f > /dev/null MIME-Version: 1.0 Content-Type: text/plain; charset=UTF-8 Content-Transfer-Encoding: 8bit X-Cron-Env: X-Cron-Env: X-Cron-Env: X-Cron-Env: Message-Id: <20210510071001.4E304396B9@wam-2.localdomain> Date: Mon, 10 May 2021 03:10:01 -0400 (EDT) % Total % Received % Xferd Average Speed Time Time Time Current Dload Upload Total Spent Left Speed 0 0 0 0 0 0 0 0 --:--:-- --:--:-- --:--:-- 0 100 383 100 383 0 0 5803 0 --:--:-- --:--:-- --:--:-- 5803 From sinton@wam-2.localdomain Mon May 10 03:10:15 2021 Return-Path: X-Original-To: sinton Delivered-To: sinton@wam-2.localdomain Received: by wam-2.localdomain (Postfix, from userid 1001) id CB56339656; Mon, 10 May 2021 03:10:15 -0400 (EDT) From: root@wam-2.localdomain (Cron Daemon) To: sinton@wam-2.localdomain Subject: Cron bash -c "sleep $[RANDOM%30]m" ; ~/symlinks/TEAM7/fcst/startfcstclim.sh 7 > /dev/null MIME-Version: 1.0 Content-Type: text/plain; charset=UTF-8 Content-Transfer-Encoding: 8bit X-Cron-Env: X-Cron-Env: X-Cron-Env: X-Cron-Env: Message-Id: <20210510071015.CB56339656@wam-2.localdomain> Date: Mon, 10 May 2021 03:10:15 -0400 (EDT) % Total % Received % Xferd Average Speed Time Time Time Current Dload Upload Total Spent Left Speed 0 0 0 0 0 0 0 0 --:--:-- --:--:-- --:--:-- 0 100 41573 100 41573 0 0 110k 0 --:--:-- --:--:-- --:--:-- 110k From sinton@wam-2.localdomain Mon May 10 03:11:02 2021 Return-Path: X-Original-To: sinton Delivered-To: sinton@wam-2.localdomain Received: by wam-2.localdomain (Postfix, from userid 1001) id 1974A396D1; Mon, 10 May 2021 03:11:02 -0400 (EDT) From: root@wam-2.localdomain (Cron Daemon) To: sinton@wam-2.localdomain Subject: Cron ~/symlinks/TEAM99/ogoakinitchka2.sh 99 0.05 > /dev/null MIME-Version: 1.0 Content-Type: text/plain; charset=UTF-8 Content-Transfer-Encoding: 8bit X-Cron-Env: X-Cron-Env: X-Cron-Env: X-Cron-Env: Message-Id: <20210510071102.1974A396D1@wam-2.localdomain> Date: Mon, 10 May 2021 03:11:02 -0400 (EDT) /bin/sh: 1: /home/sinton/symlinks/TEAM99/ogoakinitchka2.sh: not found From sinton@wam-2.localdomain Mon May 10 03:11:02 2021 Return-Path: X-Original-To: sinton Delivered-To: sinton@wam-2.localdomain Received: by wam-2.localdomain (Postfix, from userid 1001) id 2EAFC396C3; Mon, 10 May 2021 03:11:02 -0400 (EDT) From: root@wam-2.localdomain (Cron Daemon) To: sinton@wam-2.localdomain Subject: Cron ~/symlinks/TEAM1F/metin/apiv4.sh 1f > /dev/null MIME-Version: 1.0 Content-Type: text/plain; charset=UTF-8 Content-Transfer-Encoding: 8bit X-Cron-Env: X-Cron-Env: X-Cron-Env: X-Cron-Env: Message-Id: <20210510071102.2EAFC396C3@wam-2.localdomain> Date: Mon, 10 May 2021 03:11:02 -0400 (EDT) % Total % Received % Xferd Average Speed Time Time Time Current Dload Upload Total Spent Left Speed 0 0 0 0 0 0 0 0 --:--:-- --:--:-- --:--:-- 0 100 383 100 383 0 0 5246 0 --:--:-- --:--:-- --:--:-- 5246 From sinton@wam-2.localdomain Mon May 10 03:12:01 2021 Return-Path: X-Original-To: sinton Delivered-To: sinton@wam-2.localdomain Received: by wam-2.localdomain (Postfix, from userid 1001) id 6329F396BC; Mon, 10 May 2021 03:12:01 -0400 (EDT) From: root@wam-2.localdomain (Cron Daemon) To: sinton@wam-2.localdomain Subject: Cron ~/symlinks/TEAM99/ogoakinitchka2.sh 99 0.05 > /dev/null MIME-Version: 1.0 Content-Type: text/plain; charset=UTF-8 Content-Transfer-Encoding: 8bit X-Cron-Env: X-Cron-Env: X-Cron-Env: X-Cron-Env: Message-Id: <20210510071201.6329F396BC@wam-2.localdomain> Date: Mon, 10 May 2021 03:12:01 -0400 (EDT) /bin/sh: 1: /home/sinton/symlinks/TEAM99/ogoakinitchka2.sh: not found From sinton@wam-2.localdomain Mon May 10 03:12:01 2021 Return-Path: X-Original-To: sinton Delivered-To: sinton@wam-2.localdomain Received: by wam-2.localdomain (Postfix, from userid 1001) id 783E0396BC; Mon, 10 May 2021 03:12:01 -0400 (EDT) From: root@wam-2.localdomain (Cron Daemon) To: sinton@wam-2.localdomain Subject: Cron ~/symlinks/TEAM1F/metin/apiv4.sh 1f > /dev/null MIME-Version: 1.0 Content-Type: text/plain; charset=UTF-8 Content-Transfer-Encoding: 8bit X-Cron-Env: X-Cron-Env: X-Cron-Env: X-Cron-Env: Message-Id: <20210510071201.783E0396BC@wam-2.localdomain> Date: Mon, 10 May 2021 03:12:01 -0400 (EDT) % Total % Received % Xferd Average Speed Time Time Time Current Dload Upload Total Spent Left Speed 0 0 0 0 0 0 0 0 --:--:-- --:--:-- --:--:-- 0 100 383 100 383 0 0 5632 0 --:--:-- --:--:-- --:--:-- 5632 From sinton@wam-2.localdomain Mon May 10 03:13:01 2021 Return-Path: X-Original-To: sinton Delivered-To: sinton@wam-2.localdomain Received: by wam-2.localdomain (Postfix, from userid 1001) id AD8CB396D1; Mon, 10 May 2021 03:13:01 -0400 (EDT) From: root@wam-2.localdomain (Cron Daemon) To: sinton@wam-2.localdomain Subject: Cron ~/symlinks/TEAM99/ogoakinitchka2.sh 99 0.05 > /dev/null MIME-Version: 1.0 Content-Type: text/plain; charset=UTF-8 Content-Transfer-Encoding: 8bit X-Cron-Env: X-Cron-Env: X-Cron-Env: X-Cron-Env: Message-Id: <20210510071301.AD8CB396D1@wam-2.localdomain> Date: Mon, 10 May 2021 03:13:01 -0400 (EDT) /bin/sh: 1: /home/sinton/symlinks/TEAM99/ogoakinitchka2.sh: not found From sinton@wam-2.localdomain Mon May 10 03:13:01 2021 Return-Path: X-Original-To: sinton Delivered-To: sinton@wam-2.localdomain Received: by wam-2.localdomain (Postfix, from userid 1001) id BD0F2396D1; Mon, 10 May 2021 03:13:01 -0400 (EDT) From: root@wam-2.localdomain (Cron Daemon) To: sinton@wam-2.localdomain Subject: Cron ~/symlinks/TEAM1F/metin/apiv4.sh 1f > /dev/null MIME-Version: 1.0 Content-Type: text/plain; charset=UTF-8 Content-Transfer-Encoding: 8bit X-Cron-Env: X-Cron-Env: X-Cron-Env: X-Cron-Env: Message-Id: <20210510071301.BD0F2396D1@wam-2.localdomain> Date: Mon, 10 May 2021 03:13:01 -0400 (EDT) % Total % Received % Xferd Average Speed Time Time Time Current Dload Upload Total Spent Left Speed 0 0 0 0 0 0 0 0 --:--:-- --:--:-- --:--:-- 0 100 383 100 383 0 0 5803 0 --:--:-- --:--:-- --:--:-- 5803 From sinton@wam-2.localdomain Mon May 10 03:14:02 2021 Return-Path: X-Original-To: sinton Delivered-To: sinton@wam-2.localdomain Received: by wam-2.localdomain (Postfix, from userid 1001) id 0476F396BC; Mon, 10 May 2021 03:14:02 -0400 (EDT) From: root@wam-2.localdomain (Cron Daemon) To: sinton@wam-2.localdomain Subject: Cron ~/symlinks/TEAM99/ogoakinitchka2.sh 99 0.05 > /dev/null MIME-Version: 1.0 Content-Type: text/plain; charset=UTF-8 Content-Transfer-Encoding: 8bit X-Cron-Env: X-Cron-Env: X-Cron-Env: X-Cron-Env: Message-Id: <20210510071402.0476F396BC@wam-2.localdomain> Date: Mon, 10 May 2021 03:14:02 -0400 (EDT) /bin/sh: 1: /home/sinton/symlinks/TEAM99/ogoakinitchka2.sh: not found From sinton@wam-2.localdomain Mon May 10 03:14:02 2021 Return-Path: X-Original-To: sinton Delivered-To: sinton@wam-2.localdomain Received: by wam-2.localdomain (Postfix, from userid 1001) id 1749E396BC; Mon, 10 May 2021 03:14:02 -0400 (EDT) From: root@wam-2.localdomain (Cron Daemon) To: sinton@wam-2.localdomain Subject: Cron ~/symlinks/TEAM1F/metin/apiv4.sh 1f > /dev/null MIME-Version: 1.0 Content-Type: text/plain; charset=UTF-8 Content-Transfer-Encoding: 8bit X-Cron-Env: X-Cron-Env: X-Cron-Env: X-Cron-Env: Message-Id: <20210510071402.1749E396BC@wam-2.localdomain> Date: Mon, 10 May 2021 03:14:02 -0400 (EDT) % Total % Received % Xferd Average Speed Time Time Time Current Dload Upload Total Spent Left Speed 0 0 0 0 0 0 0 0 --:--:-- --:--:-- --:--:-- 0 100 382 100 382 0 0 6701 0 --:--:-- --:--:-- --:--:-- 6701 From sinton@wam-2.localdomain Mon May 10 03:15:01 2021 Return-Path: X-Original-To: sinton Delivered-To: sinton@wam-2.localdomain Received: by wam-2.localdomain (Postfix, from userid 1001) id 53447396D1; Mon, 10 May 2021 03:15:01 -0400 (EDT) From: root@wam-2.localdomain (Cron Daemon) To: sinton@wam-2.localdomain Subject: Cron ~/symlinks/TEAM99/ogoakinitchka2.sh 99 0.05 > /dev/null MIME-Version: 1.0 Content-Type: text/plain; charset=UTF-8 Content-Transfer-Encoding: 8bit X-Cron-Env: X-Cron-Env: X-Cron-Env: X-Cron-Env: Message-Id: <20210510071501.53447396D1@wam-2.localdomain> Date: Mon, 10 May 2021 03:15:01 -0400 (EDT) /bin/sh: 1: /home/sinton/symlinks/TEAM99/ogoakinitchka2.sh: not found From sinton@wam-2.localdomain Mon May 10 03:15:01 2021 Return-Path: X-Original-To: sinton Delivered-To: sinton@wam-2.localdomain Received: by wam-2.localdomain (Postfix, from userid 1001) id 6245A396E6; Mon, 10 May 2021 03:15:01 -0400 (EDT) From: root@wam-2.localdomain (Cron Daemon) To: sinton@wam-2.localdomain Subject: Cron ~/symlinks/TEAM1F/metin/apiv4.sh 1f > /dev/null MIME-Version: 1.0 Content-Type: text/plain; charset=UTF-8 Content-Transfer-Encoding: 8bit X-Cron-Env: X-Cron-Env: X-Cron-Env: X-Cron-Env: Message-Id: <20210510071501.6245A396E6@wam-2.localdomain> Date: Mon, 10 May 2021 03:15:01 -0400 (EDT) % Total % Received % Xferd Average Speed Time Time Time Current Dload Upload Total Spent Left Speed 0 0 0 0 0 0 0 0 --:--:-- --:--:-- --:--:-- 0 100 385 100 385 0 0 4583 0 --:--:-- --:--:-- --:--:-- 4583 From sinton@wam-2.localdomain Mon May 10 03:16:01 2021 Return-Path: X-Original-To: sinton Delivered-To: sinton@wam-2.localdomain Received: by wam-2.localdomain (Postfix, from userid 1001) id C281539585; Mon, 10 May 2021 03:16:01 -0400 (EDT) From: root@wam-2.localdomain (Cron Daemon) To: sinton@wam-2.localdomain Subject: Cron ~/symlinks/TEAM99/ogoakinitchka2.sh 99 0.05 > /dev/null MIME-Version: 1.0 Content-Type: text/plain; charset=UTF-8 Content-Transfer-Encoding: 8bit X-Cron-Env: X-Cron-Env: X-Cron-Env: X-Cron-Env: Message-Id: <20210510071601.C281539585@wam-2.localdomain> Date: Mon, 10 May 2021 03:16:01 -0400 (EDT) /bin/sh: 1: /home/sinton/symlinks/TEAM99/ogoakinitchka2.sh: not found From sinton@wam-2.localdomain Mon May 10 03:16:01 2021 Return-Path: X-Original-To: sinton Delivered-To: sinton@wam-2.localdomain Received: by wam-2.localdomain (Postfix, from userid 1001) id D31E4396BC; Mon, 10 May 2021 03:16:01 -0400 (EDT) From: root@wam-2.localdomain (Cron Daemon) To: sinton@wam-2.localdomain Subject: Cron ~/symlinks/TEAM1F/metin/apiv4.sh 1f > /dev/null MIME-Version: 1.0 Content-Type: text/plain; charset=UTF-8 Content-Transfer-Encoding: 8bit X-Cron-Env: X-Cron-Env: X-Cron-Env: X-Cron-Env: Message-Id: <20210510071601.D31E4396BC@wam-2.localdomain> Date: Mon, 10 May 2021 03:16:01 -0400 (EDT) % Total % Received % Xferd Average Speed Time Time Time Current Dload Upload Total Spent Left Speed 0 0 0 0 0 0 0 0 --:--:-- --:--:-- --:--:-- 0 100 385 100 385 0 0 5661 0 --:--:-- --:--:-- --:--:-- 5661 From sinton@wam-2.localdomain Mon May 10 03:17:02 2021 Return-Path: X-Original-To: sinton Delivered-To: sinton@wam-2.localdomain Received: by wam-2.localdomain (Postfix, from userid 1001) id 19474396E6; Mon, 10 May 2021 03:17:02 -0400 (EDT) From: root@wam-2.localdomain (Cron Daemon) To: sinton@wam-2.localdomain Subject: Cron ~/symlinks/TEAM99/ogoakinitchka2.sh 99 0.05 > /dev/null MIME-Version: 1.0 Content-Type: text/plain; charset=UTF-8 Content-Transfer-Encoding: 8bit X-Cron-Env: X-Cron-Env: X-Cron-Env: X-Cron-Env: Message-Id: <20210510071702.19474396E6@wam-2.localdomain> Date: Mon, 10 May 2021 03:17:02 -0400 (EDT) /bin/sh: 1: /home/sinton/symlinks/TEAM99/ogoakinitchka2.sh: not found From sinton@wam-2.localdomain Mon May 10 03:17:02 2021 Return-Path: X-Original-To: sinton Delivered-To: sinton@wam-2.localdomain Received: by wam-2.localdomain (Postfix, from userid 1001) id 2EE84396E6; Mon, 10 May 2021 03:17:02 -0400 (EDT) From: root@wam-2.localdomain (Cron Daemon) To: sinton@wam-2.localdomain Subject: Cron ~/symlinks/TEAM1F/metin/apiv4.sh 1f > /dev/null MIME-Version: 1.0 Content-Type: text/plain; charset=UTF-8 Content-Transfer-Encoding: 8bit X-Cron-Env: X-Cron-Env: X-Cron-Env: X-Cron-Env: Message-Id: <20210510071702.2EE84396E6@wam-2.localdomain> Date: Mon, 10 May 2021 03:17:02 -0400 (EDT) % Total % Received % Xferd Average Speed Time Time Time Current Dload Upload Total Spent Left Speed 0 0 0 0 0 0 0 0 --:--:-- --:--:-- --:--:-- 0 100 385 100 385 0 0 5347 0 --:--:-- --:--:-- --:--:-- 5347 From sinton@wam-2.localdomain Mon May 10 03:17:37 2021 Return-Path: X-Original-To: sinton Delivered-To: sinton@wam-2.localdomain Received: by wam-2.localdomain (Postfix, from userid 1001) id 7503A396EB; Mon, 10 May 2021 03:17:37 -0400 (EDT) From: root@wam-2.localdomain (Cron Daemon) To: sinton@wam-2.localdomain Subject: Cron bash -c "sleep $[RANDOM%30]m" ; ~/symlinks/TEAM1F/fcst/startfcstclim.sh 1f > /dev/null MIME-Version: 1.0 Content-Type: text/plain; charset=UTF-8 Content-Transfer-Encoding: 8bit X-Cron-Env: X-Cron-Env: X-Cron-Env: X-Cron-Env: Message-Id: <20210510071737.7503A396EB@wam-2.localdomain> Date: Mon, 10 May 2021 03:17:37 -0400 (EDT) % Total % Received % Xferd Average Speed Time Time Time Current Dload Upload Total Spent Left Speed 0 0 0 0 0 0 0 0 --:--:-- --:--:-- --:--:-- 0 100 41613 100 41613 0 0 109k 0 --:--:-- --:--:-- --:--:-- 109k From sinton@wam-2.localdomain Mon May 10 03:18:01 2021 Return-Path: X-Original-To: sinton Delivered-To: sinton@wam-2.localdomain Received: by wam-2.localdomain (Postfix, from userid 1001) id A9DED396FD; Mon, 10 May 2021 03:18:01 -0400 (EDT) From: root@wam-2.localdomain (Cron Daemon) To: sinton@wam-2.localdomain Subject: Cron ~/symlinks/TEAM99/ogoakinitchka2.sh 99 0.05 > /dev/null MIME-Version: 1.0 Content-Type: text/plain; charset=UTF-8 Content-Transfer-Encoding: 8bit X-Cron-Env: X-Cron-Env: X-Cron-Env: X-Cron-Env: Message-Id: <20210510071801.A9DED396FD@wam-2.localdomain> Date: Mon, 10 May 2021 03:18:01 -0400 (EDT) /bin/sh: 1: /home/sinton/symlinks/TEAM99/ogoakinitchka2.sh: not found From sinton@wam-2.localdomain Mon May 10 03:18:01 2021 Return-Path: X-Original-To: sinton Delivered-To: sinton@wam-2.localdomain Received: by wam-2.localdomain (Postfix, from userid 1001) id BD2E3396FD; Mon, 10 May 2021 03:18:01 -0400 (EDT) From: root@wam-2.localdomain (Cron Daemon) To: sinton@wam-2.localdomain Subject: Cron ~/symlinks/TEAM1F/metin/apiv4.sh 1f > /dev/null MIME-Version: 1.0 Content-Type: text/plain; charset=UTF-8 Content-Transfer-Encoding: 8bit X-Cron-Env: X-Cron-Env: X-Cron-Env: X-Cron-Env: Message-Id: <20210510071801.BD2E3396FD@wam-2.localdomain> Date: Mon, 10 May 2021 03:18:01 -0400 (EDT) % Total % Received % Xferd Average Speed Time Time Time Current Dload Upload Total Spent Left Speed 0 0 0 0 0 0 0 0 --:--:-- --:--:-- --:--:-- 0 100 385 100 385 0 0 5923 0 --:--:-- --:--:-- --:--:-- 5923 From sinton@wam-2.localdomain Mon May 10 03:19:01 2021 Return-Path: X-Original-To: sinton Delivered-To: sinton@wam-2.localdomain Received: by wam-2.localdomain (Postfix, from userid 1001) id F19C8396E4; Mon, 10 May 2021 03:19:01 -0400 (EDT) From: root@wam-2.localdomain (Cron Daemon) To: sinton@wam-2.localdomain Subject: Cron ~/symlinks/TEAM99/ogoakinitchka2.sh 99 0.05 > /dev/null MIME-Version: 1.0 Content-Type: text/plain; charset=UTF-8 Content-Transfer-Encoding: 8bit X-Cron-Env: X-Cron-Env: X-Cron-Env: X-Cron-Env: Message-Id: <20210510071901.F19C8396E4@wam-2.localdomain> Date: Mon, 10 May 2021 03:19:01 -0400 (EDT) /bin/sh: 1: /home/sinton/symlinks/TEAM99/ogoakinitchka2.sh: not found From sinton@wam-2.localdomain Mon May 10 03:19:02 2021 Return-Path: X-Original-To: sinton Delivered-To: sinton@wam-2.localdomain Received: by wam-2.localdomain (Postfix, from userid 1001) id 0B99439688; Mon, 10 May 2021 03:19:02 -0400 (EDT) From: root@wam-2.localdomain (Cron Daemon) To: sinton@wam-2.localdomain Subject: Cron ~/symlinks/TEAM1F/metin/apiv4.sh 1f > /dev/null MIME-Version: 1.0 Content-Type: text/plain; charset=UTF-8 Content-Transfer-Encoding: 8bit X-Cron-Env: X-Cron-Env: X-Cron-Env: X-Cron-Env: Message-Id: <20210510071902.0B99439688@wam-2.localdomain> Date: Mon, 10 May 2021 03:19:02 -0400 (EDT) % Total % Received % Xferd Average Speed Time Time Time Current Dload Upload Total Spent Left Speed 0 0 0 0 0 0 0 0 --:--:-- --:--:-- --:--:-- 0 100 385 100 385 0 0 5833 0 --:--:-- --:--:-- --:--:-- 5923 From sinton@wam-2.localdomain Mon May 10 03:20:01 2021 Return-Path: X-Original-To: sinton Delivered-To: sinton@wam-2.localdomain Received: by wam-2.localdomain (Postfix, from userid 1001) id 441E9396D6; Mon, 10 May 2021 03:20:01 -0400 (EDT) From: root@wam-2.localdomain (Cron Daemon) To: sinton@wam-2.localdomain Subject: Cron ~/symlinks/TEAM99/ogoakinitchka2.sh 99 0.05 > /dev/null MIME-Version: 1.0 Content-Type: text/plain; charset=UTF-8 Content-Transfer-Encoding: 8bit X-Cron-Env: X-Cron-Env: X-Cron-Env: X-Cron-Env: Message-Id: <20210510072001.441E9396D6@wam-2.localdomain> Date: Mon, 10 May 2021 03:20:01 -0400 (EDT) /bin/sh: 1: /home/sinton/symlinks/TEAM99/ogoakinitchka2.sh: not found From sinton@wam-2.localdomain Mon May 10 03:20:01 2021 Return-Path: X-Original-To: sinton Delivered-To: sinton@wam-2.localdomain Received: by wam-2.localdomain (Postfix, from userid 1001) id 512E03965C; Mon, 10 May 2021 03:20:01 -0400 (EDT) From: root@wam-2.localdomain (Cron Daemon) To: sinton@wam-2.localdomain Subject: Cron ~/symlinks/TEAM1F/metin/apiv4.sh 1f > /dev/null MIME-Version: 1.0 Content-Type: text/plain; charset=UTF-8 Content-Transfer-Encoding: 8bit X-Cron-Env: X-Cron-Env: X-Cron-Env: X-Cron-Env: Message-Id: <20210510072001.512E03965C@wam-2.localdomain> Date: Mon, 10 May 2021 03:20:01 -0400 (EDT) % Total % Received % Xferd Average Speed Time Time Time Current Dload Upload Total Spent Left Speed 0 0 0 0 0 0 0 0 --:--:-- --:--:-- --:--:-- 0 100 382 100 382 0 0 6063 0 --:--:-- --:--:-- --:--:-- 6063 From sinton@wam-2.localdomain Mon May 10 03:21:01 2021 Return-Path: X-Original-To: sinton Delivered-To: sinton@wam-2.localdomain Received: by wam-2.localdomain (Postfix, from userid 1001) id 993BB396EB; Mon, 10 May 2021 03:21:01 -0400 (EDT) From: root@wam-2.localdomain (Cron Daemon) To: sinton@wam-2.localdomain Subject: Cron ~/symlinks/TEAM99/ogoakinitchka2.sh 99 0.05 > /dev/null MIME-Version: 1.0 Content-Type: text/plain; charset=UTF-8 Content-Transfer-Encoding: 8bit X-Cron-Env: X-Cron-Env: X-Cron-Env: X-Cron-Env: Message-Id: <20210510072101.993BB396EB@wam-2.localdomain> Date: Mon, 10 May 2021 03:21:01 -0400 (EDT) /bin/sh: 1: /home/sinton/symlinks/TEAM99/ogoakinitchka2.sh: not found From sinton@wam-2.localdomain Mon May 10 03:21:01 2021 Return-Path: X-Original-To: sinton Delivered-To: sinton@wam-2.localdomain Received: by wam-2.localdomain (Postfix, from userid 1001) id A8CA9396EB; Mon, 10 May 2021 03:21:01 -0400 (EDT) From: root@wam-2.localdomain (Cron Daemon) To: sinton@wam-2.localdomain Subject: Cron ~/symlinks/TEAM1F/metin/apiv4.sh 1f > /dev/null MIME-Version: 1.0 Content-Type: text/plain; charset=UTF-8 Content-Transfer-Encoding: 8bit X-Cron-Env: X-Cron-Env: X-Cron-Env: X-Cron-Env: Message-Id: <20210510072101.A8CA9396EB@wam-2.localdomain> Date: Mon, 10 May 2021 03:21:01 -0400 (EDT) % Total % Received % Xferd Average Speed Time Time Time Current Dload Upload Total Spent Left Speed 0 0 0 0 0 0 0 0 --:--:-- --:--:-- --:--:-- 0 100 382 100 382 0 0 5536 0 --:--:-- --:--:-- --:--:-- 5536 From sinton@wam-2.localdomain Mon May 10 03:22:01 2021 Return-Path: X-Original-To: sinton Delivered-To: sinton@wam-2.localdomain Received: by wam-2.localdomain (Postfix, from userid 1001) id DCC6B3972E; Mon, 10 May 2021 03:22:01 -0400 (EDT) From: root@wam-2.localdomain (Cron Daemon) To: sinton@wam-2.localdomain Subject: Cron ~/symlinks/TEAM99/ogoakinitchka2.sh 99 0.05 > /dev/null MIME-Version: 1.0 Content-Type: text/plain; charset=UTF-8 Content-Transfer-Encoding: 8bit X-Cron-Env: X-Cron-Env: X-Cron-Env: X-Cron-Env: Message-Id: <20210510072201.DCC6B3972E@wam-2.localdomain> Date: Mon, 10 May 2021 03:22:01 -0400 (EDT) /bin/sh: 1: /home/sinton/symlinks/TEAM99/ogoakinitchka2.sh: not found From sinton@wam-2.localdomain Mon May 10 03:22:02 2021 Return-Path: X-Original-To: sinton Delivered-To: sinton@wam-2.localdomain Received: by wam-2.localdomain (Postfix, from userid 1001) id 018DF3972E; Mon, 10 May 2021 03:22:01 -0400 (EDT) From: root@wam-2.localdomain (Cron Daemon) To: sinton@wam-2.localdomain Subject: Cron ~/symlinks/TEAM1F/metin/apiv4.sh 1f > /dev/null MIME-Version: 1.0 Content-Type: text/plain; charset=UTF-8 Content-Transfer-Encoding: 8bit X-Cron-Env: X-Cron-Env: X-Cron-Env: X-Cron-Env: Message-Id: <20210510072202.018DF3972E@wam-2.localdomain> Date: Mon, 10 May 2021 03:22:01 -0400 (EDT) % Total % Received % Xferd Average Speed Time Time Time Current Dload Upload Total Spent Left Speed 0 0 0 0 0 0 0 0 --:--:-- --:--:-- --:--:-- 0 100 385 100 385 0 0 5500 0 --:--:-- --:--:-- --:--:-- 5500 From sinton@wam-2.localdomain Mon May 10 03:23:01 2021 Return-Path: X-Original-To: sinton Delivered-To: sinton@wam-2.localdomain Received: by wam-2.localdomain (Postfix, from userid 1001) id 3344E39713; Mon, 10 May 2021 03:23:01 -0400 (EDT) From: root@wam-2.localdomain (Cron Daemon) To: sinton@wam-2.localdomain Subject: Cron ~/symlinks/TEAM99/ogoakinitchka2.sh 99 0.05 > /dev/null MIME-Version: 1.0 Content-Type: text/plain; charset=UTF-8 Content-Transfer-Encoding: 8bit X-Cron-Env: X-Cron-Env: X-Cron-Env: X-Cron-Env: Message-Id: <20210510072301.3344E39713@wam-2.localdomain> Date: Mon, 10 May 2021 03:23:01 -0400 (EDT) /bin/sh: 1: /home/sinton/symlinks/TEAM99/ogoakinitchka2.sh: not found From sinton@wam-2.localdomain Mon May 10 03:23:01 2021 Return-Path: X-Original-To: sinton Delivered-To: sinton@wam-2.localdomain Received: by wam-2.localdomain (Postfix, from userid 1001) id 46E2839713; Mon, 10 May 2021 03:23:01 -0400 (EDT) From: root@wam-2.localdomain (Cron Daemon) To: sinton@wam-2.localdomain Subject: Cron ~/symlinks/TEAM1F/metin/apiv4.sh 1f > /dev/null MIME-Version: 1.0 Content-Type: text/plain; charset=UTF-8 Content-Transfer-Encoding: 8bit X-Cron-Env: X-Cron-Env: X-Cron-Env: X-Cron-Env: Message-Id: <20210510072301.46E2839713@wam-2.localdomain> Date: Mon, 10 May 2021 03:23:01 -0400 (EDT) % Total % Received % Xferd Average Speed Time Time Time Current Dload Upload Total Spent Left Speed 0 0 0 0 0 0 0 0 --:--:-- --:--:-- --:--:-- 0 100 385 100 385 0 0 4812 0 --:--:-- --:--:-- --:--:-- 4812 From sinton@wam-2.localdomain Mon May 10 03:24:01 2021 Return-Path: X-Original-To: sinton Delivered-To: sinton@wam-2.localdomain Received: by wam-2.localdomain (Postfix, from userid 1001) id 7B42539710; Mon, 10 May 2021 03:24:01 -0400 (EDT) From: root@wam-2.localdomain (Cron Daemon) To: sinton@wam-2.localdomain Subject: Cron ~/symlinks/TEAM99/ogoakinitchka2.sh 99 0.05 > /dev/null MIME-Version: 1.0 Content-Type: text/plain; charset=UTF-8 Content-Transfer-Encoding: 8bit X-Cron-Env: X-Cron-Env: X-Cron-Env: X-Cron-Env: Message-Id: <20210510072401.7B42539710@wam-2.localdomain> Date: Mon, 10 May 2021 03:24:01 -0400 (EDT) /bin/sh: 1: /home/sinton/symlinks/TEAM99/ogoakinitchka2.sh: not found From sinton@wam-2.localdomain Mon May 10 03:24:01 2021 Return-Path: X-Original-To: sinton Delivered-To: sinton@wam-2.localdomain Received: by wam-2.localdomain (Postfix, from userid 1001) id 90B4039710; Mon, 10 May 2021 03:24:01 -0400 (EDT) From: root@wam-2.localdomain (Cron Daemon) To: sinton@wam-2.localdomain Subject: Cron ~/symlinks/TEAM1F/metin/apiv4.sh 1f > /dev/null MIME-Version: 1.0 Content-Type: text/plain; charset=UTF-8 Content-Transfer-Encoding: 8bit X-Cron-Env: X-Cron-Env: X-Cron-Env: X-Cron-Env: Message-Id: <20210510072401.90B4039710@wam-2.localdomain> Date: Mon, 10 May 2021 03:24:01 -0400 (EDT) % Total % Received % Xferd Average Speed Time Time Time Current Dload Upload Total Spent Left Speed 0 0 0 0 0 0 0 0 --:--:-- --:--:-- --:--:-- 0 100 382 100 382 0 0 5968 0 --:--:-- --:--:-- --:--:-- 5968 From sinton@wam-2.localdomain Mon May 10 03:25:01 2021 Return-Path: X-Original-To: sinton Delivered-To: sinton@wam-2.localdomain Received: by wam-2.localdomain (Postfix, from userid 1001) id C30FB3971C; Mon, 10 May 2021 03:25:01 -0400 (EDT) From: root@wam-2.localdomain (Cron Daemon) To: sinton@wam-2.localdomain Subject: Cron ~/symlinks/TEAM99/ogoakinitchka2.sh 99 0.05 > /dev/null MIME-Version: 1.0 Content-Type: text/plain; charset=UTF-8 Content-Transfer-Encoding: 8bit X-Cron-Env: X-Cron-Env: X-Cron-Env: X-Cron-Env: Message-Id: <20210510072501.C30FB3971C@wam-2.localdomain> Date: Mon, 10 May 2021 03:25:01 -0400 (EDT) /bin/sh: 1: /home/sinton/symlinks/TEAM99/ogoakinitchka2.sh: not found From sinton@wam-2.localdomain Mon May 10 03:25:01 2021 Return-Path: X-Original-To: sinton Delivered-To: sinton@wam-2.localdomain Received: by wam-2.localdomain (Postfix, from userid 1001) id D45733971C; Mon, 10 May 2021 03:25:01 -0400 (EDT) From: root@wam-2.localdomain (Cron Daemon) To: sinton@wam-2.localdomain Subject: Cron ~/symlinks/TEAM1F/metin/apiv4.sh 1f > /dev/null MIME-Version: 1.0 Content-Type: text/plain; charset=UTF-8 Content-Transfer-Encoding: 8bit X-Cron-Env: X-Cron-Env: X-Cron-Env: X-Cron-Env: Message-Id: <20210510072501.D45733971C@wam-2.localdomain> Date: Mon, 10 May 2021 03:25:01 -0400 (EDT) % Total % Received % Xferd Average Speed Time Time Time Current Dload Upload Total Spent Left Speed 0 0 0 0 0 0 0 0 --:--:-- --:--:-- --:--:-- 0 100 382 100 382 0 0 6945 0 --:--:-- --:--:-- --:--:-- 6945 From sinton@wam-2.localdomain Mon May 10 03:25:33 2021 Return-Path: X-Original-To: sinton Delivered-To: sinton@wam-2.localdomain Received: by wam-2.localdomain (Postfix, from userid 1001) id 150D439710; Mon, 10 May 2021 03:25:33 -0400 (EDT) From: root@wam-2.localdomain (Cron Daemon) To: sinton@wam-2.localdomain Subject: Cron bash -c "sleep $[RANDOM%30]m" ; ~/symlinks/TEAM1N/fcst/startfcstclim.sh 1n > /dev/null MIME-Version: 1.0 Content-Type: text/plain; charset=UTF-8 Content-Transfer-Encoding: 8bit X-Cron-Env: X-Cron-Env: X-Cron-Env: X-Cron-Env: Message-Id: <20210510072533.150D439710@wam-2.localdomain> Date: Mon, 10 May 2021 03:25:33 -0400 (EDT) % Total % Received % Xferd Average Speed Time Time Time Current Dload Upload Total Spent Left Speed 0 0 0 0 0 0 0 0 --:--:-- --:--:-- --:--:-- 0 100 41854 100 41854 0 0 213k 0 --:--:-- --:--:-- --:--:-- 213k From sinton@wam-2.localdomain Mon May 10 03:26:01 2021 Return-Path: X-Original-To: sinton Delivered-To: sinton@wam-2.localdomain Received: by wam-2.localdomain (Postfix, from userid 1001) id 52C9C3974A; Mon, 10 May 2021 03:26:01 -0400 (EDT) From: root@wam-2.localdomain (Cron Daemon) To: sinton@wam-2.localdomain Subject: Cron ~/symlinks/TEAM99/ogoakinitchka2.sh 99 0.05 > /dev/null MIME-Version: 1.0 Content-Type: text/plain; charset=UTF-8 Content-Transfer-Encoding: 8bit X-Cron-Env: X-Cron-Env: X-Cron-Env: X-Cron-Env: Message-Id: <20210510072601.52C9C3974A@wam-2.localdomain> Date: Mon, 10 May 2021 03:26:01 -0400 (EDT) /bin/sh: 1: /home/sinton/symlinks/TEAM99/ogoakinitchka2.sh: not found From sinton@wam-2.localdomain Mon May 10 03:26:01 2021 Return-Path: X-Original-To: sinton Delivered-To: sinton@wam-2.localdomain Received: by wam-2.localdomain (Postfix, from userid 1001) id 6E1DD39726; Mon, 10 May 2021 03:26:01 -0400 (EDT) From: root@wam-2.localdomain (Cron Daemon) To: sinton@wam-2.localdomain Subject: Cron ~/symlinks/TEAM1F/metin/apiv4.sh 1f > /dev/null MIME-Version: 1.0 Content-Type: text/plain; charset=UTF-8 Content-Transfer-Encoding: 8bit X-Cron-Env: X-Cron-Env: X-Cron-Env: X-Cron-Env: Message-Id: <20210510072601.6E1DD39726@wam-2.localdomain> Date: Mon, 10 May 2021 03:26:01 -0400 (EDT) % Total % Received % Xferd Average Speed Time Time Time Current Dload Upload Total Spent Left Speed 0 0 0 0 0 0 0 0 --:--:-- --:--:-- --:--:-- 0 100 385 100 385 0 0 6015 0 --:--:-- --:--:-- --:--:-- 6111 From sinton@wam-2.localdomain Mon May 10 03:27:01 2021 Return-Path: X-Original-To: sinton Delivered-To: sinton@wam-2.localdomain Received: by wam-2.localdomain (Postfix, from userid 1001) id 9FA5539734; Mon, 10 May 2021 03:27:01 -0400 (EDT) From: root@wam-2.localdomain (Cron Daemon) To: sinton@wam-2.localdomain Subject: Cron ~/symlinks/TEAM99/ogoakinitchka2.sh 99 0.05 > /dev/null MIME-Version: 1.0 Content-Type: text/plain; charset=UTF-8 Content-Transfer-Encoding: 8bit X-Cron-Env: X-Cron-Env: X-Cron-Env: X-Cron-Env: Message-Id: <20210510072701.9FA5539734@wam-2.localdomain> Date: Mon, 10 May 2021 03:27:01 -0400 (EDT) /bin/sh: 1: /home/sinton/symlinks/TEAM99/ogoakinitchka2.sh: not found From sinton@wam-2.localdomain Mon May 10 03:27:01 2021 Return-Path: X-Original-To: sinton Delivered-To: sinton@wam-2.localdomain Received: by wam-2.localdomain (Postfix, from userid 1001) id B0A7439734; Mon, 10 May 2021 03:27:01 -0400 (EDT) From: root@wam-2.localdomain (Cron Daemon) To: sinton@wam-2.localdomain Subject: Cron ~/symlinks/TEAM1F/metin/apiv4.sh 1f > /dev/null MIME-Version: 1.0 Content-Type: text/plain; charset=UTF-8 Content-Transfer-Encoding: 8bit X-Cron-Env: X-Cron-Env: X-Cron-Env: X-Cron-Env: Message-Id: <20210510072701.B0A7439734@wam-2.localdomain> Date: Mon, 10 May 2021 03:27:01 -0400 (EDT) % Total % Received % Xferd Average Speed Time Time Time Current Dload Upload Total Spent Left Speed 0 0 0 0 0 0 0 0 --:--:-- --:--:-- --:--:-- 0 100 385 100 385 0 0 6416 0 --:--:-- --:--:-- --:--:-- 6525 From sinton@wam-2.localdomain Mon May 10 03:28:01 2021 Return-Path: X-Original-To: sinton Delivered-To: sinton@wam-2.localdomain Received: by wam-2.localdomain (Postfix, from userid 1001) id E542B3973B; Mon, 10 May 2021 03:28:01 -0400 (EDT) From: root@wam-2.localdomain (Cron Daemon) To: sinton@wam-2.localdomain Subject: Cron ~/symlinks/TEAM99/ogoakinitchka2.sh 99 0.05 > /dev/null MIME-Version: 1.0 Content-Type: text/plain; charset=UTF-8 Content-Transfer-Encoding: 8bit X-Cron-Env: X-Cron-Env: X-Cron-Env: X-Cron-Env: Message-Id: <20210510072801.E542B3973B@wam-2.localdomain> Date: Mon, 10 May 2021 03:28:01 -0400 (EDT) /bin/sh: 1: /home/sinton/symlinks/TEAM99/ogoakinitchka2.sh: not found From sinton@wam-2.localdomain Mon May 10 03:28:02 2021 Return-Path: X-Original-To: sinton Delivered-To: sinton@wam-2.localdomain Received: by wam-2.localdomain (Postfix, from userid 1001) id 039F13973B; Mon, 10 May 2021 03:28:02 -0400 (EDT) From: root@wam-2.localdomain (Cron Daemon) To: sinton@wam-2.localdomain Subject: Cron ~/symlinks/TEAM1F/metin/apiv4.sh 1f > /dev/null MIME-Version: 1.0 Content-Type: text/plain; charset=UTF-8 Content-Transfer-Encoding: 8bit X-Cron-Env: X-Cron-Env: X-Cron-Env: X-Cron-Env: Message-Id: <20210510072802.039F13973B@wam-2.localdomain> Date: Mon, 10 May 2021 03:28:02 -0400 (EDT) % Total % Received % Xferd Average Speed Time Time Time Current Dload Upload Total Spent Left Speed 0 0 0 0 0 0 0 0 --:--:-- --:--:-- --:--:-- 0 100 382 100 382 0 0 4292 0 --:--:-- --:--:-- --:--:-- 4292 From sinton@wam-2.localdomain Mon May 10 03:29:01 2021 Return-Path: X-Original-To: sinton Delivered-To: sinton@wam-2.localdomain Received: by wam-2.localdomain (Postfix, from userid 1001) id 3AE043973E; Mon, 10 May 2021 03:29:01 -0400 (EDT) From: root@wam-2.localdomain (Cron Daemon) To: sinton@wam-2.localdomain Subject: Cron ~/symlinks/TEAM99/ogoakinitchka2.sh 99 0.05 > /dev/null MIME-Version: 1.0 Content-Type: text/plain; charset=UTF-8 Content-Transfer-Encoding: 8bit X-Cron-Env: X-Cron-Env: X-Cron-Env: X-Cron-Env: Message-Id: <20210510072901.3AE043973E@wam-2.localdomain> Date: Mon, 10 May 2021 03:29:01 -0400 (EDT) /bin/sh: 1: /home/sinton/symlinks/TEAM99/ogoakinitchka2.sh: not found From sinton@wam-2.localdomain Mon May 10 03:29:01 2021 Return-Path: X-Original-To: sinton Delivered-To: sinton@wam-2.localdomain Received: by wam-2.localdomain (Postfix, from userid 1001) id 4B42138599; Mon, 10 May 2021 03:29:01 -0400 (EDT) From: root@wam-2.localdomain (Cron Daemon) To: sinton@wam-2.localdomain Subject: Cron ~/symlinks/TEAM1F/metin/apiv4.sh 1f > /dev/null MIME-Version: 1.0 Content-Type: text/plain; charset=UTF-8 Content-Transfer-Encoding: 8bit X-Cron-Env: X-Cron-Env: X-Cron-Env: X-Cron-Env: Message-Id: <20210510072901.4B42138599@wam-2.localdomain> Date: Mon, 10 May 2021 03:29:01 -0400 (EDT) % Total % Received % Xferd Average Speed Time Time Time Current Dload Upload Total Spent Left Speed 0 0 0 0 0 0 0 0 --:--:-- --:--:-- --:--:-- 0 100 382 100 382 0 0 5536 0 --:--:-- --:--:-- --:--:-- 5536 From sinton@wam-2.localdomain Mon May 10 03:29:24 2021 Return-Path: X-Original-To: sinton Delivered-To: sinton@wam-2.localdomain Received: by wam-2.localdomain (Postfix, from userid 1001) id 60BBE384F4; Mon, 10 May 2021 03:29:24 -0400 (EDT) From: root@wam-2.localdomain (Cron Daemon) To: sinton@wam-2.localdomain Subject: Cron bash -c "sleep $[RANDOM%30]m" ; ~/symlinks/TEAM1/fcst/startfcstclim.sh 1 > /dev/null MIME-Version: 1.0 Content-Type: text/plain; charset=UTF-8 Content-Transfer-Encoding: 8bit X-Cron-Env: X-Cron-Env: X-Cron-Env: X-Cron-Env: Message-Id: <20210510072924.60BBE384F4@wam-2.localdomain> Date: Mon, 10 May 2021 03:29:24 -0400 (EDT) % Total % Received % Xferd Average Speed Time Time Time Current Dload Upload Total Spent Left Speed 0 0 0 0 0 0 0 0 --:--:-- --:--:-- --:--:-- 0 100 41742 100 41742 0 0 433k 0 --:--:-- --:--:-- --:--:-- 433k From sinton@wam-2.localdomain Mon May 10 03:30:01 2021 Return-Path: X-Original-To: sinton Delivered-To: sinton@wam-2.localdomain Received: by wam-2.localdomain (Postfix, from userid 1001) id 95F71385A5; Mon, 10 May 2021 03:30:01 -0400 (EDT) From: root@wam-2.localdomain (Cron Daemon) To: sinton@wam-2.localdomain Subject: Cron ~/symlinks/TEAM99/ogoakinitchka2.sh 99 0.05 > /dev/null MIME-Version: 1.0 Content-Type: text/plain; charset=UTF-8 Content-Transfer-Encoding: 8bit X-Cron-Env: X-Cron-Env: X-Cron-Env: X-Cron-Env: Message-Id: <20210510073001.95F71385A5@wam-2.localdomain> Date: Mon, 10 May 2021 03:30:01 -0400 (EDT) /bin/sh: 1: /home/sinton/symlinks/TEAM99/ogoakinitchka2.sh: not found From sinton@wam-2.localdomain Mon May 10 03:30:01 2021 Return-Path: X-Original-To: sinton Delivered-To: sinton@wam-2.localdomain Received: by wam-2.localdomain (Postfix, from userid 1001) id B0B3B3914E; Mon, 10 May 2021 03:30:01 -0400 (EDT) From: root@wam-2.localdomain (Cron Daemon) To: sinton@wam-2.localdomain Subject: Cron ~/symlinks/TEAM1F/metin/apiv4.sh 1f > /dev/null MIME-Version: 1.0 Content-Type: text/plain; charset=UTF-8 Content-Transfer-Encoding: 8bit X-Cron-Env: X-Cron-Env: X-Cron-Env: X-Cron-Env: Message-Id: <20210510073001.B0B3B3914E@wam-2.localdomain> Date: Mon, 10 May 2021 03:30:01 -0400 (EDT) % Total % Received % Xferd Average Speed Time Time Time Current Dload Upload Total Spent Left Speed 0 0 0 0 0 0 0 0 --:--:-- --:--:-- --:--:-- 0 100 385 100 385 0 0 4753 0 --:--:-- --:--:-- --:--:-- 4753 From sinton@wam-2.localdomain Mon May 10 03:30:32 2021 Return-Path: X-Original-To: sinton Delivered-To: sinton@wam-2.localdomain Received: by wam-2.localdomain (Postfix, from userid 1001) id 1EDB7394B6; Mon, 10 May 2021 03:30:32 -0400 (EDT) From: root@wam-2.localdomain (Cron Daemon) To: sinton@wam-2.localdomain Subject: Cron bash -c "sleep $[RANDOM%30]m" ; ~/symlinks/TEAM8/fcst/startfcstclim.sh 8 > /dev/null MIME-Version: 1.0 Content-Type: text/plain; charset=UTF-8 Content-Transfer-Encoding: 8bit X-Cron-Env: X-Cron-Env: X-Cron-Env: X-Cron-Env: Message-Id: <20210510073032.1EDB7394B6@wam-2.localdomain> Date: Mon, 10 May 2021 03:30:32 -0400 (EDT) % Total % Received % Xferd Average Speed Time Time Time Current Dload Upload Total Spent Left Speed 0 0 0 0 0 0 0 0 --:--:-- --:--:-- --:--:-- 0 100 41642 100 41642 0 0 113k 0 --:--:-- --:--:-- --:--:-- 113k From sinton@wam-2.localdomain Mon May 10 03:31:01 2021 Return-Path: X-Original-To: sinton Delivered-To: sinton@wam-2.localdomain Received: by wam-2.localdomain (Postfix, from userid 1001) id 6900538ACF; Mon, 10 May 2021 03:31:01 -0400 (EDT) From: root@wam-2.localdomain (Cron Daemon) To: sinton@wam-2.localdomain Subject: Cron ~/symlinks/TEAM99/ogoakinitchka2.sh 99 0.05 > /dev/null MIME-Version: 1.0 Content-Type: text/plain; charset=UTF-8 Content-Transfer-Encoding: 8bit X-Cron-Env: X-Cron-Env: X-Cron-Env: X-Cron-Env: Message-Id: <20210510073101.6900538ACF@wam-2.localdomain> Date: Mon, 10 May 2021 03:31:01 -0400 (EDT) /bin/sh: 1: /home/sinton/symlinks/TEAM99/ogoakinitchka2.sh: not found From sinton@wam-2.localdomain Mon May 10 03:31:01 2021 Return-Path: X-Original-To: sinton Delivered-To: sinton@wam-2.localdomain Received: by wam-2.localdomain (Postfix, from userid 1001) id 7459038AD3; Mon, 10 May 2021 03:31:01 -0400 (EDT) From: root@wam-2.localdomain (Cron Daemon) To: sinton@wam-2.localdomain Subject: Cron ~/symlinks/TEAM1F/metin/apiv4.sh 1f > /dev/null MIME-Version: 1.0 Content-Type: text/plain; charset=UTF-8 Content-Transfer-Encoding: 8bit X-Cron-Env: X-Cron-Env: X-Cron-Env: X-Cron-Env: Message-Id: <20210510073101.7459038AD3@wam-2.localdomain> Date: Mon, 10 May 2021 03:31:01 -0400 (EDT) % Total % Received % Xferd Average Speed Time Time Time Current Dload Upload Total Spent Left Speed 0 0 0 0 0 0 0 0 --:--:-- --:--:-- --:--:-- 0 100 385 100 385 0 0 6209 0 --:--:-- --:--:-- --:--:-- 6209 From sinton@wam-2.localdomain Mon May 10 03:32:01 2021 Return-Path: X-Original-To: sinton Delivered-To: sinton@wam-2.localdomain Received: by wam-2.localdomain (Postfix, from userid 1001) id A31C438D6C; Mon, 10 May 2021 03:32:01 -0400 (EDT) From: root@wam-2.localdomain (Cron Daemon) To: sinton@wam-2.localdomain Subject: Cron ~/symlinks/TEAM99/ogoakinitchka2.sh 99 0.05 > /dev/null MIME-Version: 1.0 Content-Type: text/plain; charset=UTF-8 Content-Transfer-Encoding: 8bit X-Cron-Env: X-Cron-Env: X-Cron-Env: X-Cron-Env: Message-Id: <20210510073201.A31C438D6C@wam-2.localdomain> Date: Mon, 10 May 2021 03:32:01 -0400 (EDT) /bin/sh: 1: /home/sinton/symlinks/TEAM99/ogoakinitchka2.sh: not found From sinton@wam-2.localdomain Mon May 10 03:32:01 2021 Return-Path: X-Original-To: sinton Delivered-To: sinton@wam-2.localdomain Received: by wam-2.localdomain (Postfix, from userid 1001) id C193738D6C; Mon, 10 May 2021 03:32:01 -0400 (EDT) From: root@wam-2.localdomain (Cron Daemon) To: sinton@wam-2.localdomain Subject: Cron ~/symlinks/TEAM1F/metin/apiv4.sh 1f > /dev/null MIME-Version: 1.0 Content-Type: text/plain; charset=UTF-8 Content-Transfer-Encoding: 8bit X-Cron-Env: X-Cron-Env: X-Cron-Env: X-Cron-Env: Message-Id: <20210510073201.C193738D6C@wam-2.localdomain> Date: Mon, 10 May 2021 03:32:01 -0400 (EDT) % Total % Received % Xferd Average Speed Time Time Time Current Dload Upload Total Spent Left Speed 0 0 0 0 0 0 0 0 --:--:-- --:--:-- --:--:-- 0 100 385 100 385 0 0 5661 0 --:--:-- --:--:-- --:--:-- 5661 From sinton@wam-2.localdomain Mon May 10 03:33:02 2021 Return-Path: X-Original-To: sinton Delivered-To: sinton@wam-2.localdomain Received: by wam-2.localdomain (Postfix, from userid 1001) id 08146375E3; Mon, 10 May 2021 03:33:02 -0400 (EDT) From: root@wam-2.localdomain (Cron Daemon) To: sinton@wam-2.localdomain Subject: Cron ~/symlinks/TEAM99/ogoakinitchka2.sh 99 0.05 > /dev/null MIME-Version: 1.0 Content-Type: text/plain; charset=UTF-8 Content-Transfer-Encoding: 8bit X-Cron-Env: X-Cron-Env: X-Cron-Env: X-Cron-Env: Message-Id: <20210510073302.08146375E3@wam-2.localdomain> Date: Mon, 10 May 2021 03:33:02 -0400 (EDT) /bin/sh: 1: /home/sinton/symlinks/TEAM99/ogoakinitchka2.sh: not found From sinton@wam-2.localdomain Mon May 10 03:33:02 2021 Return-Path: X-Original-To: sinton Delivered-To: sinton@wam-2.localdomain Received: by wam-2.localdomain (Postfix, from userid 1001) id 1864138583; Mon, 10 May 2021 03:33:02 -0400 (EDT) From: root@wam-2.localdomain (Cron Daemon) To: sinton@wam-2.localdomain Subject: Cron ~/symlinks/TEAM1F/metin/apiv4.sh 1f > /dev/null MIME-Version: 1.0 Content-Type: text/plain; charset=UTF-8 Content-Transfer-Encoding: 8bit X-Cron-Env: X-Cron-Env: X-Cron-Env: X-Cron-Env: Message-Id: <20210510073302.1864138583@wam-2.localdomain> Date: Mon, 10 May 2021 03:33:02 -0400 (EDT) % Total % Received % Xferd Average Speed Time Time Time Current Dload Upload Total Spent Left Speed 0 0 0 0 0 0 0 0 --:--:-- --:--:-- --:--:-- 0 100 385 100 385 0 0 3632 0 --:--:-- --:--:-- --:--:-- 3632 From sinton@wam-2.localdomain Mon May 10 03:34:01 2021 Return-Path: X-Original-To: sinton Delivered-To: sinton@wam-2.localdomain Received: by wam-2.localdomain (Postfix, from userid 1001) id 5586B3976C; Mon, 10 May 2021 03:34:01 -0400 (EDT) From: root@wam-2.localdomain (Cron Daemon) To: sinton@wam-2.localdomain Subject: Cron ~/symlinks/TEAM99/ogoakinitchka2.sh 99 0.05 > /dev/null MIME-Version: 1.0 Content-Type: text/plain; charset=UTF-8 Content-Transfer-Encoding: 8bit X-Cron-Env: X-Cron-Env: X-Cron-Env: X-Cron-Env: Message-Id: <20210510073401.5586B3976C@wam-2.localdomain> Date: Mon, 10 May 2021 03:34:01 -0400 (EDT) /bin/sh: 1: /home/sinton/symlinks/TEAM99/ogoakinitchka2.sh: not found From sinton@wam-2.localdomain Mon May 10 03:34:01 2021 Return-Path: X-Original-To: sinton Delivered-To: sinton@wam-2.localdomain Received: by wam-2.localdomain (Postfix, from userid 1001) id 63A1E3857C; Mon, 10 May 2021 03:34:01 -0400 (EDT) From: root@wam-2.localdomain (Cron Daemon) To: sinton@wam-2.localdomain Subject: Cron ~/symlinks/TEAM1F/metin/apiv4.sh 1f > /dev/null MIME-Version: 1.0 Content-Type: text/plain; charset=UTF-8 Content-Transfer-Encoding: 8bit X-Cron-Env: X-Cron-Env: X-Cron-Env: X-Cron-Env: Message-Id: <20210510073401.63A1E3857C@wam-2.localdomain> Date: Mon, 10 May 2021 03:34:01 -0400 (EDT) % Total % Received % Xferd Average Speed Time Time Time Current Dload Upload Total Spent Left Speed 0 0 0 0 0 0 0 0 --:--:-- --:--:-- --:--:-- 0 100 386 100 386 0 0 5078 0 --:--:-- --:--:-- --:--:-- 5078 From sinton@wam-2.localdomain Mon May 10 03:35:01 2021 Return-Path: X-Original-To: sinton Delivered-To: sinton@wam-2.localdomain Received: by wam-2.localdomain (Postfix, from userid 1001) id 9D94D39765; Mon, 10 May 2021 03:35:01 -0400 (EDT) From: root@wam-2.localdomain (Cron Daemon) To: sinton@wam-2.localdomain Subject: Cron ~/symlinks/TEAM99/ogoakinitchka2.sh 99 0.05 > /dev/null MIME-Version: 1.0 Content-Type: text/plain; charset=UTF-8 Content-Transfer-Encoding: 8bit X-Cron-Env: X-Cron-Env: X-Cron-Env: X-Cron-Env: Message-Id: <20210510073501.9D94D39765@wam-2.localdomain> Date: Mon, 10 May 2021 03:35:01 -0400 (EDT) /bin/sh: 1: /home/sinton/symlinks/TEAM99/ogoakinitchka2.sh: not found From sinton@wam-2.localdomain Mon May 10 03:35:01 2021 Return-Path: X-Original-To: sinton Delivered-To: sinton@wam-2.localdomain Received: by wam-2.localdomain (Postfix, from userid 1001) id B116B39765; Mon, 10 May 2021 03:35:01 -0400 (EDT) From: root@wam-2.localdomain (Cron Daemon) To: sinton@wam-2.localdomain Subject: Cron ~/symlinks/TEAM1F/metin/apiv4.sh 1f > /dev/null MIME-Version: 1.0 Content-Type: text/plain; charset=UTF-8 Content-Transfer-Encoding: 8bit X-Cron-Env: X-Cron-Env: X-Cron-Env: X-Cron-Env: Message-Id: <20210510073501.B116B39765@wam-2.localdomain> Date: Mon, 10 May 2021 03:35:01 -0400 (EDT) % Total % Received % Xferd Average Speed Time Time Time Current Dload Upload Total Spent Left Speed 0 0 0 0 0 0 0 0 --:--:-- --:--:-- --:--:-- 0 100 385 100 385 0 0 4230 0 --:--:-- --:--:-- --:--:-- 4230 From sinton@wam-2.localdomain Mon May 10 03:36:02 2021 Return-Path: X-Original-To: sinton Delivered-To: sinton@wam-2.localdomain Received: by wam-2.localdomain (Postfix, from userid 1001) id 023C93975A; Mon, 10 May 2021 03:36:02 -0400 (EDT) From: root@wam-2.localdomain (Cron Daemon) To: sinton@wam-2.localdomain Subject: Cron ~/symlinks/TEAM99/ogoakinitchka2.sh 99 0.05 > /dev/null MIME-Version: 1.0 Content-Type: text/plain; charset=UTF-8 Content-Transfer-Encoding: 8bit X-Cron-Env: X-Cron-Env: X-Cron-Env: X-Cron-Env: Message-Id: <20210510073602.023C93975A@wam-2.localdomain> Date: Mon, 10 May 2021 03:36:01 -0400 (EDT) /bin/sh: 1: /home/sinton/symlinks/TEAM99/ogoakinitchka2.sh: not found From sinton@wam-2.localdomain Mon May 10 03:36:02 2021 Return-Path: X-Original-To: sinton Delivered-To: sinton@wam-2.localdomain Received: by wam-2.localdomain (Postfix, from userid 1001) id 1D9DE3975A; Mon, 10 May 2021 03:36:02 -0400 (EDT) From: root@wam-2.localdomain (Cron Daemon) To: sinton@wam-2.localdomain Subject: Cron ~/symlinks/TEAM1F/metin/apiv4.sh 1f > /dev/null MIME-Version: 1.0 Content-Type: text/plain; charset=UTF-8 Content-Transfer-Encoding: 8bit X-Cron-Env: X-Cron-Env: X-Cron-Env: X-Cron-Env: Message-Id: <20210510073602.1D9DE3975A@wam-2.localdomain> Date: Mon, 10 May 2021 03:36:02 -0400 (EDT) % Total % Received % Xferd Average Speed Time Time Time Current Dload Upload Total Spent Left Speed 0 0 0 0 0 0 0 0 --:--:-- --:--:-- --:--:-- 0 100 385 100 385 0 0 3888 0 --:--:-- --:--:-- --:--:-- 3928 From sinton@wam-2.localdomain Mon May 10 03:37:01 2021 Return-Path: X-Original-To: sinton Delivered-To: sinton@wam-2.localdomain Received: by wam-2.localdomain (Postfix, from userid 1001) id 542AB39776; Mon, 10 May 2021 03:37:01 -0400 (EDT) From: root@wam-2.localdomain (Cron Daemon) To: sinton@wam-2.localdomain Subject: Cron ~/symlinks/TEAM99/ogoakinitchka2.sh 99 0.05 > /dev/null MIME-Version: 1.0 Content-Type: text/plain; charset=UTF-8 Content-Transfer-Encoding: 8bit X-Cron-Env: X-Cron-Env: X-Cron-Env: X-Cron-Env: Message-Id: <20210510073701.542AB39776@wam-2.localdomain> Date: Mon, 10 May 2021 03:37:01 -0400 (EDT) /bin/sh: 1: /home/sinton/symlinks/TEAM99/ogoakinitchka2.sh: not found From sinton@wam-2.localdomain Mon May 10 03:37:01 2021 Return-Path: X-Original-To: sinton Delivered-To: sinton@wam-2.localdomain Received: by wam-2.localdomain (Postfix, from userid 1001) id 6451C39776; Mon, 10 May 2021 03:37:01 -0400 (EDT) From: root@wam-2.localdomain (Cron Daemon) To: sinton@wam-2.localdomain Subject: Cron ~/symlinks/TEAM1F/metin/apiv4.sh 1f > /dev/null MIME-Version: 1.0 Content-Type: text/plain; charset=UTF-8 Content-Transfer-Encoding: 8bit X-Cron-Env: X-Cron-Env: X-Cron-Env: X-Cron-Env: Message-Id: <20210510073701.6451C39776@wam-2.localdomain> Date: Mon, 10 May 2021 03:37:01 -0400 (EDT) % Total % Received % Xferd Average Speed Time Time Time Current Dload Upload Total Spent Left Speed 0 0 0 0 0 0 0 0 --:--:-- --:--:-- --:--:-- 0 100 386 100 386 0 0 3821 0 --:--:-- --:--:-- --:--:-- 3821 From sinton@wam-2.localdomain Mon May 10 03:38:01 2021 Return-Path: X-Original-To: sinton Delivered-To: sinton@wam-2.localdomain Received: by wam-2.localdomain (Postfix, from userid 1001) id 9976A3975A; Mon, 10 May 2021 03:38:01 -0400 (EDT) From: root@wam-2.localdomain (Cron Daemon) To: sinton@wam-2.localdomain Subject: Cron ~/symlinks/TEAM99/ogoakinitchka2.sh 99 0.05 > /dev/null MIME-Version: 1.0 Content-Type: text/plain; charset=UTF-8 Content-Transfer-Encoding: 8bit X-Cron-Env: X-Cron-Env: X-Cron-Env: X-Cron-Env: Message-Id: <20210510073801.9976A3975A@wam-2.localdomain> Date: Mon, 10 May 2021 03:38:01 -0400 (EDT) /bin/sh: 1: /home/sinton/symlinks/TEAM99/ogoakinitchka2.sh: not found From sinton@wam-2.localdomain Mon May 10 03:38:01 2021 Return-Path: X-Original-To: sinton Delivered-To: sinton@wam-2.localdomain Received: by wam-2.localdomain (Postfix, from userid 1001) id A792D3975A; Mon, 10 May 2021 03:38:01 -0400 (EDT) From: root@wam-2.localdomain (Cron Daemon) To: sinton@wam-2.localdomain Subject: Cron ~/symlinks/TEAM1F/metin/apiv4.sh 1f > /dev/null MIME-Version: 1.0 Content-Type: text/plain; charset=UTF-8 Content-Transfer-Encoding: 8bit X-Cron-Env: X-Cron-Env: X-Cron-Env: X-Cron-Env: Message-Id: <20210510073801.A792D3975A@wam-2.localdomain> Date: Mon, 10 May 2021 03:38:01 -0400 (EDT) % Total % Received % Xferd Average Speed Time Time Time Current Dload Upload Total Spent Left Speed 0 0 0 0 0 0 0 0 --:--:-- --:--:-- --:--:-- 0 100 386 100 386 0 0 6327 0 --:--:-- --:--:-- --:--:-- 6327 From sinton@wam-2.localdomain Mon May 10 03:39:01 2021 Return-Path: X-Original-To: sinton Delivered-To: sinton@wam-2.localdomain Received: by wam-2.localdomain (Postfix, from userid 1001) id DFAF039777; Mon, 10 May 2021 03:39:01 -0400 (EDT) From: root@wam-2.localdomain (Cron Daemon) To: sinton@wam-2.localdomain Subject: Cron ~/symlinks/TEAM99/ogoakinitchka2.sh 99 0.05 > /dev/null MIME-Version: 1.0 Content-Type: text/plain; charset=UTF-8 Content-Transfer-Encoding: 8bit X-Cron-Env: X-Cron-Env: X-Cron-Env: X-Cron-Env: Message-Id: <20210510073901.DFAF039777@wam-2.localdomain> Date: Mon, 10 May 2021 03:39:01 -0400 (EDT) /bin/sh: 1: /home/sinton/symlinks/TEAM99/ogoakinitchka2.sh: not found From sinton@wam-2.localdomain Mon May 10 03:39:01 2021 Return-Path: X-Original-To: sinton Delivered-To: sinton@wam-2.localdomain Received: by wam-2.localdomain (Postfix, from userid 1001) id EE7A739777; Mon, 10 May 2021 03:39:01 -0400 (EDT) From: root@wam-2.localdomain (Cron Daemon) To: sinton@wam-2.localdomain Subject: Cron ~/symlinks/TEAM1F/metin/apiv4.sh 1f > /dev/null MIME-Version: 1.0 Content-Type: text/plain; charset=UTF-8 Content-Transfer-Encoding: 8bit X-Cron-Env: X-Cron-Env: X-Cron-Env: X-Cron-Env: Message-Id: <20210510073901.EE7A739777@wam-2.localdomain> Date: Mon, 10 May 2021 03:39:01 -0400 (EDT) % Total % Received % Xferd Average Speed Time Time Time Current Dload Upload Total Spent Left Speed 0 0 0 0 0 0 0 0 --:--:-- --:--:-- --:--:-- 0 100 385 100 385 0 0 6525 0 --:--:-- --:--:-- --:--:-- 6525 From sinton@wam-2.localdomain Mon May 10 03:40:02 2021 Return-Path: X-Original-To: sinton Delivered-To: sinton@wam-2.localdomain Received: by wam-2.localdomain (Postfix, from userid 1001) id 334473975A; Mon, 10 May 2021 03:40:02 -0400 (EDT) From: root@wam-2.localdomain (Cron Daemon) To: sinton@wam-2.localdomain Subject: Cron ~/symlinks/TEAM99/ogoakinitchka2.sh 99 0.05 > /dev/null MIME-Version: 1.0 Content-Type: text/plain; charset=UTF-8 Content-Transfer-Encoding: 8bit X-Cron-Env: X-Cron-Env: X-Cron-Env: X-Cron-Env: Message-Id: <20210510074002.334473975A@wam-2.localdomain> Date: Mon, 10 May 2021 03:40:02 -0400 (EDT) /bin/sh: 1: /home/sinton/symlinks/TEAM99/ogoakinitchka2.sh: not found From sinton@wam-2.localdomain Mon May 10 03:40:02 2021 Return-Path: X-Original-To: sinton Delivered-To: sinton@wam-2.localdomain Received: by wam-2.localdomain (Postfix, from userid 1001) id 403543975A; Mon, 10 May 2021 03:40:02 -0400 (EDT) From: root@wam-2.localdomain (Cron Daemon) To: sinton@wam-2.localdomain Subject: Cron ~/symlinks/TEAM1F/metin/apiv4.sh 1f > /dev/null MIME-Version: 1.0 Content-Type: text/plain; charset=UTF-8 Content-Transfer-Encoding: 8bit X-Cron-Env: X-Cron-Env: X-Cron-Env: X-Cron-Env: Message-Id: <20210510074002.403543975A@wam-2.localdomain> Date: Mon, 10 May 2021 03:40:02 -0400 (EDT) % Total % Received % Xferd Average Speed Time Time Time Current Dload Upload Total Spent Left Speed 0 0 0 0 0 0 0 0 --:--:-- --:--:-- --:--:-- 0 100 384 100 384 0 0 6095 0 --:--:-- --:--:-- --:--:-- 6095 From sinton@wam-2.localdomain Mon May 10 03:40:18 2021 Return-Path: X-Original-To: sinton Delivered-To: sinton@wam-2.localdomain Received: by wam-2.localdomain (Postfix, from userid 1001) id 4FEF639785; Mon, 10 May 2021 03:40:18 -0400 (EDT) From: root@wam-2.localdomain (Cron Daemon) To: sinton@wam-2.localdomain Subject: Cron bash -c "sleep $[RANDOM%14]m" ; ~/symlinks/TEAM8/fcst/startfcst.pl 8 > /dev/null MIME-Version: 1.0 Content-Type: text/plain; charset=UTF-8 Content-Transfer-Encoding: 8bit X-Cron-Env: X-Cron-Env: X-Cron-Env: X-Cron-Env: Message-Id: <20210510074018.4FEF639785@wam-2.localdomain> Date: Mon, 10 May 2021 03:40:18 -0400 (EDT) # CSV_XS ERROR: 2034 - EIF - Loose unescaped quote @ rec 0 pos 29 field 1 From sinton@wam-2.localdomain Mon May 10 03:41:01 2021 Return-Path: X-Original-To: sinton Delivered-To: sinton@wam-2.localdomain Received: by wam-2.localdomain (Postfix, from userid 1001) id A009838F8E; Mon, 10 May 2021 03:41:01 -0400 (EDT) From: root@wam-2.localdomain (Cron Daemon) To: sinton@wam-2.localdomain Subject: Cron ~/symlinks/TEAM99/ogoakinitchka2.sh 99 0.05 > /dev/null MIME-Version: 1.0 Content-Type: text/plain; charset=UTF-8 Content-Transfer-Encoding: 8bit X-Cron-Env: X-Cron-Env: X-Cron-Env: X-Cron-Env: Message-Id: <20210510074101.A009838F8E@wam-2.localdomain> Date: Mon, 10 May 2021 03:41:01 -0400 (EDT) /bin/sh: 1: /home/sinton/symlinks/TEAM99/ogoakinitchka2.sh: not found From sinton@wam-2.localdomain Mon May 10 03:41:01 2021 Return-Path: X-Original-To: sinton Delivered-To: sinton@wam-2.localdomain Received: by wam-2.localdomain (Postfix, from userid 1001) id AD97E39777; Mon, 10 May 2021 03:41:01 -0400 (EDT) From: root@wam-2.localdomain (Cron Daemon) To: sinton@wam-2.localdomain Subject: Cron ~/symlinks/TEAM1F/metin/apiv4.sh 1f > /dev/null MIME-Version: 1.0 Content-Type: text/plain; charset=UTF-8 Content-Transfer-Encoding: 8bit X-Cron-Env: X-Cron-Env: X-Cron-Env: X-Cron-Env: Message-Id: <20210510074101.AD97E39777@wam-2.localdomain> Date: Mon, 10 May 2021 03:41:01 -0400 (EDT) % Total % Received % Xferd Average Speed Time Time Time Current Dload Upload Total Spent Left Speed 0 0 0 0 0 0 0 0 --:--:-- --:--:-- --:--:-- 0 100 386 100 386 0 0 5361 0 --:--:-- --:--:-- --:--:-- 5361 From sinton@wam-2.localdomain Mon May 10 03:42:01 2021 Return-Path: X-Original-To: sinton Delivered-To: sinton@wam-2.localdomain Received: by wam-2.localdomain (Postfix, from userid 1001) id DD9A73978E; Mon, 10 May 2021 03:42:01 -0400 (EDT) From: root@wam-2.localdomain (Cron Daemon) To: sinton@wam-2.localdomain Subject: Cron ~/symlinks/TEAM99/ogoakinitchka2.sh 99 0.05 > /dev/null MIME-Version: 1.0 Content-Type: text/plain; charset=UTF-8 Content-Transfer-Encoding: 8bit X-Cron-Env: X-Cron-Env: X-Cron-Env: X-Cron-Env: Message-Id: <20210510074201.DD9A73978E@wam-2.localdomain> Date: Mon, 10 May 2021 03:42:01 -0400 (EDT) /bin/sh: 1: /home/sinton/symlinks/TEAM99/ogoakinitchka2.sh: not found From sinton@wam-2.localdomain Mon May 10 03:42:02 2021 Return-Path: X-Original-To: sinton Delivered-To: sinton@wam-2.localdomain Received: by wam-2.localdomain (Postfix, from userid 1001) id 010103978E; Mon, 10 May 2021 03:42:01 -0400 (EDT) From: root@wam-2.localdomain (Cron Daemon) To: sinton@wam-2.localdomain Subject: Cron ~/symlinks/TEAM1F/metin/apiv4.sh 1f > /dev/null MIME-Version: 1.0 Content-Type: text/plain; charset=UTF-8 Content-Transfer-Encoding: 8bit X-Cron-Env: X-Cron-Env: X-Cron-Env: X-Cron-Env: Message-Id: <20210510074202.010103978E@wam-2.localdomain> Date: Mon, 10 May 2021 03:42:01 -0400 (EDT) % Total % Received % Xferd Average Speed Time Time Time Current Dload Upload Total Spent Left Speed 0 0 0 0 0 0 0 0 --:--:-- --:--:-- --:--:-- 0 100 385 100 385 0 0 5202 0 --:--:-- --:--:-- --:--:-- 5202 From sinton@wam-2.localdomain Mon May 10 03:43:01 2021 Return-Path: X-Original-To: sinton Delivered-To: sinton@wam-2.localdomain Received: by wam-2.localdomain (Postfix, from userid 1001) id 31FF738583; Mon, 10 May 2021 03:43:01 -0400 (EDT) From: root@wam-2.localdomain (Cron Daemon) To: sinton@wam-2.localdomain Subject: Cron ~/symlinks/TEAM99/ogoakinitchka2.sh 99 0.05 > /dev/null MIME-Version: 1.0 Content-Type: text/plain; charset=UTF-8 Content-Transfer-Encoding: 8bit X-Cron-Env: X-Cron-Env: X-Cron-Env: X-Cron-Env: Message-Id: <20210510074301.31FF738583@wam-2.localdomain> Date: Mon, 10 May 2021 03:43:01 -0400 (EDT) /bin/sh: 1: /home/sinton/symlinks/TEAM99/ogoakinitchka2.sh: not found From sinton@wam-2.localdomain Mon May 10 03:43:01 2021 Return-Path: X-Original-To: sinton Delivered-To: sinton@wam-2.localdomain Received: by wam-2.localdomain (Postfix, from userid 1001) id 4AD0F38583; Mon, 10 May 2021 03:43:01 -0400 (EDT) From: root@wam-2.localdomain (Cron Daemon) To: sinton@wam-2.localdomain Subject: Cron ~/symlinks/TEAM1F/metin/apiv4.sh 1f > /dev/null MIME-Version: 1.0 Content-Type: text/plain; charset=UTF-8 Content-Transfer-Encoding: 8bit X-Cron-Env: X-Cron-Env: X-Cron-Env: X-Cron-Env: Message-Id: <20210510074301.4AD0F38583@wam-2.localdomain> Date: Mon, 10 May 2021 03:43:01 -0400 (EDT) % Total % Received % Xferd Average Speed Time Time Time Current Dload Upload Total Spent Left Speed 0 0 0 0 0 0 0 0 --:--:-- --:--:-- --:--:-- 0 100 385 100 385 0 0 6311 0 --:--:-- --:--:-- --:--:-- 6311 From sinton@wam-2.localdomain Mon May 10 03:43:14 2021 Return-Path: X-Original-To: sinton Delivered-To: sinton@wam-2.localdomain Received: by wam-2.localdomain (Postfix, from userid 1001) id 9775F39782; Mon, 10 May 2021 03:43:14 -0400 (EDT) From: root@wam-2.localdomain (Cron Daemon) To: sinton@wam-2.localdomain Subject: Cron bash -c "sleep $[RANDOM%14]m" ; ~/symlinks/TEAM1/fcst/startfcst.pl 1 > /dev/null MIME-Version: 1.0 Content-Type: text/plain; charset=UTF-8 Content-Transfer-Encoding: 8bit X-Cron-Env: X-Cron-Env: X-Cron-Env: X-Cron-Env: Message-Id: <20210510074314.9775F39782@wam-2.localdomain> Date: Mon, 10 May 2021 03:43:14 -0400 (EDT) # CSV_XS ERROR: 2034 - EIF - Loose unescaped quote @ rec 0 pos 29 field 1 From sinton@wam-2.localdomain Mon May 10 03:44:01 2021 Return-Path: X-Original-To: sinton Delivered-To: sinton@wam-2.localdomain Received: by wam-2.localdomain (Postfix, from userid 1001) id C47AA3857C; Mon, 10 May 2021 03:44:01 -0400 (EDT) From: root@wam-2.localdomain (Cron Daemon) To: sinton@wam-2.localdomain Subject: Cron ~/symlinks/TEAM99/ogoakinitchka2.sh 99 0.05 > /dev/null MIME-Version: 1.0 Content-Type: text/plain; charset=UTF-8 Content-Transfer-Encoding: 8bit X-Cron-Env: X-Cron-Env: X-Cron-Env: X-Cron-Env: Message-Id: <20210510074401.C47AA3857C@wam-2.localdomain> Date: Mon, 10 May 2021 03:44:01 -0400 (EDT) /bin/sh: 1: /home/sinton/symlinks/TEAM99/ogoakinitchka2.sh: not found From sinton@wam-2.localdomain Mon May 10 03:44:01 2021 Return-Path: X-Original-To: sinton Delivered-To: sinton@wam-2.localdomain Received: by wam-2.localdomain (Postfix, from userid 1001) id DC9853857C; Mon, 10 May 2021 03:44:01 -0400 (EDT) From: root@wam-2.localdomain (Cron Daemon) To: sinton@wam-2.localdomain Subject: Cron ~/symlinks/TEAM1F/metin/apiv4.sh 1f > /dev/null MIME-Version: 1.0 Content-Type: text/plain; charset=UTF-8 Content-Transfer-Encoding: 8bit X-Cron-Env: X-Cron-Env: X-Cron-Env: X-Cron-Env: Message-Id: <20210510074401.DC9853857C@wam-2.localdomain> Date: Mon, 10 May 2021 03:44:01 -0400 (EDT) % Total % Received % Xferd Average Speed Time Time Time Current Dload Upload Total Spent Left Speed 0 0 0 0 0 0 0 0 --:--:-- --:--:-- --:--:-- 0 0 0 0 0 0 0 0 0 --:--:-- --:--:-- --:--:-- 0 100 385 100 385 0 0 5500 0 --:--:-- --:--:-- --:--:-- 5422 From sinton@wam-2.localdomain Mon May 10 03:44:14 2021 Return-Path: X-Original-To: sinton Delivered-To: sinton@wam-2.localdomain Received: by wam-2.localdomain (Postfix, from userid 1001) id 348743979A; Mon, 10 May 2021 03:44:14 -0400 (EDT) From: root@wam-2.localdomain (Cron Daemon) To: sinton@wam-2.localdomain Subject: Cron bash -c "sleep $[RANDOM%14]m" ; ~/symlinks/TEAM2/fcst/startfcst.pl 2 > /dev/null MIME-Version: 1.0 Content-Type: text/plain; charset=UTF-8 Content-Transfer-Encoding: 8bit X-Cron-Env: X-Cron-Env: X-Cron-Env: X-Cron-Env: Message-Id: <20210510074414.348743979A@wam-2.localdomain> Date: Mon, 10 May 2021 03:44:14 -0400 (EDT) # CSV_XS ERROR: 2034 - EIF - Loose unescaped quote @ rec 0 pos 29 field 1 From sinton@wam-2.localdomain Mon May 10 03:45:01 2021 Return-Path: X-Original-To: sinton Delivered-To: sinton@wam-2.localdomain Received: by wam-2.localdomain (Postfix, from userid 1001) id 6DA1538D6C; Mon, 10 May 2021 03:45:01 -0400 (EDT) From: root@wam-2.localdomain (Cron Daemon) To: sinton@wam-2.localdomain Subject: Cron ~/symlinks/TEAM99/ogoakinitchka2.sh 99 0.05 > /dev/null MIME-Version: 1.0 Content-Type: text/plain; charset=UTF-8 Content-Transfer-Encoding: 8bit X-Cron-Env: X-Cron-Env: X-Cron-Env: X-Cron-Env: Message-Id: <20210510074501.6DA1538D6C@wam-2.localdomain> Date: Mon, 10 May 2021 03:45:01 -0400 (EDT) /bin/sh: 1: /home/sinton/symlinks/TEAM99/ogoakinitchka2.sh: not found From sinton@wam-2.localdomain Mon May 10 03:45:01 2021 Return-Path: X-Original-To: sinton Delivered-To: sinton@wam-2.localdomain Received: by wam-2.localdomain (Postfix, from userid 1001) id 8027C38D6C; Mon, 10 May 2021 03:45:01 -0400 (EDT) From: root@wam-2.localdomain (Cron Daemon) To: sinton@wam-2.localdomain Subject: Cron ~/symlinks/TEAM1F/metin/apiv4.sh 1f > /dev/null MIME-Version: 1.0 Content-Type: text/plain; charset=UTF-8 Content-Transfer-Encoding: 8bit X-Cron-Env: X-Cron-Env: X-Cron-Env: X-Cron-Env: Message-Id: <20210510074501.8027C38D6C@wam-2.localdomain> Date: Mon, 10 May 2021 03:45:01 -0400 (EDT) % Total % Received % Xferd Average Speed Time Time Time Current Dload Upload Total Spent Left Speed 0 0 0 0 0 0 0 0 --:--:-- --:--:-- --:--:-- 0 100 385 100 385 0 0 6525 0 --:--:-- --:--:-- --:--:-- 6525 From sinton@wam-2.localdomain Mon May 10 03:46:01 2021 Return-Path: X-Original-To: sinton Delivered-To: sinton@wam-2.localdomain Received: by wam-2.localdomain (Postfix, from userid 1001) id C0BBB397AA; Mon, 10 May 2021 03:46:01 -0400 (EDT) From: root@wam-2.localdomain (Cron Daemon) To: sinton@wam-2.localdomain Subject: Cron ~/symlinks/TEAM99/ogoakinitchka2.sh 99 0.05 > /dev/null MIME-Version: 1.0 Content-Type: text/plain; charset=UTF-8 Content-Transfer-Encoding: 8bit X-Cron-Env: X-Cron-Env: X-Cron-Env: X-Cron-Env: Message-Id: <20210510074601.C0BBB397AA@wam-2.localdomain> Date: Mon, 10 May 2021 03:46:01 -0400 (EDT) /bin/sh: 1: /home/sinton/symlinks/TEAM99/ogoakinitchka2.sh: not found From sinton@wam-2.localdomain Mon May 10 03:46:01 2021 Return-Path: X-Original-To: sinton Delivered-To: sinton@wam-2.localdomain Received: by wam-2.localdomain (Postfix, from userid 1001) id D4B08397A7; Mon, 10 May 2021 03:46:01 -0400 (EDT) From: root@wam-2.localdomain (Cron Daemon) To: sinton@wam-2.localdomain Subject: Cron ~/symlinks/TEAM1F/metin/apiv4.sh 1f > /dev/null MIME-Version: 1.0 Content-Type: text/plain; charset=UTF-8 Content-Transfer-Encoding: 8bit X-Cron-Env: X-Cron-Env: X-Cron-Env: X-Cron-Env: Message-Id: <20210510074601.D4B08397A7@wam-2.localdomain> Date: Mon, 10 May 2021 03:46:01 -0400 (EDT) % Total % Received % Xferd Average Speed Time Time Time Current Dload Upload Total Spent Left Speed 0 0 0 0 0 0 0 0 --:--:-- --:--:-- --:--:-- 0 100 385 100 385 0 0 6015 0 --:--:-- --:--:-- --:--:-- 6015 From sinton@wam-2.localdomain Mon May 10 03:47:02 2021 Return-Path: X-Original-To: sinton Delivered-To: sinton@wam-2.localdomain Received: by wam-2.localdomain (Postfix, from userid 1001) id 17CC53979D; Mon, 10 May 2021 03:47:02 -0400 (EDT) From: root@wam-2.localdomain (Cron Daemon) To: sinton@wam-2.localdomain Subject: Cron ~/symlinks/TEAM99/ogoakinitchka2.sh 99 0.05 > /dev/null MIME-Version: 1.0 Content-Type: text/plain; charset=UTF-8 Content-Transfer-Encoding: 8bit X-Cron-Env: X-Cron-Env: X-Cron-Env: X-Cron-Env: Message-Id: <20210510074702.17CC53979D@wam-2.localdomain> Date: Mon, 10 May 2021 03:47:02 -0400 (EDT) /bin/sh: 1: /home/sinton/symlinks/TEAM99/ogoakinitchka2.sh: not found From sinton@wam-2.localdomain Mon May 10 03:47:02 2021 Return-Path: X-Original-To: sinton Delivered-To: sinton@wam-2.localdomain Received: by wam-2.localdomain (Postfix, from userid 1001) id 2797F3979D; Mon, 10 May 2021 03:47:02 -0400 (EDT) From: root@wam-2.localdomain (Cron Daemon) To: sinton@wam-2.localdomain Subject: Cron ~/symlinks/TEAM1F/metin/apiv4.sh 1f > /dev/null MIME-Version: 1.0 Content-Type: text/plain; charset=UTF-8 Content-Transfer-Encoding: 8bit X-Cron-Env: X-Cron-Env: X-Cron-Env: X-Cron-Env: Message-Id: <20210510074702.2797F3979D@wam-2.localdomain> Date: Mon, 10 May 2021 03:47:02 -0400 (EDT) % Total % Received % Xferd Average Speed Time Time Time Current Dload Upload Total Spent Left Speed 0 0 0 0 0 0 0 0 --:--:-- --:--:-- --:--:-- 0 100 385 100 385 0 0 6875 0 --:--:-- --:--:-- --:--:-- 6875 From sinton@wam-2.localdomain Mon May 10 03:48:01 2021 Return-Path: X-Original-To: sinton Delivered-To: sinton@wam-2.localdomain Received: by wam-2.localdomain (Postfix, from userid 1001) id 5A668397A2; Mon, 10 May 2021 03:48:01 -0400 (EDT) From: root@wam-2.localdomain (Cron Daemon) To: sinton@wam-2.localdomain Subject: Cron ~/symlinks/TEAM99/ogoakinitchka2.sh 99 0.05 > /dev/null MIME-Version: 1.0 Content-Type: text/plain; charset=UTF-8 Content-Transfer-Encoding: 8bit X-Cron-Env: X-Cron-Env: X-Cron-Env: X-Cron-Env: Message-Id: <20210510074801.5A668397A2@wam-2.localdomain> Date: Mon, 10 May 2021 03:48:01 -0400 (EDT) /bin/sh: 1: /home/sinton/symlinks/TEAM99/ogoakinitchka2.sh: not found From sinton@wam-2.localdomain Mon May 10 03:48:01 2021 Return-Path: X-Original-To: sinton Delivered-To: sinton@wam-2.localdomain Received: by wam-2.localdomain (Postfix, from userid 1001) id D30D63978F; Mon, 10 May 2021 03:48:01 -0400 (EDT) From: root@wam-2.localdomain (Cron Daemon) To: sinton@wam-2.localdomain Subject: Cron ~/symlinks/TEAM1F/metin/apiv4.sh 1f > /dev/null MIME-Version: 1.0 Content-Type: text/plain; charset=UTF-8 Content-Transfer-Encoding: 8bit X-Cron-Env: X-Cron-Env: X-Cron-Env: X-Cron-Env: Message-Id: <20210510074801.D30D63978F@wam-2.localdomain> Date: Mon, 10 May 2021 03:48:01 -0400 (EDT) % Total % Received % Xferd Average Speed Time Time Time Current Dload Upload Total Spent Left Speed 0 0 0 0 0 0 0 0 --:--:-- --:--:-- --:--:-- 0 100 384 100 384 0 0 780 0 --:--:-- --:--:-- --:--:-- 782 From sinton@wam-2.localdomain Mon May 10 03:49:02 2021 Return-Path: X-Original-To: sinton Delivered-To: sinton@wam-2.localdomain Received: by wam-2.localdomain (Postfix, from userid 1001) id 14B1E3979E; Mon, 10 May 2021 03:49:02 -0400 (EDT) From: root@wam-2.localdomain (Cron Daemon) To: sinton@wam-2.localdomain Subject: Cron ~/symlinks/TEAM99/ogoakinitchka2.sh 99 0.05 > /dev/null MIME-Version: 1.0 Content-Type: text/plain; charset=UTF-8 Content-Transfer-Encoding: 8bit X-Cron-Env: X-Cron-Env: X-Cron-Env: X-Cron-Env: Message-Id: <20210510074902.14B1E3979E@wam-2.localdomain> Date: Mon, 10 May 2021 03:49:02 -0400 (EDT) /bin/sh: 1: /home/sinton/symlinks/TEAM99/ogoakinitchka2.sh: not found From sinton@wam-2.localdomain Mon May 10 03:49:02 2021 Return-Path: X-Original-To: sinton Delivered-To: sinton@wam-2.localdomain Received: by wam-2.localdomain (Postfix, from userid 1001) id 294A13979E; Mon, 10 May 2021 03:49:02 -0400 (EDT) From: root@wam-2.localdomain (Cron Daemon) To: sinton@wam-2.localdomain Subject: Cron ~/symlinks/TEAM1F/metin/apiv4.sh 1f > /dev/null MIME-Version: 1.0 Content-Type: text/plain; charset=UTF-8 Content-Transfer-Encoding: 8bit X-Cron-Env: X-Cron-Env: X-Cron-Env: X-Cron-Env: Message-Id: <20210510074902.294A13979E@wam-2.localdomain> Date: Mon, 10 May 2021 03:49:02 -0400 (EDT) % Total % Received % Xferd Average Speed Time Time Time Current Dload Upload Total Spent Left Speed 0 0 0 0 0 0 0 0 --:--:-- --:--:-- --:--:-- 0 100 386 100 386 0 0 4948 0 --:--:-- --:--:-- --:--:-- 4948 From sinton@wam-2.localdomain Mon May 10 03:50:01 2021 Return-Path: X-Original-To: sinton Delivered-To: sinton@wam-2.localdomain Received: by wam-2.localdomain (Postfix, from userid 1001) id 5C01C397A2; Mon, 10 May 2021 03:50:01 -0400 (EDT) From: root@wam-2.localdomain (Cron Daemon) To: sinton@wam-2.localdomain Subject: Cron ~/symlinks/TEAM99/ogoakinitchka2.sh 99 0.05 > /dev/null MIME-Version: 1.0 Content-Type: text/plain; charset=UTF-8 Content-Transfer-Encoding: 8bit X-Cron-Env: X-Cron-Env: X-Cron-Env: X-Cron-Env: Message-Id: <20210510075001.5C01C397A2@wam-2.localdomain> Date: Mon, 10 May 2021 03:50:01 -0400 (EDT) /bin/sh: 1: /home/sinton/symlinks/TEAM99/ogoakinitchka2.sh: not found From sinton@wam-2.localdomain Mon May 10 03:50:01 2021 Return-Path: X-Original-To: sinton Delivered-To: sinton@wam-2.localdomain Received: by wam-2.localdomain (Postfix, from userid 1001) id 743DD397A2; Mon, 10 May 2021 03:50:01 -0400 (EDT) From: root@wam-2.localdomain (Cron Daemon) To: sinton@wam-2.localdomain Subject: Cron ~/symlinks/TEAM1F/metin/apiv4.sh 1f > /dev/null MIME-Version: 1.0 Content-Type: text/plain; charset=UTF-8 Content-Transfer-Encoding: 8bit X-Cron-Env: X-Cron-Env: X-Cron-Env: X-Cron-Env: Message-Id: <20210510075001.743DD397A2@wam-2.localdomain> Date: Mon, 10 May 2021 03:50:01 -0400 (EDT) % Total % Received % Xferd Average Speed Time Time Time Current Dload Upload Total Spent Left Speed 0 0 0 0 0 0 0 0 --:--:-- --:--:-- --:--:-- 0 100 385 100 385 0 0 5202 0 --:--:-- --:--:-- --:--:-- 5202 From sinton@wam-2.localdomain Mon May 10 03:51:01 2021 Return-Path: X-Original-To: sinton Delivered-To: sinton@wam-2.localdomain Received: by wam-2.localdomain (Postfix, from userid 1001) id BAF83397B4; Mon, 10 May 2021 03:51:01 -0400 (EDT) From: root@wam-2.localdomain (Cron Daemon) To: sinton@wam-2.localdomain Subject: Cron ~/symlinks/TEAM99/ogoakinitchka2.sh 99 0.05 > /dev/null MIME-Version: 1.0 Content-Type: text/plain; charset=UTF-8 Content-Transfer-Encoding: 8bit X-Cron-Env: X-Cron-Env: X-Cron-Env: X-Cron-Env: Message-Id: <20210510075101.BAF83397B4@wam-2.localdomain> Date: Mon, 10 May 2021 03:51:01 -0400 (EDT) /bin/sh: 1: /home/sinton/symlinks/TEAM99/ogoakinitchka2.sh: not found From sinton@wam-2.localdomain Mon May 10 03:51:01 2021 Return-Path: X-Original-To: sinton Delivered-To: sinton@wam-2.localdomain Received: by wam-2.localdomain (Postfix, from userid 1001) id C9E08397A8; Mon, 10 May 2021 03:51:01 -0400 (EDT) From: root@wam-2.localdomain (Cron Daemon) To: sinton@wam-2.localdomain Subject: Cron ~/symlinks/TEAM1F/metin/apiv4.sh 1f > /dev/null MIME-Version: 1.0 Content-Type: text/plain; charset=UTF-8 Content-Transfer-Encoding: 8bit X-Cron-Env: X-Cron-Env: X-Cron-Env: X-Cron-Env: Message-Id: <20210510075101.C9E08397A8@wam-2.localdomain> Date: Mon, 10 May 2021 03:51:01 -0400 (EDT) % Total % Received % Xferd Average Speed Time Time Time Current Dload Upload Total Spent Left Speed 0 0 0 0 0 0 0 0 --:--:-- --:--:-- --:--:-- 0 100 386 100 386 0 0 4707 0 --:--:-- --:--:-- --:--:-- 4707 From sinton@wam-2.localdomain Mon May 10 03:52:01 2021 Return-Path: X-Original-To: sinton Delivered-To: sinton@wam-2.localdomain Received: by wam-2.localdomain (Postfix, from userid 1001) id 749CC397A7; Mon, 10 May 2021 03:52:01 -0400 (EDT) From: root@wam-2.localdomain (Cron Daemon) To: sinton@wam-2.localdomain Subject: Cron ~/symlinks/TEAM99/ogoakinitchka2.sh 99 0.05 > /dev/null MIME-Version: 1.0 Content-Type: text/plain; charset=UTF-8 Content-Transfer-Encoding: 8bit X-Cron-Env: X-Cron-Env: X-Cron-Env: X-Cron-Env: Message-Id: <20210510075201.749CC397A7@wam-2.localdomain> Date: Mon, 10 May 2021 03:52:01 -0400 (EDT) /bin/sh: 1: /home/sinton/symlinks/TEAM99/ogoakinitchka2.sh: not found From sinton@wam-2.localdomain Mon May 10 03:52:01 2021 Return-Path: X-Original-To: sinton Delivered-To: sinton@wam-2.localdomain Received: by wam-2.localdomain (Postfix, from userid 1001) id 8A97D397A7; Mon, 10 May 2021 03:52:01 -0400 (EDT) From: root@wam-2.localdomain (Cron Daemon) To: sinton@wam-2.localdomain Subject: Cron ~/symlinks/TEAM1F/metin/apiv4.sh 1f > /dev/null MIME-Version: 1.0 Content-Type: text/plain; charset=UTF-8 Content-Transfer-Encoding: 8bit X-Cron-Env: X-Cron-Env: X-Cron-Env: X-Cron-Env: Message-Id: <20210510075201.8A97D397A7@wam-2.localdomain> Date: Mon, 10 May 2021 03:52:01 -0400 (EDT) % Total % Received % Xferd Average Speed Time Time Time Current Dload Upload Total Spent Left Speed 0 0 0 0 0 0 0 0 --:--:-- --:--:-- --:--:-- 0 100 384 100 384 0 0 5818 0 --:--:-- --:--:-- --:--:-- 5818 From sinton@wam-2.localdomain Mon May 10 03:53:01 2021 Return-Path: X-Original-To: sinton Delivered-To: sinton@wam-2.localdomain Received: by wam-2.localdomain (Postfix, from userid 1001) id 72222397A8; Mon, 10 May 2021 03:53:01 -0400 (EDT) From: root@wam-2.localdomain (Cron Daemon) To: sinton@wam-2.localdomain Subject: Cron ~/symlinks/TEAM99/ogoakinitchka2.sh 99 0.05 > /dev/null MIME-Version: 1.0 Content-Type: text/plain; charset=UTF-8 Content-Transfer-Encoding: 8bit X-Cron-Env: X-Cron-Env: X-Cron-Env: X-Cron-Env: Message-Id: <20210510075301.72222397A8@wam-2.localdomain> Date: Mon, 10 May 2021 03:53:01 -0400 (EDT) /bin/sh: 1: /home/sinton/symlinks/TEAM99/ogoakinitchka2.sh: not found From sinton@wam-2.localdomain Mon May 10 03:53:01 2021 Return-Path: X-Original-To: sinton Delivered-To: sinton@wam-2.localdomain Received: by wam-2.localdomain (Postfix, from userid 1001) id 7FDBD397AC; Mon, 10 May 2021 03:53:01 -0400 (EDT) From: root@wam-2.localdomain (Cron Daemon) To: sinton@wam-2.localdomain Subject: Cron ~/symlinks/TEAM1F/metin/apiv4.sh 1f > /dev/null MIME-Version: 1.0 Content-Type: text/plain; charset=UTF-8 Content-Transfer-Encoding: 8bit X-Cron-Env: X-Cron-Env: X-Cron-Env: X-Cron-Env: Message-Id: <20210510075301.7FDBD397AC@wam-2.localdomain> Date: Mon, 10 May 2021 03:53:01 -0400 (EDT) % Total % Received % Xferd Average Speed Time Time Time Current Dload Upload Total Spent Left Speed 0 0 0 0 0 0 0 0 --:--:-- --:--:-- --:--:-- 0 100 385 100 385 0 0 4873 0 --:--:-- --:--:-- --:--:-- 4873 From sinton@wam-2.localdomain Mon May 10 03:54:01 2021 Return-Path: X-Original-To: sinton Delivered-To: sinton@wam-2.localdomain Received: by wam-2.localdomain (Postfix, from userid 1001) id BC5EB397A7; Mon, 10 May 2021 03:54:01 -0400 (EDT) From: root@wam-2.localdomain (Cron Daemon) To: sinton@wam-2.localdomain Subject: Cron ~/symlinks/TEAM99/ogoakinitchka2.sh 99 0.05 > /dev/null MIME-Version: 1.0 Content-Type: text/plain; charset=UTF-8 Content-Transfer-Encoding: 8bit X-Cron-Env: X-Cron-Env: X-Cron-Env: X-Cron-Env: Message-Id: <20210510075401.BC5EB397A7@wam-2.localdomain> Date: Mon, 10 May 2021 03:54:01 -0400 (EDT) /bin/sh: 1: /home/sinton/symlinks/TEAM99/ogoakinitchka2.sh: not found From sinton@wam-2.localdomain Mon May 10 03:54:01 2021 Return-Path: X-Original-To: sinton Delivered-To: sinton@wam-2.localdomain Received: by wam-2.localdomain (Postfix, from userid 1001) id D177F397A7; Mon, 10 May 2021 03:54:01 -0400 (EDT) From: root@wam-2.localdomain (Cron Daemon) To: sinton@wam-2.localdomain Subject: Cron ~/symlinks/TEAM1F/metin/apiv4.sh 1f > /dev/null MIME-Version: 1.0 Content-Type: text/plain; charset=UTF-8 Content-Transfer-Encoding: 8bit X-Cron-Env: X-Cron-Env: X-Cron-Env: X-Cron-Env: Message-Id: <20210510075401.D177F397A7@wam-2.localdomain> Date: Mon, 10 May 2021 03:54:01 -0400 (EDT) % Total % Received % Xferd Average Speed Time Time Time Current Dload Upload Total Spent Left Speed 0 0 0 0 0 0 0 0 --:--:-- --:--:-- --:--:-- 0 100 386 100 386 0 0 5761 0 --:--:-- --:--:-- --:--:-- 5848 From sinton@wam-2.localdomain Mon May 10 03:55:02 2021 Return-Path: X-Original-To: sinton Delivered-To: sinton@wam-2.localdomain Received: by wam-2.localdomain (Postfix, from userid 1001) id 1413B397A8; Mon, 10 May 2021 03:55:02 -0400 (EDT) From: root@wam-2.localdomain (Cron Daemon) To: sinton@wam-2.localdomain Subject: Cron ~/symlinks/TEAM99/ogoakinitchka2.sh 99 0.05 > /dev/null MIME-Version: 1.0 Content-Type: text/plain; charset=UTF-8 Content-Transfer-Encoding: 8bit X-Cron-Env: X-Cron-Env: X-Cron-Env: X-Cron-Env: Message-Id: <20210510075502.1413B397A8@wam-2.localdomain> Date: Mon, 10 May 2021 03:55:02 -0400 (EDT) /bin/sh: 1: /home/sinton/symlinks/TEAM99/ogoakinitchka2.sh: not found From sinton@wam-2.localdomain Mon May 10 03:55:02 2021 Return-Path: X-Original-To: sinton Delivered-To: sinton@wam-2.localdomain Received: by wam-2.localdomain (Postfix, from userid 1001) id 2AC40397AC; Mon, 10 May 2021 03:55:02 -0400 (EDT) From: root@wam-2.localdomain (Cron Daemon) To: sinton@wam-2.localdomain Subject: Cron ~/symlinks/TEAM1F/metin/apiv4.sh 1f > /dev/null MIME-Version: 1.0 Content-Type: text/plain; charset=UTF-8 Content-Transfer-Encoding: 8bit X-Cron-Env: X-Cron-Env: X-Cron-Env: X-Cron-Env: Message-Id: <20210510075502.2AC40397AC@wam-2.localdomain> Date: Mon, 10 May 2021 03:55:02 -0400 (EDT) % Total % Received % Xferd Average Speed Time Time Time Current Dload Upload Total Spent Left Speed 0 0 0 0 0 0 0 0 --:--:-- --:--:-- --:--:-- 0 100 385 100 385 0 0 6416 0 --:--:-- --:--:-- --:--:-- 6525 From sinton@wam-2.localdomain Mon May 10 03:56:01 2021 Return-Path: X-Original-To: sinton Delivered-To: sinton@wam-2.localdomain Received: by wam-2.localdomain (Postfix, from userid 1001) id 6F46B3975D; Mon, 10 May 2021 03:56:01 -0400 (EDT) From: root@wam-2.localdomain (Cron Daemon) To: sinton@wam-2.localdomain Subject: Cron ~/symlinks/TEAM99/ogoakinitchka2.sh 99 0.05 > /dev/null MIME-Version: 1.0 Content-Type: text/plain; charset=UTF-8 Content-Transfer-Encoding: 8bit X-Cron-Env: X-Cron-Env: X-Cron-Env: X-Cron-Env: Message-Id: <20210510075601.6F46B3975D@wam-2.localdomain> Date: Mon, 10 May 2021 03:56:01 -0400 (EDT) /bin/sh: 1: /home/sinton/symlinks/TEAM99/ogoakinitchka2.sh: not found From sinton@wam-2.localdomain Mon May 10 03:56:01 2021 Return-Path: X-Original-To: sinton Delivered-To: sinton@wam-2.localdomain Received: by wam-2.localdomain (Postfix, from userid 1001) id 80B8F3975E; Mon, 10 May 2021 03:56:01 -0400 (EDT) From: root@wam-2.localdomain (Cron Daemon) To: sinton@wam-2.localdomain Subject: Cron ~/symlinks/TEAM1F/metin/apiv4.sh 1f > /dev/null MIME-Version: 1.0 Content-Type: text/plain; charset=UTF-8 Content-Transfer-Encoding: 8bit X-Cron-Env: X-Cron-Env: X-Cron-Env: X-Cron-Env: Message-Id: <20210510075601.80B8F3975E@wam-2.localdomain> Date: Mon, 10 May 2021 03:56:01 -0400 (EDT) % Total % Received % Xferd Average Speed Time Time Time Current Dload Upload Total Spent Left Speed 0 0 0 0 0 0 0 0 --:--:-- --:--:-- --:--:-- 0 100 386 100 386 0 0 5514 0 --:--:-- --:--:-- --:--:-- 5514 From sinton@wam-2.localdomain Mon May 10 03:57:01 2021 Return-Path: X-Original-To: sinton Delivered-To: sinton@wam-2.localdomain Received: by wam-2.localdomain (Postfix, from userid 1001) id 737253978A; Mon, 10 May 2021 03:57:01 -0400 (EDT) From: root@wam-2.localdomain (Cron Daemon) To: sinton@wam-2.localdomain Subject: Cron ~/symlinks/TEAM99/ogoakinitchka2.sh 99 0.05 > /dev/null MIME-Version: 1.0 Content-Type: text/plain; charset=UTF-8 Content-Transfer-Encoding: 8bit X-Cron-Env: X-Cron-Env: X-Cron-Env: X-Cron-Env: Message-Id: <20210510075701.737253978A@wam-2.localdomain> Date: Mon, 10 May 2021 03:57:01 -0400 (EDT) /bin/sh: 1: /home/sinton/symlinks/TEAM99/ogoakinitchka2.sh: not found From sinton@wam-2.localdomain Mon May 10 03:57:01 2021 Return-Path: X-Original-To: sinton Delivered-To: sinton@wam-2.localdomain Received: by wam-2.localdomain (Postfix, from userid 1001) id 83F623978A; Mon, 10 May 2021 03:57:01 -0400 (EDT) From: root@wam-2.localdomain (Cron Daemon) To: sinton@wam-2.localdomain Subject: Cron ~/symlinks/TEAM1F/metin/apiv4.sh 1f > /dev/null MIME-Version: 1.0 Content-Type: text/plain; charset=UTF-8 Content-Transfer-Encoding: 8bit X-Cron-Env: X-Cron-Env: X-Cron-Env: X-Cron-Env: Message-Id: <20210510075701.83F623978A@wam-2.localdomain> Date: Mon, 10 May 2021 03:57:01 -0400 (EDT) % Total % Received % Xferd Average Speed Time Time Time Current Dload Upload Total Spent Left Speed 0 0 0 0 0 0 0 0 --:--:-- --:--:-- --:--:-- 0 100 386 100 386 0 0 7877 0 --:--:-- --:--:-- --:--:-- 8041 From sinton@wam-2.localdomain Mon May 10 03:58:01 2021 Return-Path: X-Original-To: sinton Delivered-To: sinton@wam-2.localdomain Received: by wam-2.localdomain (Postfix, from userid 1001) id B9C8D39771; Mon, 10 May 2021 03:58:01 -0400 (EDT) From: root@wam-2.localdomain (Cron Daemon) To: sinton@wam-2.localdomain Subject: Cron ~/symlinks/TEAM99/ogoakinitchka2.sh 99 0.05 > /dev/null MIME-Version: 1.0 Content-Type: text/plain; charset=UTF-8 Content-Transfer-Encoding: 8bit X-Cron-Env: X-Cron-Env: X-Cron-Env: X-Cron-Env: Message-Id: <20210510075801.B9C8D39771@wam-2.localdomain> Date: Mon, 10 May 2021 03:58:01 -0400 (EDT) /bin/sh: 1: /home/sinton/symlinks/TEAM99/ogoakinitchka2.sh: not found From sinton@wam-2.localdomain Mon May 10 03:58:01 2021 Return-Path: X-Original-To: sinton Delivered-To: sinton@wam-2.localdomain Received: by wam-2.localdomain (Postfix, from userid 1001) id C97CF39771; Mon, 10 May 2021 03:58:01 -0400 (EDT) From: root@wam-2.localdomain (Cron Daemon) To: sinton@wam-2.localdomain Subject: Cron ~/symlinks/TEAM1F/metin/apiv4.sh 1f > /dev/null MIME-Version: 1.0 Content-Type: text/plain; charset=UTF-8 Content-Transfer-Encoding: 8bit X-Cron-Env: X-Cron-Env: X-Cron-Env: X-Cron-Env: Message-Id: <20210510075801.C97CF39771@wam-2.localdomain> Date: Mon, 10 May 2021 03:58:01 -0400 (EDT) % Total % Received % Xferd Average Speed Time Time Time Current Dload Upload Total Spent Left Speed 0 0 0 0 0 0 0 0 --:--:-- --:--:-- --:--:-- 0 100 386 100 386 0 0 6892 0 --:--:-- --:--:-- --:--:-- 6892 From sinton@wam-2.localdomain Mon May 10 03:59:02 2021 Return-Path: X-Original-To: sinton Delivered-To: sinton@wam-2.localdomain Received: by wam-2.localdomain (Postfix, from userid 1001) id 0E73F397C7; Mon, 10 May 2021 03:59:02 -0400 (EDT) From: root@wam-2.localdomain (Cron Daemon) To: sinton@wam-2.localdomain Subject: Cron ~/symlinks/TEAM99/ogoakinitchka2.sh 99 0.05 > /dev/null MIME-Version: 1.0 Content-Type: text/plain; charset=UTF-8 Content-Transfer-Encoding: 8bit X-Cron-Env: X-Cron-Env: X-Cron-Env: X-Cron-Env: Message-Id: <20210510075902.0E73F397C7@wam-2.localdomain> Date: Mon, 10 May 2021 03:59:02 -0400 (EDT) /bin/sh: 1: /home/sinton/symlinks/TEAM99/ogoakinitchka2.sh: not found From sinton@wam-2.localdomain Mon May 10 03:59:02 2021 Return-Path: X-Original-To: sinton Delivered-To: sinton@wam-2.localdomain Received: by wam-2.localdomain (Postfix, from userid 1001) id 1FA49397C7; Mon, 10 May 2021 03:59:02 -0400 (EDT) From: root@wam-2.localdomain (Cron Daemon) To: sinton@wam-2.localdomain Subject: Cron ~/symlinks/TEAM1F/metin/apiv4.sh 1f > /dev/null MIME-Version: 1.0 Content-Type: text/plain; charset=UTF-8 Content-Transfer-Encoding: 8bit X-Cron-Env: X-Cron-Env: X-Cron-Env: X-Cron-Env: Message-Id: <20210510075902.1FA49397C7@wam-2.localdomain> Date: Mon, 10 May 2021 03:59:02 -0400 (EDT) % Total % Received % Xferd Average Speed Time Time Time Current Dload Upload Total Spent Left Speed 0 0 0 0 0 0 0 0 --:--:-- --:--:-- --:--:-- 0 100 385 100 385 0 0 4583 0 --:--:-- --:--:-- --:--:-- 4583 From sinton@wam-2.localdomain Mon May 10 04:00:01 2021 Return-Path: X-Original-To: sinton Delivered-To: sinton@wam-2.localdomain Received: by wam-2.localdomain (Postfix, from userid 1001) id 5AD1E397BF; Mon, 10 May 2021 04:00:01 -0400 (EDT) From: root@wam-2.localdomain (Cron Daemon) To: sinton@wam-2.localdomain Subject: Cron ~/symlinks/TEAM99/ogoakinitchka2.sh 99 0.05 > /dev/null MIME-Version: 1.0 Content-Type: text/plain; charset=UTF-8 Content-Transfer-Encoding: 8bit X-Cron-Env: X-Cron-Env: X-Cron-Env: X-Cron-Env: Message-Id: <20210510080001.5AD1E397BF@wam-2.localdomain> Date: Mon, 10 May 2021 04:00:01 -0400 (EDT) /bin/sh: 1: /home/sinton/symlinks/TEAM99/ogoakinitchka2.sh: not found From sinton@wam-2.localdomain Mon May 10 04:00:01 2021 Return-Path: X-Original-To: sinton Delivered-To: sinton@wam-2.localdomain Received: by wam-2.localdomain (Postfix, from userid 1001) id 6ABA1397BF; Mon, 10 May 2021 04:00:01 -0400 (EDT) From: root@wam-2.localdomain (Cron Daemon) To: sinton@wam-2.localdomain Subject: Cron ~/symlinks/TEAM1F/metin/apiv4.sh 1f > /dev/null MIME-Version: 1.0 Content-Type: text/plain; charset=UTF-8 Content-Transfer-Encoding: 8bit X-Cron-Env: X-Cron-Env: X-Cron-Env: X-Cron-Env: Message-Id: <20210510080001.6ABA1397BF@wam-2.localdomain> Date: Mon, 10 May 2021 04:00:01 -0400 (EDT) % Total % Received % Xferd Average Speed Time Time Time Current Dload Upload Total Spent Left Speed 0 0 0 0 0 0 0 0 --:--:-- --:--:-- --:--:-- 0 100 385 100 385 0 0 4583 0 --:--:-- --:--:-- --:--:-- 4583 From sinton@wam-2.localdomain Mon May 10 04:01:01 2021 Return-Path: X-Original-To: sinton Delivered-To: sinton@wam-2.localdomain Received: by wam-2.localdomain (Postfix, from userid 1001) id B4E29397AD; Mon, 10 May 2021 04:01:01 -0400 (EDT) From: root@wam-2.localdomain (Cron Daemon) To: sinton@wam-2.localdomain Subject: Cron ~/symlinks/TEAM99/ogoakinitchka2.sh 99 0.05 > /dev/null MIME-Version: 1.0 Content-Type: text/plain; charset=UTF-8 Content-Transfer-Encoding: 8bit X-Cron-Env: X-Cron-Env: X-Cron-Env: X-Cron-Env: Message-Id: <20210510080101.B4E29397AD@wam-2.localdomain> Date: Mon, 10 May 2021 04:01:01 -0400 (EDT) /bin/sh: 1: /home/sinton/symlinks/TEAM99/ogoakinitchka2.sh: not found From sinton@wam-2.localdomain Mon May 10 04:01:01 2021 Return-Path: X-Original-To: sinton Delivered-To: sinton@wam-2.localdomain Received: by wam-2.localdomain (Postfix, from userid 1001) id C3618397BD; Mon, 10 May 2021 04:01:01 -0400 (EDT) From: root@wam-2.localdomain (Cron Daemon) To: sinton@wam-2.localdomain Subject: Cron ~/symlinks/TEAM1F/metin/apiv4.sh 1f > /dev/null MIME-Version: 1.0 Content-Type: text/plain; charset=UTF-8 Content-Transfer-Encoding: 8bit X-Cron-Env: X-Cron-Env: X-Cron-Env: X-Cron-Env: Message-Id: <20210510080101.C3618397BD@wam-2.localdomain> Date: Mon, 10 May 2021 04:01:01 -0400 (EDT) % Total % Received % Xferd Average Speed Time Time Time Current Dload Upload Total Spent Left Speed 0 0 0 0 0 0 0 0 --:--:-- --:--:-- --:--:-- 0 100 386 100 386 0 0 5514 0 --:--:-- --:--:-- --:--:-- 5514 From sinton@wam-2.localdomain Mon May 10 04:02:02 2021 Return-Path: X-Original-To: sinton Delivered-To: sinton@wam-2.localdomain Received: by wam-2.localdomain (Postfix, from userid 1001) id 060BB397C7; Mon, 10 May 2021 04:02:02 -0400 (EDT) From: root@wam-2.localdomain (Cron Daemon) To: sinton@wam-2.localdomain Subject: Cron ~/symlinks/TEAM99/ogoakinitchka2.sh 99 0.05 > /dev/null MIME-Version: 1.0 Content-Type: text/plain; charset=UTF-8 Content-Transfer-Encoding: 8bit X-Cron-Env: X-Cron-Env: X-Cron-Env: X-Cron-Env: Message-Id: <20210510080202.060BB397C7@wam-2.localdomain> Date: Mon, 10 May 2021 04:02:02 -0400 (EDT) /bin/sh: 1: /home/sinton/symlinks/TEAM99/ogoakinitchka2.sh: not found From sinton@wam-2.localdomain Mon May 10 04:02:02 2021 Return-Path: X-Original-To: sinton Delivered-To: sinton@wam-2.localdomain Received: by wam-2.localdomain (Postfix, from userid 1001) id 192E8397C7; Mon, 10 May 2021 04:02:02 -0400 (EDT) From: root@wam-2.localdomain (Cron Daemon) To: sinton@wam-2.localdomain Subject: Cron ~/symlinks/TEAM1F/metin/apiv4.sh 1f > /dev/null MIME-Version: 1.0 Content-Type: text/plain; charset=UTF-8 Content-Transfer-Encoding: 8bit X-Cron-Env: X-Cron-Env: X-Cron-Env: X-Cron-Env: Message-Id: <20210510080202.192E8397C7@wam-2.localdomain> Date: Mon, 10 May 2021 04:02:02 -0400 (EDT) % Total % Received % Xferd Average Speed Time Time Time Current Dload Upload Total Spent Left Speed 0 0 0 0 0 0 0 0 --:--:-- --:--:-- --:--:-- 0 100 386 100 386 0 0 4825 0 --:--:-- --:--:-- --:--:-- 4886 From sinton@wam-2.localdomain Mon May 10 04:02:15 2021 Return-Path: X-Original-To: sinton Delivered-To: sinton@wam-2.localdomain Received: by wam-2.localdomain (Postfix, from userid 1001) id 28A0D397D3; Mon, 10 May 2021 04:02:15 -0400 (EDT) From: root@wam-2.localdomain (Cron Daemon) To: sinton@wam-2.localdomain Subject: Cron bash -c "sleep $[RANDOM%30]m" ; ~/symlinks/TEAM1/fcst/startfcstclim.sh 1 > /dev/null MIME-Version: 1.0 Content-Type: text/plain; charset=UTF-8 Content-Transfer-Encoding: 8bit X-Cron-Env: X-Cron-Env: X-Cron-Env: X-Cron-Env: Message-Id: <20210510080215.28A0D397D3@wam-2.localdomain> Date: Mon, 10 May 2021 04:02:15 -0400 (EDT) % Total % Received % Xferd Average Speed Time Time Time Current Dload Upload Total Spent Left Speed 0 0 0 0 0 0 0 0 --:--:-- --:--:-- --:--:-- 0 100 41730 100 41730 0 0 112k 0 --:--:-- --:--:-- --:--:-- 112k From sinton@wam-2.localdomain Mon May 10 04:03:01 2021 Return-Path: X-Original-To: sinton Delivered-To: sinton@wam-2.localdomain Received: by wam-2.localdomain (Postfix, from userid 1001) id 604F0397BD; Mon, 10 May 2021 04:03:01 -0400 (EDT) From: root@wam-2.localdomain (Cron Daemon) To: sinton@wam-2.localdomain Subject: Cron ~/symlinks/TEAM99/ogoakinitchka2.sh 99 0.05 > /dev/null MIME-Version: 1.0 Content-Type: text/plain; charset=UTF-8 Content-Transfer-Encoding: 8bit X-Cron-Env: X-Cron-Env: X-Cron-Env: X-Cron-Env: Message-Id: <20210510080301.604F0397BD@wam-2.localdomain> Date: Mon, 10 May 2021 04:03:01 -0400 (EDT) /bin/sh: 1: /home/sinton/symlinks/TEAM99/ogoakinitchka2.sh: not found From sinton@wam-2.localdomain Mon May 10 04:03:01 2021 Return-Path: X-Original-To: sinton Delivered-To: sinton@wam-2.localdomain Received: by wam-2.localdomain (Postfix, from userid 1001) id 73A41397C2; Mon, 10 May 2021 04:03:01 -0400 (EDT) From: root@wam-2.localdomain (Cron Daemon) To: sinton@wam-2.localdomain Subject: Cron ~/symlinks/TEAM1F/metin/apiv4.sh 1f > /dev/null MIME-Version: 1.0 Content-Type: text/plain; charset=UTF-8 Content-Transfer-Encoding: 8bit X-Cron-Env: X-Cron-Env: X-Cron-Env: X-Cron-Env: Message-Id: <20210510080301.73A41397C2@wam-2.localdomain> Date: Mon, 10 May 2021 04:03:01 -0400 (EDT) % Total % Received % Xferd Average Speed Time Time Time Current Dload Upload Total Spent Left Speed 0 0 0 0 0 0 0 0 --:--:-- --:--:-- --:--:-- 0 100 384 100 384 0 0 5052 0 --:--:-- --:--:-- --:--:-- 5052 From sinton@wam-2.localdomain Mon May 10 04:04:01 2021 Return-Path: X-Original-To: sinton Delivered-To: sinton@wam-2.localdomain Received: by wam-2.localdomain (Postfix, from userid 1001) id A6219397D9; Mon, 10 May 2021 04:04:01 -0400 (EDT) From: root@wam-2.localdomain (Cron Daemon) To: sinton@wam-2.localdomain Subject: Cron ~/symlinks/TEAM99/ogoakinitchka2.sh 99 0.05 > /dev/null MIME-Version: 1.0 Content-Type: text/plain; charset=UTF-8 Content-Transfer-Encoding: 8bit X-Cron-Env: X-Cron-Env: X-Cron-Env: X-Cron-Env: Message-Id: <20210510080401.A6219397D9@wam-2.localdomain> Date: Mon, 10 May 2021 04:04:01 -0400 (EDT) /bin/sh: 1: /home/sinton/symlinks/TEAM99/ogoakinitchka2.sh: not found From sinton@wam-2.localdomain Mon May 10 04:04:01 2021 Return-Path: X-Original-To: sinton Delivered-To: sinton@wam-2.localdomain Received: by wam-2.localdomain (Postfix, from userid 1001) id BA249397C9; Mon, 10 May 2021 04:04:01 -0400 (EDT) From: root@wam-2.localdomain (Cron Daemon) To: sinton@wam-2.localdomain Subject: Cron ~/symlinks/TEAM1F/metin/apiv4.sh 1f > /dev/null MIME-Version: 1.0 Content-Type: text/plain; charset=UTF-8 Content-Transfer-Encoding: 8bit X-Cron-Env: X-Cron-Env: X-Cron-Env: X-Cron-Env: Message-Id: <20210510080401.BA249397C9@wam-2.localdomain> Date: Mon, 10 May 2021 04:04:01 -0400 (EDT) % Total % Received % Xferd Average Speed Time Time Time Current Dload Upload Total Spent Left Speed 0 0 0 0 0 0 0 0 --:--:-- --:--:-- --:--:-- 0 100 387 100 387 0 0 5229 0 --:--:-- --:--:-- --:--:-- 5229 From sinton@wam-2.localdomain Mon May 10 04:05:02 2021 Return-Path: X-Original-To: sinton Delivered-To: sinton@wam-2.localdomain Received: by wam-2.localdomain (Postfix, from userid 1001) id F2A5A397C2; Mon, 10 May 2021 04:05:01 -0400 (EDT) From: root@wam-2.localdomain (Cron Daemon) To: sinton@wam-2.localdomain Subject: Cron ~/symlinks/TEAM99/ogoakinitchka2.sh 99 0.05 > /dev/null MIME-Version: 1.0 Content-Type: text/plain; charset=UTF-8 Content-Transfer-Encoding: 8bit X-Cron-Env: X-Cron-Env: X-Cron-Env: X-Cron-Env: Message-Id: <20210510080501.F2A5A397C2@wam-2.localdomain> Date: Mon, 10 May 2021 04:05:01 -0400 (EDT) /bin/sh: 1: /home/sinton/symlinks/TEAM99/ogoakinitchka2.sh: not found From sinton@wam-2.localdomain Mon May 10 04:05:02 2021 Return-Path: X-Original-To: sinton Delivered-To: sinton@wam-2.localdomain Received: by wam-2.localdomain (Postfix, from userid 1001) id 111E1397C2; Mon, 10 May 2021 04:05:02 -0400 (EDT) From: root@wam-2.localdomain (Cron Daemon) To: sinton@wam-2.localdomain Subject: Cron ~/symlinks/TEAM1F/metin/apiv4.sh 1f > /dev/null MIME-Version: 1.0 Content-Type: text/plain; charset=UTF-8 Content-Transfer-Encoding: 8bit X-Cron-Env: X-Cron-Env: X-Cron-Env: X-Cron-Env: Message-Id: <20210510080502.111E1397C2@wam-2.localdomain> Date: Mon, 10 May 2021 04:05:02 -0400 (EDT) % Total % Received % Xferd Average Speed Time Time Time Current Dload Upload Total Spent Left Speed 0 0 0 0 0 0 0 0 --:--:-- --:--:-- --:--:-- 0 100 384 100 384 0 0 4987 0 --:--:-- --:--:-- --:--:-- 4987 From sinton@wam-2.localdomain Mon May 10 04:06:01 2021 Return-Path: X-Original-To: sinton Delivered-To: sinton@wam-2.localdomain Received: by wam-2.localdomain (Postfix, from userid 1001) id 546F4397D9; Mon, 10 May 2021 04:06:01 -0400 (EDT) From: root@wam-2.localdomain (Cron Daemon) To: sinton@wam-2.localdomain Subject: Cron ~/symlinks/TEAM99/ogoakinitchka2.sh 99 0.05 > /dev/null MIME-Version: 1.0 Content-Type: text/plain; charset=UTF-8 Content-Transfer-Encoding: 8bit X-Cron-Env: X-Cron-Env: X-Cron-Env: X-Cron-Env: Message-Id: <20210510080601.546F4397D9@wam-2.localdomain> Date: Mon, 10 May 2021 04:06:01 -0400 (EDT) /bin/sh: 1: /home/sinton/symlinks/TEAM99/ogoakinitchka2.sh: not found From sinton@wam-2.localdomain Mon May 10 04:06:01 2021 Return-Path: X-Original-To: sinton Delivered-To: sinton@wam-2.localdomain Received: by wam-2.localdomain (Postfix, from userid 1001) id 6EC39397D9; Mon, 10 May 2021 04:06:01 -0400 (EDT) From: root@wam-2.localdomain (Cron Daemon) To: sinton@wam-2.localdomain Subject: Cron ~/symlinks/TEAM1F/metin/apiv4.sh 1f > /dev/null MIME-Version: 1.0 Content-Type: text/plain; charset=UTF-8 Content-Transfer-Encoding: 8bit X-Cron-Env: X-Cron-Env: X-Cron-Env: X-Cron-Env: Message-Id: <20210510080601.6EC39397D9@wam-2.localdomain> Date: Mon, 10 May 2021 04:06:01 -0400 (EDT) % Total % Received % Xferd Average Speed Time Time Time Current Dload Upload Total Spent Left Speed 0 0 0 0 0 0 0 0 --:--:-- --:--:-- --:--:-- 0 100 387 100 387 0 0 4206 0 --:--:-- --:--:-- --:--:-- 4206 From sinton@wam-2.localdomain Mon May 10 04:06:26 2021 Return-Path: X-Original-To: sinton Delivered-To: sinton@wam-2.localdomain Received: by wam-2.localdomain (Postfix, from userid 1001) id A7D55394B3; Mon, 10 May 2021 04:06:26 -0400 (EDT) From: root@wam-2.localdomain (Cron Daemon) To: sinton@wam-2.localdomain Subject: Cron bash -c "sleep $[RANDOM%30]m" ; ~/symlinks/TEAM8/fcst/startfcstclim.sh 8 > /dev/null MIME-Version: 1.0 Content-Type: text/plain; charset=UTF-8 Content-Transfer-Encoding: 8bit X-Cron-Env: X-Cron-Env: X-Cron-Env: X-Cron-Env: Message-Id: <20210510080626.A7D55394B3@wam-2.localdomain> Date: Mon, 10 May 2021 04:06:26 -0400 (EDT) % Total % Received % Xferd Average Speed Time Time Time Current Dload Upload Total Spent Left Speed 0 0 0 0 0 0 0 0 --:--:-- --:--:-- --:--:-- 0 100 41636 100 41636 0 0 121k 0 --:--:-- --:--:-- --:--:-- 121k From sinton@wam-2.localdomain Mon May 10 04:07:01 2021 Return-Path: X-Original-To: sinton Delivered-To: sinton@wam-2.localdomain Received: by wam-2.localdomain (Postfix, from userid 1001) id E1BB5397A5; Mon, 10 May 2021 04:07:01 -0400 (EDT) From: root@wam-2.localdomain (Cron Daemon) To: sinton@wam-2.localdomain Subject: Cron ~/symlinks/TEAM99/ogoakinitchka2.sh 99 0.05 > /dev/null MIME-Version: 1.0 Content-Type: text/plain; charset=UTF-8 Content-Transfer-Encoding: 8bit X-Cron-Env: X-Cron-Env: X-Cron-Env: X-Cron-Env: Message-Id: <20210510080701.E1BB5397A5@wam-2.localdomain> Date: Mon, 10 May 2021 04:07:01 -0400 (EDT) /bin/sh: 1: /home/sinton/symlinks/TEAM99/ogoakinitchka2.sh: not found From sinton@wam-2.localdomain Mon May 10 04:07:01 2021 Return-Path: X-Original-To: sinton Delivered-To: sinton@wam-2.localdomain Received: by wam-2.localdomain (Postfix, from userid 1001) id F0D7F397A5; Mon, 10 May 2021 04:07:01 -0400 (EDT) From: root@wam-2.localdomain (Cron Daemon) To: sinton@wam-2.localdomain Subject: Cron ~/symlinks/TEAM1F/metin/apiv4.sh 1f > /dev/null MIME-Version: 1.0 Content-Type: text/plain; charset=UTF-8 Content-Transfer-Encoding: 8bit X-Cron-Env: X-Cron-Env: X-Cron-Env: X-Cron-Env: Message-Id: <20210510080701.F0D7F397A5@wam-2.localdomain> Date: Mon, 10 May 2021 04:07:01 -0400 (EDT) % Total % Received % Xferd Average Speed Time Time Time Current Dload Upload Total Spent Left Speed 0 0 0 0 0 0 0 0 --:--:-- --:--:-- --:--:-- 0 100 386 100 386 0 0 6542 0 --:--:-- --:--:-- --:--:-- 6542 From sinton@wam-2.localdomain Mon May 10 04:08:02 2021 Return-Path: X-Original-To: sinton Delivered-To: sinton@wam-2.localdomain Received: by wam-2.localdomain (Postfix, from userid 1001) id 39391397E1; Mon, 10 May 2021 04:08:02 -0400 (EDT) From: root@wam-2.localdomain (Cron Daemon) To: sinton@wam-2.localdomain Subject: Cron ~/symlinks/TEAM99/ogoakinitchka2.sh 99 0.05 > /dev/null MIME-Version: 1.0 Content-Type: text/plain; charset=UTF-8 Content-Transfer-Encoding: 8bit X-Cron-Env: X-Cron-Env: X-Cron-Env: X-Cron-Env: Message-Id: <20210510080802.39391397E1@wam-2.localdomain> Date: Mon, 10 May 2021 04:08:02 -0400 (EDT) /bin/sh: 1: /home/sinton/symlinks/TEAM99/ogoakinitchka2.sh: not found From sinton@wam-2.localdomain Mon May 10 04:08:02 2021 Return-Path: X-Original-To: sinton Delivered-To: sinton@wam-2.localdomain Received: by wam-2.localdomain (Postfix, from userid 1001) id 503D0397E1; Mon, 10 May 2021 04:08:02 -0400 (EDT) From: root@wam-2.localdomain (Cron Daemon) To: sinton@wam-2.localdomain Subject: Cron ~/symlinks/TEAM1F/metin/apiv4.sh 1f > /dev/null MIME-Version: 1.0 Content-Type: text/plain; charset=UTF-8 Content-Transfer-Encoding: 8bit X-Cron-Env: X-Cron-Env: X-Cron-Env: X-Cron-Env: Message-Id: <20210510080802.503D0397E1@wam-2.localdomain> Date: Mon, 10 May 2021 04:08:02 -0400 (EDT) % Total % Received % Xferd Average Speed Time Time Time Current Dload Upload Total Spent Left Speed 0 0 0 0 0 0 0 0 --:--:-- --:--:-- --:--:-- 0 100 386 100 386 0 0 4063 0 --:--:-- --:--:-- --:--:-- 4063 From sinton@wam-2.localdomain Mon May 10 04:08:30 2021 Return-Path: X-Original-To: sinton Delivered-To: sinton@wam-2.localdomain Received: by wam-2.localdomain (Postfix, from userid 1001) id 63F2D397E3; Mon, 10 May 2021 04:08:30 -0400 (EDT) From: root@wam-2.localdomain (Cron Daemon) To: sinton@wam-2.localdomain Subject: Cron bash -c "sleep $[RANDOM%30]m" ; ~/symlinks/TEAM2/fcst/startfcstclim.sh 2 > /dev/null MIME-Version: 1.0 Content-Type: text/plain; charset=UTF-8 Content-Transfer-Encoding: 8bit X-Cron-Env: X-Cron-Env: X-Cron-Env: X-Cron-Env: Message-Id: <20210510080830.63F2D397E3@wam-2.localdomain> Date: Mon, 10 May 2021 04:08:30 -0400 (EDT) % Total % Received % Xferd Average Speed Time Time Time Current Dload Upload Total Spent Left Speed 0 0 0 0 0 0 0 0 --:--:-- --:--:-- --:--:-- 0 100 41809 100 41809 0 0 123k 0 --:--:-- --:--:-- --:--:-- 124k From sinton@wam-2.localdomain Mon May 10 04:08:34 2021 Return-Path: X-Original-To: sinton Delivered-To: sinton@wam-2.localdomain Received: by wam-2.localdomain (Postfix, from userid 1001) id D0E82397E3; Mon, 10 May 2021 04:08:34 -0400 (EDT) From: root@wam-2.localdomain (Cron Daemon) To: sinton@wam-2.localdomain Subject: Cron bash -c "sleep $[RANDOM%30]m" ; ~/symlinks/TEAM1N/fcst/startfcstclim.sh 1n > /dev/null MIME-Version: 1.0 Content-Type: text/plain; charset=UTF-8 Content-Transfer-Encoding: 8bit X-Cron-Env: X-Cron-Env: X-Cron-Env: X-Cron-Env: Message-Id: <20210510080834.D0E82397E3@wam-2.localdomain> Date: Mon, 10 May 2021 04:08:34 -0400 (EDT) % Total % Received % Xferd Average Speed Time Time Time Current Dload Upload Total Spent Left Speed 0 0 0 0 0 0 0 0 --:--:-- --:--:-- --:--:-- 0 100 41886 100 41886 0 0 109k 0 --:--:-- --:--:-- --:--:-- 109k From sinton@wam-2.localdomain Mon May 10 04:09:02 2021 Return-Path: X-Original-To: sinton Delivered-To: sinton@wam-2.localdomain Received: by wam-2.localdomain (Postfix, from userid 1001) id 1578235CED; Mon, 10 May 2021 04:09:02 -0400 (EDT) From: root@wam-2.localdomain (Cron Daemon) To: sinton@wam-2.localdomain Subject: Cron ~/symlinks/TEAM99/ogoakinitchka2.sh 99 0.05 > /dev/null MIME-Version: 1.0 Content-Type: text/plain; charset=UTF-8 Content-Transfer-Encoding: 8bit X-Cron-Env: X-Cron-Env: X-Cron-Env: X-Cron-Env: Message-Id: <20210510080902.1578235CED@wam-2.localdomain> Date: Mon, 10 May 2021 04:09:02 -0400 (EDT) /bin/sh: 1: /home/sinton/symlinks/TEAM99/ogoakinitchka2.sh: not found From sinton@wam-2.localdomain Mon May 10 04:09:02 2021 Return-Path: X-Original-To: sinton Delivered-To: sinton@wam-2.localdomain Received: by wam-2.localdomain (Postfix, from userid 1001) id 23B5338D68; Mon, 10 May 2021 04:09:02 -0400 (EDT) From: root@wam-2.localdomain (Cron Daemon) To: sinton@wam-2.localdomain Subject: Cron ~/symlinks/TEAM1F/metin/apiv4.sh 1f > /dev/null MIME-Version: 1.0 Content-Type: text/plain; charset=UTF-8 Content-Transfer-Encoding: 8bit X-Cron-Env: X-Cron-Env: X-Cron-Env: X-Cron-Env: Message-Id: <20210510080902.23B5338D68@wam-2.localdomain> Date: Mon, 10 May 2021 04:09:02 -0400 (EDT) % Total % Received % Xferd Average Speed Time Time Time Current Dload Upload Total Spent Left Speed 0 0 0 0 0 0 0 0 --:--:-- --:--:-- --:--:-- 0 100 386 100 386 0 0 4948 0 --:--:-- --:--:-- --:--:-- 4948 From sinton@wam-2.localdomain Mon May 10 04:10:01 2021 Return-Path: X-Original-To: sinton Delivered-To: sinton@wam-2.localdomain Received: by wam-2.localdomain (Postfix, from userid 1001) id 572C437A28; Mon, 10 May 2021 04:10:01 -0400 (EDT) From: root@wam-2.localdomain (Cron Daemon) To: sinton@wam-2.localdomain Subject: Cron ~/symlinks/TEAM99/ogoakinitchka2.sh 99 0.05 > /dev/null MIME-Version: 1.0 Content-Type: text/plain; charset=UTF-8 Content-Transfer-Encoding: 8bit X-Cron-Env: X-Cron-Env: X-Cron-Env: X-Cron-Env: Message-Id: <20210510081001.572C437A28@wam-2.localdomain> Date: Mon, 10 May 2021 04:10:01 -0400 (EDT) /bin/sh: 1: /home/sinton/symlinks/TEAM99/ogoakinitchka2.sh: not found From sinton@wam-2.localdomain Mon May 10 04:10:01 2021 Return-Path: X-Original-To: sinton Delivered-To: sinton@wam-2.localdomain Received: by wam-2.localdomain (Postfix, from userid 1001) id 6805837A28; Mon, 10 May 2021 04:10:01 -0400 (EDT) From: root@wam-2.localdomain (Cron Daemon) To: sinton@wam-2.localdomain Subject: Cron ~/symlinks/TEAM1F/metin/apiv4.sh 1f > /dev/null MIME-Version: 1.0 Content-Type: text/plain; charset=UTF-8 Content-Transfer-Encoding: 8bit X-Cron-Env: X-Cron-Env: X-Cron-Env: X-Cron-Env: Message-Id: <20210510081001.6805837A28@wam-2.localdomain> Date: Mon, 10 May 2021 04:10:01 -0400 (EDT) % Total % Received % Xferd Average Speed Time Time Time Current Dload Upload Total Spent Left Speed 0 0 0 0 0 0 0 0 --:--:-- --:--:-- --:--:-- 0 100 385 100 385 0 0 6015 0 --:--:-- --:--:-- --:--:-- 6015 From sinton@wam-2.localdomain Mon May 10 04:11:01 2021 Return-Path: X-Original-To: sinton Delivered-To: sinton@wam-2.localdomain Received: by wam-2.localdomain (Postfix, from userid 1001) id B2BF2397EE; Mon, 10 May 2021 04:11:01 -0400 (EDT) From: root@wam-2.localdomain (Cron Daemon) To: sinton@wam-2.localdomain Subject: Cron ~/symlinks/TEAM99/ogoakinitchka2.sh 99 0.05 > /dev/null MIME-Version: 1.0 Content-Type: text/plain; charset=UTF-8 Content-Transfer-Encoding: 8bit X-Cron-Env: X-Cron-Env: X-Cron-Env: X-Cron-Env: Message-Id: <20210510081101.B2BF2397EE@wam-2.localdomain> Date: Mon, 10 May 2021 04:11:01 -0400 (EDT) /bin/sh: 1: /home/sinton/symlinks/TEAM99/ogoakinitchka2.sh: not found From sinton@wam-2.localdomain Mon May 10 04:11:01 2021 Return-Path: X-Original-To: sinton Delivered-To: sinton@wam-2.localdomain Received: by wam-2.localdomain (Postfix, from userid 1001) id C33EE397F2; Mon, 10 May 2021 04:11:01 -0400 (EDT) From: root@wam-2.localdomain (Cron Daemon) To: sinton@wam-2.localdomain Subject: Cron ~/symlinks/TEAM1F/metin/apiv4.sh 1f > /dev/null MIME-Version: 1.0 Content-Type: text/plain; charset=UTF-8 Content-Transfer-Encoding: 8bit X-Cron-Env: X-Cron-Env: X-Cron-Env: X-Cron-Env: Message-Id: <20210510081101.C33EE397F2@wam-2.localdomain> Date: Mon, 10 May 2021 04:11:01 -0400 (EDT) % Total % Received % Xferd Average Speed Time Time Time Current Dload Upload Total Spent Left Speed 0 0 0 0 0 0 0 0 --:--:-- --:--:-- --:--:-- 0 100 386 100 386 0 0 5594 0 --:--:-- --:--:-- --:--:-- 5594 From sinton@wam-2.localdomain Mon May 10 04:12:02 2021 Return-Path: X-Original-To: sinton Delivered-To: sinton@wam-2.localdomain Received: by wam-2.localdomain (Postfix, from userid 1001) id F3C82397E5; Mon, 10 May 2021 04:12:01 -0400 (EDT) From: root@wam-2.localdomain (Cron Daemon) To: sinton@wam-2.localdomain Subject: Cron ~/symlinks/TEAM99/ogoakinitchka2.sh 99 0.05 > /dev/null MIME-Version: 1.0 Content-Type: text/plain; charset=UTF-8 Content-Transfer-Encoding: 8bit X-Cron-Env: X-Cron-Env: X-Cron-Env: X-Cron-Env: Message-Id: <20210510081201.F3C82397E5@wam-2.localdomain> Date: Mon, 10 May 2021 04:12:01 -0400 (EDT) /bin/sh: 1: /home/sinton/symlinks/TEAM99/ogoakinitchka2.sh: not found From sinton@wam-2.localdomain Mon May 10 04:12:02 2021 Return-Path: X-Original-To: sinton Delivered-To: sinton@wam-2.localdomain Received: by wam-2.localdomain (Postfix, from userid 1001) id 14B12397E5; Mon, 10 May 2021 04:12:02 -0400 (EDT) From: root@wam-2.localdomain (Cron Daemon) To: sinton@wam-2.localdomain Subject: Cron ~/symlinks/TEAM1F/metin/apiv4.sh 1f > /dev/null MIME-Version: 1.0 Content-Type: text/plain; charset=UTF-8 Content-Transfer-Encoding: 8bit X-Cron-Env: X-Cron-Env: X-Cron-Env: X-Cron-Env: Message-Id: <20210510081202.14B12397E5@wam-2.localdomain> Date: Mon, 10 May 2021 04:12:02 -0400 (EDT) % Total % Received % Xferd Average Speed Time Time Time Current Dload Upload Total Spent Left Speed 0 0 0 0 0 0 0 0 --:--:-- --:--:-- --:--:-- 0 100 386 100 386 0 0 6126 0 --:--:-- --:--:-- --:--:-- 6126 From sinton@wam-2.localdomain Mon May 10 04:13:01 2021 Return-Path: X-Original-To: sinton Delivered-To: sinton@wam-2.localdomain Received: by wam-2.localdomain (Postfix, from userid 1001) id 45E6A397E9; Mon, 10 May 2021 04:13:01 -0400 (EDT) From: root@wam-2.localdomain (Cron Daemon) To: sinton@wam-2.localdomain Subject: Cron ~/symlinks/TEAM99/ogoakinitchka2.sh 99 0.05 > /dev/null MIME-Version: 1.0 Content-Type: text/plain; charset=UTF-8 Content-Transfer-Encoding: 8bit X-Cron-Env: X-Cron-Env: X-Cron-Env: X-Cron-Env: Message-Id: <20210510081301.45E6A397E9@wam-2.localdomain> Date: Mon, 10 May 2021 04:13:01 -0400 (EDT) /bin/sh: 1: /home/sinton/symlinks/TEAM99/ogoakinitchka2.sh: not found From sinton@wam-2.localdomain Mon May 10 04:13:01 2021 Return-Path: X-Original-To: sinton Delivered-To: sinton@wam-2.localdomain Received: by wam-2.localdomain (Postfix, from userid 1001) id 5F846397E9; Mon, 10 May 2021 04:13:01 -0400 (EDT) From: root@wam-2.localdomain (Cron Daemon) To: sinton@wam-2.localdomain Subject: Cron ~/symlinks/TEAM1F/metin/apiv4.sh 1f > /dev/null MIME-Version: 1.0 Content-Type: text/plain; charset=UTF-8 Content-Transfer-Encoding: 8bit X-Cron-Env: X-Cron-Env: X-Cron-Env: X-Cron-Env: Message-Id: <20210510081301.5F846397E9@wam-2.localdomain> Date: Mon, 10 May 2021 04:13:01 -0400 (EDT) % Total % Received % Xferd Average Speed Time Time Time Current Dload Upload Total Spent Left Speed 0 0 0 0 0 0 0 0 --:--:-- --:--:-- --:--:-- 0 100 385 100 385 0 0 5923 0 --:--:-- --:--:-- --:--:-- 5923 From sinton@wam-2.localdomain Mon May 10 04:14:01 2021 Return-Path: X-Original-To: sinton Delivered-To: sinton@wam-2.localdomain Received: by wam-2.localdomain (Postfix, from userid 1001) id 97263397ED; Mon, 10 May 2021 04:14:01 -0400 (EDT) From: root@wam-2.localdomain (Cron Daemon) To: sinton@wam-2.localdomain Subject: Cron ~/symlinks/TEAM99/ogoakinitchka2.sh 99 0.05 > /dev/null MIME-Version: 1.0 Content-Type: text/plain; charset=UTF-8 Content-Transfer-Encoding: 8bit X-Cron-Env: X-Cron-Env: X-Cron-Env: X-Cron-Env: Message-Id: <20210510081401.97263397ED@wam-2.localdomain> Date: Mon, 10 May 2021 04:14:01 -0400 (EDT) /bin/sh: 1: /home/sinton/symlinks/TEAM99/ogoakinitchka2.sh: not found From sinton@wam-2.localdomain Mon May 10 04:14:01 2021 Return-Path: X-Original-To: sinton Delivered-To: sinton@wam-2.localdomain Received: by wam-2.localdomain (Postfix, from userid 1001) id AD7D7397ED; Mon, 10 May 2021 04:14:01 -0400 (EDT) From: root@wam-2.localdomain (Cron Daemon) To: sinton@wam-2.localdomain Subject: Cron ~/symlinks/TEAM1F/metin/apiv4.sh 1f > /dev/null MIME-Version: 1.0 Content-Type: text/plain; charset=UTF-8 Content-Transfer-Encoding: 8bit X-Cron-Env: X-Cron-Env: X-Cron-Env: X-Cron-Env: Message-Id: <20210510081401.AD7D7397ED@wam-2.localdomain> Date: Mon, 10 May 2021 04:14:01 -0400 (EDT) % Total % Received % Xferd Average Speed Time Time Time Current Dload Upload Total Spent Left Speed 0 0 0 0 0 0 0 0 --:--:-- --:--:-- --:--:-- 0 100 386 100 386 0 0 5361 0 --:--:-- --:--:-- --:--:-- 5436 From sinton@wam-2.localdomain Mon May 10 04:15:01 2021 Return-Path: X-Original-To: sinton Delivered-To: sinton@wam-2.localdomain Received: by wam-2.localdomain (Postfix, from userid 1001) id DF474397FB; Mon, 10 May 2021 04:15:01 -0400 (EDT) From: root@wam-2.localdomain (Cron Daemon) To: sinton@wam-2.localdomain Subject: Cron ~/symlinks/TEAM99/ogoakinitchka2.sh 99 0.05 > /dev/null MIME-Version: 1.0 Content-Type: text/plain; charset=UTF-8 Content-Transfer-Encoding: 8bit X-Cron-Env: X-Cron-Env: X-Cron-Env: X-Cron-Env: Message-Id: <20210510081501.DF474397FB@wam-2.localdomain> Date: Mon, 10 May 2021 04:15:01 -0400 (EDT) /bin/sh: 1: /home/sinton/symlinks/TEAM99/ogoakinitchka2.sh: not found From sinton@wam-2.localdomain Mon May 10 04:15:02 2021 Return-Path: X-Original-To: sinton Delivered-To: sinton@wam-2.localdomain Received: by wam-2.localdomain (Postfix, from userid 1001) id 0203E397F7; Mon, 10 May 2021 04:15:02 -0400 (EDT) From: root@wam-2.localdomain (Cron Daemon) To: sinton@wam-2.localdomain Subject: Cron ~/symlinks/TEAM1F/metin/apiv4.sh 1f > /dev/null MIME-Version: 1.0 Content-Type: text/plain; charset=UTF-8 Content-Transfer-Encoding: 8bit X-Cron-Env: X-Cron-Env: X-Cron-Env: X-Cron-Env: Message-Id: <20210510081502.0203E397F7@wam-2.localdomain> Date: Mon, 10 May 2021 04:15:02 -0400 (EDT) % Total % Received % Xferd Average Speed Time Time Time Current Dload Upload Total Spent Left Speed 0 0 0 0 0 0 0 0 --:--:-- --:--:-- --:--:-- 0 100 386 100 386 0 0 4886 0 --:--:-- --:--:-- --:--:-- 4886 From sinton@wam-2.localdomain Mon May 10 04:16:01 2021 Return-Path: X-Original-To: sinton Delivered-To: sinton@wam-2.localdomain Received: by wam-2.localdomain (Postfix, from userid 1001) id 89144397F9; Mon, 10 May 2021 04:16:01 -0400 (EDT) From: root@wam-2.localdomain (Cron Daemon) To: sinton@wam-2.localdomain Subject: Cron ~/symlinks/TEAM99/ogoakinitchka2.sh 99 0.05 > /dev/null MIME-Version: 1.0 Content-Type: text/plain; charset=UTF-8 Content-Transfer-Encoding: 8bit X-Cron-Env: X-Cron-Env: X-Cron-Env: X-Cron-Env: Message-Id: <20210510081601.89144397F9@wam-2.localdomain> Date: Mon, 10 May 2021 04:16:01 -0400 (EDT) /bin/sh: 1: /home/sinton/symlinks/TEAM99/ogoakinitchka2.sh: not found From sinton@wam-2.localdomain Mon May 10 04:16:01 2021 Return-Path: X-Original-To: sinton Delivered-To: sinton@wam-2.localdomain Received: by wam-2.localdomain (Postfix, from userid 1001) id 9C5E9397F9; Mon, 10 May 2021 04:16:01 -0400 (EDT) From: root@wam-2.localdomain (Cron Daemon) To: sinton@wam-2.localdomain Subject: Cron ~/symlinks/TEAM1F/metin/apiv4.sh 1f > /dev/null MIME-Version: 1.0 Content-Type: text/plain; charset=UTF-8 Content-Transfer-Encoding: 8bit X-Cron-Env: X-Cron-Env: X-Cron-Env: X-Cron-Env: Message-Id: <20210510081601.9C5E9397F9@wam-2.localdomain> Date: Mon, 10 May 2021 04:16:01 -0400 (EDT) % Total % Received % Xferd Average Speed Time Time Time Current Dload Upload Total Spent Left Speed 0 0 0 0 0 0 0 0 --:--:-- --:--:-- --:--:-- 0 100 386 100 386 0 0 4241 0 --:--:-- --:--:-- --:--:-- 4241 From sinton@wam-2.localdomain Mon May 10 04:17:01 2021 Return-Path: X-Original-To: sinton Delivered-To: sinton@wam-2.localdomain Received: by wam-2.localdomain (Postfix, from userid 1001) id D78CB397E9; Mon, 10 May 2021 04:17:01 -0400 (EDT) From: root@wam-2.localdomain (Cron Daemon) To: sinton@wam-2.localdomain Subject: Cron ~/symlinks/TEAM99/ogoakinitchka2.sh 99 0.05 > /dev/null MIME-Version: 1.0 Content-Type: text/plain; charset=UTF-8 Content-Transfer-Encoding: 8bit X-Cron-Env: X-Cron-Env: X-Cron-Env: X-Cron-Env: Message-Id: <20210510081701.D78CB397E9@wam-2.localdomain> Date: Mon, 10 May 2021 04:17:01 -0400 (EDT) /bin/sh: 1: /home/sinton/symlinks/TEAM99/ogoakinitchka2.sh: not found From sinton@wam-2.localdomain Mon May 10 04:17:01 2021 Return-Path: X-Original-To: sinton Delivered-To: sinton@wam-2.localdomain Received: by wam-2.localdomain (Postfix, from userid 1001) id EA2E83993B; Mon, 10 May 2021 04:17:01 -0400 (EDT) From: root@wam-2.localdomain (Cron Daemon) To: sinton@wam-2.localdomain Subject: Cron ~/symlinks/TEAM1F/metin/apiv4.sh 1f > /dev/null MIME-Version: 1.0 Content-Type: text/plain; charset=UTF-8 Content-Transfer-Encoding: 8bit X-Cron-Env: X-Cron-Env: X-Cron-Env: X-Cron-Env: Message-Id: <20210510081701.EA2E83993B@wam-2.localdomain> Date: Mon, 10 May 2021 04:17:01 -0400 (EDT) % Total % Received % Xferd Average Speed Time Time Time Current Dload Upload Total Spent Left Speed 0 0 0 0 0 0 0 0 --:--:-- --:--:-- --:--:-- 0 100 386 100 386 0 0 3641 0 --:--:-- --:--:-- --:--:-- 5287 From sinton@wam-2.localdomain Mon May 10 04:17:37 2021 Return-Path: X-Original-To: sinton Delivered-To: sinton@wam-2.localdomain Received: by wam-2.localdomain (Postfix, from userid 1001) id 70B1A35D59; Mon, 10 May 2021 04:17:37 -0400 (EDT) From: root@wam-2.localdomain (Cron Daemon) To: sinton@wam-2.localdomain Subject: Cron bash -c "sleep $[RANDOM%30]m" ; ~/symlinks/TEAM1F/fcst/startfcstclim.sh 1f > /dev/null MIME-Version: 1.0 Content-Type: text/plain; charset=UTF-8 Content-Transfer-Encoding: 8bit X-Cron-Env: X-Cron-Env: X-Cron-Env: X-Cron-Env: Message-Id: <20210510081737.70B1A35D59@wam-2.localdomain> Date: Mon, 10 May 2021 04:17:37 -0400 (EDT) % Total % Received % Xferd Average Speed Time Time Time Current Dload Upload Total Spent Left Speed 0 0 0 0 0 0 0 0 --:--:-- --:--:-- --:--:-- 0 100 41629 100 41629 0 0 166k 0 --:--:-- --:--:-- --:--:-- 166k From sinton@wam-2.localdomain Mon May 10 04:18:01 2021 Return-Path: X-Original-To: sinton Delivered-To: sinton@wam-2.localdomain Received: by wam-2.localdomain (Postfix, from userid 1001) id A5A94397E4; Mon, 10 May 2021 04:18:01 -0400 (EDT) From: root@wam-2.localdomain (Cron Daemon) To: sinton@wam-2.localdomain Subject: Cron ~/symlinks/TEAM99/ogoakinitchka2.sh 99 0.05 > /dev/null MIME-Version: 1.0 Content-Type: text/plain; charset=UTF-8 Content-Transfer-Encoding: 8bit X-Cron-Env: X-Cron-Env: X-Cron-Env: X-Cron-Env: Message-Id: <20210510081801.A5A94397E4@wam-2.localdomain> Date: Mon, 10 May 2021 04:18:01 -0400 (EDT) /bin/sh: 1: /home/sinton/symlinks/TEAM99/ogoakinitchka2.sh: not found From sinton@wam-2.localdomain Mon May 10 04:18:01 2021 Return-Path: X-Original-To: sinton Delivered-To: sinton@wam-2.localdomain Received: by wam-2.localdomain (Postfix, from userid 1001) id B89FD397F9; Mon, 10 May 2021 04:18:01 -0400 (EDT) From: root@wam-2.localdomain (Cron Daemon) To: sinton@wam-2.localdomain Subject: Cron ~/symlinks/TEAM1F/metin/apiv4.sh 1f > /dev/null MIME-Version: 1.0 Content-Type: text/plain; charset=UTF-8 Content-Transfer-Encoding: 8bit X-Cron-Env: X-Cron-Env: X-Cron-Env: X-Cron-Env: Message-Id: <20210510081801.B89FD397F9@wam-2.localdomain> Date: Mon, 10 May 2021 04:18:01 -0400 (EDT) % Total % Received % Xferd Average Speed Time Time Time Current Dload Upload Total Spent Left Speed 0 0 0 0 0 0 0 0 --:--:-- --:--:-- --:--:-- 0 100 386 100 386 0 0 4195 0 --:--:-- --:--:-- --:--:-- 4195 From sinton@wam-2.localdomain Mon May 10 04:19:01 2021 Return-Path: X-Original-To: sinton Delivered-To: sinton@wam-2.localdomain Received: by wam-2.localdomain (Postfix, from userid 1001) id EF9D939997; Mon, 10 May 2021 04:19:01 -0400 (EDT) From: root@wam-2.localdomain (Cron Daemon) To: sinton@wam-2.localdomain Subject: Cron ~/symlinks/TEAM99/ogoakinitchka2.sh 99 0.05 > /dev/null MIME-Version: 1.0 Content-Type: text/plain; charset=UTF-8 Content-Transfer-Encoding: 8bit X-Cron-Env: X-Cron-Env: X-Cron-Env: X-Cron-Env: Message-Id: <20210510081901.EF9D939997@wam-2.localdomain> Date: Mon, 10 May 2021 04:19:01 -0400 (EDT) /bin/sh: 1: /home/sinton/symlinks/TEAM99/ogoakinitchka2.sh: not found From sinton@wam-2.localdomain Mon May 10 04:19:02 2021 Return-Path: X-Original-To: sinton Delivered-To: sinton@wam-2.localdomain Received: by wam-2.localdomain (Postfix, from userid 1001) id 15FBA39997; Mon, 10 May 2021 04:19:02 -0400 (EDT) From: root@wam-2.localdomain (Cron Daemon) To: sinton@wam-2.localdomain Subject: Cron ~/symlinks/TEAM1F/metin/apiv4.sh 1f > /dev/null MIME-Version: 1.0 Content-Type: text/plain; charset=UTF-8 Content-Transfer-Encoding: 8bit X-Cron-Env: X-Cron-Env: X-Cron-Env: X-Cron-Env: Message-Id: <20210510081902.15FBA39997@wam-2.localdomain> Date: Mon, 10 May 2021 04:19:02 -0400 (EDT) % Total % Received % Xferd Average Speed Time Time Time Current Dload Upload Total Spent Left Speed 0 0 0 0 0 0 0 0 --:--:-- --:--:-- --:--:-- 0 100 386 100 386 0 0 3607 0 --:--:-- --:--:-- --:--:-- 3607 From sinton@wam-2.localdomain Mon May 10 04:20:01 2021 Return-Path: X-Original-To: sinton Delivered-To: sinton@wam-2.localdomain Received: by wam-2.localdomain (Postfix, from userid 1001) id 507833999D; Mon, 10 May 2021 04:20:01 -0400 (EDT) From: root@wam-2.localdomain (Cron Daemon) To: sinton@wam-2.localdomain Subject: Cron ~/symlinks/TEAM99/ogoakinitchka2.sh 99 0.05 > /dev/null MIME-Version: 1.0 Content-Type: text/plain; charset=UTF-8 Content-Transfer-Encoding: 8bit X-Cron-Env: X-Cron-Env: X-Cron-Env: X-Cron-Env: Message-Id: <20210510082001.507833999D@wam-2.localdomain> Date: Mon, 10 May 2021 04:20:01 -0400 (EDT) /bin/sh: 1: /home/sinton/symlinks/TEAM99/ogoakinitchka2.sh: not found From sinton@wam-2.localdomain Mon May 10 04:20:01 2021 Return-Path: X-Original-To: sinton Delivered-To: sinton@wam-2.localdomain Received: by wam-2.localdomain (Postfix, from userid 1001) id 687663999D; Mon, 10 May 2021 04:20:01 -0400 (EDT) From: root@wam-2.localdomain (Cron Daemon) To: sinton@wam-2.localdomain Subject: Cron ~/symlinks/TEAM1F/metin/apiv4.sh 1f > /dev/null MIME-Version: 1.0 Content-Type: text/plain; charset=UTF-8 Content-Transfer-Encoding: 8bit X-Cron-Env: X-Cron-Env: X-Cron-Env: X-Cron-Env: Message-Id: <20210510082001.687663999D@wam-2.localdomain> Date: Mon, 10 May 2021 04:20:01 -0400 (EDT) % Total % Received % Xferd Average Speed Time Time Time Current Dload Upload Total Spent Left Speed 0 0 0 0 0 0 0 0 --:--:-- --:--:-- --:--:-- 0 100 386 100 386 0 0 2718 0 --:--:-- --:--:-- --:--:-- 2718 From sinton@wam-2.localdomain Mon May 10 04:20:14 2021 Return-Path: X-Original-To: sinton Delivered-To: sinton@wam-2.localdomain Received: by wam-2.localdomain (Postfix, from userid 1001) id 78D1A399A8; Mon, 10 May 2021 04:20:14 -0400 (EDT) From: root@wam-2.localdomain (Cron Daemon) To: sinton@wam-2.localdomain Subject: Cron bash -c "sleep $[RANDOM%30]m" ; ~/symlinks/TEAM7/fcst/startfcstclim.sh 7 > /dev/null MIME-Version: 1.0 Content-Type: text/plain; charset=UTF-8 Content-Transfer-Encoding: 8bit X-Cron-Env: X-Cron-Env: X-Cron-Env: X-Cron-Env: Message-Id: <20210510082014.78D1A399A8@wam-2.localdomain> Date: Mon, 10 May 2021 04:20:14 -0400 (EDT) % Total % Received % Xferd Average Speed Time Time Time Current Dload Upload Total Spent Left Speed 0 0 0 0 0 0 0 0 --:--:-- --:--:-- --:--:-- 0 100 41553 100 41553 0 0 181k 0 --:--:-- --:--:-- --:--:-- 181k From sinton@wam-2.localdomain Mon May 10 04:21:01 2021 Return-Path: X-Original-To: sinton Delivered-To: sinton@wam-2.localdomain Received: by wam-2.localdomain (Postfix, from userid 1001) id BD7E43998C; Mon, 10 May 2021 04:21:01 -0400 (EDT) From: root@wam-2.localdomain (Cron Daemon) To: sinton@wam-2.localdomain Subject: Cron ~/symlinks/TEAM99/ogoakinitchka2.sh 99 0.05 > /dev/null MIME-Version: 1.0 Content-Type: text/plain; charset=UTF-8 Content-Transfer-Encoding: 8bit X-Cron-Env: X-Cron-Env: X-Cron-Env: X-Cron-Env: Message-Id: <20210510082101.BD7E43998C@wam-2.localdomain> Date: Mon, 10 May 2021 04:21:01 -0400 (EDT) /bin/sh: 1: /home/sinton/symlinks/TEAM99/ogoakinitchka2.sh: not found From sinton@wam-2.localdomain Mon May 10 04:21:01 2021 Return-Path: X-Original-To: sinton Delivered-To: sinton@wam-2.localdomain Received: by wam-2.localdomain (Postfix, from userid 1001) id CD56E3998C; Mon, 10 May 2021 04:21:01 -0400 (EDT) From: root@wam-2.localdomain (Cron Daemon) To: sinton@wam-2.localdomain Subject: Cron ~/symlinks/TEAM1F/metin/apiv4.sh 1f > /dev/null MIME-Version: 1.0 Content-Type: text/plain; charset=UTF-8 Content-Transfer-Encoding: 8bit X-Cron-Env: X-Cron-Env: X-Cron-Env: X-Cron-Env: Message-Id: <20210510082101.CD56E3998C@wam-2.localdomain> Date: Mon, 10 May 2021 04:21:01 -0400 (EDT) % Total % Received % Xferd Average Speed Time Time Time Current Dload Upload Total Spent Left Speed 0 0 0 0 0 0 0 0 --:--:-- --:--:-- --:--:-- 0 100 386 100 386 0 0 6031 0 --:--:-- --:--:-- --:--:-- 6031 From sinton@wam-2.localdomain Mon May 10 04:22:02 2021 Return-Path: X-Original-To: sinton Delivered-To: sinton@wam-2.localdomain Received: by wam-2.localdomain (Postfix, from userid 1001) id 0BFC538D68; Mon, 10 May 2021 04:22:02 -0400 (EDT) From: root@wam-2.localdomain (Cron Daemon) To: sinton@wam-2.localdomain Subject: Cron ~/symlinks/TEAM99/ogoakinitchka2.sh 99 0.05 > /dev/null MIME-Version: 1.0 Content-Type: text/plain; charset=UTF-8 Content-Transfer-Encoding: 8bit X-Cron-Env: X-Cron-Env: X-Cron-Env: X-Cron-Env: Message-Id: <20210510082202.0BFC538D68@wam-2.localdomain> Date: Mon, 10 May 2021 04:22:02 -0400 (EDT) /bin/sh: 1: /home/sinton/symlinks/TEAM99/ogoakinitchka2.sh: not found From sinton@wam-2.localdomain Mon May 10 04:22:02 2021 Return-Path: X-Original-To: sinton Delivered-To: sinton@wam-2.localdomain Received: by wam-2.localdomain (Postfix, from userid 1001) id 1AC4B38D68; Mon, 10 May 2021 04:22:02 -0400 (EDT) From: root@wam-2.localdomain (Cron Daemon) To: sinton@wam-2.localdomain Subject: Cron ~/symlinks/TEAM1F/metin/apiv4.sh 1f > /dev/null MIME-Version: 1.0 Content-Type: text/plain; charset=UTF-8 Content-Transfer-Encoding: 8bit X-Cron-Env: X-Cron-Env: X-Cron-Env: X-Cron-Env: Message-Id: <20210510082202.1AC4B38D68@wam-2.localdomain> Date: Mon, 10 May 2021 04:22:02 -0400 (EDT) % Total % Received % Xferd Average Speed Time Time Time Current Dload Upload Total Spent Left Speed 0 0 0 0 0 0 0 0 --:--:-- --:--:-- --:--:-- 0 100 386 100 386 0 0 3938 0 --:--:-- --:--:-- --:--:-- 3938 From sinton@wam-2.localdomain Mon May 10 04:23:01 2021 Return-Path: X-Original-To: sinton Delivered-To: sinton@wam-2.localdomain Received: by wam-2.localdomain (Postfix, from userid 1001) id 504A1399A0; Mon, 10 May 2021 04:23:01 -0400 (EDT) From: root@wam-2.localdomain (Cron Daemon) To: sinton@wam-2.localdomain Subject: Cron ~/symlinks/TEAM99/ogoakinitchka2.sh 99 0.05 > /dev/null MIME-Version: 1.0 Content-Type: text/plain; charset=UTF-8 Content-Transfer-Encoding: 8bit X-Cron-Env: X-Cron-Env: X-Cron-Env: X-Cron-Env: Message-Id: <20210510082301.504A1399A0@wam-2.localdomain> Date: Mon, 10 May 2021 04:23:01 -0400 (EDT) /bin/sh: 1: /home/sinton/symlinks/TEAM99/ogoakinitchka2.sh: not found From sinton@wam-2.localdomain Mon May 10 04:23:01 2021 Return-Path: X-Original-To: sinton Delivered-To: sinton@wam-2.localdomain Received: by wam-2.localdomain (Postfix, from userid 1001) id 6A1F439756; Mon, 10 May 2021 04:23:01 -0400 (EDT) From: root@wam-2.localdomain (Cron Daemon) To: sinton@wam-2.localdomain Subject: Cron ~/symlinks/TEAM1F/metin/apiv4.sh 1f > /dev/null MIME-Version: 1.0 Content-Type: text/plain; charset=UTF-8 Content-Transfer-Encoding: 8bit X-Cron-Env: X-Cron-Env: X-Cron-Env: X-Cron-Env: Message-Id: <20210510082301.6A1F439756@wam-2.localdomain> Date: Mon, 10 May 2021 04:23:01 -0400 (EDT) % Total % Received % Xferd Average Speed Time Time Time Current Dload Upload Total Spent Left Speed 0 0 0 0 0 0 0 0 --:--:-- --:--:-- --:--:-- 0 100 386 100 386 0 0 5287 0 --:--:-- --:--:-- --:--:-- 5287 From sinton@wam-2.localdomain Mon May 10 04:24:01 2021 Return-Path: X-Original-To: sinton Delivered-To: sinton@wam-2.localdomain Received: by wam-2.localdomain (Postfix, from userid 1001) id A1148399CA; Mon, 10 May 2021 04:24:01 -0400 (EDT) From: root@wam-2.localdomain (Cron Daemon) To: sinton@wam-2.localdomain Subject: Cron ~/symlinks/TEAM99/ogoakinitchka2.sh 99 0.05 > /dev/null MIME-Version: 1.0 Content-Type: text/plain; charset=UTF-8 Content-Transfer-Encoding: 8bit X-Cron-Env: X-Cron-Env: X-Cron-Env: X-Cron-Env: Message-Id: <20210510082401.A1148399CA@wam-2.localdomain> Date: Mon, 10 May 2021 04:24:01 -0400 (EDT) /bin/sh: 1: /home/sinton/symlinks/TEAM99/ogoakinitchka2.sh: not found From sinton@wam-2.localdomain Mon May 10 04:24:01 2021 Return-Path: X-Original-To: sinton Delivered-To: sinton@wam-2.localdomain Received: by wam-2.localdomain (Postfix, from userid 1001) id B8143399CF; Mon, 10 May 2021 04:24:01 -0400 (EDT) From: root@wam-2.localdomain (Cron Daemon) To: sinton@wam-2.localdomain Subject: Cron ~/symlinks/TEAM1F/metin/apiv4.sh 1f > /dev/null MIME-Version: 1.0 Content-Type: text/plain; charset=UTF-8 Content-Transfer-Encoding: 8bit X-Cron-Env: X-Cron-Env: X-Cron-Env: X-Cron-Env: Message-Id: <20210510082401.B8143399CF@wam-2.localdomain> Date: Mon, 10 May 2021 04:24:01 -0400 (EDT) % Total % Received % Xferd Average Speed Time Time Time Current Dload Upload Total Spent Left Speed 0 0 0 0 0 0 0 0 --:--:-- --:--:-- --:--:-- 0 100 391 100 391 0 0 5750 0 --:--:-- --:--:-- --:--:-- 5750 From sinton@wam-2.localdomain Mon May 10 04:25:01 2021 Return-Path: X-Original-To: sinton Delivered-To: sinton@wam-2.localdomain Received: by wam-2.localdomain (Postfix, from userid 1001) id EA05E399B1; Mon, 10 May 2021 04:25:01 -0400 (EDT) From: root@wam-2.localdomain (Cron Daemon) To: sinton@wam-2.localdomain Subject: Cron ~/symlinks/TEAM99/ogoakinitchka2.sh 99 0.05 > /dev/null MIME-Version: 1.0 Content-Type: text/plain; charset=UTF-8 Content-Transfer-Encoding: 8bit X-Cron-Env: X-Cron-Env: X-Cron-Env: X-Cron-Env: Message-Id: <20210510082501.EA05E399B1@wam-2.localdomain> Date: Mon, 10 May 2021 04:25:01 -0400 (EDT) /bin/sh: 1: /home/sinton/symlinks/TEAM99/ogoakinitchka2.sh: not found From sinton@wam-2.localdomain Mon May 10 04:25:02 2021 Return-Path: X-Original-To: sinton Delivered-To: sinton@wam-2.localdomain Received: by wam-2.localdomain (Postfix, from userid 1001) id 0359B399B1; Mon, 10 May 2021 04:25:02 -0400 (EDT) From: root@wam-2.localdomain (Cron Daemon) To: sinton@wam-2.localdomain Subject: Cron ~/symlinks/TEAM1F/metin/apiv4.sh 1f > /dev/null MIME-Version: 1.0 Content-Type: text/plain; charset=UTF-8 Content-Transfer-Encoding: 8bit X-Cron-Env: X-Cron-Env: X-Cron-Env: X-Cron-Env: Message-Id: <20210510082502.0359B399B1@wam-2.localdomain> Date: Mon, 10 May 2021 04:25:02 -0400 (EDT) % Total % Received % Xferd Average Speed Time Time Time Current Dload Upload Total Spent Left Speed 0 0 0 0 0 0 0 0 --:--:-- --:--:-- --:--:-- 0 100 387 100 387 0 0 4300 0 --:--:-- --:--:-- --:--:-- 4300 From sinton@wam-2.localdomain Mon May 10 04:26:01 2021 Return-Path: X-Original-To: sinton Delivered-To: sinton@wam-2.localdomain Received: by wam-2.localdomain (Postfix, from userid 1001) id 4AF62399AE; Mon, 10 May 2021 04:26:01 -0400 (EDT) From: root@wam-2.localdomain (Cron Daemon) To: sinton@wam-2.localdomain Subject: Cron ~/symlinks/TEAM99/ogoakinitchka2.sh 99 0.05 > /dev/null MIME-Version: 1.0 Content-Type: text/plain; charset=UTF-8 Content-Transfer-Encoding: 8bit X-Cron-Env: X-Cron-Env: X-Cron-Env: X-Cron-Env: Message-Id: <20210510082601.4AF62399AE@wam-2.localdomain> Date: Mon, 10 May 2021 04:26:01 -0400 (EDT) /bin/sh: 1: /home/sinton/symlinks/TEAM99/ogoakinitchka2.sh: not found From sinton@wam-2.localdomain Mon May 10 04:26:01 2021 Return-Path: X-Original-To: sinton Delivered-To: sinton@wam-2.localdomain Received: by wam-2.localdomain (Postfix, from userid 1001) id 5A7E3399BA; Mon, 10 May 2021 04:26:01 -0400 (EDT) From: root@wam-2.localdomain (Cron Daemon) To: sinton@wam-2.localdomain Subject: Cron ~/symlinks/TEAM1F/metin/apiv4.sh 1f > /dev/null MIME-Version: 1.0 Content-Type: text/plain; charset=UTF-8 Content-Transfer-Encoding: 8bit X-Cron-Env: X-Cron-Env: X-Cron-Env: X-Cron-Env: Message-Id: <20210510082601.5A7E3399BA@wam-2.localdomain> Date: Mon, 10 May 2021 04:26:01 -0400 (EDT) % Total % Received % Xferd Average Speed Time Time Time Current Dload Upload Total Spent Left Speed 0 0 0 0 0 0 0 0 --:--:-- --:--:-- --:--:-- 0 100 391 100 391 0 0 6741 0 --:--:-- --:--:-- --:--:-- 6741 From sinton@wam-2.localdomain Mon May 10 04:27:01 2021 Return-Path: X-Original-To: sinton Delivered-To: sinton@wam-2.localdomain Received: by wam-2.localdomain (Postfix, from userid 1001) id 8A87B399B1; Mon, 10 May 2021 04:27:01 -0400 (EDT) From: root@wam-2.localdomain (Cron Daemon) To: sinton@wam-2.localdomain Subject: Cron ~/symlinks/TEAM99/ogoakinitchka2.sh 99 0.05 > /dev/null MIME-Version: 1.0 Content-Type: text/plain; charset=UTF-8 Content-Transfer-Encoding: 8bit X-Cron-Env: X-Cron-Env: X-Cron-Env: X-Cron-Env: Message-Id: <20210510082701.8A87B399B1@wam-2.localdomain> Date: Mon, 10 May 2021 04:27:01 -0400 (EDT) /bin/sh: 1: /home/sinton/symlinks/TEAM99/ogoakinitchka2.sh: not found From sinton@wam-2.localdomain Mon May 10 04:27:01 2021 Return-Path: X-Original-To: sinton Delivered-To: sinton@wam-2.localdomain Received: by wam-2.localdomain (Postfix, from userid 1001) id 9F8C6399B1; Mon, 10 May 2021 04:27:01 -0400 (EDT) From: root@wam-2.localdomain (Cron Daemon) To: sinton@wam-2.localdomain Subject: Cron ~/symlinks/TEAM1F/metin/apiv4.sh 1f > /dev/null MIME-Version: 1.0 Content-Type: text/plain; charset=UTF-8 Content-Transfer-Encoding: 8bit X-Cron-Env: X-Cron-Env: X-Cron-Env: X-Cron-Env: Message-Id: <20210510082701.9F8C6399B1@wam-2.localdomain> Date: Mon, 10 May 2021 04:27:01 -0400 (EDT) % Total % Received % Xferd Average Speed Time Time Time Current Dload Upload Total Spent Left Speed 0 0 0 0 0 0 0 0 --:--:-- --:--:-- --:--:-- 0 100 391 100 391 0 0 3949 0 --:--:-- --:--:-- --:--:-- 3949 From sinton@wam-2.localdomain Mon May 10 04:28:01 2021 Return-Path: X-Original-To: sinton Delivered-To: sinton@wam-2.localdomain Received: by wam-2.localdomain (Postfix, from userid 1001) id D03DA399BA; Mon, 10 May 2021 04:28:01 -0400 (EDT) From: root@wam-2.localdomain (Cron Daemon) To: sinton@wam-2.localdomain Subject: Cron ~/symlinks/TEAM99/ogoakinitchka2.sh 99 0.05 > /dev/null MIME-Version: 1.0 Content-Type: text/plain; charset=UTF-8 Content-Transfer-Encoding: 8bit X-Cron-Env: X-Cron-Env: X-Cron-Env: X-Cron-Env: Message-Id: <20210510082801.D03DA399BA@wam-2.localdomain> Date: Mon, 10 May 2021 04:28:01 -0400 (EDT) /bin/sh: 1: /home/sinton/symlinks/TEAM99/ogoakinitchka2.sh: not found From sinton@wam-2.localdomain Mon May 10 04:28:01 2021 Return-Path: X-Original-To: sinton Delivered-To: sinton@wam-2.localdomain Received: by wam-2.localdomain (Postfix, from userid 1001) id E4D37399C6; Mon, 10 May 2021 04:28:01 -0400 (EDT) From: root@wam-2.localdomain (Cron Daemon) To: sinton@wam-2.localdomain Subject: Cron ~/symlinks/TEAM1F/metin/apiv4.sh 1f > /dev/null MIME-Version: 1.0 Content-Type: text/plain; charset=UTF-8 Content-Transfer-Encoding: 8bit X-Cron-Env: X-Cron-Env: X-Cron-Env: X-Cron-Env: Message-Id: <20210510082801.E4D37399C6@wam-2.localdomain> Date: Mon, 10 May 2021 04:28:01 -0400 (EDT) % Total % Received % Xferd Average Speed Time Time Time Current Dload Upload Total Spent Left Speed 0 0 0 0 0 0 0 0 --:--:-- --:--:-- --:--:-- 0 0 0 0 0 0 0 0 0 --:--:-- --:--:-- --:--:-- 0 100 391 100 391 0 0 5507 0 --:--:-- --:--:-- --:--:-- 5430 From sinton@wam-2.localdomain Mon May 10 04:29:02 2021 Return-Path: X-Original-To: sinton Delivered-To: sinton@wam-2.localdomain Received: by wam-2.localdomain (Postfix, from userid 1001) id 24C4B399B1; Mon, 10 May 2021 04:29:02 -0400 (EDT) From: root@wam-2.localdomain (Cron Daemon) To: sinton@wam-2.localdomain Subject: Cron ~/symlinks/TEAM99/ogoakinitchka2.sh 99 0.05 > /dev/null MIME-Version: 1.0 Content-Type: text/plain; charset=UTF-8 Content-Transfer-Encoding: 8bit X-Cron-Env: X-Cron-Env: X-Cron-Env: X-Cron-Env: Message-Id: <20210510082902.24C4B399B1@wam-2.localdomain> Date: Mon, 10 May 2021 04:29:02 -0400 (EDT) /bin/sh: 1: /home/sinton/symlinks/TEAM99/ogoakinitchka2.sh: not found From sinton@wam-2.localdomain Mon May 10 04:29:02 2021 Return-Path: X-Original-To: sinton Delivered-To: sinton@wam-2.localdomain Received: by wam-2.localdomain (Postfix, from userid 1001) id 3687A399B1; Mon, 10 May 2021 04:29:02 -0400 (EDT) From: root@wam-2.localdomain (Cron Daemon) To: sinton@wam-2.localdomain Subject: Cron ~/symlinks/TEAM1F/metin/apiv4.sh 1f > /dev/null MIME-Version: 1.0 Content-Type: text/plain; charset=UTF-8 Content-Transfer-Encoding: 8bit X-Cron-Env: X-Cron-Env: X-Cron-Env: X-Cron-Env: Message-Id: <20210510082902.3687A399B1@wam-2.localdomain> Date: Mon, 10 May 2021 04:29:02 -0400 (EDT) % Total % Received % Xferd Average Speed Time Time Time Current Dload Upload Total Spent Left Speed 0 0 0 0 0 0 0 0 --:--:-- --:--:-- --:--:-- 0 100 388 100 388 0 0 6466 0 --:--:-- --:--:-- --:--:-- 6576 From sinton@wam-2.localdomain Mon May 10 04:30:01 2021 Return-Path: X-Original-To: sinton Delivered-To: sinton@wam-2.localdomain Received: by wam-2.localdomain (Postfix, from userid 1001) id 6A040399D8; Mon, 10 May 2021 04:30:01 -0400 (EDT) From: root@wam-2.localdomain (Cron Daemon) To: sinton@wam-2.localdomain Subject: Cron ~/symlinks/TEAM99/ogoakinitchka2.sh 99 0.05 > /dev/null MIME-Version: 1.0 Content-Type: text/plain; charset=UTF-8 Content-Transfer-Encoding: 8bit X-Cron-Env: X-Cron-Env: X-Cron-Env: X-Cron-Env: Message-Id: <20210510083001.6A040399D8@wam-2.localdomain> Date: Mon, 10 May 2021 04:30:01 -0400 (EDT) /bin/sh: 1: /home/sinton/symlinks/TEAM99/ogoakinitchka2.sh: not found From sinton@wam-2.localdomain Mon May 10 04:30:01 2021 Return-Path: X-Original-To: sinton Delivered-To: sinton@wam-2.localdomain Received: by wam-2.localdomain (Postfix, from userid 1001) id 7CE00399D8; Mon, 10 May 2021 04:30:01 -0400 (EDT) From: root@wam-2.localdomain (Cron Daemon) To: sinton@wam-2.localdomain Subject: Cron ~/symlinks/TEAM1F/metin/apiv4.sh 1f > /dev/null MIME-Version: 1.0 Content-Type: text/plain; charset=UTF-8 Content-Transfer-Encoding: 8bit X-Cron-Env: X-Cron-Env: X-Cron-Env: X-Cron-Env: Message-Id: <20210510083001.7CE00399D8@wam-2.localdomain> Date: Mon, 10 May 2021 04:30:01 -0400 (EDT) % Total % Received % Xferd Average Speed Time Time Time Current Dload Upload Total Spent Left Speed 0 0 0 0 0 0 0 0 --:--:-- --:--:-- --:--:-- 0 100 385 100 385 0 0 6875 0 --:--:-- --:--:-- --:--:-- 6875 From sinton@wam-2.localdomain Mon May 10 04:31:01 2021 Return-Path: X-Original-To: sinton Delivered-To: sinton@wam-2.localdomain Received: by wam-2.localdomain (Postfix, from userid 1001) id BC99C399B0; Mon, 10 May 2021 04:31:01 -0400 (EDT) From: root@wam-2.localdomain (Cron Daemon) To: sinton@wam-2.localdomain Subject: Cron ~/symlinks/TEAM99/ogoakinitchka2.sh 99 0.05 > /dev/null MIME-Version: 1.0 Content-Type: text/plain; charset=UTF-8 Content-Transfer-Encoding: 8bit X-Cron-Env: X-Cron-Env: X-Cron-Env: X-Cron-Env: Message-Id: <20210510083101.BC99C399B0@wam-2.localdomain> Date: Mon, 10 May 2021 04:31:01 -0400 (EDT) /bin/sh: 1: /home/sinton/symlinks/TEAM99/ogoakinitchka2.sh: not found From sinton@wam-2.localdomain Mon May 10 04:31:01 2021 Return-Path: X-Original-To: sinton Delivered-To: sinton@wam-2.localdomain Received: by wam-2.localdomain (Postfix, from userid 1001) id D7918399B1; Mon, 10 May 2021 04:31:01 -0400 (EDT) From: root@wam-2.localdomain (Cron Daemon) To: sinton@wam-2.localdomain Subject: Cron ~/symlinks/TEAM1F/metin/apiv4.sh 1f > /dev/null MIME-Version: 1.0 Content-Type: text/plain; charset=UTF-8 Content-Transfer-Encoding: 8bit X-Cron-Env: X-Cron-Env: X-Cron-Env: X-Cron-Env: Message-Id: <20210510083101.D7918399B1@wam-2.localdomain> Date: Mon, 10 May 2021 04:31:01 -0400 (EDT) % Total % Received % Xferd Average Speed Time Time Time Current Dload Upload Total Spent Left Speed 0 0 0 0 0 0 0 0 --:--:-- --:--:-- --:--:-- 0 100 386 100 386 0 0 6225 0 --:--:-- --:--:-- --:--:-- 6327 From sinton@wam-2.localdomain Mon May 10 04:32:02 2021 Return-Path: X-Original-To: sinton Delivered-To: sinton@wam-2.localdomain Received: by wam-2.localdomain (Postfix, from userid 1001) id 11E3F399E3; Mon, 10 May 2021 04:32:02 -0400 (EDT) From: root@wam-2.localdomain (Cron Daemon) To: sinton@wam-2.localdomain Subject: Cron ~/symlinks/TEAM99/ogoakinitchka2.sh 99 0.05 > /dev/null MIME-Version: 1.0 Content-Type: text/plain; charset=UTF-8 Content-Transfer-Encoding: 8bit X-Cron-Env: X-Cron-Env: X-Cron-Env: X-Cron-Env: Message-Id: <20210510083202.11E3F399E3@wam-2.localdomain> Date: Mon, 10 May 2021 04:32:02 -0400 (EDT) /bin/sh: 1: /home/sinton/symlinks/TEAM99/ogoakinitchka2.sh: not found From sinton@wam-2.localdomain Mon May 10 04:32:02 2021 Return-Path: X-Original-To: sinton Delivered-To: sinton@wam-2.localdomain Received: by wam-2.localdomain (Postfix, from userid 1001) id 2A1C3399E3; Mon, 10 May 2021 04:32:02 -0400 (EDT) From: root@wam-2.localdomain (Cron Daemon) To: sinton@wam-2.localdomain Subject: Cron ~/symlinks/TEAM1F/metin/apiv4.sh 1f > /dev/null MIME-Version: 1.0 Content-Type: text/plain; charset=UTF-8 Content-Transfer-Encoding: 8bit X-Cron-Env: X-Cron-Env: X-Cron-Env: X-Cron-Env: Message-Id: <20210510083202.2A1C3399E3@wam-2.localdomain> Date: Mon, 10 May 2021 04:32:02 -0400 (EDT) % Total % Received % Xferd Average Speed Time Time Time Current Dload Upload Total Spent Left Speed 0 0 0 0 0 0 0 0 --:--:-- --:--:-- --:--:-- 0 100 386 100 386 0 0 3385 0 --:--:-- --:--:-- --:--:-- 3385 From sinton@wam-2.localdomain Mon May 10 04:33:01 2021 Return-Path: X-Original-To: sinton Delivered-To: sinton@wam-2.localdomain Received: by wam-2.localdomain (Postfix, from userid 1001) id 5E922399E9; Mon, 10 May 2021 04:33:01 -0400 (EDT) From: root@wam-2.localdomain (Cron Daemon) To: sinton@wam-2.localdomain Subject: Cron ~/symlinks/TEAM99/ogoakinitchka2.sh 99 0.05 > /dev/null MIME-Version: 1.0 Content-Type: text/plain; charset=UTF-8 Content-Transfer-Encoding: 8bit X-Cron-Env: X-Cron-Env: X-Cron-Env: X-Cron-Env: Message-Id: <20210510083301.5E922399E9@wam-2.localdomain> Date: Mon, 10 May 2021 04:33:01 -0400 (EDT) /bin/sh: 1: /home/sinton/symlinks/TEAM99/ogoakinitchka2.sh: not found From sinton@wam-2.localdomain Mon May 10 04:33:01 2021 Return-Path: X-Original-To: sinton Delivered-To: sinton@wam-2.localdomain Received: by wam-2.localdomain (Postfix, from userid 1001) id 7126B399E9; Mon, 10 May 2021 04:33:01 -0400 (EDT) From: root@wam-2.localdomain (Cron Daemon) To: sinton@wam-2.localdomain Subject: Cron ~/symlinks/TEAM1F/metin/apiv4.sh 1f > /dev/null MIME-Version: 1.0 Content-Type: text/plain; charset=UTF-8 Content-Transfer-Encoding: 8bit X-Cron-Env: X-Cron-Env: X-Cron-Env: X-Cron-Env: Message-Id: <20210510083301.7126B399E9@wam-2.localdomain> Date: Mon, 10 May 2021 04:33:01 -0400 (EDT) % Total % Received % Xferd Average Speed Time Time Time Current Dload Upload Total Spent Left Speed 0 0 0 0 0 0 0 0 --:--:-- --:--:-- --:--:-- 0 100 383 100 383 0 0 5471 0 --:--:-- --:--:-- --:--:-- 5471 From sinton@wam-2.localdomain Mon May 10 04:34:01 2021 Return-Path: X-Original-To: sinton Delivered-To: sinton@wam-2.localdomain Received: by wam-2.localdomain (Postfix, from userid 1001) id A595C399C2; Mon, 10 May 2021 04:34:01 -0400 (EDT) From: root@wam-2.localdomain (Cron Daemon) To: sinton@wam-2.localdomain Subject: Cron ~/symlinks/TEAM99/ogoakinitchka2.sh 99 0.05 > /dev/null MIME-Version: 1.0 Content-Type: text/plain; charset=UTF-8 Content-Transfer-Encoding: 8bit X-Cron-Env: X-Cron-Env: X-Cron-Env: X-Cron-Env: Message-Id: <20210510083401.A595C399C2@wam-2.localdomain> Date: Mon, 10 May 2021 04:34:01 -0400 (EDT) /bin/sh: 1: /home/sinton/symlinks/TEAM99/ogoakinitchka2.sh: not found From sinton@wam-2.localdomain Mon May 10 04:34:01 2021 Return-Path: X-Original-To: sinton Delivered-To: sinton@wam-2.localdomain Received: by wam-2.localdomain (Postfix, from userid 1001) id BAAFA399C2; Mon, 10 May 2021 04:34:01 -0400 (EDT) From: root@wam-2.localdomain (Cron Daemon) To: sinton@wam-2.localdomain Subject: Cron ~/symlinks/TEAM1F/metin/apiv4.sh 1f > /dev/null MIME-Version: 1.0 Content-Type: text/plain; charset=UTF-8 Content-Transfer-Encoding: 8bit X-Cron-Env: X-Cron-Env: X-Cron-Env: X-Cron-Env: Message-Id: <20210510083401.BAAFA399C2@wam-2.localdomain> Date: Mon, 10 May 2021 04:34:01 -0400 (EDT) % Total % Received % Xferd Average Speed Time Time Time Current Dload Upload Total Spent Left Speed 0 0 0 0 0 0 0 0 --:--:-- --:--:-- --:--:-- 0 100 386 100 386 0 0 4595 0 --:--:-- --:--:-- --:--:-- 4595 From sinton@wam-2.localdomain Mon May 10 04:35:01 2021 Return-Path: X-Original-To: sinton Delivered-To: sinton@wam-2.localdomain Received: by wam-2.localdomain (Postfix, from userid 1001) id EF6BF399E9; Mon, 10 May 2021 04:35:01 -0400 (EDT) From: root@wam-2.localdomain (Cron Daemon) To: sinton@wam-2.localdomain Subject: Cron ~/symlinks/TEAM99/ogoakinitchka2.sh 99 0.05 > /dev/null MIME-Version: 1.0 Content-Type: text/plain; charset=UTF-8 Content-Transfer-Encoding: 8bit X-Cron-Env: X-Cron-Env: X-Cron-Env: X-Cron-Env: Message-Id: <20210510083501.EF6BF399E9@wam-2.localdomain> Date: Mon, 10 May 2021 04:35:01 -0400 (EDT) /bin/sh: 1: /home/sinton/symlinks/TEAM99/ogoakinitchka2.sh: not found From sinton@wam-2.localdomain Mon May 10 04:35:02 2021 Return-Path: X-Original-To: sinton Delivered-To: sinton@wam-2.localdomain Received: by wam-2.localdomain (Postfix, from userid 1001) id 14442399CF; Mon, 10 May 2021 04:35:02 -0400 (EDT) From: root@wam-2.localdomain (Cron Daemon) To: sinton@wam-2.localdomain Subject: Cron ~/symlinks/TEAM1F/metin/apiv4.sh 1f > /dev/null MIME-Version: 1.0 Content-Type: text/plain; charset=UTF-8 Content-Transfer-Encoding: 8bit X-Cron-Env: X-Cron-Env: X-Cron-Env: X-Cron-Env: Message-Id: <20210510083502.14442399CF@wam-2.localdomain> Date: Mon, 10 May 2021 04:35:02 -0400 (EDT) % Total % Received % Xferd Average Speed Time Time Time Current Dload Upload Total Spent Left Speed 0 0 0 0 0 0 0 0 --:--:-- --:--:-- --:--:-- 0 100 386 100 386 0 0 7283 0 --:--:-- --:--:-- --:--:-- 7283 From sinton@wam-2.localdomain Mon May 10 04:36:01 2021 Return-Path: X-Original-To: sinton Delivered-To: sinton@wam-2.localdomain Received: by wam-2.localdomain (Postfix, from userid 1001) id 53F3739A12; Mon, 10 May 2021 04:36:01 -0400 (EDT) From: root@wam-2.localdomain (Cron Daemon) To: sinton@wam-2.localdomain Subject: Cron ~/symlinks/TEAM99/ogoakinitchka2.sh 99 0.05 > /dev/null MIME-Version: 1.0 Content-Type: text/plain; charset=UTF-8 Content-Transfer-Encoding: 8bit X-Cron-Env: X-Cron-Env: X-Cron-Env: X-Cron-Env: Message-Id: <20210510083601.53F3739A12@wam-2.localdomain> Date: Mon, 10 May 2021 04:36:01 -0400 (EDT) /bin/sh: 1: /home/sinton/symlinks/TEAM99/ogoakinitchka2.sh: not found From sinton@wam-2.localdomain Mon May 10 04:36:01 2021 Return-Path: X-Original-To: sinton Delivered-To: sinton@wam-2.localdomain Received: by wam-2.localdomain (Postfix, from userid 1001) id 7143339A12; Mon, 10 May 2021 04:36:01 -0400 (EDT) From: root@wam-2.localdomain (Cron Daemon) To: sinton@wam-2.localdomain Subject: Cron ~/symlinks/TEAM1F/metin/apiv4.sh 1f > /dev/null MIME-Version: 1.0 Content-Type: text/plain; charset=UTF-8 Content-Transfer-Encoding: 8bit X-Cron-Env: X-Cron-Env: X-Cron-Env: X-Cron-Env: Message-Id: <20210510083601.7143339A12@wam-2.localdomain> Date: Mon, 10 May 2021 04:36:01 -0400 (EDT) % Total % Received % Xferd Average Speed Time Time Time Current Dload Upload Total Spent Left Speed 0 0 0 0 0 0 0 0 --:--:-- --:--:-- --:--:-- 0 100 385 100 385 0 0 5923 0 --:--:-- --:--:-- --:--:-- 5923 From sinton@wam-2.localdomain Mon May 10 04:37:01 2021 Return-Path: X-Original-To: sinton Delivered-To: sinton@wam-2.localdomain Received: by wam-2.localdomain (Postfix, from userid 1001) id A56CE39A00; Mon, 10 May 2021 04:37:01 -0400 (EDT) From: root@wam-2.localdomain (Cron Daemon) To: sinton@wam-2.localdomain Subject: Cron ~/symlinks/TEAM99/ogoakinitchka2.sh 99 0.05 > /dev/null MIME-Version: 1.0 Content-Type: text/plain; charset=UTF-8 Content-Transfer-Encoding: 8bit X-Cron-Env: X-Cron-Env: X-Cron-Env: X-Cron-Env: Message-Id: <20210510083701.A56CE39A00@wam-2.localdomain> Date: Mon, 10 May 2021 04:37:01 -0400 (EDT) /bin/sh: 1: /home/sinton/symlinks/TEAM99/ogoakinitchka2.sh: not found From sinton@wam-2.localdomain Mon May 10 04:37:01 2021 Return-Path: X-Original-To: sinton Delivered-To: sinton@wam-2.localdomain Received: by wam-2.localdomain (Postfix, from userid 1001) id BB24039A00; Mon, 10 May 2021 04:37:01 -0400 (EDT) From: root@wam-2.localdomain (Cron Daemon) To: sinton@wam-2.localdomain Subject: Cron ~/symlinks/TEAM1F/metin/apiv4.sh 1f > /dev/null MIME-Version: 1.0 Content-Type: text/plain; charset=UTF-8 Content-Transfer-Encoding: 8bit X-Cron-Env: X-Cron-Env: X-Cron-Env: X-Cron-Env: Message-Id: <20210510083701.BB24039A00@wam-2.localdomain> Date: Mon, 10 May 2021 04:37:01 -0400 (EDT) % Total % Received % Xferd Average Speed Time Time Time Current Dload Upload Total Spent Left Speed 0 0 0 0 0 0 0 0 --:--:-- --:--:-- --:--:-- 0 100 384 100 384 0 0 4517 0 --:--:-- --:--:-- --:--:-- 4517 From sinton@wam-2.localdomain Mon May 10 04:38:01 2021 Return-Path: X-Original-To: sinton Delivered-To: sinton@wam-2.localdomain Received: by wam-2.localdomain (Postfix, from userid 1001) id EF2A239A0A; Mon, 10 May 2021 04:38:01 -0400 (EDT) From: root@wam-2.localdomain (Cron Daemon) To: sinton@wam-2.localdomain Subject: Cron ~/symlinks/TEAM99/ogoakinitchka2.sh 99 0.05 > /dev/null MIME-Version: 1.0 Content-Type: text/plain; charset=UTF-8 Content-Transfer-Encoding: 8bit X-Cron-Env: X-Cron-Env: X-Cron-Env: X-Cron-Env: Message-Id: <20210510083801.EF2A239A0A@wam-2.localdomain> Date: Mon, 10 May 2021 04:38:01 -0400 (EDT) /bin/sh: 1: /home/sinton/symlinks/TEAM99/ogoakinitchka2.sh: not found From sinton@wam-2.localdomain Mon May 10 04:38:02 2021 Return-Path: X-Original-To: sinton Delivered-To: sinton@wam-2.localdomain Received: by wam-2.localdomain (Postfix, from userid 1001) id 1387C39A0A; Mon, 10 May 2021 04:38:02 -0400 (EDT) From: root@wam-2.localdomain (Cron Daemon) To: sinton@wam-2.localdomain Subject: Cron ~/symlinks/TEAM1F/metin/apiv4.sh 1f > /dev/null MIME-Version: 1.0 Content-Type: text/plain; charset=UTF-8 Content-Transfer-Encoding: 8bit X-Cron-Env: X-Cron-Env: X-Cron-Env: X-Cron-Env: Message-Id: <20210510083802.1387C39A0A@wam-2.localdomain> Date: Mon, 10 May 2021 04:38:02 -0400 (EDT) % Total % Received % Xferd Average Speed Time Time Time Current Dload Upload Total Spent Left Speed 0 0 0 0 0 0 0 0 --:--:-- --:--:-- --:--:-- 0 100 384 100 384 0 0 4571 0 --:--:-- --:--:-- --:--:-- 4571 From sinton@wam-2.localdomain Mon May 10 04:39:01 2021 Return-Path: X-Original-To: sinton Delivered-To: sinton@wam-2.localdomain Received: by wam-2.localdomain (Postfix, from userid 1001) id 478CE39A00; Mon, 10 May 2021 04:39:01 -0400 (EDT) From: root@wam-2.localdomain (Cron Daemon) To: sinton@wam-2.localdomain Subject: Cron ~/symlinks/TEAM99/ogoakinitchka2.sh 99 0.05 > /dev/null MIME-Version: 1.0 Content-Type: text/plain; charset=UTF-8 Content-Transfer-Encoding: 8bit X-Cron-Env: X-Cron-Env: X-Cron-Env: X-Cron-Env: Message-Id: <20210510083901.478CE39A00@wam-2.localdomain> Date: Mon, 10 May 2021 04:39:01 -0400 (EDT) /bin/sh: 1: /home/sinton/symlinks/TEAM99/ogoakinitchka2.sh: not found From sinton@wam-2.localdomain Mon May 10 04:39:01 2021 Return-Path: X-Original-To: sinton Delivered-To: sinton@wam-2.localdomain Received: by wam-2.localdomain (Postfix, from userid 1001) id 5ECE139A00; Mon, 10 May 2021 04:39:01 -0400 (EDT) From: root@wam-2.localdomain (Cron Daemon) To: sinton@wam-2.localdomain Subject: Cron ~/symlinks/TEAM1F/metin/apiv4.sh 1f > /dev/null MIME-Version: 1.0 Content-Type: text/plain; charset=UTF-8 Content-Transfer-Encoding: 8bit X-Cron-Env: X-Cron-Env: X-Cron-Env: X-Cron-Env: Message-Id: <20210510083901.5ECE139A00@wam-2.localdomain> Date: Mon, 10 May 2021 04:39:01 -0400 (EDT) % Total % Received % Xferd Average Speed Time Time Time Current Dload Upload Total Spent Left Speed 0 0 0 0 0 0 0 0 --:--:-- --:--:-- --:--:-- 0 100 385 100 385 0 0 4873 0 --:--:-- --:--:-- --:--:-- 4873 From sinton@wam-2.localdomain Mon May 10 04:40:02 2021 Return-Path: X-Original-To: sinton Delivered-To: sinton@wam-2.localdomain Received: by wam-2.localdomain (Postfix, from userid 1001) id 116B739A0C; Mon, 10 May 2021 04:40:02 -0400 (EDT) From: root@wam-2.localdomain (Cron Daemon) To: sinton@wam-2.localdomain Subject: Cron ~/symlinks/TEAM99/ogoakinitchka2.sh 99 0.05 > /dev/null MIME-Version: 1.0 Content-Type: text/plain; charset=UTF-8 Content-Transfer-Encoding: 8bit X-Cron-Env: X-Cron-Env: X-Cron-Env: X-Cron-Env: Message-Id: <20210510084002.116B739A0C@wam-2.localdomain> Date: Mon, 10 May 2021 04:40:02 -0400 (EDT) /bin/sh: 1: /home/sinton/symlinks/TEAM99/ogoakinitchka2.sh: not found From sinton@wam-2.localdomain Mon May 10 04:40:02 2021 Return-Path: X-Original-To: sinton Delivered-To: sinton@wam-2.localdomain Received: by wam-2.localdomain (Postfix, from userid 1001) id 226FB39A0C; Mon, 10 May 2021 04:40:02 -0400 (EDT) From: root@wam-2.localdomain (Cron Daemon) To: sinton@wam-2.localdomain Subject: Cron ~/symlinks/TEAM1F/metin/apiv4.sh 1f > /dev/null MIME-Version: 1.0 Content-Type: text/plain; charset=UTF-8 Content-Transfer-Encoding: 8bit X-Cron-Env: X-Cron-Env: X-Cron-Env: X-Cron-Env: Message-Id: <20210510084002.226FB39A0C@wam-2.localdomain> Date: Mon, 10 May 2021 04:40:02 -0400 (EDT) % Total % Received % Xferd Average Speed Time Time Time Current Dload Upload Total Spent Left Speed 0 0 0 0 0 0 0 0 --:--:-- --:--:-- --:--:-- 0 100 385 100 385 0 0 5422 0 --:--:-- --:--:-- --:--:-- 5422 From sinton@wam-2.localdomain Mon May 10 04:41:01 2021 Return-Path: X-Original-To: sinton Delivered-To: sinton@wam-2.localdomain Received: by wam-2.localdomain (Postfix, from userid 1001) id 6298239A00; Mon, 10 May 2021 04:41:01 -0400 (EDT) From: root@wam-2.localdomain (Cron Daemon) To: sinton@wam-2.localdomain Subject: Cron ~/symlinks/TEAM99/ogoakinitchka2.sh 99 0.05 > /dev/null MIME-Version: 1.0 Content-Type: text/plain; charset=UTF-8 Content-Transfer-Encoding: 8bit X-Cron-Env: X-Cron-Env: X-Cron-Env: X-Cron-Env: Message-Id: <20210510084101.6298239A00@wam-2.localdomain> Date: Mon, 10 May 2021 04:41:01 -0400 (EDT) /bin/sh: 1: /home/sinton/symlinks/TEAM99/ogoakinitchka2.sh: not found From sinton@wam-2.localdomain Mon May 10 04:41:01 2021 Return-Path: X-Original-To: sinton Delivered-To: sinton@wam-2.localdomain Received: by wam-2.localdomain (Postfix, from userid 1001) id 7A79D39A00; Mon, 10 May 2021 04:41:01 -0400 (EDT) From: root@wam-2.localdomain (Cron Daemon) To: sinton@wam-2.localdomain Subject: Cron ~/symlinks/TEAM1F/metin/apiv4.sh 1f > /dev/null MIME-Version: 1.0 Content-Type: text/plain; charset=UTF-8 Content-Transfer-Encoding: 8bit X-Cron-Env: X-Cron-Env: X-Cron-Env: X-Cron-Env: Message-Id: <20210510084101.7A79D39A00@wam-2.localdomain> Date: Mon, 10 May 2021 04:41:01 -0400 (EDT) % Total % Received % Xferd Average Speed Time Time Time Current Dload Upload Total Spent Left Speed 0 0 0 0 0 0 0 0 --:--:-- --:--:-- --:--:-- 0 100 385 100 385 0 0 5923 0 --:--:-- --:--:-- --:--:-- 5923 From sinton@wam-2.localdomain Mon May 10 04:41:21 2021 Return-Path: X-Original-To: sinton Delivered-To: sinton@wam-2.localdomain Received: by wam-2.localdomain (Postfix, from userid 1001) id E204A39A16; Mon, 10 May 2021 04:41:21 -0400 (EDT) From: root@wam-2.localdomain (Cron Daemon) To: sinton@wam-2.localdomain Subject: Cron bash -c "sleep $[RANDOM%14]m" ; ~/symlinks/TEAM1/fcst/startfcst.pl 1 > /dev/null MIME-Version: 1.0 Content-Type: text/plain; charset=UTF-8 Content-Transfer-Encoding: 8bit X-Cron-Env: X-Cron-Env: X-Cron-Env: X-Cron-Env: Message-Id: <20210510084121.E204A39A16@wam-2.localdomain> Date: Mon, 10 May 2021 04:41:21 -0400 (EDT) # CSV_XS ERROR: 2034 - EIF - Loose unescaped quote @ rec 0 pos 29 field 1 From sinton@wam-2.localdomain Mon May 10 04:42:02 2021 Return-Path: X-Original-To: sinton Delivered-To: sinton@wam-2.localdomain Received: by wam-2.localdomain (Postfix, from userid 1001) id 1F93A39A1C; Mon, 10 May 2021 04:42:02 -0400 (EDT) From: root@wam-2.localdomain (Cron Daemon) To: sinton@wam-2.localdomain Subject: Cron ~/symlinks/TEAM99/ogoakinitchka2.sh 99 0.05 > /dev/null MIME-Version: 1.0 Content-Type: text/plain; charset=UTF-8 Content-Transfer-Encoding: 8bit X-Cron-Env: X-Cron-Env: X-Cron-Env: X-Cron-Env: Message-Id: <20210510084202.1F93A39A1C@wam-2.localdomain> Date: Mon, 10 May 2021 04:42:02 -0400 (EDT) /bin/sh: 1: /home/sinton/symlinks/TEAM99/ogoakinitchka2.sh: not found From sinton@wam-2.localdomain Mon May 10 04:42:02 2021 Return-Path: X-Original-To: sinton Delivered-To: sinton@wam-2.localdomain Received: by wam-2.localdomain (Postfix, from userid 1001) id 3DD4D39A1C; Mon, 10 May 2021 04:42:02 -0400 (EDT) From: root@wam-2.localdomain (Cron Daemon) To: sinton@wam-2.localdomain Subject: Cron ~/symlinks/TEAM1F/metin/apiv4.sh 1f > /dev/null MIME-Version: 1.0 Content-Type: text/plain; charset=UTF-8 Content-Transfer-Encoding: 8bit X-Cron-Env: X-Cron-Env: X-Cron-Env: X-Cron-Env: Message-Id: <20210510084202.3DD4D39A1C@wam-2.localdomain> Date: Mon, 10 May 2021 04:42:02 -0400 (EDT) % Total % Received % Xferd Average Speed Time Time Time Current Dload Upload Total Spent Left Speed 0 0 0 0 0 0 0 0 --:--:-- --:--:-- --:--:-- 0 100 385 100 385 0 0 6209 0 --:--:-- --:--:-- --:--:-- 6209 From sinton@wam-2.localdomain Mon May 10 04:43:01 2021 Return-Path: X-Original-To: sinton Delivered-To: sinton@wam-2.localdomain Received: by wam-2.localdomain (Postfix, from userid 1001) id 6F19D39A32; Mon, 10 May 2021 04:43:01 -0400 (EDT) From: root@wam-2.localdomain (Cron Daemon) To: sinton@wam-2.localdomain Subject: Cron ~/symlinks/TEAM99/ogoakinitchka2.sh 99 0.05 > /dev/null MIME-Version: 1.0 Content-Type: text/plain; charset=UTF-8 Content-Transfer-Encoding: 8bit X-Cron-Env: X-Cron-Env: X-Cron-Env: X-Cron-Env: Message-Id: <20210510084301.6F19D39A32@wam-2.localdomain> Date: Mon, 10 May 2021 04:43:01 -0400 (EDT) /bin/sh: 1: /home/sinton/symlinks/TEAM99/ogoakinitchka2.sh: not found From sinton@wam-2.localdomain Mon May 10 04:43:01 2021 Return-Path: X-Original-To: sinton Delivered-To: sinton@wam-2.localdomain Received: by wam-2.localdomain (Postfix, from userid 1001) id 86A2039A32; Mon, 10 May 2021 04:43:01 -0400 (EDT) From: root@wam-2.localdomain (Cron Daemon) To: sinton@wam-2.localdomain Subject: Cron ~/symlinks/TEAM1F/metin/apiv4.sh 1f > /dev/null MIME-Version: 1.0 Content-Type: text/plain; charset=UTF-8 Content-Transfer-Encoding: 8bit X-Cron-Env: X-Cron-Env: X-Cron-Env: X-Cron-Env: Message-Id: <20210510084301.86A2039A32@wam-2.localdomain> Date: Mon, 10 May 2021 04:43:01 -0400 (EDT) % Total % Received % Xferd Average Speed Time Time Time Current Dload Upload Total Spent Left Speed 0 0 0 0 0 0 0 0 --:--:-- --:--:-- --:--:-- 0 100 385 100 385 0 0 5746 0 --:--:-- --:--:-- --:--:-- 5746 From sinton@wam-2.localdomain Mon May 10 04:43:19 2021 Return-Path: X-Original-To: sinton Delivered-To: sinton@wam-2.localdomain Received: by wam-2.localdomain (Postfix, from userid 1001) id 976C739A34; Mon, 10 May 2021 04:43:19 -0400 (EDT) From: root@wam-2.localdomain (Cron Daemon) To: sinton@wam-2.localdomain Subject: Cron bash -c "sleep $[RANDOM%14]m" ; ~/symlinks/TEAM2/fcst/startfcst.pl 2 > /dev/null MIME-Version: 1.0 Content-Type: text/plain; charset=UTF-8 Content-Transfer-Encoding: 8bit X-Cron-Env: X-Cron-Env: X-Cron-Env: X-Cron-Env: Message-Id: <20210510084319.976C739A34@wam-2.localdomain> Date: Mon, 10 May 2021 04:43:19 -0400 (EDT) # CSV_XS ERROR: 2034 - EIF - Loose unescaped quote @ rec 0 pos 29 field 1 From sinton@wam-2.localdomain Mon May 10 04:44:01 2021 Return-Path: X-Original-To: sinton Delivered-To: sinton@wam-2.localdomain Received: by wam-2.localdomain (Postfix, from userid 1001) id CD79239A1F; Mon, 10 May 2021 04:44:01 -0400 (EDT) From: root@wam-2.localdomain (Cron Daemon) To: sinton@wam-2.localdomain Subject: Cron ~/symlinks/TEAM99/ogoakinitchka2.sh 99 0.05 > /dev/null MIME-Version: 1.0 Content-Type: text/plain; charset=UTF-8 Content-Transfer-Encoding: 8bit X-Cron-Env: X-Cron-Env: X-Cron-Env: X-Cron-Env: Message-Id: <20210510084401.CD79239A1F@wam-2.localdomain> Date: Mon, 10 May 2021 04:44:01 -0400 (EDT) /bin/sh: 1: /home/sinton/symlinks/TEAM99/ogoakinitchka2.sh: not found From sinton@wam-2.localdomain Mon May 10 04:44:01 2021 Return-Path: X-Original-To: sinton Delivered-To: sinton@wam-2.localdomain Received: by wam-2.localdomain (Postfix, from userid 1001) id E5ED939A1F; Mon, 10 May 2021 04:44:01 -0400 (EDT) From: root@wam-2.localdomain (Cron Daemon) To: sinton@wam-2.localdomain Subject: Cron ~/symlinks/TEAM1F/metin/apiv4.sh 1f > /dev/null MIME-Version: 1.0 Content-Type: text/plain; charset=UTF-8 Content-Transfer-Encoding: 8bit X-Cron-Env: X-Cron-Env: X-Cron-Env: X-Cron-Env: Message-Id: <20210510084401.E5ED939A1F@wam-2.localdomain> Date: Mon, 10 May 2021 04:44:01 -0400 (EDT) % Total % Received % Xferd Average Speed Time Time Time Current Dload Upload Total Spent Left Speed 0 0 0 0 0 0 0 0 --:--:-- --:--:-- --:--:-- 0 0 0 0 0 0 0 0 0 --:--:-- --:--:-- --:--:-- 0 100 385 100 385 0 0 5065 0 --:--:-- --:--:-- --:--:-- 5000 From sinton@wam-2.localdomain Mon May 10 04:45:02 2021 Return-Path: X-Original-To: sinton Delivered-To: sinton@wam-2.localdomain Received: by wam-2.localdomain (Postfix, from userid 1001) id 2236339A34; Mon, 10 May 2021 04:45:02 -0400 (EDT) From: root@wam-2.localdomain (Cron Daemon) To: sinton@wam-2.localdomain Subject: Cron ~/symlinks/TEAM99/ogoakinitchka2.sh 99 0.05 > /dev/null MIME-Version: 1.0 Content-Type: text/plain; charset=UTF-8 Content-Transfer-Encoding: 8bit X-Cron-Env: X-Cron-Env: X-Cron-Env: X-Cron-Env: Message-Id: <20210510084502.2236339A34@wam-2.localdomain> Date: Mon, 10 May 2021 04:45:02 -0400 (EDT) /bin/sh: 1: /home/sinton/symlinks/TEAM99/ogoakinitchka2.sh: not found From sinton@wam-2.localdomain Mon May 10 04:45:02 2021 Return-Path: X-Original-To: sinton Delivered-To: sinton@wam-2.localdomain Received: by wam-2.localdomain (Postfix, from userid 1001) id 392CB39A34; Mon, 10 May 2021 04:45:02 -0400 (EDT) From: root@wam-2.localdomain (Cron Daemon) To: sinton@wam-2.localdomain Subject: Cron ~/symlinks/TEAM1F/metin/apiv4.sh 1f > /dev/null MIME-Version: 1.0 Content-Type: text/plain; charset=UTF-8 Content-Transfer-Encoding: 8bit X-Cron-Env: X-Cron-Env: X-Cron-Env: X-Cron-Env: Message-Id: <20210510084502.392CB39A34@wam-2.localdomain> Date: Mon, 10 May 2021 04:45:02 -0400 (EDT) % Total % Received % Xferd Average Speed Time Time Time Current Dload Upload Total Spent Left Speed 0 0 0 0 0 0 0 0 --:--:-- --:--:-- --:--:-- 0 100 385 100 385 0 0 5273 0 --:--:-- --:--:-- --:--:-- 5273 From sinton@wam-2.localdomain Mon May 10 04:46:01 2021 Return-Path: X-Original-To: sinton Delivered-To: sinton@wam-2.localdomain Received: by wam-2.localdomain (Postfix, from userid 1001) id 7FE8739A14; Mon, 10 May 2021 04:46:01 -0400 (EDT) From: root@wam-2.localdomain (Cron Daemon) To: sinton@wam-2.localdomain Subject: Cron ~/symlinks/TEAM99/ogoakinitchka2.sh 99 0.05 > /dev/null MIME-Version: 1.0 Content-Type: text/plain; charset=UTF-8 Content-Transfer-Encoding: 8bit X-Cron-Env: X-Cron-Env: X-Cron-Env: X-Cron-Env: Message-Id: <20210510084601.7FE8739A14@wam-2.localdomain> Date: Mon, 10 May 2021 04:46:01 -0400 (EDT) /bin/sh: 1: /home/sinton/symlinks/TEAM99/ogoakinitchka2.sh: not found From sinton@wam-2.localdomain Mon May 10 04:46:01 2021 Return-Path: X-Original-To: sinton Delivered-To: sinton@wam-2.localdomain Received: by wam-2.localdomain (Postfix, from userid 1001) id ADB4639A39; Mon, 10 May 2021 04:46:01 -0400 (EDT) From: root@wam-2.localdomain (Cron Daemon) To: sinton@wam-2.localdomain Subject: Cron ~/symlinks/TEAM1F/metin/apiv4.sh 1f > /dev/null MIME-Version: 1.0 Content-Type: text/plain; charset=UTF-8 Content-Transfer-Encoding: 8bit X-Cron-Env: X-Cron-Env: X-Cron-Env: X-Cron-Env: Message-Id: <20210510084601.ADB4639A39@wam-2.localdomain> Date: Mon, 10 May 2021 04:46:01 -0400 (EDT) % Total % Received % Xferd Average Speed Time Time Time Current Dload Upload Total Spent Left Speed 0 0 0 0 0 0 0 0 --:--:-- --:--:-- --:--:-- 0 100 384 100 384 0 0 2299 0 --:--:-- --:--:-- --:--:-- 2299 From sinton@wam-2.localdomain Mon May 10 04:46:14 2021 Return-Path: X-Original-To: sinton Delivered-To: sinton@wam-2.localdomain Received: by wam-2.localdomain (Postfix, from userid 1001) id 5AF2F39A39; Mon, 10 May 2021 04:46:14 -0400 (EDT) From: root@wam-2.localdomain (Cron Daemon) To: sinton@wam-2.localdomain Subject: Cron bash -c "sleep $[RANDOM%14]m" ; ~/symlinks/TEAM8/fcst/startfcst.pl 8 > /dev/null MIME-Version: 1.0 Content-Type: text/plain; charset=UTF-8 Content-Transfer-Encoding: 8bit X-Cron-Env: X-Cron-Env: X-Cron-Env: X-Cron-Env: Message-Id: <20210510084614.5AF2F39A39@wam-2.localdomain> Date: Mon, 10 May 2021 04:46:14 -0400 (EDT) # CSV_XS ERROR: 2034 - EIF - Loose unescaped quote @ rec 0 pos 29 field 1 From sinton@wam-2.localdomain Mon May 10 04:47:01 2021 Return-Path: X-Original-To: sinton Delivered-To: sinton@wam-2.localdomain Received: by wam-2.localdomain (Postfix, from userid 1001) id 8B1F0399EB; Mon, 10 May 2021 04:47:01 -0400 (EDT) From: root@wam-2.localdomain (Cron Daemon) To: sinton@wam-2.localdomain Subject: Cron ~/symlinks/TEAM99/ogoakinitchka2.sh 99 0.05 > /dev/null MIME-Version: 1.0 Content-Type: text/plain; charset=UTF-8 Content-Transfer-Encoding: 8bit X-Cron-Env: X-Cron-Env: X-Cron-Env: X-Cron-Env: Message-Id: <20210510084701.8B1F0399EB@wam-2.localdomain> Date: Mon, 10 May 2021 04:47:01 -0400 (EDT) /bin/sh: 1: /home/sinton/symlinks/TEAM99/ogoakinitchka2.sh: not found From sinton@wam-2.localdomain Mon May 10 04:47:01 2021 Return-Path: X-Original-To: sinton Delivered-To: sinton@wam-2.localdomain Received: by wam-2.localdomain (Postfix, from userid 1001) id A0A8C399EB; Mon, 10 May 2021 04:47:01 -0400 (EDT) From: root@wam-2.localdomain (Cron Daemon) To: sinton@wam-2.localdomain Subject: Cron ~/symlinks/TEAM1F/metin/apiv4.sh 1f > /dev/null MIME-Version: 1.0 Content-Type: text/plain; charset=UTF-8 Content-Transfer-Encoding: 8bit X-Cron-Env: X-Cron-Env: X-Cron-Env: X-Cron-Env: Message-Id: <20210510084701.A0A8C399EB@wam-2.localdomain> Date: Mon, 10 May 2021 04:47:01 -0400 (EDT) % Total % Received % Xferd Average Speed Time Time Time Current Dload Upload Total Spent Left Speed 0 0 0 0 0 0 0 0 --:--:-- --:--:-- --:--:-- 0 100 385 100 385 0 0 3811 0 --:--:-- --:--:-- --:--:-- 3811 From sinton@wam-2.localdomain Mon May 10 04:48:01 2021 Return-Path: X-Original-To: sinton Delivered-To: sinton@wam-2.localdomain Received: by wam-2.localdomain (Postfix, from userid 1001) id D52BB399E1; Mon, 10 May 2021 04:48:01 -0400 (EDT) From: root@wam-2.localdomain (Cron Daemon) To: sinton@wam-2.localdomain Subject: Cron ~/symlinks/TEAM99/ogoakinitchka2.sh 99 0.05 > /dev/null MIME-Version: 1.0 Content-Type: text/plain; charset=UTF-8 Content-Transfer-Encoding: 8bit X-Cron-Env: X-Cron-Env: X-Cron-Env: X-Cron-Env: Message-Id: <20210510084801.D52BB399E1@wam-2.localdomain> Date: Mon, 10 May 2021 04:48:01 -0400 (EDT) /bin/sh: 1: /home/sinton/symlinks/TEAM99/ogoakinitchka2.sh: not found From sinton@wam-2.localdomain Mon May 10 04:48:01 2021 Return-Path: X-Original-To: sinton Delivered-To: sinton@wam-2.localdomain Received: by wam-2.localdomain (Postfix, from userid 1001) id EAD69399E1; Mon, 10 May 2021 04:48:01 -0400 (EDT) From: root@wam-2.localdomain (Cron Daemon) To: sinton@wam-2.localdomain Subject: Cron ~/symlinks/TEAM1F/metin/apiv4.sh 1f > /dev/null MIME-Version: 1.0 Content-Type: text/plain; charset=UTF-8 Content-Transfer-Encoding: 8bit X-Cron-Env: X-Cron-Env: X-Cron-Env: X-Cron-Env: Message-Id: <20210510084801.EAD69399E1@wam-2.localdomain> Date: Mon, 10 May 2021 04:48:01 -0400 (EDT) % Total % Received % Xferd Average Speed Time Time Time Current Dload Upload Total Spent Left Speed 0 0 0 0 0 0 0 0 --:--:-- --:--:-- --:--:-- 0 0 0 0 0 0 0 0 0 --:--:-- --:--:-- --:--:-- 0 100 385 100 385 0 0 2673 0 --:--:-- --:--:-- --:--:-- 2673 From sinton@wam-2.localdomain Mon May 10 04:49:02 2021 Return-Path: X-Original-To: sinton Delivered-To: sinton@wam-2.localdomain Received: by wam-2.localdomain (Postfix, from userid 1001) id 3474620AE2; Mon, 10 May 2021 04:49:02 -0400 (EDT) From: root@wam-2.localdomain (Cron Daemon) To: sinton@wam-2.localdomain Subject: Cron ~/symlinks/TEAM99/ogoakinitchka2.sh 99 0.05 > /dev/null MIME-Version: 1.0 Content-Type: text/plain; charset=UTF-8 Content-Transfer-Encoding: 8bit X-Cron-Env: X-Cron-Env: X-Cron-Env: X-Cron-Env: Message-Id: <20210510084902.3474620AE2@wam-2.localdomain> Date: Mon, 10 May 2021 04:49:02 -0400 (EDT) /bin/sh: 1: /home/sinton/symlinks/TEAM99/ogoakinitchka2.sh: not found From sinton@wam-2.localdomain Mon May 10 04:49:02 2021 Return-Path: X-Original-To: sinton Delivered-To: sinton@wam-2.localdomain Received: by wam-2.localdomain (Postfix, from userid 1001) id 4EAFF22675; Mon, 10 May 2021 04:49:02 -0400 (EDT) From: root@wam-2.localdomain (Cron Daemon) To: sinton@wam-2.localdomain Subject: Cron ~/symlinks/TEAM1F/metin/apiv4.sh 1f > /dev/null MIME-Version: 1.0 Content-Type: text/plain; charset=UTF-8 Content-Transfer-Encoding: 8bit X-Cron-Env: X-Cron-Env: X-Cron-Env: X-Cron-Env: Message-Id: <20210510084902.4EAFF22675@wam-2.localdomain> Date: Mon, 10 May 2021 04:49:02 -0400 (EDT) % Total % Received % Xferd Average Speed Time Time Time Current Dload Upload Total Spent Left Speed 0 0 0 0 0 0 0 0 --:--:-- --:--:-- --:--:-- 0 100 385 100 385 0 0 5065 0 --:--:-- --:--:-- --:--:-- 5065 From sinton@wam-2.localdomain Mon May 10 04:50:01 2021 Return-Path: X-Original-To: sinton Delivered-To: sinton@wam-2.localdomain Received: by wam-2.localdomain (Postfix, from userid 1001) id 84BE839A4D; Mon, 10 May 2021 04:50:01 -0400 (EDT) From: root@wam-2.localdomain (Cron Daemon) To: sinton@wam-2.localdomain Subject: Cron ~/symlinks/TEAM99/ogoakinitchka2.sh 99 0.05 > /dev/null MIME-Version: 1.0 Content-Type: text/plain; charset=UTF-8 Content-Transfer-Encoding: 8bit X-Cron-Env: X-Cron-Env: X-Cron-Env: X-Cron-Env: Message-Id: <20210510085001.84BE839A4D@wam-2.localdomain> Date: Mon, 10 May 2021 04:50:01 -0400 (EDT) /bin/sh: 1: /home/sinton/symlinks/TEAM99/ogoakinitchka2.sh: not found From sinton@wam-2.localdomain Mon May 10 04:50:01 2021 Return-Path: X-Original-To: sinton Delivered-To: sinton@wam-2.localdomain Received: by wam-2.localdomain (Postfix, from userid 1001) id 9A76D39A4D; Mon, 10 May 2021 04:50:01 -0400 (EDT) From: root@wam-2.localdomain (Cron Daemon) To: sinton@wam-2.localdomain Subject: Cron ~/symlinks/TEAM1F/metin/apiv4.sh 1f > /dev/null MIME-Version: 1.0 Content-Type: text/plain; charset=UTF-8 Content-Transfer-Encoding: 8bit X-Cron-Env: X-Cron-Env: X-Cron-Env: X-Cron-Env: Message-Id: <20210510085001.9A76D39A4D@wam-2.localdomain> Date: Mon, 10 May 2021 04:50:01 -0400 (EDT) % Total % Received % Xferd Average Speed Time Time Time Current Dload Upload Total Spent Left Speed 0 0 0 0 0 0 0 0 --:--:-- --:--:-- --:--:-- 0 100 386 100 386 0 0 6433 0 --:--:-- --:--:-- --:--:-- 6542 From sinton@wam-2.localdomain Mon May 10 04:51:01 2021 Return-Path: X-Original-To: sinton Delivered-To: sinton@wam-2.localdomain Received: by wam-2.localdomain (Postfix, from userid 1001) id DA53339A74; Mon, 10 May 2021 04:51:01 -0400 (EDT) From: root@wam-2.localdomain (Cron Daemon) To: sinton@wam-2.localdomain Subject: Cron ~/symlinks/TEAM99/ogoakinitchka2.sh 99 0.05 > /dev/null MIME-Version: 1.0 Content-Type: text/plain; charset=UTF-8 Content-Transfer-Encoding: 8bit X-Cron-Env: X-Cron-Env: X-Cron-Env: X-Cron-Env: Message-Id: <20210510085101.DA53339A74@wam-2.localdomain> Date: Mon, 10 May 2021 04:51:01 -0400 (EDT) /bin/sh: 1: /home/sinton/symlinks/TEAM99/ogoakinitchka2.sh: not found From sinton@wam-2.localdomain Mon May 10 04:51:01 2021 Return-Path: X-Original-To: sinton Delivered-To: sinton@wam-2.localdomain Received: by wam-2.localdomain (Postfix, from userid 1001) id F1FFD39A54; Mon, 10 May 2021 04:51:01 -0400 (EDT) From: root@wam-2.localdomain (Cron Daemon) To: sinton@wam-2.localdomain Subject: Cron ~/symlinks/TEAM1F/metin/apiv4.sh 1f > /dev/null MIME-Version: 1.0 Content-Type: text/plain; charset=UTF-8 Content-Transfer-Encoding: 8bit X-Cron-Env: X-Cron-Env: X-Cron-Env: X-Cron-Env: Message-Id: <20210510085101.F1FFD39A54@wam-2.localdomain> Date: Mon, 10 May 2021 04:51:01 -0400 (EDT) % Total % Received % Xferd Average Speed Time Time Time Current Dload Upload Total Spent Left Speed 0 0 0 0 0 0 0 0 --:--:-- --:--:-- --:--:-- 0 100 385 100 385 0 0 6754 0 --:--:-- --:--:-- --:--:-- 6754 From sinton@wam-2.localdomain Mon May 10 04:52:01 2021 Return-Path: X-Original-To: sinton Delivered-To: sinton@wam-2.localdomain Received: by wam-2.localdomain (Postfix, from userid 1001) id 951B139A6A; Mon, 10 May 2021 04:52:01 -0400 (EDT) From: root@wam-2.localdomain (Cron Daemon) To: sinton@wam-2.localdomain Subject: Cron ~/symlinks/TEAM99/ogoakinitchka2.sh 99 0.05 > /dev/null MIME-Version: 1.0 Content-Type: text/plain; charset=UTF-8 Content-Transfer-Encoding: 8bit X-Cron-Env: X-Cron-Env: X-Cron-Env: X-Cron-Env: Message-Id: <20210510085201.951B139A6A@wam-2.localdomain> Date: Mon, 10 May 2021 04:52:01 -0400 (EDT) /bin/sh: 1: /home/sinton/symlinks/TEAM99/ogoakinitchka2.sh: not found From sinton@wam-2.localdomain Mon May 10 04:52:01 2021 Return-Path: X-Original-To: sinton Delivered-To: sinton@wam-2.localdomain Received: by wam-2.localdomain (Postfix, from userid 1001) id A9A5F39A6A; Mon, 10 May 2021 04:52:01 -0400 (EDT) From: root@wam-2.localdomain (Cron Daemon) To: sinton@wam-2.localdomain Subject: Cron ~/symlinks/TEAM1F/metin/apiv4.sh 1f > /dev/null MIME-Version: 1.0 Content-Type: text/plain; charset=UTF-8 Content-Transfer-Encoding: 8bit X-Cron-Env: X-Cron-Env: X-Cron-Env: X-Cron-Env: Message-Id: <20210510085201.A9A5F39A6A@wam-2.localdomain> Date: Mon, 10 May 2021 04:52:01 -0400 (EDT) % Total % Received % Xferd Average Speed Time Time Time Current Dload Upload Total Spent Left Speed 0 0 0 0 0 0 0 0 --:--:-- --:--:-- --:--:-- 0 100 385 100 385 0 0 7000 0 --:--:-- --:--:-- --:--:-- 7000 From sinton@wam-2.localdomain Mon May 10 04:53:01 2021 Return-Path: X-Original-To: sinton Delivered-To: sinton@wam-2.localdomain Received: by wam-2.localdomain (Postfix, from userid 1001) id 9396D39A54; Mon, 10 May 2021 04:53:01 -0400 (EDT) From: root@wam-2.localdomain (Cron Daemon) To: sinton@wam-2.localdomain Subject: Cron ~/symlinks/TEAM99/ogoakinitchka2.sh 99 0.05 > /dev/null MIME-Version: 1.0 Content-Type: text/plain; charset=UTF-8 Content-Transfer-Encoding: 8bit X-Cron-Env: X-Cron-Env: X-Cron-Env: X-Cron-Env: Message-Id: <20210510085301.9396D39A54@wam-2.localdomain> Date: Mon, 10 May 2021 04:53:01 -0400 (EDT) /bin/sh: 1: /home/sinton/symlinks/TEAM99/ogoakinitchka2.sh: not found From sinton@wam-2.localdomain Mon May 10 04:53:01 2021 Return-Path: X-Original-To: sinton Delivered-To: sinton@wam-2.localdomain Received: by wam-2.localdomain (Postfix, from userid 1001) id A37FA39A5A; Mon, 10 May 2021 04:53:01 -0400 (EDT) From: root@wam-2.localdomain (Cron Daemon) To: sinton@wam-2.localdomain Subject: Cron ~/symlinks/TEAM1F/metin/apiv4.sh 1f > /dev/null MIME-Version: 1.0 Content-Type: text/plain; charset=UTF-8 Content-Transfer-Encoding: 8bit X-Cron-Env: X-Cron-Env: X-Cron-Env: X-Cron-Env: Message-Id: <20210510085301.A37FA39A5A@wam-2.localdomain> Date: Mon, 10 May 2021 04:53:01 -0400 (EDT) % Total % Received % Xferd Average Speed Time Time Time Current Dload Upload Total Spent Left Speed 0 0 0 0 0 0 0 0 --:--:-- --:--:-- --:--:-- 0 100 385 100 385 0 0 5579 0 --:--:-- --:--:-- --:--:-- 5579 From sinton@wam-2.localdomain Mon May 10 04:54:01 2021 Return-Path: X-Original-To: sinton Delivered-To: sinton@wam-2.localdomain Received: by wam-2.localdomain (Postfix, from userid 1001) id 9AF9739A3C; Mon, 10 May 2021 04:54:01 -0400 (EDT) From: root@wam-2.localdomain (Cron Daemon) To: sinton@wam-2.localdomain Subject: Cron ~/symlinks/TEAM99/ogoakinitchka2.sh 99 0.05 > /dev/null MIME-Version: 1.0 Content-Type: text/plain; charset=UTF-8 Content-Transfer-Encoding: 8bit X-Cron-Env: X-Cron-Env: X-Cron-Env: X-Cron-Env: Message-Id: <20210510085401.9AF9739A3C@wam-2.localdomain> Date: Mon, 10 May 2021 04:54:01 -0400 (EDT) /bin/sh: 1: /home/sinton/symlinks/TEAM99/ogoakinitchka2.sh: not found From sinton@wam-2.localdomain Mon May 10 04:54:01 2021 Return-Path: X-Original-To: sinton Delivered-To: sinton@wam-2.localdomain Received: by wam-2.localdomain (Postfix, from userid 1001) id AA6E239A6A; Mon, 10 May 2021 04:54:01 -0400 (EDT) From: root@wam-2.localdomain (Cron Daemon) To: sinton@wam-2.localdomain Subject: Cron ~/symlinks/TEAM1F/metin/apiv4.sh 1f > /dev/null MIME-Version: 1.0 Content-Type: text/plain; charset=UTF-8 Content-Transfer-Encoding: 8bit X-Cron-Env: X-Cron-Env: X-Cron-Env: X-Cron-Env: Message-Id: <20210510085401.AA6E239A6A@wam-2.localdomain> Date: Mon, 10 May 2021 04:54:01 -0400 (EDT) % Total % Received % Xferd Average Speed Time Time Time Current Dload Upload Total Spent Left Speed 0 0 0 0 0 0 0 0 --:--:-- --:--:-- --:--:-- 0 100 386 100 386 0 0 5216 0 --:--:-- --:--:-- --:--:-- 5287 From sinton@wam-2.localdomain Mon May 10 04:55:01 2021 Return-Path: X-Original-To: sinton Delivered-To: sinton@wam-2.localdomain Received: by wam-2.localdomain (Postfix, from userid 1001) id DC11839A66; Mon, 10 May 2021 04:55:01 -0400 (EDT) From: root@wam-2.localdomain (Cron Daemon) To: sinton@wam-2.localdomain Subject: Cron ~/symlinks/TEAM99/ogoakinitchka2.sh 99 0.05 > /dev/null MIME-Version: 1.0 Content-Type: text/plain; charset=UTF-8 Content-Transfer-Encoding: 8bit X-Cron-Env: X-Cron-Env: X-Cron-Env: X-Cron-Env: Message-Id: <20210510085501.DC11839A66@wam-2.localdomain> Date: Mon, 10 May 2021 04:55:01 -0400 (EDT) /bin/sh: 1: /home/sinton/symlinks/TEAM99/ogoakinitchka2.sh: not found From sinton@wam-2.localdomain Mon May 10 04:55:02 2021 Return-Path: X-Original-To: sinton Delivered-To: sinton@wam-2.localdomain Received: by wam-2.localdomain (Postfix, from userid 1001) id 0AB9039A66; Mon, 10 May 2021 04:55:02 -0400 (EDT) From: root@wam-2.localdomain (Cron Daemon) To: sinton@wam-2.localdomain Subject: Cron ~/symlinks/TEAM1F/metin/apiv4.sh 1f > /dev/null MIME-Version: 1.0 Content-Type: text/plain; charset=UTF-8 Content-Transfer-Encoding: 8bit X-Cron-Env: X-Cron-Env: X-Cron-Env: X-Cron-Env: Message-Id: <20210510085502.0AB9039A66@wam-2.localdomain> Date: Mon, 10 May 2021 04:55:02 -0400 (EDT) % Total % Received % Xferd Average Speed Time Time Time Current Dload Upload Total Spent Left Speed 0 0 0 0 0 0 0 0 --:--:-- --:--:-- --:--:-- 0 100 386 100 386 0 0 2662 0 --:--:-- --:--:-- --:--:-- 2662 From sinton@wam-2.localdomain Mon May 10 04:56:01 2021 Return-Path: X-Original-To: sinton Delivered-To: sinton@wam-2.localdomain Received: by wam-2.localdomain (Postfix, from userid 1001) id 5584E39A6D; Mon, 10 May 2021 04:56:01 -0400 (EDT) From: root@wam-2.localdomain (Cron Daemon) To: sinton@wam-2.localdomain Subject: Cron ~/symlinks/TEAM99/ogoakinitchka2.sh 99 0.05 > /dev/null MIME-Version: 1.0 Content-Type: text/plain; charset=UTF-8 Content-Transfer-Encoding: 8bit X-Cron-Env: X-Cron-Env: X-Cron-Env: X-Cron-Env: Message-Id: <20210510085601.5584E39A6D@wam-2.localdomain> Date: Mon, 10 May 2021 04:56:01 -0400 (EDT) /bin/sh: 1: /home/sinton/symlinks/TEAM99/ogoakinitchka2.sh: not found From sinton@wam-2.localdomain Mon May 10 04:56:01 2021 Return-Path: X-Original-To: sinton Delivered-To: sinton@wam-2.localdomain Received: by wam-2.localdomain (Postfix, from userid 1001) id 63EDE39A6D; Mon, 10 May 2021 04:56:01 -0400 (EDT) From: root@wam-2.localdomain (Cron Daemon) To: sinton@wam-2.localdomain Subject: Cron ~/symlinks/TEAM1F/metin/apiv4.sh 1f > /dev/null MIME-Version: 1.0 Content-Type: text/plain; charset=UTF-8 Content-Transfer-Encoding: 8bit X-Cron-Env: X-Cron-Env: X-Cron-Env: X-Cron-Env: Message-Id: <20210510085601.63EDE39A6D@wam-2.localdomain> Date: Mon, 10 May 2021 04:56:01 -0400 (EDT) % Total % Received % Xferd Average Speed Time Time Time Current Dload Upload Total Spent Left Speed 0 0 0 0 0 0 0 0 --:--:-- --:--:-- --:--:-- 0 100 386 100 386 0 0 3784 0 --:--:-- --:--:-- --:--:-- 5216 From sinton@wam-2.localdomain Mon May 10 04:57:01 2021 Return-Path: X-Original-To: sinton Delivered-To: sinton@wam-2.localdomain Received: by wam-2.localdomain (Postfix, from userid 1001) id 931BB39A66; Mon, 10 May 2021 04:57:01 -0400 (EDT) From: root@wam-2.localdomain (Cron Daemon) To: sinton@wam-2.localdomain Subject: Cron ~/symlinks/TEAM99/ogoakinitchka2.sh 99 0.05 > /dev/null MIME-Version: 1.0 Content-Type: text/plain; charset=UTF-8 Content-Transfer-Encoding: 8bit X-Cron-Env: X-Cron-Env: X-Cron-Env: X-Cron-Env: Message-Id: <20210510085701.931BB39A66@wam-2.localdomain> Date: Mon, 10 May 2021 04:57:01 -0400 (EDT) /bin/sh: 1: /home/sinton/symlinks/TEAM99/ogoakinitchka2.sh: not found From sinton@wam-2.localdomain Mon May 10 04:57:01 2021 Return-Path: X-Original-To: sinton Delivered-To: sinton@wam-2.localdomain Received: by wam-2.localdomain (Postfix, from userid 1001) id A8A5139A66; Mon, 10 May 2021 04:57:01 -0400 (EDT) From: root@wam-2.localdomain (Cron Daemon) To: sinton@wam-2.localdomain Subject: Cron ~/symlinks/TEAM1F/metin/apiv4.sh 1f > /dev/null MIME-Version: 1.0 Content-Type: text/plain; charset=UTF-8 Content-Transfer-Encoding: 8bit X-Cron-Env: X-Cron-Env: X-Cron-Env: X-Cron-Env: Message-Id: <20210510085701.A8A5139A66@wam-2.localdomain> Date: Mon, 10 May 2021 04:57:01 -0400 (EDT) % Total % Received % Xferd Average Speed Time Time Time Current Dload Upload Total Spent Left Speed 0 0 0 0 0 0 0 0 --:--:-- --:--:-- --:--:-- 0 100 386 100 386 0 0 7568 0 --:--:-- --:--:-- --:--:-- 7568 From sinton@wam-2.localdomain Mon May 10 04:58:01 2021 Return-Path: X-Original-To: sinton Delivered-To: sinton@wam-2.localdomain Received: by wam-2.localdomain (Postfix, from userid 1001) id D824A39A77; Mon, 10 May 2021 04:58:01 -0400 (EDT) From: root@wam-2.localdomain (Cron Daemon) To: sinton@wam-2.localdomain Subject: Cron ~/symlinks/TEAM99/ogoakinitchka2.sh 99 0.05 > /dev/null MIME-Version: 1.0 Content-Type: text/plain; charset=UTF-8 Content-Transfer-Encoding: 8bit X-Cron-Env: X-Cron-Env: X-Cron-Env: X-Cron-Env: Message-Id: <20210510085801.D824A39A77@wam-2.localdomain> Date: Mon, 10 May 2021 04:58:01 -0400 (EDT) /bin/sh: 1: /home/sinton/symlinks/TEAM99/ogoakinitchka2.sh: not found From sinton@wam-2.localdomain Mon May 10 04:58:01 2021 Return-Path: X-Original-To: sinton Delivered-To: sinton@wam-2.localdomain Received: by wam-2.localdomain (Postfix, from userid 1001) id F268839A77; Mon, 10 May 2021 04:58:01 -0400 (EDT) From: root@wam-2.localdomain (Cron Daemon) To: sinton@wam-2.localdomain Subject: Cron ~/symlinks/TEAM1F/metin/apiv4.sh 1f > /dev/null MIME-Version: 1.0 Content-Type: text/plain; charset=UTF-8 Content-Transfer-Encoding: 8bit X-Cron-Env: X-Cron-Env: X-Cron-Env: X-Cron-Env: Message-Id: <20210510085801.F268839A77@wam-2.localdomain> Date: Mon, 10 May 2021 04:58:01 -0400 (EDT) % Total % Received % Xferd Average Speed Time Time Time Current Dload Upload Total Spent Left Speed 0 0 0 0 0 0 0 0 --:--:-- --:--:-- --:--:-- 0 100 386 100 386 0 0 4765 0 --:--:-- --:--:-- --:--:-- 4765 From sinton@wam-2.localdomain Mon May 10 04:59:02 2021 Return-Path: X-Original-To: sinton Delivered-To: sinton@wam-2.localdomain Received: by wam-2.localdomain (Postfix, from userid 1001) id 3160339A79; Mon, 10 May 2021 04:59:02 -0400 (EDT) From: root@wam-2.localdomain (Cron Daemon) To: sinton@wam-2.localdomain Subject: Cron ~/symlinks/TEAM99/ogoakinitchka2.sh 99 0.05 > /dev/null MIME-Version: 1.0 Content-Type: text/plain; charset=UTF-8 Content-Transfer-Encoding: 8bit X-Cron-Env: X-Cron-Env: X-Cron-Env: X-Cron-Env: Message-Id: <20210510085902.3160339A79@wam-2.localdomain> Date: Mon, 10 May 2021 04:59:02 -0400 (EDT) /bin/sh: 1: /home/sinton/symlinks/TEAM99/ogoakinitchka2.sh: not found From sinton@wam-2.localdomain Mon May 10 04:59:02 2021 Return-Path: X-Original-To: sinton Delivered-To: sinton@wam-2.localdomain Received: by wam-2.localdomain (Postfix, from userid 1001) id 4368D39A79; Mon, 10 May 2021 04:59:02 -0400 (EDT) From: root@wam-2.localdomain (Cron Daemon) To: sinton@wam-2.localdomain Subject: Cron ~/symlinks/TEAM1F/metin/apiv4.sh 1f > /dev/null MIME-Version: 1.0 Content-Type: text/plain; charset=UTF-8 Content-Transfer-Encoding: 8bit X-Cron-Env: X-Cron-Env: X-Cron-Env: X-Cron-Env: Message-Id: <20210510085902.4368D39A79@wam-2.localdomain> Date: Mon, 10 May 2021 04:59:02 -0400 (EDT) % Total % Received % Xferd Average Speed Time Time Time Current Dload Upload Total Spent Left Speed 0 0 0 0 0 0 0 0 --:--:-- --:--:-- --:--:-- 0 100 386 100 386 0 0 7148 0 --:--:-- --:--:-- --:--:-- 7283 From sinton@wam-2.localdomain Mon May 10 05:00:01 2021 Return-Path: X-Original-To: sinton Delivered-To: sinton@wam-2.localdomain Received: by wam-2.localdomain (Postfix, from userid 1001) id 7C75939A77; Mon, 10 May 2021 05:00:01 -0400 (EDT) From: root@wam-2.localdomain (Cron Daemon) To: sinton@wam-2.localdomain Subject: Cron ~/symlinks/TEAM99/ogoakinitchka2.sh 99 0.05 > /dev/null MIME-Version: 1.0 Content-Type: text/plain; charset=UTF-8 Content-Transfer-Encoding: 8bit X-Cron-Env: X-Cron-Env: X-Cron-Env: X-Cron-Env: Message-Id: <20210510090001.7C75939A77@wam-2.localdomain> Date: Mon, 10 May 2021 05:00:01 -0400 (EDT) /bin/sh: 1: /home/sinton/symlinks/TEAM99/ogoakinitchka2.sh: not found From sinton@wam-2.localdomain Mon May 10 05:00:01 2021 Return-Path: X-Original-To: sinton Delivered-To: sinton@wam-2.localdomain Received: by wam-2.localdomain (Postfix, from userid 1001) id 9427D39A67; Mon, 10 May 2021 05:00:01 -0400 (EDT) From: root@wam-2.localdomain (Cron Daemon) To: sinton@wam-2.localdomain Subject: Cron ~/symlinks/TEAM4/oakgameday.pl 4 > /dev/null MIME-Version: 1.0 Content-Type: text/plain; charset=UTF-8 Content-Transfer-Encoding: 8bit X-Cron-Env: X-Cron-Env: X-Cron-Env: X-Cron-Env: Message-Id: <20210510090001.9427D39A67@wam-2.localdomain> Date: Mon, 10 May 2021 05:00:01 -0400 (EDT) cp: cannot stat '/home/sinton/sjsu4/output/dumfinaldtd.txt': No such file or directory cp: cannot stat '/home/sinton/sjsu4/output/dumfinaldtd.txt': No such file or directory cp: cannot stat '/home/sinton/sjsu4/output/dumfinaldtd.txt': No such file or directory From sinton@wam-2.localdomain Mon May 10 05:00:01 2021 Return-Path: X-Original-To: sinton Delivered-To: sinton@wam-2.localdomain Received: by wam-2.localdomain (Postfix, from userid 1001) id 95BB339A0F; Mon, 10 May 2021 05:00:01 -0400 (EDT) From: root@wam-2.localdomain (Cron Daemon) To: sinton@wam-2.localdomain Subject: Cron ~/symlinks/TEAM1F/metin/apiv4.sh 1f > /dev/null MIME-Version: 1.0 Content-Type: text/plain; charset=UTF-8 Content-Transfer-Encoding: 8bit X-Cron-Env: X-Cron-Env: X-Cron-Env: X-Cron-Env: Message-Id: <20210510090001.95BB339A0F@wam-2.localdomain> Date: Mon, 10 May 2021 05:00:01 -0400 (EDT) % Total % Received % Xferd Average Speed Time Time Time Current Dload Upload Total Spent Left Speed 0 0 0 0 0 0 0 0 --:--:-- --:--:-- --:--:-- 0 100 386 100 386 0 0 5848 0 --:--:-- --:--:-- --:--:-- 5848 From sinton@wam-2.localdomain Mon May 10 05:01:01 2021 Return-Path: X-Original-To: sinton Delivered-To: sinton@wam-2.localdomain Received: by wam-2.localdomain (Postfix, from userid 1001) id DA2D139A2B; Mon, 10 May 2021 05:01:01 -0400 (EDT) From: root@wam-2.localdomain (Cron Daemon) To: sinton@wam-2.localdomain Subject: Cron ~/symlinks/TEAM99/ogoakinitchka2.sh 99 0.05 > /dev/null MIME-Version: 1.0 Content-Type: text/plain; charset=UTF-8 Content-Transfer-Encoding: 8bit X-Cron-Env: X-Cron-Env: X-Cron-Env: X-Cron-Env: Message-Id: <20210510090101.DA2D139A2B@wam-2.localdomain> Date: Mon, 10 May 2021 05:01:01 -0400 (EDT) /bin/sh: 1: /home/sinton/symlinks/TEAM99/ogoakinitchka2.sh: not found From sinton@wam-2.localdomain Mon May 10 05:01:02 2021 Return-Path: X-Original-To: sinton Delivered-To: sinton@wam-2.localdomain Received: by wam-2.localdomain (Postfix, from userid 1001) id 01E0339A19; Mon, 10 May 2021 05:01:01 -0400 (EDT) From: root@wam-2.localdomain (Cron Daemon) To: sinton@wam-2.localdomain Subject: Cron ~/symlinks/TEAM1F/metin/apiv4.sh 1f > /dev/null MIME-Version: 1.0 Content-Type: text/plain; charset=UTF-8 Content-Transfer-Encoding: 8bit X-Cron-Env: X-Cron-Env: X-Cron-Env: X-Cron-Env: Message-Id: <20210510090102.01E0339A19@wam-2.localdomain> Date: Mon, 10 May 2021 05:01:02 -0400 (EDT) % Total % Received % Xferd Average Speed Time Time Time Current Dload Upload Total Spent Left Speed 0 0 0 0 0 0 0 0 --:--:-- --:--:-- --:--:-- 0 100 386 100 386 0 0 4436 0 --:--:-- --:--:-- --:--:-- 4436 From sinton@wam-2.localdomain Mon May 10 05:01:37 2021 Return-Path: X-Original-To: sinton Delivered-To: sinton@wam-2.localdomain Received: by wam-2.localdomain (Postfix, from userid 1001) id 5C8B939A82; Mon, 10 May 2021 05:01:37 -0400 (EDT) From: root@wam-2.localdomain (Cron Daemon) To: sinton@wam-2.localdomain Subject: Cron bash -c "sleep $[RANDOM%30]m" ; ~/symlinks/TEAM1F/fcst/startfcstclim.sh 1f > /dev/null MIME-Version: 1.0 Content-Type: text/plain; charset=UTF-8 Content-Transfer-Encoding: 8bit X-Cron-Env: X-Cron-Env: X-Cron-Env: X-Cron-Env: Message-Id: <20210510090137.5C8B939A82@wam-2.localdomain> Date: Mon, 10 May 2021 05:01:37 -0400 (EDT) % Total % Received % Xferd Average Speed Time Time Time Current Dload Upload Total Spent Left Speed 0 0 0 0 0 0 0 0 --:--:-- --:--:-- --:--:-- 0 100 41631 100 41631 0 0 143k 0 --:--:-- --:--:-- --:--:-- 143k From sinton@wam-2.localdomain Mon May 10 05:02:01 2021 Return-Path: X-Original-To: sinton Delivered-To: sinton@wam-2.localdomain Received: by wam-2.localdomain (Postfix, from userid 1001) id 9F39A39A91; Mon, 10 May 2021 05:02:01 -0400 (EDT) From: root@wam-2.localdomain (Cron Daemon) To: sinton@wam-2.localdomain Subject: Cron ~/symlinks/TEAM99/ogoakinitchka2.sh 99 0.05 > /dev/null MIME-Version: 1.0 Content-Type: text/plain; charset=UTF-8 Content-Transfer-Encoding: 8bit X-Cron-Env: X-Cron-Env: X-Cron-Env: X-Cron-Env: Message-Id: <20210510090201.9F39A39A91@wam-2.localdomain> Date: Mon, 10 May 2021 05:02:01 -0400 (EDT) /bin/sh: 1: /home/sinton/symlinks/TEAM99/ogoakinitchka2.sh: not found From sinton@wam-2.localdomain Mon May 10 05:02:01 2021 Return-Path: X-Original-To: sinton Delivered-To: sinton@wam-2.localdomain Received: by wam-2.localdomain (Postfix, from userid 1001) id ADADE39A92; Mon, 10 May 2021 05:02:01 -0400 (EDT) From: root@wam-2.localdomain (Cron Daemon) To: sinton@wam-2.localdomain Subject: Cron ~/symlinks/TEAM1F/metin/apiv4.sh 1f > /dev/null MIME-Version: 1.0 Content-Type: text/plain; charset=UTF-8 Content-Transfer-Encoding: 8bit X-Cron-Env: X-Cron-Env: X-Cron-Env: X-Cron-Env: Message-Id: <20210510090201.ADADE39A92@wam-2.localdomain> Date: Mon, 10 May 2021 05:02:01 -0400 (EDT) % Total % Received % Xferd Average Speed Time Time Time Current Dload Upload Total Spent Left Speed 0 0 0 0 0 0 0 0 --:--:-- --:--:-- --:--:-- 0 100 386 100 386 0 0 8041 0 --:--:-- --:--:-- --:--:-- 8041 From sinton@wam-2.localdomain Mon May 10 05:03:01 2021 Return-Path: X-Original-To: sinton Delivered-To: sinton@wam-2.localdomain Received: by wam-2.localdomain (Postfix, from userid 1001) id DEDB539A8B; Mon, 10 May 2021 05:03:01 -0400 (EDT) From: root@wam-2.localdomain (Cron Daemon) To: sinton@wam-2.localdomain Subject: Cron ~/symlinks/TEAM99/ogoakinitchka2.sh 99 0.05 > /dev/null MIME-Version: 1.0 Content-Type: text/plain; charset=UTF-8 Content-Transfer-Encoding: 8bit X-Cron-Env: X-Cron-Env: X-Cron-Env: X-Cron-Env: Message-Id: <20210510090301.DEDB539A8B@wam-2.localdomain> Date: Mon, 10 May 2021 05:03:01 -0400 (EDT) /bin/sh: 1: /home/sinton/symlinks/TEAM99/ogoakinitchka2.sh: not found From sinton@wam-2.localdomain Mon May 10 05:03:02 2021 Return-Path: X-Original-To: sinton Delivered-To: sinton@wam-2.localdomain Received: by wam-2.localdomain (Postfix, from userid 1001) id F344C39A8B; Mon, 10 May 2021 05:03:01 -0400 (EDT) From: root@wam-2.localdomain (Cron Daemon) To: sinton@wam-2.localdomain Subject: Cron ~/symlinks/TEAM1F/metin/apiv4.sh 1f > /dev/null MIME-Version: 1.0 Content-Type: text/plain; charset=UTF-8 Content-Transfer-Encoding: 8bit X-Cron-Env: X-Cron-Env: X-Cron-Env: X-Cron-Env: Message-Id: <20210510090301.F344C39A8B@wam-2.localdomain> Date: Mon, 10 May 2021 05:03:01 -0400 (EDT) % Total % Received % Xferd Average Speed Time Time Time Current Dload Upload Total Spent Left Speed 0 0 0 0 0 0 0 0 --:--:-- --:--:-- --:--:-- 0 100 384 100 384 0 0 5818 0 --:--:-- --:--:-- --:--:-- 5818 From sinton@wam-2.localdomain Mon May 10 05:04:02 2021 Return-Path: X-Original-To: sinton Delivered-To: sinton@wam-2.localdomain Received: by wam-2.localdomain (Postfix, from userid 1001) id 365C439A8F; Mon, 10 May 2021 05:04:02 -0400 (EDT) From: root@wam-2.localdomain (Cron Daemon) To: sinton@wam-2.localdomain Subject: Cron ~/symlinks/TEAM99/ogoakinitchka2.sh 99 0.05 > /dev/null MIME-Version: 1.0 Content-Type: text/plain; charset=UTF-8 Content-Transfer-Encoding: 8bit X-Cron-Env: X-Cron-Env: X-Cron-Env: X-Cron-Env: Message-Id: <20210510090402.365C439A8F@wam-2.localdomain> Date: Mon, 10 May 2021 05:04:02 -0400 (EDT) /bin/sh: 1: /home/sinton/symlinks/TEAM99/ogoakinitchka2.sh: not found From sinton@wam-2.localdomain Mon May 10 05:04:02 2021 Return-Path: X-Original-To: sinton Delivered-To: sinton@wam-2.localdomain Received: by wam-2.localdomain (Postfix, from userid 1001) id 48A3B39A8F; Mon, 10 May 2021 05:04:02 -0400 (EDT) From: root@wam-2.localdomain (Cron Daemon) To: sinton@wam-2.localdomain Subject: Cron ~/symlinks/TEAM1F/metin/apiv4.sh 1f > /dev/null MIME-Version: 1.0 Content-Type: text/plain; charset=UTF-8 Content-Transfer-Encoding: 8bit X-Cron-Env: X-Cron-Env: X-Cron-Env: X-Cron-Env: Message-Id: <20210510090402.48A3B39A8F@wam-2.localdomain> Date: Mon, 10 May 2021 05:04:02 -0400 (EDT) % Total % Received % Xferd Average Speed Time Time Time Current Dload Upload Total Spent Left Speed 0 0 0 0 0 0 0 0 --:--:-- --:--:-- --:--:-- 0 100 384 100 384 0 0 6981 0 --:--:-- --:--:-- --:--:-- 6981 From sinton@wam-2.localdomain Mon May 10 05:05:01 2021 Return-Path: X-Original-To: sinton Delivered-To: sinton@wam-2.localdomain Received: by wam-2.localdomain (Postfix, from userid 1001) id 7F8FF39A8C; Mon, 10 May 2021 05:05:01 -0400 (EDT) From: root@wam-2.localdomain (Cron Daemon) To: sinton@wam-2.localdomain Subject: Cron ~/symlinks/TEAM99/ogoakinitchka2.sh 99 0.05 > /dev/null MIME-Version: 1.0 Content-Type: text/plain; charset=UTF-8 Content-Transfer-Encoding: 8bit X-Cron-Env: X-Cron-Env: X-Cron-Env: X-Cron-Env: Message-Id: <20210510090501.7F8FF39A8C@wam-2.localdomain> Date: Mon, 10 May 2021 05:05:01 -0400 (EDT) /bin/sh: 1: /home/sinton/symlinks/TEAM99/ogoakinitchka2.sh: not found From sinton@wam-2.localdomain Mon May 10 05:05:01 2021 Return-Path: X-Original-To: sinton Delivered-To: sinton@wam-2.localdomain Received: by wam-2.localdomain (Postfix, from userid 1001) id 91FB339A8C; Mon, 10 May 2021 05:05:01 -0400 (EDT) From: root@wam-2.localdomain (Cron Daemon) To: sinton@wam-2.localdomain Subject: Cron ~/symlinks/TEAM1F/metin/apiv4.sh 1f > /dev/null MIME-Version: 1.0 Content-Type: text/plain; charset=UTF-8 Content-Transfer-Encoding: 8bit X-Cron-Env: X-Cron-Env: X-Cron-Env: X-Cron-Env: Message-Id: <20210510090501.91FB339A8C@wam-2.localdomain> Date: Mon, 10 May 2021 05:05:01 -0400 (EDT) % Total % Received % Xferd Average Speed Time Time Time Current Dload Upload Total Spent Left Speed 0 0 0 0 0 0 0 0 --:--:-- --:--:-- --:--:-- 0 100 385 100 385 0 0 6311 0 --:--:-- --:--:-- --:--:-- 6311 From sinton@wam-2.localdomain Mon May 10 05:06:01 2021 Return-Path: X-Original-To: sinton Delivered-To: sinton@wam-2.localdomain Received: by wam-2.localdomain (Postfix, from userid 1001) id CE09939A90; Mon, 10 May 2021 05:06:01 -0400 (EDT) From: root@wam-2.localdomain (Cron Daemon) To: sinton@wam-2.localdomain Subject: Cron ~/symlinks/TEAM99/ogoakinitchka2.sh 99 0.05 > /dev/null MIME-Version: 1.0 Content-Type: text/plain; charset=UTF-8 Content-Transfer-Encoding: 8bit X-Cron-Env: X-Cron-Env: X-Cron-Env: X-Cron-Env: Message-Id: <20210510090601.CE09939A90@wam-2.localdomain> Date: Mon, 10 May 2021 05:06:01 -0400 (EDT) /bin/sh: 1: /home/sinton/symlinks/TEAM99/ogoakinitchka2.sh: not found From sinton@wam-2.localdomain Mon May 10 05:06:02 2021 Return-Path: X-Original-To: sinton Delivered-To: sinton@wam-2.localdomain Received: by wam-2.localdomain (Postfix, from userid 1001) id 01BB839A8F; Mon, 10 May 2021 05:06:02 -0400 (EDT) From: root@wam-2.localdomain (Cron Daemon) To: sinton@wam-2.localdomain Subject: Cron ~/symlinks/TEAM1F/metin/apiv4.sh 1f > /dev/null MIME-Version: 1.0 Content-Type: text/plain; charset=UTF-8 Content-Transfer-Encoding: 8bit X-Cron-Env: X-Cron-Env: X-Cron-Env: X-Cron-Env: Message-Id: <20210510090602.01BB839A8F@wam-2.localdomain> Date: Mon, 10 May 2021 05:06:02 -0400 (EDT) % Total % Received % Xferd Average Speed Time Time Time Current Dload Upload Total Spent Left Speed 0 0 0 0 0 0 0 0 --:--:-- --:--:-- --:--:-- 0 0 0 0 0 0 0 0 0 --:--:-- --:--:-- --:--:-- 0 100 384 100 384 0 0 2823 0 --:--:-- --:--:-- --:--:-- 2802 From sinton@wam-2.localdomain Mon May 10 05:06:32 2021 Return-Path: X-Original-To: sinton Delivered-To: sinton@wam-2.localdomain Received: by wam-2.localdomain (Postfix, from userid 1001) id E435239A8C; Mon, 10 May 2021 05:06:32 -0400 (EDT) From: root@wam-2.localdomain (Cron Daemon) To: sinton@wam-2.localdomain Subject: Cron bash -c "sleep $[RANDOM%30]m" ; ~/symlinks/TEAM1N/fcst/startfcstclim.sh 1n > /dev/null MIME-Version: 1.0 Content-Type: text/plain; charset=UTF-8 Content-Transfer-Encoding: 8bit X-Cron-Env: X-Cron-Env: X-Cron-Env: X-Cron-Env: Message-Id: <20210510090632.E435239A8C@wam-2.localdomain> Date: Mon, 10 May 2021 05:06:32 -0400 (EDT) % Total % Received % Xferd Average Speed Time Time Time Current Dload Upload Total Spent Left Speed 0 0 0 0 0 0 0 0 --:--:-- --:--:-- --:--:-- 0 100 41886 100 41886 0 0 157k 0 --:--:-- --:--:-- --:--:-- 157k From sinton@wam-2.localdomain Mon May 10 05:07:02 2021 Return-Path: X-Original-To: sinton Delivered-To: sinton@wam-2.localdomain Received: by wam-2.localdomain (Postfix, from userid 1001) id 223D139A95; Mon, 10 May 2021 05:07:02 -0400 (EDT) From: root@wam-2.localdomain (Cron Daemon) To: sinton@wam-2.localdomain Subject: Cron ~/symlinks/TEAM99/ogoakinitchka2.sh 99 0.05 > /dev/null MIME-Version: 1.0 Content-Type: text/plain; charset=UTF-8 Content-Transfer-Encoding: 8bit X-Cron-Env: X-Cron-Env: X-Cron-Env: X-Cron-Env: Message-Id: <20210510090702.223D139A95@wam-2.localdomain> Date: Mon, 10 May 2021 05:07:02 -0400 (EDT) /bin/sh: 1: /home/sinton/symlinks/TEAM99/ogoakinitchka2.sh: not found From sinton@wam-2.localdomain Mon May 10 05:07:02 2021 Return-Path: X-Original-To: sinton Delivered-To: sinton@wam-2.localdomain Received: by wam-2.localdomain (Postfix, from userid 1001) id 3901339A95; Mon, 10 May 2021 05:07:02 -0400 (EDT) From: root@wam-2.localdomain (Cron Daemon) To: sinton@wam-2.localdomain Subject: Cron ~/symlinks/TEAM1F/metin/apiv4.sh 1f > /dev/null MIME-Version: 1.0 Content-Type: text/plain; charset=UTF-8 Content-Transfer-Encoding: 8bit X-Cron-Env: X-Cron-Env: X-Cron-Env: X-Cron-Env: Message-Id: <20210510090702.3901339A95@wam-2.localdomain> Date: Mon, 10 May 2021 05:07:02 -0400 (EDT) % Total % Received % Xferd Average Speed Time Time Time Current Dload Upload Total Spent Left Speed 0 0 0 0 0 0 0 0 --:--:-- --:--:-- --:--:-- 0 100 384 100 384 0 0 5120 0 --:--:-- --:--:-- --:--:-- 5120 From sinton@wam-2.localdomain Mon May 10 05:08:01 2021 Return-Path: X-Original-To: sinton Delivered-To: sinton@wam-2.localdomain Received: by wam-2.localdomain (Postfix, from userid 1001) id 6A20439A90; Mon, 10 May 2021 05:08:01 -0400 (EDT) From: root@wam-2.localdomain (Cron Daemon) To: sinton@wam-2.localdomain Subject: Cron ~/symlinks/TEAM99/ogoakinitchka2.sh 99 0.05 > /dev/null MIME-Version: 1.0 Content-Type: text/plain; charset=UTF-8 Content-Transfer-Encoding: 8bit X-Cron-Env: X-Cron-Env: X-Cron-Env: X-Cron-Env: Message-Id: <20210510090801.6A20439A90@wam-2.localdomain> Date: Mon, 10 May 2021 05:08:01 -0400 (EDT) /bin/sh: 1: /home/sinton/symlinks/TEAM99/ogoakinitchka2.sh: not found From sinton@wam-2.localdomain Mon May 10 05:08:01 2021 Return-Path: X-Original-To: sinton Delivered-To: sinton@wam-2.localdomain Received: by wam-2.localdomain (Postfix, from userid 1001) id 7CBC239A90; Mon, 10 May 2021 05:08:01 -0400 (EDT) From: root@wam-2.localdomain (Cron Daemon) To: sinton@wam-2.localdomain Subject: Cron ~/symlinks/TEAM1F/metin/apiv4.sh 1f > /dev/null MIME-Version: 1.0 Content-Type: text/plain; charset=UTF-8 Content-Transfer-Encoding: 8bit X-Cron-Env: X-Cron-Env: X-Cron-Env: X-Cron-Env: Message-Id: <20210510090801.7CBC239A90@wam-2.localdomain> Date: Mon, 10 May 2021 05:08:01 -0400 (EDT) % Total % Received % Xferd Average Speed Time Time Time Current Dload Upload Total Spent Left Speed 0 0 0 0 0 0 0 0 --:--:-- --:--:-- --:--:-- 0 100 385 100 385 0 0 6111 0 --:--:-- --:--:-- --:--:-- 6111 From sinton@wam-2.localdomain Mon May 10 05:09:01 2021 Return-Path: X-Original-To: sinton Delivered-To: sinton@wam-2.localdomain Received: by wam-2.localdomain (Postfix, from userid 1001) id B140639A9D; Mon, 10 May 2021 05:09:01 -0400 (EDT) From: root@wam-2.localdomain (Cron Daemon) To: sinton@wam-2.localdomain Subject: Cron ~/symlinks/TEAM99/ogoakinitchka2.sh 99 0.05 > /dev/null MIME-Version: 1.0 Content-Type: text/plain; charset=UTF-8 Content-Transfer-Encoding: 8bit X-Cron-Env: X-Cron-Env: X-Cron-Env: X-Cron-Env: Message-Id: <20210510090901.B140639A9D@wam-2.localdomain> Date: Mon, 10 May 2021 05:09:01 -0400 (EDT) /bin/sh: 1: /home/sinton/symlinks/TEAM99/ogoakinitchka2.sh: not found From sinton@wam-2.localdomain Mon May 10 05:09:01 2021 Return-Path: X-Original-To: sinton Delivered-To: sinton@wam-2.localdomain Received: by wam-2.localdomain (Postfix, from userid 1001) id CB9CD39A9D; Mon, 10 May 2021 05:09:01 -0400 (EDT) From: root@wam-2.localdomain (Cron Daemon) To: sinton@wam-2.localdomain Subject: Cron ~/symlinks/TEAM1F/metin/apiv4.sh 1f > /dev/null MIME-Version: 1.0 Content-Type: text/plain; charset=UTF-8 Content-Transfer-Encoding: 8bit X-Cron-Env: X-Cron-Env: X-Cron-Env: X-Cron-Env: Message-Id: <20210510090901.CB9CD39A9D@wam-2.localdomain> Date: Mon, 10 May 2021 05:09:01 -0400 (EDT) % Total % Received % Xferd Average Speed Time Time Time Current Dload Upload Total Spent Left Speed 0 0 0 0 0 0 0 0 --:--:-- --:--:-- --:--:-- 0 100 384 100 384 0 0 4085 0 --:--:-- --:--:-- --:--:-- 4085 From sinton@wam-2.localdomain Mon May 10 05:10:02 2021 Return-Path: X-Original-To: sinton Delivered-To: sinton@wam-2.localdomain Received: by wam-2.localdomain (Postfix, from userid 1001) id 08E8C39A9F; Mon, 10 May 2021 05:10:02 -0400 (EDT) From: root@wam-2.localdomain (Cron Daemon) To: sinton@wam-2.localdomain Subject: Cron ~/symlinks/TEAM99/ogoakinitchka2.sh 99 0.05 > /dev/null MIME-Version: 1.0 Content-Type: text/plain; charset=UTF-8 Content-Transfer-Encoding: 8bit X-Cron-Env: X-Cron-Env: X-Cron-Env: X-Cron-Env: Message-Id: <20210510091002.08E8C39A9F@wam-2.localdomain> Date: Mon, 10 May 2021 05:10:02 -0400 (EDT) /bin/sh: 1: /home/sinton/symlinks/TEAM99/ogoakinitchka2.sh: not found From sinton@wam-2.localdomain Mon May 10 05:10:02 2021 Return-Path: X-Original-To: sinton Delivered-To: sinton@wam-2.localdomain Received: by wam-2.localdomain (Postfix, from userid 1001) id 1BB8539A9F; Mon, 10 May 2021 05:10:02 -0400 (EDT) From: root@wam-2.localdomain (Cron Daemon) To: sinton@wam-2.localdomain Subject: Cron ~/symlinks/TEAM1F/metin/apiv4.sh 1f > /dev/null MIME-Version: 1.0 Content-Type: text/plain; charset=UTF-8 Content-Transfer-Encoding: 8bit X-Cron-Env: X-Cron-Env: X-Cron-Env: X-Cron-Env: Message-Id: <20210510091002.1BB8539A9F@wam-2.localdomain> Date: Mon, 10 May 2021 05:10:02 -0400 (EDT) % Total % Received % Xferd Average Speed Time Time Time Current Dload Upload Total Spent Left Speed 0 0 0 0 0 0 0 0 --:--:-- --:--:-- --:--:-- 0 100 385 100 385 0 0 3850 0 --:--:-- --:--:-- --:--:-- 8191 From sinton@wam-2.localdomain Mon May 10 05:11:01 2021 Return-Path: X-Original-To: sinton Delivered-To: sinton@wam-2.localdomain Received: by wam-2.localdomain (Postfix, from userid 1001) id 633E139A19; Mon, 10 May 2021 05:11:01 -0400 (EDT) From: root@wam-2.localdomain (Cron Daemon) To: sinton@wam-2.localdomain Subject: Cron ~/symlinks/TEAM99/ogoakinitchka2.sh 99 0.05 > /dev/null MIME-Version: 1.0 Content-Type: text/plain; charset=UTF-8 Content-Transfer-Encoding: 8bit X-Cron-Env: X-Cron-Env: X-Cron-Env: X-Cron-Env: Message-Id: <20210510091101.633E139A19@wam-2.localdomain> Date: Mon, 10 May 2021 05:11:01 -0400 (EDT) /bin/sh: 1: /home/sinton/symlinks/TEAM99/ogoakinitchka2.sh: not found From sinton@wam-2.localdomain Mon May 10 05:11:01 2021 Return-Path: X-Original-To: sinton Delivered-To: sinton@wam-2.localdomain Received: by wam-2.localdomain (Postfix, from userid 1001) id 7394139A19; Mon, 10 May 2021 05:11:01 -0400 (EDT) From: root@wam-2.localdomain (Cron Daemon) To: sinton@wam-2.localdomain Subject: Cron ~/symlinks/TEAM1F/metin/apiv4.sh 1f > /dev/null MIME-Version: 1.0 Content-Type: text/plain; charset=UTF-8 Content-Transfer-Encoding: 8bit X-Cron-Env: X-Cron-Env: X-Cron-Env: X-Cron-Env: Message-Id: <20210510091101.7394139A19@wam-2.localdomain> Date: Mon, 10 May 2021 05:11:01 -0400 (EDT) % Total % Received % Xferd Average Speed Time Time Time Current Dload Upload Total Spent Left Speed 0 0 0 0 0 0 0 0 --:--:-- --:--:-- --:--:-- 0 100 384 100 384 0 0 4413 0 --:--:-- --:--:-- --:--:-- 4413 From sinton@wam-2.localdomain Mon May 10 05:12:01 2021 Return-Path: X-Original-To: sinton Delivered-To: sinton@wam-2.localdomain Received: by wam-2.localdomain (Postfix, from userid 1001) id AC3B239A8E; Mon, 10 May 2021 05:12:01 -0400 (EDT) From: root@wam-2.localdomain (Cron Daemon) To: sinton@wam-2.localdomain Subject: Cron ~/symlinks/TEAM99/ogoakinitchka2.sh 99 0.05 > /dev/null MIME-Version: 1.0 Content-Type: text/plain; charset=UTF-8 Content-Transfer-Encoding: 8bit X-Cron-Env: X-Cron-Env: X-Cron-Env: X-Cron-Env: Message-Id: <20210510091201.AC3B239A8E@wam-2.localdomain> Date: Mon, 10 May 2021 05:12:01 -0400 (EDT) /bin/sh: 1: /home/sinton/symlinks/TEAM99/ogoakinitchka2.sh: not found From sinton@wam-2.localdomain Mon May 10 05:12:01 2021 Return-Path: X-Original-To: sinton Delivered-To: sinton@wam-2.localdomain Received: by wam-2.localdomain (Postfix, from userid 1001) id BE02F39756; Mon, 10 May 2021 05:12:01 -0400 (EDT) From: root@wam-2.localdomain (Cron Daemon) To: sinton@wam-2.localdomain Subject: Cron ~/symlinks/TEAM1F/metin/apiv4.sh 1f > /dev/null MIME-Version: 1.0 Content-Type: text/plain; charset=UTF-8 Content-Transfer-Encoding: 8bit X-Cron-Env: X-Cron-Env: X-Cron-Env: X-Cron-Env: Message-Id: <20210510091201.BE02F39756@wam-2.localdomain> Date: Mon, 10 May 2021 05:12:01 -0400 (EDT) % Total % Received % Xferd Average Speed Time Time Time Current Dload Upload Total Spent Left Speed 0 0 0 0 0 0 0 0 --:--:-- --:--:-- --:--:-- 0 100 384 100 384 0 0 5818 0 --:--:-- --:--:-- --:--:-- 5818 From sinton@wam-2.localdomain Mon May 10 05:13:02 2021 Return-Path: X-Original-To: sinton Delivered-To: sinton@wam-2.localdomain Received: by wam-2.localdomain (Postfix, from userid 1001) id 0DAA139AB5; Mon, 10 May 2021 05:13:02 -0400 (EDT) From: root@wam-2.localdomain (Cron Daemon) To: sinton@wam-2.localdomain Subject: Cron ~/symlinks/TEAM99/ogoakinitchka2.sh 99 0.05 > /dev/null MIME-Version: 1.0 Content-Type: text/plain; charset=UTF-8 Content-Transfer-Encoding: 8bit X-Cron-Env: X-Cron-Env: X-Cron-Env: X-Cron-Env: Message-Id: <20210510091302.0DAA139AB5@wam-2.localdomain> Date: Mon, 10 May 2021 05:13:02 -0400 (EDT) /bin/sh: 1: /home/sinton/symlinks/TEAM99/ogoakinitchka2.sh: not found From sinton@wam-2.localdomain Mon May 10 05:13:02 2021 Return-Path: X-Original-To: sinton Delivered-To: sinton@wam-2.localdomain Received: by wam-2.localdomain (Postfix, from userid 1001) id 1CFC439AB5; Mon, 10 May 2021 05:13:02 -0400 (EDT) From: root@wam-2.localdomain (Cron Daemon) To: sinton@wam-2.localdomain Subject: Cron ~/symlinks/TEAM1F/metin/apiv4.sh 1f > /dev/null MIME-Version: 1.0 Content-Type: text/plain; charset=UTF-8 Content-Transfer-Encoding: 8bit X-Cron-Env: X-Cron-Env: X-Cron-Env: X-Cron-Env: Message-Id: <20210510091302.1CFC439AB5@wam-2.localdomain> Date: Mon, 10 May 2021 05:13:02 -0400 (EDT) % Total % Received % Xferd Average Speed Time Time Time Current Dload Upload Total Spent Left Speed 0 0 0 0 0 0 0 0 --:--:-- --:--:-- --:--:-- 0 100 384 100 384 0 0 4740 0 --:--:-- --:--:-- --:--:-- 4740 From sinton@wam-2.localdomain Mon May 10 05:13:24 2021 Return-Path: X-Original-To: sinton Delivered-To: sinton@wam-2.localdomain Received: by wam-2.localdomain (Postfix, from userid 1001) id CBCDF39A9D; Mon, 10 May 2021 05:13:24 -0400 (EDT) From: root@wam-2.localdomain (Cron Daemon) To: sinton@wam-2.localdomain Subject: Cron bash -c "sleep $[RANDOM%30]m" ; ~/symlinks/TEAM2/fcst/startfcstclim.sh 2 > /dev/null MIME-Version: 1.0 Content-Type: text/plain; charset=UTF-8 Content-Transfer-Encoding: 8bit X-Cron-Env: X-Cron-Env: X-Cron-Env: X-Cron-Env: Message-Id: <20210510091324.CBCDF39A9D@wam-2.localdomain> Date: Mon, 10 May 2021 05:13:24 -0400 (EDT) % Total % Received % Xferd Average Speed Time Time Time Current Dload Upload Total Spent Left Speed 0 0 0 0 0 0 0 0 --:--:-- --:--:-- --:--:-- 0 100 41805 100 41805 0 0 213k 0 --:--:-- --:--:-- --:--:-- 213k From sinton@wam-2.localdomain Mon May 10 05:14:02 2021 Return-Path: X-Original-To: sinton Delivered-To: sinton@wam-2.localdomain Received: by wam-2.localdomain (Postfix, from userid 1001) id 1743E39AA9; Mon, 10 May 2021 05:14:02 -0400 (EDT) From: root@wam-2.localdomain (Cron Daemon) To: sinton@wam-2.localdomain Subject: Cron ~/symlinks/TEAM99/ogoakinitchka2.sh 99 0.05 > /dev/null MIME-Version: 1.0 Content-Type: text/plain; charset=UTF-8 Content-Transfer-Encoding: 8bit X-Cron-Env: X-Cron-Env: X-Cron-Env: X-Cron-Env: Message-Id: <20210510091402.1743E39AA9@wam-2.localdomain> Date: Mon, 10 May 2021 05:14:02 -0400 (EDT) /bin/sh: 1: /home/sinton/symlinks/TEAM99/ogoakinitchka2.sh: not found From sinton@wam-2.localdomain Mon May 10 05:14:02 2021 Return-Path: X-Original-To: sinton Delivered-To: sinton@wam-2.localdomain Received: by wam-2.localdomain (Postfix, from userid 1001) id 2608239AA9; Mon, 10 May 2021 05:14:02 -0400 (EDT) From: root@wam-2.localdomain (Cron Daemon) To: sinton@wam-2.localdomain Subject: Cron ~/symlinks/TEAM1F/metin/apiv4.sh 1f > /dev/null MIME-Version: 1.0 Content-Type: text/plain; charset=UTF-8 Content-Transfer-Encoding: 8bit X-Cron-Env: X-Cron-Env: X-Cron-Env: X-Cron-Env: Message-Id: <20210510091402.2608239AA9@wam-2.localdomain> Date: Mon, 10 May 2021 05:14:02 -0400 (EDT) % Total % Received % Xferd Average Speed Time Time Time Current Dload Upload Total Spent Left Speed 0 0 0 0 0 0 0 0 --:--:-- --:--:-- --:--:-- 0 100 384 100 384 0 0 4626 0 --:--:-- --:--:-- --:--:-- 4626 From sinton@wam-2.localdomain Mon May 10 05:15:01 2021 Return-Path: X-Original-To: sinton Delivered-To: sinton@wam-2.localdomain Received: by wam-2.localdomain (Postfix, from userid 1001) id 67FC939A96; Mon, 10 May 2021 05:15:01 -0400 (EDT) From: root@wam-2.localdomain (Cron Daemon) To: sinton@wam-2.localdomain Subject: Cron ~/symlinks/TEAM99/ogoakinitchka2.sh 99 0.05 > /dev/null MIME-Version: 1.0 Content-Type: text/plain; charset=UTF-8 Content-Transfer-Encoding: 8bit X-Cron-Env: X-Cron-Env: X-Cron-Env: X-Cron-Env: Message-Id: <20210510091501.67FC939A96@wam-2.localdomain> Date: Mon, 10 May 2021 05:15:01 -0400 (EDT) /bin/sh: 1: /home/sinton/symlinks/TEAM99/ogoakinitchka2.sh: not found From sinton@wam-2.localdomain Mon May 10 05:15:01 2021 Return-Path: X-Original-To: sinton Delivered-To: sinton@wam-2.localdomain Received: by wam-2.localdomain (Postfix, from userid 1001) id 7743739AAB; Mon, 10 May 2021 05:15:01 -0400 (EDT) From: root@wam-2.localdomain (Cron Daemon) To: sinton@wam-2.localdomain Subject: Cron ~/symlinks/TEAM1F/metin/apiv4.sh 1f > /dev/null MIME-Version: 1.0 Content-Type: text/plain; charset=UTF-8 Content-Transfer-Encoding: 8bit X-Cron-Env: X-Cron-Env: X-Cron-Env: X-Cron-Env: Message-Id: <20210510091501.7743739AAB@wam-2.localdomain> Date: Mon, 10 May 2021 05:15:01 -0400 (EDT) % Total % Received % Xferd Average Speed Time Time Time Current Dload Upload Total Spent Left Speed 0 0 0 0 0 0 0 0 --:--:-- --:--:-- --:--:-- 0 100 385 100 385 0 0 5422 0 --:--:-- --:--:-- --:--:-- 5422 From sinton@wam-2.localdomain Mon May 10 05:15:17 2021 Return-Path: X-Original-To: sinton Delivered-To: sinton@wam-2.localdomain Received: by wam-2.localdomain (Postfix, from userid 1001) id 1A96139A8E; Mon, 10 May 2021 05:15:17 -0400 (EDT) From: root@wam-2.localdomain (Cron Daemon) To: sinton@wam-2.localdomain Subject: Cron bash -c "sleep $[RANDOM%30]m" ; ~/symlinks/TEAM1/fcst/startfcstclim.sh 1 > /dev/null MIME-Version: 1.0 Content-Type: text/plain; charset=UTF-8 Content-Transfer-Encoding: 8bit X-Cron-Env: X-Cron-Env: X-Cron-Env: X-Cron-Env: Message-Id: <20210510091517.1A96139A8E@wam-2.localdomain> Date: Mon, 10 May 2021 05:15:17 -0400 (EDT) % Total % Received % Xferd Average Speed Time Time Time Current Dload Upload Total Spent Left Speed 0 0 0 0 0 0 0 0 --:--:-- --:--:-- --:--:-- 0 100 41733 100 41733 0 0 211k 0 --:--:-- --:--:-- --:--:-- 211k From sinton@wam-2.localdomain Mon May 10 05:16:01 2021 Return-Path: X-Original-To: sinton Delivered-To: sinton@wam-2.localdomain Received: by wam-2.localdomain (Postfix, from userid 1001) id 65C4139AAF; Mon, 10 May 2021 05:16:01 -0400 (EDT) From: root@wam-2.localdomain (Cron Daemon) To: sinton@wam-2.localdomain Subject: Cron ~/symlinks/TEAM99/ogoakinitchka2.sh 99 0.05 > /dev/null MIME-Version: 1.0 Content-Type: text/plain; charset=UTF-8 Content-Transfer-Encoding: 8bit X-Cron-Env: X-Cron-Env: X-Cron-Env: X-Cron-Env: Message-Id: <20210510091601.65C4139AAF@wam-2.localdomain> Date: Mon, 10 May 2021 05:16:01 -0400 (EDT) /bin/sh: 1: /home/sinton/symlinks/TEAM99/ogoakinitchka2.sh: not found From sinton@wam-2.localdomain Mon May 10 05:16:01 2021 Return-Path: X-Original-To: sinton Delivered-To: sinton@wam-2.localdomain Received: by wam-2.localdomain (Postfix, from userid 1001) id 7239939AAF; Mon, 10 May 2021 05:16:01 -0400 (EDT) From: root@wam-2.localdomain (Cron Daemon) To: sinton@wam-2.localdomain Subject: Cron ~/symlinks/TEAM1F/metin/apiv4.sh 1f > /dev/null MIME-Version: 1.0 Content-Type: text/plain; charset=UTF-8 Content-Transfer-Encoding: 8bit X-Cron-Env: X-Cron-Env: X-Cron-Env: X-Cron-Env: Message-Id: <20210510091601.7239939AAF@wam-2.localdomain> Date: Mon, 10 May 2021 05:16:01 -0400 (EDT) % Total % Received % Xferd Average Speed Time Time Time Current Dload Upload Total Spent Left Speed 0 0 0 0 0 0 0 0 --:--:-- --:--:-- --:--:-- 0 100 384 100 384 0 0 6400 0 --:--:-- --:--:-- --:--:-- 6400 From sinton@wam-2.localdomain Mon May 10 05:17:01 2021 Return-Path: X-Original-To: sinton Delivered-To: sinton@wam-2.localdomain Received: by wam-2.localdomain (Postfix, from userid 1001) id A9B5F39AAB; Mon, 10 May 2021 05:17:01 -0400 (EDT) From: root@wam-2.localdomain (Cron Daemon) To: sinton@wam-2.localdomain Subject: Cron ~/symlinks/TEAM99/ogoakinitchka2.sh 99 0.05 > /dev/null MIME-Version: 1.0 Content-Type: text/plain; charset=UTF-8 Content-Transfer-Encoding: 8bit X-Cron-Env: X-Cron-Env: X-Cron-Env: X-Cron-Env: Message-Id: <20210510091701.A9B5F39AAB@wam-2.localdomain> Date: Mon, 10 May 2021 05:17:01 -0400 (EDT) /bin/sh: 1: /home/sinton/symlinks/TEAM99/ogoakinitchka2.sh: not found From sinton@wam-2.localdomain Mon May 10 05:17:01 2021 Return-Path: X-Original-To: sinton Delivered-To: sinton@wam-2.localdomain Received: by wam-2.localdomain (Postfix, from userid 1001) id BDC6B39AB5; Mon, 10 May 2021 05:17:01 -0400 (EDT) From: root@wam-2.localdomain (Cron Daemon) To: sinton@wam-2.localdomain Subject: Cron ~/symlinks/TEAM1F/metin/apiv4.sh 1f > /dev/null MIME-Version: 1.0 Content-Type: text/plain; charset=UTF-8 Content-Transfer-Encoding: 8bit X-Cron-Env: X-Cron-Env: X-Cron-Env: X-Cron-Env: Message-Id: <20210510091701.BDC6B39AB5@wam-2.localdomain> Date: Mon, 10 May 2021 05:17:01 -0400 (EDT) % Total % Received % Xferd Average Speed Time Time Time Current Dload Upload Total Spent Left Speed 0 0 0 0 0 0 0 0 --:--:-- --:--:-- --:--:-- 0 100 384 100 384 0 0 4042 0 --:--:-- --:--:-- --:--:-- 4042 From sinton@wam-2.localdomain Mon May 10 05:18:01 2021 Return-Path: X-Original-To: sinton Delivered-To: sinton@wam-2.localdomain Received: by wam-2.localdomain (Postfix, from userid 1001) id F049F39AB6; Mon, 10 May 2021 05:18:01 -0400 (EDT) From: root@wam-2.localdomain (Cron Daemon) To: sinton@wam-2.localdomain Subject: Cron ~/symlinks/TEAM99/ogoakinitchka2.sh 99 0.05 > /dev/null MIME-Version: 1.0 Content-Type: text/plain; charset=UTF-8 Content-Transfer-Encoding: 8bit X-Cron-Env: X-Cron-Env: X-Cron-Env: X-Cron-Env: Message-Id: <20210510091801.F049F39AB6@wam-2.localdomain> Date: Mon, 10 May 2021 05:18:01 -0400 (EDT) /bin/sh: 1: /home/sinton/symlinks/TEAM99/ogoakinitchka2.sh: not found From sinton@wam-2.localdomain Mon May 10 05:18:02 2021 Return-Path: X-Original-To: sinton Delivered-To: sinton@wam-2.localdomain Received: by wam-2.localdomain (Postfix, from userid 1001) id 12FD339AB6; Mon, 10 May 2021 05:18:02 -0400 (EDT) From: root@wam-2.localdomain (Cron Daemon) To: sinton@wam-2.localdomain Subject: Cron ~/symlinks/TEAM1F/metin/apiv4.sh 1f > /dev/null MIME-Version: 1.0 Content-Type: text/plain; charset=UTF-8 Content-Transfer-Encoding: 8bit X-Cron-Env: X-Cron-Env: X-Cron-Env: X-Cron-Env: Message-Id: <20210510091802.12FD339AB6@wam-2.localdomain> Date: Mon, 10 May 2021 05:18:02 -0400 (EDT) % Total % Received % Xferd Average Speed Time Time Time Current Dload Upload Total Spent Left Speed 0 0 0 0 0 0 0 0 --:--:-- --:--:-- --:--:-- 0 100 385 100 385 0 0 7857 0 --:--:-- --:--:-- --:--:-- 7857 From sinton@wam-2.localdomain Mon May 10 05:19:01 2021 Return-Path: X-Original-To: sinton Delivered-To: sinton@wam-2.localdomain Received: by wam-2.localdomain (Postfix, from userid 1001) id 4AFBD39AB5; Mon, 10 May 2021 05:19:01 -0400 (EDT) From: root@wam-2.localdomain (Cron Daemon) To: sinton@wam-2.localdomain Subject: Cron ~/symlinks/TEAM99/ogoakinitchka2.sh 99 0.05 > /dev/null MIME-Version: 1.0 Content-Type: text/plain; charset=UTF-8 Content-Transfer-Encoding: 8bit X-Cron-Env: X-Cron-Env: X-Cron-Env: X-Cron-Env: Message-Id: <20210510091901.4AFBD39AB5@wam-2.localdomain> Date: Mon, 10 May 2021 05:19:01 -0400 (EDT) /bin/sh: 1: /home/sinton/symlinks/TEAM99/ogoakinitchka2.sh: not found From sinton@wam-2.localdomain Mon May 10 05:19:01 2021 Return-Path: X-Original-To: sinton Delivered-To: sinton@wam-2.localdomain Received: by wam-2.localdomain (Postfix, from userid 1001) id 5C18A39AB5; Mon, 10 May 2021 05:19:01 -0400 (EDT) From: root@wam-2.localdomain (Cron Daemon) To: sinton@wam-2.localdomain Subject: Cron ~/symlinks/TEAM1F/metin/apiv4.sh 1f > /dev/null MIME-Version: 1.0 Content-Type: text/plain; charset=UTF-8 Content-Transfer-Encoding: 8bit X-Cron-Env: X-Cron-Env: X-Cron-Env: X-Cron-Env: Message-Id: <20210510091901.5C18A39AB5@wam-2.localdomain> Date: Mon, 10 May 2021 05:19:01 -0400 (EDT) % Total % Received % Xferd Average Speed Time Time Time Current Dload Upload Total Spent Left Speed 0 0 0 0 0 0 0 0 --:--:-- --:--:-- --:--:-- 0 100 385 100 385 0 0 5833 0 --:--:-- --:--:-- --:--:-- 5833 From sinton@wam-2.localdomain Mon May 10 05:20:01 2021 Return-Path: X-Original-To: sinton Delivered-To: sinton@wam-2.localdomain Received: by wam-2.localdomain (Postfix, from userid 1001) id 8996A39BC9; Mon, 10 May 2021 05:20:01 -0400 (EDT) From: root@wam-2.localdomain (Cron Daemon) To: sinton@wam-2.localdomain Subject: Cron ~/symlinks/TEAM99/ogoakinitchka2.sh 99 0.05 > /dev/null MIME-Version: 1.0 Content-Type: text/plain; charset=UTF-8 Content-Transfer-Encoding: 8bit X-Cron-Env: X-Cron-Env: X-Cron-Env: X-Cron-Env: Message-Id: <20210510092001.8996A39BC9@wam-2.localdomain> Date: Mon, 10 May 2021 05:20:01 -0400 (EDT) /bin/sh: 1: /home/sinton/symlinks/TEAM99/ogoakinitchka2.sh: not found From sinton@wam-2.localdomain Mon May 10 05:20:01 2021 Return-Path: X-Original-To: sinton Delivered-To: sinton@wam-2.localdomain Received: by wam-2.localdomain (Postfix, from userid 1001) id 9F97B39BC9; Mon, 10 May 2021 05:20:01 -0400 (EDT) From: root@wam-2.localdomain (Cron Daemon) To: sinton@wam-2.localdomain Subject: Cron ~/symlinks/TEAM1F/metin/apiv4.sh 1f > /dev/null MIME-Version: 1.0 Content-Type: text/plain; charset=UTF-8 Content-Transfer-Encoding: 8bit X-Cron-Env: X-Cron-Env: X-Cron-Env: X-Cron-Env: Message-Id: <20210510092001.9F97B39BC9@wam-2.localdomain> Date: Mon, 10 May 2021 05:20:01 -0400 (EDT) % Total % Received % Xferd Average Speed Time Time Time Current Dload Upload Total Spent Left Speed 0 0 0 0 0 0 0 0 --:--:-- --:--:-- --:--:-- 0 100 384 100 384 0 0 6000 0 --:--:-- --:--:-- --:--:-- 6000 From sinton@wam-2.localdomain Mon May 10 05:21:01 2021 Return-Path: X-Original-To: sinton Delivered-To: sinton@wam-2.localdomain Received: by wam-2.localdomain (Postfix, from userid 1001) id E4F8939BB2; Mon, 10 May 2021 05:21:01 -0400 (EDT) From: root@wam-2.localdomain (Cron Daemon) To: sinton@wam-2.localdomain Subject: Cron ~/symlinks/TEAM99/ogoakinitchka2.sh 99 0.05 > /dev/null MIME-Version: 1.0 Content-Type: text/plain; charset=UTF-8 Content-Transfer-Encoding: 8bit X-Cron-Env: X-Cron-Env: X-Cron-Env: X-Cron-Env: Message-Id: <20210510092101.E4F8939BB2@wam-2.localdomain> Date: Mon, 10 May 2021 05:21:01 -0400 (EDT) /bin/sh: 1: /home/sinton/symlinks/TEAM99/ogoakinitchka2.sh: not found From sinton@wam-2.localdomain Mon May 10 05:21:01 2021 Return-Path: X-Original-To: sinton Delivered-To: sinton@wam-2.localdomain Received: by wam-2.localdomain (Postfix, from userid 1001) id F0B1439BC2; Mon, 10 May 2021 05:21:01 -0400 (EDT) From: root@wam-2.localdomain (Cron Daemon) To: sinton@wam-2.localdomain Subject: Cron ~/symlinks/TEAM1F/metin/apiv4.sh 1f > /dev/null MIME-Version: 1.0 Content-Type: text/plain; charset=UTF-8 Content-Transfer-Encoding: 8bit X-Cron-Env: X-Cron-Env: X-Cron-Env: X-Cron-Env: Message-Id: <20210510092101.F0B1439BC2@wam-2.localdomain> Date: Mon, 10 May 2021 05:21:01 -0400 (EDT) % Total % Received % Xferd Average Speed Time Time Time Current Dload Upload Total Spent Left Speed 0 0 0 0 0 0 0 0 --:--:-- --:--:-- --:--:-- 0 100 384 100 384 0 0 8000 0 --:--:-- --:--:-- --:--:-- 8000 From sinton@wam-2.localdomain Mon May 10 05:22:02 2021 Return-Path: X-Original-To: sinton Delivered-To: sinton@wam-2.localdomain Received: by wam-2.localdomain (Postfix, from userid 1001) id 32BC839BCE; Mon, 10 May 2021 05:22:02 -0400 (EDT) From: root@wam-2.localdomain (Cron Daemon) To: sinton@wam-2.localdomain Subject: Cron ~/symlinks/TEAM99/ogoakinitchka2.sh 99 0.05 > /dev/null MIME-Version: 1.0 Content-Type: text/plain; charset=UTF-8 Content-Transfer-Encoding: 8bit X-Cron-Env: X-Cron-Env: X-Cron-Env: X-Cron-Env: Message-Id: <20210510092202.32BC839BCE@wam-2.localdomain> Date: Mon, 10 May 2021 05:22:02 -0400 (EDT) /bin/sh: 1: /home/sinton/symlinks/TEAM99/ogoakinitchka2.sh: not found From sinton@wam-2.localdomain Mon May 10 05:22:04 2021 Return-Path: X-Original-To: sinton Delivered-To: sinton@wam-2.localdomain Received: by wam-2.localdomain (Postfix, from userid 1001) id 2840939BCE; Mon, 10 May 2021 05:22:04 -0400 (EDT) From: root@wam-2.localdomain (Cron Daemon) To: sinton@wam-2.localdomain Subject: Cron ~/symlinks/TEAM1F/metin/apiv4.sh 1f > /dev/null MIME-Version: 1.0 Content-Type: text/plain; charset=UTF-8 Content-Transfer-Encoding: 8bit X-Cron-Env: X-Cron-Env: X-Cron-Env: X-Cron-Env: Message-Id: <20210510092204.2840939BCE@wam-2.localdomain> Date: Mon, 10 May 2021 05:22:04 -0400 (EDT) % Total % Received % Xferd Average Speed Time Time Time Current Dload Upload Total Spent Left Speed 0 0 0 0 0 0 0 0 --:--:-- --:--:-- --:--:-- 0 0 0 0 0 0 0 0 0 --:--:-- 0:00:01 --:--:-- 0 0 0 0 0 0 0 0 0 --:--:-- 0:00:01 --:--:-- 0 100 384 100 384 0 0 195 0 0:00:01 0:00:01 --:--:-- 195 From sinton@wam-2.localdomain Mon May 10 05:23:01 2021 Return-Path: X-Original-To: sinton Delivered-To: sinton@wam-2.localdomain Received: by wam-2.localdomain (Postfix, from userid 1001) id 5B4A622675; Mon, 10 May 2021 05:23:01 -0400 (EDT) From: root@wam-2.localdomain (Cron Daemon) To: sinton@wam-2.localdomain Subject: Cron ~/symlinks/TEAM99/ogoakinitchka2.sh 99 0.05 > /dev/null MIME-Version: 1.0 Content-Type: text/plain; charset=UTF-8 Content-Transfer-Encoding: 8bit X-Cron-Env: X-Cron-Env: X-Cron-Env: X-Cron-Env: Message-Id: <20210510092301.5B4A622675@wam-2.localdomain> Date: Mon, 10 May 2021 05:23:01 -0400 (EDT) /bin/sh: 1: /home/sinton/symlinks/TEAM99/ogoakinitchka2.sh: not found From sinton@wam-2.localdomain Mon May 10 05:23:01 2021 Return-Path: X-Original-To: sinton Delivered-To: sinton@wam-2.localdomain Received: by wam-2.localdomain (Postfix, from userid 1001) id 6D4F722675; Mon, 10 May 2021 05:23:01 -0400 (EDT) From: root@wam-2.localdomain (Cron Daemon) To: sinton@wam-2.localdomain Subject: Cron ~/symlinks/TEAM1F/metin/apiv4.sh 1f > /dev/null MIME-Version: 1.0 Content-Type: text/plain; charset=UTF-8 Content-Transfer-Encoding: 8bit X-Cron-Env: X-Cron-Env: X-Cron-Env: X-Cron-Env: Message-Id: <20210510092301.6D4F722675@wam-2.localdomain> Date: Mon, 10 May 2021 05:23:01 -0400 (EDT) % Total % Received % Xferd Average Speed Time Time Time Current Dload Upload Total Spent Left Speed 0 0 0 0 0 0 0 0 --:--:-- --:--:-- --:--:-- 0 100 384 100 384 0 0 6508 0 --:--:-- --:--:-- --:--:-- 6508 From sinton@wam-2.localdomain Mon May 10 05:24:01 2021 Return-Path: X-Original-To: sinton Delivered-To: sinton@wam-2.localdomain Received: by wam-2.localdomain (Postfix, from userid 1001) id A04FA39A83; Mon, 10 May 2021 05:24:01 -0400 (EDT) From: root@wam-2.localdomain (Cron Daemon) To: sinton@wam-2.localdomain Subject: Cron ~/symlinks/TEAM99/ogoakinitchka2.sh 99 0.05 > /dev/null MIME-Version: 1.0 Content-Type: text/plain; charset=UTF-8 Content-Transfer-Encoding: 8bit X-Cron-Env: X-Cron-Env: X-Cron-Env: X-Cron-Env: Message-Id: <20210510092401.A04FA39A83@wam-2.localdomain> Date: Mon, 10 May 2021 05:24:01 -0400 (EDT) /bin/sh: 1: /home/sinton/symlinks/TEAM99/ogoakinitchka2.sh: not found From sinton@wam-2.localdomain Mon May 10 05:24:01 2021 Return-Path: X-Original-To: sinton Delivered-To: sinton@wam-2.localdomain Received: by wam-2.localdomain (Postfix, from userid 1001) id B043839A83; Mon, 10 May 2021 05:24:01 -0400 (EDT) From: root@wam-2.localdomain (Cron Daemon) To: sinton@wam-2.localdomain Subject: Cron ~/symlinks/TEAM1F/metin/apiv4.sh 1f > /dev/null MIME-Version: 1.0 Content-Type: text/plain; charset=UTF-8 Content-Transfer-Encoding: 8bit X-Cron-Env: X-Cron-Env: X-Cron-Env: X-Cron-Env: Message-Id: <20210510092401.B043839A83@wam-2.localdomain> Date: Mon, 10 May 2021 05:24:01 -0400 (EDT) % Total % Received % Xferd Average Speed Time Time Time Current Dload Upload Total Spent Left Speed 0 0 0 0 0 0 0 0 --:--:-- --:--:-- --:--:-- 0 100 384 100 384 0 0 6000 0 --:--:-- --:--:-- --:--:-- 6000 From sinton@wam-2.localdomain Mon May 10 05:25:01 2021 Return-Path: X-Original-To: sinton Delivered-To: sinton@wam-2.localdomain Received: by wam-2.localdomain (Postfix, from userid 1001) id ED13939BFA; Mon, 10 May 2021 05:25:01 -0400 (EDT) From: root@wam-2.localdomain (Cron Daemon) To: sinton@wam-2.localdomain Subject: Cron ~/symlinks/TEAM99/ogoakinitchka2.sh 99 0.05 > /dev/null MIME-Version: 1.0 Content-Type: text/plain; charset=UTF-8 Content-Transfer-Encoding: 8bit X-Cron-Env: X-Cron-Env: X-Cron-Env: X-Cron-Env: Message-Id: <20210510092501.ED13939BFA@wam-2.localdomain> Date: Mon, 10 May 2021 05:25:01 -0400 (EDT) /bin/sh: 1: /home/sinton/symlinks/TEAM99/ogoakinitchka2.sh: not found From sinton@wam-2.localdomain Mon May 10 05:25:02 2021 Return-Path: X-Original-To: sinton Delivered-To: sinton@wam-2.localdomain Received: by wam-2.localdomain (Postfix, from userid 1001) id 0DABD39BFA; Mon, 10 May 2021 05:25:02 -0400 (EDT) From: root@wam-2.localdomain (Cron Daemon) To: sinton@wam-2.localdomain Subject: Cron ~/symlinks/TEAM1F/metin/apiv4.sh 1f > /dev/null MIME-Version: 1.0 Content-Type: text/plain; charset=UTF-8 Content-Transfer-Encoding: 8bit X-Cron-Env: X-Cron-Env: X-Cron-Env: X-Cron-Env: Message-Id: <20210510092502.0DABD39BFA@wam-2.localdomain> Date: Mon, 10 May 2021 05:25:02 -0400 (EDT) % Total % Received % Xferd Average Speed Time Time Time Current Dload Upload Total Spent Left Speed 0 0 0 0 0 0 0 0 --:--:-- --:--:-- --:--:-- 0 100 384 100 384 0 0 4266 0 --:--:-- --:--:-- --:--:-- 4266 From sinton@wam-2.localdomain Mon May 10 05:26:01 2021 Return-Path: X-Original-To: sinton Delivered-To: sinton@wam-2.localdomain Received: by wam-2.localdomain (Postfix, from userid 1001) id 5427C39679; Mon, 10 May 2021 05:26:01 -0400 (EDT) From: root@wam-2.localdomain (Cron Daemon) To: sinton@wam-2.localdomain Subject: Cron ~/symlinks/TEAM99/ogoakinitchka2.sh 99 0.05 > /dev/null MIME-Version: 1.0 Content-Type: text/plain; charset=UTF-8 Content-Transfer-Encoding: 8bit X-Cron-Env: X-Cron-Env: X-Cron-Env: X-Cron-Env: Message-Id: <20210510092601.5427C39679@wam-2.localdomain> Date: Mon, 10 May 2021 05:26:01 -0400 (EDT) /bin/sh: 1: /home/sinton/symlinks/TEAM99/ogoakinitchka2.sh: not found From sinton@wam-2.localdomain Mon May 10 05:26:01 2021 Return-Path: X-Original-To: sinton Delivered-To: sinton@wam-2.localdomain Received: by wam-2.localdomain (Postfix, from userid 1001) id 6F18039679; Mon, 10 May 2021 05:26:01 -0400 (EDT) From: root@wam-2.localdomain (Cron Daemon) To: sinton@wam-2.localdomain Subject: Cron ~/symlinks/TEAM1F/metin/apiv4.sh 1f > /dev/null MIME-Version: 1.0 Content-Type: text/plain; charset=UTF-8 Content-Transfer-Encoding: 8bit X-Cron-Env: X-Cron-Env: X-Cron-Env: X-Cron-Env: Message-Id: <20210510092601.6F18039679@wam-2.localdomain> Date: Mon, 10 May 2021 05:26:01 -0400 (EDT) % Total % Received % Xferd Average Speed Time Time Time Current Dload Upload Total Spent Left Speed 0 0 0 0 0 0 0 0 --:--:-- --:--:-- --:--:-- 0 100 383 100 383 0 0 5039 0 --:--:-- --:--:-- --:--:-- 5039 From sinton@wam-2.localdomain Mon May 10 05:27:01 2021 Return-Path: X-Original-To: sinton Delivered-To: sinton@wam-2.localdomain Received: by wam-2.localdomain (Postfix, from userid 1001) id A39D839BCE; Mon, 10 May 2021 05:27:01 -0400 (EDT) From: root@wam-2.localdomain (Cron Daemon) To: sinton@wam-2.localdomain Subject: Cron ~/symlinks/TEAM99/ogoakinitchka2.sh 99 0.05 > /dev/null MIME-Version: 1.0 Content-Type: text/plain; charset=UTF-8 Content-Transfer-Encoding: 8bit X-Cron-Env: X-Cron-Env: X-Cron-Env: X-Cron-Env: Message-Id: <20210510092701.A39D839BCE@wam-2.localdomain> Date: Mon, 10 May 2021 05:27:01 -0400 (EDT) /bin/sh: 1: /home/sinton/symlinks/TEAM99/ogoakinitchka2.sh: not found From sinton@wam-2.localdomain Mon May 10 05:27:01 2021 Return-Path: X-Original-To: sinton Delivered-To: sinton@wam-2.localdomain Received: by wam-2.localdomain (Postfix, from userid 1001) id B9CF539BCE; Mon, 10 May 2021 05:27:01 -0400 (EDT) From: root@wam-2.localdomain (Cron Daemon) To: sinton@wam-2.localdomain Subject: Cron ~/symlinks/TEAM1F/metin/apiv4.sh 1f > /dev/null MIME-Version: 1.0 Content-Type: text/plain; charset=UTF-8 Content-Transfer-Encoding: 8bit X-Cron-Env: X-Cron-Env: X-Cron-Env: X-Cron-Env: Message-Id: <20210510092701.B9CF539BCE@wam-2.localdomain> Date: Mon, 10 May 2021 05:27:01 -0400 (EDT) % Total % Received % Xferd Average Speed Time Time Time Current Dload Upload Total Spent Left Speed 0 0 0 0 0 0 0 0 --:--:-- --:--:-- --:--:-- 0 100 384 100 384 0 0 4860 0 --:--:-- --:--:-- --:--:-- 4860 From sinton@wam-2.localdomain Mon May 10 05:27:26 2021 Return-Path: X-Original-To: sinton Delivered-To: sinton@wam-2.localdomain Received: by wam-2.localdomain (Postfix, from userid 1001) id 3F57D39146; Mon, 10 May 2021 05:27:26 -0400 (EDT) From: root@wam-2.localdomain (Cron Daemon) To: sinton@wam-2.localdomain Subject: Cron bash -c "sleep $[RANDOM%30]m" ; ~/symlinks/TEAM7/fcst/startfcstclim.sh 7 > /dev/null MIME-Version: 1.0 Content-Type: text/plain; charset=UTF-8 Content-Transfer-Encoding: 8bit X-Cron-Env: X-Cron-Env: X-Cron-Env: X-Cron-Env: Message-Id: <20210510092726.3F57D39146@wam-2.localdomain> Date: Mon, 10 May 2021 05:27:26 -0400 (EDT) % Total % Received % Xferd Average Speed Time Time Time Current Dload Upload Total Spent Left Speed 0 0 0 0 0 0 0 0 --:--:-- --:--:-- --:--:-- 0 100 41541 100 41541 0 0 177k 0 --:--:-- --:--:-- --:--:-- 177k From sinton@wam-2.localdomain Mon May 10 05:27:34 2021 Return-Path: X-Original-To: sinton Delivered-To: sinton@wam-2.localdomain Received: by wam-2.localdomain (Postfix, from userid 1001) id DC8CE39A0F; Mon, 10 May 2021 05:27:34 -0400 (EDT) From: root@wam-2.localdomain (Cron Daemon) To: sinton@wam-2.localdomain Subject: Cron bash -c "sleep $[RANDOM%30]m" ; ~/symlinks/TEAM8/fcst/startfcstclim.sh 8 > /dev/null MIME-Version: 1.0 Content-Type: text/plain; charset=UTF-8 Content-Transfer-Encoding: 8bit X-Cron-Env: X-Cron-Env: X-Cron-Env: X-Cron-Env: Message-Id: <20210510092734.DC8CE39A0F@wam-2.localdomain> Date: Mon, 10 May 2021 05:27:34 -0400 (EDT) % Total % Received % Xferd Average Speed Time Time Time Current Dload Upload Total Spent Left Speed 0 0 0 0 0 0 0 0 --:--:-- --:--:-- --:--:-- 0 100 41627 100 41627 0 0 125k 0 --:--:-- --:--:-- --:--:-- 125k From sinton@wam-2.localdomain Mon May 10 05:28:02 2021 Return-Path: X-Original-To: sinton Delivered-To: sinton@wam-2.localdomain Received: by wam-2.localdomain (Postfix, from userid 1001) id 1600739A89; Mon, 10 May 2021 05:28:02 -0400 (EDT) From: root@wam-2.localdomain (Cron Daemon) To: sinton@wam-2.localdomain Subject: Cron ~/symlinks/TEAM99/ogoakinitchka2.sh 99 0.05 > /dev/null MIME-Version: 1.0 Content-Type: text/plain; charset=UTF-8 Content-Transfer-Encoding: 8bit X-Cron-Env: X-Cron-Env: X-Cron-Env: X-Cron-Env: Message-Id: <20210510092802.1600739A89@wam-2.localdomain> Date: Mon, 10 May 2021 05:28:02 -0400 (EDT) /bin/sh: 1: /home/sinton/symlinks/TEAM99/ogoakinitchka2.sh: not found From sinton@wam-2.localdomain Mon May 10 05:28:02 2021 Return-Path: X-Original-To: sinton Delivered-To: sinton@wam-2.localdomain Received: by wam-2.localdomain (Postfix, from userid 1001) id 31E2E39A89; Mon, 10 May 2021 05:28:02 -0400 (EDT) From: root@wam-2.localdomain (Cron Daemon) To: sinton@wam-2.localdomain Subject: Cron ~/symlinks/TEAM1F/metin/apiv4.sh 1f > /dev/null MIME-Version: 1.0 Content-Type: text/plain; charset=UTF-8 Content-Transfer-Encoding: 8bit X-Cron-Env: X-Cron-Env: X-Cron-Env: X-Cron-Env: Message-Id: <20210510092802.31E2E39A89@wam-2.localdomain> Date: Mon, 10 May 2021 05:28:02 -0400 (EDT) % Total % Received % Xferd Average Speed Time Time Time Current Dload Upload Total Spent Left Speed 0 0 0 0 0 0 0 0 --:--:-- --:--:-- --:--:-- 0 100 385 100 385 0 0 4052 0 --:--:-- --:--:-- --:--:-- 4052 From sinton@wam-2.localdomain Mon May 10 05:29:01 2021 Return-Path: X-Original-To: sinton Delivered-To: sinton@wam-2.localdomain Received: by wam-2.localdomain (Postfix, from userid 1001) id 6732139A70; Mon, 10 May 2021 05:29:01 -0400 (EDT) From: root@wam-2.localdomain (Cron Daemon) To: sinton@wam-2.localdomain Subject: Cron ~/symlinks/TEAM99/ogoakinitchka2.sh 99 0.05 > /dev/null MIME-Version: 1.0 Content-Type: text/plain; charset=UTF-8 Content-Transfer-Encoding: 8bit X-Cron-Env: X-Cron-Env: X-Cron-Env: X-Cron-Env: Message-Id: <20210510092901.6732139A70@wam-2.localdomain> Date: Mon, 10 May 2021 05:29:01 -0400 (EDT) /bin/sh: 1: /home/sinton/symlinks/TEAM99/ogoakinitchka2.sh: not found From sinton@wam-2.localdomain Mon May 10 05:29:01 2021 Return-Path: X-Original-To: sinton Delivered-To: sinton@wam-2.localdomain Received: by wam-2.localdomain (Postfix, from userid 1001) id 7924B39A83; Mon, 10 May 2021 05:29:01 -0400 (EDT) From: root@wam-2.localdomain (Cron Daemon) To: sinton@wam-2.localdomain Subject: Cron ~/symlinks/TEAM1F/metin/apiv4.sh 1f > /dev/null MIME-Version: 1.0 Content-Type: text/plain; charset=UTF-8 Content-Transfer-Encoding: 8bit X-Cron-Env: X-Cron-Env: X-Cron-Env: X-Cron-Env: Message-Id: <20210510092901.7924B39A83@wam-2.localdomain> Date: Mon, 10 May 2021 05:29:01 -0400 (EDT) % Total % Received % Xferd Average Speed Time Time Time Current Dload Upload Total Spent Left Speed 0 0 0 0 0 0 0 0 --:--:-- --:--:-- --:--:-- 0 100 384 100 384 0 0 4740 0 --:--:-- --:--:-- --:--:-- 4740 From sinton@wam-2.localdomain Mon May 10 05:30:01 2021 Return-Path: X-Original-To: sinton Delivered-To: sinton@wam-2.localdomain Received: by wam-2.localdomain (Postfix, from userid 1001) id AD69239AB3; Mon, 10 May 2021 05:30:01 -0400 (EDT) From: root@wam-2.localdomain (Cron Daemon) To: sinton@wam-2.localdomain Subject: Cron ~/symlinks/TEAM99/ogoakinitchka2.sh 99 0.05 > /dev/null MIME-Version: 1.0 Content-Type: text/plain; charset=UTF-8 Content-Transfer-Encoding: 8bit X-Cron-Env: X-Cron-Env: X-Cron-Env: X-Cron-Env: Message-Id: <20210510093001.AD69239AB3@wam-2.localdomain> Date: Mon, 10 May 2021 05:30:01 -0400 (EDT) /bin/sh: 1: /home/sinton/symlinks/TEAM99/ogoakinitchka2.sh: not found From sinton@wam-2.localdomain Mon May 10 05:30:01 2021 Return-Path: X-Original-To: sinton Delivered-To: sinton@wam-2.localdomain Received: by wam-2.localdomain (Postfix, from userid 1001) id C587139AB3; Mon, 10 May 2021 05:30:01 -0400 (EDT) From: root@wam-2.localdomain (Cron Daemon) To: sinton@wam-2.localdomain Subject: Cron ~/symlinks/TEAM1F/metin/apiv4.sh 1f > /dev/null MIME-Version: 1.0 Content-Type: text/plain; charset=UTF-8 Content-Transfer-Encoding: 8bit X-Cron-Env: X-Cron-Env: X-Cron-Env: X-Cron-Env: Message-Id: <20210510093001.C587139AB3@wam-2.localdomain> Date: Mon, 10 May 2021 05:30:01 -0400 (EDT) % Total % Received % Xferd Average Speed Time Time Time Current Dload Upload Total Spent Left Speed 0 0 0 0 0 0 0 0 --:--:-- --:--:-- --:--:-- 0 100 385 100 385 0 0 4139 0 --:--:-- --:--:-- --:--:-- 4139 From sinton@wam-2.localdomain Mon May 10 05:31:02 2021 Return-Path: X-Original-To: sinton Delivered-To: sinton@wam-2.localdomain Received: by wam-2.localdomain (Postfix, from userid 1001) id 1B85339B6F; Mon, 10 May 2021 05:31:02 -0400 (EDT) From: root@wam-2.localdomain (Cron Daemon) To: sinton@wam-2.localdomain Subject: Cron ~/symlinks/TEAM99/ogoakinitchka2.sh 99 0.05 > /dev/null MIME-Version: 1.0 Content-Type: text/plain; charset=UTF-8 Content-Transfer-Encoding: 8bit X-Cron-Env: X-Cron-Env: X-Cron-Env: X-Cron-Env: Message-Id: <20210510093102.1B85339B6F@wam-2.localdomain> Date: Mon, 10 May 2021 05:31:02 -0400 (EDT) /bin/sh: 1: /home/sinton/symlinks/TEAM99/ogoakinitchka2.sh: not found From sinton@wam-2.localdomain Mon May 10 05:31:02 2021 Return-Path: X-Original-To: sinton Delivered-To: sinton@wam-2.localdomain Received: by wam-2.localdomain (Postfix, from userid 1001) id 2D41B39BE6; Mon, 10 May 2021 05:31:02 -0400 (EDT) From: root@wam-2.localdomain (Cron Daemon) To: sinton@wam-2.localdomain Subject: Cron ~/symlinks/TEAM1F/metin/apiv4.sh 1f > /dev/null MIME-Version: 1.0 Content-Type: text/plain; charset=UTF-8 Content-Transfer-Encoding: 8bit X-Cron-Env: X-Cron-Env: X-Cron-Env: X-Cron-Env: Message-Id: <20210510093102.2D41B39BE6@wam-2.localdomain> Date: Mon, 10 May 2021 05:31:02 -0400 (EDT) % Total % Received % Xferd Average Speed Time Time Time Current Dload Upload Total Spent Left Speed 0 0 0 0 0 0 0 0 --:--:-- --:--:-- --:--:-- 0 100 384 100 384 0 0 4987 0 --:--:-- --:--:-- --:--:-- 4987 From sinton@wam-2.localdomain Mon May 10 05:32:01 2021 Return-Path: X-Original-To: sinton Delivered-To: sinton@wam-2.localdomain Received: by wam-2.localdomain (Postfix, from userid 1001) id 5C03F38F8F; Mon, 10 May 2021 05:32:01 -0400 (EDT) From: root@wam-2.localdomain (Cron Daemon) To: sinton@wam-2.localdomain Subject: Cron ~/symlinks/TEAM99/ogoakinitchka2.sh 99 0.05 > /dev/null MIME-Version: 1.0 Content-Type: text/plain; charset=UTF-8 Content-Transfer-Encoding: 8bit X-Cron-Env: X-Cron-Env: X-Cron-Env: X-Cron-Env: Message-Id: <20210510093201.5C03F38F8F@wam-2.localdomain> Date: Mon, 10 May 2021 05:32:01 -0400 (EDT) /bin/sh: 1: /home/sinton/symlinks/TEAM99/ogoakinitchka2.sh: not found From sinton@wam-2.localdomain Mon May 10 05:32:01 2021 Return-Path: X-Original-To: sinton Delivered-To: sinton@wam-2.localdomain Received: by wam-2.localdomain (Postfix, from userid 1001) id 80B2139BDF; Mon, 10 May 2021 05:32:01 -0400 (EDT) From: root@wam-2.localdomain (Cron Daemon) To: sinton@wam-2.localdomain Subject: Cron ~/symlinks/TEAM1F/metin/apiv4.sh 1f > /dev/null MIME-Version: 1.0 Content-Type: text/plain; charset=UTF-8 Content-Transfer-Encoding: 8bit X-Cron-Env: X-Cron-Env: X-Cron-Env: X-Cron-Env: Message-Id: <20210510093201.80B2139BDF@wam-2.localdomain> Date: Mon, 10 May 2021 05:32:01 -0400 (EDT) % Total % Received % Xferd Average Speed Time Time Time Current Dload Upload Total Spent Left Speed 0 0 0 0 0 0 0 0 --:--:-- --:--:-- --:--:-- 0 100 385 100 385 0 0 2730 0 --:--:-- --:--:-- --:--:-- 3407 From sinton@wam-2.localdomain Mon May 10 05:33:01 2021 Return-Path: X-Original-To: sinton Delivered-To: sinton@wam-2.localdomain Received: by wam-2.localdomain (Postfix, from userid 1001) id B610F39C42; Mon, 10 May 2021 05:33:01 -0400 (EDT) From: root@wam-2.localdomain (Cron Daemon) To: sinton@wam-2.localdomain Subject: Cron ~/symlinks/TEAM99/ogoakinitchka2.sh 99 0.05 > /dev/null MIME-Version: 1.0 Content-Type: text/plain; charset=UTF-8 Content-Transfer-Encoding: 8bit X-Cron-Env: X-Cron-Env: X-Cron-Env: X-Cron-Env: Message-Id: <20210510093301.B610F39C42@wam-2.localdomain> Date: Mon, 10 May 2021 05:33:01 -0400 (EDT) /bin/sh: 1: /home/sinton/symlinks/TEAM99/ogoakinitchka2.sh: not found From sinton@wam-2.localdomain Mon May 10 05:33:01 2021 Return-Path: X-Original-To: sinton Delivered-To: sinton@wam-2.localdomain Received: by wam-2.localdomain (Postfix, from userid 1001) id C5E4639C42; Mon, 10 May 2021 05:33:01 -0400 (EDT) From: root@wam-2.localdomain (Cron Daemon) To: sinton@wam-2.localdomain Subject: Cron ~/symlinks/TEAM1F/metin/apiv4.sh 1f > /dev/null MIME-Version: 1.0 Content-Type: text/plain; charset=UTF-8 Content-Transfer-Encoding: 8bit X-Cron-Env: X-Cron-Env: X-Cron-Env: X-Cron-Env: Message-Id: <20210510093301.C5E4639C42@wam-2.localdomain> Date: Mon, 10 May 2021 05:33:01 -0400 (EDT) % Total % Received % Xferd Average Speed Time Time Time Current Dload Upload Total Spent Left Speed 0 0 0 0 0 0 0 0 --:--:-- --:--:-- --:--:-- 0 100 385 100 385 0 0 5746 0 --:--:-- --:--:-- --:--:-- 5746 From sinton@wam-2.localdomain Mon May 10 05:34:02 2021 Return-Path: X-Original-To: sinton Delivered-To: sinton@wam-2.localdomain Received: by wam-2.localdomain (Postfix, from userid 1001) id 04D6F39C4B; Mon, 10 May 2021 05:34:02 -0400 (EDT) From: root@wam-2.localdomain (Cron Daemon) To: sinton@wam-2.localdomain Subject: Cron ~/symlinks/TEAM99/ogoakinitchka2.sh 99 0.05 > /dev/null MIME-Version: 1.0 Content-Type: text/plain; charset=UTF-8 Content-Transfer-Encoding: 8bit X-Cron-Env: X-Cron-Env: X-Cron-Env: X-Cron-Env: Message-Id: <20210510093402.04D6F39C4B@wam-2.localdomain> Date: Mon, 10 May 2021 05:34:02 -0400 (EDT) /bin/sh: 1: /home/sinton/symlinks/TEAM99/ogoakinitchka2.sh: not found From sinton@wam-2.localdomain Mon May 10 05:34:02 2021 Return-Path: X-Original-To: sinton Delivered-To: sinton@wam-2.localdomain Received: by wam-2.localdomain (Postfix, from userid 1001) id 1888E39C4B; Mon, 10 May 2021 05:34:02 -0400 (EDT) From: root@wam-2.localdomain (Cron Daemon) To: sinton@wam-2.localdomain Subject: Cron ~/symlinks/TEAM1F/metin/apiv4.sh 1f > /dev/null MIME-Version: 1.0 Content-Type: text/plain; charset=UTF-8 Content-Transfer-Encoding: 8bit X-Cron-Env: X-Cron-Env: X-Cron-Env: X-Cron-Env: Message-Id: <20210510093402.1888E39C4B@wam-2.localdomain> Date: Mon, 10 May 2021 05:34:02 -0400 (EDT) % Total % Received % Xferd Average Speed Time Time Time Current Dload Upload Total Spent Left Speed 0 0 0 0 0 0 0 0 --:--:-- --:--:-- --:--:-- 0 100 385 100 385 0 0 4935 0 --:--:-- --:--:-- --:--:-- 4935 From sinton@wam-2.localdomain Mon May 10 05:35:01 2021 Return-Path: X-Original-To: sinton Delivered-To: sinton@wam-2.localdomain Received: by wam-2.localdomain (Postfix, from userid 1001) id 53BD835D91; Mon, 10 May 2021 05:35:01 -0400 (EDT) From: root@wam-2.localdomain (Cron Daemon) To: sinton@wam-2.localdomain Subject: Cron ~/symlinks/TEAM99/ogoakinitchka2.sh 99 0.05 > /dev/null MIME-Version: 1.0 Content-Type: text/plain; charset=UTF-8 Content-Transfer-Encoding: 8bit X-Cron-Env: X-Cron-Env: X-Cron-Env: X-Cron-Env: Message-Id: <20210510093501.53BD835D91@wam-2.localdomain> Date: Mon, 10 May 2021 05:35:01 -0400 (EDT) /bin/sh: 1: /home/sinton/symlinks/TEAM99/ogoakinitchka2.sh: not found From sinton@wam-2.localdomain Mon May 10 05:35:01 2021 Return-Path: X-Original-To: sinton Delivered-To: sinton@wam-2.localdomain Received: by wam-2.localdomain (Postfix, from userid 1001) id 6233D385F5; Mon, 10 May 2021 05:35:01 -0400 (EDT) From: root@wam-2.localdomain (Cron Daemon) To: sinton@wam-2.localdomain Subject: Cron ~/symlinks/TEAM1F/metin/apiv4.sh 1f > /dev/null MIME-Version: 1.0 Content-Type: text/plain; charset=UTF-8 Content-Transfer-Encoding: 8bit X-Cron-Env: X-Cron-Env: X-Cron-Env: X-Cron-Env: Message-Id: <20210510093501.6233D385F5@wam-2.localdomain> Date: Mon, 10 May 2021 05:35:01 -0400 (EDT) % Total % Received % Xferd Average Speed Time Time Time Current Dload Upload Total Spent Left Speed 0 0 0 0 0 0 0 0 --:--:-- --:--:-- --:--:-- 0 100 386 100 386 0 0 6031 0 --:--:-- --:--:-- --:--:-- 6031 From sinton@wam-2.localdomain Mon May 10 05:36:01 2021 Return-Path: X-Original-To: sinton Delivered-To: sinton@wam-2.localdomain Received: by wam-2.localdomain (Postfix, from userid 1001) id AE08537B58; Mon, 10 May 2021 05:36:01 -0400 (EDT) From: root@wam-2.localdomain (Cron Daemon) To: sinton@wam-2.localdomain Subject: Cron ~/symlinks/TEAM99/ogoakinitchka2.sh 99 0.05 > /dev/null MIME-Version: 1.0 Content-Type: text/plain; charset=UTF-8 Content-Transfer-Encoding: 8bit X-Cron-Env: X-Cron-Env: X-Cron-Env: X-Cron-Env: Message-Id: <20210510093601.AE08537B58@wam-2.localdomain> Date: Mon, 10 May 2021 05:36:01 -0400 (EDT) /bin/sh: 1: /home/sinton/symlinks/TEAM99/ogoakinitchka2.sh: not found From sinton@wam-2.localdomain Mon May 10 05:36:01 2021 Return-Path: X-Original-To: sinton Delivered-To: sinton@wam-2.localdomain Received: by wam-2.localdomain (Postfix, from userid 1001) id B948D3825C; Mon, 10 May 2021 05:36:01 -0400 (EDT) From: root@wam-2.localdomain (Cron Daemon) To: sinton@wam-2.localdomain Subject: Cron ~/symlinks/TEAM1F/metin/apiv4.sh 1f > /dev/null MIME-Version: 1.0 Content-Type: text/plain; charset=UTF-8 Content-Transfer-Encoding: 8bit X-Cron-Env: X-Cron-Env: X-Cron-Env: X-Cron-Env: Message-Id: <20210510093601.B948D3825C@wam-2.localdomain> Date: Mon, 10 May 2021 05:36:01 -0400 (EDT) % Total % Received % Xferd Average Speed Time Time Time Current Dload Upload Total Spent Left Speed 0 0 0 0 0 0 0 0 --:--:-- --:--:-- --:--:-- 0 100 385 100 385 0 0 5000 0 --:--:-- --:--:-- --:--:-- 5000 From sinton@wam-2.localdomain Mon May 10 05:37:02 2021 Return-Path: X-Original-To: sinton Delivered-To: sinton@wam-2.localdomain Received: by wam-2.localdomain (Postfix, from userid 1001) id F408E39C6C; Mon, 10 May 2021 05:37:01 -0400 (EDT) From: root@wam-2.localdomain (Cron Daemon) To: sinton@wam-2.localdomain Subject: Cron ~/symlinks/TEAM99/ogoakinitchka2.sh 99 0.05 > /dev/null MIME-Version: 1.0 Content-Type: text/plain; charset=UTF-8 Content-Transfer-Encoding: 8bit X-Cron-Env: X-Cron-Env: X-Cron-Env: X-Cron-Env: Message-Id: <20210510093701.F408E39C6C@wam-2.localdomain> Date: Mon, 10 May 2021 05:37:01 -0400 (EDT) /bin/sh: 1: /home/sinton/symlinks/TEAM99/ogoakinitchka2.sh: not found From sinton@wam-2.localdomain Mon May 10 05:37:02 2021 Return-Path: X-Original-To: sinton Delivered-To: sinton@wam-2.localdomain Received: by wam-2.localdomain (Postfix, from userid 1001) id 14BDB39C6E; Mon, 10 May 2021 05:37:02 -0400 (EDT) From: root@wam-2.localdomain (Cron Daemon) To: sinton@wam-2.localdomain Subject: Cron ~/symlinks/TEAM1F/metin/apiv4.sh 1f > /dev/null MIME-Version: 1.0 Content-Type: text/plain; charset=UTF-8 Content-Transfer-Encoding: 8bit X-Cron-Env: X-Cron-Env: X-Cron-Env: X-Cron-Env: Message-Id: <20210510093702.14BDB39C6E@wam-2.localdomain> Date: Mon, 10 May 2021 05:37:02 -0400 (EDT) % Total % Received % Xferd Average Speed Time Time Time Current Dload Upload Total Spent Left Speed 0 0 0 0 0 0 0 0 --:--:-- --:--:-- --:--:-- 0 100 388 100 388 0 0 5038 0 --:--:-- --:--:-- --:--:-- 5038 From sinton@wam-2.localdomain Mon May 10 05:38:01 2021 Return-Path: X-Original-To: sinton Delivered-To: sinton@wam-2.localdomain Received: by wam-2.localdomain (Postfix, from userid 1001) id 4740739C5B; Mon, 10 May 2021 05:38:01 -0400 (EDT) From: root@wam-2.localdomain (Cron Daemon) To: sinton@wam-2.localdomain Subject: Cron ~/symlinks/TEAM99/ogoakinitchka2.sh 99 0.05 > /dev/null MIME-Version: 1.0 Content-Type: text/plain; charset=UTF-8 Content-Transfer-Encoding: 8bit X-Cron-Env: X-Cron-Env: X-Cron-Env: X-Cron-Env: Message-Id: <20210510093801.4740739C5B@wam-2.localdomain> Date: Mon, 10 May 2021 05:38:01 -0400 (EDT) /bin/sh: 1: /home/sinton/symlinks/TEAM99/ogoakinitchka2.sh: not found From sinton@wam-2.localdomain Mon May 10 05:38:01 2021 Return-Path: X-Original-To: sinton Delivered-To: sinton@wam-2.localdomain Received: by wam-2.localdomain (Postfix, from userid 1001) id 5EBDC39C5B; Mon, 10 May 2021 05:38:01 -0400 (EDT) From: root@wam-2.localdomain (Cron Daemon) To: sinton@wam-2.localdomain Subject: Cron ~/symlinks/TEAM1F/metin/apiv4.sh 1f > /dev/null MIME-Version: 1.0 Content-Type: text/plain; charset=UTF-8 Content-Transfer-Encoding: 8bit X-Cron-Env: X-Cron-Env: X-Cron-Env: X-Cron-Env: Message-Id: <20210510093801.5EBDC39C5B@wam-2.localdomain> Date: Mon, 10 May 2021 05:38:01 -0400 (EDT) % Total % Received % Xferd Average Speed Time Time Time Current Dload Upload Total Spent Left Speed 0 0 0 0 0 0 0 0 --:--:-- --:--:-- --:--:-- 0 100 388 100 388 0 0 6928 0 --:--:-- --:--:-- --:--:-- 6928 From sinton@wam-2.localdomain Mon May 10 05:39:01 2021 Return-Path: X-Original-To: sinton Delivered-To: sinton@wam-2.localdomain Received: by wam-2.localdomain (Postfix, from userid 1001) id 9B15C39C55; Mon, 10 May 2021 05:39:01 -0400 (EDT) From: root@wam-2.localdomain (Cron Daemon) To: sinton@wam-2.localdomain Subject: Cron ~/symlinks/TEAM99/ogoakinitchka2.sh 99 0.05 > /dev/null MIME-Version: 1.0 Content-Type: text/plain; charset=UTF-8 Content-Transfer-Encoding: 8bit X-Cron-Env: X-Cron-Env: X-Cron-Env: X-Cron-Env: Message-Id: <20210510093901.9B15C39C55@wam-2.localdomain> Date: Mon, 10 May 2021 05:39:01 -0400 (EDT) /bin/sh: 1: /home/sinton/symlinks/TEAM99/ogoakinitchka2.sh: not found From sinton@wam-2.localdomain Mon May 10 05:39:01 2021 Return-Path: X-Original-To: sinton Delivered-To: sinton@wam-2.localdomain Received: by wam-2.localdomain (Postfix, from userid 1001) id B3C5239C57; Mon, 10 May 2021 05:39:01 -0400 (EDT) From: root@wam-2.localdomain (Cron Daemon) To: sinton@wam-2.localdomain Subject: Cron ~/symlinks/TEAM1F/metin/apiv4.sh 1f > /dev/null MIME-Version: 1.0 Content-Type: text/plain; charset=UTF-8 Content-Transfer-Encoding: 8bit X-Cron-Env: X-Cron-Env: X-Cron-Env: X-Cron-Env: Message-Id: <20210510093901.B3C5239C57@wam-2.localdomain> Date: Mon, 10 May 2021 05:39:01 -0400 (EDT) % Total % Received % Xferd Average Speed Time Time Time Current Dload Upload Total Spent Left Speed 0 0 0 0 0 0 0 0 --:--:-- --:--:-- --:--:-- 0 100 386 100 386 0 0 3415 0 --:--:-- --:--:-- --:--:-- 3415 From sinton@wam-2.localdomain Mon May 10 05:39:14 2021 Return-Path: X-Original-To: sinton Delivered-To: sinton@wam-2.localdomain Received: by wam-2.localdomain (Postfix, from userid 1001) id 5ABB839C7F; Mon, 10 May 2021 05:39:14 -0400 (EDT) From: root@wam-2.localdomain (Cron Daemon) To: sinton@wam-2.localdomain Subject: Cron bash -c "sleep $[RANDOM%14]m" ; ~/symlinks/TEAM2/fcst/startfcst.pl 2 > /dev/null MIME-Version: 1.0 Content-Type: text/plain; charset=UTF-8 Content-Transfer-Encoding: 8bit X-Cron-Env: X-Cron-Env: X-Cron-Env: X-Cron-Env: Message-Id: <20210510093914.5ABB839C7F@wam-2.localdomain> Date: Mon, 10 May 2021 05:39:14 -0400 (EDT) # CSV_XS ERROR: 2034 - EIF - Loose unescaped quote @ rec 0 pos 29 field 1 From sinton@wam-2.localdomain Mon May 10 05:40:01 2021 Return-Path: X-Original-To: sinton Delivered-To: sinton@wam-2.localdomain Received: by wam-2.localdomain (Postfix, from userid 1001) id 5C35439C5B; Mon, 10 May 2021 05:40:01 -0400 (EDT) From: root@wam-2.localdomain (Cron Daemon) To: sinton@wam-2.localdomain Subject: Cron ~/symlinks/TEAM99/ogoakinitchka2.sh 99 0.05 > /dev/null MIME-Version: 1.0 Content-Type: text/plain; charset=UTF-8 Content-Transfer-Encoding: 8bit X-Cron-Env: X-Cron-Env: X-Cron-Env: X-Cron-Env: Message-Id: <20210510094001.5C35439C5B@wam-2.localdomain> Date: Mon, 10 May 2021 05:40:01 -0400 (EDT) /bin/sh: 1: /home/sinton/symlinks/TEAM99/ogoakinitchka2.sh: not found From sinton@wam-2.localdomain Mon May 10 05:40:01 2021 Return-Path: X-Original-To: sinton Delivered-To: sinton@wam-2.localdomain Received: by wam-2.localdomain (Postfix, from userid 1001) id 7393039C5B; Mon, 10 May 2021 05:40:01 -0400 (EDT) From: root@wam-2.localdomain (Cron Daemon) To: sinton@wam-2.localdomain Subject: Cron ~/symlinks/TEAM1F/metin/apiv4.sh 1f > /dev/null MIME-Version: 1.0 Content-Type: text/plain; charset=UTF-8 Content-Transfer-Encoding: 8bit X-Cron-Env: X-Cron-Env: X-Cron-Env: X-Cron-Env: Message-Id: <20210510094001.7393039C5B@wam-2.localdomain> Date: Mon, 10 May 2021 05:40:01 -0400 (EDT) % Total % Received % Xferd Average Speed Time Time Time Current Dload Upload Total Spent Left Speed 0 0 0 0 0 0 0 0 --:--:-- --:--:-- --:--:-- 0 100 388 100 388 0 0 4000 0 --:--:-- --:--:-- --:--:-- 5243 From sinton@wam-2.localdomain Mon May 10 05:41:01 2021 Return-Path: X-Original-To: sinton Delivered-To: sinton@wam-2.localdomain Received: by wam-2.localdomain (Postfix, from userid 1001) id 722B0366CF; Mon, 10 May 2021 05:41:01 -0400 (EDT) From: root@wam-2.localdomain (Cron Daemon) To: sinton@wam-2.localdomain Subject: Cron ~/symlinks/TEAM99/ogoakinitchka2.sh 99 0.05 > /dev/null MIME-Version: 1.0 Content-Type: text/plain; charset=UTF-8 Content-Transfer-Encoding: 8bit X-Cron-Env: X-Cron-Env: X-Cron-Env: X-Cron-Env: Message-Id: <20210510094101.722B0366CF@wam-2.localdomain> Date: Mon, 10 May 2021 05:41:01 -0400 (EDT) /bin/sh: 1: /home/sinton/symlinks/TEAM99/ogoakinitchka2.sh: not found From sinton@wam-2.localdomain Mon May 10 05:41:01 2021 Return-Path: X-Original-To: sinton Delivered-To: sinton@wam-2.localdomain Received: by wam-2.localdomain (Postfix, from userid 1001) id 8919038221; Mon, 10 May 2021 05:41:01 -0400 (EDT) From: root@wam-2.localdomain (Cron Daemon) To: sinton@wam-2.localdomain Subject: Cron ~/symlinks/TEAM1F/metin/apiv4.sh 1f > /dev/null MIME-Version: 1.0 Content-Type: text/plain; charset=UTF-8 Content-Transfer-Encoding: 8bit X-Cron-Env: X-Cron-Env: X-Cron-Env: X-Cron-Env: Message-Id: <20210510094101.8919038221@wam-2.localdomain> Date: Mon, 10 May 2021 05:41:01 -0400 (EDT) % Total % Received % Xferd Average Speed Time Time Time Current Dload Upload Total Spent Left Speed 0 0 0 0 0 0 0 0 --:--:-- --:--:-- --:--:-- 0 100 388 100 388 0 0 5038 0 --:--:-- --:--:-- --:--:-- 5038 From sinton@wam-2.localdomain Mon May 10 05:42:01 2021 Return-Path: X-Original-To: sinton Delivered-To: sinton@wam-2.localdomain Received: by wam-2.localdomain (Postfix, from userid 1001) id BD3FB39C60; Mon, 10 May 2021 05:42:01 -0400 (EDT) From: root@wam-2.localdomain (Cron Daemon) To: sinton@wam-2.localdomain Subject: Cron ~/symlinks/TEAM99/ogoakinitchka2.sh 99 0.05 > /dev/null MIME-Version: 1.0 Content-Type: text/plain; charset=UTF-8 Content-Transfer-Encoding: 8bit X-Cron-Env: X-Cron-Env: X-Cron-Env: X-Cron-Env: Message-Id: <20210510094201.BD3FB39C60@wam-2.localdomain> Date: Mon, 10 May 2021 05:42:01 -0400 (EDT) /bin/sh: 1: /home/sinton/symlinks/TEAM99/ogoakinitchka2.sh: not found From sinton@wam-2.localdomain Mon May 10 05:42:01 2021 Return-Path: X-Original-To: sinton Delivered-To: sinton@wam-2.localdomain Received: by wam-2.localdomain (Postfix, from userid 1001) id D4DB439C60; Mon, 10 May 2021 05:42:01 -0400 (EDT) From: root@wam-2.localdomain (Cron Daemon) To: sinton@wam-2.localdomain Subject: Cron ~/symlinks/TEAM1F/metin/apiv4.sh 1f > /dev/null MIME-Version: 1.0 Content-Type: text/plain; charset=UTF-8 Content-Transfer-Encoding: 8bit X-Cron-Env: X-Cron-Env: X-Cron-Env: X-Cron-Env: Message-Id: <20210510094201.D4DB439C60@wam-2.localdomain> Date: Mon, 10 May 2021 05:42:01 -0400 (EDT) % Total % Received % Xferd Average Speed Time Time Time Current Dload Upload Total Spent Left Speed 0 0 0 0 0 0 0 0 --:--:-- --:--:-- --:--:-- 0 100 388 100 388 0 0 5878 0 --:--:-- --:--:-- --:--:-- 5878 From sinton@wam-2.localdomain Mon May 10 05:43:02 2021 Return-Path: X-Original-To: sinton Delivered-To: sinton@wam-2.localdomain Received: by wam-2.localdomain (Postfix, from userid 1001) id 1312439C75; Mon, 10 May 2021 05:43:02 -0400 (EDT) From: root@wam-2.localdomain (Cron Daemon) To: sinton@wam-2.localdomain Subject: Cron ~/symlinks/TEAM99/ogoakinitchka2.sh 99 0.05 > /dev/null MIME-Version: 1.0 Content-Type: text/plain; charset=UTF-8 Content-Transfer-Encoding: 8bit X-Cron-Env: X-Cron-Env: X-Cron-Env: X-Cron-Env: Message-Id: <20210510094302.1312439C75@wam-2.localdomain> Date: Mon, 10 May 2021 05:43:02 -0400 (EDT) /bin/sh: 1: /home/sinton/symlinks/TEAM99/ogoakinitchka2.sh: not found From sinton@wam-2.localdomain Mon May 10 05:43:02 2021 Return-Path: X-Original-To: sinton Delivered-To: sinton@wam-2.localdomain Received: by wam-2.localdomain (Postfix, from userid 1001) id 2676739C75; Mon, 10 May 2021 05:43:02 -0400 (EDT) From: root@wam-2.localdomain (Cron Daemon) To: sinton@wam-2.localdomain Subject: Cron ~/symlinks/TEAM1F/metin/apiv4.sh 1f > /dev/null MIME-Version: 1.0 Content-Type: text/plain; charset=UTF-8 Content-Transfer-Encoding: 8bit X-Cron-Env: X-Cron-Env: X-Cron-Env: X-Cron-Env: Message-Id: <20210510094302.2676739C75@wam-2.localdomain> Date: Mon, 10 May 2021 05:43:02 -0400 (EDT) % Total % Received % Xferd Average Speed Time Time Time Current Dload Upload Total Spent Left Speed 0 0 0 0 0 0 0 0 --:--:-- --:--:-- --:--:-- 0 100 388 100 388 0 0 5315 0 --:--:-- --:--:-- --:--:-- 5315 From sinton@wam-2.localdomain Mon May 10 05:44:01 2021 Return-Path: X-Original-To: sinton Delivered-To: sinton@wam-2.localdomain Received: by wam-2.localdomain (Postfix, from userid 1001) id 610F836FAA; Mon, 10 May 2021 05:44:01 -0400 (EDT) From: root@wam-2.localdomain (Cron Daemon) To: sinton@wam-2.localdomain Subject: Cron ~/symlinks/TEAM99/ogoakinitchka2.sh 99 0.05 > /dev/null MIME-Version: 1.0 Content-Type: text/plain; charset=UTF-8 Content-Transfer-Encoding: 8bit X-Cron-Env: X-Cron-Env: X-Cron-Env: X-Cron-Env: Message-Id: <20210510094401.610F836FAA@wam-2.localdomain> Date: Mon, 10 May 2021 05:44:01 -0400 (EDT) /bin/sh: 1: /home/sinton/symlinks/TEAM99/ogoakinitchka2.sh: not found From sinton@wam-2.localdomain Mon May 10 05:44:01 2021 Return-Path: X-Original-To: sinton Delivered-To: sinton@wam-2.localdomain Received: by wam-2.localdomain (Postfix, from userid 1001) id 7670339C60; Mon, 10 May 2021 05:44:01 -0400 (EDT) From: root@wam-2.localdomain (Cron Daemon) To: sinton@wam-2.localdomain Subject: Cron ~/symlinks/TEAM1F/metin/apiv4.sh 1f > /dev/null MIME-Version: 1.0 Content-Type: text/plain; charset=UTF-8 Content-Transfer-Encoding: 8bit X-Cron-Env: X-Cron-Env: X-Cron-Env: X-Cron-Env: Message-Id: <20210510094401.7670339C60@wam-2.localdomain> Date: Mon, 10 May 2021 05:44:01 -0400 (EDT) % Total % Received % Xferd Average Speed Time Time Time Current Dload Upload Total Spent Left Speed 0 0 0 0 0 0 0 0 --:--:-- --:--:-- --:--:-- 0 100 388 100 388 0 0 5705 0 --:--:-- --:--:-- --:--:-- 5705 From sinton@wam-2.localdomain Mon May 10 05:44:13 2021 Return-Path: X-Original-To: sinton Delivered-To: sinton@wam-2.localdomain Received: by wam-2.localdomain (Postfix, from userid 1001) id C2C9D39C63; Mon, 10 May 2021 05:44:13 -0400 (EDT) From: root@wam-2.localdomain (Cron Daemon) To: sinton@wam-2.localdomain Subject: Cron bash -c "sleep $[RANDOM%14]m" ; ~/symlinks/TEAM8/fcst/startfcst.pl 8 > /dev/null MIME-Version: 1.0 Content-Type: text/plain; charset=UTF-8 Content-Transfer-Encoding: 8bit X-Cron-Env: X-Cron-Env: X-Cron-Env: X-Cron-Env: Message-Id: <20210510094413.C2C9D39C63@wam-2.localdomain> Date: Mon, 10 May 2021 05:44:13 -0400 (EDT) # CSV_XS ERROR: 2034 - EIF - Loose unescaped quote @ rec 0 pos 29 field 1 From sinton@wam-2.localdomain Mon May 10 05:45:02 2021 Return-Path: X-Original-To: sinton Delivered-To: sinton@wam-2.localdomain Received: by wam-2.localdomain (Postfix, from userid 1001) id 0C91739C6A; Mon, 10 May 2021 05:45:02 -0400 (EDT) From: root@wam-2.localdomain (Cron Daemon) To: sinton@wam-2.localdomain Subject: Cron ~/symlinks/TEAM99/ogoakinitchka2.sh 99 0.05 > /dev/null MIME-Version: 1.0 Content-Type: text/plain; charset=UTF-8 Content-Transfer-Encoding: 8bit X-Cron-Env: X-Cron-Env: X-Cron-Env: X-Cron-Env: Message-Id: <20210510094502.0C91739C6A@wam-2.localdomain> Date: Mon, 10 May 2021 05:45:02 -0400 (EDT) /bin/sh: 1: /home/sinton/symlinks/TEAM99/ogoakinitchka2.sh: not found From sinton@wam-2.localdomain Mon May 10 05:45:02 2021 Return-Path: X-Original-To: sinton Delivered-To: sinton@wam-2.localdomain Received: by wam-2.localdomain (Postfix, from userid 1001) id 1BF6C39C75; Mon, 10 May 2021 05:45:02 -0400 (EDT) From: root@wam-2.localdomain (Cron Daemon) To: sinton@wam-2.localdomain Subject: Cron ~/symlinks/TEAM1F/metin/apiv4.sh 1f > /dev/null MIME-Version: 1.0 Content-Type: text/plain; charset=UTF-8 Content-Transfer-Encoding: 8bit X-Cron-Env: X-Cron-Env: X-Cron-Env: X-Cron-Env: Message-Id: <20210510094502.1BF6C39C75@wam-2.localdomain> Date: Mon, 10 May 2021 05:45:02 -0400 (EDT) % Total % Received % Xferd Average Speed Time Time Time Current Dload Upload Total Spent Left Speed 0 0 0 0 0 0 0 0 --:--:-- --:--:-- --:--:-- 0 100 388 100 388 0 0 4911 0 --:--:-- --:--:-- --:--:-- 4911 From sinton@wam-2.localdomain Mon May 10 05:46:01 2021 Return-Path: X-Original-To: sinton Delivered-To: sinton@wam-2.localdomain Received: by wam-2.localdomain (Postfix, from userid 1001) id 6286139C8B; Mon, 10 May 2021 05:46:01 -0400 (EDT) From: root@wam-2.localdomain (Cron Daemon) To: sinton@wam-2.localdomain Subject: Cron ~/symlinks/TEAM99/ogoakinitchka2.sh 99 0.05 > /dev/null MIME-Version: 1.0 Content-Type: text/plain; charset=UTF-8 Content-Transfer-Encoding: 8bit X-Cron-Env: X-Cron-Env: X-Cron-Env: X-Cron-Env: Message-Id: <20210510094601.6286139C8B@wam-2.localdomain> Date: Mon, 10 May 2021 05:46:01 -0400 (EDT) /bin/sh: 1: /home/sinton/symlinks/TEAM99/ogoakinitchka2.sh: not found From sinton@wam-2.localdomain Mon May 10 05:46:01 2021 Return-Path: X-Original-To: sinton Delivered-To: sinton@wam-2.localdomain Received: by wam-2.localdomain (Postfix, from userid 1001) id 7C88639C86; Mon, 10 May 2021 05:46:01 -0400 (EDT) From: root@wam-2.localdomain (Cron Daemon) To: sinton@wam-2.localdomain Subject: Cron ~/symlinks/TEAM1F/metin/apiv4.sh 1f > /dev/null MIME-Version: 1.0 Content-Type: text/plain; charset=UTF-8 Content-Transfer-Encoding: 8bit X-Cron-Env: X-Cron-Env: X-Cron-Env: X-Cron-Env: Message-Id: <20210510094601.7C88639C86@wam-2.localdomain> Date: Mon, 10 May 2021 05:46:01 -0400 (EDT) % Total % Received % Xferd Average Speed Time Time Time Current Dload Upload Total Spent Left Speed 0 0 0 0 0 0 0 0 --:--:-- --:--:-- --:--:-- 0 100 387 100 387 0 0 3794 0 --:--:-- --:--:-- --:--:-- 3794 From sinton@wam-2.localdomain Mon May 10 05:47:01 2021 Return-Path: X-Original-To: sinton Delivered-To: sinton@wam-2.localdomain Received: by wam-2.localdomain (Postfix, from userid 1001) id B324139C75; Mon, 10 May 2021 05:47:01 -0400 (EDT) From: root@wam-2.localdomain (Cron Daemon) To: sinton@wam-2.localdomain Subject: Cron ~/symlinks/TEAM99/ogoakinitchka2.sh 99 0.05 > /dev/null MIME-Version: 1.0 Content-Type: text/plain; charset=UTF-8 Content-Transfer-Encoding: 8bit X-Cron-Env: X-Cron-Env: X-Cron-Env: X-Cron-Env: Message-Id: <20210510094701.B324139C75@wam-2.localdomain> Date: Mon, 10 May 2021 05:47:01 -0400 (EDT) /bin/sh: 1: /home/sinton/symlinks/TEAM99/ogoakinitchka2.sh: not found From sinton@wam-2.localdomain Mon May 10 05:47:01 2021 Return-Path: X-Original-To: sinton Delivered-To: sinton@wam-2.localdomain Received: by wam-2.localdomain (Postfix, from userid 1001) id C7A2139C75; Mon, 10 May 2021 05:47:01 -0400 (EDT) From: root@wam-2.localdomain (Cron Daemon) To: sinton@wam-2.localdomain Subject: Cron ~/symlinks/TEAM1F/metin/apiv4.sh 1f > /dev/null MIME-Version: 1.0 Content-Type: text/plain; charset=UTF-8 Content-Transfer-Encoding: 8bit X-Cron-Env: X-Cron-Env: X-Cron-Env: X-Cron-Env: Message-Id: <20210510094701.C7A2139C75@wam-2.localdomain> Date: Mon, 10 May 2021 05:47:01 -0400 (EDT) % Total % Received % Xferd Average Speed Time Time Time Current Dload Upload Total Spent Left Speed 0 0 0 0 0 0 0 0 --:--:-- --:--:-- --:--:-- 0 100 388 100 388 0 0 6807 0 --:--:-- --:--:-- --:--:-- 6807 From sinton@wam-2.localdomain Mon May 10 05:48:02 2021 Return-Path: X-Original-To: sinton Delivered-To: sinton@wam-2.localdomain Received: by wam-2.localdomain (Postfix, from userid 1001) id 05F9239C86; Mon, 10 May 2021 05:48:02 -0400 (EDT) From: root@wam-2.localdomain (Cron Daemon) To: sinton@wam-2.localdomain Subject: Cron ~/symlinks/TEAM99/ogoakinitchka2.sh 99 0.05 > /dev/null MIME-Version: 1.0 Content-Type: text/plain; charset=UTF-8 Content-Transfer-Encoding: 8bit X-Cron-Env: X-Cron-Env: X-Cron-Env: X-Cron-Env: Message-Id: <20210510094802.05F9239C86@wam-2.localdomain> Date: Mon, 10 May 2021 05:48:02 -0400 (EDT) /bin/sh: 1: /home/sinton/symlinks/TEAM99/ogoakinitchka2.sh: not found From sinton@wam-2.localdomain Mon May 10 05:48:02 2021 Return-Path: X-Original-To: sinton Delivered-To: sinton@wam-2.localdomain Received: by wam-2.localdomain (Postfix, from userid 1001) id 1B14F385F5; Mon, 10 May 2021 05:48:02 -0400 (EDT) From: root@wam-2.localdomain (Cron Daemon) To: sinton@wam-2.localdomain Subject: Cron ~/symlinks/TEAM1F/metin/apiv4.sh 1f > /dev/null MIME-Version: 1.0 Content-Type: text/plain; charset=UTF-8 Content-Transfer-Encoding: 8bit X-Cron-Env: X-Cron-Env: X-Cron-Env: X-Cron-Env: Message-Id: <20210510094802.1B14F385F5@wam-2.localdomain> Date: Mon, 10 May 2021 05:48:02 -0400 (EDT) % Total % Received % Xferd Average Speed Time Time Time Current Dload Upload Total Spent Left Speed 0 0 0 0 0 0 0 0 --:--:-- --:--:-- --:--:-- 0 100 388 100 388 0 0 5038 0 --:--:-- --:--:-- --:--:-- 5038 From sinton@wam-2.localdomain Mon May 10 05:49:01 2021 Return-Path: X-Original-To: sinton Delivered-To: sinton@wam-2.localdomain Received: by wam-2.localdomain (Postfix, from userid 1001) id 515BE39C73; Mon, 10 May 2021 05:49:01 -0400 (EDT) From: root@wam-2.localdomain (Cron Daemon) To: sinton@wam-2.localdomain Subject: Cron ~/symlinks/TEAM99/ogoakinitchka2.sh 99 0.05 > /dev/null MIME-Version: 1.0 Content-Type: text/plain; charset=UTF-8 Content-Transfer-Encoding: 8bit X-Cron-Env: X-Cron-Env: X-Cron-Env: X-Cron-Env: Message-Id: <20210510094901.515BE39C73@wam-2.localdomain> Date: Mon, 10 May 2021 05:49:01 -0400 (EDT) /bin/sh: 1: /home/sinton/symlinks/TEAM99/ogoakinitchka2.sh: not found From sinton@wam-2.localdomain Mon May 10 05:49:01 2021 Return-Path: X-Original-To: sinton Delivered-To: sinton@wam-2.localdomain Received: by wam-2.localdomain (Postfix, from userid 1001) id 694DD39C9F; Mon, 10 May 2021 05:49:01 -0400 (EDT) From: root@wam-2.localdomain (Cron Daemon) To: sinton@wam-2.localdomain Subject: Cron ~/symlinks/TEAM1F/metin/apiv4.sh 1f > /dev/null MIME-Version: 1.0 Content-Type: text/plain; charset=UTF-8 Content-Transfer-Encoding: 8bit X-Cron-Env: X-Cron-Env: X-Cron-Env: X-Cron-Env: Message-Id: <20210510094901.694DD39C9F@wam-2.localdomain> Date: Mon, 10 May 2021 05:49:01 -0400 (EDT) % Total % Received % Xferd Average Speed Time Time Time Current Dload Upload Total Spent Left Speed 0 0 0 0 0 0 0 0 --:--:-- --:--:-- --:--:-- 0 100 387 100 387 0 0 5528 0 --:--:-- --:--:-- --:--:-- 5608 From sinton@wam-2.localdomain Mon May 10 05:50:01 2021 Return-Path: X-Original-To: sinton Delivered-To: sinton@wam-2.localdomain Received: by wam-2.localdomain (Postfix, from userid 1001) id A2F5139C8D; Mon, 10 May 2021 05:50:01 -0400 (EDT) From: root@wam-2.localdomain (Cron Daemon) To: sinton@wam-2.localdomain Subject: Cron ~/symlinks/TEAM99/ogoakinitchka2.sh 99 0.05 > /dev/null MIME-Version: 1.0 Content-Type: text/plain; charset=UTF-8 Content-Transfer-Encoding: 8bit X-Cron-Env: X-Cron-Env: X-Cron-Env: X-Cron-Env: Message-Id: <20210510095001.A2F5139C8D@wam-2.localdomain> Date: Mon, 10 May 2021 05:50:01 -0400 (EDT) /bin/sh: 1: /home/sinton/symlinks/TEAM99/ogoakinitchka2.sh: not found From sinton@wam-2.localdomain Mon May 10 05:50:01 2021 Return-Path: X-Original-To: sinton Delivered-To: sinton@wam-2.localdomain Received: by wam-2.localdomain (Postfix, from userid 1001) id B4B5739C8D; Mon, 10 May 2021 05:50:01 -0400 (EDT) From: root@wam-2.localdomain (Cron Daemon) To: sinton@wam-2.localdomain Subject: Cron ~/symlinks/TEAM1F/metin/apiv4.sh 1f > /dev/null MIME-Version: 1.0 Content-Type: text/plain; charset=UTF-8 Content-Transfer-Encoding: 8bit X-Cron-Env: X-Cron-Env: X-Cron-Env: X-Cron-Env: Message-Id: <20210510095001.B4B5739C8D@wam-2.localdomain> Date: Mon, 10 May 2021 05:50:01 -0400 (EDT) % Total % Received % Xferd Average Speed Time Time Time Current Dload Upload Total Spent Left Speed 0 0 0 0 0 0 0 0 --:--:-- --:--:-- --:--:-- 0 100 387 100 387 0 0 6142 0 --:--:-- --:--:-- --:--:-- 6142 From sinton@wam-2.localdomain Mon May 10 05:51:01 2021 Return-Path: X-Original-To: sinton Delivered-To: sinton@wam-2.localdomain Received: by wam-2.localdomain (Postfix, from userid 1001) id C7A9039C9F; Mon, 10 May 2021 05:51:01 -0400 (EDT) From: root@wam-2.localdomain (Cron Daemon) To: sinton@wam-2.localdomain Subject: Cron ~/symlinks/TEAM99/ogoakinitchka2.sh 99 0.05 > /dev/null MIME-Version: 1.0 Content-Type: text/plain; charset=UTF-8 Content-Transfer-Encoding: 8bit X-Cron-Env: X-Cron-Env: X-Cron-Env: X-Cron-Env: Message-Id: <20210510095101.C7A9039C9F@wam-2.localdomain> Date: Mon, 10 May 2021 05:51:01 -0400 (EDT) /bin/sh: 1: /home/sinton/symlinks/TEAM99/ogoakinitchka2.sh: not found From sinton@wam-2.localdomain Mon May 10 05:51:01 2021 Return-Path: X-Original-To: sinton Delivered-To: sinton@wam-2.localdomain Received: by wam-2.localdomain (Postfix, from userid 1001) id DE13A39C9B; Mon, 10 May 2021 05:51:01 -0400 (EDT) From: root@wam-2.localdomain (Cron Daemon) To: sinton@wam-2.localdomain Subject: Cron ~/symlinks/TEAM1F/metin/apiv4.sh 1f > /dev/null MIME-Version: 1.0 Content-Type: text/plain; charset=UTF-8 Content-Transfer-Encoding: 8bit X-Cron-Env: X-Cron-Env: X-Cron-Env: X-Cron-Env: Message-Id: <20210510095101.DE13A39C9B@wam-2.localdomain> Date: Mon, 10 May 2021 05:51:01 -0400 (EDT) % Total % Received % Xferd Average Speed Time Time Time Current Dload Upload Total Spent Left Speed 0 0 0 0 0 0 0 0 --:--:-- --:--:-- --:--:-- 0 0 0 0 0 0 0 0 0 --:--:-- --:--:-- --:--:-- 0 100 387 100 387 0 0 4552 0 --:--:-- --:--:-- --:--:-- 4552 From sinton@wam-2.localdomain Mon May 10 05:51:17 2021 Return-Path: X-Original-To: sinton Delivered-To: sinton@wam-2.localdomain Received: by wam-2.localdomain (Postfix, from userid 1001) id B667539C8D; Mon, 10 May 2021 05:51:17 -0400 (EDT) From: root@wam-2.localdomain (Cron Daemon) To: sinton@wam-2.localdomain Subject: Cron bash -c "sleep $[RANDOM%14]m" ; ~/symlinks/TEAM1/fcst/startfcst.pl 1 > /dev/null MIME-Version: 1.0 Content-Type: text/plain; charset=UTF-8 Content-Transfer-Encoding: 8bit X-Cron-Env: X-Cron-Env: X-Cron-Env: X-Cron-Env: Message-Id: <20210510095117.B667539C8D@wam-2.localdomain> Date: Mon, 10 May 2021 05:51:17 -0400 (EDT) # CSV_XS ERROR: 2034 - EIF - Loose unescaped quote @ rec 0 pos 29 field 1 From sinton@wam-2.localdomain Mon May 10 05:52:01 2021 Return-Path: X-Original-To: sinton Delivered-To: sinton@wam-2.localdomain Received: by wam-2.localdomain (Postfix, from userid 1001) id B968B39C83; Mon, 10 May 2021 05:52:01 -0400 (EDT) From: root@wam-2.localdomain (Cron Daemon) To: sinton@wam-2.localdomain Subject: Cron ~/symlinks/TEAM99/ogoakinitchka2.sh 99 0.05 > /dev/null MIME-Version: 1.0 Content-Type: text/plain; charset=UTF-8 Content-Transfer-Encoding: 8bit X-Cron-Env: X-Cron-Env: X-Cron-Env: X-Cron-Env: Message-Id: <20210510095201.B968B39C83@wam-2.localdomain> Date: Mon, 10 May 2021 05:52:01 -0400 (EDT) /bin/sh: 1: /home/sinton/symlinks/TEAM99/ogoakinitchka2.sh: not found From sinton@wam-2.localdomain Mon May 10 05:52:01 2021 Return-Path: X-Original-To: sinton Delivered-To: sinton@wam-2.localdomain Received: by wam-2.localdomain (Postfix, from userid 1001) id CB6F939C8D; Mon, 10 May 2021 05:52:01 -0400 (EDT) From: root@wam-2.localdomain (Cron Daemon) To: sinton@wam-2.localdomain Subject: Cron ~/symlinks/TEAM1F/metin/apiv4.sh 1f > /dev/null MIME-Version: 1.0 Content-Type: text/plain; charset=UTF-8 Content-Transfer-Encoding: 8bit X-Cron-Env: X-Cron-Env: X-Cron-Env: X-Cron-Env: Message-Id: <20210510095201.CB6F939C8D@wam-2.localdomain> Date: Mon, 10 May 2021 05:52:01 -0400 (EDT) % Total % Received % Xferd Average Speed Time Time Time Current Dload Upload Total Spent Left Speed 0 0 0 0 0 0 0 0 --:--:-- --:--:-- --:--:-- 0 100 388 100 388 0 0 5388 0 --:--:-- --:--:-- --:--:-- 5388 From sinton@wam-2.localdomain Mon May 10 05:53:02 2021 Return-Path: X-Original-To: sinton Delivered-To: sinton@wam-2.localdomain Received: by wam-2.localdomain (Postfix, from userid 1001) id 0DE1939CAD; Mon, 10 May 2021 05:53:02 -0400 (EDT) From: root@wam-2.localdomain (Cron Daemon) To: sinton@wam-2.localdomain Subject: Cron ~/symlinks/TEAM99/ogoakinitchka2.sh 99 0.05 > /dev/null MIME-Version: 1.0 Content-Type: text/plain; charset=UTF-8 Content-Transfer-Encoding: 8bit X-Cron-Env: X-Cron-Env: X-Cron-Env: X-Cron-Env: Message-Id: <20210510095302.0DE1939CAD@wam-2.localdomain> Date: Mon, 10 May 2021 05:53:02 -0400 (EDT) /bin/sh: 1: /home/sinton/symlinks/TEAM99/ogoakinitchka2.sh: not found From sinton@wam-2.localdomain Mon May 10 05:53:02 2021 Return-Path: X-Original-To: sinton Delivered-To: sinton@wam-2.localdomain Received: by wam-2.localdomain (Postfix, from userid 1001) id 1E2D239CAD; Mon, 10 May 2021 05:53:02 -0400 (EDT) From: root@wam-2.localdomain (Cron Daemon) To: sinton@wam-2.localdomain Subject: Cron ~/symlinks/TEAM1F/metin/apiv4.sh 1f > /dev/null MIME-Version: 1.0 Content-Type: text/plain; charset=UTF-8 Content-Transfer-Encoding: 8bit X-Cron-Env: X-Cron-Env: X-Cron-Env: X-Cron-Env: Message-Id: <20210510095302.1E2D239CAD@wam-2.localdomain> Date: Mon, 10 May 2021 05:53:02 -0400 (EDT) % Total % Received % Xferd Average Speed Time Time Time Current Dload Upload Total Spent Left Speed 0 0 0 0 0 0 0 0 --:--:-- --:--:-- --:--:-- 0 100 388 100 388 0 0 5969 0 --:--:-- --:--:-- --:--:-- 5969 From sinton@wam-2.localdomain Mon May 10 05:54:01 2021 Return-Path: X-Original-To: sinton Delivered-To: sinton@wam-2.localdomain Received: by wam-2.localdomain (Postfix, from userid 1001) id 5618639CA2; Mon, 10 May 2021 05:54:01 -0400 (EDT) From: root@wam-2.localdomain (Cron Daemon) To: sinton@wam-2.localdomain Subject: Cron ~/symlinks/TEAM99/ogoakinitchka2.sh 99 0.05 > /dev/null MIME-Version: 1.0 Content-Type: text/plain; charset=UTF-8 Content-Transfer-Encoding: 8bit X-Cron-Env: X-Cron-Env: X-Cron-Env: X-Cron-Env: Message-Id: <20210510095401.5618639CA2@wam-2.localdomain> Date: Mon, 10 May 2021 05:54:01 -0400 (EDT) /bin/sh: 1: /home/sinton/symlinks/TEAM99/ogoakinitchka2.sh: not found From sinton@wam-2.localdomain Mon May 10 05:54:01 2021 Return-Path: